<?xml version="1.0" encoding="UTF-8"?>
<gpx version="1.1" creator="Endomondo.com" xsi:schemaLocation="http://www.topografix.com/GPX/1/1 http://www.topografix.com/GPX/1/1/gpx.xsd http://www.garmin.com/xmlschemas/GpxExtensions/v3 http://www.garmin.com/xmlschemas/GpxExtensionsv3.xsd http://www.garmin.com/xmlschemas/TrackPointExtension/v1 http://www.garmin.com/xmlschemas/TrackPointExtensionv1.xsd" xmlns="http://www.topografix.com/GPX/1/1" xmlns:gpxtpx="http://www.garmin.com/xmlschemas/TrackPointExtension/v1" xmlns:gpxx="http://www.garmin.com/xmlschemas/GpxExtensions/v3" xmlns:xsi="http://www.w3.org/2001/XMLSchema-instance">
  <metadata>
    <author>
      <name>Pablo Pravia Fernadez</name>
      <email id="praporvertesonreir" domain="gmail.com"/>
    </author>
    <link href="http://www.endomondo.com">
      <text>Endomondo</text>
    </link>
    <time>2012-06-13T16:45:00Z</time>
    <bounds minlat="43.393043" minlon="-6.067057" maxlat="43.399005" maxlon="-6.049216"/>
  </metadata>
  <trk>
    <name>195 Km, CotobelloNaranco</name>
    <cmt>Mayo 2012 ( Clásica Martes de Campo )&#xd;
Grado, Oviedo, Mieres, Moreda, Corigos, Alto de Cotobello 1198m ( 10 Km al 8.2% ), Corigos, Moreda, Mieres, Oviedo, El Berron, Pola de Siero, El Berrón, Oviedo, Alto del Naranco 644m ( 6.8 Km al 5.7% ), Oviedo, Trubia, Grado. 195 Km.</cmt>
    <src>http://www.endomondo.com/</src>
    <link href="http://www.endomondo.com/workouts/sigh2eFjhFc">
      <text>195 Km, CotobelloNaranco</text>
    </link>
    <type>CYCLING_SPORT</type>
    <trkseg>
      <trkpt lat="43.393043" lon="-6.067057">
        <time>2012-05-29T05:47:00Z</time>
      </trkpt>
      <trkpt lat="43.393043" lon="-6.067057">
        <ele>130.0</ele>
        <time>2012-05-29T05:47:03Z</time>
      </trkpt>
      <trkpt lat="43.393225" lon="-6.06668">
        <ele>123.0</ele>
        <time>2012-05-29T05:47:07Z</time>
      </trkpt>
      <trkpt lat="43.393323" lon="-6.066349">
        <ele>121.0</ele>
        <time>2012-05-29T05:47:10Z</time>
      </trkpt>
      <trkpt lat="43.393358" lon="-6.065831">
        <ele>118.0</ele>
        <time>2012-05-29T05:47:15Z</time>
      </trkpt>
      <trkpt lat="43.393375" lon="-6.065447">
        <ele>117.0</ele>
        <time>2012-05-29T05:47:19Z</time>
      </trkpt>
      <trkpt lat="43.393369" lon="-6.065081">
        <ele>116.0</ele>
        <time>2012-05-29T05:47:23Z</time>
      </trkpt>
      <trkpt lat="43.393372" lon="-6.064713">
        <ele>117.0</ele>
        <time>2012-05-29T05:47:27Z</time>
      </trkpt>
      <trkpt lat="43.39339" lon="-6.064348">
        <ele>118.0</ele>
        <time>2012-05-29T05:47:31Z</time>
      </trkpt>
      <trkpt lat="43.393354" lon="-6.063973">
        <ele>118.0</ele>
        <time>2012-05-29T05:47:35Z</time>
      </trkpt>
      <trkpt lat="43.393338" lon="-6.063581">
        <ele>119.0</ele>
        <time>2012-05-29T05:47:39Z</time>
      </trkpt>
      <trkpt lat="43.393354" lon="-6.063182">
        <ele>119.0</ele>
        <time>2012-05-29T05:47:43Z</time>
      </trkpt>
      <trkpt lat="43.393388" lon="-6.062772">
        <ele>118.0</ele>
        <time>2012-05-29T05:47:47Z</time>
      </trkpt>
      <trkpt lat="43.393404" lon="-6.062566">
        <ele>118.0</ele>
        <time>2012-05-29T05:47:49Z</time>
      </trkpt>
      <trkpt lat="43.393429" lon="-6.061969">
        <ele>117.0</ele>
        <time>2012-05-29T05:47:55Z</time>
      </trkpt>
      <trkpt lat="43.393426" lon="-6.061707">
        <ele>117.0</ele>
        <time>2012-05-29T05:47:58Z</time>
      </trkpt>
      <trkpt lat="43.393428" lon="-6.061376">
        <ele>116.0</ele>
        <time>2012-05-29T05:48:02Z</time>
      </trkpt>
      <trkpt lat="43.393455" lon="-6.061058">
        <ele>116.0</ele>
        <time>2012-05-29T05:48:06Z</time>
      </trkpt>
      <trkpt lat="43.393525" lon="-6.060752">
        <ele>116.0</ele>
        <time>2012-05-29T05:48:10Z</time>
      </trkpt>
      <trkpt lat="43.393611" lon="-6.060448">
        <ele>115.0</ele>
        <time>2012-05-29T05:48:14Z</time>
      </trkpt>
      <trkpt lat="43.39371" lon="-6.060144">
        <ele>113.0</ele>
        <time>2012-05-29T05:48:18Z</time>
      </trkpt>
      <trkpt lat="43.393831" lon="-6.05987">
        <ele>111.0</ele>
        <time>2012-05-29T05:48:22Z</time>
      </trkpt>
      <trkpt lat="43.393962" lon="-6.05962">
        <ele>111.0</ele>
        <time>2012-05-29T05:48:26Z</time>
      </trkpt>
      <trkpt lat="43.39409" lon="-6.059357">
        <ele>110.0</ele>
        <time>2012-05-29T05:48:30Z</time>
      </trkpt>
      <trkpt lat="43.394221" lon="-6.059085">
        <ele>109.0</ele>
        <time>2012-05-29T05:48:34Z</time>
      </trkpt>
      <trkpt lat="43.394385" lon="-6.058724">
        <ele>108.0</ele>
        <time>2012-05-29T05:48:39Z</time>
      </trkpt>
      <trkpt lat="43.394494" lon="-6.058426">
        <ele>107.0</ele>
        <time>2012-05-29T05:48:43Z</time>
      </trkpt>
      <trkpt lat="43.394613" lon="-6.058104">
        <ele>107.0</ele>
        <time>2012-05-29T05:48:47Z</time>
      </trkpt>
      <trkpt lat="43.394767" lon="-6.057953">
        <ele>106.0</ele>
        <time>2012-05-29T05:48:50Z</time>
      </trkpt>
      <trkpt lat="43.394929" lon="-6.0577">
        <ele>106.0</ele>
        <time>2012-05-29T05:48:54Z</time>
      </trkpt>
      <trkpt lat="43.395093" lon="-6.057332">
        <ele>105.0</ele>
        <time>2012-05-29T05:48:59Z</time>
      </trkpt>
      <trkpt lat="43.395235" lon="-6.05704">
        <ele>105.0</ele>
        <time>2012-05-29T05:49:03Z</time>
      </trkpt>
      <trkpt lat="43.395378" lon="-6.056742">
        <ele>106.0</ele>
        <time>2012-05-29T05:49:08Z</time>
      </trkpt>
      <trkpt lat="43.39552" lon="-6.056443">
        <ele>106.0</ele>
        <time>2012-05-29T05:49:11Z</time>
      </trkpt>
      <trkpt lat="43.395662" lon="-6.056144">
        <ele>106.0</ele>
        <time>2012-05-29T05:49:15Z</time>
      </trkpt>
      <trkpt lat="43.395767" lon="-6.055926">
        <ele>107.0</ele>
        <time>2012-05-29T05:49:18Z</time>
      </trkpt>
      <trkpt lat="43.395935" lon="-6.055564">
        <ele>107.0</ele>
        <time>2012-05-29T05:49:23Z</time>
      </trkpt>
      <trkpt lat="43.396039" lon="-6.055346">
        <ele>107.0</ele>
        <time>2012-05-29T05:49:26Z</time>
      </trkpt>
      <trkpt lat="43.396176" lon="-6.055064">
        <ele>107.0</ele>
        <time>2012-05-29T05:49:30Z</time>
      </trkpt>
      <trkpt lat="43.396315" lon="-6.054787">
        <ele>106.0</ele>
        <time>2012-05-29T05:49:34Z</time>
      </trkpt>
      <trkpt lat="43.396495" lon="-6.054438">
        <ele>106.0</ele>
        <time>2012-05-29T05:49:39Z</time>
      </trkpt>
      <trkpt lat="43.39663" lon="-6.054142">
        <ele>106.0</ele>
        <time>2012-05-29T05:49:43Z</time>
      </trkpt>
      <trkpt lat="43.396767" lon="-6.053843">
        <ele>105.0</ele>
        <time>2012-05-29T05:49:47Z</time>
      </trkpt>
      <trkpt lat="43.396911" lon="-6.053549">
        <ele>105.0</ele>
        <time>2012-05-29T05:49:51Z</time>
      </trkpt>
      <trkpt lat="43.39706" lon="-6.053248">
        <ele>105.0</ele>
        <time>2012-05-29T05:49:55Z</time>
      </trkpt>
      <trkpt lat="43.397206" lon="-6.052955">
        <ele>105.0</ele>
        <time>2012-05-29T05:49:59Z</time>
      </trkpt>
      <trkpt lat="43.397346" lon="-6.052662">
        <ele>104.0</ele>
        <time>2012-05-29T05:50:03Z</time>
      </trkpt>
      <trkpt lat="43.397488" lon="-6.052369">
        <ele>104.0</ele>
        <time>2012-05-29T05:50:07Z</time>
      </trkpt>
      <trkpt lat="43.397629" lon="-6.052075">
        <ele>104.0</ele>
        <time>2012-05-29T05:50:11Z</time>
      </trkpt>
      <trkpt lat="43.397773" lon="-6.051781">
        <ele>104.0</ele>
        <time>2012-05-29T05:50:15Z</time>
      </trkpt>
      <trkpt lat="43.397906" lon="-6.051462">
        <ele>104.0</ele>
        <time>2012-05-29T05:50:19Z</time>
      </trkpt>
      <trkpt lat="43.397962" lon="-6.051199">
        <ele>104.0</ele>
        <time>2012-05-29T05:50:22Z</time>
      </trkpt>
      <trkpt lat="43.397902" lon="-6.050897">
        <ele>104.0</ele>
        <time>2012-05-29T05:50:26Z</time>
      </trkpt>
      <trkpt lat="43.39793" lon="-6.050597">
        <ele>105.0</ele>
        <time>2012-05-29T05:50:30Z</time>
      </trkpt>
      <trkpt lat="43.398116" lon="-6.050451">
        <ele>105.0</ele>
        <time>2012-05-29T05:50:34Z</time>
      </trkpt>
      <trkpt lat="43.398425" lon="-6.050394">
        <ele>105.0</ele>
        <time>2012-05-29T05:50:39Z</time>
      </trkpt>
      <trkpt lat="43.398559" lon="-6.050215">
        <ele>105.0</ele>
        <time>2012-05-29T05:50:42Z</time>
      </trkpt>
      <trkpt lat="43.3987" lon="-6.049937">
        <ele>104.0</ele>
        <time>2012-05-29T05:50:46Z</time>
      </trkpt>
      <trkpt lat="43.398835" lon="-6.049651">
        <ele>104.0</ele>
        <time>2012-05-29T05:50:50Z</time>
      </trkpt>
      <trkpt lat="43.398963" lon="-6.049382">
        <ele>104.0</ele>
        <time>2012-05-29T05:50:54Z</time>
      </trkpt>
      <trkpt lat="43.39909" lon="-6.049118">
        <ele>104.0</ele>
        <time>2012-05-29T05:50:58Z</time>
      </trkpt>
      <trkpt lat="43.399222" lon="-6.048858">
        <ele>104.0</ele>
        <time>2012-05-29T05:51:02Z</time>
      </trkpt>
      <trkpt lat="43.399358" lon="-6.048598">
        <ele>104.0</ele>
        <time>2012-05-29T05:51:06Z</time>
      </trkpt>
      <trkpt lat="43.3995" lon="-6.048346">
        <ele>105.0</ele>
        <time>2012-05-29T05:51:10Z</time>
      </trkpt>
      <trkpt lat="43.399659" lon="-6.048109">
        <ele>105.0</ele>
        <time>2012-05-29T05:51:14Z</time>
      </trkpt>
      <trkpt lat="43.399838" lon="-6.047882">
        <ele>105.0</ele>
        <time>2012-05-29T05:51:18Z</time>
      </trkpt>
      <trkpt lat="43.400027" lon="-6.047667">
        <ele>105.0</ele>
        <time>2012-05-29T05:51:22Z</time>
      </trkpt>
      <trkpt lat="43.400224" lon="-6.047463">
        <ele>105.0</ele>
        <time>2012-05-29T05:51:26Z</time>
      </trkpt>
      <trkpt lat="43.400425" lon="-6.047263">
        <ele>105.0</ele>
        <time>2012-05-29T05:51:30Z</time>
      </trkpt>
      <trkpt lat="43.400685" lon="-6.047016">
        <ele>106.0</ele>
        <time>2012-05-29T05:51:35Z</time>
      </trkpt>
      <trkpt lat="43.400896" lon="-6.046831">
        <ele>107.0</ele>
        <time>2012-05-29T05:51:39Z</time>
      </trkpt>
      <trkpt lat="43.401102" lon="-6.046644">
        <ele>107.0</ele>
        <time>2012-05-29T05:51:43Z</time>
      </trkpt>
      <trkpt lat="43.401304" lon="-6.046451">
        <ele>105.0</ele>
        <time>2012-05-29T05:51:47Z</time>
      </trkpt>
      <trkpt lat="43.401504" lon="-6.046251">
        <ele>103.0</ele>
        <time>2012-05-29T05:51:51Z</time>
      </trkpt>
      <trkpt lat="43.401694" lon="-6.046062">
        <ele>103.0</ele>
        <time>2012-05-29T05:51:55Z</time>
      </trkpt>
      <trkpt lat="43.401883" lon="-6.045876">
        <ele>102.0</ele>
        <time>2012-05-29T05:51:59Z</time>
      </trkpt>
      <trkpt lat="43.402068" lon="-6.045691">
        <ele>102.0</ele>
        <time>2012-05-29T05:52:03Z</time>
      </trkpt>
      <trkpt lat="43.402226" lon="-6.045466">
        <ele>102.0</ele>
        <time>2012-05-29T05:52:07Z</time>
      </trkpt>
      <trkpt lat="43.402351" lon="-6.045187">
        <ele>103.0</ele>
        <time>2012-05-29T05:52:11Z</time>
      </trkpt>
      <trkpt lat="43.402453" lon="-6.044891">
        <ele>103.0</ele>
        <time>2012-05-29T05:52:15Z</time>
      </trkpt>
      <trkpt lat="43.402569" lon="-6.0446">
        <ele>103.0</ele>
        <time>2012-05-29T05:52:19Z</time>
      </trkpt>
      <trkpt lat="43.402731" lon="-6.044357">
        <ele>104.0</ele>
        <time>2012-05-29T05:52:23Z</time>
      </trkpt>
      <trkpt lat="43.402905" lon="-6.044111">
        <ele>104.0</ele>
        <time>2012-05-29T05:52:27Z</time>
      </trkpt>
      <trkpt lat="43.403028" lon="-6.043791">
        <ele>105.0</ele>
        <time>2012-05-29T05:52:31Z</time>
      </trkpt>
      <trkpt lat="43.403069" lon="-6.04363">
        <ele>105.0</ele>
        <time>2012-05-29T05:52:33Z</time>
      </trkpt>
      <trkpt lat="43.403083" lon="-6.04321">
        <ele>105.0</ele>
        <time>2012-05-29T05:52:39Z</time>
      </trkpt>
      <trkpt lat="43.40312" lon="-6.042919">
        <ele>104.0</ele>
        <time>2012-05-29T05:52:43Z</time>
      </trkpt>
      <trkpt lat="43.403151" lon="-6.042627">
        <ele>103.0</ele>
        <time>2012-05-29T05:52:47Z</time>
      </trkpt>
      <trkpt lat="43.403149" lon="-6.042356">
        <ele>102.0</ele>
        <time>2012-05-29T05:52:51Z</time>
      </trkpt>
      <trkpt lat="43.403116" lon="-6.042102">
        <ele>102.0</ele>
        <time>2012-05-29T05:52:55Z</time>
      </trkpt>
      <trkpt lat="43.40307" lon="-6.041868">
        <ele>103.0</ele>
        <time>2012-05-29T05:52:59Z</time>
      </trkpt>
      <trkpt lat="43.403046" lon="-6.04163">
        <ele>103.0</ele>
        <time>2012-05-29T05:53:03Z</time>
      </trkpt>
      <trkpt lat="43.403026" lon="-6.041393">
        <ele>104.0</ele>
        <time>2012-05-29T05:53:07Z</time>
      </trkpt>
      <trkpt lat="43.402997" lon="-6.041158">
        <ele>104.0</ele>
        <time>2012-05-29T05:53:11Z</time>
      </trkpt>
      <trkpt lat="43.402967" lon="-6.040933">
        <ele>104.0</ele>
        <time>2012-05-29T05:53:15Z</time>
      </trkpt>
      <trkpt lat="43.402951" lon="-6.040694">
        <ele>104.0</ele>
        <time>2012-05-29T05:53:19Z</time>
      </trkpt>
      <trkpt lat="43.402945" lon="-6.04042">
        <ele>105.0</ele>
        <time>2012-05-29T05:53:23Z</time>
      </trkpt>
      <trkpt lat="43.402919" lon="-6.040141">
        <ele>105.0</ele>
        <time>2012-05-29T05:53:27Z</time>
      </trkpt>
      <trkpt lat="43.402897" lon="-6.039859">
        <ele>105.0</ele>
        <time>2012-05-29T05:53:31Z</time>
      </trkpt>
      <trkpt lat="43.402776" lon="-6.039629">
        <ele>105.0</ele>
        <time>2012-05-29T05:53:35Z</time>
      </trkpt>
      <trkpt lat="43.402635" lon="-6.039427">
        <ele>106.0</ele>
        <time>2012-05-29T05:53:39Z</time>
      </trkpt>
      <trkpt lat="43.402514" lon="-6.038867">
        <ele>104.0</ele>
        <time>2012-05-29T05:53:47Z</time>
      </trkpt>
      <trkpt lat="43.402446" lon="-6.038571">
        <ele>103.0</ele>
        <time>2012-05-29T05:53:51Z</time>
      </trkpt>
      <trkpt lat="43.40234" lon="-6.038288">
        <ele>103.0</ele>
        <time>2012-05-29T05:53:55Z</time>
      </trkpt>
      <trkpt lat="43.402223" lon="-6.038011">
        <ele>102.0</ele>
        <time>2012-05-29T05:53:59Z</time>
      </trkpt>
      <trkpt lat="43.402134" lon="-6.037734">
        <ele>103.0</ele>
        <time>2012-05-29T05:54:03Z</time>
      </trkpt>
      <trkpt lat="43.402039" lon="-6.037468">
        <ele>103.0</ele>
        <time>2012-05-29T05:54:07Z</time>
      </trkpt>
      <trkpt lat="43.401949" lon="-6.037202">
        <ele>104.0</ele>
        <time>2012-05-29T05:54:11Z</time>
      </trkpt>
      <trkpt lat="43.401853" lon="-6.036943">
        <ele>104.0</ele>
        <time>2012-05-29T05:54:15Z</time>
      </trkpt>
      <trkpt lat="43.401763" lon="-6.036685">
        <ele>105.0</ele>
        <time>2012-05-29T05:54:19Z</time>
      </trkpt>
      <trkpt lat="43.401723" lon="-6.036555">
        <ele>106.0</ele>
        <time>2012-05-29T05:54:21Z</time>
      </trkpt>
      <trkpt lat="43.401723" lon="-6.036555">
        <time>2012-05-29T05:54:33Z</time>
      </trkpt>
    </trkseg>
    <trkseg>
      <trkpt lat="43.401723" lon="-6.036555">
        <time>2012-05-29T05:54:55Z</time>
      </trkpt>
      <trkpt lat="43.400833" lon="-6.034232">
        <ele>105.0</ele>
        <time>2012-05-29T05:54:57Z</time>
      </trkpt>
      <trkpt lat="43.400778" lon="-6.033982">
        <ele>106.0</ele>
        <time>2012-05-29T05:55:01Z</time>
      </trkpt>
      <trkpt lat="43.400663" lon="-6.033767">
        <ele>108.0</ele>
        <time>2012-05-29T05:55:05Z</time>
      </trkpt>
      <trkpt lat="43.400524" lon="-6.033562">
        <ele>109.0</ele>
        <time>2012-05-29T05:55:10Z</time>
      </trkpt>
      <trkpt lat="43.400374" lon="-6.03336">
        <ele>110.0</ele>
        <time>2012-05-29T05:55:13Z</time>
      </trkpt>
      <trkpt lat="43.400227" lon="-6.033154">
        <ele>111.0</ele>
        <time>2012-05-29T05:55:17Z</time>
      </trkpt>
      <trkpt lat="43.400071" lon="-6.032955">
        <ele>112.0</ele>
        <time>2012-05-29T05:55:21Z</time>
      </trkpt>
      <trkpt lat="43.399923" lon="-6.032751">
        <ele>112.0</ele>
        <time>2012-05-29T05:55:25Z</time>
      </trkpt>
      <trkpt lat="43.399779" lon="-6.032539">
        <ele>113.0</ele>
        <time>2012-05-29T05:55:29Z</time>
      </trkpt>
      <trkpt lat="43.399708" lon="-6.03243">
        <ele>113.0</ele>
        <time>2012-05-29T05:55:31Z</time>
      </trkpt>
      <trkpt lat="43.399497" lon="-6.032104">
        <ele>113.0</ele>
        <time>2012-05-29T05:55:37Z</time>
      </trkpt>
      <trkpt lat="43.399426" lon="-6.031996">
        <ele>113.0</ele>
        <time>2012-05-29T05:55:39Z</time>
      </trkpt>
      <trkpt lat="43.399159" lon="-6.031633">
        <ele>113.0</ele>
        <time>2012-05-29T05:55:46Z</time>
      </trkpt>
      <trkpt lat="43.398961" lon="-6.031493">
        <ele>115.0</ele>
        <time>2012-05-29T05:55:50Z</time>
      </trkpt>
      <trkpt lat="43.398863" lon="-6.031261">
        <ele>114.0</ele>
        <time>2012-05-29T05:55:54Z</time>
      </trkpt>
      <trkpt lat="43.398754" lon="-6.031007">
        <ele>113.0</ele>
        <time>2012-05-29T05:55:58Z</time>
      </trkpt>
      <trkpt lat="43.398573" lon="-6.030772">
        <ele>112.0</ele>
        <time>2012-05-29T05:56:02Z</time>
      </trkpt>
      <trkpt lat="43.398351" lon="-6.030584">
        <ele>112.0</ele>
        <time>2012-05-29T05:56:06Z</time>
      </trkpt>
      <trkpt lat="43.398131" lon="-6.030423">
        <ele>113.0</ele>
        <time>2012-05-29T05:56:10Z</time>
      </trkpt>
      <trkpt lat="43.397918" lon="-6.030284">
        <ele>114.0</ele>
        <time>2012-05-29T05:56:14Z</time>
      </trkpt>
      <trkpt lat="43.397706" lon="-6.030147">
        <ele>116.0</ele>
        <time>2012-05-29T05:56:18Z</time>
      </trkpt>
      <trkpt lat="43.397488" lon="-6.030012">
        <ele>117.0</ele>
        <time>2012-05-29T05:56:22Z</time>
      </trkpt>
      <trkpt lat="43.397277" lon="-6.029866">
        <ele>118.0</ele>
        <time>2012-05-29T05:56:26Z</time>
      </trkpt>
      <trkpt lat="43.397178" lon="-6.02978">
        <ele>118.0</ele>
        <time>2012-05-29T05:56:28Z</time>
      </trkpt>
      <trkpt lat="43.396931" lon="-6.029465">
        <ele>119.0</ele>
        <time>2012-05-29T05:56:34Z</time>
      </trkpt>
      <trkpt lat="43.396792" lon="-6.029224">
        <ele>120.0</ele>
        <time>2012-05-29T05:56:38Z</time>
      </trkpt>
      <trkpt lat="43.396665" lon="-6.028968">
        <ele>120.0</ele>
        <time>2012-05-29T05:56:42Z</time>
      </trkpt>
      <trkpt lat="43.396552" lon="-6.028699">
        <ele>121.0</ele>
        <time>2012-05-29T05:56:46Z</time>
      </trkpt>
      <trkpt lat="43.396467" lon="-6.028405">
        <ele>121.0</ele>
        <time>2012-05-29T05:56:50Z</time>
      </trkpt>
      <trkpt lat="43.39641" lon="-6.028104">
        <ele>121.0</ele>
        <time>2012-05-29T05:56:54Z</time>
      </trkpt>
      <trkpt lat="43.39636" lon="-6.0278">
        <ele>121.0</ele>
        <time>2012-05-29T05:56:58Z</time>
      </trkpt>
      <trkpt lat="43.396315" lon="-6.02749">
        <ele>121.0</ele>
        <time>2012-05-29T05:57:02Z</time>
      </trkpt>
      <trkpt lat="43.39626" lon="-6.027189">
        <ele>121.0</ele>
        <time>2012-05-29T05:57:06Z</time>
      </trkpt>
      <trkpt lat="43.396209" lon="-6.026885">
        <ele>121.0</ele>
        <time>2012-05-29T05:57:10Z</time>
      </trkpt>
      <trkpt lat="43.396151" lon="-6.026576">
        <ele>121.0</ele>
        <time>2012-05-29T05:57:14Z</time>
      </trkpt>
      <trkpt lat="43.396091" lon="-6.026275">
        <ele>122.0</ele>
        <time>2012-05-29T05:57:18Z</time>
      </trkpt>
      <trkpt lat="43.396057" lon="-6.026127">
        <ele>122.0</ele>
        <time>2012-05-29T05:57:20Z</time>
      </trkpt>
      <trkpt lat="43.395831" lon="-6.025781">
        <ele>122.0</ele>
        <time>2012-05-29T05:57:26Z</time>
      </trkpt>
      <trkpt lat="43.395597" lon="-6.025693">
        <ele>122.0</ele>
        <time>2012-05-29T05:57:30Z</time>
      </trkpt>
      <trkpt lat="43.39536" lon="-6.025676">
        <ele>122.0</ele>
        <time>2012-05-29T05:57:34Z</time>
      </trkpt>
      <trkpt lat="43.395242" lon="-6.025684">
        <ele>123.0</ele>
        <time>2012-05-29T05:57:36Z</time>
      </trkpt>
      <trkpt lat="43.394897" lon="-6.025696">
        <ele>124.0</ele>
        <time>2012-05-29T05:57:42Z</time>
      </trkpt>
      <trkpt lat="43.394672" lon="-6.025661">
        <ele>124.0</ele>
        <time>2012-05-29T05:57:46Z</time>
      </trkpt>
      <trkpt lat="43.394457" lon="-6.025571">
        <ele>124.0</ele>
        <time>2012-05-29T05:57:50Z</time>
      </trkpt>
      <trkpt lat="43.394256" lon="-6.025438">
        <ele>124.0</ele>
        <time>2012-05-29T05:57:54Z</time>
      </trkpt>
      <trkpt lat="43.394071" lon="-6.025274">
        <ele>124.0</ele>
        <time>2012-05-29T05:57:58Z</time>
      </trkpt>
      <trkpt lat="43.39389" lon="-6.025098">
        <ele>125.0</ele>
        <time>2012-05-29T05:58:02Z</time>
      </trkpt>
      <trkpt lat="43.393714" lon="-6.024914">
        <ele>125.0</ele>
        <time>2012-05-29T05:58:06Z</time>
      </trkpt>
      <trkpt lat="43.393553" lon="-6.02471">
        <ele>125.0</ele>
        <time>2012-05-29T05:58:10Z</time>
      </trkpt>
      <trkpt lat="43.393411" lon="-6.024474">
        <ele>125.0</ele>
        <time>2012-05-29T05:58:14Z</time>
      </trkpt>
      <trkpt lat="43.393218" lon="-6.023927">
        <ele>125.0</ele>
        <time>2012-05-29T05:58:22Z</time>
      </trkpt>
      <trkpt lat="43.393173" lon="-6.023614">
        <ele>126.0</ele>
        <time>2012-05-29T05:58:26Z</time>
      </trkpt>
      <trkpt lat="43.393144" lon="-6.023289">
        <ele>126.0</ele>
        <time>2012-05-29T05:58:30Z</time>
      </trkpt>
      <trkpt lat="43.393035" lon="-6.022669">
        <ele>127.0</ele>
        <time>2012-05-29T05:58:38Z</time>
      </trkpt>
      <trkpt lat="43.392928" lon="-6.022397">
        <ele>128.0</ele>
        <time>2012-05-29T05:58:42Z</time>
      </trkpt>
      <trkpt lat="43.392825" lon="-6.022127">
        <ele>128.0</ele>
        <time>2012-05-29T05:58:46Z</time>
      </trkpt>
      <trkpt lat="43.39278" lon="-6.021823">
        <ele>128.0</ele>
        <time>2012-05-29T05:58:50Z</time>
      </trkpt>
      <trkpt lat="43.392844" lon="-6.021526">
        <ele>128.0</ele>
        <time>2012-05-29T05:58:54Z</time>
      </trkpt>
      <trkpt lat="43.39299" lon="-6.021314">
        <ele>129.0</ele>
        <time>2012-05-29T05:58:58Z</time>
      </trkpt>
      <trkpt lat="43.393172" lon="-6.021143">
        <ele>129.0</ele>
        <time>2012-05-29T05:59:02Z</time>
      </trkpt>
      <trkpt lat="43.393366" lon="-6.020973">
        <ele>129.0</ele>
        <time>2012-05-29T05:59:06Z</time>
      </trkpt>
      <trkpt lat="43.39354" lon="-6.02076">
        <ele>129.0</ele>
        <time>2012-05-29T05:59:10Z</time>
      </trkpt>
      <trkpt lat="43.393625" lon="-6.020532">
        <ele>130.0</ele>
        <time>2012-05-29T05:59:13Z</time>
      </trkpt>
      <trkpt lat="43.39366" lon="-6.020206">
        <ele>130.0</ele>
        <time>2012-05-29T05:59:17Z</time>
      </trkpt>
      <trkpt lat="43.393645" lon="-6.019889">
        <ele>130.0</ele>
        <time>2012-05-29T05:59:21Z</time>
      </trkpt>
      <trkpt lat="43.393581" lon="-6.019587">
        <ele>129.0</ele>
        <time>2012-05-29T05:59:25Z</time>
      </trkpt>
      <trkpt lat="43.393473" lon="-6.019302">
        <ele>130.0</ele>
        <time>2012-05-29T05:59:29Z</time>
      </trkpt>
      <trkpt lat="43.393299" lon="-6.019075">
        <ele>130.0</ele>
        <time>2012-05-29T05:59:33Z</time>
      </trkpt>
      <trkpt lat="43.393085" lon="-6.018933">
        <ele>130.0</ele>
        <time>2012-05-29T05:59:37Z</time>
      </trkpt>
      <trkpt lat="43.392869" lon="-6.018803">
        <ele>130.0</ele>
        <time>2012-05-29T05:59:41Z</time>
      </trkpt>
      <trkpt lat="43.392708" lon="-6.01859">
        <ele>130.0</ele>
        <time>2012-05-29T05:59:45Z</time>
      </trkpt>
      <trkpt lat="43.392631" lon="-6.018287">
        <ele>130.0</ele>
        <time>2012-05-29T05:59:49Z</time>
      </trkpt>
      <trkpt lat="43.3926" lon="-6.017966">
        <ele>130.0</ele>
        <time>2012-05-29T05:59:53Z</time>
      </trkpt>
      <trkpt lat="43.392585" lon="-6.017645">
        <ele>131.0</ele>
        <time>2012-05-29T05:59:57Z</time>
      </trkpt>
      <trkpt lat="43.392574" lon="-6.017337">
        <ele>131.0</ele>
        <time>2012-05-29T06:00:01Z</time>
      </trkpt>
      <trkpt lat="43.39256" lon="-6.017038">
        <ele>131.0</ele>
        <time>2012-05-29T06:00:05Z</time>
      </trkpt>
      <trkpt lat="43.392548" lon="-6.016743">
        <ele>132.0</ele>
        <time>2012-05-29T06:00:09Z</time>
      </trkpt>
      <trkpt lat="43.392535" lon="-6.016456">
        <ele>132.0</ele>
        <time>2012-05-29T06:00:13Z</time>
      </trkpt>
      <trkpt lat="43.392531" lon="-6.016172">
        <ele>132.0</ele>
        <time>2012-05-29T06:00:17Z</time>
      </trkpt>
      <trkpt lat="43.392512" lon="-6.015896">
        <ele>132.0</ele>
        <time>2012-05-29T06:00:21Z</time>
      </trkpt>
      <trkpt lat="43.392498" lon="-6.015629">
        <ele>132.0</ele>
        <time>2012-05-29T06:00:25Z</time>
      </trkpt>
      <trkpt lat="43.392483" lon="-6.015362">
        <ele>131.0</ele>
        <time>2012-05-29T06:00:29Z</time>
      </trkpt>
      <trkpt lat="43.39247" lon="-6.015101">
        <ele>131.0</ele>
        <time>2012-05-29T06:00:33Z</time>
      </trkpt>
      <trkpt lat="43.392453" lon="-6.014834">
        <ele>131.0</ele>
        <time>2012-05-29T06:00:37Z</time>
      </trkpt>
      <trkpt lat="43.392447" lon="-6.01457">
        <ele>131.0</ele>
        <time>2012-05-29T06:00:41Z</time>
      </trkpt>
      <trkpt lat="43.392434" lon="-6.014314">
        <ele>131.0</ele>
        <time>2012-05-29T06:00:45Z</time>
      </trkpt>
      <trkpt lat="43.392401" lon="-6.014055">
        <ele>131.0</ele>
        <time>2012-05-29T06:00:49Z</time>
      </trkpt>
      <trkpt lat="43.392375" lon="-6.013924">
        <ele>132.0</ele>
        <time>2012-05-29T06:00:51Z</time>
      </trkpt>
      <trkpt lat="43.392267" lon="-6.013548">
        <ele>132.0</ele>
        <time>2012-05-29T06:00:57Z</time>
      </trkpt>
      <trkpt lat="43.392222" lon="-6.013433">
        <ele>132.0</ele>
        <time>2012-05-29T06:00:59Z</time>
      </trkpt>
      <trkpt lat="43.392015" lon="-6.013116">
        <ele>132.0</ele>
        <time>2012-05-29T06:01:05Z</time>
      </trkpt>
      <trkpt lat="43.391863" lon="-6.012912">
        <ele>132.0</ele>
        <time>2012-05-29T06:01:09Z</time>
      </trkpt>
      <trkpt lat="43.391705" lon="-6.012724">
        <ele>132.0</ele>
        <time>2012-05-29T06:01:13Z</time>
      </trkpt>
      <trkpt lat="43.391534" lon="-6.012548">
        <ele>133.0</ele>
        <time>2012-05-29T06:01:17Z</time>
      </trkpt>
      <trkpt lat="43.39135" lon="-6.012399">
        <ele>134.0</ele>
        <time>2012-05-29T06:01:21Z</time>
      </trkpt>
      <trkpt lat="43.391144" lon="-6.012289">
        <ele>134.0</ele>
        <time>2012-05-29T06:01:25Z</time>
      </trkpt>
      <trkpt lat="43.390941" lon="-6.01218">
        <ele>135.0</ele>
        <time>2012-05-29T06:01:29Z</time>
      </trkpt>
      <trkpt lat="43.390757" lon="-6.012025">
        <ele>136.0</ele>
        <time>2012-05-29T06:01:33Z</time>
      </trkpt>
      <trkpt lat="43.390614" lon="-6.011808">
        <ele>136.0</ele>
        <time>2012-05-29T06:01:37Z</time>
      </trkpt>
      <trkpt lat="43.390493" lon="-6.011567">
        <ele>136.0</ele>
        <time>2012-05-29T06:01:41Z</time>
      </trkpt>
      <trkpt lat="43.390375" lon="-6.011329">
        <ele>136.0</ele>
        <time>2012-05-29T06:01:45Z</time>
      </trkpt>
      <trkpt lat="43.390253" lon="-6.011088">
        <ele>136.0</ele>
        <time>2012-05-29T06:01:49Z</time>
      </trkpt>
      <trkpt lat="43.390136" lon="-6.010844">
        <ele>136.0</ele>
        <time>2012-05-29T06:01:53Z</time>
      </trkpt>
      <trkpt lat="43.390018" lon="-6.010601">
        <ele>136.0</ele>
        <time>2012-05-29T06:01:57Z</time>
      </trkpt>
      <trkpt lat="43.389779" lon="-6.010115">
        <ele>137.0</ele>
        <time>2012-05-29T06:02:05Z</time>
      </trkpt>
      <trkpt lat="43.389715" lon="-6.009993">
        <ele>137.0</ele>
        <time>2012-05-29T06:02:07Z</time>
      </trkpt>
      <trkpt lat="43.389526" lon="-6.009652">
        <ele>137.0</ele>
        <time>2012-05-29T06:02:13Z</time>
      </trkpt>
      <trkpt lat="43.389414" lon="-6.009427">
        <ele>138.0</ele>
        <time>2012-05-29T06:02:17Z</time>
      </trkpt>
      <trkpt lat="43.389318" lon="-6.009199">
        <ele>138.0</ele>
        <time>2012-05-29T06:02:21Z</time>
      </trkpt>
      <trkpt lat="43.389224" lon="-6.008977">
        <ele>139.0</ele>
        <time>2012-05-29T06:02:25Z</time>
      </trkpt>
      <trkpt lat="43.389126" lon="-6.008758">
        <ele>139.0</ele>
        <time>2012-05-29T06:02:29Z</time>
      </trkpt>
      <trkpt lat="43.389031" lon="-6.008534">
        <ele>139.0</ele>
        <time>2012-05-29T06:02:33Z</time>
      </trkpt>
      <trkpt lat="43.388931" lon="-6.008329">
        <ele>139.0</ele>
        <time>2012-05-29T06:02:37Z</time>
      </trkpt>
      <trkpt lat="43.388841" lon="-6.008123">
        <ele>139.0</ele>
        <time>2012-05-29T06:02:41Z</time>
      </trkpt>
      <trkpt lat="43.388753" lon="-6.007914">
        <ele>139.0</ele>
        <time>2012-05-29T06:02:45Z</time>
      </trkpt>
      <trkpt lat="43.388663" lon="-6.007706">
        <ele>139.0</ele>
        <time>2012-05-29T06:02:49Z</time>
      </trkpt>
      <trkpt lat="43.388574" lon="-6.007498">
        <ele>139.0</ele>
        <time>2012-05-29T06:02:53Z</time>
      </trkpt>
      <trkpt lat="43.388501" lon="-6.007269">
        <ele>139.0</ele>
        <time>2012-05-29T06:02:57Z</time>
      </trkpt>
      <trkpt lat="43.388439" lon="-6.007033">
        <ele>140.0</ele>
        <time>2012-05-29T06:03:01Z</time>
      </trkpt>
      <trkpt lat="43.38838" lon="-6.006795">
        <ele>140.0</ele>
        <time>2012-05-29T06:03:05Z</time>
      </trkpt>
      <trkpt lat="43.388319" lon="-6.006551">
        <ele>140.0</ele>
        <time>2012-05-29T06:03:09Z</time>
      </trkpt>
      <trkpt lat="43.388246" lon="-6.006315">
        <ele>141.0</ele>
        <time>2012-05-29T06:03:13Z</time>
      </trkpt>
      <trkpt lat="43.388175" lon="-6.006084">
        <ele>141.0</ele>
        <time>2012-05-29T06:03:17Z</time>
      </trkpt>
      <trkpt lat="43.388119" lon="-6.00585">
        <ele>142.0</ele>
        <time>2012-05-29T06:03:21Z</time>
      </trkpt>
      <trkpt lat="43.388102" lon="-6.005613">
        <ele>142.0</ele>
        <time>2012-05-29T06:03:25Z</time>
      </trkpt>
      <trkpt lat="43.388139" lon="-6.005389">
        <ele>141.0</ele>
        <time>2012-05-29T06:03:29Z</time>
      </trkpt>
      <trkpt lat="43.388213" lon="-6.005165">
        <ele>141.0</ele>
        <time>2012-05-29T06:03:33Z</time>
      </trkpt>
      <trkpt lat="43.38834" lon="-6.004804">
        <ele>142.0</ele>
        <time>2012-05-29T06:03:38Z</time>
      </trkpt>
      <trkpt lat="43.388396" lon="-6.004423">
        <ele>142.0</ele>
        <time>2012-05-29T06:03:42Z</time>
      </trkpt>
      <trkpt lat="43.388403" lon="-6.003953">
        <ele>142.0</ele>
        <time>2012-05-29T06:03:46Z</time>
      </trkpt>
      <trkpt lat="43.388333" lon="-6.003449">
        <ele>142.0</ele>
        <time>2012-05-29T06:03:50Z</time>
      </trkpt>
      <trkpt lat="43.38822" lon="-6.003054">
        <ele>142.0</ele>
        <time>2012-05-29T06:03:53Z</time>
      </trkpt>
      <trkpt lat="43.388008" lon="-6.002441">
        <ele>142.0</ele>
        <time>2012-05-29T06:03:58Z</time>
      </trkpt>
      <trkpt lat="43.387903" lon="-6.001948">
        <ele>142.0</ele>
        <time>2012-05-29T06:04:02Z</time>
      </trkpt>
      <trkpt lat="43.387827" lon="-6.001482">
        <ele>142.0</ele>
        <time>2012-05-29T06:04:06Z</time>
      </trkpt>
      <trkpt lat="43.387664" lon="-6.001122">
        <ele>142.0</ele>
        <time>2012-05-29T06:04:10Z</time>
      </trkpt>
      <trkpt lat="43.38745" lon="-6.00087">
        <ele>142.0</ele>
        <time>2012-05-29T06:04:14Z</time>
      </trkpt>
      <trkpt lat="43.387215" lon="-6.000656">
        <ele>143.0</ele>
        <time>2012-05-29T06:04:18Z</time>
      </trkpt>
      <trkpt lat="43.386987" lon="-6.000452">
        <ele>143.0</ele>
        <time>2012-05-29T06:04:22Z</time>
      </trkpt>
      <trkpt lat="43.386739" lon="-6.00038">
        <ele>143.0</ele>
        <time>2012-05-29T06:04:26Z</time>
      </trkpt>
      <trkpt lat="43.386486" lon="-6.000479">
        <ele>142.0</ele>
        <time>2012-05-29T06:04:30Z</time>
      </trkpt>
      <trkpt lat="43.386328" lon="-6.00064">
        <ele>142.0</ele>
        <time>2012-05-29T06:04:33Z</time>
      </trkpt>
      <trkpt lat="43.386134" lon="-6.000846">
        <ele>142.0</ele>
        <time>2012-05-29T06:04:37Z</time>
      </trkpt>
      <trkpt lat="43.385962" lon="-6.001046">
        <ele>142.0</ele>
        <time>2012-05-29T06:04:41Z</time>
      </trkpt>
      <trkpt lat="43.385816" lon="-6.001191">
        <ele>142.0</ele>
        <time>2012-05-29T06:04:45Z</time>
      </trkpt>
      <trkpt lat="43.385668" lon="-6.001288">
        <ele>142.0</ele>
        <time>2012-05-29T06:04:49Z</time>
      </trkpt>
      <trkpt lat="43.385513" lon="-6.001328">
        <ele>143.0</ele>
        <time>2012-05-29T06:04:53Z</time>
      </trkpt>
      <trkpt lat="43.385341" lon="-6.001315">
        <ele>143.0</ele>
        <time>2012-05-29T06:04:57Z</time>
      </trkpt>
      <trkpt lat="43.385177" lon="-6.001271">
        <ele>144.0</ele>
        <time>2012-05-29T06:05:01Z</time>
      </trkpt>
      <trkpt lat="43.38502" lon="-6.00118">
        <ele>144.0</ele>
        <time>2012-05-29T06:05:05Z</time>
      </trkpt>
      <trkpt lat="43.384867" lon="-6.00105">
        <ele>144.0</ele>
        <time>2012-05-29T06:05:09Z</time>
      </trkpt>
      <trkpt lat="43.384789" lon="-6.000985">
        <ele>144.0</ele>
        <time>2012-05-29T06:05:11Z</time>
      </trkpt>
      <trkpt lat="43.384569" lon="-6.000785">
        <ele>144.0</ele>
        <time>2012-05-29T06:05:17Z</time>
      </trkpt>
      <trkpt lat="43.384421" lon="-6.000656">
        <ele>144.0</ele>
        <time>2012-05-29T06:05:21Z</time>
      </trkpt>
      <trkpt lat="43.384274" lon="-6.000492">
        <ele>145.0</ele>
        <time>2012-05-29T06:05:25Z</time>
      </trkpt>
      <trkpt lat="43.384141" lon="-6.000315">
        <ele>145.0</ele>
        <time>2012-05-29T06:05:29Z</time>
      </trkpt>
      <trkpt lat="43.383999" lon="-6.000168">
        <ele>146.0</ele>
        <time>2012-05-29T06:05:33Z</time>
      </trkpt>
      <trkpt lat="43.383853" lon="-6.00004">
        <ele>146.0</ele>
        <time>2012-05-29T06:05:37Z</time>
      </trkpt>
      <trkpt lat="43.383708" lon="-5.99993">
        <ele>146.0</ele>
        <time>2012-05-29T06:05:41Z</time>
      </trkpt>
      <trkpt lat="43.383561" lon="-5.999815">
        <ele>147.0</ele>
        <time>2012-05-29T06:05:45Z</time>
      </trkpt>
      <trkpt lat="43.383426" lon="-5.999671">
        <ele>147.0</ele>
        <time>2012-05-29T06:05:49Z</time>
      </trkpt>
      <trkpt lat="43.383359" lon="-5.9996">
        <ele>147.0</ele>
        <time>2012-05-29T06:05:51Z</time>
      </trkpt>
      <trkpt lat="43.383139" lon="-5.999378">
        <ele>147.0</ele>
        <time>2012-05-29T06:05:57Z</time>
      </trkpt>
      <trkpt lat="43.382972" lon="-5.999266">
        <ele>148.0</ele>
        <time>2012-05-29T06:06:01Z</time>
      </trkpt>
      <trkpt lat="43.382803" lon="-5.99917">
        <ele>148.0</ele>
        <time>2012-05-29T06:06:05Z</time>
      </trkpt>
      <trkpt lat="43.382637" lon="-5.999077">
        <ele>148.0</ele>
        <time>2012-05-29T06:06:09Z</time>
      </trkpt>
      <trkpt lat="43.382478" lon="-5.998968">
        <ele>149.0</ele>
        <time>2012-05-29T06:06:13Z</time>
      </trkpt>
      <trkpt lat="43.382325" lon="-5.998833">
        <ele>149.0</ele>
        <time>2012-05-29T06:06:17Z</time>
      </trkpt>
      <trkpt lat="43.382186" lon="-5.998661">
        <ele>150.0</ele>
        <time>2012-05-29T06:06:21Z</time>
      </trkpt>
      <trkpt lat="43.382053" lon="-5.998466">
        <ele>150.0</ele>
        <time>2012-05-29T06:06:25Z</time>
      </trkpt>
      <trkpt lat="43.38199" lon="-5.99837">
        <ele>150.0</ele>
        <time>2012-05-29T06:06:27Z</time>
      </trkpt>
      <trkpt lat="43.381797" lon="-5.998082">
        <ele>151.0</ele>
        <time>2012-05-29T06:06:33Z</time>
      </trkpt>
      <trkpt lat="43.381616" lon="-5.998006">
        <ele>151.0</ele>
        <time>2012-05-29T06:06:37Z</time>
      </trkpt>
      <trkpt lat="43.381427" lon="-5.998062">
        <ele>151.0</ele>
        <time>2012-05-29T06:06:41Z</time>
      </trkpt>
      <trkpt lat="43.381255" lon="-5.998155">
        <ele>152.0</ele>
        <time>2012-05-29T06:06:45Z</time>
      </trkpt>
      <trkpt lat="43.381084" lon="-5.998252">
        <ele>153.0</ele>
        <time>2012-05-29T06:06:49Z</time>
      </trkpt>
      <trkpt lat="43.380998" lon="-5.998295">
        <ele>153.0</ele>
        <time>2012-05-29T06:06:51Z</time>
      </trkpt>
      <trkpt lat="43.380756" lon="-5.99841">
        <ele>153.0</ele>
        <time>2012-05-29T06:06:57Z</time>
      </trkpt>
      <trkpt lat="43.380587" lon="-5.998448">
        <ele>153.0</ele>
        <time>2012-05-29T06:07:01Z</time>
      </trkpt>
      <trkpt lat="43.380413" lon="-5.998437">
        <ele>153.0</ele>
        <time>2012-05-29T06:07:05Z</time>
      </trkpt>
      <trkpt lat="43.380242" lon="-5.998355">
        <ele>154.0</ele>
        <time>2012-05-29T06:07:09Z</time>
      </trkpt>
      <trkpt lat="43.380083" lon="-5.998242">
        <ele>154.0</ele>
        <time>2012-05-29T06:07:13Z</time>
      </trkpt>
      <trkpt lat="43.379918" lon="-5.998125">
        <ele>155.0</ele>
        <time>2012-05-29T06:07:17Z</time>
      </trkpt>
      <trkpt lat="43.37976" lon="-5.997996">
        <ele>155.0</ele>
        <time>2012-05-29T06:07:21Z</time>
      </trkpt>
      <trkpt lat="43.379601" lon="-5.99786">
        <ele>155.0</ele>
        <time>2012-05-29T06:07:25Z</time>
      </trkpt>
      <trkpt lat="43.379451" lon="-5.997721">
        <ele>156.0</ele>
        <time>2012-05-29T06:07:29Z</time>
      </trkpt>
      <trkpt lat="43.379302" lon="-5.997587">
        <ele>156.0</ele>
        <time>2012-05-29T06:07:33Z</time>
      </trkpt>
      <trkpt lat="43.37915" lon="-5.997459">
        <ele>156.0</ele>
        <time>2012-05-29T06:07:37Z</time>
      </trkpt>
      <trkpt lat="43.379" lon="-5.997373">
        <ele>157.0</ele>
        <time>2012-05-29T06:07:41Z</time>
      </trkpt>
      <trkpt lat="43.378816" lon="-5.997406">
        <ele>158.0</ele>
        <time>2012-05-29T06:07:45Z</time>
      </trkpt>
      <trkpt lat="43.378722" lon="-5.997469">
        <ele>158.0</ele>
        <time>2012-05-29T06:07:47Z</time>
      </trkpt>
      <trkpt lat="43.378476" lon="-5.997715">
        <ele>160.0</ele>
        <time>2012-05-29T06:07:53Z</time>
      </trkpt>
      <trkpt lat="43.378328" lon="-5.99792">
        <ele>160.0</ele>
        <time>2012-05-29T06:07:57Z</time>
      </trkpt>
      <trkpt lat="43.378259" lon="-5.998026">
        <ele>160.0</ele>
        <time>2012-05-29T06:07:59Z</time>
      </trkpt>
      <trkpt lat="43.378094" lon="-5.998336">
        <ele>161.0</ele>
        <time>2012-05-29T06:08:05Z</time>
      </trkpt>
      <trkpt lat="43.377985" lon="-5.998522">
        <ele>161.0</ele>
        <time>2012-05-29T06:08:09Z</time>
      </trkpt>
      <trkpt lat="43.377872" lon="-5.998699">
        <ele>162.0</ele>
        <time>2012-05-29T06:08:13Z</time>
      </trkpt>
      <trkpt lat="43.377753" lon="-5.998862">
        <ele>162.0</ele>
        <time>2012-05-29T06:08:17Z</time>
      </trkpt>
      <trkpt lat="43.377455" lon="-5.999063">
        <ele>162.0</ele>
        <time>2012-05-29T06:08:25Z</time>
      </trkpt>
      <trkpt lat="43.37729" lon="-5.999096">
        <ele>162.0</ele>
        <time>2012-05-29T06:08:29Z</time>
      </trkpt>
      <trkpt lat="43.377111" lon="-5.999038">
        <ele>163.0</ele>
        <time>2012-05-29T06:08:33Z</time>
      </trkpt>
      <trkpt lat="43.376957" lon="-5.998937">
        <ele>164.0</ele>
        <time>2012-05-29T06:08:37Z</time>
      </trkpt>
      <trkpt lat="43.376828" lon="-5.998808">
        <ele>165.0</ele>
        <time>2012-05-29T06:08:41Z</time>
      </trkpt>
      <trkpt lat="43.37669" lon="-5.998679">
        <ele>165.0</ele>
        <time>2012-05-29T06:08:45Z</time>
      </trkpt>
      <trkpt lat="43.376549" lon="-5.998543">
        <ele>166.0</ele>
        <time>2012-05-29T06:08:49Z</time>
      </trkpt>
      <trkpt lat="43.376402" lon="-5.998403">
        <ele>166.0</ele>
        <time>2012-05-29T06:08:53Z</time>
      </trkpt>
      <trkpt lat="43.376254" lon="-5.998259">
        <ele>165.0</ele>
        <time>2012-05-29T06:08:57Z</time>
      </trkpt>
      <trkpt lat="43.376106" lon="-5.998112">
        <ele>165.0</ele>
        <time>2012-05-29T06:09:01Z</time>
      </trkpt>
      <trkpt lat="43.375961" lon="-5.997966">
        <ele>166.0</ele>
        <time>2012-05-29T06:09:05Z</time>
      </trkpt>
      <trkpt lat="43.375823" lon="-5.997808">
        <ele>166.0</ele>
        <time>2012-05-29T06:09:09Z</time>
      </trkpt>
      <trkpt lat="43.375762" lon="-5.997724">
        <ele>167.0</ele>
        <time>2012-05-29T06:09:11Z</time>
      </trkpt>
      <trkpt lat="43.375583" lon="-5.997453">
        <ele>168.0</ele>
        <time>2012-05-29T06:09:17Z</time>
      </trkpt>
      <trkpt lat="43.375289" lon="-5.997165">
        <ele>169.0</ele>
        <time>2012-05-29T06:09:25Z</time>
      </trkpt>
      <trkpt lat="43.375096" lon="-5.997196">
        <ele>172.0</ele>
        <time>2012-05-29T06:09:29Z</time>
      </trkpt>
      <trkpt lat="43.374917" lon="-5.99732">
        <ele>175.0</ele>
        <time>2012-05-29T06:09:33Z</time>
      </trkpt>
      <trkpt lat="43.374834" lon="-5.997402">
        <ele>175.0</ele>
        <time>2012-05-29T06:09:35Z</time>
      </trkpt>
      <trkpt lat="43.374604" lon="-5.997648">
        <ele>177.0</ele>
        <time>2012-05-29T06:09:41Z</time>
      </trkpt>
      <trkpt lat="43.374493" lon="-5.997811">
        <ele>180.0</ele>
        <time>2012-05-29T06:09:45Z</time>
      </trkpt>
      <trkpt lat="43.374338" lon="-5.997904">
        <ele>181.0</ele>
        <time>2012-05-29T06:09:49Z</time>
      </trkpt>
      <trkpt lat="43.374162" lon="-5.997892">
        <ele>183.0</ele>
        <time>2012-05-29T06:09:53Z</time>
      </trkpt>
      <trkpt lat="43.373814" lon="-5.997727">
        <ele>183.0</ele>
        <time>2012-05-29T06:10:01Z</time>
      </trkpt>
      <trkpt lat="43.373646" lon="-5.997577">
        <ele>184.0</ele>
        <time>2012-05-29T06:10:05Z</time>
      </trkpt>
      <trkpt lat="43.373524" lon="-5.997367">
        <ele>184.0</ele>
        <time>2012-05-29T06:10:09Z</time>
      </trkpt>
      <trkpt lat="43.373413" lon="-5.997141">
        <ele>184.0</ele>
        <time>2012-05-29T06:10:13Z</time>
      </trkpt>
      <trkpt lat="43.373314" lon="-5.9969">
        <ele>185.0</ele>
        <time>2012-05-29T06:10:17Z</time>
      </trkpt>
      <trkpt lat="43.373208" lon="-5.996669">
        <ele>185.0</ele>
        <time>2012-05-29T06:10:21Z</time>
      </trkpt>
      <trkpt lat="43.373073" lon="-5.996482">
        <ele>185.0</ele>
        <time>2012-05-29T06:10:25Z</time>
      </trkpt>
      <trkpt lat="43.372901" lon="-5.996372">
        <ele>185.0</ele>
        <time>2012-05-29T06:10:29Z</time>
      </trkpt>
      <trkpt lat="43.372714" lon="-5.996319">
        <ele>186.0</ele>
        <time>2012-05-29T06:10:33Z</time>
      </trkpt>
      <trkpt lat="43.372527" lon="-5.996307">
        <ele>186.0</ele>
        <time>2012-05-29T06:10:37Z</time>
      </trkpt>
      <trkpt lat="43.372329" lon="-5.996308">
        <ele>186.0</ele>
        <time>2012-05-29T06:10:41Z</time>
      </trkpt>
      <trkpt lat="43.372139" lon="-5.996379">
        <ele>185.0</ele>
        <time>2012-05-29T06:10:45Z</time>
      </trkpt>
      <trkpt lat="43.37198" lon="-5.996549">
        <ele>185.0</ele>
        <time>2012-05-29T06:10:49Z</time>
      </trkpt>
      <trkpt lat="43.371847" lon="-5.996752">
        <ele>185.0</ele>
        <time>2012-05-29T06:10:53Z</time>
      </trkpt>
      <trkpt lat="43.371618" lon="-5.99718">
        <ele>185.0</ele>
        <time>2012-05-29T06:11:01Z</time>
      </trkpt>
      <trkpt lat="43.371507" lon="-5.997385">
        <ele>186.0</ele>
        <time>2012-05-29T06:11:05Z</time>
      </trkpt>
      <trkpt lat="43.371367" lon="-5.997534">
        <ele>187.0</ele>
        <time>2012-05-29T06:11:09Z</time>
      </trkpt>
      <trkpt lat="43.371225" lon="-5.997675">
        <ele>187.0</ele>
        <time>2012-05-29T06:11:13Z</time>
      </trkpt>
      <trkpt lat="43.371152" lon="-5.997739">
        <ele>187.0</ele>
        <time>2012-05-29T06:11:15Z</time>
      </trkpt>
      <trkpt lat="43.370911" lon="-5.997863">
        <ele>188.0</ele>
        <time>2012-05-29T06:11:21Z</time>
      </trkpt>
      <trkpt lat="43.370734" lon="-5.997907">
        <ele>188.0</ele>
        <time>2012-05-29T06:11:25Z</time>
      </trkpt>
      <trkpt lat="43.370564" lon="-5.997958">
        <ele>190.0</ele>
        <time>2012-05-29T06:11:29Z</time>
      </trkpt>
      <trkpt lat="43.370399" lon="-5.997998">
        <ele>191.0</ele>
        <time>2012-05-29T06:11:33Z</time>
      </trkpt>
      <trkpt lat="43.37022" lon="-5.998023">
        <ele>193.0</ele>
        <time>2012-05-29T06:11:37Z</time>
      </trkpt>
      <trkpt lat="43.370029" lon="-5.998012">
        <ele>194.0</ele>
        <time>2012-05-29T06:11:41Z</time>
      </trkpt>
      <trkpt lat="43.369833" lon="-5.997962">
        <ele>195.0</ele>
        <time>2012-05-29T06:11:45Z</time>
      </trkpt>
      <trkpt lat="43.369444" lon="-5.997682">
        <ele>197.0</ele>
        <time>2012-05-29T06:11:53Z</time>
      </trkpt>
      <trkpt lat="43.369261" lon="-5.997513">
        <ele>198.0</ele>
        <time>2012-05-29T06:11:57Z</time>
      </trkpt>
      <trkpt lat="43.369059" lon="-5.997377">
        <ele>199.0</ele>
        <time>2012-05-29T06:12:01Z</time>
      </trkpt>
      <trkpt lat="43.368868" lon="-5.997256">
        <ele>199.0</ele>
        <time>2012-05-29T06:12:05Z</time>
      </trkpt>
      <trkpt lat="43.36878" lon="-5.99719">
        <ele>199.0</ele>
        <time>2012-05-29T06:12:07Z</time>
      </trkpt>
      <trkpt lat="43.368601" lon="-5.997052">
        <ele>199.0</ele>
        <time>2012-05-29T06:12:11Z</time>
      </trkpt>
      <trkpt lat="43.368343" lon="-5.996837">
        <ele>200.0</ele>
        <time>2012-05-29T06:12:17Z</time>
      </trkpt>
      <trkpt lat="43.368202" lon="-5.996644">
        <ele>200.0</ele>
        <time>2012-05-29T06:12:21Z</time>
      </trkpt>
      <trkpt lat="43.368132" lon="-5.996391">
        <ele>201.0</ele>
        <time>2012-05-29T06:12:25Z</time>
      </trkpt>
      <trkpt lat="43.368113" lon="-5.996135">
        <ele>202.0</ele>
        <time>2012-05-29T06:12:29Z</time>
      </trkpt>
      <trkpt lat="43.368153" lon="-5.995868">
        <ele>203.0</ele>
        <time>2012-05-29T06:12:33Z</time>
      </trkpt>
      <trkpt lat="43.36821" lon="-5.995608">
        <ele>203.0</ele>
        <time>2012-05-29T06:12:37Z</time>
      </trkpt>
      <trkpt lat="43.368279" lon="-5.99535">
        <ele>204.0</ele>
        <time>2012-05-29T06:12:41Z</time>
      </trkpt>
      <trkpt lat="43.368401" lon="-5.994849">
        <ele>205.0</ele>
        <time>2012-05-29T06:12:49Z</time>
      </trkpt>
      <trkpt lat="43.368442" lon="-5.994584">
        <ele>205.0</ele>
        <time>2012-05-29T06:12:53Z</time>
      </trkpt>
      <trkpt lat="43.368401" lon="-5.994318">
        <ele>205.0</ele>
        <time>2012-05-29T06:12:57Z</time>
      </trkpt>
      <trkpt lat="43.368212" lon="-5.994244">
        <ele>206.0</ele>
        <time>2012-05-29T06:13:01Z</time>
      </trkpt>
      <trkpt lat="43.368106" lon="-5.994289">
        <ele>206.0</ele>
        <time>2012-05-29T06:13:03Z</time>
      </trkpt>
      <trkpt lat="43.367845" lon="-5.994499">
        <ele>206.0</ele>
        <time>2012-05-29T06:13:09Z</time>
      </trkpt>
      <trkpt lat="43.367692" lon="-5.994676">
        <ele>207.0</ele>
        <time>2012-05-29T06:13:13Z</time>
      </trkpt>
      <trkpt lat="43.367533" lon="-5.994841">
        <ele>208.0</ele>
        <time>2012-05-29T06:13:17Z</time>
      </trkpt>
      <trkpt lat="43.367366" lon="-5.994982">
        <ele>208.0</ele>
        <time>2012-05-29T06:13:21Z</time>
      </trkpt>
      <trkpt lat="43.367184" lon="-5.995059">
        <ele>209.0</ele>
        <time>2012-05-29T06:13:25Z</time>
      </trkpt>
      <trkpt lat="43.367008" lon="-5.994954">
        <ele>209.0</ele>
        <time>2012-05-29T06:13:29Z</time>
      </trkpt>
      <trkpt lat="43.366912" lon="-5.994738">
        <ele>210.0</ele>
        <time>2012-05-29T06:13:33Z</time>
      </trkpt>
      <trkpt lat="43.366901" lon="-5.994485">
        <ele>211.0</ele>
        <time>2012-05-29T06:13:37Z</time>
      </trkpt>
      <trkpt lat="43.366955" lon="-5.994235">
        <ele>212.0</ele>
        <time>2012-05-29T06:13:41Z</time>
      </trkpt>
      <trkpt lat="43.367009" lon="-5.993983">
        <ele>212.0</ele>
        <time>2012-05-29T06:13:45Z</time>
      </trkpt>
      <trkpt lat="43.367056" lon="-5.993732">
        <ele>213.0</ele>
        <time>2012-05-29T06:13:49Z</time>
      </trkpt>
      <trkpt lat="43.367094" lon="-5.993464">
        <ele>213.0</ele>
        <time>2012-05-29T06:13:53Z</time>
      </trkpt>
      <trkpt lat="43.367132" lon="-5.99319">
        <ele>213.0</ele>
        <time>2012-05-29T06:13:57Z</time>
      </trkpt>
      <trkpt lat="43.367166" lon="-5.992908">
        <ele>213.0</ele>
        <time>2012-05-29T06:14:01Z</time>
      </trkpt>
      <trkpt lat="43.367133" lon="-5.992623">
        <ele>213.0</ele>
        <time>2012-05-29T06:14:05Z</time>
      </trkpt>
      <trkpt lat="43.367014" lon="-5.992403">
        <ele>214.0</ele>
        <time>2012-05-29T06:14:09Z</time>
      </trkpt>
      <trkpt lat="43.366845" lon="-5.992253">
        <ele>214.0</ele>
        <time>2012-05-29T06:14:13Z</time>
      </trkpt>
      <trkpt lat="43.366752" lon="-5.992203">
        <ele>214.0</ele>
        <time>2012-05-29T06:14:15Z</time>
      </trkpt>
      <trkpt lat="43.366462" lon="-5.992098">
        <ele>215.0</ele>
        <time>2012-05-29T06:14:21Z</time>
      </trkpt>
      <trkpt lat="43.366272" lon="-5.992037">
        <ele>216.0</ele>
        <time>2012-05-29T06:14:25Z</time>
      </trkpt>
      <trkpt lat="43.36594" lon="-5.991839">
        <ele>217.0</ele>
        <time>2012-05-29T06:14:33Z</time>
      </trkpt>
      <trkpt lat="43.365784" lon="-5.991655">
        <ele>218.0</ele>
        <time>2012-05-29T06:14:37Z</time>
      </trkpt>
      <trkpt lat="43.365635" lon="-5.99141">
        <ele>218.0</ele>
        <time>2012-05-29T06:14:41Z</time>
      </trkpt>
      <trkpt lat="43.365513" lon="-5.991149">
        <ele>218.0</ele>
        <time>2012-05-29T06:14:45Z</time>
      </trkpt>
      <trkpt lat="43.365397" lon="-5.990884">
        <ele>217.0</ele>
        <time>2012-05-29T06:14:49Z</time>
      </trkpt>
      <trkpt lat="43.365267" lon="-5.990612">
        <ele>217.0</ele>
        <time>2012-05-29T06:14:53Z</time>
      </trkpt>
      <trkpt lat="43.365158" lon="-5.990329">
        <ele>217.0</ele>
        <time>2012-05-29T06:14:57Z</time>
      </trkpt>
      <trkpt lat="43.365083" lon="-5.990032">
        <ele>218.0</ele>
        <time>2012-05-29T06:15:01Z</time>
      </trkpt>
      <trkpt lat="43.365028" lon="-5.989722">
        <ele>218.0</ele>
        <time>2012-05-29T06:15:05Z</time>
      </trkpt>
      <trkpt lat="43.364947" lon="-5.989099">
        <ele>219.0</ele>
        <time>2012-05-29T06:15:13Z</time>
      </trkpt>
      <trkpt lat="43.364843" lon="-5.988492">
        <ele>220.0</ele>
        <time>2012-05-29T06:15:21Z</time>
      </trkpt>
      <trkpt lat="43.364793" lon="-5.988188">
        <ele>220.0</ele>
        <time>2012-05-29T06:15:25Z</time>
      </trkpt>
      <trkpt lat="43.364753" lon="-5.987885">
        <ele>221.0</ele>
        <time>2012-05-29T06:15:29Z</time>
      </trkpt>
      <trkpt lat="43.364751" lon="-5.987741">
        <ele>221.0</ele>
        <time>2012-05-29T06:15:31Z</time>
      </trkpt>
      <trkpt lat="43.365021" lon="-5.987355">
        <ele>223.0</ele>
        <time>2012-05-29T06:15:37Z</time>
      </trkpt>
      <trkpt lat="43.365291" lon="-5.987076">
        <ele>224.0</ele>
        <time>2012-05-29T06:15:42Z</time>
      </trkpt>
      <trkpt lat="43.36551" lon="-5.98687">
        <ele>225.0</ele>
        <time>2012-05-29T06:15:46Z</time>
      </trkpt>
      <trkpt lat="43.36573" lon="-5.986666">
        <ele>226.0</ele>
        <time>2012-05-29T06:15:50Z</time>
      </trkpt>
      <trkpt lat="43.365889" lon="-5.986513">
        <ele>226.0</ele>
        <time>2012-05-29T06:15:53Z</time>
      </trkpt>
      <trkpt lat="43.366172" lon="-5.985891">
        <ele>227.0</ele>
        <time>2012-05-29T06:16:02Z</time>
      </trkpt>
      <trkpt lat="43.366204" lon="-5.985546">
        <ele>227.0</ele>
        <time>2012-05-29T06:16:06Z</time>
      </trkpt>
      <trkpt lat="43.366163" lon="-5.985195">
        <ele>227.0</ele>
        <time>2012-05-29T06:16:10Z</time>
      </trkpt>
      <trkpt lat="43.366112" lon="-5.984851">
        <ele>227.0</ele>
        <time>2012-05-29T06:16:14Z</time>
      </trkpt>
      <trkpt lat="43.366072" lon="-5.984507">
        <ele>227.0</ele>
        <time>2012-05-29T06:16:18Z</time>
      </trkpt>
      <trkpt lat="43.366052" lon="-5.984151">
        <ele>227.0</ele>
        <time>2012-05-29T06:16:22Z</time>
      </trkpt>
      <trkpt lat="43.366009" lon="-5.983806">
        <ele>227.0</ele>
        <time>2012-05-29T06:16:26Z</time>
      </trkpt>
      <trkpt lat="43.365913" lon="-5.983479">
        <ele>227.0</ele>
        <time>2012-05-29T06:16:30Z</time>
      </trkpt>
      <trkpt lat="43.365788" lon="-5.983166">
        <ele>227.0</ele>
        <time>2012-05-29T06:16:34Z</time>
      </trkpt>
      <trkpt lat="43.365645" lon="-5.982866">
        <ele>228.0</ele>
        <time>2012-05-29T06:16:38Z</time>
      </trkpt>
      <trkpt lat="43.365537" lon="-5.982654">
        <ele>228.0</ele>
        <time>2012-05-29T06:16:41Z</time>
      </trkpt>
      <trkpt lat="43.365401" lon="-5.982389">
        <ele>228.0</ele>
        <time>2012-05-29T06:16:45Z</time>
      </trkpt>
      <trkpt lat="43.365286" lon="-5.982109">
        <ele>228.0</ele>
        <time>2012-05-29T06:16:49Z</time>
      </trkpt>
      <trkpt lat="43.3652" lon="-5.981789">
        <ele>228.0</ele>
        <time>2012-05-29T06:16:53Z</time>
      </trkpt>
      <trkpt lat="43.365137" lon="-5.981361">
        <ele>228.0</ele>
        <time>2012-05-29T06:16:58Z</time>
      </trkpt>
      <trkpt lat="43.36509" lon="-5.981007">
        <ele>229.0</ele>
        <time>2012-05-29T06:17:02Z</time>
      </trkpt>
      <trkpt lat="43.365011" lon="-5.980669">
        <ele>229.0</ele>
        <time>2012-05-29T06:17:06Z</time>
      </trkpt>
      <trkpt lat="43.364745" lon="-5.980511">
        <ele>229.0</ele>
        <time>2012-05-29T06:17:10Z</time>
      </trkpt>
      <trkpt lat="43.3644" lon="-5.980409">
        <ele>229.0</ele>
        <time>2012-05-29T06:17:14Z</time>
      </trkpt>
      <trkpt lat="43.364017" lon="-5.980322">
        <ele>229.0</ele>
        <time>2012-05-29T06:17:18Z</time>
      </trkpt>
      <trkpt lat="43.36362" lon="-5.980227">
        <ele>228.0</ele>
        <time>2012-05-29T06:17:22Z</time>
      </trkpt>
      <trkpt lat="43.36324" lon="-5.980006">
        <ele>228.0</ele>
        <time>2012-05-29T06:17:26Z</time>
      </trkpt>
      <trkpt lat="43.362908" lon="-5.979691">
        <ele>229.0</ele>
        <time>2012-05-29T06:17:30Z</time>
      </trkpt>
      <trkpt lat="43.36274" lon="-5.979524">
        <ele>229.0</ele>
        <time>2012-05-29T06:17:32Z</time>
      </trkpt>
      <trkpt lat="43.362239" lon="-5.979007">
        <ele>229.0</ele>
        <time>2012-05-29T06:17:38Z</time>
      </trkpt>
      <trkpt lat="43.362016" lon="-5.978722">
        <ele>230.0</ele>
        <time>2012-05-29T06:17:41Z</time>
      </trkpt>
      <trkpt lat="43.361688" lon="-5.978262">
        <ele>229.0</ele>
        <time>2012-05-29T06:17:46Z</time>
      </trkpt>
      <trkpt lat="43.361435" lon="-5.977906">
        <ele>229.0</ele>
        <time>2012-05-29T06:17:50Z</time>
      </trkpt>
      <trkpt lat="43.361309" lon="-5.977725">
        <ele>229.0</ele>
        <time>2012-05-29T06:17:52Z</time>
      </trkpt>
      <trkpt lat="43.36104" lon="-5.977081">
        <ele>229.0</ele>
        <time>2012-05-29T06:17:58Z</time>
      </trkpt>
      <trkpt lat="43.360877" lon="-5.976634">
        <ele>229.0</ele>
        <time>2012-05-29T06:18:02Z</time>
      </trkpt>
      <trkpt lat="43.360632" lon="-5.976289">
        <ele>229.0</ele>
        <time>2012-05-29T06:18:06Z</time>
      </trkpt>
      <trkpt lat="43.360402" lon="-5.975873">
        <ele>229.0</ele>
        <time>2012-05-29T06:18:10Z</time>
      </trkpt>
      <trkpt lat="43.360326" lon="-5.975391">
        <ele>230.0</ele>
        <time>2012-05-29T06:18:14Z</time>
      </trkpt>
      <trkpt lat="43.360163" lon="-5.974988">
        <ele>230.0</ele>
        <time>2012-05-29T06:18:18Z</time>
      </trkpt>
      <trkpt lat="43.359944" lon="-5.974627">
        <ele>231.0</ele>
        <time>2012-05-29T06:18:22Z</time>
      </trkpt>
      <trkpt lat="43.359895" lon="-5.974148">
        <ele>231.0</ele>
        <time>2012-05-29T06:18:26Z</time>
      </trkpt>
      <trkpt lat="43.35999" lon="-5.973682">
        <ele>231.0</ele>
        <time>2012-05-29T06:18:30Z</time>
      </trkpt>
      <trkpt lat="43.359948" lon="-5.973201">
        <ele>231.0</ele>
        <time>2012-05-29T06:18:34Z</time>
      </trkpt>
      <trkpt lat="43.359875" lon="-5.972738">
        <ele>230.0</ele>
        <time>2012-05-29T06:18:38Z</time>
      </trkpt>
      <trkpt lat="43.359824" lon="-5.972383">
        <ele>229.0</ele>
        <time>2012-05-29T06:18:41Z</time>
      </trkpt>
      <trkpt lat="43.359793" lon="-5.971797">
        <ele>228.0</ele>
        <time>2012-05-29T06:18:46Z</time>
      </trkpt>
      <trkpt lat="43.359776" lon="-5.971351">
        <ele>228.0</ele>
        <time>2012-05-29T06:18:50Z</time>
      </trkpt>
      <trkpt lat="43.359732" lon="-5.971064">
        <ele>228.0</ele>
        <time>2012-05-29T06:18:53Z</time>
      </trkpt>
      <trkpt lat="43.359623" lon="-5.970587">
        <ele>229.0</ele>
        <time>2012-05-29T06:18:58Z</time>
      </trkpt>
      <trkpt lat="43.359521" lon="-5.97021">
        <ele>229.0</ele>
        <time>2012-05-29T06:19:02Z</time>
      </trkpt>
      <trkpt lat="43.359436" lon="-5.969932">
        <ele>229.0</ele>
        <time>2012-05-29T06:19:05Z</time>
      </trkpt>
      <trkpt lat="43.359279" lon="-5.969484">
        <ele>229.0</ele>
        <time>2012-05-29T06:19:10Z</time>
      </trkpt>
      <trkpt lat="43.359173" lon="-5.969102">
        <ele>230.0</ele>
        <time>2012-05-29T06:19:14Z</time>
      </trkpt>
      <trkpt lat="43.359179" lon="-5.968681">
        <ele>229.0</ele>
        <time>2012-05-29T06:19:18Z</time>
      </trkpt>
      <trkpt lat="43.359198" lon="-5.968475">
        <ele>229.0</ele>
        <time>2012-05-29T06:19:20Z</time>
      </trkpt>
      <trkpt lat="43.359277" lon="-5.967852">
        <ele>226.0</ele>
        <time>2012-05-29T06:19:26Z</time>
      </trkpt>
      <trkpt lat="43.359346" lon="-5.967385">
        <ele>224.0</ele>
        <time>2012-05-29T06:19:30Z</time>
      </trkpt>
      <trkpt lat="43.359411" lon="-5.96702">
        <ele>223.0</ele>
        <time>2012-05-29T06:19:33Z</time>
      </trkpt>
      <trkpt lat="43.359458" lon="-5.966374">
        <ele>221.0</ele>
        <time>2012-05-29T06:19:38Z</time>
      </trkpt>
      <trkpt lat="43.359302" lon="-5.965887">
        <ele>219.0</ele>
        <time>2012-05-29T06:19:42Z</time>
      </trkpt>
      <trkpt lat="43.358941" lon="-5.965609">
        <ele>216.0</ele>
        <time>2012-05-29T06:19:46Z</time>
      </trkpt>
      <trkpt lat="43.358503" lon="-5.965564">
        <ele>213.0</ele>
        <time>2012-05-29T06:19:50Z</time>
      </trkpt>
      <trkpt lat="43.358059" lon="-5.965533">
        <ele>211.0</ele>
        <time>2012-05-29T06:19:54Z</time>
      </trkpt>
      <trkpt lat="43.357585" lon="-5.965512">
        <ele>209.0</ele>
        <time>2012-05-29T06:19:58Z</time>
      </trkpt>
      <trkpt lat="43.357126" lon="-5.96563">
        <ele>208.0</ele>
        <time>2012-05-29T06:20:02Z</time>
      </trkpt>
      <trkpt lat="43.356632" lon="-5.965778">
        <ele>203.0</ele>
        <time>2012-05-29T06:20:06Z</time>
      </trkpt>
      <trkpt lat="43.356138" lon="-5.965936">
        <ele>199.0</ele>
        <time>2012-05-29T06:20:10Z</time>
      </trkpt>
      <trkpt lat="43.355661" lon="-5.96602">
        <ele>195.0</ele>
        <time>2012-05-29T06:20:14Z</time>
      </trkpt>
      <trkpt lat="43.355237" lon="-5.966064">
        <ele>192.0</ele>
        <time>2012-05-29T06:20:18Z</time>
      </trkpt>
      <trkpt lat="43.354824" lon="-5.966093">
        <ele>189.0</ele>
        <time>2012-05-29T06:20:22Z</time>
      </trkpt>
      <trkpt lat="43.35443" lon="-5.966131">
        <ele>187.0</ele>
        <time>2012-05-29T06:20:26Z</time>
      </trkpt>
      <trkpt lat="43.354197" lon="-5.966148">
        <ele>186.0</ele>
        <time>2012-05-29T06:20:29Z</time>
      </trkpt>
      <trkpt lat="43.353985" lon="-5.96607">
        <ele>185.0</ele>
        <time>2012-05-29T06:20:33Z</time>
      </trkpt>
      <trkpt lat="43.353852" lon="-5.965833">
        <ele>183.0</ele>
        <time>2012-05-29T06:20:37Z</time>
      </trkpt>
      <trkpt lat="43.353797" lon="-5.965703">
        <ele>182.0</ele>
        <time>2012-05-29T06:20:39Z</time>
      </trkpt>
      <trkpt lat="43.353631" lon="-5.965295">
        <ele>181.0</ele>
        <time>2012-05-29T06:20:45Z</time>
      </trkpt>
      <trkpt lat="43.353507" lon="-5.965007">
        <ele>181.0</ele>
        <time>2012-05-29T06:20:49Z</time>
      </trkpt>
      <trkpt lat="43.353383" lon="-5.964716">
        <ele>181.0</ele>
        <time>2012-05-29T06:20:53Z</time>
      </trkpt>
      <trkpt lat="43.353151" lon="-5.964208">
        <ele>179.0</ele>
        <time>2012-05-29T06:21:01Z</time>
      </trkpt>
      <trkpt lat="43.353039" lon="-5.964049">
        <ele>178.0</ele>
        <time>2012-05-29T06:21:05Z</time>
      </trkpt>
      <trkpt lat="43.352923" lon="-5.963944">
        <ele>177.0</ele>
        <time>2012-05-29T06:21:09Z</time>
      </trkpt>
      <trkpt lat="43.352604" lon="-5.963825">
        <ele>175.0</ele>
        <time>2012-05-29T06:21:17Z</time>
      </trkpt>
      <trkpt lat="43.352446" lon="-5.963799">
        <ele>174.0</ele>
        <time>2012-05-29T06:21:21Z</time>
      </trkpt>
      <trkpt lat="43.352283" lon="-5.963769">
        <ele>173.0</ele>
        <time>2012-05-29T06:21:25Z</time>
      </trkpt>
      <trkpt lat="43.352124" lon="-5.96374">
        <ele>172.0</ele>
        <time>2012-05-29T06:21:29Z</time>
      </trkpt>
      <trkpt lat="43.35197" lon="-5.963719">
        <ele>172.0</ele>
        <time>2012-05-29T06:21:33Z</time>
      </trkpt>
      <trkpt lat="43.351827" lon="-5.963695">
        <ele>172.0</ele>
        <time>2012-05-29T06:21:37Z</time>
      </trkpt>
      <trkpt lat="43.351685" lon="-5.96367">
        <ele>171.0</ele>
        <time>2012-05-29T06:21:41Z</time>
      </trkpt>
      <trkpt lat="43.351534" lon="-5.963644">
        <ele>171.0</ele>
        <time>2012-05-29T06:21:45Z</time>
      </trkpt>
      <trkpt lat="43.351362" lon="-5.963624">
        <ele>170.0</ele>
        <time>2012-05-29T06:21:49Z</time>
      </trkpt>
      <trkpt lat="43.35118" lon="-5.963649">
        <ele>169.0</ele>
        <time>2012-05-29T06:21:53Z</time>
      </trkpt>
      <trkpt lat="43.351" lon="-5.963739">
        <ele>169.0</ele>
        <time>2012-05-29T06:21:57Z</time>
      </trkpt>
      <trkpt lat="43.350919" lon="-5.963796">
        <ele>169.0</ele>
        <time>2012-05-29T06:21:59Z</time>
      </trkpt>
      <trkpt lat="43.350673" lon="-5.963937">
        <ele>168.0</ele>
        <time>2012-05-29T06:22:05Z</time>
      </trkpt>
      <trkpt lat="43.350522" lon="-5.964009">
        <ele>168.0</ele>
        <time>2012-05-29T06:22:09Z</time>
      </trkpt>
      <trkpt lat="43.350375" lon="-5.964063">
        <ele>167.0</ele>
        <time>2012-05-29T06:22:13Z</time>
      </trkpt>
      <trkpt lat="43.350238" lon="-5.964094">
        <ele>167.0</ele>
        <time>2012-05-29T06:22:17Z</time>
      </trkpt>
      <trkpt lat="43.350098" lon="-5.964087">
        <ele>167.0</ele>
        <time>2012-05-29T06:22:21Z</time>
      </trkpt>
      <trkpt lat="43.349954" lon="-5.964047">
        <ele>167.0</ele>
        <time>2012-05-29T06:22:25Z</time>
      </trkpt>
      <trkpt lat="43.349801" lon="-5.963974">
        <ele>167.0</ele>
        <time>2012-05-29T06:22:29Z</time>
      </trkpt>
      <trkpt lat="43.349651" lon="-5.963879">
        <ele>167.0</ele>
        <time>2012-05-29T06:22:33Z</time>
      </trkpt>
      <trkpt lat="43.349514" lon="-5.963758">
        <ele>167.0</ele>
        <time>2012-05-29T06:22:37Z</time>
      </trkpt>
      <trkpt lat="43.349404" lon="-5.963598">
        <ele>168.0</ele>
        <time>2012-05-29T06:22:41Z</time>
      </trkpt>
      <trkpt lat="43.349361" lon="-5.963395">
        <ele>168.0</ele>
        <time>2012-05-29T06:22:45Z</time>
      </trkpt>
      <trkpt lat="43.34937" lon="-5.963198">
        <ele>168.0</ele>
        <time>2012-05-29T06:22:49Z</time>
      </trkpt>
      <trkpt lat="43.349415" lon="-5.963006">
        <ele>167.0</ele>
        <time>2012-05-29T06:22:53Z</time>
      </trkpt>
      <trkpt lat="43.34947" lon="-5.962822">
        <ele>166.0</ele>
        <time>2012-05-29T06:22:57Z</time>
      </trkpt>
      <trkpt lat="43.349505" lon="-5.962645">
        <ele>166.0</ele>
        <time>2012-05-29T06:23:01Z</time>
      </trkpt>
      <trkpt lat="43.349533" lon="-5.962446">
        <ele>166.0</ele>
        <time>2012-05-29T06:23:05Z</time>
      </trkpt>
      <trkpt lat="43.349514" lon="-5.962236">
        <ele>166.0</ele>
        <time>2012-05-29T06:23:09Z</time>
      </trkpt>
      <trkpt lat="43.349479" lon="-5.962036">
        <ele>166.0</ele>
        <time>2012-05-29T06:23:13Z</time>
      </trkpt>
      <trkpt lat="43.349459" lon="-5.961934">
        <ele>166.0</ele>
        <time>2012-05-29T06:23:15Z</time>
      </trkpt>
      <trkpt lat="43.349405" lon="-5.961639">
        <ele>167.0</ele>
        <time>2012-05-29T06:23:21Z</time>
      </trkpt>
      <trkpt lat="43.349389" lon="-5.961541">
        <ele>167.0</ele>
        <time>2012-05-29T06:23:23Z</time>
      </trkpt>
      <trkpt lat="43.349341" lon="-5.961267">
        <ele>167.0</ele>
        <time>2012-05-29T06:23:29Z</time>
      </trkpt>
      <trkpt lat="43.349307" lon="-5.961095">
        <ele>167.0</ele>
        <time>2012-05-29T06:23:33Z</time>
      </trkpt>
      <trkpt lat="43.349273" lon="-5.960826">
        <ele>167.0</ele>
        <time>2012-05-29T06:23:39Z</time>
      </trkpt>
      <trkpt lat="43.34927" lon="-5.960632">
        <ele>167.0</ele>
        <time>2012-05-29T06:23:43Z</time>
      </trkpt>
      <trkpt lat="43.349285" lon="-5.960337">
        <ele>168.0</ele>
        <time>2012-05-29T06:23:49Z</time>
      </trkpt>
      <trkpt lat="43.349302" lon="-5.96015">
        <ele>168.0</ele>
        <time>2012-05-29T06:23:53Z</time>
      </trkpt>
      <trkpt lat="43.349321" lon="-5.959962">
        <ele>168.0</ele>
        <time>2012-05-29T06:23:57Z</time>
      </trkpt>
      <trkpt lat="43.349347" lon="-5.959767">
        <ele>168.0</ele>
        <time>2012-05-29T06:24:01Z</time>
      </trkpt>
      <trkpt lat="43.349371" lon="-5.959557">
        <ele>168.0</ele>
        <time>2012-05-29T06:24:05Z</time>
      </trkpt>
      <trkpt lat="43.349383" lon="-5.959344">
        <ele>169.0</ele>
        <time>2012-05-29T06:24:09Z</time>
      </trkpt>
      <trkpt lat="43.349384" lon="-5.959234">
        <ele>169.0</ele>
        <time>2012-05-29T06:24:11Z</time>
      </trkpt>
      <trkpt lat="43.349337" lon="-5.958905">
        <ele>170.0</ele>
        <time>2012-05-29T06:24:17Z</time>
      </trkpt>
      <trkpt lat="43.349264" lon="-5.958704">
        <ele>170.0</ele>
        <time>2012-05-29T06:24:21Z</time>
      </trkpt>
      <trkpt lat="43.349165" lon="-5.958532">
        <ele>170.0</ele>
        <time>2012-05-29T06:24:25Z</time>
      </trkpt>
      <trkpt lat="43.349117" lon="-5.958448">
        <ele>170.0</ele>
        <time>2012-05-29T06:24:27Z</time>
      </trkpt>
      <trkpt lat="43.348997" lon="-5.958192">
        <ele>170.0</ele>
        <time>2012-05-29T06:24:33Z</time>
      </trkpt>
      <trkpt lat="43.348923" lon="-5.958025">
        <ele>170.0</ele>
        <time>2012-05-29T06:24:37Z</time>
      </trkpt>
      <trkpt lat="43.348844" lon="-5.957855">
        <ele>170.0</ele>
        <time>2012-05-29T06:24:41Z</time>
      </trkpt>
      <trkpt lat="43.348757" lon="-5.957696">
        <ele>170.0</ele>
        <time>2012-05-29T06:24:45Z</time>
      </trkpt>
      <trkpt lat="43.348651" lon="-5.957568">
        <ele>171.0</ele>
        <time>2012-05-29T06:24:49Z</time>
      </trkpt>
      <trkpt lat="43.348528" lon="-5.95746">
        <ele>171.0</ele>
        <time>2012-05-29T06:24:53Z</time>
      </trkpt>
      <trkpt lat="43.348401" lon="-5.957356">
        <ele>171.0</ele>
        <time>2012-05-29T06:24:57Z</time>
      </trkpt>
      <trkpt lat="43.348286" lon="-5.957239">
        <ele>171.0</ele>
        <time>2012-05-29T06:25:01Z</time>
      </trkpt>
      <trkpt lat="43.348043" lon="-5.957038">
        <ele>172.0</ele>
        <time>2012-05-29T06:25:09Z</time>
      </trkpt>
      <trkpt lat="43.347974" lon="-5.957">
        <ele>172.0</ele>
        <time>2012-05-29T06:25:11Z</time>
      </trkpt>
      <trkpt lat="43.347739" lon="-5.956919">
        <ele>173.0</ele>
        <time>2012-05-29T06:25:17Z</time>
      </trkpt>
      <trkpt lat="43.347658" lon="-5.956898">
        <ele>173.0</ele>
        <time>2012-05-29T06:25:19Z</time>
      </trkpt>
      <trkpt lat="43.347402" lon="-5.956849">
        <ele>174.0</ele>
        <time>2012-05-29T06:25:25Z</time>
      </trkpt>
      <trkpt lat="43.347244" lon="-5.956797">
        <ele>174.0</ele>
        <time>2012-05-29T06:25:29Z</time>
      </trkpt>
      <trkpt lat="43.346952" lon="-5.956645">
        <ele>175.0</ele>
        <time>2012-05-29T06:25:37Z</time>
      </trkpt>
      <trkpt lat="43.346672" lon="-5.956441">
        <ele>177.0</ele>
        <time>2012-05-29T06:25:45Z</time>
      </trkpt>
      <trkpt lat="43.346543" lon="-5.956326">
        <ele>178.0</ele>
        <time>2012-05-29T06:25:49Z</time>
      </trkpt>
      <trkpt lat="43.346423" lon="-5.956221">
        <ele>178.0</ele>
        <time>2012-05-29T06:25:53Z</time>
      </trkpt>
      <trkpt lat="43.346302" lon="-5.956119">
        <ele>178.0</ele>
        <time>2012-05-29T06:25:57Z</time>
      </trkpt>
      <trkpt lat="43.346184" lon="-5.956013">
        <ele>178.0</ele>
        <time>2012-05-29T06:26:02Z</time>
      </trkpt>
      <trkpt lat="43.346055" lon="-5.955933">
        <ele>178.0</ele>
        <time>2012-05-29T06:26:05Z</time>
      </trkpt>
      <trkpt lat="43.345915" lon="-5.95588">
        <ele>178.0</ele>
        <time>2012-05-29T06:26:09Z</time>
      </trkpt>
      <trkpt lat="43.345763" lon="-5.955847">
        <ele>179.0</ele>
        <time>2012-05-29T06:26:13Z</time>
      </trkpt>
      <trkpt lat="43.345611" lon="-5.955804">
        <ele>179.0</ele>
        <time>2012-05-29T06:26:17Z</time>
      </trkpt>
      <trkpt lat="43.345458" lon="-5.95575">
        <ele>180.0</ele>
        <time>2012-05-29T06:26:21Z</time>
      </trkpt>
      <trkpt lat="43.345151" lon="-5.955657">
        <ele>182.0</ele>
        <time>2012-05-29T06:26:29Z</time>
      </trkpt>
      <trkpt lat="43.344859" lon="-5.955538">
        <ele>183.0</ele>
        <time>2012-05-29T06:26:37Z</time>
      </trkpt>
      <trkpt lat="43.344724" lon="-5.955479">
        <ele>184.0</ele>
        <time>2012-05-29T06:26:41Z</time>
      </trkpt>
      <trkpt lat="43.344589" lon="-5.955425">
        <ele>184.0</ele>
        <time>2012-05-29T06:26:45Z</time>
      </trkpt>
      <trkpt lat="43.344455" lon="-5.955379">
        <ele>184.0</ele>
        <time>2012-05-29T06:26:49Z</time>
      </trkpt>
      <trkpt lat="43.344301" lon="-5.955326">
        <ele>184.0</ele>
        <time>2012-05-29T06:26:53Z</time>
      </trkpt>
      <trkpt lat="43.344132" lon="-5.955278">
        <ele>186.0</ele>
        <time>2012-05-29T06:26:57Z</time>
      </trkpt>
      <trkpt lat="43.343963" lon="-5.95523">
        <ele>187.0</ele>
        <time>2012-05-29T06:27:01Z</time>
      </trkpt>
      <trkpt lat="43.343811" lon="-5.955176">
        <ele>187.0</ele>
        <time>2012-05-29T06:27:05Z</time>
      </trkpt>
      <trkpt lat="43.343677" lon="-5.955125">
        <ele>188.0</ele>
        <time>2012-05-29T06:27:09Z</time>
      </trkpt>
      <trkpt lat="43.343543" lon="-5.955076">
        <ele>188.0</ele>
        <time>2012-05-29T06:27:13Z</time>
      </trkpt>
      <trkpt lat="43.343401" lon="-5.955029">
        <ele>188.0</ele>
        <time>2012-05-29T06:27:17Z</time>
      </trkpt>
      <trkpt lat="43.343258" lon="-5.95499">
        <ele>188.0</ele>
        <time>2012-05-29T06:27:21Z</time>
      </trkpt>
      <trkpt lat="43.343113" lon="-5.954956">
        <ele>189.0</ele>
        <time>2012-05-29T06:27:25Z</time>
      </trkpt>
      <trkpt lat="43.342831" lon="-5.954903">
        <ele>189.0</ele>
        <time>2012-05-29T06:27:33Z</time>
      </trkpt>
      <trkpt lat="43.34276" lon="-5.954892">
        <ele>189.0</ele>
        <time>2012-05-29T06:27:35Z</time>
      </trkpt>
      <trkpt lat="43.342551" lon="-5.954866">
        <ele>190.0</ele>
        <time>2012-05-29T06:27:41Z</time>
      </trkpt>
      <trkpt lat="43.342409" lon="-5.954843">
        <ele>190.0</ele>
        <time>2012-05-29T06:27:45Z</time>
      </trkpt>
      <trkpt lat="43.342268" lon="-5.954814">
        <ele>190.0</ele>
        <time>2012-05-29T06:27:49Z</time>
      </trkpt>
      <trkpt lat="43.342138" lon="-5.954786">
        <ele>191.0</ele>
        <time>2012-05-29T06:27:53Z</time>
      </trkpt>
      <trkpt lat="43.342006" lon="-5.954761">
        <ele>191.0</ele>
        <time>2012-05-29T06:27:57Z</time>
      </trkpt>
      <trkpt lat="43.341868" lon="-5.954732">
        <ele>191.0</ele>
        <time>2012-05-29T06:28:01Z</time>
      </trkpt>
      <trkpt lat="43.341732" lon="-5.954687">
        <ele>191.0</ele>
        <time>2012-05-29T06:28:05Z</time>
      </trkpt>
      <trkpt lat="43.341604" lon="-5.954624">
        <ele>192.0</ele>
        <time>2012-05-29T06:28:09Z</time>
      </trkpt>
      <trkpt lat="43.34148" lon="-5.954534">
        <ele>192.0</ele>
        <time>2012-05-29T06:28:13Z</time>
      </trkpt>
      <trkpt lat="43.341365" lon="-5.954418">
        <ele>193.0</ele>
        <time>2012-05-29T06:28:17Z</time>
      </trkpt>
      <trkpt lat="43.341258" lon="-5.954279">
        <ele>194.0</ele>
        <time>2012-05-29T06:28:21Z</time>
      </trkpt>
      <trkpt lat="43.34121" lon="-5.954204">
        <ele>195.0</ele>
        <time>2012-05-29T06:28:23Z</time>
      </trkpt>
      <trkpt lat="43.341121" lon="-5.954046">
        <ele>195.0</ele>
        <time>2012-05-29T06:28:27Z</time>
      </trkpt>
      <trkpt lat="43.341036" lon="-5.953775">
        <ele>195.0</ele>
        <time>2012-05-29T06:28:33Z</time>
      </trkpt>
      <trkpt lat="43.341054" lon="-5.953584">
        <ele>197.0</ele>
        <time>2012-05-29T06:28:37Z</time>
      </trkpt>
      <trkpt lat="43.341068" lon="-5.953487">
        <ele>197.0</ele>
        <time>2012-05-29T06:28:39Z</time>
      </trkpt>
      <trkpt lat="43.341076" lon="-5.953076">
        <ele>198.0</ele>
        <time>2012-05-29T06:28:47Z</time>
      </trkpt>
      <trkpt lat="43.341072" lon="-5.952969">
        <ele>197.0</ele>
        <time>2012-05-29T06:28:53Z</time>
      </trkpt>
      <trkpt lat="43.341112" lon="-5.952696">
        <ele>196.0</ele>
        <time>2012-05-29T06:28:57Z</time>
      </trkpt>
      <trkpt lat="43.341094" lon="-5.952391">
        <ele>196.0</ele>
        <time>2012-05-29T06:29:01Z</time>
      </trkpt>
      <trkpt lat="43.34106" lon="-5.952178">
        <ele>197.0</ele>
        <time>2012-05-29T06:29:05Z</time>
      </trkpt>
      <trkpt lat="43.340996" lon="-5.951767">
        <ele>198.0</ele>
        <time>2012-05-29T06:29:13Z</time>
      </trkpt>
      <trkpt lat="43.340974" lon="-5.951665">
        <ele>198.0</ele>
        <time>2012-05-29T06:29:15Z</time>
      </trkpt>
      <trkpt lat="43.340885" lon="-5.95137">
        <ele>204.0</ele>
        <time>2012-05-29T06:29:21Z</time>
      </trkpt>
      <trkpt lat="43.34078" lon="-5.951215">
        <ele>205.0</ele>
        <time>2012-05-29T06:29:25Z</time>
      </trkpt>
      <trkpt lat="43.340518" lon="-5.950972">
        <ele>208.0</ele>
        <time>2012-05-29T06:29:33Z</time>
      </trkpt>
      <trkpt lat="43.340451" lon="-5.950918">
        <ele>208.0</ele>
        <time>2012-05-29T06:29:35Z</time>
      </trkpt>
      <trkpt lat="43.340318" lon="-5.950685">
        <ele>209.0</ele>
        <time>2012-05-29T06:29:41Z</time>
      </trkpt>
      <trkpt lat="43.340305" lon="-5.950498">
        <ele>209.0</ele>
        <time>2012-05-29T06:29:45Z</time>
      </trkpt>
      <trkpt lat="43.340328" lon="-5.950408">
        <ele>209.0</ele>
        <time>2012-05-29T06:29:47Z</time>
      </trkpt>
      <trkpt lat="43.340419" lon="-5.950155">
        <ele>209.0</ele>
        <time>2012-05-29T06:29:53Z</time>
      </trkpt>
      <trkpt lat="43.340511" lon="-5.950003">
        <ele>209.0</ele>
        <time>2012-05-29T06:29:57Z</time>
      </trkpt>
      <trkpt lat="43.340615" lon="-5.949852">
        <ele>210.0</ele>
        <time>2012-05-29T06:30:01Z</time>
      </trkpt>
      <trkpt lat="43.340747" lon="-5.949709">
        <ele>212.0</ele>
        <time>2012-05-29T06:30:05Z</time>
      </trkpt>
      <trkpt lat="43.340821" lon="-5.949644">
        <ele>213.0</ele>
        <time>2012-05-29T06:30:07Z</time>
      </trkpt>
      <trkpt lat="43.341023" lon="-5.949433">
        <ele>214.0</ele>
        <time>2012-05-29T06:30:13Z</time>
      </trkpt>
      <trkpt lat="43.34129" lon="-5.949151">
        <ele>214.0</ele>
        <time>2012-05-29T06:30:21Z</time>
      </trkpt>
      <trkpt lat="43.341417" lon="-5.949009">
        <ele>215.0</ele>
        <time>2012-05-29T06:30:25Z</time>
      </trkpt>
      <trkpt lat="43.341551" lon="-5.948868">
        <ele>215.0</ele>
        <time>2012-05-29T06:30:30Z</time>
      </trkpt>
      <trkpt lat="43.341676" lon="-5.948708">
        <ele>216.0</ele>
        <time>2012-05-29T06:30:33Z</time>
      </trkpt>
      <trkpt lat="43.341781" lon="-5.948527">
        <ele>216.0</ele>
        <time>2012-05-29T06:30:37Z</time>
      </trkpt>
      <trkpt lat="43.341857" lon="-5.948319">
        <ele>217.0</ele>
        <time>2012-05-29T06:30:41Z</time>
      </trkpt>
      <trkpt lat="43.341917" lon="-5.948091">
        <ele>217.0</ele>
        <time>2012-05-29T06:30:45Z</time>
      </trkpt>
      <trkpt lat="43.341984" lon="-5.947843">
        <ele>217.0</ele>
        <time>2012-05-29T06:30:49Z</time>
      </trkpt>
      <trkpt lat="43.342047" lon="-5.94761">
        <ele>218.0</ele>
        <time>2012-05-29T06:30:53Z</time>
      </trkpt>
      <trkpt lat="43.342127" lon="-5.947407">
        <ele>218.0</ele>
        <time>2012-05-29T06:30:57Z</time>
      </trkpt>
      <trkpt lat="43.34217" lon="-5.947309">
        <ele>218.0</ele>
        <time>2012-05-29T06:30:59Z</time>
      </trkpt>
      <trkpt lat="43.34231" lon="-5.947023">
        <ele>218.0</ele>
        <time>2012-05-29T06:31:05Z</time>
      </trkpt>
      <trkpt lat="43.342398" lon="-5.946841">
        <ele>217.0</ele>
        <time>2012-05-29T06:31:09Z</time>
      </trkpt>
      <trkpt lat="43.342488" lon="-5.946659">
        <ele>217.0</ele>
        <time>2012-05-29T06:31:14Z</time>
      </trkpt>
      <trkpt lat="43.34257" lon="-5.946487">
        <ele>218.0</ele>
        <time>2012-05-29T06:31:17Z</time>
      </trkpt>
      <trkpt lat="43.342639" lon="-5.946306">
        <ele>218.0</ele>
        <time>2012-05-29T06:31:21Z</time>
      </trkpt>
      <trkpt lat="43.342696" lon="-5.946119">
        <ele>219.0</ele>
        <time>2012-05-29T06:31:25Z</time>
      </trkpt>
      <trkpt lat="43.342683" lon="-5.94584">
        <ele>222.0</ele>
        <time>2012-05-29T06:31:29Z</time>
      </trkpt>
      <trkpt lat="43.342582" lon="-5.945605">
        <ele>224.0</ele>
        <time>2012-05-29T06:31:33Z</time>
      </trkpt>
      <trkpt lat="43.342433" lon="-5.945456">
        <ele>227.0</ele>
        <time>2012-05-29T06:31:37Z</time>
      </trkpt>
      <trkpt lat="43.342268" lon="-5.94533">
        <ele>228.0</ele>
        <time>2012-05-29T06:31:41Z</time>
      </trkpt>
      <trkpt lat="43.342184" lon="-5.945273">
        <ele>228.0</ele>
        <time>2012-05-29T06:31:43Z</time>
      </trkpt>
      <trkpt lat="43.341788" lon="-5.944959">
        <ele>229.0</ele>
        <time>2012-05-29T06:31:53Z</time>
      </trkpt>
      <trkpt lat="43.341702" lon="-5.944723">
        <ele>230.0</ele>
        <time>2012-05-29T06:31:57Z</time>
      </trkpt>
      <trkpt lat="43.341661" lon="-5.944462">
        <ele>232.0</ele>
        <time>2012-05-29T06:32:01Z</time>
      </trkpt>
      <trkpt lat="43.341658" lon="-5.944333">
        <ele>233.0</ele>
        <time>2012-05-29T06:32:03Z</time>
      </trkpt>
      <trkpt lat="43.341713" lon="-5.943945">
        <ele>236.0</ele>
        <time>2012-05-29T06:32:09Z</time>
      </trkpt>
      <trkpt lat="43.341743" lon="-5.943815">
        <ele>237.0</ele>
        <time>2012-05-29T06:32:11Z</time>
      </trkpt>
      <trkpt lat="43.341812" lon="-5.943559">
        <ele>238.0</ele>
        <time>2012-05-29T06:32:15Z</time>
      </trkpt>
      <trkpt lat="43.341941" lon="-5.943198">
        <ele>239.0</ele>
        <time>2012-05-29T06:32:21Z</time>
      </trkpt>
      <trkpt lat="43.342038" lon="-5.942977">
        <ele>239.0</ele>
        <time>2012-05-29T06:32:25Z</time>
      </trkpt>
      <trkpt lat="43.342153" lon="-5.942774">
        <ele>240.0</ele>
        <time>2012-05-29T06:32:29Z</time>
      </trkpt>
      <trkpt lat="43.342293" lon="-5.9426">
        <ele>240.0</ele>
        <time>2012-05-29T06:32:33Z</time>
      </trkpt>
      <trkpt lat="43.342429" lon="-5.942418">
        <ele>241.0</ele>
        <time>2012-05-29T06:32:37Z</time>
      </trkpt>
      <trkpt lat="43.342569" lon="-5.942231">
        <ele>240.0</ele>
        <time>2012-05-29T06:32:41Z</time>
      </trkpt>
      <trkpt lat="43.34271" lon="-5.942095">
        <ele>238.0</ele>
        <time>2012-05-29T06:32:45Z</time>
      </trkpt>
      <trkpt lat="43.342874" lon="-5.941986">
        <ele>238.0</ele>
        <time>2012-05-29T06:32:49Z</time>
      </trkpt>
      <trkpt lat="43.343049" lon="-5.941884">
        <ele>239.0</ele>
        <time>2012-05-29T06:32:53Z</time>
      </trkpt>
      <trkpt lat="43.343205" lon="-5.941759">
        <ele>241.0</ele>
        <time>2012-05-29T06:32:57Z</time>
      </trkpt>
      <trkpt lat="43.343348" lon="-5.941612">
        <ele>243.0</ele>
        <time>2012-05-29T06:33:01Z</time>
      </trkpt>
      <trkpt lat="43.343484" lon="-5.941448">
        <ele>244.0</ele>
        <time>2012-05-29T06:33:05Z</time>
      </trkpt>
      <trkpt lat="43.343608" lon="-5.941266">
        <ele>244.0</ele>
        <time>2012-05-29T06:33:09Z</time>
      </trkpt>
      <trkpt lat="43.343853" lon="-5.940887">
        <ele>245.0</ele>
        <time>2012-05-29T06:33:18Z</time>
      </trkpt>
      <trkpt lat="43.343955" lon="-5.940669">
        <ele>246.0</ele>
        <time>2012-05-29T06:33:21Z</time>
      </trkpt>
      <trkpt lat="43.343995" lon="-5.940413">
        <ele>246.0</ele>
        <time>2012-05-29T06:33:25Z</time>
      </trkpt>
      <trkpt lat="43.343985" lon="-5.940282">
        <ele>247.0</ele>
        <time>2012-05-29T06:33:27Z</time>
      </trkpt>
      <trkpt lat="43.343911" lon="-5.939903">
        <ele>247.0</ele>
        <time>2012-05-29T06:33:33Z</time>
      </trkpt>
      <trkpt lat="43.343856" lon="-5.939648">
        <ele>248.0</ele>
        <time>2012-05-29T06:33:37Z</time>
      </trkpt>
      <trkpt lat="43.343834" lon="-5.939383">
        <ele>249.0</ele>
        <time>2012-05-29T06:33:41Z</time>
      </trkpt>
      <trkpt lat="43.343928" lon="-5.938869">
        <ele>249.0</ele>
        <time>2012-05-29T06:33:49Z</time>
      </trkpt>
      <trkpt lat="43.344156" lon="-5.938489">
        <ele>250.0</ele>
        <time>2012-05-29T06:33:57Z</time>
      </trkpt>
      <trkpt lat="43.344281" lon="-5.938318">
        <ele>251.0</ele>
        <time>2012-05-29T06:34:01Z</time>
      </trkpt>
      <trkpt lat="43.344561" lon="-5.937965">
        <ele>253.0</ele>
        <time>2012-05-29T06:34:09Z</time>
      </trkpt>
      <trkpt lat="43.344693" lon="-5.937782">
        <ele>254.0</ele>
        <time>2012-05-29T06:34:13Z</time>
      </trkpt>
      <trkpt lat="43.344812" lon="-5.937608">
        <ele>254.0</ele>
        <time>2012-05-29T06:34:17Z</time>
      </trkpt>
      <trkpt lat="43.344932" lon="-5.93745">
        <ele>255.0</ele>
        <time>2012-05-29T06:34:21Z</time>
      </trkpt>
      <trkpt lat="43.345177" lon="-5.937113">
        <ele>256.0</ele>
        <time>2012-05-29T06:34:29Z</time>
      </trkpt>
      <trkpt lat="43.345292" lon="-5.936929">
        <ele>256.0</ele>
        <time>2012-05-29T06:34:33Z</time>
      </trkpt>
      <trkpt lat="43.345401" lon="-5.93675">
        <ele>257.0</ele>
        <time>2012-05-29T06:34:37Z</time>
      </trkpt>
      <trkpt lat="43.345514" lon="-5.936579">
        <ele>257.0</ele>
        <time>2012-05-29T06:34:41Z</time>
      </trkpt>
      <trkpt lat="43.345764" lon="-5.936246">
        <ele>258.0</ele>
        <time>2012-05-29T06:34:49Z</time>
      </trkpt>
      <trkpt lat="43.34589" lon="-5.93608">
        <ele>259.0</ele>
        <time>2012-05-29T06:34:53Z</time>
      </trkpt>
      <trkpt lat="43.345999" lon="-5.935901">
        <ele>259.0</ele>
        <time>2012-05-29T06:34:57Z</time>
      </trkpt>
      <trkpt lat="43.346089" lon="-5.935702">
        <ele>259.0</ele>
        <time>2012-05-29T06:35:01Z</time>
      </trkpt>
      <trkpt lat="43.346155" lon="-5.935473">
        <ele>259.0</ele>
        <time>2012-05-29T06:35:05Z</time>
      </trkpt>
      <trkpt lat="43.346209" lon="-5.935227">
        <ele>260.0</ele>
        <time>2012-05-29T06:35:09Z</time>
      </trkpt>
      <trkpt lat="43.346279" lon="-5.935006">
        <ele>260.0</ele>
        <time>2012-05-29T06:35:14Z</time>
      </trkpt>
      <trkpt lat="43.346522" lon="-5.934649">
        <ele>262.0</ele>
        <time>2012-05-29T06:35:21Z</time>
      </trkpt>
      <trkpt lat="43.346588" lon="-5.934565">
        <ele>262.0</ele>
        <time>2012-05-29T06:35:23Z</time>
      </trkpt>
      <trkpt lat="43.346805" lon="-5.934337">
        <ele>263.0</ele>
        <time>2012-05-29T06:35:29Z</time>
      </trkpt>
      <trkpt lat="43.346969" lon="-5.934218">
        <ele>264.0</ele>
        <time>2012-05-29T06:35:33Z</time>
      </trkpt>
      <trkpt lat="43.347135" lon="-5.934113">
        <ele>265.0</ele>
        <time>2012-05-29T06:35:37Z</time>
      </trkpt>
      <trkpt lat="43.347293" lon="-5.933998">
        <ele>265.0</ele>
        <time>2012-05-29T06:35:41Z</time>
      </trkpt>
      <trkpt lat="43.347435" lon="-5.933874">
        <ele>266.0</ele>
        <time>2012-05-29T06:35:45Z</time>
      </trkpt>
      <trkpt lat="43.347554" lon="-5.933699">
        <ele>265.0</ele>
        <time>2012-05-29T06:35:49Z</time>
      </trkpt>
      <trkpt lat="43.347642" lon="-5.933471">
        <ele>265.0</ele>
        <time>2012-05-29T06:35:53Z</time>
      </trkpt>
      <trkpt lat="43.347692" lon="-5.933218">
        <ele>265.0</ele>
        <time>2012-05-29T06:35:57Z</time>
      </trkpt>
      <trkpt lat="43.347738" lon="-5.932975">
        <ele>265.0</ele>
        <time>2012-05-29T06:36:02Z</time>
      </trkpt>
      <trkpt lat="43.34778" lon="-5.932731">
        <ele>265.0</ele>
        <time>2012-05-29T06:36:06Z</time>
      </trkpt>
      <trkpt lat="43.347809" lon="-5.932474">
        <ele>265.0</ele>
        <time>2012-05-29T06:36:10Z</time>
      </trkpt>
      <trkpt lat="43.347812" lon="-5.93222">
        <ele>266.0</ele>
        <time>2012-05-29T06:36:14Z</time>
      </trkpt>
      <trkpt lat="43.347806" lon="-5.932089">
        <ele>266.0</ele>
        <time>2012-05-29T06:36:16Z</time>
      </trkpt>
      <trkpt lat="43.34772" lon="-5.931698">
        <ele>267.0</ele>
        <time>2012-05-29T06:36:22Z</time>
      </trkpt>
      <trkpt lat="43.347604" lon="-5.931195">
        <ele>269.0</ele>
        <time>2012-05-29T06:36:30Z</time>
      </trkpt>
      <trkpt lat="43.347581" lon="-5.931065">
        <ele>269.0</ele>
        <time>2012-05-29T06:36:32Z</time>
      </trkpt>
      <trkpt lat="43.347541" lon="-5.930668">
        <ele>272.0</ele>
        <time>2012-05-29T06:36:38Z</time>
      </trkpt>
      <trkpt lat="43.347513" lon="-5.930404">
        <ele>274.0</ele>
        <time>2012-05-29T06:36:41Z</time>
      </trkpt>
      <trkpt lat="43.347489" lon="-5.930141">
        <ele>275.0</ele>
        <time>2012-05-29T06:36:45Z</time>
      </trkpt>
      <trkpt lat="43.347476" lon="-5.929877">
        <ele>275.0</ele>
        <time>2012-05-29T06:36:49Z</time>
      </trkpt>
      <trkpt lat="43.347444" lon="-5.929614">
        <ele>276.0</ele>
        <time>2012-05-29T06:36:53Z</time>
      </trkpt>
      <trkpt lat="43.347431" lon="-5.929483">
        <ele>276.0</ele>
        <time>2012-05-29T06:36:55Z</time>
      </trkpt>
      <trkpt lat="43.347382" lon="-5.929083">
        <ele>277.0</ele>
        <time>2012-05-29T06:37:01Z</time>
      </trkpt>
      <trkpt lat="43.347336" lon="-5.928812">
        <ele>278.0</ele>
        <time>2012-05-29T06:37:05Z</time>
      </trkpt>
      <trkpt lat="43.347293" lon="-5.928685">
        <ele>278.0</ele>
        <time>2012-05-29T06:37:07Z</time>
      </trkpt>
      <trkpt lat="43.347115" lon="-5.928366">
        <ele>279.0</ele>
        <time>2012-05-29T06:37:13Z</time>
      </trkpt>
      <trkpt lat="43.347039" lon="-5.928118">
        <ele>280.0</ele>
        <time>2012-05-29T06:37:17Z</time>
      </trkpt>
      <trkpt lat="43.347027" lon="-5.927562">
        <ele>281.0</ele>
        <time>2012-05-29T06:37:25Z</time>
      </trkpt>
      <trkpt lat="43.346998" lon="-5.927288">
        <ele>281.0</ele>
        <time>2012-05-29T06:37:29Z</time>
      </trkpt>
      <trkpt lat="43.347008" lon="-5.927005">
        <ele>282.0</ele>
        <time>2012-05-29T06:37:33Z</time>
      </trkpt>
      <trkpt lat="43.347027" lon="-5.926729">
        <ele>283.0</ele>
        <time>2012-05-29T06:37:37Z</time>
      </trkpt>
      <trkpt lat="43.347009" lon="-5.926451">
        <ele>284.0</ele>
        <time>2012-05-29T06:37:41Z</time>
      </trkpt>
      <trkpt lat="43.346986" lon="-5.926313">
        <ele>284.0</ele>
        <time>2012-05-29T06:37:43Z</time>
      </trkpt>
      <trkpt lat="43.346892" lon="-5.925915">
        <ele>285.0</ele>
        <time>2012-05-29T06:37:49Z</time>
      </trkpt>
      <trkpt lat="43.346822" lon="-5.925658">
        <ele>285.0</ele>
        <time>2012-05-29T06:37:53Z</time>
      </trkpt>
      <trkpt lat="43.346711" lon="-5.925421">
        <ele>286.0</ele>
        <time>2012-05-29T06:37:57Z</time>
      </trkpt>
      <trkpt lat="43.346511" lon="-5.925284">
        <ele>287.0</ele>
        <time>2012-05-29T06:38:01Z</time>
      </trkpt>
      <trkpt lat="43.346093" lon="-5.925002">
        <ele>290.0</ele>
        <time>2012-05-29T06:38:09Z</time>
      </trkpt>
      <trkpt lat="43.345962" lon="-5.924747">
        <ele>290.0</ele>
        <time>2012-05-29T06:38:13Z</time>
      </trkpt>
      <trkpt lat="43.345909" lon="-5.924609">
        <ele>290.0</ele>
        <time>2012-05-29T06:38:15Z</time>
      </trkpt>
      <trkpt lat="43.345756" lon="-5.924195">
        <ele>289.0</ele>
        <time>2012-05-29T06:38:21Z</time>
      </trkpt>
      <trkpt lat="43.345663" lon="-5.92391">
        <ele>290.0</ele>
        <time>2012-05-29T06:38:25Z</time>
      </trkpt>
      <trkpt lat="43.345603" lon="-5.923615">
        <ele>290.0</ele>
        <time>2012-05-29T06:38:29Z</time>
      </trkpt>
      <trkpt lat="43.345531" lon="-5.923317">
        <ele>291.0</ele>
        <time>2012-05-29T06:38:33Z</time>
      </trkpt>
      <trkpt lat="43.345418" lon="-5.923031">
        <ele>293.0</ele>
        <time>2012-05-29T06:38:37Z</time>
      </trkpt>
      <trkpt lat="43.345267" lon="-5.922791">
        <ele>294.0</ele>
        <time>2012-05-29T06:38:41Z</time>
      </trkpt>
      <trkpt lat="43.34509" lon="-5.92257">
        <ele>295.0</ele>
        <time>2012-05-29T06:38:45Z</time>
      </trkpt>
      <trkpt lat="43.344782" lon="-5.922386">
        <ele>295.0</ele>
        <time>2012-05-29T06:38:50Z</time>
      </trkpt>
      <trkpt lat="43.344563" lon="-5.922167">
        <ele>295.0</ele>
        <time>2012-05-29T06:38:54Z</time>
      </trkpt>
      <trkpt lat="43.34443" lon="-5.921831">
        <ele>294.0</ele>
        <time>2012-05-29T06:38:58Z</time>
      </trkpt>
      <trkpt lat="43.344389" lon="-5.92147">
        <ele>294.0</ele>
        <time>2012-05-29T06:39:02Z</time>
      </trkpt>
      <trkpt lat="43.344396" lon="-5.921109">
        <ele>294.0</ele>
        <time>2012-05-29T06:39:06Z</time>
      </trkpt>
      <trkpt lat="43.344428" lon="-5.920846">
        <ele>294.0</ele>
        <time>2012-05-29T06:39:09Z</time>
      </trkpt>
      <trkpt lat="43.344532" lon="-5.920445">
        <ele>294.0</ele>
        <time>2012-05-29T06:39:14Z</time>
      </trkpt>
      <trkpt lat="43.344625" lon="-5.920211">
        <ele>295.0</ele>
        <time>2012-05-29T06:39:17Z</time>
      </trkpt>
      <trkpt lat="43.34485" lon="-5.919862">
        <ele>295.0</ele>
        <time>2012-05-29T06:39:22Z</time>
      </trkpt>
      <trkpt lat="43.345078" lon="-5.919641">
        <ele>294.0</ele>
        <time>2012-05-29T06:39:26Z</time>
      </trkpt>
      <trkpt lat="43.345331" lon="-5.919431">
        <ele>294.0</ele>
        <time>2012-05-29T06:39:30Z</time>
      </trkpt>
      <trkpt lat="43.345591" lon="-5.919225">
        <ele>294.0</ele>
        <time>2012-05-29T06:39:34Z</time>
      </trkpt>
      <trkpt lat="43.34585" lon="-5.919042">
        <ele>294.0</ele>
        <time>2012-05-29T06:39:38Z</time>
      </trkpt>
      <trkpt lat="43.346104" lon="-5.918843">
        <ele>294.0</ele>
        <time>2012-05-29T06:39:42Z</time>
      </trkpt>
      <trkpt lat="43.346339" lon="-5.918617">
        <ele>295.0</ele>
        <time>2012-05-29T06:39:46Z</time>
      </trkpt>
      <trkpt lat="43.346555" lon="-5.918367">
        <ele>294.0</ele>
        <time>2012-05-29T06:39:50Z</time>
      </trkpt>
      <trkpt lat="43.346732" lon="-5.918087">
        <ele>294.0</ele>
        <time>2012-05-29T06:39:54Z</time>
      </trkpt>
      <trkpt lat="43.346853" lon="-5.917766">
        <ele>294.0</ele>
        <time>2012-05-29T06:39:58Z</time>
      </trkpt>
      <trkpt lat="43.346919" lon="-5.917416">
        <ele>294.0</ele>
        <time>2012-05-29T06:40:02Z</time>
      </trkpt>
      <trkpt lat="43.346975" lon="-5.917063">
        <ele>293.0</ele>
        <time>2012-05-29T06:40:06Z</time>
      </trkpt>
      <trkpt lat="43.347016" lon="-5.916699">
        <ele>293.0</ele>
        <time>2012-05-29T06:40:10Z</time>
      </trkpt>
      <trkpt lat="43.347042" lon="-5.91633">
        <ele>294.0</ele>
        <time>2012-05-29T06:40:14Z</time>
      </trkpt>
      <trkpt lat="43.347037" lon="-5.915986">
        <ele>294.0</ele>
        <time>2012-05-29T06:40:18Z</time>
      </trkpt>
      <trkpt lat="43.347023" lon="-5.915672">
        <ele>294.0</ele>
        <time>2012-05-29T06:40:22Z</time>
      </trkpt>
      <trkpt lat="43.347003" lon="-5.915389">
        <ele>294.0</ele>
        <time>2012-05-29T06:40:26Z</time>
      </trkpt>
      <trkpt lat="43.346982" lon="-5.915126">
        <ele>294.0</ele>
        <time>2012-05-29T06:40:30Z</time>
      </trkpt>
      <trkpt lat="43.346955" lon="-5.914879">
        <ele>294.0</ele>
        <time>2012-05-29T06:40:35Z</time>
      </trkpt>
      <trkpt lat="43.346882" lon="-5.914671">
        <ele>294.0</ele>
        <time>2012-05-29T06:40:39Z</time>
      </trkpt>
      <trkpt lat="43.346778" lon="-5.914481">
        <ele>294.0</ele>
        <time>2012-05-29T06:40:43Z</time>
      </trkpt>
      <trkpt lat="43.346657" lon="-5.914311">
        <ele>294.0</ele>
        <time>2012-05-29T06:40:47Z</time>
      </trkpt>
      <trkpt lat="43.346539" lon="-5.914163">
        <ele>293.0</ele>
        <time>2012-05-29T06:40:51Z</time>
      </trkpt>
      <trkpt lat="43.346421" lon="-5.913981">
        <ele>294.0</ele>
        <time>2012-05-29T06:40:55Z</time>
      </trkpt>
      <trkpt lat="43.346311" lon="-5.913775">
        <ele>294.0</ele>
        <time>2012-05-29T06:40:59Z</time>
      </trkpt>
      <trkpt lat="43.346214" lon="-5.91356">
        <ele>295.0</ele>
        <time>2012-05-29T06:41:03Z</time>
      </trkpt>
      <trkpt lat="43.346124" lon="-5.913344">
        <ele>295.0</ele>
        <time>2012-05-29T06:41:07Z</time>
      </trkpt>
      <trkpt lat="43.346043" lon="-5.913123">
        <ele>295.0</ele>
        <time>2012-05-29T06:41:11Z</time>
      </trkpt>
      <trkpt lat="43.345988" lon="-5.912896">
        <ele>295.0</ele>
        <time>2012-05-29T06:41:15Z</time>
      </trkpt>
      <trkpt lat="43.345985" lon="-5.912649">
        <ele>295.0</ele>
        <time>2012-05-29T06:41:19Z</time>
      </trkpt>
      <trkpt lat="43.346016" lon="-5.912404">
        <ele>296.0</ele>
        <time>2012-05-29T06:41:23Z</time>
      </trkpt>
      <trkpt lat="43.346064" lon="-5.912174">
        <ele>295.0</ele>
        <time>2012-05-29T06:41:27Z</time>
      </trkpt>
      <trkpt lat="43.346078" lon="-5.91193">
        <ele>295.0</ele>
        <time>2012-05-29T06:41:31Z</time>
      </trkpt>
      <trkpt lat="43.346063" lon="-5.911659">
        <ele>295.0</ele>
        <time>2012-05-29T06:41:35Z</time>
      </trkpt>
      <trkpt lat="43.346038" lon="-5.911341">
        <ele>295.0</ele>
        <time>2012-05-29T06:41:39Z</time>
      </trkpt>
      <trkpt lat="43.345944" lon="-5.910981">
        <ele>296.0</ele>
        <time>2012-05-29T06:41:43Z</time>
      </trkpt>
      <trkpt lat="43.345693" lon="-5.910735">
        <ele>296.0</ele>
        <time>2012-05-29T06:41:47Z</time>
      </trkpt>
      <trkpt lat="43.345407" lon="-5.910583">
        <ele>296.0</ele>
        <time>2012-05-29T06:41:51Z</time>
      </trkpt>
      <trkpt lat="43.345139" lon="-5.910471">
        <ele>295.0</ele>
        <time>2012-05-29T06:41:55Z</time>
      </trkpt>
      <trkpt lat="43.34496" lon="-5.91039">
        <ele>295.0</ele>
        <time>2012-05-29T06:41:57Z</time>
      </trkpt>
      <trkpt lat="43.344746" lon="-5.910259">
        <ele>296.0</ele>
        <time>2012-05-29T06:42:01Z</time>
      </trkpt>
      <trkpt lat="43.344549" lon="-5.910123">
        <ele>296.0</ele>
        <time>2012-05-29T06:42:05Z</time>
      </trkpt>
      <trkpt lat="43.344355" lon="-5.909978">
        <ele>297.0</ele>
        <time>2012-05-29T06:42:09Z</time>
      </trkpt>
      <trkpt lat="43.344169" lon="-5.909807">
        <ele>297.0</ele>
        <time>2012-05-29T06:42:13Z</time>
      </trkpt>
      <trkpt lat="43.344026" lon="-5.909607">
        <ele>297.0</ele>
        <time>2012-05-29T06:42:17Z</time>
      </trkpt>
      <trkpt lat="43.343883" lon="-5.909409">
        <ele>298.0</ele>
        <time>2012-05-29T06:42:21Z</time>
      </trkpt>
      <trkpt lat="43.343733" lon="-5.909217">
        <ele>298.0</ele>
        <time>2012-05-29T06:42:25Z</time>
      </trkpt>
      <trkpt lat="43.343594" lon="-5.909011">
        <ele>299.0</ele>
        <time>2012-05-29T06:42:29Z</time>
      </trkpt>
      <trkpt lat="43.343483" lon="-5.908766">
        <ele>299.0</ele>
        <time>2012-05-29T06:42:33Z</time>
      </trkpt>
      <trkpt lat="43.343444" lon="-5.90848">
        <ele>300.0</ele>
        <time>2012-05-29T06:42:37Z</time>
      </trkpt>
      <trkpt lat="43.343406" lon="-5.908175">
        <ele>301.0</ele>
        <time>2012-05-29T06:42:41Z</time>
      </trkpt>
      <trkpt lat="43.343367" lon="-5.907856">
        <ele>302.0</ele>
        <time>2012-05-29T06:42:45Z</time>
      </trkpt>
      <trkpt lat="43.343323" lon="-5.907537">
        <ele>301.0</ele>
        <time>2012-05-29T06:42:49Z</time>
      </trkpt>
      <trkpt lat="43.343306" lon="-5.907215">
        <ele>301.0</ele>
        <time>2012-05-29T06:42:53Z</time>
      </trkpt>
      <trkpt lat="43.343351" lon="-5.906895">
        <ele>301.0</ele>
        <time>2012-05-29T06:42:57Z</time>
      </trkpt>
      <trkpt lat="43.343417" lon="-5.90657">
        <ele>301.0</ele>
        <time>2012-05-29T06:43:01Z</time>
      </trkpt>
      <trkpt lat="43.343486" lon="-5.906243">
        <ele>301.0</ele>
        <time>2012-05-29T06:43:05Z</time>
      </trkpt>
      <trkpt lat="43.34355" lon="-5.905914">
        <ele>301.0</ele>
        <time>2012-05-29T06:43:09Z</time>
      </trkpt>
      <trkpt lat="43.343637" lon="-5.905499">
        <ele>302.0</ele>
        <time>2012-05-29T06:43:14Z</time>
      </trkpt>
      <trkpt lat="43.343695" lon="-5.905247">
        <ele>303.0</ele>
        <time>2012-05-29T06:43:17Z</time>
      </trkpt>
      <trkpt lat="43.343783" lon="-5.904834">
        <ele>303.0</ele>
        <time>2012-05-29T06:43:22Z</time>
      </trkpt>
      <trkpt lat="43.343843" lon="-5.904508">
        <ele>303.0</ele>
        <time>2012-05-29T06:43:26Z</time>
      </trkpt>
      <trkpt lat="43.343881" lon="-5.904353">
        <ele>303.0</ele>
        <time>2012-05-29T06:43:28Z</time>
      </trkpt>
      <trkpt lat="43.343984" lon="-5.903926">
        <ele>303.0</ele>
        <time>2012-05-29T06:43:34Z</time>
      </trkpt>
      <trkpt lat="43.34405" lon="-5.903647">
        <ele>303.0</ele>
        <time>2012-05-29T06:43:38Z</time>
      </trkpt>
      <trkpt lat="43.344119" lon="-5.903361">
        <ele>302.0</ele>
        <time>2012-05-29T06:43:42Z</time>
      </trkpt>
      <trkpt lat="43.344264" lon="-5.902759">
        <ele>300.0</ele>
        <time>2012-05-29T06:43:50Z</time>
      </trkpt>
      <trkpt lat="43.344352" lon="-5.902442">
        <ele>300.0</ele>
        <time>2012-05-29T06:43:54Z</time>
      </trkpt>
      <trkpt lat="43.344423" lon="-5.90211">
        <ele>300.0</ele>
        <time>2012-05-29T06:43:58Z</time>
      </trkpt>
      <trkpt lat="43.344487" lon="-5.901786">
        <ele>300.0</ele>
        <time>2012-05-29T06:44:02Z</time>
      </trkpt>
      <trkpt lat="43.344531" lon="-5.901464">
        <ele>300.0</ele>
        <time>2012-05-29T06:44:06Z</time>
      </trkpt>
      <trkpt lat="43.344567" lon="-5.901141">
        <ele>300.0</ele>
        <time>2012-05-29T06:44:10Z</time>
      </trkpt>
      <trkpt lat="43.344583" lon="-5.900817">
        <ele>300.0</ele>
        <time>2012-05-29T06:44:14Z</time>
      </trkpt>
      <trkpt lat="43.344527" lon="-5.900514">
        <ele>300.0</ele>
        <time>2012-05-29T06:44:18Z</time>
      </trkpt>
      <trkpt lat="43.344476" lon="-5.900223">
        <ele>300.0</ele>
        <time>2012-05-29T06:44:22Z</time>
      </trkpt>
      <trkpt lat="43.344508" lon="-5.900084">
        <ele>300.0</ele>
        <time>2012-05-29T06:44:24Z</time>
      </trkpt>
      <trkpt lat="43.344812" lon="-5.899814">
        <ele>301.0</ele>
        <time>2012-05-29T06:44:30Z</time>
      </trkpt>
      <trkpt lat="43.345001" lon="-5.899616">
        <ele>301.0</ele>
        <time>2012-05-29T06:44:34Z</time>
      </trkpt>
      <trkpt lat="43.345186" lon="-5.899396">
        <ele>302.0</ele>
        <time>2012-05-29T06:44:38Z</time>
      </trkpt>
      <trkpt lat="43.345282" lon="-5.899291">
        <ele>303.0</ele>
        <time>2012-05-29T06:44:40Z</time>
      </trkpt>
      <trkpt lat="43.345605" lon="-5.898999">
        <ele>303.0</ele>
        <time>2012-05-29T06:44:46Z</time>
      </trkpt>
      <trkpt lat="43.345855" lon="-5.898804">
        <ele>304.0</ele>
        <time>2012-05-29T06:44:51Z</time>
      </trkpt>
      <trkpt lat="43.346115" lon="-5.898593">
        <ele>304.0</ele>
        <time>2012-05-29T06:44:54Z</time>
      </trkpt>
      <trkpt lat="43.346375" lon="-5.898362">
        <ele>304.0</ele>
        <time>2012-05-29T06:44:58Z</time>
      </trkpt>
      <trkpt lat="43.346624" lon="-5.898064">
        <ele>304.0</ele>
        <time>2012-05-29T06:45:02Z</time>
      </trkpt>
      <trkpt lat="43.346825" lon="-5.897733">
        <ele>303.0</ele>
        <time>2012-05-29T06:45:06Z</time>
      </trkpt>
      <trkpt lat="43.346984" lon="-5.897423">
        <ele>303.0</ele>
        <time>2012-05-29T06:45:10Z</time>
      </trkpt>
      <trkpt lat="43.347112" lon="-5.897125">
        <ele>303.0</ele>
        <time>2012-05-29T06:45:15Z</time>
      </trkpt>
      <trkpt lat="43.347214" lon="-5.896848">
        <ele>303.0</ele>
        <time>2012-05-29T06:45:19Z</time>
      </trkpt>
      <trkpt lat="43.347299" lon="-5.896576">
        <ele>303.0</ele>
        <time>2012-05-29T06:45:23Z</time>
      </trkpt>
      <trkpt lat="43.347337" lon="-5.896452">
        <ele>303.0</ele>
        <time>2012-05-29T06:45:25Z</time>
      </trkpt>
      <trkpt lat="43.347465" lon="-5.896079">
        <ele>304.0</ele>
        <time>2012-05-29T06:45:31Z</time>
      </trkpt>
      <trkpt lat="43.347551" lon="-5.895829">
        <ele>304.0</ele>
        <time>2012-05-29T06:45:35Z</time>
      </trkpt>
      <trkpt lat="43.347626" lon="-5.895601">
        <ele>306.0</ele>
        <time>2012-05-29T06:45:39Z</time>
      </trkpt>
      <trkpt lat="43.347662" lon="-5.895402">
        <ele>307.0</ele>
        <time>2012-05-29T06:45:43Z</time>
      </trkpt>
      <trkpt lat="43.34769" lon="-5.89521">
        <ele>307.0</ele>
        <time>2012-05-29T06:45:47Z</time>
      </trkpt>
      <trkpt lat="43.347703" lon="-5.895121">
        <ele>307.0</ele>
        <time>2012-05-29T06:45:49Z</time>
      </trkpt>
      <trkpt lat="43.347735" lon="-5.894874">
        <ele>307.0</ele>
        <time>2012-05-29T06:45:55Z</time>
      </trkpt>
      <trkpt lat="43.34776" lon="-5.894695">
        <ele>307.0</ele>
        <time>2012-05-29T06:45:59Z</time>
      </trkpt>
      <trkpt lat="43.347776" lon="-5.894518">
        <ele>307.0</ele>
        <time>2012-05-29T06:46:03Z</time>
      </trkpt>
      <trkpt lat="43.347789" lon="-5.894342">
        <ele>307.0</ele>
        <time>2012-05-29T06:46:07Z</time>
      </trkpt>
      <trkpt lat="43.3478" lon="-5.894162">
        <ele>307.0</ele>
        <time>2012-05-29T06:46:11Z</time>
      </trkpt>
      <trkpt lat="43.34781" lon="-5.893977">
        <ele>307.0</ele>
        <time>2012-05-29T06:46:15Z</time>
      </trkpt>
      <trkpt lat="43.347821" lon="-5.8938">
        <ele>307.0</ele>
        <time>2012-05-29T06:46:19Z</time>
      </trkpt>
      <trkpt lat="43.347835" lon="-5.893618">
        <ele>308.0</ele>
        <time>2012-05-29T06:46:23Z</time>
      </trkpt>
      <trkpt lat="43.347805" lon="-5.893433">
        <ele>308.0</ele>
        <time>2012-05-29T06:46:27Z</time>
      </trkpt>
      <trkpt lat="43.347788" lon="-5.89334">
        <ele>308.0</ele>
        <time>2012-05-29T06:46:29Z</time>
      </trkpt>
      <trkpt lat="43.347772" lon="-5.89305">
        <ele>308.0</ele>
        <time>2012-05-29T06:46:35Z</time>
      </trkpt>
      <trkpt lat="43.347758" lon="-5.892962">
        <ele>309.0</ele>
        <time>2012-05-29T06:46:37Z</time>
      </trkpt>
      <trkpt lat="43.347672" lon="-5.89277">
        <ele>311.0</ele>
        <time>2012-05-29T06:46:42Z</time>
      </trkpt>
      <trkpt lat="43.347615" lon="-5.892576">
        <ele>314.0</ele>
        <time>2012-05-29T06:46:46Z</time>
      </trkpt>
      <trkpt lat="43.34766" lon="-5.892382">
        <ele>316.0</ele>
        <time>2012-05-29T06:46:50Z</time>
      </trkpt>
      <trkpt lat="43.347725" lon="-5.892219">
        <ele>316.0</ele>
        <time>2012-05-29T06:46:54Z</time>
      </trkpt>
      <trkpt lat="43.347763" lon="-5.892031">
        <ele>317.0</ele>
        <time>2012-05-29T06:46:58Z</time>
      </trkpt>
      <trkpt lat="43.347766" lon="-5.891839">
        <ele>317.0</ele>
        <time>2012-05-29T06:47:02Z</time>
      </trkpt>
      <trkpt lat="43.347759" lon="-5.891644">
        <ele>317.0</ele>
        <time>2012-05-29T06:47:06Z</time>
      </trkpt>
      <trkpt lat="43.347742" lon="-5.891457">
        <ele>317.0</ele>
        <time>2012-05-29T06:47:10Z</time>
      </trkpt>
      <trkpt lat="43.347716" lon="-5.891269">
        <ele>317.0</ele>
        <time>2012-05-29T06:47:13Z</time>
      </trkpt>
      <trkpt lat="43.347685" lon="-5.891066">
        <ele>318.0</ele>
        <time>2012-05-29T06:47:17Z</time>
      </trkpt>
      <trkpt lat="43.347646" lon="-5.890858">
        <ele>319.0</ele>
        <time>2012-05-29T06:47:21Z</time>
      </trkpt>
      <trkpt lat="43.347607" lon="-5.890658">
        <ele>319.0</ele>
        <time>2012-05-29T06:47:25Z</time>
      </trkpt>
      <trkpt lat="43.347573" lon="-5.890468">
        <ele>319.0</ele>
        <time>2012-05-29T06:47:29Z</time>
      </trkpt>
      <trkpt lat="43.347531" lon="-5.890284">
        <ele>319.0</ele>
        <time>2012-05-29T06:47:33Z</time>
      </trkpt>
      <trkpt lat="43.3475" lon="-5.890098">
        <ele>319.0</ele>
        <time>2012-05-29T06:47:37Z</time>
      </trkpt>
      <trkpt lat="43.347483" lon="-5.889904">
        <ele>320.0</ele>
        <time>2012-05-29T06:47:41Z</time>
      </trkpt>
      <trkpt lat="43.347477" lon="-5.889708">
        <ele>320.0</ele>
        <time>2012-05-29T06:47:45Z</time>
      </trkpt>
      <trkpt lat="43.347506" lon="-5.889509">
        <ele>320.0</ele>
        <time>2012-05-29T06:47:49Z</time>
      </trkpt>
      <trkpt lat="43.347561" lon="-5.889316">
        <ele>321.0</ele>
        <time>2012-05-29T06:47:53Z</time>
      </trkpt>
      <trkpt lat="43.347701" lon="-5.888952">
        <ele>323.0</ele>
        <time>2012-05-29T06:48:01Z</time>
      </trkpt>
      <trkpt lat="43.347789" lon="-5.888762">
        <ele>324.0</ele>
        <time>2012-05-29T06:48:05Z</time>
      </trkpt>
      <trkpt lat="43.347841" lon="-5.888669">
        <ele>324.0</ele>
        <time>2012-05-29T06:48:07Z</time>
      </trkpt>
      <trkpt lat="43.347995" lon="-5.888396">
        <ele>325.0</ele>
        <time>2012-05-29T06:48:13Z</time>
      </trkpt>
      <trkpt lat="43.348089" lon="-5.888204">
        <ele>326.0</ele>
        <time>2012-05-29T06:48:17Z</time>
      </trkpt>
      <trkpt lat="43.348135" lon="-5.888111">
        <ele>326.0</ele>
        <time>2012-05-29T06:48:19Z</time>
      </trkpt>
      <trkpt lat="43.348261" lon="-5.887835">
        <ele>326.0</ele>
        <time>2012-05-29T06:48:25Z</time>
      </trkpt>
      <trkpt lat="43.34834" lon="-5.887656">
        <ele>327.0</ele>
        <time>2012-05-29T06:48:29Z</time>
      </trkpt>
      <trkpt lat="43.348557" lon="-5.88734">
        <ele>328.0</ele>
        <time>2012-05-29T06:48:37Z</time>
      </trkpt>
      <trkpt lat="43.348703" lon="-5.887219">
        <ele>329.0</ele>
        <time>2012-05-29T06:48:41Z</time>
      </trkpt>
      <trkpt lat="43.34878" lon="-5.887157">
        <ele>329.0</ele>
        <time>2012-05-29T06:48:43Z</time>
      </trkpt>
      <trkpt lat="43.349027" lon="-5.88699">
        <ele>329.0</ele>
        <time>2012-05-29T06:48:49Z</time>
      </trkpt>
      <trkpt lat="43.349111" lon="-5.886944">
        <ele>329.0</ele>
        <time>2012-05-29T06:48:51Z</time>
      </trkpt>
      <trkpt lat="43.349361" lon="-5.886772">
        <ele>329.0</ele>
        <time>2012-05-29T06:48:57Z</time>
      </trkpt>
      <trkpt lat="43.349508" lon="-5.886598">
        <ele>330.0</ele>
        <time>2012-05-29T06:49:01Z</time>
      </trkpt>
      <trkpt lat="43.349616" lon="-5.886376">
        <ele>330.0</ele>
        <time>2012-05-29T06:49:05Z</time>
      </trkpt>
      <trkpt lat="43.349696" lon="-5.886142">
        <ele>331.0</ele>
        <time>2012-05-29T06:49:09Z</time>
      </trkpt>
      <trkpt lat="43.349729" lon="-5.886025">
        <ele>332.0</ele>
        <time>2012-05-29T06:49:11Z</time>
      </trkpt>
      <trkpt lat="43.349825" lon="-5.885692">
        <ele>333.0</ele>
        <time>2012-05-29T06:49:17Z</time>
      </trkpt>
      <trkpt lat="43.349899" lon="-5.885463">
        <ele>335.0</ele>
        <time>2012-05-29T06:49:22Z</time>
      </trkpt>
      <trkpt lat="43.349975" lon="-5.885224">
        <ele>336.0</ele>
        <time>2012-05-29T06:49:25Z</time>
      </trkpt>
      <trkpt lat="43.350061" lon="-5.884985">
        <ele>337.0</ele>
        <time>2012-05-29T06:49:29Z</time>
      </trkpt>
      <trkpt lat="43.350142" lon="-5.884748">
        <ele>338.0</ele>
        <time>2012-05-29T06:49:33Z</time>
      </trkpt>
      <trkpt lat="43.350233" lon="-5.884491">
        <ele>339.0</ele>
        <time>2012-05-29T06:49:37Z</time>
      </trkpt>
      <trkpt lat="43.350351" lon="-5.884094">
        <ele>339.0</ele>
        <time>2012-05-29T06:49:42Z</time>
      </trkpt>
      <trkpt lat="43.350402" lon="-5.883915">
        <ele>339.0</ele>
        <time>2012-05-29T06:49:44Z</time>
      </trkpt>
      <trkpt lat="43.350556" lon="-5.883347">
        <ele>339.0</ele>
        <time>2012-05-29T06:49:51Z</time>
      </trkpt>
      <trkpt lat="43.350654" lon="-5.882948">
        <ele>339.0</ele>
        <time>2012-05-29T06:49:55Z</time>
      </trkpt>
      <trkpt lat="43.35078" lon="-5.882563">
        <ele>339.0</ele>
        <time>2012-05-29T06:49:59Z</time>
      </trkpt>
      <trkpt lat="43.350969" lon="-5.882227">
        <ele>339.0</ele>
        <time>2012-05-29T06:50:03Z</time>
      </trkpt>
      <trkpt lat="43.351175" lon="-5.881906">
        <ele>339.0</ele>
        <time>2012-05-29T06:50:07Z</time>
      </trkpt>
      <trkpt lat="43.351381" lon="-5.881563">
        <ele>339.0</ele>
        <time>2012-05-29T06:50:11Z</time>
      </trkpt>
      <trkpt lat="43.351607" lon="-5.881247">
        <ele>340.0</ele>
        <time>2012-05-29T06:50:15Z</time>
      </trkpt>
      <trkpt lat="43.351881" lon="-5.881013">
        <ele>340.0</ele>
        <time>2012-05-29T06:50:19Z</time>
      </trkpt>
      <trkpt lat="43.35216" lon="-5.880842">
        <ele>341.0</ele>
        <time>2012-05-29T06:50:23Z</time>
      </trkpt>
      <trkpt lat="43.352416" lon="-5.880711">
        <ele>341.0</ele>
        <time>2012-05-29T06:50:27Z</time>
      </trkpt>
      <trkpt lat="43.352644" lon="-5.880574">
        <ele>342.0</ele>
        <time>2012-05-29T06:50:31Z</time>
      </trkpt>
      <trkpt lat="43.352829" lon="-5.880354">
        <ele>342.0</ele>
        <time>2012-05-29T06:50:35Z</time>
      </trkpt>
      <trkpt lat="43.352963" lon="-5.880049">
        <ele>343.0</ele>
        <time>2012-05-29T06:50:39Z</time>
      </trkpt>
      <trkpt lat="43.353011" lon="-5.879687">
        <ele>343.0</ele>
        <time>2012-05-29T06:50:43Z</time>
      </trkpt>
      <trkpt lat="43.353033" lon="-5.87933">
        <ele>343.0</ele>
        <time>2012-05-29T06:50:47Z</time>
      </trkpt>
      <trkpt lat="43.353058" lon="-5.878976">
        <ele>342.0</ele>
        <time>2012-05-29T06:50:51Z</time>
      </trkpt>
      <trkpt lat="43.353079" lon="-5.878722">
        <ele>342.0</ele>
        <time>2012-05-29T06:50:54Z</time>
      </trkpt>
      <trkpt lat="43.353097" lon="-5.878393">
        <ele>342.0</ele>
        <time>2012-05-29T06:50:58Z</time>
      </trkpt>
      <trkpt lat="43.35312" lon="-5.878065">
        <ele>343.0</ele>
        <time>2012-05-29T06:51:02Z</time>
      </trkpt>
      <trkpt lat="43.353142" lon="-5.877646">
        <ele>343.0</ele>
        <time>2012-05-29T06:51:07Z</time>
      </trkpt>
      <trkpt lat="43.353165" lon="-5.87739">
        <ele>344.0</ele>
        <time>2012-05-29T06:51:10Z</time>
      </trkpt>
      <trkpt lat="43.353246" lon="-5.877072">
        <ele>344.0</ele>
        <time>2012-05-29T06:51:14Z</time>
      </trkpt>
      <trkpt lat="43.353564" lon="-5.87658">
        <ele>344.0</ele>
        <time>2012-05-29T06:51:22Z</time>
      </trkpt>
      <trkpt lat="43.353864" lon="-5.876463">
        <ele>346.0</ele>
        <time>2012-05-29T06:51:27Z</time>
      </trkpt>
      <trkpt lat="43.354057" lon="-5.876497">
        <ele>347.0</ele>
        <time>2012-05-29T06:51:30Z</time>
      </trkpt>
      <trkpt lat="43.354296" lon="-5.876594">
        <ele>348.0</ele>
        <time>2012-05-29T06:51:34Z</time>
      </trkpt>
      <trkpt lat="43.35452" lon="-5.876744">
        <ele>349.0</ele>
        <time>2012-05-29T06:51:38Z</time>
      </trkpt>
      <trkpt lat="43.354734" lon="-5.876895">
        <ele>350.0</ele>
        <time>2012-05-29T06:51:42Z</time>
      </trkpt>
      <trkpt lat="43.354948" lon="-5.877033">
        <ele>350.0</ele>
        <time>2012-05-29T06:51:46Z</time>
      </trkpt>
      <trkpt lat="43.355165" lon="-5.877141">
        <ele>351.0</ele>
        <time>2012-05-29T06:51:50Z</time>
      </trkpt>
      <trkpt lat="43.35539" lon="-5.877221">
        <ele>351.0</ele>
        <time>2012-05-29T06:51:54Z</time>
      </trkpt>
      <trkpt lat="43.355619" lon="-5.877282">
        <ele>351.0</ele>
        <time>2012-05-29T06:51:58Z</time>
      </trkpt>
      <trkpt lat="43.355843" lon="-5.877319">
        <ele>351.0</ele>
        <time>2012-05-29T06:52:02Z</time>
      </trkpt>
      <trkpt lat="43.356044" lon="-5.877307">
        <ele>351.0</ele>
        <time>2012-05-29T06:52:06Z</time>
      </trkpt>
      <trkpt lat="43.35623" lon="-5.877196">
        <ele>351.0</ele>
        <time>2012-05-29T06:52:10Z</time>
      </trkpt>
      <trkpt lat="43.35623" lon="-5.877196">
        <time>2012-05-29T06:52:21Z</time>
      </trkpt>
    </trkseg>
    <trkseg>
      <trkpt lat="43.35623" lon="-5.877196">
        <time>2012-05-29T06:53:52Z</time>
      </trkpt>
      <trkpt lat="43.356483" lon="-5.876706">
        <ele>352.0</ele>
        <time>2012-05-29T06:53:56Z</time>
      </trkpt>
      <trkpt lat="43.356502" lon="-5.876495">
        <ele>352.0</ele>
        <time>2012-05-29T06:54:00Z</time>
      </trkpt>
      <trkpt lat="43.356483" lon="-5.876233">
        <ele>353.0</ele>
        <time>2012-05-29T06:54:04Z</time>
      </trkpt>
      <trkpt lat="43.356431" lon="-5.875963">
        <ele>353.0</ele>
        <time>2012-05-29T06:54:08Z</time>
      </trkpt>
      <trkpt lat="43.356385" lon="-5.875684">
        <ele>353.0</ele>
        <time>2012-05-29T06:54:12Z</time>
      </trkpt>
      <trkpt lat="43.356352" lon="-5.875394">
        <ele>352.0</ele>
        <time>2012-05-29T06:54:16Z</time>
      </trkpt>
      <trkpt lat="43.356356" lon="-5.875099">
        <ele>352.0</ele>
        <time>2012-05-29T06:54:20Z</time>
      </trkpt>
      <trkpt lat="43.35643" lon="-5.874807">
        <ele>352.0</ele>
        <time>2012-05-29T06:54:24Z</time>
      </trkpt>
      <trkpt lat="43.356538" lon="-5.874529">
        <ele>352.0</ele>
        <time>2012-05-29T06:54:29Z</time>
      </trkpt>
      <trkpt lat="43.356661" lon="-5.874251">
        <ele>353.0</ele>
        <time>2012-05-29T06:54:33Z</time>
      </trkpt>
      <trkpt lat="43.356738" lon="-5.873956">
        <ele>352.0</ele>
        <time>2012-05-29T06:54:37Z</time>
      </trkpt>
      <trkpt lat="43.356677" lon="-5.873753">
        <ele>352.0</ele>
        <time>2012-05-29T06:54:41Z</time>
      </trkpt>
      <trkpt lat="43.356665" lon="-5.873334">
        <ele>353.0</ele>
        <time>2012-05-29T06:54:50Z</time>
      </trkpt>
      <trkpt lat="43.356692" lon="-5.873197">
        <ele>353.0</ele>
        <time>2012-05-29T06:54:52Z</time>
      </trkpt>
      <trkpt lat="43.356787" lon="-5.872714">
        <ele>353.0</ele>
        <time>2012-05-29T06:54:58Z</time>
      </trkpt>
      <trkpt lat="43.356891" lon="-5.872354">
        <ele>353.0</ele>
        <time>2012-05-29T06:55:02Z</time>
      </trkpt>
      <trkpt lat="43.357008" lon="-5.871973">
        <ele>353.0</ele>
        <time>2012-05-29T06:55:06Z</time>
      </trkpt>
      <trkpt lat="43.357116" lon="-5.871589">
        <ele>352.0</ele>
        <time>2012-05-29T06:55:10Z</time>
      </trkpt>
      <trkpt lat="43.357202" lon="-5.87122">
        <ele>352.0</ele>
        <time>2012-05-29T06:55:14Z</time>
      </trkpt>
      <trkpt lat="43.357289" lon="-5.870873">
        <ele>352.0</ele>
        <time>2012-05-29T06:55:18Z</time>
      </trkpt>
      <trkpt lat="43.357312" lon="-5.870586">
        <ele>353.0</ele>
        <time>2012-05-29T06:55:22Z</time>
      </trkpt>
      <trkpt lat="43.357173" lon="-5.870382">
        <ele>352.0</ele>
        <time>2012-05-29T06:55:26Z</time>
      </trkpt>
      <trkpt lat="43.357008" lon="-5.870197">
        <ele>352.0</ele>
        <time>2012-05-29T06:55:30Z</time>
      </trkpt>
      <trkpt lat="43.356841" lon="-5.869991">
        <ele>352.0</ele>
        <time>2012-05-29T06:55:34Z</time>
      </trkpt>
      <trkpt lat="43.356664" lon="-5.869795">
        <ele>353.0</ele>
        <time>2012-05-29T06:55:38Z</time>
      </trkpt>
      <trkpt lat="43.35648" lon="-5.869644">
        <ele>354.0</ele>
        <time>2012-05-29T06:55:42Z</time>
      </trkpt>
      <trkpt lat="43.356276" lon="-5.869543">
        <ele>354.0</ele>
        <time>2012-05-29T06:55:46Z</time>
      </trkpt>
      <trkpt lat="43.35607" lon="-5.86946">
        <ele>354.0</ele>
        <time>2012-05-29T06:55:50Z</time>
      </trkpt>
      <trkpt lat="43.355872" lon="-5.869372">
        <ele>355.0</ele>
        <time>2012-05-29T06:55:54Z</time>
      </trkpt>
      <trkpt lat="43.355664" lon="-5.869292">
        <ele>354.0</ele>
        <time>2012-05-29T06:55:58Z</time>
      </trkpt>
      <trkpt lat="43.355458" lon="-5.869215">
        <ele>354.0</ele>
        <time>2012-05-29T06:56:02Z</time>
      </trkpt>
      <trkpt lat="43.355255" lon="-5.869139">
        <ele>355.0</ele>
        <time>2012-05-29T06:56:06Z</time>
      </trkpt>
      <trkpt lat="43.355048" lon="-5.869059">
        <ele>355.0</ele>
        <time>2012-05-29T06:56:10Z</time>
      </trkpt>
      <trkpt lat="43.354841" lon="-5.868987">
        <ele>355.0</ele>
        <time>2012-05-29T06:56:14Z</time>
      </trkpt>
      <trkpt lat="43.354636" lon="-5.868906">
        <ele>355.0</ele>
        <time>2012-05-29T06:56:18Z</time>
      </trkpt>
      <trkpt lat="43.354434" lon="-5.868826">
        <ele>356.0</ele>
        <time>2012-05-29T06:56:22Z</time>
      </trkpt>
      <trkpt lat="43.354231" lon="-5.868743">
        <ele>356.0</ele>
        <time>2012-05-29T06:56:26Z</time>
      </trkpt>
      <trkpt lat="43.354024" lon="-5.86867">
        <ele>356.0</ele>
        <time>2012-05-29T06:56:30Z</time>
      </trkpt>
      <trkpt lat="43.353817" lon="-5.868595">
        <ele>356.0</ele>
        <time>2012-05-29T06:56:34Z</time>
      </trkpt>
      <trkpt lat="43.353616" lon="-5.868515">
        <ele>357.0</ele>
        <time>2012-05-29T06:56:38Z</time>
      </trkpt>
      <trkpt lat="43.353474" lon="-5.868407">
        <ele>358.0</ele>
        <time>2012-05-29T06:56:42Z</time>
      </trkpt>
      <trkpt lat="43.35353" lon="-5.868149">
        <ele>359.0</ele>
        <time>2012-05-29T06:56:46Z</time>
      </trkpt>
      <trkpt lat="43.353687" lon="-5.867788">
        <ele>359.0</ele>
        <time>2012-05-29T06:56:50Z</time>
      </trkpt>
      <trkpt lat="43.353805" lon="-5.867385">
        <ele>359.0</ele>
        <time>2012-05-29T06:56:54Z</time>
      </trkpt>
      <trkpt lat="43.353869" lon="-5.866926">
        <ele>359.0</ele>
        <time>2012-05-29T06:56:58Z</time>
      </trkpt>
      <trkpt lat="43.353965" lon="-5.86643">
        <ele>358.0</ele>
        <time>2012-05-29T06:57:02Z</time>
      </trkpt>
      <trkpt lat="43.354102" lon="-5.866087">
        <ele>358.0</ele>
        <time>2012-05-29T06:57:05Z</time>
      </trkpt>
      <trkpt lat="43.354372" lon="-5.865516">
        <ele>357.0</ele>
        <time>2012-05-29T06:57:10Z</time>
      </trkpt>
      <trkpt lat="43.354604" lon="-5.865054">
        <ele>357.0</ele>
        <time>2012-05-29T06:57:14Z</time>
      </trkpt>
      <trkpt lat="43.354798" lon="-5.864554">
        <ele>357.0</ele>
        <time>2012-05-29T06:57:18Z</time>
      </trkpt>
      <trkpt lat="43.354861" lon="-5.863982">
        <ele>356.0</ele>
        <time>2012-05-29T06:57:22Z</time>
      </trkpt>
      <trkpt lat="43.354899" lon="-5.863407">
        <ele>356.0</ele>
        <time>2012-05-29T06:57:26Z</time>
      </trkpt>
      <trkpt lat="43.354959" lon="-5.863138">
        <ele>356.0</ele>
        <time>2012-05-29T06:57:28Z</time>
      </trkpt>
      <trkpt lat="43.355145" lon="-5.862653">
        <ele>356.0</ele>
        <time>2012-05-29T06:57:32Z</time>
      </trkpt>
      <trkpt lat="43.355405" lon="-5.862016">
        <ele>355.0</ele>
        <time>2012-05-29T06:57:38Z</time>
      </trkpt>
      <trkpt lat="43.355526" lon="-5.861653">
        <ele>356.0</ele>
        <time>2012-05-29T06:57:41Z</time>
      </trkpt>
      <trkpt lat="43.355647" lon="-5.861316">
        <ele>356.0</ele>
        <time>2012-05-29T06:57:45Z</time>
      </trkpt>
      <trkpt lat="43.355759" lon="-5.860949">
        <ele>355.0</ele>
        <time>2012-05-29T06:57:49Z</time>
      </trkpt>
      <trkpt lat="43.355857" lon="-5.860553">
        <ele>354.0</ele>
        <time>2012-05-29T06:57:53Z</time>
      </trkpt>
      <trkpt lat="43.355948" lon="-5.860128">
        <ele>354.0</ele>
        <time>2012-05-29T06:57:57Z</time>
      </trkpt>
      <trkpt lat="43.356036" lon="-5.859711">
        <ele>353.0</ele>
        <time>2012-05-29T06:58:01Z</time>
      </trkpt>
      <trkpt lat="43.356092" lon="-5.859302">
        <ele>353.0</ele>
        <time>2012-05-29T06:58:05Z</time>
      </trkpt>
      <trkpt lat="43.356117" lon="-5.859093">
        <ele>353.0</ele>
        <time>2012-05-29T06:58:07Z</time>
      </trkpt>
      <trkpt lat="43.356276" lon="-5.858748">
        <ele>354.0</ele>
        <time>2012-05-29T06:58:11Z</time>
      </trkpt>
      <trkpt lat="43.356526" lon="-5.85808">
        <ele>355.0</ele>
        <time>2012-05-29T06:58:17Z</time>
      </trkpt>
      <trkpt lat="43.356577" lon="-5.857675">
        <ele>355.0</ele>
        <time>2012-05-29T06:58:20Z</time>
      </trkpt>
      <trkpt lat="43.356664" lon="-5.857212">
        <ele>356.0</ele>
        <time>2012-05-29T06:58:24Z</time>
      </trkpt>
      <trkpt lat="43.356824" lon="-5.856933">
        <ele>354.0</ele>
        <time>2012-05-29T06:58:29Z</time>
      </trkpt>
      <trkpt lat="43.356793" lon="-5.856857">
        <ele>354.0</ele>
        <time>2012-05-29T06:58:32Z</time>
      </trkpt>
      <trkpt lat="43.356728" lon="-5.856799">
        <ele>354.0</ele>
        <time>2012-05-29T06:58:36Z</time>
      </trkpt>
      <trkpt lat="43.356728" lon="-5.856799">
        <time>2012-05-29T06:58:48Z</time>
      </trkpt>
    </trkseg>
    <trkseg>
      <trkpt lat="43.356728" lon="-5.856799">
        <time>2012-05-29T07:01:44Z</time>
      </trkpt>
      <trkpt lat="43.356728" lon="-5.856799">
        <time>2012-05-29T07:01:55Z</time>
      </trkpt>
    </trkseg>
    <trkseg>
      <trkpt lat="43.356728" lon="-5.856799">
        <time>2012-05-29T07:02:13Z</time>
      </trkpt>
      <trkpt lat="43.356728" lon="-5.856799">
        <time>2012-05-29T07:02:24Z</time>
      </trkpt>
    </trkseg>
    <trkseg>
      <trkpt lat="43.356728" lon="-5.856799">
        <time>2012-05-29T07:02:29Z</time>
      </trkpt>
      <trkpt lat="43.356828" lon="-5.856728">
        <ele>347.0</ele>
        <time>2012-05-29T07:02:40Z</time>
      </trkpt>
      <trkpt lat="43.356688" lon="-5.856723">
        <ele>344.0</ele>
        <time>2012-05-29T07:02:52Z</time>
      </trkpt>
      <trkpt lat="43.35654" lon="-5.856684">
        <ele>341.0</ele>
        <time>2012-05-29T07:02:56Z</time>
      </trkpt>
      <trkpt lat="43.35626" lon="-5.856596">
        <ele>337.0</ele>
        <time>2012-05-29T07:03:01Z</time>
      </trkpt>
      <trkpt lat="43.355999" lon="-5.856511">
        <ele>336.0</ele>
        <time>2012-05-29T07:03:05Z</time>
      </trkpt>
      <trkpt lat="43.355612" lon="-5.856383">
        <ele>335.0</ele>
        <time>2012-05-29T07:03:09Z</time>
      </trkpt>
      <trkpt lat="43.3552" lon="-5.856391">
        <ele>334.0</ele>
        <time>2012-05-29T07:03:12Z</time>
      </trkpt>
      <trkpt lat="43.354847" lon="-5.85653">
        <ele>331.0</ele>
        <time>2012-05-29T07:03:17Z</time>
      </trkpt>
      <trkpt lat="43.354519" lon="-5.856483">
        <ele>329.0</ele>
        <time>2012-05-29T07:03:21Z</time>
      </trkpt>
      <trkpt lat="43.35415" lon="-5.856388">
        <ele>328.0</ele>
        <time>2012-05-29T07:03:25Z</time>
      </trkpt>
      <trkpt lat="43.353742" lon="-5.856375">
        <ele>327.0</ele>
        <time>2012-05-29T07:03:29Z</time>
      </trkpt>
      <trkpt lat="43.353343" lon="-5.856343">
        <ele>327.0</ele>
        <time>2012-05-29T07:03:33Z</time>
      </trkpt>
      <trkpt lat="43.352973" lon="-5.856332">
        <ele>328.0</ele>
        <time>2012-05-29T07:03:37Z</time>
      </trkpt>
      <trkpt lat="43.352688" lon="-5.85651">
        <ele>328.0</ele>
        <time>2012-05-29T07:03:41Z</time>
      </trkpt>
      <trkpt lat="43.352502" lon="-5.85667">
        <ele>329.0</ele>
        <time>2012-05-29T07:03:45Z</time>
      </trkpt>
      <trkpt lat="43.352238" lon="-5.856584">
        <ele>326.0</ele>
        <time>2012-05-29T07:03:49Z</time>
      </trkpt>
      <trkpt lat="43.351916" lon="-5.856607">
        <ele>324.0</ele>
        <time>2012-05-29T07:03:53Z</time>
      </trkpt>
      <trkpt lat="43.35158" lon="-5.856697">
        <ele>321.0</ele>
        <time>2012-05-29T07:03:57Z</time>
      </trkpt>
      <trkpt lat="43.351238" lon="-5.856853">
        <ele>320.0</ele>
        <time>2012-05-29T07:04:01Z</time>
      </trkpt>
      <trkpt lat="43.350885" lon="-5.857026">
        <ele>319.0</ele>
        <time>2012-05-29T07:04:05Z</time>
      </trkpt>
      <trkpt lat="43.350523" lon="-5.857171">
        <ele>317.0</ele>
        <time>2012-05-29T07:04:09Z</time>
      </trkpt>
      <trkpt lat="43.350163" lon="-5.857326">
        <ele>316.0</ele>
        <time>2012-05-29T07:04:13Z</time>
      </trkpt>
      <trkpt lat="43.349827" lon="-5.85752">
        <ele>315.0</ele>
        <time>2012-05-29T07:04:17Z</time>
      </trkpt>
      <trkpt lat="43.349498" lon="-5.857753">
        <ele>313.0</ele>
        <time>2012-05-29T07:04:21Z</time>
      </trkpt>
      <trkpt lat="43.349186" lon="-5.858034">
        <ele>312.0</ele>
        <time>2012-05-29T07:04:25Z</time>
      </trkpt>
      <trkpt lat="43.348898" lon="-5.858347">
        <ele>310.0</ele>
        <time>2012-05-29T07:04:29Z</time>
      </trkpt>
      <trkpt lat="43.348626" lon="-5.858681">
        <ele>309.0</ele>
        <time>2012-05-29T07:04:33Z</time>
      </trkpt>
      <trkpt lat="43.348386" lon="-5.859058">
        <ele>308.0</ele>
        <time>2012-05-29T07:04:37Z</time>
      </trkpt>
      <trkpt lat="43.348149" lon="-5.859436">
        <ele>308.0</ele>
        <time>2012-05-29T07:04:41Z</time>
      </trkpt>
      <trkpt lat="43.347915" lon="-5.859815">
        <ele>308.0</ele>
        <time>2012-05-29T07:04:45Z</time>
      </trkpt>
      <trkpt lat="43.347858" lon="-5.85991">
        <ele>307.0</ele>
        <time>2012-05-29T07:04:46Z</time>
      </trkpt>
      <trkpt lat="43.347452" lon="-5.860558">
        <ele>306.0</ele>
        <time>2012-05-29T07:04:53Z</time>
      </trkpt>
      <trkpt lat="43.347208" lon="-5.860922">
        <ele>305.0</ele>
        <time>2012-05-29T07:04:57Z</time>
      </trkpt>
      <trkpt lat="43.346951" lon="-5.861309">
        <ele>304.0</ele>
        <time>2012-05-29T07:05:01Z</time>
      </trkpt>
      <trkpt lat="43.346677" lon="-5.861664">
        <ele>303.0</ele>
        <time>2012-05-29T07:05:05Z</time>
      </trkpt>
      <trkpt lat="43.346385" lon="-5.862015">
        <ele>303.0</ele>
        <time>2012-05-29T07:05:09Z</time>
      </trkpt>
      <trkpt lat="43.346092" lon="-5.862371">
        <ele>302.0</ele>
        <time>2012-05-29T07:05:13Z</time>
      </trkpt>
      <trkpt lat="43.345799" lon="-5.862726">
        <ele>302.0</ele>
        <time>2012-05-29T07:05:17Z</time>
      </trkpt>
      <trkpt lat="43.345511" lon="-5.863096">
        <ele>302.0</ele>
        <time>2012-05-29T07:05:21Z</time>
      </trkpt>
      <trkpt lat="43.345229" lon="-5.863467">
        <ele>302.0</ele>
        <time>2012-05-29T07:05:25Z</time>
      </trkpt>
      <trkpt lat="43.344956" lon="-5.863818">
        <ele>301.0</ele>
        <time>2012-05-29T07:05:29Z</time>
      </trkpt>
      <trkpt lat="43.344696" lon="-5.864137">
        <ele>301.0</ele>
        <time>2012-05-29T07:05:33Z</time>
      </trkpt>
      <trkpt lat="43.344457" lon="-5.864464">
        <ele>300.0</ele>
        <time>2012-05-29T07:05:37Z</time>
      </trkpt>
      <trkpt lat="43.344225" lon="-5.864777">
        <ele>300.0</ele>
        <time>2012-05-29T07:05:41Z</time>
      </trkpt>
      <trkpt lat="43.344008" lon="-5.865094">
        <ele>300.0</ele>
        <time>2012-05-29T07:05:45Z</time>
      </trkpt>
      <trkpt lat="43.343804" lon="-5.865408">
        <ele>299.0</ele>
        <time>2012-05-29T07:05:49Z</time>
      </trkpt>
      <trkpt lat="43.34365" lon="-5.865643">
        <ele>299.0</ele>
        <time>2012-05-29T07:05:52Z</time>
      </trkpt>
      <trkpt lat="43.343378" lon="-5.866039">
        <ele>299.0</ele>
        <time>2012-05-29T07:05:57Z</time>
      </trkpt>
      <trkpt lat="43.343154" lon="-5.866352">
        <ele>299.0</ele>
        <time>2012-05-29T07:06:01Z</time>
      </trkpt>
      <trkpt lat="43.342933" lon="-5.866649">
        <ele>298.0</ele>
        <time>2012-05-29T07:06:05Z</time>
      </trkpt>
      <trkpt lat="43.342772" lon="-5.866846">
        <ele>298.0</ele>
        <time>2012-05-29T07:06:08Z</time>
      </trkpt>
      <trkpt lat="43.34247" lon="-5.867177">
        <ele>297.0</ele>
        <time>2012-05-29T07:06:13Z</time>
      </trkpt>
      <trkpt lat="43.342284" lon="-5.86738">
        <ele>296.0</ele>
        <time>2012-05-29T07:06:16Z</time>
      </trkpt>
      <trkpt lat="43.341972" lon="-5.867698">
        <ele>295.0</ele>
        <time>2012-05-29T07:06:21Z</time>
      </trkpt>
      <trkpt lat="43.341719" lon="-5.867939">
        <ele>295.0</ele>
        <time>2012-05-29T07:06:25Z</time>
      </trkpt>
      <trkpt lat="43.341528" lon="-5.86812">
        <ele>294.0</ele>
        <time>2012-05-29T07:06:28Z</time>
      </trkpt>
      <trkpt lat="43.34121" lon="-5.868427">
        <ele>294.0</ele>
        <time>2012-05-29T07:06:33Z</time>
      </trkpt>
      <trkpt lat="43.340955" lon="-5.868667">
        <ele>294.0</ele>
        <time>2012-05-29T07:06:37Z</time>
      </trkpt>
      <trkpt lat="43.340759" lon="-5.868832">
        <ele>294.0</ele>
        <time>2012-05-29T07:06:40Z</time>
      </trkpt>
      <trkpt lat="43.340426" lon="-5.869093">
        <ele>295.0</ele>
        <time>2012-05-29T07:06:45Z</time>
      </trkpt>
      <trkpt lat="43.340153" lon="-5.869291">
        <ele>295.0</ele>
        <time>2012-05-29T07:06:49Z</time>
      </trkpt>
      <trkpt lat="43.339881" lon="-5.869479">
        <ele>295.0</ele>
        <time>2012-05-29T07:06:53Z</time>
      </trkpt>
      <trkpt lat="43.339604" lon="-5.869616">
        <ele>293.0</ele>
        <time>2012-05-29T07:06:57Z</time>
      </trkpt>
      <trkpt lat="43.339321" lon="-5.869748">
        <ele>292.0</ele>
        <time>2012-05-29T07:07:01Z</time>
      </trkpt>
      <trkpt lat="43.339038" lon="-5.869861">
        <ele>291.0</ele>
        <time>2012-05-29T07:07:05Z</time>
      </trkpt>
      <trkpt lat="43.338894" lon="-5.869909">
        <ele>291.0</ele>
        <time>2012-05-29T07:07:07Z</time>
      </trkpt>
      <trkpt lat="43.338457" lon="-5.870068">
        <ele>291.0</ele>
        <time>2012-05-29T07:07:13Z</time>
      </trkpt>
      <trkpt lat="43.338302" lon="-5.870117">
        <ele>290.0</ele>
        <time>2012-05-29T07:07:15Z</time>
      </trkpt>
      <trkpt lat="43.33781" lon="-5.870226">
        <ele>290.0</ele>
        <time>2012-05-29T07:07:21Z</time>
      </trkpt>
      <trkpt lat="43.33763" lon="-5.870249">
        <ele>290.0</ele>
        <time>2012-05-29T07:07:23Z</time>
      </trkpt>
      <trkpt lat="43.337052" lon="-5.87024">
        <ele>290.0</ele>
        <time>2012-05-29T07:07:29Z</time>
      </trkpt>
      <trkpt lat="43.336644" lon="-5.870202">
        <ele>290.0</ele>
        <time>2012-05-29T07:07:33Z</time>
      </trkpt>
      <trkpt lat="43.336224" lon="-5.870234">
        <ele>291.0</ele>
        <time>2012-05-29T07:07:37Z</time>
      </trkpt>
      <trkpt lat="43.335942" lon="-5.870237">
        <ele>291.0</ele>
        <time>2012-05-29T07:07:40Z</time>
      </trkpt>
      <trkpt lat="43.33551" lon="-5.870277">
        <ele>291.0</ele>
        <time>2012-05-29T07:07:45Z</time>
      </trkpt>
      <trkpt lat="43.335215" lon="-5.870319">
        <ele>288.0</ele>
        <time>2012-05-29T07:07:49Z</time>
      </trkpt>
      <trkpt lat="43.334924" lon="-5.870351">
        <ele>287.0</ele>
        <time>2012-05-29T07:07:53Z</time>
      </trkpt>
      <trkpt lat="43.334627" lon="-5.870387">
        <ele>286.0</ele>
        <time>2012-05-29T07:07:57Z</time>
      </trkpt>
      <trkpt lat="43.334343" lon="-5.870406">
        <ele>286.0</ele>
        <time>2012-05-29T07:08:01Z</time>
      </trkpt>
      <trkpt lat="43.334075" lon="-5.870426">
        <ele>286.0</ele>
        <time>2012-05-29T07:08:05Z</time>
      </trkpt>
      <trkpt lat="43.333827" lon="-5.870446">
        <ele>286.0</ele>
        <time>2012-05-29T07:08:09Z</time>
      </trkpt>
      <trkpt lat="43.333582" lon="-5.870468">
        <ele>286.0</ele>
        <time>2012-05-29T07:08:13Z</time>
      </trkpt>
      <trkpt lat="43.333458" lon="-5.87048">
        <ele>286.0</ele>
        <time>2012-05-29T07:08:15Z</time>
      </trkpt>
      <trkpt lat="43.333095" lon="-5.870515">
        <ele>286.0</ele>
        <time>2012-05-29T07:08:21Z</time>
      </trkpt>
      <trkpt lat="43.332983" lon="-5.870524">
        <ele>286.0</ele>
        <time>2012-05-29T07:08:23Z</time>
      </trkpt>
      <trkpt lat="43.33276" lon="-5.870556">
        <ele>286.0</ele>
        <time>2012-05-29T07:08:27Z</time>
      </trkpt>
      <trkpt lat="43.332439" lon="-5.870628">
        <ele>286.0</ele>
        <time>2012-05-29T07:08:33Z</time>
      </trkpt>
      <trkpt lat="43.331788" lon="-5.870793">
        <ele>286.0</ele>
        <time>2012-05-29T07:08:45Z</time>
      </trkpt>
      <trkpt lat="43.331588" lon="-5.870997">
        <ele>286.0</ele>
        <time>2012-05-29T07:08:49Z</time>
      </trkpt>
      <trkpt lat="43.331401" lon="-5.871336">
        <ele>285.0</ele>
        <time>2012-05-29T07:08:53Z</time>
      </trkpt>
      <trkpt lat="43.33131" lon="-5.871828">
        <ele>282.0</ele>
        <time>2012-05-29T07:08:57Z</time>
      </trkpt>
      <trkpt lat="43.331205" lon="-5.872256">
        <ele>278.0</ele>
        <time>2012-05-29T07:09:01Z</time>
      </trkpt>
      <trkpt lat="43.331101" lon="-5.872656">
        <ele>274.0</ele>
        <time>2012-05-29T07:09:05Z</time>
      </trkpt>
      <trkpt lat="43.331009" lon="-5.873059">
        <ele>270.0</ele>
        <time>2012-05-29T07:09:09Z</time>
      </trkpt>
      <trkpt lat="43.330918" lon="-5.87348">
        <ele>268.0</ele>
        <time>2012-05-29T07:09:13Z</time>
      </trkpt>
      <trkpt lat="43.33079" lon="-5.873971">
        <ele>267.0</ele>
        <time>2012-05-29T07:09:17Z</time>
      </trkpt>
      <trkpt lat="43.330614" lon="-5.874464">
        <ele>267.0</ele>
        <time>2012-05-29T07:09:21Z</time>
      </trkpt>
      <trkpt lat="43.33039" lon="-5.874905">
        <ele>267.0</ele>
        <time>2012-05-29T07:09:25Z</time>
      </trkpt>
      <trkpt lat="43.330094" lon="-5.875256">
        <ele>267.0</ele>
        <time>2012-05-29T07:09:29Z</time>
      </trkpt>
      <trkpt lat="43.330019" lon="-5.87535">
        <ele>267.0</ele>
        <time>2012-05-29T07:09:30Z</time>
      </trkpt>
      <trkpt lat="43.329509" lon="-5.876213">
        <ele>275.0</ele>
        <time>2012-05-29T07:09:37Z</time>
      </trkpt>
      <trkpt lat="43.329108" lon="-5.876776">
        <ele>283.0</ele>
        <time>2012-05-29T07:09:41Z</time>
      </trkpt>
      <trkpt lat="43.328806" lon="-5.876544">
        <ele>282.0</ele>
        <time>2012-05-29T07:09:45Z</time>
      </trkpt>
      <trkpt lat="43.328606" lon="-5.876466">
        <ele>280.0</ele>
        <time>2012-05-29T07:09:48Z</time>
      </trkpt>
      <trkpt lat="43.328372" lon="-5.876448">
        <ele>279.0</ele>
        <time>2012-05-29T07:09:52Z</time>
      </trkpt>
      <trkpt lat="43.327956" lon="-5.876462">
        <ele>268.0</ele>
        <time>2012-05-29T07:10:01Z</time>
      </trkpt>
      <trkpt lat="43.327707" lon="-5.876575">
        <ele>268.0</ele>
        <time>2012-05-29T07:10:05Z</time>
      </trkpt>
      <trkpt lat="43.327511" lon="-5.876657">
        <ele>268.0</ele>
        <time>2012-05-29T07:10:09Z</time>
      </trkpt>
      <trkpt lat="43.327336" lon="-5.876729">
        <ele>268.0</ele>
        <time>2012-05-29T07:10:13Z</time>
      </trkpt>
      <trkpt lat="43.327166" lon="-5.876811">
        <ele>268.0</ele>
        <time>2012-05-29T07:10:17Z</time>
      </trkpt>
      <trkpt lat="43.326994" lon="-5.876873">
        <ele>268.0</ele>
        <time>2012-05-29T07:10:21Z</time>
      </trkpt>
      <trkpt lat="43.326815" lon="-5.876919">
        <ele>268.0</ele>
        <time>2012-05-29T07:10:25Z</time>
      </trkpt>
      <trkpt lat="43.326635" lon="-5.876958">
        <ele>269.0</ele>
        <time>2012-05-29T07:10:29Z</time>
      </trkpt>
      <trkpt lat="43.326544" lon="-5.876969">
        <ele>269.0</ele>
        <time>2012-05-29T07:10:31Z</time>
      </trkpt>
      <trkpt lat="43.326266" lon="-5.87698">
        <ele>270.0</ele>
        <time>2012-05-29T07:10:37Z</time>
      </trkpt>
      <trkpt lat="43.326083" lon="-5.876987">
        <ele>270.0</ele>
        <time>2012-05-29T07:10:41Z</time>
      </trkpt>
      <trkpt lat="43.325993" lon="-5.876982">
        <ele>270.0</ele>
        <time>2012-05-29T07:10:43Z</time>
      </trkpt>
      <trkpt lat="43.325727" lon="-5.87695">
        <ele>271.0</ele>
        <time>2012-05-29T07:10:49Z</time>
      </trkpt>
      <trkpt lat="43.325642" lon="-5.876926">
        <ele>271.0</ele>
        <time>2012-05-29T07:10:51Z</time>
      </trkpt>
      <trkpt lat="43.325384" lon="-5.876826">
        <ele>272.0</ele>
        <time>2012-05-29T07:10:57Z</time>
      </trkpt>
      <trkpt lat="43.325298" lon="-5.876792">
        <ele>272.0</ele>
        <time>2012-05-29T07:10:59Z</time>
      </trkpt>
      <trkpt lat="43.325033" lon="-5.876661">
        <ele>272.0</ele>
        <time>2012-05-29T07:11:05Z</time>
      </trkpt>
      <trkpt lat="43.324938" lon="-5.876604">
        <ele>273.0</ele>
        <time>2012-05-29T07:11:07Z</time>
      </trkpt>
      <trkpt lat="43.324659" lon="-5.87642">
        <ele>273.0</ele>
        <time>2012-05-29T07:11:13Z</time>
      </trkpt>
      <trkpt lat="43.324483" lon="-5.876289">
        <ele>273.0</ele>
        <time>2012-05-29T07:11:17Z</time>
      </trkpt>
      <trkpt lat="43.324319" lon="-5.876139">
        <ele>272.0</ele>
        <time>2012-05-29T07:11:21Z</time>
      </trkpt>
      <trkpt lat="43.324173" lon="-5.875961">
        <ele>272.0</ele>
        <time>2012-05-29T07:11:25Z</time>
      </trkpt>
      <trkpt lat="43.324001" lon="-5.875785">
        <ele>272.0</ele>
        <time>2012-05-29T07:11:29Z</time>
      </trkpt>
      <trkpt lat="43.323863" lon="-5.875528">
        <ele>272.0</ele>
        <time>2012-05-29T07:11:33Z</time>
      </trkpt>
      <trkpt lat="43.323713" lon="-5.875291">
        <ele>272.0</ele>
        <time>2012-05-29T07:11:37Z</time>
      </trkpt>
      <trkpt lat="43.323585" lon="-5.875028">
        <ele>272.0</ele>
        <time>2012-05-29T07:11:41Z</time>
      </trkpt>
      <trkpt lat="43.323461" lon="-5.874717">
        <ele>273.0</ele>
        <time>2012-05-29T07:11:45Z</time>
      </trkpt>
      <trkpt lat="43.323322" lon="-5.874356">
        <ele>273.0</ele>
        <time>2012-05-29T07:11:49Z</time>
      </trkpt>
      <trkpt lat="43.323153" lon="-5.873955">
        <ele>273.0</ele>
        <time>2012-05-29T07:11:53Z</time>
      </trkpt>
      <trkpt lat="43.322968" lon="-5.873531">
        <ele>272.0</ele>
        <time>2012-05-29T07:11:57Z</time>
      </trkpt>
      <trkpt lat="43.322773" lon="-5.873083">
        <ele>272.0</ele>
        <time>2012-05-29T07:12:01Z</time>
      </trkpt>
      <trkpt lat="43.322586" lon="-5.872644">
        <ele>273.0</ele>
        <time>2012-05-29T07:12:05Z</time>
      </trkpt>
      <trkpt lat="43.322431" lon="-5.872316">
        <ele>273.0</ele>
        <time>2012-05-29T07:12:08Z</time>
      </trkpt>
      <trkpt lat="43.322141" lon="-5.871766">
        <ele>273.0</ele>
        <time>2012-05-29T07:12:13Z</time>
      </trkpt>
      <trkpt lat="43.321869" lon="-5.871375">
        <ele>273.0</ele>
        <time>2012-05-29T07:12:17Z</time>
      </trkpt>
      <trkpt lat="43.321538" lon="-5.871029">
        <ele>272.0</ele>
        <time>2012-05-29T07:12:21Z</time>
      </trkpt>
      <trkpt lat="43.321094" lon="-5.87083">
        <ele>272.0</ele>
        <time>2012-05-29T07:12:25Z</time>
      </trkpt>
      <trkpt lat="43.320609" lon="-5.870721">
        <ele>271.0</ele>
        <time>2012-05-29T07:12:29Z</time>
      </trkpt>
      <trkpt lat="43.320093" lon="-5.870645">
        <ele>270.0</ele>
        <time>2012-05-29T07:12:33Z</time>
      </trkpt>
      <trkpt lat="43.319631" lon="-5.870596">
        <ele>270.0</ele>
        <time>2012-05-29T07:12:37Z</time>
      </trkpt>
      <trkpt lat="43.319177" lon="-5.870497">
        <ele>271.0</ele>
        <time>2012-05-29T07:12:41Z</time>
      </trkpt>
      <trkpt lat="43.318753" lon="-5.870239">
        <ele>269.0</ele>
        <time>2012-05-29T07:12:45Z</time>
      </trkpt>
      <trkpt lat="43.31838" lon="-5.869939">
        <ele>263.0</ele>
        <time>2012-05-29T07:12:49Z</time>
      </trkpt>
      <trkpt lat="43.318034" lon="-5.869622">
        <ele>259.0</ele>
        <time>2012-05-29T07:12:53Z</time>
      </trkpt>
      <trkpt lat="43.317708" lon="-5.869305">
        <ele>257.0</ele>
        <time>2012-05-29T07:12:57Z</time>
      </trkpt>
      <trkpt lat="43.317386" lon="-5.869004">
        <ele>256.0</ele>
        <time>2012-05-29T07:13:01Z</time>
      </trkpt>
      <trkpt lat="43.317058" lon="-5.868697">
        <ele>255.0</ele>
        <time>2012-05-29T07:13:05Z</time>
      </trkpt>
      <trkpt lat="43.316716" lon="-5.868401">
        <ele>255.0</ele>
        <time>2012-05-29T07:13:09Z</time>
      </trkpt>
      <trkpt lat="43.31631" lon="-5.8682">
        <ele>253.0</ele>
        <time>2012-05-29T07:13:13Z</time>
      </trkpt>
      <trkpt lat="43.315864" lon="-5.868131">
        <ele>252.0</ele>
        <time>2012-05-29T07:13:17Z</time>
      </trkpt>
      <trkpt lat="43.315398" lon="-5.868212">
        <ele>250.0</ele>
        <time>2012-05-29T07:13:21Z</time>
      </trkpt>
      <trkpt lat="43.314916" lon="-5.868308">
        <ele>249.0</ele>
        <time>2012-05-29T07:13:25Z</time>
      </trkpt>
      <trkpt lat="43.314448" lon="-5.868416">
        <ele>248.0</ele>
        <time>2012-05-29T07:13:29Z</time>
      </trkpt>
      <trkpt lat="43.314009" lon="-5.868532">
        <ele>248.0</ele>
        <time>2012-05-29T07:13:33Z</time>
      </trkpt>
      <trkpt lat="43.313542" lon="-5.868786">
        <ele>249.0</ele>
        <time>2012-05-29T07:13:37Z</time>
      </trkpt>
      <trkpt lat="43.313064" lon="-5.869128">
        <ele>249.0</ele>
        <time>2012-05-29T07:13:41Z</time>
      </trkpt>
      <trkpt lat="43.312616" lon="-5.869187">
        <ele>248.0</ele>
        <time>2012-05-29T07:13:45Z</time>
      </trkpt>
      <trkpt lat="43.312196" lon="-5.86926">
        <ele>248.0</ele>
        <time>2012-05-29T07:13:49Z</time>
      </trkpt>
      <trkpt lat="43.311871" lon="-5.869341">
        <ele>248.0</ele>
        <time>2012-05-29T07:13:53Z</time>
      </trkpt>
      <trkpt lat="43.311579" lon="-5.869433">
        <ele>247.0</ele>
        <time>2012-05-29T07:13:57Z</time>
      </trkpt>
      <trkpt lat="43.311236" lon="-5.869415">
        <ele>246.0</ele>
        <time>2012-05-29T07:14:01Z</time>
      </trkpt>
      <trkpt lat="43.310876" lon="-5.869521">
        <ele>242.0</ele>
        <time>2012-05-29T07:14:05Z</time>
      </trkpt>
      <trkpt lat="43.310541" lon="-5.869743">
        <ele>240.0</ele>
        <time>2012-05-29T07:14:09Z</time>
      </trkpt>
      <trkpt lat="43.310241" lon="-5.870131">
        <ele>238.0</ele>
        <time>2012-05-29T07:14:13Z</time>
      </trkpt>
      <trkpt lat="43.309995" lon="-5.870599">
        <ele>235.0</ele>
        <time>2012-05-29T07:14:17Z</time>
      </trkpt>
      <trkpt lat="43.309766" lon="-5.871079">
        <ele>231.0</ele>
        <time>2012-05-29T07:14:21Z</time>
      </trkpt>
      <trkpt lat="43.309648" lon="-5.871598">
        <ele>226.0</ele>
        <time>2012-05-29T07:14:25Z</time>
      </trkpt>
      <trkpt lat="43.309447" lon="-5.872047">
        <ele>222.0</ele>
        <time>2012-05-29T07:14:29Z</time>
      </trkpt>
      <trkpt lat="43.309313" lon="-5.872223">
        <ele>221.0</ele>
        <time>2012-05-29T07:14:31Z</time>
      </trkpt>
      <trkpt lat="43.309045" lon="-5.872888">
        <ele>220.0</ele>
        <time>2012-05-29T07:14:37Z</time>
      </trkpt>
      <trkpt lat="43.308866" lon="-5.873314">
        <ele>219.0</ele>
        <time>2012-05-29T07:14:41Z</time>
      </trkpt>
      <trkpt lat="43.308668" lon="-5.873702">
        <ele>218.0</ele>
        <time>2012-05-29T07:14:45Z</time>
      </trkpt>
      <trkpt lat="43.308409" lon="-5.873983">
        <ele>216.0</ele>
        <time>2012-05-29T07:14:49Z</time>
      </trkpt>
      <trkpt lat="43.308189" lon="-5.874127">
        <ele>214.0</ele>
        <time>2012-05-29T07:14:52Z</time>
      </trkpt>
      <trkpt lat="43.307964" lon="-5.874262">
        <ele>213.0</ele>
        <time>2012-05-29T07:14:55Z</time>
      </trkpt>
      <trkpt lat="43.307555" lon="-5.874493">
        <ele>212.0</ele>
        <time>2012-05-29T07:15:01Z</time>
      </trkpt>
      <trkpt lat="43.307424" lon="-5.87457">
        <ele>212.0</ele>
        <time>2012-05-29T07:15:03Z</time>
      </trkpt>
      <trkpt lat="43.307039" lon="-5.874826">
        <ele>212.0</ele>
        <time>2012-05-29T07:15:09Z</time>
      </trkpt>
      <trkpt lat="43.306813" lon="-5.875047">
        <ele>212.0</ele>
        <time>2012-05-29T07:15:13Z</time>
      </trkpt>
      <trkpt lat="43.306614" lon="-5.875293">
        <ele>212.0</ele>
        <time>2012-05-29T07:15:17Z</time>
      </trkpt>
      <trkpt lat="43.306432" lon="-5.87556">
        <ele>211.0</ele>
        <time>2012-05-29T07:15:21Z</time>
      </trkpt>
      <trkpt lat="43.306257" lon="-5.875884">
        <ele>211.0</ele>
        <time>2012-05-29T07:15:25Z</time>
      </trkpt>
      <trkpt lat="43.306166" lon="-5.876056">
        <ele>211.0</ele>
        <time>2012-05-29T07:15:27Z</time>
      </trkpt>
      <trkpt lat="43.305916" lon="-5.876578">
        <ele>211.0</ele>
        <time>2012-05-29T07:15:33Z</time>
      </trkpt>
      <trkpt lat="43.305742" lon="-5.876927">
        <ele>211.0</ele>
        <time>2012-05-29T07:15:37Z</time>
      </trkpt>
      <trkpt lat="43.305556" lon="-5.877315">
        <ele>211.0</ele>
        <time>2012-05-29T07:15:41Z</time>
      </trkpt>
      <trkpt lat="43.305426" lon="-5.877605">
        <ele>211.0</ele>
        <time>2012-05-29T07:15:44Z</time>
      </trkpt>
      <trkpt lat="43.3052" lon="-5.878069">
        <ele>201.0</ele>
        <time>2012-05-29T07:15:49Z</time>
      </trkpt>
      <trkpt lat="43.305049" lon="-5.878411">
        <ele>198.0</ele>
        <time>2012-05-29T07:15:53Z</time>
      </trkpt>
      <trkpt lat="43.304891" lon="-5.878743">
        <ele>199.0</ele>
        <time>2012-05-29T07:15:57Z</time>
      </trkpt>
      <trkpt lat="43.304728" lon="-5.879054">
        <ele>200.0</ele>
        <time>2012-05-29T07:16:01Z</time>
      </trkpt>
      <trkpt lat="43.304566" lon="-5.879359">
        <ele>200.0</ele>
        <time>2012-05-29T07:16:05Z</time>
      </trkpt>
      <trkpt lat="43.304405" lon="-5.879673">
        <ele>200.0</ele>
        <time>2012-05-29T07:16:09Z</time>
      </trkpt>
      <trkpt lat="43.304233" lon="-5.879998">
        <ele>199.0</ele>
        <time>2012-05-29T07:16:13Z</time>
      </trkpt>
      <trkpt lat="43.304052" lon="-5.880334">
        <ele>199.0</ele>
        <time>2012-05-29T07:16:17Z</time>
      </trkpt>
      <trkpt lat="43.303844" lon="-5.880648">
        <ele>199.0</ele>
        <time>2012-05-29T07:16:21Z</time>
      </trkpt>
      <trkpt lat="43.303618" lon="-5.880923">
        <ele>199.0</ele>
        <time>2012-05-29T07:16:25Z</time>
      </trkpt>
      <trkpt lat="43.303379" lon="-5.881161">
        <ele>198.0</ele>
        <time>2012-05-29T07:16:29Z</time>
      </trkpt>
      <trkpt lat="43.303119" lon="-5.881355">
        <ele>198.0</ele>
        <time>2012-05-29T07:16:33Z</time>
      </trkpt>
      <trkpt lat="43.30285" lon="-5.881526">
        <ele>198.0</ele>
        <time>2012-05-29T07:16:37Z</time>
      </trkpt>
      <trkpt lat="43.302579" lon="-5.88168">
        <ele>199.0</ele>
        <time>2012-05-29T07:16:41Z</time>
      </trkpt>
      <trkpt lat="43.302306" lon="-5.88183">
        <ele>199.0</ele>
        <time>2012-05-29T07:16:45Z</time>
      </trkpt>
      <trkpt lat="43.302032" lon="-5.881982">
        <ele>200.0</ele>
        <time>2012-05-29T07:16:49Z</time>
      </trkpt>
      <trkpt lat="43.301753" lon="-5.882124">
        <ele>200.0</ele>
        <time>2012-05-29T07:16:53Z</time>
      </trkpt>
      <trkpt lat="43.301465" lon="-5.882253">
        <ele>200.0</ele>
        <time>2012-05-29T07:16:57Z</time>
      </trkpt>
      <trkpt lat="43.301181" lon="-5.882386">
        <ele>200.0</ele>
        <time>2012-05-29T07:17:01Z</time>
      </trkpt>
      <trkpt lat="43.300901" lon="-5.882525">
        <ele>200.0</ele>
        <time>2012-05-29T07:17:05Z</time>
      </trkpt>
      <trkpt lat="43.300617" lon="-5.882641">
        <ele>199.0</ele>
        <time>2012-05-29T07:17:09Z</time>
      </trkpt>
      <trkpt lat="43.300331" lon="-5.882739">
        <ele>199.0</ele>
        <time>2012-05-29T07:17:13Z</time>
      </trkpt>
      <trkpt lat="43.30004" lon="-5.882819">
        <ele>199.0</ele>
        <time>2012-05-29T07:17:17Z</time>
      </trkpt>
      <trkpt lat="43.299743" lon="-5.882878">
        <ele>199.0</ele>
        <time>2012-05-29T07:17:21Z</time>
      </trkpt>
      <trkpt lat="43.299444" lon="-5.882918">
        <ele>199.0</ele>
        <time>2012-05-29T07:17:25Z</time>
      </trkpt>
      <trkpt lat="43.299147" lon="-5.882934">
        <ele>199.0</ele>
        <time>2012-05-29T07:17:29Z</time>
      </trkpt>
      <trkpt lat="43.298859" lon="-5.882932">
        <ele>199.0</ele>
        <time>2012-05-29T07:17:33Z</time>
      </trkpt>
      <trkpt lat="43.298647" lon="-5.882931">
        <ele>199.0</ele>
        <time>2012-05-29T07:17:36Z</time>
      </trkpt>
      <trkpt lat="43.298288" lon="-5.88292">
        <ele>202.0</ele>
        <time>2012-05-29T07:17:41Z</time>
      </trkpt>
      <trkpt lat="43.298" lon="-5.88288">
        <ele>203.0</ele>
        <time>2012-05-29T07:17:45Z</time>
      </trkpt>
      <trkpt lat="43.297722" lon="-5.882761">
        <ele>202.0</ele>
        <time>2012-05-29T07:17:49Z</time>
      </trkpt>
      <trkpt lat="43.297455" lon="-5.88264">
        <ele>201.0</ele>
        <time>2012-05-29T07:17:53Z</time>
      </trkpt>
      <trkpt lat="43.297185" lon="-5.882542">
        <ele>202.0</ele>
        <time>2012-05-29T07:17:57Z</time>
      </trkpt>
      <trkpt lat="43.296916" lon="-5.882448">
        <ele>202.0</ele>
        <time>2012-05-29T07:18:01Z</time>
      </trkpt>
      <trkpt lat="43.296656" lon="-5.882369">
        <ele>202.0</ele>
        <time>2012-05-29T07:18:05Z</time>
      </trkpt>
      <trkpt lat="43.296403" lon="-5.882297">
        <ele>201.0</ele>
        <time>2012-05-29T07:18:09Z</time>
      </trkpt>
      <trkpt lat="43.296138" lon="-5.882216">
        <ele>200.0</ele>
        <time>2012-05-29T07:18:13Z</time>
      </trkpt>
      <trkpt lat="43.295865" lon="-5.882142">
        <ele>200.0</ele>
        <time>2012-05-29T07:18:17Z</time>
      </trkpt>
      <trkpt lat="43.295585" lon="-5.882056">
        <ele>200.0</ele>
        <time>2012-05-29T07:18:21Z</time>
      </trkpt>
      <trkpt lat="43.295297" lon="-5.881959">
        <ele>200.0</ele>
        <time>2012-05-29T07:18:25Z</time>
      </trkpt>
      <trkpt lat="43.295081" lon="-5.881895">
        <ele>200.0</ele>
        <time>2012-05-29T07:18:28Z</time>
      </trkpt>
      <trkpt lat="43.294716" lon="-5.881771">
        <ele>200.0</ele>
        <time>2012-05-29T07:18:33Z</time>
      </trkpt>
      <trkpt lat="43.294431" lon="-5.881669">
        <ele>200.0</ele>
        <time>2012-05-29T07:18:37Z</time>
      </trkpt>
      <trkpt lat="43.29436" lon="-5.881645">
        <ele>200.0</ele>
        <time>2012-05-29T07:18:38Z</time>
      </trkpt>
      <trkpt lat="43.293931" lon="-5.881504">
        <ele>200.0</ele>
        <time>2012-05-29T07:18:44Z</time>
      </trkpt>
      <trkpt lat="43.293567" lon="-5.881426">
        <ele>200.0</ele>
        <time>2012-05-29T07:18:49Z</time>
      </trkpt>
      <trkpt lat="43.293292" lon="-5.881341">
        <ele>199.0</ele>
        <time>2012-05-29T07:18:53Z</time>
      </trkpt>
      <trkpt lat="43.293026" lon="-5.881266">
        <ele>200.0</ele>
        <time>2012-05-29T07:18:57Z</time>
      </trkpt>
      <trkpt lat="43.292757" lon="-5.881202">
        <ele>200.0</ele>
        <time>2012-05-29T07:19:01Z</time>
      </trkpt>
      <trkpt lat="43.292485" lon="-5.881142">
        <ele>199.0</ele>
        <time>2012-05-29T07:19:05Z</time>
      </trkpt>
      <trkpt lat="43.292278" lon="-5.881115">
        <ele>199.0</ele>
        <time>2012-05-29T07:19:08Z</time>
      </trkpt>
      <trkpt lat="43.291928" lon="-5.881124">
        <ele>200.0</ele>
        <time>2012-05-29T07:19:13Z</time>
      </trkpt>
      <trkpt lat="43.291651" lon="-5.881139">
        <ele>200.0</ele>
        <time>2012-05-29T07:19:17Z</time>
      </trkpt>
      <trkpt lat="43.291369" lon="-5.881159">
        <ele>201.0</ele>
        <time>2012-05-29T07:19:21Z</time>
      </trkpt>
      <trkpt lat="43.291088" lon="-5.881176">
        <ele>202.0</ele>
        <time>2012-05-29T07:19:25Z</time>
      </trkpt>
      <trkpt lat="43.290803" lon="-5.881195">
        <ele>202.0</ele>
        <time>2012-05-29T07:19:29Z</time>
      </trkpt>
      <trkpt lat="43.290528" lon="-5.881221">
        <ele>202.0</ele>
        <time>2012-05-29T07:19:33Z</time>
      </trkpt>
      <trkpt lat="43.290259" lon="-5.881253">
        <ele>202.0</ele>
        <time>2012-05-29T07:19:37Z</time>
      </trkpt>
      <trkpt lat="43.29" lon="-5.88124">
        <ele>203.0</ele>
        <time>2012-05-29T07:19:41Z</time>
      </trkpt>
      <trkpt lat="43.289751" lon="-5.88117">
        <ele>203.0</ele>
        <time>2012-05-29T07:19:45Z</time>
      </trkpt>
      <trkpt lat="43.28934" lon="-5.880972">
        <ele>202.0</ele>
        <time>2012-05-29T07:19:52Z</time>
      </trkpt>
      <trkpt lat="43.289104" lon="-5.880857">
        <ele>203.0</ele>
        <time>2012-05-29T07:19:56Z</time>
      </trkpt>
      <trkpt lat="43.288875" lon="-5.880751">
        <ele>203.0</ele>
        <time>2012-05-29T07:20:00Z</time>
      </trkpt>
      <trkpt lat="43.288589" lon="-5.880607">
        <ele>204.0</ele>
        <time>2012-05-29T07:20:05Z</time>
      </trkpt>
      <trkpt lat="43.288471" lon="-5.880541">
        <ele>204.0</ele>
        <time>2012-05-29T07:20:07Z</time>
      </trkpt>
      <trkpt lat="43.28818" lon="-5.880393">
        <ele>204.0</ele>
        <time>2012-05-29T07:20:12Z</time>
      </trkpt>
      <trkpt lat="43.287941" lon="-5.880308">
        <ele>204.0</ele>
        <time>2012-05-29T07:20:16Z</time>
      </trkpt>
      <trkpt lat="43.287623" lon="-5.88032">
        <ele>204.0</ele>
        <time>2012-05-29T07:20:21Z</time>
      </trkpt>
      <trkpt lat="43.287366" lon="-5.880382">
        <ele>204.0</ele>
        <time>2012-05-29T07:20:25Z</time>
      </trkpt>
      <trkpt lat="43.287109" lon="-5.880445">
        <ele>204.0</ele>
        <time>2012-05-29T07:20:29Z</time>
      </trkpt>
      <trkpt lat="43.286913" lon="-5.880498">
        <ele>204.0</ele>
        <time>2012-05-29T07:20:32Z</time>
      </trkpt>
      <trkpt lat="43.286584" lon="-5.880635">
        <ele>204.0</ele>
        <time>2012-05-29T07:20:37Z</time>
      </trkpt>
      <trkpt lat="43.286317" lon="-5.880753">
        <ele>205.0</ele>
        <time>2012-05-29T07:20:41Z</time>
      </trkpt>
      <trkpt lat="43.286031" lon="-5.880805">
        <ele>206.0</ele>
        <time>2012-05-29T07:20:45Z</time>
      </trkpt>
      <trkpt lat="43.285735" lon="-5.880786">
        <ele>206.0</ele>
        <time>2012-05-29T07:20:49Z</time>
      </trkpt>
      <trkpt lat="43.285451" lon="-5.880624">
        <ele>207.0</ele>
        <time>2012-05-29T07:20:53Z</time>
      </trkpt>
      <trkpt lat="43.285259" lon="-5.880436">
        <ele>207.0</ele>
        <time>2012-05-29T07:20:56Z</time>
      </trkpt>
      <trkpt lat="43.284968" lon="-5.880085">
        <ele>207.0</ele>
        <time>2012-05-29T07:21:01Z</time>
      </trkpt>
      <trkpt lat="43.284754" lon="-5.879773">
        <ele>207.0</ele>
        <time>2012-05-29T07:21:05Z</time>
      </trkpt>
      <trkpt lat="43.284544" lon="-5.879451">
        <ele>208.0</ele>
        <time>2012-05-29T07:21:09Z</time>
      </trkpt>
      <trkpt lat="43.284359" lon="-5.879101">
        <ele>208.0</ele>
        <time>2012-05-29T07:21:13Z</time>
      </trkpt>
      <trkpt lat="43.284268" lon="-5.878938">
        <ele>208.0</ele>
        <time>2012-05-29T07:21:15Z</time>
      </trkpt>
      <trkpt lat="43.284061" lon="-5.878525">
        <ele>207.0</ele>
        <time>2012-05-29T07:21:21Z</time>
      </trkpt>
      <trkpt lat="43.283952" lon="-5.878268">
        <ele>207.0</ele>
        <time>2012-05-29T07:21:25Z</time>
      </trkpt>
      <trkpt lat="43.283892" lon="-5.878128">
        <ele>207.0</ele>
        <time>2012-05-29T07:21:27Z</time>
      </trkpt>
      <trkpt lat="43.283685" lon="-5.877699">
        <ele>206.0</ele>
        <time>2012-05-29T07:21:33Z</time>
      </trkpt>
      <trkpt lat="43.28354" lon="-5.877401">
        <ele>205.0</ele>
        <time>2012-05-29T07:21:37Z</time>
      </trkpt>
      <trkpt lat="43.283387" lon="-5.877094">
        <ele>205.0</ele>
        <time>2012-05-29T07:21:41Z</time>
      </trkpt>
      <trkpt lat="43.283239" lon="-5.876767">
        <ele>205.0</ele>
        <time>2012-05-29T07:21:45Z</time>
      </trkpt>
      <trkpt lat="43.283092" lon="-5.87644">
        <ele>205.0</ele>
        <time>2012-05-29T07:21:49Z</time>
      </trkpt>
      <trkpt lat="43.282933" lon="-5.876125">
        <ele>205.0</ele>
        <time>2012-05-29T07:21:53Z</time>
      </trkpt>
      <trkpt lat="43.28278" lon="-5.875814">
        <ele>205.0</ele>
        <time>2012-05-29T07:21:57Z</time>
      </trkpt>
      <trkpt lat="43.28262" lon="-5.875508">
        <ele>205.0</ele>
        <time>2012-05-29T07:22:01Z</time>
      </trkpt>
      <trkpt lat="43.282459" lon="-5.875204">
        <ele>205.0</ele>
        <time>2012-05-29T07:22:05Z</time>
      </trkpt>
      <trkpt lat="43.282304" lon="-5.874902">
        <ele>205.0</ele>
        <time>2012-05-29T07:22:09Z</time>
      </trkpt>
      <trkpt lat="43.282148" lon="-5.874604">
        <ele>205.0</ele>
        <time>2012-05-29T07:22:13Z</time>
      </trkpt>
      <trkpt lat="43.282" lon="-5.874291">
        <ele>205.0</ele>
        <time>2012-05-29T07:22:17Z</time>
      </trkpt>
      <trkpt lat="43.281882" lon="-5.873948">
        <ele>205.0</ele>
        <time>2012-05-29T07:22:21Z</time>
      </trkpt>
      <trkpt lat="43.281792" lon="-5.873573">
        <ele>206.0</ele>
        <time>2012-05-29T07:22:25Z</time>
      </trkpt>
      <trkpt lat="43.281752" lon="-5.873179">
        <ele>206.0</ele>
        <time>2012-05-29T07:22:29Z</time>
      </trkpt>
      <trkpt lat="43.281759" lon="-5.872796">
        <ele>206.0</ele>
        <time>2012-05-29T07:22:33Z</time>
      </trkpt>
      <trkpt lat="43.281779" lon="-5.872433">
        <ele>207.0</ele>
        <time>2012-05-29T07:22:37Z</time>
      </trkpt>
      <trkpt lat="43.281858" lon="-5.872072">
        <ele>208.0</ele>
        <time>2012-05-29T07:22:41Z</time>
      </trkpt>
      <trkpt lat="43.281958" lon="-5.871751">
        <ele>208.0</ele>
        <time>2012-05-29T07:22:45Z</time>
      </trkpt>
      <trkpt lat="43.282111" lon="-5.871462">
        <ele>206.0</ele>
        <time>2012-05-29T07:22:49Z</time>
      </trkpt>
      <trkpt lat="43.282293" lon="-5.87119">
        <ele>205.0</ele>
        <time>2012-05-29T07:22:53Z</time>
      </trkpt>
      <trkpt lat="43.282475" lon="-5.870914">
        <ele>205.0</ele>
        <time>2012-05-29T07:22:57Z</time>
      </trkpt>
      <trkpt lat="43.282651" lon="-5.870637">
        <ele>204.0</ele>
        <time>2012-05-29T07:23:01Z</time>
      </trkpt>
      <trkpt lat="43.282779" lon="-5.870429">
        <ele>204.0</ele>
        <time>2012-05-29T07:23:04Z</time>
      </trkpt>
      <trkpt lat="43.282953" lon="-5.870151">
        <ele>204.0</ele>
        <time>2012-05-29T07:23:08Z</time>
      </trkpt>
      <trkpt lat="43.283162" lon="-5.869804">
        <ele>205.0</ele>
        <time>2012-05-29T07:23:13Z</time>
      </trkpt>
      <trkpt lat="43.283311" lon="-5.869533">
        <ele>206.0</ele>
        <time>2012-05-29T07:23:17Z</time>
      </trkpt>
      <trkpt lat="43.283465" lon="-5.869253">
        <ele>206.0</ele>
        <time>2012-05-29T07:23:21Z</time>
      </trkpt>
      <trkpt lat="43.283611" lon="-5.868977">
        <ele>207.0</ele>
        <time>2012-05-29T07:23:25Z</time>
      </trkpt>
      <trkpt lat="43.283755" lon="-5.868696">
        <ele>208.0</ele>
        <time>2012-05-29T07:23:29Z</time>
      </trkpt>
      <trkpt lat="43.2839" lon="-5.868401">
        <ele>209.0</ele>
        <time>2012-05-29T07:23:33Z</time>
      </trkpt>
      <trkpt lat="43.284032" lon="-5.868093">
        <ele>209.0</ele>
        <time>2012-05-29T07:23:37Z</time>
      </trkpt>
      <trkpt lat="43.284127" lon="-5.867862">
        <ele>209.0</ele>
        <time>2012-05-29T07:23:40Z</time>
      </trkpt>
      <trkpt lat="43.28428" lon="-5.86748">
        <ele>209.0</ele>
        <time>2012-05-29T07:23:45Z</time>
      </trkpt>
      <trkpt lat="43.284121" lon="-5.867027">
        <ele>203.0</ele>
        <time>2012-05-29T07:23:49Z</time>
      </trkpt>
      <trkpt lat="43.284022" lon="-5.86669">
        <ele>202.0</ele>
        <time>2012-05-29T07:23:52Z</time>
      </trkpt>
      <trkpt lat="43.283896" lon="-5.8662">
        <ele>202.0</ele>
        <time>2012-05-29T07:23:57Z</time>
      </trkpt>
      <trkpt lat="43.283819" lon="-5.865833">
        <ele>203.0</ele>
        <time>2012-05-29T07:24:01Z</time>
      </trkpt>
      <trkpt lat="43.283753" lon="-5.865469">
        <ele>204.0</ele>
        <time>2012-05-29T07:24:05Z</time>
      </trkpt>
      <trkpt lat="43.283707" lon="-5.865207">
        <ele>204.0</ele>
        <time>2012-05-29T07:24:08Z</time>
      </trkpt>
      <trkpt lat="43.283653" lon="-5.864909">
        <ele>205.0</ele>
        <time>2012-05-29T07:24:12Z</time>
      </trkpt>
      <trkpt lat="43.283597" lon="-5.864674">
        <ele>205.0</ele>
        <time>2012-05-29T07:24:16Z</time>
      </trkpt>
      <trkpt lat="43.28352" lon="-5.864478">
        <ele>206.0</ele>
        <time>2012-05-29T07:24:20Z</time>
      </trkpt>
      <trkpt lat="43.283422" lon="-5.864263">
        <ele>205.0</ele>
        <time>2012-05-29T07:24:24Z</time>
      </trkpt>
      <trkpt lat="43.283192" lon="-5.863931">
        <ele>205.0</ele>
        <time>2012-05-29T07:24:29Z</time>
      </trkpt>
      <trkpt lat="43.282951" lon="-5.863697">
        <ele>204.0</ele>
        <time>2012-05-29T07:24:33Z</time>
      </trkpt>
      <trkpt lat="43.282691" lon="-5.86349">
        <ele>205.0</ele>
        <time>2012-05-29T07:24:37Z</time>
      </trkpt>
      <trkpt lat="43.282466" lon="-5.863294">
        <ele>205.0</ele>
        <time>2012-05-29T07:24:41Z</time>
      </trkpt>
      <trkpt lat="43.28227" lon="-5.863076">
        <ele>207.0</ele>
        <time>2012-05-29T07:24:45Z</time>
      </trkpt>
      <trkpt lat="43.282079" lon="-5.862842">
        <ele>207.0</ele>
        <time>2012-05-29T07:24:49Z</time>
      </trkpt>
      <trkpt lat="43.281933" lon="-5.862668">
        <ele>207.0</ele>
        <time>2012-05-29T07:24:52Z</time>
      </trkpt>
      <trkpt lat="43.281836" lon="-5.862552">
        <ele>207.0</ele>
        <time>2012-05-29T07:24:54Z</time>
      </trkpt>
      <trkpt lat="43.281627" lon="-5.861886">
        <ele>207.0</ele>
        <time>2012-05-29T07:25:01Z</time>
      </trkpt>
      <trkpt lat="43.281578" lon="-5.861367">
        <ele>208.0</ele>
        <time>2012-05-29T07:25:05Z</time>
      </trkpt>
      <trkpt lat="43.281569" lon="-5.860923">
        <ele>211.0</ele>
        <time>2012-05-29T07:25:09Z</time>
      </trkpt>
      <trkpt lat="43.281556" lon="-5.860537">
        <ele>212.0</ele>
        <time>2012-05-29T07:25:13Z</time>
      </trkpt>
      <trkpt lat="43.281531" lon="-5.860162">
        <ele>212.0</ele>
        <time>2012-05-29T07:25:17Z</time>
      </trkpt>
      <trkpt lat="43.281416" lon="-5.859828">
        <ele>212.0</ele>
        <time>2012-05-29T07:25:21Z</time>
      </trkpt>
      <trkpt lat="43.28123" lon="-5.859558">
        <ele>213.0</ele>
        <time>2012-05-29T07:25:25Z</time>
      </trkpt>
      <trkpt lat="43.280984" lon="-5.859358">
        <ele>214.0</ele>
        <time>2012-05-29T07:25:29Z</time>
      </trkpt>
      <trkpt lat="43.280729" lon="-5.859187">
        <ele>214.0</ele>
        <time>2012-05-29T07:25:33Z</time>
      </trkpt>
      <trkpt lat="43.280462" lon="-5.85905">
        <ele>214.0</ele>
        <time>2012-05-29T07:25:37Z</time>
      </trkpt>
      <trkpt lat="43.280185" lon="-5.858932">
        <ele>214.0</ele>
        <time>2012-05-29T07:25:41Z</time>
      </trkpt>
      <trkpt lat="43.279901" lon="-5.858805">
        <ele>215.0</ele>
        <time>2012-05-29T07:25:45Z</time>
      </trkpt>
      <trkpt lat="43.279616" lon="-5.858674">
        <ele>215.0</ele>
        <time>2012-05-29T07:25:49Z</time>
      </trkpt>
      <trkpt lat="43.279404" lon="-5.858585">
        <ele>215.0</ele>
        <time>2012-05-29T07:25:52Z</time>
      </trkpt>
      <trkpt lat="43.279263" lon="-5.858526">
        <ele>215.0</ele>
        <time>2012-05-29T07:25:54Z</time>
      </trkpt>
      <trkpt lat="43.278808" lon="-5.85818">
        <ele>214.0</ele>
        <time>2012-05-29T07:26:01Z</time>
      </trkpt>
      <trkpt lat="43.278765" lon="-5.858099">
        <ele>214.0</ele>
        <time>2012-05-29T07:26:03Z</time>
      </trkpt>
      <trkpt lat="43.27872" lon="-5.857917">
        <ele>216.0</ele>
        <time>2012-05-29T07:26:08Z</time>
      </trkpt>
      <trkpt lat="43.278583" lon="-5.857533">
        <ele>216.0</ele>
        <time>2012-05-29T07:26:13Z</time>
      </trkpt>
      <trkpt lat="43.278341" lon="-5.857074">
        <ele>217.0</ele>
        <time>2012-05-29T07:26:17Z</time>
      </trkpt>
      <trkpt lat="43.278174" lon="-5.856697">
        <ele>218.0</ele>
        <time>2012-05-29T07:26:21Z</time>
      </trkpt>
      <trkpt lat="43.27802" lon="-5.856322">
        <ele>219.0</ele>
        <time>2012-05-29T07:26:25Z</time>
      </trkpt>
      <trkpt lat="43.277881" lon="-5.855942">
        <ele>220.0</ele>
        <time>2012-05-29T07:26:29Z</time>
      </trkpt>
      <trkpt lat="43.277729" lon="-5.855575">
        <ele>220.0</ele>
        <time>2012-05-29T07:26:33Z</time>
      </trkpt>
      <trkpt lat="43.277557" lon="-5.855246">
        <ele>221.0</ele>
        <time>2012-05-29T07:26:37Z</time>
      </trkpt>
      <trkpt lat="43.27741" lon="-5.854916">
        <ele>221.0</ele>
        <time>2012-05-29T07:26:41Z</time>
      </trkpt>
      <trkpt lat="43.277336" lon="-5.854751">
        <ele>221.0</ele>
        <time>2012-05-29T07:26:43Z</time>
      </trkpt>
      <trkpt lat="43.277336" lon="-5.854751">
        <time>2012-05-29T07:26:54Z</time>
      </trkpt>
    </trkseg>
    <trkseg>
      <trkpt lat="43.277336" lon="-5.854751">
        <time>2012-05-29T07:27:00Z</time>
      </trkpt>
      <trkpt lat="43.276436" lon="-5.853397">
        <ele>221.0</ele>
        <time>2012-05-29T07:27:03Z</time>
      </trkpt>
      <trkpt lat="43.276135" lon="-5.852826">
        <ele>222.0</ele>
        <time>2012-05-29T07:27:07Z</time>
      </trkpt>
      <trkpt lat="43.276012" lon="-5.852415">
        <ele>222.0</ele>
        <time>2012-05-29T07:27:11Z</time>
      </trkpt>
      <trkpt lat="43.275915" lon="-5.852035">
        <ele>222.0</ele>
        <time>2012-05-29T07:27:15Z</time>
      </trkpt>
      <trkpt lat="43.275847" lon="-5.851749">
        <ele>222.0</ele>
        <time>2012-05-29T07:27:18Z</time>
      </trkpt>
      <trkpt lat="43.275801" lon="-5.851559">
        <ele>222.0</ele>
        <time>2012-05-29T07:27:20Z</time>
      </trkpt>
      <trkpt lat="43.275584" lon="-5.850917">
        <ele>221.0</ele>
        <time>2012-05-29T07:27:27Z</time>
      </trkpt>
      <trkpt lat="43.275409" lon="-5.850582">
        <ele>222.0</ele>
        <time>2012-05-29T07:27:31Z</time>
      </trkpt>
      <trkpt lat="43.275289" lon="-5.850221">
        <ele>225.0</ele>
        <time>2012-05-29T07:27:35Z</time>
      </trkpt>
      <trkpt lat="43.275152" lon="-5.849808">
        <ele>226.0</ele>
        <time>2012-05-29T07:27:39Z</time>
      </trkpt>
      <trkpt lat="43.275116" lon="-5.849388">
        <ele>227.0</ele>
        <time>2012-05-29T07:27:43Z</time>
      </trkpt>
      <trkpt lat="43.275145" lon="-5.849078">
        <ele>227.0</ele>
        <time>2012-05-29T07:27:46Z</time>
      </trkpt>
      <trkpt lat="43.275177" lon="-5.848612">
        <ele>228.0</ele>
        <time>2012-05-29T07:27:51Z</time>
      </trkpt>
      <trkpt lat="43.275206" lon="-5.848241">
        <ele>228.0</ele>
        <time>2012-05-29T07:27:55Z</time>
      </trkpt>
      <trkpt lat="43.275221" lon="-5.848056">
        <ele>228.0</ele>
        <time>2012-05-29T07:27:57Z</time>
      </trkpt>
      <trkpt lat="43.275198" lon="-5.847369">
        <ele>228.0</ele>
        <time>2012-05-29T07:28:03Z</time>
      </trkpt>
      <trkpt lat="43.27497" lon="-5.846899">
        <ele>233.0</ele>
        <time>2012-05-29T07:28:07Z</time>
      </trkpt>
      <trkpt lat="43.2748" lon="-5.846434">
        <ele>234.0</ele>
        <time>2012-05-29T07:28:11Z</time>
      </trkpt>
      <trkpt lat="43.274649" lon="-5.846012">
        <ele>233.0</ele>
        <time>2012-05-29T07:28:15Z</time>
      </trkpt>
      <trkpt lat="43.274482" lon="-5.845626">
        <ele>232.0</ele>
        <time>2012-05-29T07:28:19Z</time>
      </trkpt>
      <trkpt lat="43.27432" lon="-5.845263">
        <ele>232.0</ele>
        <time>2012-05-29T07:28:23Z</time>
      </trkpt>
      <trkpt lat="43.274185" lon="-5.844902">
        <ele>232.0</ele>
        <time>2012-05-29T07:28:27Z</time>
      </trkpt>
      <trkpt lat="43.274065" lon="-5.844539">
        <ele>232.0</ele>
        <time>2012-05-29T07:28:31Z</time>
      </trkpt>
      <trkpt lat="43.274015" lon="-5.844352">
        <ele>231.0</ele>
        <time>2012-05-29T07:28:33Z</time>
      </trkpt>
      <trkpt lat="43.273858" lon="-5.84377">
        <ele>231.0</ele>
        <time>2012-05-29T07:28:39Z</time>
      </trkpt>
      <trkpt lat="43.273745" lon="-5.843365">
        <ele>231.0</ele>
        <time>2012-05-29T07:28:43Z</time>
      </trkpt>
      <trkpt lat="43.273579" lon="-5.842985">
        <ele>232.0</ele>
        <time>2012-05-29T07:28:47Z</time>
      </trkpt>
      <trkpt lat="43.273399" lon="-5.842622">
        <ele>233.0</ele>
        <time>2012-05-29T07:28:51Z</time>
      </trkpt>
      <trkpt lat="43.27323" lon="-5.842269">
        <ele>233.0</ele>
        <time>2012-05-29T07:28:55Z</time>
      </trkpt>
      <trkpt lat="43.273037" lon="-5.842009">
        <ele>233.0</ele>
        <time>2012-05-29T07:28:59Z</time>
      </trkpt>
      <trkpt lat="43.272873" lon="-5.841734">
        <ele>234.0</ele>
        <time>2012-05-29T07:29:03Z</time>
      </trkpt>
      <trkpt lat="43.272728" lon="-5.841434">
        <ele>235.0</ele>
        <time>2012-05-29T07:29:07Z</time>
      </trkpt>
      <trkpt lat="43.272551" lon="-5.841106">
        <ele>236.0</ele>
        <time>2012-05-29T07:29:11Z</time>
      </trkpt>
      <trkpt lat="43.272393" lon="-5.840852">
        <ele>237.0</ele>
        <time>2012-05-29T07:29:14Z</time>
      </trkpt>
      <trkpt lat="43.272137" lon="-5.840397">
        <ele>238.0</ele>
        <time>2012-05-29T07:29:19Z</time>
      </trkpt>
      <trkpt lat="43.271929" lon="-5.840022">
        <ele>239.0</ele>
        <time>2012-05-29T07:29:23Z</time>
      </trkpt>
      <trkpt lat="43.27167" lon="-5.839626">
        <ele>238.0</ele>
        <time>2012-05-29T07:29:27Z</time>
      </trkpt>
      <trkpt lat="43.271352" lon="-5.839194">
        <ele>234.0</ele>
        <time>2012-05-29T07:29:31Z</time>
      </trkpt>
      <trkpt lat="43.271132" lon="-5.838777">
        <ele>232.0</ele>
        <time>2012-05-29T07:29:35Z</time>
      </trkpt>
      <trkpt lat="43.271013" lon="-5.838346">
        <ele>231.0</ele>
        <time>2012-05-29T07:29:39Z</time>
      </trkpt>
      <trkpt lat="43.270978" lon="-5.838019">
        <ele>230.0</ele>
        <time>2012-05-29T07:29:42Z</time>
      </trkpt>
      <trkpt lat="43.270974" lon="-5.837476">
        <ele>228.0</ele>
        <time>2012-05-29T07:29:47Z</time>
      </trkpt>
      <trkpt lat="43.271005" lon="-5.837064">
        <ele>226.0</ele>
        <time>2012-05-29T07:29:51Z</time>
      </trkpt>
      <trkpt lat="43.271061" lon="-5.836666">
        <ele>225.0</ele>
        <time>2012-05-29T07:29:55Z</time>
      </trkpt>
      <trkpt lat="43.271118" lon="-5.836265">
        <ele>223.0</ele>
        <time>2012-05-29T07:29:59Z</time>
      </trkpt>
      <trkpt lat="43.271158" lon="-5.835964">
        <ele>223.0</ele>
        <time>2012-05-29T07:30:02Z</time>
      </trkpt>
      <trkpt lat="43.271206" lon="-5.835468">
        <ele>224.0</ele>
        <time>2012-05-29T07:30:07Z</time>
      </trkpt>
      <trkpt lat="43.271137" lon="-5.835106">
        <ele>226.0</ele>
        <time>2012-05-29T07:30:11Z</time>
      </trkpt>
      <trkpt lat="43.270972" lon="-5.834736">
        <ele>227.0</ele>
        <time>2012-05-29T07:30:15Z</time>
      </trkpt>
      <trkpt lat="43.270816" lon="-5.834332">
        <ele>225.0</ele>
        <time>2012-05-29T07:30:19Z</time>
      </trkpt>
      <trkpt lat="43.270675" lon="-5.833928">
        <ele>224.0</ele>
        <time>2012-05-29T07:30:23Z</time>
      </trkpt>
      <trkpt lat="43.270567" lon="-5.83351">
        <ele>224.0</ele>
        <time>2012-05-29T07:30:27Z</time>
      </trkpt>
      <trkpt lat="43.270464" lon="-5.833097">
        <ele>223.0</ele>
        <time>2012-05-29T07:30:31Z</time>
      </trkpt>
      <trkpt lat="43.270389" lon="-5.832787">
        <ele>223.0</ele>
        <time>2012-05-29T07:30:34Z</time>
      </trkpt>
      <trkpt lat="43.270276" lon="-5.832267">
        <ele>224.0</ele>
        <time>2012-05-29T07:30:39Z</time>
      </trkpt>
      <trkpt lat="43.270225" lon="-5.831864">
        <ele>225.0</ele>
        <time>2012-05-29T07:30:43Z</time>
      </trkpt>
      <trkpt lat="43.270201" lon="-5.831494">
        <ele>225.0</ele>
        <time>2012-05-29T07:30:47Z</time>
      </trkpt>
      <trkpt lat="43.270177" lon="-5.831113">
        <ele>225.0</ele>
        <time>2012-05-29T07:30:51Z</time>
      </trkpt>
      <trkpt lat="43.270153" lon="-5.830728">
        <ele>225.0</ele>
        <time>2012-05-29T07:30:55Z</time>
      </trkpt>
      <trkpt lat="43.270134" lon="-5.830349">
        <ele>225.0</ele>
        <time>2012-05-29T07:30:59Z</time>
      </trkpt>
      <trkpt lat="43.270146" lon="-5.829971">
        <ele>224.0</ele>
        <time>2012-05-29T07:31:03Z</time>
      </trkpt>
      <trkpt lat="43.270189" lon="-5.829595">
        <ele>224.0</ele>
        <time>2012-05-29T07:31:07Z</time>
      </trkpt>
      <trkpt lat="43.270246" lon="-5.82922">
        <ele>224.0</ele>
        <time>2012-05-29T07:31:11Z</time>
      </trkpt>
      <trkpt lat="43.270311" lon="-5.828938">
        <ele>224.0</ele>
        <time>2012-05-29T07:31:14Z</time>
      </trkpt>
      <trkpt lat="43.270379" lon="-5.82866">
        <ele>223.0</ele>
        <time>2012-05-29T07:31:17Z</time>
      </trkpt>
      <trkpt lat="43.270507" lon="-5.828103">
        <ele>223.0</ele>
        <time>2012-05-29T07:31:23Z</time>
      </trkpt>
      <trkpt lat="43.270594" lon="-5.82773">
        <ele>223.0</ele>
        <time>2012-05-29T07:31:27Z</time>
      </trkpt>
      <trkpt lat="43.270681" lon="-5.827355">
        <ele>223.0</ele>
        <time>2012-05-29T07:31:31Z</time>
      </trkpt>
      <trkpt lat="43.270767" lon="-5.826992">
        <ele>223.0</ele>
        <time>2012-05-29T07:31:35Z</time>
      </trkpt>
      <trkpt lat="43.270853" lon="-5.826622">
        <ele>223.0</ele>
        <time>2012-05-29T07:31:39Z</time>
      </trkpt>
      <trkpt lat="43.270919" lon="-5.826345">
        <ele>224.0</ele>
        <time>2012-05-29T07:31:42Z</time>
      </trkpt>
      <trkpt lat="43.271018" lon="-5.825877">
        <ele>225.0</ele>
        <time>2012-05-29T07:31:47Z</time>
      </trkpt>
      <trkpt lat="43.271087" lon="-5.825497">
        <ele>224.0</ele>
        <time>2012-05-29T07:31:51Z</time>
      </trkpt>
      <trkpt lat="43.271149" lon="-5.825206">
        <ele>224.0</ele>
        <time>2012-05-29T07:31:54Z</time>
      </trkpt>
      <trkpt lat="43.271227" lon="-5.824817">
        <ele>224.0</ele>
        <time>2012-05-29T07:31:58Z</time>
      </trkpt>
      <trkpt lat="43.271316" lon="-5.82433">
        <ele>224.0</ele>
        <time>2012-05-29T07:32:03Z</time>
      </trkpt>
      <trkpt lat="43.271378" lon="-5.823953">
        <ele>225.0</ele>
        <time>2012-05-29T07:32:07Z</time>
      </trkpt>
      <trkpt lat="43.271474" lon="-5.823591">
        <ele>225.0</ele>
        <time>2012-05-29T07:32:11Z</time>
      </trkpt>
      <trkpt lat="43.271543" lon="-5.823213">
        <ele>226.0</ele>
        <time>2012-05-29T07:32:15Z</time>
      </trkpt>
      <trkpt lat="43.271609" lon="-5.82284">
        <ele>226.0</ele>
        <time>2012-05-29T07:32:19Z</time>
      </trkpt>
      <trkpt lat="43.271662" lon="-5.82247">
        <ele>226.0</ele>
        <time>2012-05-29T07:32:23Z</time>
      </trkpt>
      <trkpt lat="43.271719" lon="-5.822095">
        <ele>226.0</ele>
        <time>2012-05-29T07:32:27Z</time>
      </trkpt>
      <trkpt lat="43.271775" lon="-5.821709">
        <ele>226.0</ele>
        <time>2012-05-29T07:32:31Z</time>
      </trkpt>
      <trkpt lat="43.271837" lon="-5.821333">
        <ele>226.0</ele>
        <time>2012-05-29T07:32:35Z</time>
      </trkpt>
      <trkpt lat="43.271932" lon="-5.820971">
        <ele>227.0</ele>
        <time>2012-05-29T07:32:39Z</time>
      </trkpt>
      <trkpt lat="43.272047" lon="-5.820633">
        <ele>228.0</ele>
        <time>2012-05-29T07:32:43Z</time>
      </trkpt>
      <trkpt lat="43.27215" lon="-5.820392">
        <ele>228.0</ele>
        <time>2012-05-29T07:32:46Z</time>
      </trkpt>
      <trkpt lat="43.272358" lon="-5.819998">
        <ele>228.0</ele>
        <time>2012-05-29T07:32:51Z</time>
      </trkpt>
      <trkpt lat="43.272548" lon="-5.819701">
        <ele>228.0</ele>
        <time>2012-05-29T07:32:55Z</time>
      </trkpt>
      <trkpt lat="43.272704" lon="-5.819491">
        <ele>228.0</ele>
        <time>2012-05-29T07:32:58Z</time>
      </trkpt>
      <trkpt lat="43.272972" lon="-5.819161">
        <ele>229.0</ele>
        <time>2012-05-29T07:33:03Z</time>
      </trkpt>
      <trkpt lat="43.273191" lon="-5.818902">
        <ele>229.0</ele>
        <time>2012-05-29T07:33:07Z</time>
      </trkpt>
      <trkpt lat="43.273414" lon="-5.818636">
        <ele>229.0</ele>
        <time>2012-05-29T07:33:11Z</time>
      </trkpt>
      <trkpt lat="43.273637" lon="-5.818362">
        <ele>229.0</ele>
        <time>2012-05-29T07:33:15Z</time>
      </trkpt>
      <trkpt lat="43.27386" lon="-5.818097">
        <ele>229.0</ele>
        <time>2012-05-29T07:33:19Z</time>
      </trkpt>
      <trkpt lat="43.274072" lon="-5.817845">
        <ele>230.0</ele>
        <time>2012-05-29T07:33:23Z</time>
      </trkpt>
      <trkpt lat="43.274284" lon="-5.817603">
        <ele>231.0</ele>
        <time>2012-05-29T07:33:27Z</time>
      </trkpt>
      <trkpt lat="43.274498" lon="-5.817354">
        <ele>231.0</ele>
        <time>2012-05-29T07:33:31Z</time>
      </trkpt>
      <trkpt lat="43.274715" lon="-5.817095">
        <ele>232.0</ele>
        <time>2012-05-29T07:33:35Z</time>
      </trkpt>
      <trkpt lat="43.274936" lon="-5.816844">
        <ele>232.0</ele>
        <time>2012-05-29T07:33:39Z</time>
      </trkpt>
      <trkpt lat="43.275151" lon="-5.816585">
        <ele>232.0</ele>
        <time>2012-05-29T07:33:43Z</time>
      </trkpt>
      <trkpt lat="43.275366" lon="-5.816325">
        <ele>232.0</ele>
        <time>2012-05-29T07:33:47Z</time>
      </trkpt>
      <trkpt lat="43.275576" lon="-5.816075">
        <ele>232.0</ele>
        <time>2012-05-29T07:33:51Z</time>
      </trkpt>
      <trkpt lat="43.275772" lon="-5.815825">
        <ele>232.0</ele>
        <time>2012-05-29T07:33:55Z</time>
      </trkpt>
      <trkpt lat="43.275946" lon="-5.815547">
        <ele>232.0</ele>
        <time>2012-05-29T07:33:59Z</time>
      </trkpt>
      <trkpt lat="43.276095" lon="-5.815243">
        <ele>232.0</ele>
        <time>2012-05-29T07:34:03Z</time>
      </trkpt>
      <trkpt lat="43.276224" lon="-5.814918">
        <ele>232.0</ele>
        <time>2012-05-29T07:34:07Z</time>
      </trkpt>
      <trkpt lat="43.276318" lon="-5.814577">
        <ele>233.0</ele>
        <time>2012-05-29T07:34:11Z</time>
      </trkpt>
      <trkpt lat="43.276376" lon="-5.814326">
        <ele>233.0</ele>
        <time>2012-05-29T07:34:14Z</time>
      </trkpt>
      <trkpt lat="43.276424" lon="-5.813999">
        <ele>233.0</ele>
        <time>2012-05-29T07:34:18Z</time>
      </trkpt>
      <trkpt lat="43.276448" lon="-5.813662">
        <ele>233.0</ele>
        <time>2012-05-29T07:34:22Z</time>
      </trkpt>
      <trkpt lat="43.276465" lon="-5.813232">
        <ele>234.0</ele>
        <time>2012-05-29T07:34:27Z</time>
      </trkpt>
      <trkpt lat="43.276482" lon="-5.812873">
        <ele>235.0</ele>
        <time>2012-05-29T07:34:31Z</time>
      </trkpt>
      <trkpt lat="43.276502" lon="-5.812508">
        <ele>235.0</ele>
        <time>2012-05-29T07:34:35Z</time>
      </trkpt>
      <trkpt lat="43.276524" lon="-5.812146">
        <ele>235.0</ele>
        <time>2012-05-29T07:34:39Z</time>
      </trkpt>
      <trkpt lat="43.276542" lon="-5.811883">
        <ele>235.0</ele>
        <time>2012-05-29T07:34:42Z</time>
      </trkpt>
      <trkpt lat="43.276541" lon="-5.811441">
        <ele>235.0</ele>
        <time>2012-05-29T07:34:47Z</time>
      </trkpt>
      <trkpt lat="43.276493" lon="-5.811079">
        <ele>236.0</ele>
        <time>2012-05-29T07:34:51Z</time>
      </trkpt>
      <trkpt lat="43.27642" lon="-5.810741">
        <ele>237.0</ele>
        <time>2012-05-29T07:34:55Z</time>
      </trkpt>
      <trkpt lat="43.276337" lon="-5.810411">
        <ele>238.0</ele>
        <time>2012-05-29T07:34:59Z</time>
      </trkpt>
      <trkpt lat="43.27624" lon="-5.81007">
        <ele>238.0</ele>
        <time>2012-05-29T07:35:03Z</time>
      </trkpt>
      <trkpt lat="43.276138" lon="-5.809691">
        <ele>238.0</ele>
        <time>2012-05-29T07:35:07Z</time>
      </trkpt>
      <trkpt lat="43.276019" lon="-5.80929">
        <ele>238.0</ele>
        <time>2012-05-29T07:35:11Z</time>
      </trkpt>
      <trkpt lat="43.275848" lon="-5.808899">
        <ele>238.0</ele>
        <time>2012-05-29T07:35:15Z</time>
      </trkpt>
      <trkpt lat="43.275639" lon="-5.808554">
        <ele>238.0</ele>
        <time>2012-05-29T07:35:19Z</time>
      </trkpt>
      <trkpt lat="43.275397" lon="-5.808272">
        <ele>238.0</ele>
        <time>2012-05-29T07:35:23Z</time>
      </trkpt>
      <trkpt lat="43.275141" lon="-5.808041">
        <ele>238.0</ele>
        <time>2012-05-29T07:35:27Z</time>
      </trkpt>
      <trkpt lat="43.274869" lon="-5.807826">
        <ele>238.0</ele>
        <time>2012-05-29T07:35:31Z</time>
      </trkpt>
      <trkpt lat="43.274668" lon="-5.807671">
        <ele>238.0</ele>
        <time>2012-05-29T07:35:34Z</time>
      </trkpt>
      <trkpt lat="43.274347" lon="-5.807426">
        <ele>238.0</ele>
        <time>2012-05-29T07:35:39Z</time>
      </trkpt>
      <trkpt lat="43.27422" lon="-5.807326">
        <ele>238.0</ele>
        <time>2012-05-29T07:35:41Z</time>
      </trkpt>
      <trkpt lat="43.27389" lon="-5.807032">
        <ele>239.0</ele>
        <time>2012-05-29T07:35:47Z</time>
      </trkpt>
      <trkpt lat="43.273689" lon="-5.806842">
        <ele>239.0</ele>
        <time>2012-05-29T07:35:51Z</time>
      </trkpt>
      <trkpt lat="43.273503" lon="-5.806671">
        <ele>240.0</ele>
        <time>2012-05-29T07:35:55Z</time>
      </trkpt>
      <trkpt lat="43.273315" lon="-5.806509">
        <ele>241.0</ele>
        <time>2012-05-29T07:35:59Z</time>
      </trkpt>
      <trkpt lat="43.273122" lon="-5.806352">
        <ele>242.0</ele>
        <time>2012-05-29T07:36:03Z</time>
      </trkpt>
      <trkpt lat="43.272926" lon="-5.806185">
        <ele>242.0</ele>
        <time>2012-05-29T07:36:07Z</time>
      </trkpt>
      <trkpt lat="43.272726" lon="-5.806008">
        <ele>242.0</ele>
        <time>2012-05-29T07:36:11Z</time>
      </trkpt>
      <trkpt lat="43.272515" lon="-5.805838">
        <ele>242.0</ele>
        <time>2012-05-29T07:36:15Z</time>
      </trkpt>
      <trkpt lat="43.272313" lon="-5.805666">
        <ele>243.0</ele>
        <time>2012-05-29T07:36:19Z</time>
      </trkpt>
      <trkpt lat="43.272108" lon="-5.805492">
        <ele>244.0</ele>
        <time>2012-05-29T07:36:23Z</time>
      </trkpt>
      <trkpt lat="43.27189" lon="-5.805294">
        <ele>244.0</ele>
        <time>2012-05-29T07:36:27Z</time>
      </trkpt>
      <trkpt lat="43.271662" lon="-5.805109">
        <ele>245.0</ele>
        <time>2012-05-29T07:36:31Z</time>
      </trkpt>
      <trkpt lat="43.27144" lon="-5.804916">
        <ele>246.0</ele>
        <time>2012-05-29T07:36:35Z</time>
      </trkpt>
      <trkpt lat="43.271216" lon="-5.804725">
        <ele>246.0</ele>
        <time>2012-05-29T07:36:39Z</time>
      </trkpt>
      <trkpt lat="43.271048" lon="-5.804582">
        <ele>246.0</ele>
        <time>2012-05-29T07:36:42Z</time>
      </trkpt>
      <trkpt lat="43.270726" lon="-5.804352">
        <ele>243.0</ele>
        <time>2012-05-29T07:36:47Z</time>
      </trkpt>
      <trkpt lat="43.270496" lon="-5.804117">
        <ele>244.0</ele>
        <time>2012-05-29T07:36:51Z</time>
      </trkpt>
      <trkpt lat="43.270279" lon="-5.803835">
        <ele>245.0</ele>
        <time>2012-05-29T07:36:55Z</time>
      </trkpt>
      <trkpt lat="43.270071" lon="-5.803483">
        <ele>245.0</ele>
        <time>2012-05-29T07:36:59Z</time>
      </trkpt>
      <trkpt lat="43.269895" lon="-5.803054">
        <ele>246.0</ele>
        <time>2012-05-29T07:37:03Z</time>
      </trkpt>
      <trkpt lat="43.26978" lon="-5.802561">
        <ele>246.0</ele>
        <time>2012-05-29T07:37:07Z</time>
      </trkpt>
      <trkpt lat="43.269745" lon="-5.802048">
        <ele>246.0</ele>
        <time>2012-05-29T07:37:11Z</time>
      </trkpt>
      <trkpt lat="43.269785" lon="-5.801531">
        <ele>246.0</ele>
        <time>2012-05-29T07:37:15Z</time>
      </trkpt>
      <trkpt lat="43.269851" lon="-5.801039">
        <ele>246.0</ele>
        <time>2012-05-29T07:37:19Z</time>
      </trkpt>
      <trkpt lat="43.269912" lon="-5.800562">
        <ele>246.0</ele>
        <time>2012-05-29T07:37:23Z</time>
      </trkpt>
      <trkpt lat="43.269971" lon="-5.8001">
        <ele>246.0</ele>
        <time>2012-05-29T07:37:27Z</time>
      </trkpt>
      <trkpt lat="43.270024" lon="-5.799654">
        <ele>245.0</ele>
        <time>2012-05-29T07:37:31Z</time>
      </trkpt>
      <trkpt lat="43.270048" lon="-5.799318">
        <ele>245.0</ele>
        <time>2012-05-29T07:37:34Z</time>
      </trkpt>
      <trkpt lat="43.269975" lon="-5.798785">
        <ele>245.0</ele>
        <time>2012-05-29T07:37:39Z</time>
      </trkpt>
      <trkpt lat="43.269868" lon="-5.798392">
        <ele>245.0</ele>
        <time>2012-05-29T07:37:43Z</time>
      </trkpt>
      <trkpt lat="43.26972" lon="-5.798027">
        <ele>245.0</ele>
        <time>2012-05-29T07:37:47Z</time>
      </trkpt>
      <trkpt lat="43.269525" lon="-5.797711">
        <ele>244.0</ele>
        <time>2012-05-29T07:37:51Z</time>
      </trkpt>
      <trkpt lat="43.269324" lon="-5.797426">
        <ele>243.0</ele>
        <time>2012-05-29T07:37:55Z</time>
      </trkpt>
      <trkpt lat="43.269114" lon="-5.797141">
        <ele>243.0</ele>
        <time>2012-05-29T07:37:59Z</time>
      </trkpt>
      <trkpt lat="43.268906" lon="-5.796846">
        <ele>243.0</ele>
        <time>2012-05-29T07:38:03Z</time>
      </trkpt>
      <trkpt lat="43.268699" lon="-5.796548">
        <ele>243.0</ele>
        <time>2012-05-29T07:38:07Z</time>
      </trkpt>
      <trkpt lat="43.268502" lon="-5.796262">
        <ele>242.0</ele>
        <time>2012-05-29T07:38:11Z</time>
      </trkpt>
      <trkpt lat="43.268316" lon="-5.795976">
        <ele>242.0</ele>
        <time>2012-05-29T07:38:15Z</time>
      </trkpt>
      <trkpt lat="43.26814" lon="-5.795703">
        <ele>242.0</ele>
        <time>2012-05-29T07:38:19Z</time>
      </trkpt>
      <trkpt lat="43.267964" lon="-5.795431">
        <ele>242.0</ele>
        <time>2012-05-29T07:38:23Z</time>
      </trkpt>
      <trkpt lat="43.267794" lon="-5.795157">
        <ele>242.0</ele>
        <time>2012-05-29T07:38:27Z</time>
      </trkpt>
      <trkpt lat="43.267624" lon="-5.794885">
        <ele>243.0</ele>
        <time>2012-05-29T07:38:31Z</time>
      </trkpt>
      <trkpt lat="43.267452" lon="-5.794602">
        <ele>243.0</ele>
        <time>2012-05-29T07:38:35Z</time>
      </trkpt>
      <trkpt lat="43.267277" lon="-5.794306">
        <ele>243.0</ele>
        <time>2012-05-29T07:38:39Z</time>
      </trkpt>
      <trkpt lat="43.267096" lon="-5.794008">
        <ele>243.0</ele>
        <time>2012-05-29T07:38:43Z</time>
      </trkpt>
      <trkpt lat="43.266913" lon="-5.79369">
        <ele>243.0</ele>
        <time>2012-05-29T07:38:47Z</time>
      </trkpt>
      <trkpt lat="43.266711" lon="-5.793348">
        <ele>243.0</ele>
        <time>2012-05-29T07:38:51Z</time>
      </trkpt>
      <trkpt lat="43.266485" lon="-5.792984">
        <ele>243.0</ele>
        <time>2012-05-29T07:38:55Z</time>
      </trkpt>
      <trkpt lat="43.266244" lon="-5.792621">
        <ele>243.0</ele>
        <time>2012-05-29T07:38:59Z</time>
      </trkpt>
      <trkpt lat="43.265995" lon="-5.792229">
        <ele>243.0</ele>
        <time>2012-05-29T07:39:03Z</time>
      </trkpt>
      <trkpt lat="43.265694" lon="-5.792024">
        <ele>243.0</ele>
        <time>2012-05-29T07:39:07Z</time>
      </trkpt>
      <trkpt lat="43.265371" lon="-5.792186">
        <ele>243.0</ele>
        <time>2012-05-29T07:39:11Z</time>
      </trkpt>
      <trkpt lat="43.265103" lon="-5.792363">
        <ele>243.0</ele>
        <time>2012-05-29T07:39:15Z</time>
      </trkpt>
      <trkpt lat="43.264962" lon="-5.792485">
        <ele>242.0</ele>
        <time>2012-05-29T07:39:18Z</time>
      </trkpt>
      <trkpt lat="43.264647" lon="-5.792756">
        <ele>242.0</ele>
        <time>2012-05-29T07:39:26Z</time>
      </trkpt>
      <trkpt lat="43.264361" lon="-5.792696">
        <ele>243.0</ele>
        <time>2012-05-29T07:39:31Z</time>
      </trkpt>
      <trkpt lat="43.264082" lon="-5.792615">
        <ele>244.0</ele>
        <time>2012-05-29T07:39:35Z</time>
      </trkpt>
      <trkpt lat="43.263825" lon="-5.792676">
        <ele>244.0</ele>
        <time>2012-05-29T07:39:39Z</time>
      </trkpt>
      <trkpt lat="43.263683" lon="-5.792724">
        <ele>244.0</ele>
        <time>2012-05-29T07:39:41Z</time>
      </trkpt>
      <trkpt lat="43.263335" lon="-5.79266">
        <ele>244.0</ele>
        <time>2012-05-29T07:39:47Z</time>
      </trkpt>
      <trkpt lat="43.263189" lon="-5.792341">
        <ele>243.0</ele>
        <time>2012-05-29T07:39:51Z</time>
      </trkpt>
      <trkpt lat="43.263029" lon="-5.792043">
        <ele>243.0</ele>
        <time>2012-05-29T07:39:55Z</time>
      </trkpt>
      <trkpt lat="43.262876" lon="-5.791748">
        <ele>244.0</ele>
        <time>2012-05-29T07:39:59Z</time>
      </trkpt>
      <trkpt lat="43.262726" lon="-5.791465">
        <ele>244.0</ele>
        <time>2012-05-29T07:40:03Z</time>
      </trkpt>
      <trkpt lat="43.26258" lon="-5.791211">
        <ele>245.0</ele>
        <time>2012-05-29T07:40:07Z</time>
      </trkpt>
      <trkpt lat="43.262447" lon="-5.790979">
        <ele>245.0</ele>
        <time>2012-05-29T07:40:11Z</time>
      </trkpt>
      <trkpt lat="43.26229" lon="-5.790796">
        <ele>245.0</ele>
        <time>2012-05-29T07:40:15Z</time>
      </trkpt>
      <trkpt lat="43.262107" lon="-5.790776">
        <ele>245.0</ele>
        <time>2012-05-29T07:40:19Z</time>
      </trkpt>
      <trkpt lat="43.261925" lon="-5.79086">
        <ele>245.0</ele>
        <time>2012-05-29T07:40:23Z</time>
      </trkpt>
      <trkpt lat="43.261768" lon="-5.790739">
        <ele>246.0</ele>
        <time>2012-05-29T07:40:27Z</time>
      </trkpt>
      <trkpt lat="43.261671" lon="-5.790416">
        <ele>246.0</ele>
        <time>2012-05-29T07:40:31Z</time>
      </trkpt>
      <trkpt lat="43.261555" lon="-5.790035">
        <ele>246.0</ele>
        <time>2012-05-29T07:40:35Z</time>
      </trkpt>
      <trkpt lat="43.261419" lon="-5.789754">
        <ele>246.0</ele>
        <time>2012-05-29T07:40:38Z</time>
      </trkpt>
      <trkpt lat="43.26113" lon="-5.789346">
        <ele>247.0</ele>
        <time>2012-05-29T07:40:43Z</time>
      </trkpt>
      <trkpt lat="43.26088" lon="-5.789064">
        <ele>247.0</ele>
        <time>2012-05-29T07:40:47Z</time>
      </trkpt>
      <trkpt lat="43.260625" lon="-5.788798">
        <ele>247.0</ele>
        <time>2012-05-29T07:40:51Z</time>
      </trkpt>
      <trkpt lat="43.260351" lon="-5.788565">
        <ele>247.0</ele>
        <time>2012-05-29T07:40:55Z</time>
      </trkpt>
      <trkpt lat="43.260063" lon="-5.788404">
        <ele>247.0</ele>
        <time>2012-05-29T07:40:59Z</time>
      </trkpt>
      <trkpt lat="43.259763" lon="-5.7883">
        <ele>247.0</ele>
        <time>2012-05-29T07:41:03Z</time>
      </trkpt>
      <trkpt lat="43.259464" lon="-5.788198">
        <ele>246.0</ele>
        <time>2012-05-29T07:41:07Z</time>
      </trkpt>
      <trkpt lat="43.259166" lon="-5.788096">
        <ele>246.0</ele>
        <time>2012-05-29T07:41:11Z</time>
      </trkpt>
      <trkpt lat="43.258877" lon="-5.787997">
        <ele>246.0</ele>
        <time>2012-05-29T07:41:15Z</time>
      </trkpt>
      <trkpt lat="43.258583" lon="-5.787903">
        <ele>247.0</ele>
        <time>2012-05-29T07:41:19Z</time>
      </trkpt>
      <trkpt lat="43.258289" lon="-5.787794">
        <ele>247.0</ele>
        <time>2012-05-29T07:41:23Z</time>
      </trkpt>
      <trkpt lat="43.258015" lon="-5.787639">
        <ele>247.0</ele>
        <time>2012-05-29T07:41:27Z</time>
      </trkpt>
      <trkpt lat="43.257756" lon="-5.787448">
        <ele>247.0</ele>
        <time>2012-05-29T07:41:31Z</time>
      </trkpt>
      <trkpt lat="43.257514" lon="-5.787216">
        <ele>247.0</ele>
        <time>2012-05-29T07:41:35Z</time>
      </trkpt>
      <trkpt lat="43.257299" lon="-5.786951">
        <ele>248.0</ele>
        <time>2012-05-29T07:41:39Z</time>
      </trkpt>
      <trkpt lat="43.257093" lon="-5.786678">
        <ele>249.0</ele>
        <time>2012-05-29T07:41:43Z</time>
      </trkpt>
      <trkpt lat="43.256891" lon="-5.786407">
        <ele>248.0</ele>
        <time>2012-05-29T07:41:47Z</time>
      </trkpt>
      <trkpt lat="43.256694" lon="-5.786144">
        <ele>248.0</ele>
        <time>2012-05-29T07:41:51Z</time>
      </trkpt>
      <trkpt lat="43.256491" lon="-5.78591">
        <ele>247.0</ele>
        <time>2012-05-29T07:41:55Z</time>
      </trkpt>
      <trkpt lat="43.256263" lon="-5.785728">
        <ele>247.0</ele>
        <time>2012-05-29T07:41:59Z</time>
      </trkpt>
      <trkpt lat="43.256087" lon="-5.785612">
        <ele>247.0</ele>
        <time>2012-05-29T07:42:02Z</time>
      </trkpt>
      <trkpt lat="43.255782" lon="-5.785413">
        <ele>247.0</ele>
        <time>2012-05-29T07:42:07Z</time>
      </trkpt>
      <trkpt lat="43.25553" lon="-5.785258">
        <ele>247.0</ele>
        <time>2012-05-29T07:42:11Z</time>
      </trkpt>
      <trkpt lat="43.255323" lon="-5.785165">
        <ele>247.0</ele>
        <time>2012-05-29T07:42:14Z</time>
      </trkpt>
      <trkpt lat="43.255034" lon="-5.785092">
        <ele>247.0</ele>
        <time>2012-05-29T07:42:18Z</time>
      </trkpt>
      <trkpt lat="43.254675" lon="-5.784915">
        <ele>247.0</ele>
        <time>2012-05-29T07:42:23Z</time>
      </trkpt>
      <trkpt lat="43.254407" lon="-5.784734">
        <ele>248.0</ele>
        <time>2012-05-29T07:42:27Z</time>
      </trkpt>
      <trkpt lat="43.254211" lon="-5.784447">
        <ele>249.0</ele>
        <time>2012-05-29T07:42:31Z</time>
      </trkpt>
      <trkpt lat="43.254025" lon="-5.784182">
        <ele>250.0</ele>
        <time>2012-05-29T07:42:35Z</time>
      </trkpt>
      <trkpt lat="43.253781" lon="-5.783979">
        <ele>251.0</ele>
        <time>2012-05-29T07:42:39Z</time>
      </trkpt>
      <trkpt lat="43.253539" lon="-5.7838">
        <ele>252.0</ele>
        <time>2012-05-29T07:42:43Z</time>
      </trkpt>
      <trkpt lat="43.253306" lon="-5.783623">
        <ele>252.0</ele>
        <time>2012-05-29T07:42:47Z</time>
      </trkpt>
      <trkpt lat="43.253056" lon="-5.783478">
        <ele>252.0</ele>
        <time>2012-05-29T07:42:51Z</time>
      </trkpt>
      <trkpt lat="43.252797" lon="-5.783376">
        <ele>251.0</ele>
        <time>2012-05-29T07:42:55Z</time>
      </trkpt>
      <trkpt lat="43.252542" lon="-5.783244">
        <ele>251.0</ele>
        <time>2012-05-29T07:42:59Z</time>
      </trkpt>
      <trkpt lat="43.252298" lon="-5.782977">
        <ele>250.0</ele>
        <time>2012-05-29T07:43:03Z</time>
      </trkpt>
      <trkpt lat="43.252034" lon="-5.782582">
        <ele>250.0</ele>
        <time>2012-05-29T07:43:07Z</time>
      </trkpt>
      <trkpt lat="43.251743" lon="-5.782307">
        <ele>249.0</ele>
        <time>2012-05-29T07:43:11Z</time>
      </trkpt>
      <trkpt lat="43.251541" lon="-5.782291">
        <ele>249.0</ele>
        <time>2012-05-29T07:43:14Z</time>
      </trkpt>
      <trkpt lat="43.251205" lon="-5.782274">
        <ele>249.0</ele>
        <time>2012-05-29T07:43:19Z</time>
      </trkpt>
      <trkpt lat="43.250964" lon="-5.782254">
        <ele>249.0</ele>
        <time>2012-05-29T07:43:23Z</time>
      </trkpt>
      <trkpt lat="43.250748" lon="-5.782245">
        <ele>249.0</ele>
        <time>2012-05-29T07:43:27Z</time>
      </trkpt>
      <trkpt lat="43.250644" lon="-5.782243">
        <ele>249.0</ele>
        <time>2012-05-29T07:43:29Z</time>
      </trkpt>
      <trkpt lat="43.250474" lon="-5.782199">
        <ele>249.0</ele>
        <time>2012-05-29T07:43:33Z</time>
      </trkpt>
      <trkpt lat="43.25057" lon="-5.782239">
        <ele>249.0</ele>
        <time>2012-05-29T07:43:38Z</time>
      </trkpt>
      <trkpt lat="43.250686" lon="-5.782229">
        <ele>249.0</ele>
        <time>2012-05-29T07:43:40Z</time>
      </trkpt>
      <trkpt lat="43.25099" lon="-5.782237">
        <ele>249.0</ele>
        <time>2012-05-29T07:43:50Z</time>
      </trkpt>
      <trkpt lat="43.251132" lon="-5.782256">
        <ele>250.0</ele>
        <time>2012-05-29T07:43:54Z</time>
      </trkpt>
      <trkpt lat="43.250851" lon="-5.782327">
        <ele>252.0</ele>
        <time>2012-05-29T07:44:03Z</time>
      </trkpt>
      <trkpt lat="43.250599" lon="-5.782318">
        <ele>255.0</ele>
        <time>2012-05-29T07:44:07Z</time>
      </trkpt>
      <trkpt lat="43.250336" lon="-5.782287">
        <ele>257.0</ele>
        <time>2012-05-29T07:44:11Z</time>
      </trkpt>
      <trkpt lat="43.250137" lon="-5.782214">
        <ele>257.0</ele>
        <time>2012-05-29T07:44:14Z</time>
      </trkpt>
      <trkpt lat="43.250059" lon="-5.78219">
        <ele>257.0</ele>
        <time>2012-05-29T07:44:16Z</time>
      </trkpt>
      <trkpt lat="43.249711" lon="-5.78213">
        <ele>257.0</ele>
        <time>2012-05-29T07:44:23Z</time>
      </trkpt>
      <trkpt lat="43.249366" lon="-5.782083">
        <ele>258.0</ele>
        <time>2012-05-29T07:44:27Z</time>
      </trkpt>
      <trkpt lat="43.249094" lon="-5.782036">
        <ele>259.0</ele>
        <time>2012-05-29T07:44:30Z</time>
      </trkpt>
      <trkpt lat="43.248634" lon="-5.781932">
        <ele>259.0</ele>
        <time>2012-05-29T07:44:35Z</time>
      </trkpt>
      <trkpt lat="43.248262" lon="-5.781865">
        <ele>260.0</ele>
        <time>2012-05-29T07:44:39Z</time>
      </trkpt>
      <trkpt lat="43.247916" lon="-5.781815">
        <ele>260.0</ele>
        <time>2012-05-29T07:44:43Z</time>
      </trkpt>
      <trkpt lat="43.247605" lon="-5.781782">
        <ele>260.0</ele>
        <time>2012-05-29T07:44:47Z</time>
      </trkpt>
      <trkpt lat="43.247282" lon="-5.781726">
        <ele>260.0</ele>
        <time>2012-05-29T07:44:51Z</time>
      </trkpt>
      <trkpt lat="43.247035" lon="-5.781659">
        <ele>260.0</ele>
        <time>2012-05-29T07:44:54Z</time>
      </trkpt>
      <trkpt lat="43.246621" lon="-5.781538">
        <ele>260.0</ele>
        <time>2012-05-29T07:44:59Z</time>
      </trkpt>
      <trkpt lat="43.246299" lon="-5.781461">
        <ele>259.0</ele>
        <time>2012-05-29T07:45:03Z</time>
      </trkpt>
      <trkpt lat="43.246002" lon="-5.781386">
        <ele>260.0</ele>
        <time>2012-05-29T07:45:07Z</time>
      </trkpt>
      <trkpt lat="43.245791" lon="-5.781349">
        <ele>262.0</ele>
        <time>2012-05-29T07:45:10Z</time>
      </trkpt>
      <trkpt lat="43.245702" lon="-5.781334">
        <ele>263.0</ele>
        <time>2012-05-29T07:45:12Z</time>
      </trkpt>
      <trkpt lat="43.245418" lon="-5.781284">
        <ele>264.0</ele>
        <time>2012-05-29T07:45:18Z</time>
      </trkpt>
      <trkpt lat="43.244913" lon="-5.78118">
        <ele>264.0</ele>
        <time>2012-05-29T07:45:26Z</time>
      </trkpt>
      <trkpt lat="43.244466" lon="-5.78111">
        <ele>265.0</ele>
        <time>2012-05-29T07:45:31Z</time>
      </trkpt>
      <trkpt lat="43.244083" lon="-5.781028">
        <ele>267.0</ele>
        <time>2012-05-29T07:45:35Z</time>
      </trkpt>
      <trkpt lat="43.243728" lon="-5.780947">
        <ele>268.0</ele>
        <time>2012-05-29T07:45:39Z</time>
      </trkpt>
      <trkpt lat="43.243468" lon="-5.780924">
        <ele>269.0</ele>
        <time>2012-05-29T07:45:42Z</time>
      </trkpt>
      <trkpt lat="43.243027" lon="-5.780839">
        <ele>269.0</ele>
        <time>2012-05-29T07:45:47Z</time>
      </trkpt>
      <trkpt lat="43.242662" lon="-5.780774">
        <ele>269.0</ele>
        <time>2012-05-29T07:45:51Z</time>
      </trkpt>
      <trkpt lat="43.242309" lon="-5.780705">
        <ele>269.0</ele>
        <time>2012-05-29T07:45:55Z</time>
      </trkpt>
      <trkpt lat="43.241974" lon="-5.780647">
        <ele>268.0</ele>
        <time>2012-05-29T07:45:59Z</time>
      </trkpt>
      <trkpt lat="43.241638" lon="-5.780607">
        <ele>266.0</ele>
        <time>2012-05-29T07:46:03Z</time>
      </trkpt>
      <trkpt lat="43.241301" lon="-5.780584">
        <ele>267.0</ele>
        <time>2012-05-29T07:46:07Z</time>
      </trkpt>
      <trkpt lat="43.241133" lon="-5.780579">
        <ele>267.0</ele>
        <time>2012-05-29T07:46:09Z</time>
      </trkpt>
      <trkpt lat="43.240626" lon="-5.780584">
        <ele>269.0</ele>
        <time>2012-05-29T07:46:15Z</time>
      </trkpt>
      <trkpt lat="43.24037" lon="-5.780595">
        <ele>269.0</ele>
        <time>2012-05-29T07:46:18Z</time>
      </trkpt>
      <trkpt lat="43.240109" lon="-5.780605">
        <ele>269.0</ele>
        <time>2012-05-29T07:46:21Z</time>
      </trkpt>
      <trkpt lat="43.239585" lon="-5.780651">
        <ele>270.0</ele>
        <time>2012-05-29T07:46:27Z</time>
      </trkpt>
      <trkpt lat="43.239256" lon="-5.780699">
        <ele>271.0</ele>
        <time>2012-05-29T07:46:31Z</time>
      </trkpt>
      <trkpt lat="43.23898" lon="-5.780836">
        <ele>272.0</ele>
        <time>2012-05-29T07:46:35Z</time>
      </trkpt>
      <trkpt lat="43.238799" lon="-5.780977">
        <ele>274.0</ele>
        <time>2012-05-29T07:46:39Z</time>
      </trkpt>
      <trkpt lat="43.238622" lon="-5.781065">
        <ele>274.0</ele>
        <time>2012-05-29T07:46:43Z</time>
      </trkpt>
      <trkpt lat="43.238427" lon="-5.781115">
        <ele>275.0</ele>
        <time>2012-05-29T07:46:47Z</time>
      </trkpt>
      <trkpt lat="43.238205" lon="-5.781133">
        <ele>275.0</ele>
        <time>2012-05-29T07:46:51Z</time>
      </trkpt>
      <trkpt lat="43.238091" lon="-5.781135">
        <ele>275.0</ele>
        <time>2012-05-29T07:46:53Z</time>
      </trkpt>
      <trkpt lat="43.237712" lon="-5.781176">
        <ele>275.0</ele>
        <time>2012-05-29T07:46:59Z</time>
      </trkpt>
      <trkpt lat="43.237389" lon="-5.781237">
        <ele>276.0</ele>
        <time>2012-05-29T07:47:03Z</time>
      </trkpt>
      <trkpt lat="43.237097" lon="-5.781285">
        <ele>276.0</ele>
        <time>2012-05-29T07:47:06Z</time>
      </trkpt>
      <trkpt lat="43.23663" lon="-5.781314">
        <ele>276.0</ele>
        <time>2012-05-29T07:47:11Z</time>
      </trkpt>
      <trkpt lat="43.236285" lon="-5.781319">
        <ele>275.0</ele>
        <time>2012-05-29T07:47:15Z</time>
      </trkpt>
      <trkpt lat="43.235962" lon="-5.781319">
        <ele>275.0</ele>
        <time>2012-05-29T07:47:19Z</time>
      </trkpt>
      <trkpt lat="43.235676" lon="-5.781322">
        <ele>275.0</ele>
        <time>2012-05-29T07:47:23Z</time>
      </trkpt>
      <trkpt lat="43.235395" lon="-5.781364">
        <ele>275.0</ele>
        <time>2012-05-29T07:47:27Z</time>
      </trkpt>
      <trkpt lat="43.235192" lon="-5.781416">
        <ele>275.0</ele>
        <time>2012-05-29T07:47:30Z</time>
      </trkpt>
      <trkpt lat="43.234901" lon="-5.781508">
        <ele>275.0</ele>
        <time>2012-05-29T07:47:35Z</time>
      </trkpt>
      <trkpt lat="43.234585" lon="-5.78154">
        <ele>278.0</ele>
        <time>2012-05-29T07:47:39Z</time>
      </trkpt>
      <trkpt lat="43.234254" lon="-5.781521">
        <ele>280.0</ele>
        <time>2012-05-29T07:47:43Z</time>
      </trkpt>
      <trkpt lat="43.23396" lon="-5.781517">
        <ele>279.0</ele>
        <time>2012-05-29T07:47:47Z</time>
      </trkpt>
      <trkpt lat="43.233675" lon="-5.781543">
        <ele>280.0</ele>
        <time>2012-05-29T07:47:51Z</time>
      </trkpt>
      <trkpt lat="43.233384" lon="-5.781605">
        <ele>282.0</ele>
        <time>2012-05-29T07:47:55Z</time>
      </trkpt>
      <trkpt lat="43.233093" lon="-5.781659">
        <ele>283.0</ele>
        <time>2012-05-29T07:47:59Z</time>
      </trkpt>
      <trkpt lat="43.232806" lon="-5.781712">
        <ele>283.0</ele>
        <time>2012-05-29T07:48:03Z</time>
      </trkpt>
      <trkpt lat="43.232527" lon="-5.781784">
        <ele>283.0</ele>
        <time>2012-05-29T07:48:07Z</time>
      </trkpt>
      <trkpt lat="43.232259" lon="-5.78194">
        <ele>284.0</ele>
        <time>2012-05-29T07:48:11Z</time>
      </trkpt>
      <trkpt lat="43.231995" lon="-5.782129">
        <ele>284.0</ele>
        <time>2012-05-29T07:48:15Z</time>
      </trkpt>
      <trkpt lat="43.231738" lon="-5.782309">
        <ele>284.0</ele>
        <time>2012-05-29T07:48:19Z</time>
      </trkpt>
      <trkpt lat="43.231477" lon="-5.78248">
        <ele>285.0</ele>
        <time>2012-05-29T07:48:23Z</time>
      </trkpt>
      <trkpt lat="43.231215" lon="-5.782639">
        <ele>285.0</ele>
        <time>2012-05-29T07:48:27Z</time>
      </trkpt>
      <trkpt lat="43.230958" lon="-5.782796">
        <ele>284.0</ele>
        <time>2012-05-29T07:48:31Z</time>
      </trkpt>
      <trkpt lat="43.230699" lon="-5.782961">
        <ele>284.0</ele>
        <time>2012-05-29T07:48:35Z</time>
      </trkpt>
      <trkpt lat="43.23043" lon="-5.78313">
        <ele>284.0</ele>
        <time>2012-05-29T07:48:39Z</time>
      </trkpt>
      <trkpt lat="43.230158" lon="-5.783285">
        <ele>283.0</ele>
        <time>2012-05-29T07:48:43Z</time>
      </trkpt>
      <trkpt lat="43.229887" lon="-5.78345">
        <ele>283.0</ele>
        <time>2012-05-29T07:48:47Z</time>
      </trkpt>
      <trkpt lat="43.229622" lon="-5.783623">
        <ele>283.0</ele>
        <time>2012-05-29T07:48:51Z</time>
      </trkpt>
      <trkpt lat="43.229362" lon="-5.783796">
        <ele>283.0</ele>
        <time>2012-05-29T07:48:55Z</time>
      </trkpt>
      <trkpt lat="43.2291" lon="-5.783966">
        <ele>283.0</ele>
        <time>2012-05-29T07:48:59Z</time>
      </trkpt>
      <trkpt lat="43.228825" lon="-5.784125">
        <ele>283.0</ele>
        <time>2012-05-29T07:49:03Z</time>
      </trkpt>
      <trkpt lat="43.228547" lon="-5.784279">
        <ele>282.0</ele>
        <time>2012-05-29T07:49:07Z</time>
      </trkpt>
      <trkpt lat="43.228261" lon="-5.784421">
        <ele>282.0</ele>
        <time>2012-05-29T07:49:11Z</time>
      </trkpt>
      <trkpt lat="43.227975" lon="-5.784564">
        <ele>281.0</ele>
        <time>2012-05-29T07:49:15Z</time>
      </trkpt>
      <trkpt lat="43.227684" lon="-5.784696">
        <ele>281.0</ele>
        <time>2012-05-29T07:49:19Z</time>
      </trkpt>
      <trkpt lat="43.227399" lon="-5.784802">
        <ele>280.0</ele>
        <time>2012-05-29T07:49:23Z</time>
      </trkpt>
      <trkpt lat="43.22705" lon="-5.784909">
        <ele>280.0</ele>
        <time>2012-05-29T07:49:28Z</time>
      </trkpt>
      <trkpt lat="43.226769" lon="-5.784999">
        <ele>279.0</ele>
        <time>2012-05-29T07:49:32Z</time>
      </trkpt>
      <trkpt lat="43.226559" lon="-5.785085">
        <ele>279.0</ele>
        <time>2012-05-29T07:49:35Z</time>
      </trkpt>
      <trkpt lat="43.22625" lon="-5.785291">
        <ele>280.0</ele>
        <time>2012-05-29T07:49:40Z</time>
      </trkpt>
      <trkpt lat="43.226143" lon="-5.785378">
        <ele>280.0</ele>
        <time>2012-05-29T07:49:42Z</time>
      </trkpt>
      <trkpt lat="43.225876" lon="-5.785608">
        <ele>281.0</ele>
        <time>2012-05-29T07:49:47Z</time>
      </trkpt>
      <trkpt lat="43.225688" lon="-5.785689">
        <ele>281.0</ele>
        <time>2012-05-29T07:49:50Z</time>
      </trkpt>
      <trkpt lat="43.225352" lon="-5.785737">
        <ele>282.0</ele>
        <time>2012-05-29T07:49:55Z</time>
      </trkpt>
      <trkpt lat="43.225157" lon="-5.785752">
        <ele>282.0</ele>
        <time>2012-05-29T07:49:58Z</time>
      </trkpt>
      <trkpt lat="43.224928" lon="-5.785747">
        <ele>283.0</ele>
        <time>2012-05-29T07:50:02Z</time>
      </trkpt>
      <trkpt lat="43.224713" lon="-5.785724">
        <ele>283.0</ele>
        <time>2012-05-29T07:50:06Z</time>
      </trkpt>
      <trkpt lat="43.224511" lon="-5.785703">
        <ele>283.0</ele>
        <time>2012-05-29T07:50:10Z</time>
      </trkpt>
      <trkpt lat="43.224192" lon="-5.785704">
        <ele>283.0</ele>
        <time>2012-05-29T07:50:16Z</time>
      </trkpt>
      <trkpt lat="43.223745" lon="-5.785684">
        <ele>284.0</ele>
        <time>2012-05-29T07:50:24Z</time>
      </trkpt>
      <trkpt lat="43.223451" lon="-5.785671">
        <ele>284.0</ele>
        <time>2012-05-29T07:50:28Z</time>
      </trkpt>
      <trkpt lat="43.223097" lon="-5.785643">
        <ele>285.0</ele>
        <time>2012-05-29T07:50:32Z</time>
      </trkpt>
      <trkpt lat="43.222711" lon="-5.785622">
        <ele>285.0</ele>
        <time>2012-05-29T07:50:36Z</time>
      </trkpt>
      <trkpt lat="43.22247" lon="-5.785566">
        <ele>285.0</ele>
        <time>2012-05-29T07:50:39Z</time>
      </trkpt>
      <trkpt lat="43.222294" lon="-5.785107">
        <ele>285.0</ele>
        <time>2012-05-29T07:50:44Z</time>
      </trkpt>
      <trkpt lat="43.22227" lon="-5.784899">
        <ele>285.0</ele>
        <time>2012-05-29T07:50:46Z</time>
      </trkpt>
      <trkpt lat="43.222187" lon="-5.784295">
        <ele>285.0</ele>
        <time>2012-05-29T07:50:52Z</time>
      </trkpt>
      <trkpt lat="43.22214" lon="-5.784005">
        <ele>285.0</ele>
        <time>2012-05-29T07:50:55Z</time>
      </trkpt>
      <trkpt lat="43.222025" lon="-5.783386">
        <ele>284.0</ele>
        <time>2012-05-29T07:51:04Z</time>
      </trkpt>
      <trkpt lat="43.221949" lon="-5.78333">
        <ele>285.0</ele>
        <time>2012-05-29T07:51:06Z</time>
      </trkpt>
      <trkpt lat="43.221614" lon="-5.783518">
        <ele>285.0</ele>
        <time>2012-05-29T07:51:12Z</time>
      </trkpt>
      <trkpt lat="43.221288" lon="-5.783552">
        <ele>285.0</ele>
        <time>2012-05-29T07:51:16Z</time>
      </trkpt>
      <trkpt lat="43.220964" lon="-5.783469">
        <ele>285.0</ele>
        <time>2012-05-29T07:51:20Z</time>
      </trkpt>
      <trkpt lat="43.220662" lon="-5.783293">
        <ele>285.0</ele>
        <time>2012-05-29T07:51:24Z</time>
      </trkpt>
      <trkpt lat="43.220385" lon="-5.783095">
        <ele>284.0</ele>
        <time>2012-05-29T07:51:28Z</time>
      </trkpt>
      <trkpt lat="43.220114" lon="-5.782948">
        <ele>284.0</ele>
        <time>2012-05-29T07:51:32Z</time>
      </trkpt>
      <trkpt lat="43.219826" lon="-5.782911">
        <ele>284.0</ele>
        <time>2012-05-29T07:51:36Z</time>
      </trkpt>
      <trkpt lat="43.219534" lon="-5.782911">
        <ele>284.0</ele>
        <time>2012-05-29T07:51:40Z</time>
      </trkpt>
      <trkpt lat="43.219235" lon="-5.782903">
        <ele>283.0</ele>
        <time>2012-05-29T07:51:44Z</time>
      </trkpt>
      <trkpt lat="43.218923" lon="-5.782896">
        <ele>283.0</ele>
        <time>2012-05-29T07:51:48Z</time>
      </trkpt>
      <trkpt lat="43.218616" lon="-5.782884">
        <ele>283.0</ele>
        <time>2012-05-29T07:51:52Z</time>
      </trkpt>
      <trkpt lat="43.218315" lon="-5.782866">
        <ele>283.0</ele>
        <time>2012-05-29T07:51:56Z</time>
      </trkpt>
      <trkpt lat="43.218087" lon="-5.782876">
        <ele>284.0</ele>
        <time>2012-05-29T07:51:59Z</time>
      </trkpt>
      <trkpt lat="43.217859" lon="-5.782915">
        <ele>283.0</ele>
        <time>2012-05-29T07:52:02Z</time>
      </trkpt>
      <trkpt lat="43.217414" lon="-5.783005">
        <ele>282.0</ele>
        <time>2012-05-29T07:52:08Z</time>
      </trkpt>
      <trkpt lat="43.217108" lon="-5.783008">
        <ele>282.0</ele>
        <time>2012-05-29T07:52:12Z</time>
      </trkpt>
      <trkpt lat="43.216801" lon="-5.78295">
        <ele>283.0</ele>
        <time>2012-05-29T07:52:16Z</time>
      </trkpt>
      <trkpt lat="43.216567" lon="-5.782969">
        <ele>283.0</ele>
        <time>2012-05-29T07:52:19Z</time>
      </trkpt>
      <trkpt lat="43.216262" lon="-5.78307">
        <ele>283.0</ele>
        <time>2012-05-29T07:52:23Z</time>
      </trkpt>
      <trkpt lat="43.215971" lon="-5.783193">
        <ele>283.0</ele>
        <time>2012-05-29T07:52:27Z</time>
      </trkpt>
      <trkpt lat="43.21569" lon="-5.783329">
        <ele>283.0</ele>
        <time>2012-05-29T07:52:31Z</time>
      </trkpt>
      <trkpt lat="43.215424" lon="-5.783442">
        <ele>283.0</ele>
        <time>2012-05-29T07:52:35Z</time>
      </trkpt>
      <trkpt lat="43.21529" lon="-5.783485">
        <ele>283.0</ele>
        <time>2012-05-29T07:52:37Z</time>
      </trkpt>
      <trkpt lat="43.21487" lon="-5.783569">
        <ele>284.0</ele>
        <time>2012-05-29T07:52:43Z</time>
      </trkpt>
      <trkpt lat="43.214582" lon="-5.783611">
        <ele>284.0</ele>
        <time>2012-05-29T07:52:47Z</time>
      </trkpt>
      <trkpt lat="43.214298" lon="-5.783655">
        <ele>284.0</ele>
        <time>2012-05-29T07:52:51Z</time>
      </trkpt>
      <trkpt lat="43.214012" lon="-5.78368">
        <ele>284.0</ele>
        <time>2012-05-29T07:52:55Z</time>
      </trkpt>
      <trkpt lat="43.213718" lon="-5.783679">
        <ele>284.0</ele>
        <time>2012-05-29T07:52:59Z</time>
      </trkpt>
      <trkpt lat="43.213433" lon="-5.783655">
        <ele>283.0</ele>
        <time>2012-05-29T07:53:03Z</time>
      </trkpt>
      <trkpt lat="43.21315" lon="-5.7836">
        <ele>283.0</ele>
        <time>2012-05-29T07:53:07Z</time>
      </trkpt>
      <trkpt lat="43.212886" lon="-5.783442">
        <ele>283.0</ele>
        <time>2012-05-29T07:53:11Z</time>
      </trkpt>
      <trkpt lat="43.212652" lon="-5.783179">
        <ele>283.0</ele>
        <time>2012-05-29T07:53:15Z</time>
      </trkpt>
      <trkpt lat="43.21244" lon="-5.782877">
        <ele>283.0</ele>
        <time>2012-05-29T07:53:19Z</time>
      </trkpt>
      <trkpt lat="43.212199" lon="-5.782642">
        <ele>283.0</ele>
        <time>2012-05-29T07:53:23Z</time>
      </trkpt>
      <trkpt lat="43.21199" lon="-5.782539">
        <ele>283.0</ele>
        <time>2012-05-29T07:53:26Z</time>
      </trkpt>
      <trkpt lat="43.211702" lon="-5.782452">
        <ele>283.0</ele>
        <time>2012-05-29T07:53:30Z</time>
      </trkpt>
      <trkpt lat="43.211342" lon="-5.782398">
        <ele>283.0</ele>
        <time>2012-05-29T07:53:35Z</time>
      </trkpt>
      <trkpt lat="43.211141" lon="-5.782371">
        <ele>283.0</ele>
        <time>2012-05-29T07:53:38Z</time>
      </trkpt>
      <trkpt lat="43.210834" lon="-5.782268">
        <ele>283.0</ele>
        <time>2012-05-29T07:53:43Z</time>
      </trkpt>
      <trkpt lat="43.21065" lon="-5.782215">
        <ele>282.0</ele>
        <time>2012-05-29T07:53:46Z</time>
      </trkpt>
      <trkpt lat="43.210308" lon="-5.782276">
        <ele>282.0</ele>
        <time>2012-05-29T07:53:51Z</time>
      </trkpt>
      <trkpt lat="43.210047" lon="-5.782522">
        <ele>282.0</ele>
        <time>2012-05-29T07:53:55Z</time>
      </trkpt>
      <trkpt lat="43.20986" lon="-5.782746">
        <ele>281.0</ele>
        <time>2012-05-29T07:53:58Z</time>
      </trkpt>
      <trkpt lat="43.209572" lon="-5.783118">
        <ele>282.0</ele>
        <time>2012-05-29T07:54:03Z</time>
      </trkpt>
      <trkpt lat="43.209426" lon="-5.783336">
        <ele>282.0</ele>
        <time>2012-05-29T07:54:06Z</time>
      </trkpt>
      <trkpt lat="43.209257" lon="-5.783624">
        <ele>283.0</ele>
        <time>2012-05-29T07:54:10Z</time>
      </trkpt>
      <trkpt lat="43.209033" lon="-5.78399">
        <ele>283.0</ele>
        <time>2012-05-29T07:54:15Z</time>
      </trkpt>
      <trkpt lat="43.208841" lon="-5.784271">
        <ele>283.0</ele>
        <time>2012-05-29T07:54:19Z</time>
      </trkpt>
      <trkpt lat="43.208639" lon="-5.784566">
        <ele>283.0</ele>
        <time>2012-05-29T07:54:23Z</time>
      </trkpt>
      <trkpt lat="43.208433" lon="-5.784844">
        <ele>284.0</ele>
        <time>2012-05-29T07:54:27Z</time>
      </trkpt>
      <trkpt lat="43.208326" lon="-5.784974">
        <ele>284.0</ele>
        <time>2012-05-29T07:54:29Z</time>
      </trkpt>
      <trkpt lat="43.208002" lon="-5.785382">
        <ele>285.0</ele>
        <time>2012-05-29T07:54:35Z</time>
      </trkpt>
      <trkpt lat="43.207788" lon="-5.785653">
        <ele>286.0</ele>
        <time>2012-05-29T07:54:39Z</time>
      </trkpt>
      <trkpt lat="43.207579" lon="-5.785906">
        <ele>286.0</ele>
        <time>2012-05-29T07:54:43Z</time>
      </trkpt>
      <trkpt lat="43.207397" lon="-5.786192">
        <ele>285.0</ele>
        <time>2012-05-29T07:54:47Z</time>
      </trkpt>
      <trkpt lat="43.207207" lon="-5.786459">
        <ele>285.0</ele>
        <time>2012-05-29T07:54:51Z</time>
      </trkpt>
      <trkpt lat="43.207012" lon="-5.786695">
        <ele>285.0</ele>
        <time>2012-05-29T07:54:55Z</time>
      </trkpt>
      <trkpt lat="43.2068" lon="-5.786904">
        <ele>286.0</ele>
        <time>2012-05-29T07:54:59Z</time>
      </trkpt>
      <trkpt lat="43.20656" lon="-5.787073">
        <ele>286.0</ele>
        <time>2012-05-29T07:55:03Z</time>
      </trkpt>
      <trkpt lat="43.206298" lon="-5.787169">
        <ele>286.0</ele>
        <time>2012-05-29T07:55:07Z</time>
      </trkpt>
      <trkpt lat="43.206032" lon="-5.787204">
        <ele>286.0</ele>
        <time>2012-05-29T07:55:11Z</time>
      </trkpt>
      <trkpt lat="43.205754" lon="-5.787175">
        <ele>286.0</ele>
        <time>2012-05-29T07:55:15Z</time>
      </trkpt>
      <trkpt lat="43.205468" lon="-5.787112">
        <ele>286.0</ele>
        <time>2012-05-29T07:55:19Z</time>
      </trkpt>
      <trkpt lat="43.205178" lon="-5.787054">
        <ele>286.0</ele>
        <time>2012-05-29T07:55:23Z</time>
      </trkpt>
      <trkpt lat="43.204894" lon="-5.786995">
        <ele>286.0</ele>
        <time>2012-05-29T07:55:27Z</time>
      </trkpt>
      <trkpt lat="43.204618" lon="-5.78695">
        <ele>286.0</ele>
        <time>2012-05-29T07:55:31Z</time>
      </trkpt>
      <trkpt lat="43.204343" lon="-5.786912">
        <ele>286.0</ele>
        <time>2012-05-29T07:55:35Z</time>
      </trkpt>
      <trkpt lat="43.204056" lon="-5.786861">
        <ele>286.0</ele>
        <time>2012-05-29T07:55:39Z</time>
      </trkpt>
      <trkpt lat="43.203846" lon="-5.786826">
        <ele>286.0</ele>
        <time>2012-05-29T07:55:42Z</time>
      </trkpt>
      <trkpt lat="43.2035" lon="-5.786759">
        <ele>286.0</ele>
        <time>2012-05-29T07:55:47Z</time>
      </trkpt>
      <trkpt lat="43.203208" lon="-5.786692">
        <ele>286.0</ele>
        <time>2012-05-29T07:55:51Z</time>
      </trkpt>
      <trkpt lat="43.203061" lon="-5.786667">
        <ele>286.0</ele>
        <time>2012-05-29T07:55:53Z</time>
      </trkpt>
      <trkpt lat="43.202654" lon="-5.786778">
        <ele>286.0</ele>
        <time>2012-05-29T07:55:59Z</time>
      </trkpt>
      <trkpt lat="43.202446" lon="-5.786885">
        <ele>286.0</ele>
        <time>2012-05-29T07:56:02Z</time>
      </trkpt>
      <trkpt lat="43.202088" lon="-5.787099">
        <ele>287.0</ele>
        <time>2012-05-29T07:56:07Z</time>
      </trkpt>
      <trkpt lat="43.201796" lon="-5.787253">
        <ele>287.0</ele>
        <time>2012-05-29T07:56:11Z</time>
      </trkpt>
      <trkpt lat="43.201498" lon="-5.78738">
        <ele>287.0</ele>
        <time>2012-05-29T07:56:15Z</time>
      </trkpt>
      <trkpt lat="43.201198" lon="-5.787462">
        <ele>288.0</ele>
        <time>2012-05-29T07:56:19Z</time>
      </trkpt>
      <trkpt lat="43.200912" lon="-5.787525">
        <ele>289.0</ele>
        <time>2012-05-29T07:56:23Z</time>
      </trkpt>
      <trkpt lat="43.200634" lon="-5.787577">
        <ele>290.0</ele>
        <time>2012-05-29T07:56:27Z</time>
      </trkpt>
      <trkpt lat="43.200496" lon="-5.787598">
        <ele>290.0</ele>
        <time>2012-05-29T07:56:29Z</time>
      </trkpt>
      <trkpt lat="43.200102" lon="-5.787633">
        <ele>289.0</ele>
        <time>2012-05-29T07:56:35Z</time>
      </trkpt>
      <trkpt lat="43.199903" lon="-5.787646">
        <ele>289.0</ele>
        <time>2012-05-29T07:56:38Z</time>
      </trkpt>
      <trkpt lat="43.199593" lon="-5.787724">
        <ele>289.0</ele>
        <time>2012-05-29T07:56:43Z</time>
      </trkpt>
      <trkpt lat="43.199336" lon="-5.787808">
        <ele>290.0</ele>
        <time>2012-05-29T07:56:47Z</time>
      </trkpt>
      <trkpt lat="43.199151" lon="-5.787885">
        <ele>289.0</ele>
        <time>2012-05-29T07:56:50Z</time>
      </trkpt>
      <trkpt lat="43.198933" lon="-5.787998">
        <ele>289.0</ele>
        <time>2012-05-29T07:56:54Z</time>
      </trkpt>
      <trkpt lat="43.198626" lon="-5.788144">
        <ele>288.0</ele>
        <time>2012-05-29T07:56:59Z</time>
      </trkpt>
      <trkpt lat="43.198339" lon="-5.788159">
        <ele>288.0</ele>
        <time>2012-05-29T07:57:03Z</time>
      </trkpt>
      <trkpt lat="43.198276" lon="-5.788147">
        <ele>288.0</ele>
        <time>2012-05-29T07:57:04Z</time>
      </trkpt>
      <trkpt lat="43.197963" lon="-5.787551">
        <ele>290.0</ele>
        <time>2012-05-29T07:57:11Z</time>
      </trkpt>
      <trkpt lat="43.197928" lon="-5.787109">
        <ele>291.0</ele>
        <time>2012-05-29T07:57:15Z</time>
      </trkpt>
      <trkpt lat="43.197954" lon="-5.78667">
        <ele>293.0</ele>
        <time>2012-05-29T07:57:19Z</time>
      </trkpt>
      <trkpt lat="43.197993" lon="-5.786288">
        <ele>294.0</ele>
        <time>2012-05-29T07:57:23Z</time>
      </trkpt>
      <trkpt lat="43.198049" lon="-5.785932">
        <ele>295.0</ele>
        <time>2012-05-29T07:57:27Z</time>
      </trkpt>
      <trkpt lat="43.198093" lon="-5.785572">
        <ele>295.0</ele>
        <time>2012-05-29T07:57:31Z</time>
      </trkpt>
      <trkpt lat="43.198133" lon="-5.785215">
        <ele>296.0</ele>
        <time>2012-05-29T07:57:35Z</time>
      </trkpt>
      <trkpt lat="43.198172" lon="-5.784859">
        <ele>297.0</ele>
        <time>2012-05-29T07:57:39Z</time>
      </trkpt>
      <trkpt lat="43.198195" lon="-5.784496">
        <ele>298.0</ele>
        <time>2012-05-29T07:57:43Z</time>
      </trkpt>
      <trkpt lat="43.198216" lon="-5.784136">
        <ele>299.0</ele>
        <time>2012-05-29T07:57:47Z</time>
      </trkpt>
      <trkpt lat="43.198243" lon="-5.783784">
        <ele>299.0</ele>
        <time>2012-05-29T07:57:51Z</time>
      </trkpt>
      <trkpt lat="43.198264" lon="-5.783436">
        <ele>298.0</ele>
        <time>2012-05-29T07:57:55Z</time>
      </trkpt>
      <trkpt lat="43.198263" lon="-5.783102">
        <ele>298.0</ele>
        <time>2012-05-29T07:57:59Z</time>
      </trkpt>
      <trkpt lat="43.198206" lon="-5.782769">
        <ele>299.0</ele>
        <time>2012-05-29T07:58:03Z</time>
      </trkpt>
      <trkpt lat="43.198117" lon="-5.782422">
        <ele>299.0</ele>
        <time>2012-05-29T07:58:07Z</time>
      </trkpt>
      <trkpt lat="43.198028" lon="-5.78206">
        <ele>300.0</ele>
        <time>2012-05-29T07:58:11Z</time>
      </trkpt>
      <trkpt lat="43.197931" lon="-5.781688">
        <ele>301.0</ele>
        <time>2012-05-29T07:58:15Z</time>
      </trkpt>
      <trkpt lat="43.197825" lon="-5.781321">
        <ele>302.0</ele>
        <time>2012-05-29T07:58:19Z</time>
      </trkpt>
      <trkpt lat="43.197702" lon="-5.780967">
        <ele>302.0</ele>
        <time>2012-05-29T07:58:23Z</time>
      </trkpt>
      <trkpt lat="43.197614" lon="-5.780708">
        <ele>301.0</ele>
        <time>2012-05-29T07:58:26Z</time>
      </trkpt>
      <trkpt lat="43.197436" lon="-5.780299">
        <ele>301.0</ele>
        <time>2012-05-29T07:58:31Z</time>
      </trkpt>
      <trkpt lat="43.197363" lon="-5.780137">
        <ele>301.0</ele>
        <time>2012-05-29T07:58:33Z</time>
      </trkpt>
      <trkpt lat="43.197149" lon="-5.779656">
        <ele>301.0</ele>
        <time>2012-05-29T07:58:39Z</time>
      </trkpt>
      <trkpt lat="43.197114" lon="-5.779575">
        <ele>301.0</ele>
        <time>2012-05-29T07:58:40Z</time>
      </trkpt>
      <trkpt lat="43.19686" lon="-5.77901">
        <ele>301.0</ele>
        <time>2012-05-29T07:58:47Z</time>
      </trkpt>
      <trkpt lat="43.196727" lon="-5.778664">
        <ele>298.0</ele>
        <time>2012-05-29T07:58:51Z</time>
      </trkpt>
      <trkpt lat="43.196658" lon="-5.778246">
        <ele>296.0</ele>
        <time>2012-05-29T07:58:55Z</time>
      </trkpt>
      <trkpt lat="43.196631" lon="-5.777857">
        <ele>296.0</ele>
        <time>2012-05-29T07:58:59Z</time>
      </trkpt>
      <trkpt lat="43.1966" lon="-5.7775">
        <ele>296.0</ele>
        <time>2012-05-29T07:59:03Z</time>
      </trkpt>
      <trkpt lat="43.196536" lon="-5.777265">
        <ele>296.0</ele>
        <time>2012-05-29T07:59:06Z</time>
      </trkpt>
      <trkpt lat="43.196398" lon="-5.776973">
        <ele>297.0</ele>
        <time>2012-05-29T07:59:10Z</time>
      </trkpt>
      <trkpt lat="43.196251" lon="-5.776719">
        <ele>297.0</ele>
        <time>2012-05-29T07:59:14Z</time>
      </trkpt>
      <trkpt lat="43.196092" lon="-5.77647">
        <ele>297.0</ele>
        <time>2012-05-29T07:59:18Z</time>
      </trkpt>
      <trkpt lat="43.195922" lon="-5.776212">
        <ele>297.0</ele>
        <time>2012-05-29T07:59:22Z</time>
      </trkpt>
      <trkpt lat="43.195674" lon="-5.775917">
        <ele>297.0</ele>
        <time>2012-05-29T07:59:27Z</time>
      </trkpt>
      <trkpt lat="43.19552" lon="-5.775743">
        <ele>297.0</ele>
        <time>2012-05-29T07:59:30Z</time>
      </trkpt>
      <trkpt lat="43.19528" lon="-5.775414">
        <ele>297.0</ele>
        <time>2012-05-29T07:59:35Z</time>
      </trkpt>
      <trkpt lat="43.195089" lon="-5.775144">
        <ele>297.0</ele>
        <time>2012-05-29T07:59:39Z</time>
      </trkpt>
      <trkpt lat="43.194897" lon="-5.774868">
        <ele>296.0</ele>
        <time>2012-05-29T07:59:43Z</time>
      </trkpt>
      <trkpt lat="43.194693" lon="-5.774609">
        <ele>296.0</ele>
        <time>2012-05-29T07:59:47Z</time>
      </trkpt>
      <trkpt lat="43.194445" lon="-5.774432">
        <ele>297.0</ele>
        <time>2012-05-29T07:59:51Z</time>
      </trkpt>
      <trkpt lat="43.19424" lon="-5.774191">
        <ele>297.0</ele>
        <time>2012-05-29T07:59:55Z</time>
      </trkpt>
      <trkpt lat="43.193946" lon="-5.774205">
        <ele>297.0</ele>
        <time>2012-05-29T07:59:59Z</time>
      </trkpt>
      <trkpt lat="43.19364" lon="-5.774166">
        <ele>296.0</ele>
        <time>2012-05-29T08:00:03Z</time>
      </trkpt>
      <trkpt lat="43.19341" lon="-5.773933">
        <ele>296.0</ele>
        <time>2012-05-29T08:00:07Z</time>
      </trkpt>
      <trkpt lat="43.193235" lon="-5.773627">
        <ele>296.0</ele>
        <time>2012-05-29T08:00:11Z</time>
      </trkpt>
      <trkpt lat="43.193099" lon="-5.773286">
        <ele>296.0</ele>
        <time>2012-05-29T08:00:15Z</time>
      </trkpt>
      <trkpt lat="43.19296" lon="-5.77293">
        <ele>297.0</ele>
        <time>2012-05-29T08:00:19Z</time>
      </trkpt>
      <trkpt lat="43.192815" lon="-5.772571">
        <ele>297.0</ele>
        <time>2012-05-29T08:00:23Z</time>
      </trkpt>
      <trkpt lat="43.192639" lon="-5.77224">
        <ele>298.0</ele>
        <time>2012-05-29T08:00:27Z</time>
      </trkpt>
      <trkpt lat="43.192503" lon="-5.771997">
        <ele>298.0</ele>
        <time>2012-05-29T08:00:30Z</time>
      </trkpt>
      <trkpt lat="43.192315" lon="-5.771691">
        <ele>298.0</ele>
        <time>2012-05-29T08:00:34Z</time>
      </trkpt>
      <trkpt lat="43.192082" lon="-5.771307">
        <ele>298.0</ele>
        <time>2012-05-29T08:00:39Z</time>
      </trkpt>
      <trkpt lat="43.191883" lon="-5.771029">
        <ele>299.0</ele>
        <time>2012-05-29T08:00:43Z</time>
      </trkpt>
      <trkpt lat="43.191644" lon="-5.770817">
        <ele>300.0</ele>
        <time>2012-05-29T08:00:47Z</time>
      </trkpt>
      <trkpt lat="43.191341" lon="-5.770737">
        <ele>299.0</ele>
        <time>2012-05-29T08:00:51Z</time>
      </trkpt>
      <trkpt lat="43.191061" lon="-5.770635">
        <ele>299.0</ele>
        <time>2012-05-29T08:00:55Z</time>
      </trkpt>
      <trkpt lat="43.190776" lon="-5.770503">
        <ele>299.0</ele>
        <time>2012-05-29T08:00:59Z</time>
      </trkpt>
      <trkpt lat="43.190496" lon="-5.770336">
        <ele>298.0</ele>
        <time>2012-05-29T08:01:03Z</time>
      </trkpt>
      <trkpt lat="43.190282" lon="-5.77002">
        <ele>298.0</ele>
        <time>2012-05-29T08:01:07Z</time>
      </trkpt>
      <trkpt lat="43.190161" lon="-5.769641">
        <ele>299.0</ele>
        <time>2012-05-29T08:01:11Z</time>
      </trkpt>
      <trkpt lat="43.190071" lon="-5.769264">
        <ele>299.0</ele>
        <time>2012-05-29T08:01:15Z</time>
      </trkpt>
      <trkpt lat="43.189993" lon="-5.768881">
        <ele>299.0</ele>
        <time>2012-05-29T08:01:19Z</time>
      </trkpt>
      <trkpt lat="43.189912" lon="-5.768488">
        <ele>300.0</ele>
        <time>2012-05-29T08:01:23Z</time>
      </trkpt>
      <trkpt lat="43.189819" lon="-5.76811">
        <ele>300.0</ele>
        <time>2012-05-29T08:01:27Z</time>
      </trkpt>
      <trkpt lat="43.189738" lon="-5.767857">
        <ele>300.0</ele>
        <time>2012-05-29T08:01:30Z</time>
      </trkpt>
      <trkpt lat="43.189558" lon="-5.767481">
        <ele>300.0</ele>
        <time>2012-05-29T08:01:35Z</time>
      </trkpt>
      <trkpt lat="43.189388" lon="-5.76719">
        <ele>300.0</ele>
        <time>2012-05-29T08:01:39Z</time>
      </trkpt>
      <trkpt lat="43.189302" lon="-5.766834">
        <ele>299.0</ele>
        <time>2012-05-29T08:01:43Z</time>
      </trkpt>
      <trkpt lat="43.189081" lon="-5.766622">
        <ele>295.0</ele>
        <time>2012-05-29T08:01:47Z</time>
      </trkpt>
      <trkpt lat="43.188712" lon="-5.76661">
        <ele>293.0</ele>
        <time>2012-05-29T08:01:51Z</time>
      </trkpt>
      <trkpt lat="43.188387" lon="-5.766476">
        <ele>293.0</ele>
        <time>2012-05-29T08:01:55Z</time>
      </trkpt>
      <trkpt lat="43.188081" lon="-5.766311">
        <ele>295.0</ele>
        <time>2012-05-29T08:01:59Z</time>
      </trkpt>
      <trkpt lat="43.187758" lon="-5.766175">
        <ele>296.0</ele>
        <time>2012-05-29T08:02:03Z</time>
      </trkpt>
      <trkpt lat="43.187612" lon="-5.766085">
        <ele>296.0</ele>
        <time>2012-05-29T08:02:05Z</time>
      </trkpt>
      <trkpt lat="43.187319" lon="-5.765617">
        <ele>296.0</ele>
        <time>2012-05-29T08:02:11Z</time>
      </trkpt>
      <trkpt lat="43.187169" lon="-5.765271">
        <ele>297.0</ele>
        <time>2012-05-29T08:02:15Z</time>
      </trkpt>
      <trkpt lat="43.187027" lon="-5.764926">
        <ele>297.0</ele>
        <time>2012-05-29T08:02:19Z</time>
      </trkpt>
      <trkpt lat="43.186883" lon="-5.764589">
        <ele>297.0</ele>
        <time>2012-05-29T08:02:23Z</time>
      </trkpt>
      <trkpt lat="43.186738" lon="-5.764276">
        <ele>297.0</ele>
        <time>2012-05-29T08:02:27Z</time>
      </trkpt>
      <trkpt lat="43.18661" lon="-5.764066">
        <ele>298.0</ele>
        <time>2012-05-29T08:02:30Z</time>
      </trkpt>
      <trkpt lat="43.186384" lon="-5.763719">
        <ele>298.0</ele>
        <time>2012-05-29T08:02:35Z</time>
      </trkpt>
      <trkpt lat="43.186208" lon="-5.763431">
        <ele>298.0</ele>
        <time>2012-05-29T08:02:39Z</time>
      </trkpt>
      <trkpt lat="43.185977" lon="-5.76321">
        <ele>301.0</ele>
        <time>2012-05-29T08:02:43Z</time>
      </trkpt>
      <trkpt lat="43.185771" lon="-5.762956">
        <ele>302.0</ele>
        <time>2012-05-29T08:02:47Z</time>
      </trkpt>
      <trkpt lat="43.185618" lon="-5.762764">
        <ele>302.0</ele>
        <time>2012-05-29T08:02:50Z</time>
      </trkpt>
      <trkpt lat="43.185375" lon="-5.762515">
        <ele>299.0</ele>
        <time>2012-05-29T08:02:55Z</time>
      </trkpt>
      <trkpt lat="43.185133" lon="-5.762318">
        <ele>298.0</ele>
        <time>2012-05-29T08:02:59Z</time>
      </trkpt>
      <trkpt lat="43.18487" lon="-5.762136">
        <ele>298.0</ele>
        <time>2012-05-29T08:03:03Z</time>
      </trkpt>
      <trkpt lat="43.184618" lon="-5.761975">
        <ele>298.0</ele>
        <time>2012-05-29T08:03:07Z</time>
      </trkpt>
      <trkpt lat="43.184361" lon="-5.761862">
        <ele>299.0</ele>
        <time>2012-05-29T08:03:11Z</time>
      </trkpt>
      <trkpt lat="43.184157" lon="-5.76185">
        <ele>300.0</ele>
        <time>2012-05-29T08:03:14Z</time>
      </trkpt>
      <trkpt lat="43.18389" lon="-5.761852">
        <ele>301.0</ele>
        <time>2012-05-29T08:03:18Z</time>
      </trkpt>
      <trkpt lat="43.183578" lon="-5.761735">
        <ele>303.0</ele>
        <time>2012-05-29T08:03:23Z</time>
      </trkpt>
      <trkpt lat="43.183393" lon="-5.761678">
        <ele>303.0</ele>
        <time>2012-05-29T08:03:26Z</time>
      </trkpt>
      <trkpt lat="43.183142" lon="-5.761659">
        <ele>304.0</ele>
        <time>2012-05-29T08:03:30Z</time>
      </trkpt>
      <trkpt lat="43.182821" lon="-5.761686">
        <ele>304.0</ele>
        <time>2012-05-29T08:03:35Z</time>
      </trkpt>
      <trkpt lat="43.182693" lon="-5.761687">
        <ele>305.0</ele>
        <time>2012-05-29T08:03:37Z</time>
      </trkpt>
      <trkpt lat="43.18231" lon="-5.761654">
        <ele>306.0</ele>
        <time>2012-05-29T08:03:43Z</time>
      </trkpt>
      <trkpt lat="43.182051" lon="-5.761636">
        <ele>304.0</ele>
        <time>2012-05-29T08:03:47Z</time>
      </trkpt>
      <trkpt lat="43.181789" lon="-5.761573">
        <ele>306.0</ele>
        <time>2012-05-29T08:03:51Z</time>
      </trkpt>
      <trkpt lat="43.181537" lon="-5.76131">
        <ele>308.0</ele>
        <time>2012-05-29T08:03:55Z</time>
      </trkpt>
      <trkpt lat="43.181284" lon="-5.761094">
        <ele>310.0</ele>
        <time>2012-05-29T08:03:59Z</time>
      </trkpt>
      <trkpt lat="43.181099" lon="-5.760922">
        <ele>311.0</ele>
        <time>2012-05-29T08:04:02Z</time>
      </trkpt>
      <trkpt lat="43.180798" lon="-5.760614">
        <ele>312.0</ele>
        <time>2012-05-29T08:04:07Z</time>
      </trkpt>
      <trkpt lat="43.180547" lon="-5.760403">
        <ele>313.0</ele>
        <time>2012-05-29T08:04:11Z</time>
      </trkpt>
      <trkpt lat="43.180356" lon="-5.760256">
        <ele>314.0</ele>
        <time>2012-05-29T08:04:14Z</time>
      </trkpt>
      <trkpt lat="43.18008" lon="-5.759973">
        <ele>316.0</ele>
        <time>2012-05-29T08:04:19Z</time>
      </trkpt>
      <trkpt lat="43.179908" lon="-5.759722">
        <ele>317.0</ele>
        <time>2012-05-29T08:04:23Z</time>
      </trkpt>
      <trkpt lat="43.180046" lon="-5.759173">
        <ele>320.0</ele>
        <time>2012-05-29T08:04:31Z</time>
      </trkpt>
      <trkpt lat="43.180038" lon="-5.758836">
        <ele>321.0</ele>
        <time>2012-05-29T08:04:35Z</time>
      </trkpt>
      <trkpt lat="43.179972" lon="-5.758512">
        <ele>323.0</ele>
        <time>2012-05-29T08:04:39Z</time>
      </trkpt>
      <trkpt lat="43.179687" lon="-5.758003">
        <ele>324.0</ele>
        <time>2012-05-29T08:04:47Z</time>
      </trkpt>
      <trkpt lat="43.179499" lon="-5.757802">
        <ele>324.0</ele>
        <time>2012-05-29T08:04:51Z</time>
      </trkpt>
      <trkpt lat="43.179304" lon="-5.757596">
        <ele>324.0</ele>
        <time>2012-05-29T08:04:55Z</time>
      </trkpt>
      <trkpt lat="43.179095" lon="-5.757377">
        <ele>325.0</ele>
        <time>2012-05-29T08:04:59Z</time>
      </trkpt>
      <trkpt lat="43.178898" lon="-5.757135">
        <ele>326.0</ele>
        <time>2012-05-29T08:05:03Z</time>
      </trkpt>
      <trkpt lat="43.178718" lon="-5.756871">
        <ele>326.0</ele>
        <time>2012-05-29T08:05:07Z</time>
      </trkpt>
      <trkpt lat="43.178536" lon="-5.75662">
        <ele>327.0</ele>
        <time>2012-05-29T08:05:11Z</time>
      </trkpt>
      <trkpt lat="43.178122" lon="-5.756227">
        <ele>328.0</ele>
        <time>2012-05-29T08:05:19Z</time>
      </trkpt>
      <trkpt lat="43.178028" lon="-5.75611">
        <ele>328.0</ele>
        <time>2012-05-29T08:05:21Z</time>
      </trkpt>
      <trkpt lat="43.177835" lon="-5.755654">
        <ele>328.0</ele>
        <time>2012-05-29T08:05:27Z</time>
      </trkpt>
      <trkpt lat="43.177707" lon="-5.755345">
        <ele>328.0</ele>
        <time>2012-05-29T08:05:31Z</time>
      </trkpt>
      <trkpt lat="43.177611" lon="-5.755114">
        <ele>328.0</ele>
        <time>2012-05-29T08:05:34Z</time>
      </trkpt>
      <trkpt lat="43.177479" lon="-5.754828">
        <ele>328.0</ele>
        <time>2012-05-29T08:05:38Z</time>
      </trkpt>
      <trkpt lat="43.177245" lon="-5.754562">
        <ele>329.0</ele>
        <time>2012-05-29T08:05:43Z</time>
      </trkpt>
      <trkpt lat="43.177003" lon="-5.754428">
        <ele>330.0</ele>
        <time>2012-05-29T08:05:47Z</time>
      </trkpt>
      <trkpt lat="43.176883" lon="-5.754366">
        <ele>331.0</ele>
        <time>2012-05-29T08:05:49Z</time>
      </trkpt>
      <trkpt lat="43.176538" lon="-5.754147">
        <ele>333.0</ele>
        <time>2012-05-29T08:05:55Z</time>
      </trkpt>
      <trkpt lat="43.176425" lon="-5.754065">
        <ele>333.0</ele>
        <time>2012-05-29T08:05:57Z</time>
      </trkpt>
      <trkpt lat="43.176046" lon="-5.753813">
        <ele>333.0</ele>
        <time>2012-05-29T08:06:03Z</time>
      </trkpt>
      <trkpt lat="43.175784" lon="-5.753675">
        <ele>334.0</ele>
        <time>2012-05-29T08:06:07Z</time>
      </trkpt>
      <trkpt lat="43.175534" lon="-5.753546">
        <ele>335.0</ele>
        <time>2012-05-29T08:06:11Z</time>
      </trkpt>
      <trkpt lat="43.175283" lon="-5.753401">
        <ele>335.0</ele>
        <time>2012-05-29T08:06:15Z</time>
      </trkpt>
      <trkpt lat="43.175025" lon="-5.753183">
        <ele>335.0</ele>
        <time>2012-05-29T08:06:19Z</time>
      </trkpt>
      <trkpt lat="43.17479" lon="-5.752923">
        <ele>335.0</ele>
        <time>2012-05-29T08:06:23Z</time>
      </trkpt>
      <trkpt lat="43.174583" lon="-5.752643">
        <ele>335.0</ele>
        <time>2012-05-29T08:06:27Z</time>
      </trkpt>
      <trkpt lat="43.174389" lon="-5.75234">
        <ele>335.0</ele>
        <time>2012-05-29T08:06:31Z</time>
      </trkpt>
      <trkpt lat="43.174259" lon="-5.751992">
        <ele>335.0</ele>
        <time>2012-05-29T08:06:35Z</time>
      </trkpt>
      <trkpt lat="43.174176" lon="-5.75172">
        <ele>335.0</ele>
        <time>2012-05-29T08:06:38Z</time>
      </trkpt>
      <trkpt lat="43.174047" lon="-5.751361">
        <ele>337.0</ele>
        <time>2012-05-29T08:06:42Z</time>
      </trkpt>
      <trkpt lat="43.173878" lon="-5.750947">
        <ele>338.0</ele>
        <time>2012-05-29T08:06:47Z</time>
      </trkpt>
      <trkpt lat="43.173811" lon="-5.750788">
        <ele>338.0</ele>
        <time>2012-05-29T08:06:49Z</time>
      </trkpt>
      <trkpt lat="43.173683" lon="-5.750469">
        <ele>338.0</ele>
        <time>2012-05-29T08:06:53Z</time>
      </trkpt>
      <trkpt lat="43.173611" lon="-5.74994">
        <ele>337.0</ele>
        <time>2012-05-29T08:06:59Z</time>
      </trkpt>
      <trkpt lat="43.173572" lon="-5.749575">
        <ele>337.0</ele>
        <time>2012-05-29T08:07:03Z</time>
      </trkpt>
      <trkpt lat="43.17361" lon="-5.749176">
        <ele>337.0</ele>
        <time>2012-05-29T08:07:07Z</time>
      </trkpt>
      <trkpt lat="43.173668" lon="-5.748765">
        <ele>338.0</ele>
        <time>2012-05-29T08:07:11Z</time>
      </trkpt>
      <trkpt lat="43.173744" lon="-5.748358">
        <ele>339.0</ele>
        <time>2012-05-29T08:07:15Z</time>
      </trkpt>
      <trkpt lat="43.173795" lon="-5.748057">
        <ele>340.0</ele>
        <time>2012-05-29T08:07:18Z</time>
      </trkpt>
      <trkpt lat="43.173882" lon="-5.747557">
        <ele>341.0</ele>
        <time>2012-05-29T08:07:23Z</time>
      </trkpt>
      <trkpt lat="43.173906" lon="-5.747054">
        <ele>342.0</ele>
        <time>2012-05-29T08:07:28Z</time>
      </trkpt>
      <trkpt lat="43.173872" lon="-5.746766">
        <ele>342.0</ele>
        <time>2012-05-29T08:07:31Z</time>
      </trkpt>
      <trkpt lat="43.173854" lon="-5.746473">
        <ele>343.0</ele>
        <time>2012-05-29T08:07:34Z</time>
      </trkpt>
      <trkpt lat="43.173809" lon="-5.745979">
        <ele>345.0</ele>
        <time>2012-05-29T08:07:39Z</time>
      </trkpt>
      <trkpt lat="43.173731" lon="-5.74558">
        <ele>346.0</ele>
        <time>2012-05-29T08:07:43Z</time>
      </trkpt>
      <trkpt lat="43.173625" lon="-5.745185">
        <ele>347.0</ele>
        <time>2012-05-29T08:07:47Z</time>
      </trkpt>
      <trkpt lat="43.173495" lon="-5.744801">
        <ele>347.0</ele>
        <time>2012-05-29T08:07:51Z</time>
      </trkpt>
      <trkpt lat="43.173329" lon="-5.744453">
        <ele>348.0</ele>
        <time>2012-05-29T08:07:55Z</time>
      </trkpt>
      <trkpt lat="43.173105" lon="-5.744161">
        <ele>348.0</ele>
        <time>2012-05-29T08:07:59Z</time>
      </trkpt>
      <trkpt lat="43.172866" lon="-5.743875">
        <ele>348.0</ele>
        <time>2012-05-29T08:08:03Z</time>
      </trkpt>
      <trkpt lat="43.172662" lon="-5.743535">
        <ele>348.0</ele>
        <time>2012-05-29T08:08:07Z</time>
      </trkpt>
      <trkpt lat="43.17246" lon="-5.743195">
        <ele>348.0</ele>
        <time>2012-05-29T08:08:11Z</time>
      </trkpt>
      <trkpt lat="43.172228" lon="-5.742882">
        <ele>348.0</ele>
        <time>2012-05-29T08:08:15Z</time>
      </trkpt>
      <trkpt lat="43.171977" lon="-5.742638">
        <ele>348.0</ele>
        <time>2012-05-29T08:08:19Z</time>
      </trkpt>
      <trkpt lat="43.171743" lon="-5.742437">
        <ele>348.0</ele>
        <time>2012-05-29T08:08:23Z</time>
      </trkpt>
      <trkpt lat="43.171476" lon="-5.74216">
        <ele>348.0</ele>
        <time>2012-05-29T08:08:28Z</time>
      </trkpt>
      <trkpt lat="43.171425" lon="-5.742103">
        <ele>348.0</ele>
        <time>2012-05-29T08:08:29Z</time>
      </trkpt>
      <trkpt lat="43.171139" lon="-5.741669">
        <ele>351.0</ele>
        <time>2012-05-29T08:08:35Z</time>
      </trkpt>
      <trkpt lat="43.170944" lon="-5.74133">
        <ele>355.0</ele>
        <time>2012-05-29T08:08:39Z</time>
      </trkpt>
      <trkpt lat="43.170752" lon="-5.741007">
        <ele>356.0</ele>
        <time>2012-05-29T08:08:43Z</time>
      </trkpt>
      <trkpt lat="43.170644" lon="-5.740631">
        <ele>356.0</ele>
        <time>2012-05-29T08:08:47Z</time>
      </trkpt>
      <trkpt lat="43.170537" lon="-5.740261">
        <ele>355.0</ele>
        <time>2012-05-29T08:08:51Z</time>
      </trkpt>
      <trkpt lat="43.170463" lon="-5.73985">
        <ele>354.0</ele>
        <time>2012-05-29T08:08:55Z</time>
      </trkpt>
      <trkpt lat="43.170388" lon="-5.739446">
        <ele>353.0</ele>
        <time>2012-05-29T08:08:59Z</time>
      </trkpt>
      <trkpt lat="43.170299" lon="-5.739044">
        <ele>353.0</ele>
        <time>2012-05-29T08:09:03Z</time>
      </trkpt>
      <trkpt lat="43.17015" lon="-5.738567">
        <ele>353.0</ele>
        <time>2012-05-29T08:09:08Z</time>
      </trkpt>
      <trkpt lat="43.16997" lon="-5.738341">
        <ele>354.0</ele>
        <time>2012-05-29T08:09:11Z</time>
      </trkpt>
      <trkpt lat="43.169741" lon="-5.738059">
        <ele>354.0</ele>
        <time>2012-05-29T08:09:15Z</time>
      </trkpt>
      <trkpt lat="43.169441" lon="-5.73773">
        <ele>354.0</ele>
        <time>2012-05-29T08:09:20Z</time>
      </trkpt>
      <trkpt lat="43.168895" lon="-5.737426">
        <ele>354.0</ele>
        <time>2012-05-29T08:09:27Z</time>
      </trkpt>
      <trkpt lat="43.168501" lon="-5.737236">
        <ele>354.0</ele>
        <time>2012-05-29T08:09:32Z</time>
      </trkpt>
      <trkpt lat="43.168203" lon="-5.737058">
        <ele>354.0</ele>
        <time>2012-05-29T08:09:36Z</time>
      </trkpt>
      <trkpt lat="43.167984" lon="-5.736917">
        <ele>354.0</ele>
        <time>2012-05-29T08:09:39Z</time>
      </trkpt>
      <trkpt lat="43.167599" lon="-5.73671">
        <ele>354.0</ele>
        <time>2012-05-29T08:09:44Z</time>
      </trkpt>
      <trkpt lat="43.167316" lon="-5.736666">
        <ele>355.0</ele>
        <time>2012-05-29T08:09:48Z</time>
      </trkpt>
      <trkpt lat="43.167049" lon="-5.736591">
        <ele>354.0</ele>
        <time>2012-05-29T08:09:52Z</time>
      </trkpt>
      <trkpt lat="43.166855" lon="-5.736517">
        <ele>354.0</ele>
        <time>2012-05-29T08:09:55Z</time>
      </trkpt>
      <trkpt lat="43.166602" lon="-5.736407">
        <ele>354.0</ele>
        <time>2012-05-29T08:09:59Z</time>
      </trkpt>
      <trkpt lat="43.166406" lon="-5.736016">
        <ele>354.0</ele>
        <time>2012-05-29T08:10:04Z</time>
      </trkpt>
      <trkpt lat="43.166378" lon="-5.735851">
        <ele>354.0</ele>
        <time>2012-05-29T08:10:06Z</time>
      </trkpt>
      <trkpt lat="43.166603" lon="-5.735518">
        <ele>354.0</ele>
        <time>2012-05-29T08:10:12Z</time>
      </trkpt>
      <trkpt lat="43.166801" lon="-5.735264">
        <ele>354.0</ele>
        <time>2012-05-29T08:10:16Z</time>
      </trkpt>
      <trkpt lat="43.166978" lon="-5.734947">
        <ele>354.0</ele>
        <time>2012-05-29T08:10:20Z</time>
      </trkpt>
      <trkpt lat="43.167235" lon="-5.734775">
        <ele>354.0</ele>
        <time>2012-05-29T08:10:24Z</time>
      </trkpt>
      <trkpt lat="43.167483" lon="-5.734568">
        <ele>355.0</ele>
        <time>2012-05-29T08:10:28Z</time>
      </trkpt>
      <trkpt lat="43.167656" lon="-5.734383">
        <ele>356.0</ele>
        <time>2012-05-29T08:10:31Z</time>
      </trkpt>
      <trkpt lat="43.167936" lon="-5.734071">
        <ele>357.0</ele>
        <time>2012-05-29T08:10:36Z</time>
      </trkpt>
      <trkpt lat="43.168157" lon="-5.733818">
        <ele>359.0</ele>
        <time>2012-05-29T08:10:40Z</time>
      </trkpt>
      <trkpt lat="43.168472" lon="-5.733302">
        <ele>359.0</ele>
        <time>2012-05-29T08:10:47Z</time>
      </trkpt>
      <trkpt lat="43.168548" lon="-5.732908">
        <ele>358.0</ele>
        <time>2012-05-29T08:10:51Z</time>
      </trkpt>
      <trkpt lat="43.168556" lon="-5.732498">
        <ele>358.0</ele>
        <time>2012-05-29T08:10:55Z</time>
      </trkpt>
      <trkpt lat="43.168531" lon="-5.732146">
        <ele>359.0</ele>
        <time>2012-05-29T08:10:59Z</time>
      </trkpt>
      <trkpt lat="43.16845" lon="-5.731902">
        <ele>359.0</ele>
        <time>2012-05-29T08:11:02Z</time>
      </trkpt>
      <trkpt lat="43.168296" lon="-5.731542">
        <ele>360.0</ele>
        <time>2012-05-29T08:11:07Z</time>
      </trkpt>
      <trkpt lat="43.168164" lon="-5.731263">
        <ele>360.0</ele>
        <time>2012-05-29T08:11:11Z</time>
      </trkpt>
      <trkpt lat="43.168017" lon="-5.730998">
        <ele>360.0</ele>
        <time>2012-05-29T08:11:15Z</time>
      </trkpt>
      <trkpt lat="43.167834" lon="-5.730736">
        <ele>360.0</ele>
        <time>2012-05-29T08:11:19Z</time>
      </trkpt>
      <trkpt lat="43.167608" lon="-5.730527">
        <ele>359.0</ele>
        <time>2012-05-29T08:11:23Z</time>
      </trkpt>
      <trkpt lat="43.167376" lon="-5.730336">
        <ele>359.0</ele>
        <time>2012-05-29T08:11:27Z</time>
      </trkpt>
      <trkpt lat="43.16715" lon="-5.730136">
        <ele>359.0</ele>
        <time>2012-05-29T08:11:31Z</time>
      </trkpt>
      <trkpt lat="43.166974" lon="-5.729869">
        <ele>360.0</ele>
        <time>2012-05-29T08:11:35Z</time>
      </trkpt>
      <trkpt lat="43.166866" lon="-5.729549">
        <ele>362.0</ele>
        <time>2012-05-29T08:11:39Z</time>
      </trkpt>
      <trkpt lat="43.166804" lon="-5.729195">
        <ele>364.0</ele>
        <time>2012-05-29T08:11:43Z</time>
      </trkpt>
      <trkpt lat="43.166744" lon="-5.728835">
        <ele>365.0</ele>
        <time>2012-05-29T08:11:47Z</time>
      </trkpt>
      <trkpt lat="43.166686" lon="-5.728478">
        <ele>365.0</ele>
        <time>2012-05-29T08:11:51Z</time>
      </trkpt>
      <trkpt lat="43.166627" lon="-5.728119">
        <ele>364.0</ele>
        <time>2012-05-29T08:11:55Z</time>
      </trkpt>
      <trkpt lat="43.166587" lon="-5.727756">
        <ele>364.0</ele>
        <time>2012-05-29T08:11:59Z</time>
      </trkpt>
      <trkpt lat="43.166581" lon="-5.7274">
        <ele>363.0</ele>
        <time>2012-05-29T08:12:03Z</time>
      </trkpt>
      <trkpt lat="43.16658" lon="-5.727039">
        <ele>363.0</ele>
        <time>2012-05-29T08:12:07Z</time>
      </trkpt>
      <trkpt lat="43.166607" lon="-5.726678">
        <ele>363.0</ele>
        <time>2012-05-29T08:12:11Z</time>
      </trkpt>
      <trkpt lat="43.166746" lon="-5.726361">
        <ele>364.0</ele>
        <time>2012-05-29T08:12:15Z</time>
      </trkpt>
      <trkpt lat="43.166912" lon="-5.726064">
        <ele>364.0</ele>
        <time>2012-05-29T08:12:19Z</time>
      </trkpt>
      <trkpt lat="43.167055" lon="-5.725735">
        <ele>364.0</ele>
        <time>2012-05-29T08:12:23Z</time>
      </trkpt>
      <trkpt lat="43.167152" lon="-5.72538">
        <ele>365.0</ele>
        <time>2012-05-29T08:12:27Z</time>
      </trkpt>
      <trkpt lat="43.167215" lon="-5.725022">
        <ele>366.0</ele>
        <time>2012-05-29T08:12:31Z</time>
      </trkpt>
      <trkpt lat="43.167265" lon="-5.724659">
        <ele>366.0</ele>
        <time>2012-05-29T08:12:35Z</time>
      </trkpt>
      <trkpt lat="43.167295" lon="-5.724293">
        <ele>366.0</ele>
        <time>2012-05-29T08:12:39Z</time>
      </trkpt>
      <trkpt lat="43.167343" lon="-5.723929">
        <ele>366.0</ele>
        <time>2012-05-29T08:12:43Z</time>
      </trkpt>
      <trkpt lat="43.167428" lon="-5.723563">
        <ele>366.0</ele>
        <time>2012-05-29T08:12:47Z</time>
      </trkpt>
      <trkpt lat="43.167468" lon="-5.723171">
        <ele>366.0</ele>
        <time>2012-05-29T08:12:51Z</time>
      </trkpt>
      <trkpt lat="43.167426" lon="-5.722784">
        <ele>366.0</ele>
        <time>2012-05-29T08:12:55Z</time>
      </trkpt>
      <trkpt lat="43.167366" lon="-5.72241">
        <ele>367.0</ele>
        <time>2012-05-29T08:12:59Z</time>
      </trkpt>
      <trkpt lat="43.167307" lon="-5.722048">
        <ele>368.0</ele>
        <time>2012-05-29T08:13:03Z</time>
      </trkpt>
      <trkpt lat="43.167275" lon="-5.721868">
        <ele>368.0</ele>
        <time>2012-05-29T08:13:05Z</time>
      </trkpt>
      <trkpt lat="43.167199" lon="-5.721314">
        <ele>369.0</ele>
        <time>2012-05-29T08:13:11Z</time>
      </trkpt>
      <trkpt lat="43.167133" lon="-5.720957">
        <ele>369.0</ele>
        <time>2012-05-29T08:13:15Z</time>
      </trkpt>
      <trkpt lat="43.167053" lon="-5.720597">
        <ele>369.0</ele>
        <time>2012-05-29T08:13:19Z</time>
      </trkpt>
      <trkpt lat="43.166937" lon="-5.720265">
        <ele>369.0</ele>
        <time>2012-05-29T08:13:23Z</time>
      </trkpt>
      <trkpt lat="43.166849" lon="-5.719936">
        <ele>369.0</ele>
        <time>2012-05-29T08:13:27Z</time>
      </trkpt>
      <trkpt lat="43.166822" lon="-5.71958">
        <ele>370.0</ele>
        <time>2012-05-29T08:13:31Z</time>
      </trkpt>
      <trkpt lat="43.166836" lon="-5.719398">
        <ele>370.0</ele>
        <time>2012-05-29T08:13:33Z</time>
      </trkpt>
      <trkpt lat="43.167004" lon="-5.718887">
        <ele>372.0</ele>
        <time>2012-05-29T08:13:39Z</time>
      </trkpt>
      <trkpt lat="43.167055" lon="-5.718523">
        <ele>372.0</ele>
        <time>2012-05-29T08:13:43Z</time>
      </trkpt>
      <trkpt lat="43.166922" lon="-5.718228">
        <ele>373.0</ele>
        <time>2012-05-29T08:13:47Z</time>
      </trkpt>
      <trkpt lat="43.166782" lon="-5.717926">
        <ele>373.0</ele>
        <time>2012-05-29T08:13:51Z</time>
      </trkpt>
      <trkpt lat="43.166761" lon="-5.717566">
        <ele>373.0</ele>
        <time>2012-05-29T08:13:55Z</time>
      </trkpt>
      <trkpt lat="43.166829" lon="-5.717207">
        <ele>374.0</ele>
        <time>2012-05-29T08:13:59Z</time>
      </trkpt>
      <trkpt lat="43.166929" lon="-5.716861">
        <ele>374.0</ele>
        <time>2012-05-29T08:14:03Z</time>
      </trkpt>
      <trkpt lat="43.166986" lon="-5.716502">
        <ele>374.0</ele>
        <time>2012-05-29T08:14:07Z</time>
      </trkpt>
      <trkpt lat="43.16694" lon="-5.716143">
        <ele>374.0</ele>
        <time>2012-05-29T08:14:11Z</time>
      </trkpt>
      <trkpt lat="43.167013" lon="-5.715814">
        <ele>374.0</ele>
        <time>2012-05-29T08:14:15Z</time>
      </trkpt>
      <trkpt lat="43.167108" lon="-5.715562">
        <ele>374.0</ele>
        <time>2012-05-29T08:14:18Z</time>
      </trkpt>
      <trkpt lat="43.167253" lon="-5.715112">
        <ele>374.0</ele>
        <time>2012-05-29T08:14:23Z</time>
      </trkpt>
      <trkpt lat="43.167347" lon="-5.714743">
        <ele>375.0</ele>
        <time>2012-05-29T08:14:27Z</time>
      </trkpt>
      <trkpt lat="43.16741" lon="-5.714376">
        <ele>375.0</ele>
        <time>2012-05-29T08:14:31Z</time>
      </trkpt>
      <trkpt lat="43.167409" lon="-5.714006">
        <ele>376.0</ele>
        <time>2012-05-29T08:14:35Z</time>
      </trkpt>
      <trkpt lat="43.167279" lon="-5.71368">
        <ele>376.0</ele>
        <time>2012-05-29T08:14:39Z</time>
      </trkpt>
      <trkpt lat="43.167107" lon="-5.713376">
        <ele>377.0</ele>
        <time>2012-05-29T08:14:43Z</time>
      </trkpt>
      <trkpt lat="43.166986" lon="-5.71302">
        <ele>377.0</ele>
        <time>2012-05-29T08:14:47Z</time>
      </trkpt>
      <trkpt lat="43.166904" lon="-5.712637">
        <ele>377.0</ele>
        <time>2012-05-29T08:14:51Z</time>
      </trkpt>
      <trkpt lat="43.166907" lon="-5.712235">
        <ele>377.0</ele>
        <time>2012-05-29T08:14:55Z</time>
      </trkpt>
      <trkpt lat="43.167018" lon="-5.71186">
        <ele>377.0</ele>
        <time>2012-05-29T08:14:59Z</time>
      </trkpt>
      <trkpt lat="43.167236" lon="-5.711567">
        <ele>378.0</ele>
        <time>2012-05-29T08:15:03Z</time>
      </trkpt>
      <trkpt lat="43.167467" lon="-5.711299">
        <ele>378.0</ele>
        <time>2012-05-29T08:15:07Z</time>
      </trkpt>
      <trkpt lat="43.167629" lon="-5.710973">
        <ele>378.0</ele>
        <time>2012-05-29T08:15:11Z</time>
      </trkpt>
      <trkpt lat="43.167732" lon="-5.710721">
        <ele>378.0</ele>
        <time>2012-05-29T08:15:14Z</time>
      </trkpt>
      <trkpt lat="43.167837" lon="-5.71024">
        <ele>377.0</ele>
        <time>2012-05-29T08:15:19Z</time>
      </trkpt>
      <trkpt lat="43.167911" lon="-5.709852">
        <ele>378.0</ele>
        <time>2012-05-29T08:15:23Z</time>
      </trkpt>
      <trkpt lat="43.167994" lon="-5.709566">
        <ele>378.0</ele>
        <time>2012-05-29T08:15:26Z</time>
      </trkpt>
      <trkpt lat="43.168179" lon="-5.709129">
        <ele>378.0</ele>
        <time>2012-05-29T08:15:31Z</time>
      </trkpt>
      <trkpt lat="43.168341" lon="-5.7088">
        <ele>379.0</ele>
        <time>2012-05-29T08:15:35Z</time>
      </trkpt>
      <trkpt lat="43.168502" lon="-5.708468">
        <ele>379.0</ele>
        <time>2012-05-29T08:15:39Z</time>
      </trkpt>
      <trkpt lat="43.168676" lon="-5.708152">
        <ele>380.0</ele>
        <time>2012-05-29T08:15:43Z</time>
      </trkpt>
      <trkpt lat="43.16884" lon="-5.707836">
        <ele>380.0</ele>
        <time>2012-05-29T08:15:47Z</time>
      </trkpt>
      <trkpt lat="43.168995" lon="-5.707518">
        <ele>380.0</ele>
        <time>2012-05-29T08:15:51Z</time>
      </trkpt>
      <trkpt lat="43.169156" lon="-5.70721">
        <ele>380.0</ele>
        <time>2012-05-29T08:15:55Z</time>
      </trkpt>
      <trkpt lat="43.169317" lon="-5.706896">
        <ele>380.0</ele>
        <time>2012-05-29T08:15:59Z</time>
      </trkpt>
      <trkpt lat="43.169484" lon="-5.706587">
        <ele>381.0</ele>
        <time>2012-05-29T08:16:03Z</time>
      </trkpt>
      <trkpt lat="43.169645" lon="-5.706276">
        <ele>381.0</ele>
        <time>2012-05-29T08:16:07Z</time>
      </trkpt>
      <trkpt lat="43.169811" lon="-5.705952">
        <ele>382.0</ele>
        <time>2012-05-29T08:16:11Z</time>
      </trkpt>
      <trkpt lat="43.169962" lon="-5.705619">
        <ele>383.0</ele>
        <time>2012-05-29T08:16:15Z</time>
      </trkpt>
      <trkpt lat="43.170049" lon="-5.705248">
        <ele>383.0</ele>
        <time>2012-05-29T08:16:19Z</time>
      </trkpt>
      <trkpt lat="43.170078" lon="-5.704857">
        <ele>383.0</ele>
        <time>2012-05-29T08:16:23Z</time>
      </trkpt>
      <trkpt lat="43.170092" lon="-5.704468">
        <ele>384.0</ele>
        <time>2012-05-29T08:16:27Z</time>
      </trkpt>
      <trkpt lat="43.170086" lon="-5.704087">
        <ele>385.0</ele>
        <time>2012-05-29T08:16:31Z</time>
      </trkpt>
      <trkpt lat="43.170093" lon="-5.703714">
        <ele>386.0</ele>
        <time>2012-05-29T08:16:35Z</time>
      </trkpt>
      <trkpt lat="43.17012" lon="-5.703343">
        <ele>387.0</ele>
        <time>2012-05-29T08:16:39Z</time>
      </trkpt>
      <trkpt lat="43.170176" lon="-5.702973">
        <ele>387.0</ele>
        <time>2012-05-29T08:16:43Z</time>
      </trkpt>
      <trkpt lat="43.17024" lon="-5.702598">
        <ele>387.0</ele>
        <time>2012-05-29T08:16:47Z</time>
      </trkpt>
      <trkpt lat="43.170305" lon="-5.70222">
        <ele>387.0</ele>
        <time>2012-05-29T08:16:51Z</time>
      </trkpt>
      <trkpt lat="43.170316" lon="-5.70183">
        <ele>387.0</ele>
        <time>2012-05-29T08:16:55Z</time>
      </trkpt>
      <trkpt lat="43.170312" lon="-5.701439">
        <ele>387.0</ele>
        <time>2012-05-29T08:16:59Z</time>
      </trkpt>
      <trkpt lat="43.170296" lon="-5.701058">
        <ele>388.0</ele>
        <time>2012-05-29T08:17:03Z</time>
      </trkpt>
      <trkpt lat="43.170152" lon="-5.700718">
        <ele>388.0</ele>
        <time>2012-05-29T08:17:07Z</time>
      </trkpt>
      <trkpt lat="43.169975" lon="-5.700401">
        <ele>389.0</ele>
        <time>2012-05-29T08:17:11Z</time>
      </trkpt>
      <trkpt lat="43.169903" lon="-5.70002">
        <ele>390.0</ele>
        <time>2012-05-29T08:17:15Z</time>
      </trkpt>
      <trkpt lat="43.169885" lon="-5.699637">
        <ele>390.0</ele>
        <time>2012-05-29T08:17:19Z</time>
      </trkpt>
      <trkpt lat="43.169907" lon="-5.699278">
        <ele>390.0</ele>
        <time>2012-05-29T08:17:23Z</time>
      </trkpt>
      <trkpt lat="43.169978" lon="-5.69893">
        <ele>389.0</ele>
        <time>2012-05-29T08:17:27Z</time>
      </trkpt>
      <trkpt lat="43.170002" lon="-5.698561">
        <ele>389.0</ele>
        <time>2012-05-29T08:17:31Z</time>
      </trkpt>
      <trkpt lat="43.16992" lon="-5.698215">
        <ele>389.0</ele>
        <time>2012-05-29T08:17:35Z</time>
      </trkpt>
      <trkpt lat="43.169815" lon="-5.698005">
        <ele>390.0</ele>
        <time>2012-05-29T08:17:38Z</time>
      </trkpt>
      <trkpt lat="43.169729" lon="-5.697722">
        <ele>391.0</ele>
        <time>2012-05-29T08:17:42Z</time>
      </trkpt>
      <trkpt lat="43.169759" lon="-5.697274">
        <ele>392.0</ele>
        <time>2012-05-29T08:17:47Z</time>
      </trkpt>
      <trkpt lat="43.169652" lon="-5.696944">
        <ele>392.0</ele>
        <time>2012-05-29T08:17:51Z</time>
      </trkpt>
      <trkpt lat="43.169531" lon="-5.696741">
        <ele>393.0</ele>
        <time>2012-05-29T08:17:54Z</time>
      </trkpt>
      <trkpt lat="43.169333" lon="-5.696409">
        <ele>394.0</ele>
        <time>2012-05-29T08:17:59Z</time>
      </trkpt>
      <trkpt lat="43.169157" lon="-5.696152">
        <ele>394.0</ele>
        <time>2012-05-29T08:18:03Z</time>
      </trkpt>
      <trkpt lat="43.16897" lon="-5.69591">
        <ele>395.0</ele>
        <time>2012-05-29T08:18:07Z</time>
      </trkpt>
      <trkpt lat="43.16878" lon="-5.695656">
        <ele>394.0</ele>
        <time>2012-05-29T08:18:11Z</time>
      </trkpt>
      <trkpt lat="43.168585" lon="-5.695385">
        <ele>394.0</ele>
        <time>2012-05-29T08:18:15Z</time>
      </trkpt>
      <trkpt lat="43.16849" lon="-5.695244">
        <ele>394.0</ele>
        <time>2012-05-29T08:18:17Z</time>
      </trkpt>
      <trkpt lat="43.168189" lon="-5.694855">
        <ele>394.0</ele>
        <time>2012-05-29T08:18:23Z</time>
      </trkpt>
      <trkpt lat="43.168036" lon="-5.694675">
        <ele>394.0</ele>
        <time>2012-05-29T08:18:26Z</time>
      </trkpt>
      <trkpt lat="43.167876" lon="-5.694262">
        <ele>395.0</ele>
        <time>2012-05-29T08:18:31Z</time>
      </trkpt>
      <trkpt lat="43.167817" lon="-5.694082">
        <ele>396.0</ele>
        <time>2012-05-29T08:18:33Z</time>
      </trkpt>
      <trkpt lat="43.167725" lon="-5.69352">
        <ele>398.0</ele>
        <time>2012-05-29T08:18:39Z</time>
      </trkpt>
      <trkpt lat="43.16773" lon="-5.693124">
        <ele>399.0</ele>
        <time>2012-05-29T08:18:43Z</time>
      </trkpt>
      <trkpt lat="43.16786" lon="-5.692772">
        <ele>400.0</ele>
        <time>2012-05-29T08:18:47Z</time>
      </trkpt>
      <trkpt lat="43.168024" lon="-5.692447">
        <ele>399.0</ele>
        <time>2012-05-29T08:18:51Z</time>
      </trkpt>
      <trkpt lat="43.168125" lon="-5.692177">
        <ele>400.0</ele>
        <time>2012-05-29T08:18:54Z</time>
      </trkpt>
      <trkpt lat="43.168226" lon="-5.6917">
        <ele>400.0</ele>
        <time>2012-05-29T08:18:59Z</time>
      </trkpt>
      <trkpt lat="43.168171" lon="-5.691313">
        <ele>400.0</ele>
        <time>2012-05-29T08:19:03Z</time>
      </trkpt>
      <trkpt lat="43.168155" lon="-5.690933">
        <ele>401.0</ele>
        <time>2012-05-29T08:19:07Z</time>
      </trkpt>
      <trkpt lat="43.168243" lon="-5.690674">
        <ele>401.0</ele>
        <time>2012-05-29T08:19:10Z</time>
      </trkpt>
      <trkpt lat="43.168383" lon="-5.690236">
        <ele>401.0</ele>
        <time>2012-05-29T08:19:15Z</time>
      </trkpt>
      <trkpt lat="43.168395" lon="-5.689864">
        <ele>401.0</ele>
        <time>2012-05-29T08:19:19Z</time>
      </trkpt>
      <trkpt lat="43.16825" lon="-5.68953">
        <ele>402.0</ele>
        <time>2012-05-29T08:19:23Z</time>
      </trkpt>
      <trkpt lat="43.168046" lon="-5.689238">
        <ele>402.0</ele>
        <time>2012-05-29T08:19:27Z</time>
      </trkpt>
      <trkpt lat="43.167873" lon="-5.689049">
        <ele>403.0</ele>
        <time>2012-05-29T08:19:30Z</time>
      </trkpt>
      <trkpt lat="43.167591" lon="-5.688746">
        <ele>403.0</ele>
        <time>2012-05-29T08:19:35Z</time>
      </trkpt>
      <trkpt lat="43.167371" lon="-5.688499">
        <ele>403.0</ele>
        <time>2012-05-29T08:19:39Z</time>
      </trkpt>
      <trkpt lat="43.167156" lon="-5.688243">
        <ele>403.0</ele>
        <time>2012-05-29T08:19:43Z</time>
      </trkpt>
      <trkpt lat="43.166939" lon="-5.68799">
        <ele>403.0</ele>
        <time>2012-05-29T08:19:47Z</time>
      </trkpt>
      <trkpt lat="43.167011" lon="-5.687509">
        <ele>402.0</ele>
        <time>2012-05-29T08:19:51Z</time>
      </trkpt>
      <trkpt lat="43.167217" lon="-5.687081">
        <ele>402.0</ele>
        <time>2012-05-29T08:19:55Z</time>
      </trkpt>
      <trkpt lat="43.167371" lon="-5.686686">
        <ele>401.0</ele>
        <time>2012-05-29T08:19:59Z</time>
      </trkpt>
      <trkpt lat="43.16742" lon="-5.686291">
        <ele>402.0</ele>
        <time>2012-05-29T08:20:03Z</time>
      </trkpt>
      <trkpt lat="43.167335" lon="-5.685921">
        <ele>404.0</ele>
        <time>2012-05-29T08:20:07Z</time>
      </trkpt>
      <trkpt lat="43.167207" lon="-5.685583">
        <ele>405.0</ele>
        <time>2012-05-29T08:20:11Z</time>
      </trkpt>
      <trkpt lat="43.167068" lon="-5.685237">
        <ele>406.0</ele>
        <time>2012-05-29T08:20:15Z</time>
      </trkpt>
      <trkpt lat="43.166904" lon="-5.684907">
        <ele>406.0</ele>
        <time>2012-05-29T08:20:19Z</time>
      </trkpt>
      <trkpt lat="43.166725" lon="-5.684593">
        <ele>407.0</ele>
        <time>2012-05-29T08:20:23Z</time>
      </trkpt>
      <trkpt lat="43.166552" lon="-5.68428">
        <ele>408.0</ele>
        <time>2012-05-29T08:20:27Z</time>
      </trkpt>
      <trkpt lat="43.166418" lon="-5.684048">
        <ele>409.0</ele>
        <time>2012-05-29T08:20:30Z</time>
      </trkpt>
      <trkpt lat="43.166208" lon="-5.683651">
        <ele>409.0</ele>
        <time>2012-05-29T08:20:35Z</time>
      </trkpt>
      <trkpt lat="43.166083" lon="-5.683408">
        <ele>409.0</ele>
        <time>2012-05-29T08:20:38Z</time>
      </trkpt>
      <trkpt lat="43.165851" lon="-5.683019">
        <ele>411.0</ele>
        <time>2012-05-29T08:20:43Z</time>
      </trkpt>
      <trkpt lat="43.16571" lon="-5.682686">
        <ele>412.0</ele>
        <time>2012-05-29T08:20:47Z</time>
      </trkpt>
      <trkpt lat="43.165689" lon="-5.682321">
        <ele>413.0</ele>
        <time>2012-05-29T08:20:51Z</time>
      </trkpt>
      <trkpt lat="43.165702" lon="-5.681935">
        <ele>413.0</ele>
        <time>2012-05-29T08:20:55Z</time>
      </trkpt>
      <trkpt lat="43.165727" lon="-5.681535">
        <ele>413.0</ele>
        <time>2012-05-29T08:20:59Z</time>
      </trkpt>
      <trkpt lat="43.165789" lon="-5.681155">
        <ele>414.0</ele>
        <time>2012-05-29T08:21:03Z</time>
      </trkpt>
      <trkpt lat="43.165866" lon="-5.680784">
        <ele>414.0</ele>
        <time>2012-05-29T08:21:07Z</time>
      </trkpt>
      <trkpt lat="43.165948" lon="-5.680425">
        <ele>414.0</ele>
        <time>2012-05-29T08:21:11Z</time>
      </trkpt>
      <trkpt lat="43.166031" lon="-5.680072">
        <ele>415.0</ele>
        <time>2012-05-29T08:21:15Z</time>
      </trkpt>
      <trkpt lat="43.165886" lon="-5.679805">
        <ele>414.0</ele>
        <time>2012-05-29T08:21:19Z</time>
      </trkpt>
      <trkpt lat="43.165617" lon="-5.679777">
        <ele>414.0</ele>
        <time>2012-05-29T08:21:23Z</time>
      </trkpt>
      <trkpt lat="43.165362" lon="-5.679887">
        <ele>415.0</ele>
        <time>2012-05-29T08:21:27Z</time>
      </trkpt>
      <trkpt lat="43.165143" lon="-5.680093">
        <ele>415.0</ele>
        <time>2012-05-29T08:21:31Z</time>
      </trkpt>
      <trkpt lat="43.164952" lon="-5.68035">
        <ele>415.0</ele>
        <time>2012-05-29T08:21:35Z</time>
      </trkpt>
      <trkpt lat="43.164767" lon="-5.680608">
        <ele>416.0</ele>
        <time>2012-05-29T08:21:39Z</time>
      </trkpt>
      <trkpt lat="43.164596" lon="-5.680877">
        <ele>417.0</ele>
        <time>2012-05-29T08:21:43Z</time>
      </trkpt>
      <trkpt lat="43.164547" lon="-5.681222">
        <ele>418.0</ele>
        <time>2012-05-29T08:21:47Z</time>
      </trkpt>
      <trkpt lat="43.164369" lon="-5.681431">
        <ele>418.0</ele>
        <time>2012-05-29T08:21:51Z</time>
      </trkpt>
      <trkpt lat="43.164176" lon="-5.681388">
        <ele>419.0</ele>
        <time>2012-05-29T08:21:54Z</time>
      </trkpt>
      <trkpt lat="43.163991" lon="-5.681675">
        <ele>420.0</ele>
        <time>2012-05-29T08:21:59Z</time>
      </trkpt>
      <trkpt lat="43.164048" lon="-5.681927">
        <ele>420.0</ele>
        <time>2012-05-29T08:22:03Z</time>
      </trkpt>
      <trkpt lat="43.164368" lon="-5.682431">
        <ele>420.0</ele>
        <time>2012-05-29T08:22:11Z</time>
      </trkpt>
      <trkpt lat="43.164489" lon="-5.682812">
        <ele>421.0</ele>
        <time>2012-05-29T08:22:15Z</time>
      </trkpt>
      <trkpt lat="43.164602" lon="-5.683248">
        <ele>421.0</ele>
        <time>2012-05-29T08:22:19Z</time>
      </trkpt>
      <trkpt lat="43.164706" lon="-5.68368">
        <ele>421.0</ele>
        <time>2012-05-29T08:22:23Z</time>
      </trkpt>
      <trkpt lat="43.164773" lon="-5.684075">
        <ele>421.0</ele>
        <time>2012-05-29T08:22:27Z</time>
      </trkpt>
      <trkpt lat="43.164812" lon="-5.684318">
        <ele>421.0</ele>
        <time>2012-05-29T08:22:30Z</time>
      </trkpt>
      <trkpt lat="43.164842" lon="-5.684622">
        <ele>421.0</ele>
        <time>2012-05-29T08:22:34Z</time>
      </trkpt>
      <trkpt lat="43.164854" lon="-5.68494">
        <ele>422.0</ele>
        <time>2012-05-29T08:22:38Z</time>
      </trkpt>
      <trkpt lat="43.16484" lon="-5.685364">
        <ele>423.0</ele>
        <time>2012-05-29T08:22:43Z</time>
      </trkpt>
      <trkpt lat="43.164823" lon="-5.685718">
        <ele>423.0</ele>
        <time>2012-05-29T08:22:47Z</time>
      </trkpt>
      <trkpt lat="43.164804" lon="-5.686073">
        <ele>423.0</ele>
        <time>2012-05-29T08:22:51Z</time>
      </trkpt>
      <trkpt lat="43.164784" lon="-5.68648">
        <ele>423.0</ele>
        <time>2012-05-29T08:22:55Z</time>
      </trkpt>
      <trkpt lat="43.164772" lon="-5.686917">
        <ele>423.0</ele>
        <time>2012-05-29T08:22:59Z</time>
      </trkpt>
      <trkpt lat="43.164735" lon="-5.687266">
        <ele>423.0</ele>
        <time>2012-05-29T08:23:03Z</time>
      </trkpt>
      <trkpt lat="43.16465" lon="-5.687493">
        <ele>424.0</ele>
        <time>2012-05-29T08:23:07Z</time>
      </trkpt>
      <trkpt lat="43.164538" lon="-5.687682">
        <ele>424.0</ele>
        <time>2012-05-29T08:23:11Z</time>
      </trkpt>
      <trkpt lat="43.164425" lon="-5.687873">
        <ele>424.0</ele>
        <time>2012-05-29T08:23:15Z</time>
      </trkpt>
      <trkpt lat="43.164382" lon="-5.688076">
        <ele>425.0</ele>
        <time>2012-05-29T08:23:19Z</time>
      </trkpt>
      <trkpt lat="43.164581" lon="-5.6884">
        <ele>426.0</ele>
        <time>2012-05-29T08:23:27Z</time>
      </trkpt>
      <trkpt lat="43.164699" lon="-5.68851">
        <ele>426.0</ele>
        <time>2012-05-29T08:23:31Z</time>
      </trkpt>
      <trkpt lat="43.164824" lon="-5.688591">
        <ele>426.0</ele>
        <time>2012-05-29T08:23:35Z</time>
      </trkpt>
      <trkpt lat="43.164932" lon="-5.688703">
        <ele>426.0</ele>
        <time>2012-05-29T08:23:39Z</time>
      </trkpt>
      <trkpt lat="43.164971" lon="-5.688839">
        <ele>426.0</ele>
        <time>2012-05-29T08:23:42Z</time>
      </trkpt>
      <trkpt lat="43.165014" lon="-5.689085">
        <ele>425.0</ele>
        <time>2012-05-29T08:23:46Z</time>
      </trkpt>
      <trkpt lat="43.164993" lon="-5.689333">
        <ele>424.0</ele>
        <time>2012-05-29T08:23:50Z</time>
      </trkpt>
      <trkpt lat="43.164944" lon="-5.689576">
        <ele>424.0</ele>
        <time>2012-05-29T08:23:54Z</time>
      </trkpt>
      <trkpt lat="43.164896" lon="-5.689786">
        <ele>424.0</ele>
        <time>2012-05-29T08:23:58Z</time>
      </trkpt>
      <trkpt lat="43.164846" lon="-5.689982">
        <ele>424.0</ele>
        <time>2012-05-29T08:24:02Z</time>
      </trkpt>
      <trkpt lat="43.164798" lon="-5.690166">
        <ele>425.0</ele>
        <time>2012-05-29T08:24:06Z</time>
      </trkpt>
      <trkpt lat="43.164741" lon="-5.690349">
        <ele>425.0</ele>
        <time>2012-05-29T08:24:10Z</time>
      </trkpt>
      <trkpt lat="43.164656" lon="-5.690501">
        <ele>426.0</ele>
        <time>2012-05-29T08:24:14Z</time>
      </trkpt>
      <trkpt lat="43.164603" lon="-5.690575">
        <ele>428.0</ele>
        <time>2012-05-29T08:24:16Z</time>
      </trkpt>
      <trkpt lat="43.164535" lon="-5.69084">
        <ele>430.0</ele>
        <time>2012-05-29T08:24:22Z</time>
      </trkpt>
      <trkpt lat="43.164551" lon="-5.691017">
        <ele>430.0</ele>
        <time>2012-05-29T08:24:26Z</time>
      </trkpt>
      <trkpt lat="43.16461" lon="-5.691389">
        <ele>431.0</ele>
        <time>2012-05-29T08:24:34Z</time>
      </trkpt>
      <trkpt lat="43.16463" lon="-5.691579">
        <ele>431.0</ele>
        <time>2012-05-29T08:24:38Z</time>
      </trkpt>
      <trkpt lat="43.16463" lon="-5.691579">
        <time>2012-05-29T08:24:49Z</time>
      </trkpt>
    </trkseg>
    <trkseg>
      <trkpt lat="43.16463" lon="-5.691579">
        <time>2012-05-29T08:24:51Z</time>
      </trkpt>
      <trkpt lat="43.164193" lon="-5.690843">
        <ele>431.0</ele>
        <time>2012-05-29T08:24:53Z</time>
      </trkpt>
      <trkpt lat="43.164202" lon="-5.690587">
        <ele>432.0</ele>
        <time>2012-05-29T08:24:57Z</time>
      </trkpt>
      <trkpt lat="43.164287" lon="-5.690392">
        <ele>434.0</ele>
        <time>2012-05-29T08:25:01Z</time>
      </trkpt>
      <trkpt lat="43.164387" lon="-5.690211">
        <ele>436.0</ele>
        <time>2012-05-29T08:25:05Z</time>
      </trkpt>
      <trkpt lat="43.164473" lon="-5.690029">
        <ele>436.0</ele>
        <time>2012-05-29T08:25:09Z</time>
      </trkpt>
      <trkpt lat="43.164546" lon="-5.68985">
        <ele>437.0</ele>
        <time>2012-05-29T08:25:13Z</time>
      </trkpt>
      <trkpt lat="43.164597" lon="-5.689666">
        <ele>437.0</ele>
        <time>2012-05-29T08:25:17Z</time>
      </trkpt>
      <trkpt lat="43.164621" lon="-5.68948">
        <ele>437.0</ele>
        <time>2012-05-29T08:25:21Z</time>
      </trkpt>
      <trkpt lat="43.164631" lon="-5.689301">
        <ele>437.0</ele>
        <time>2012-05-29T08:25:25Z</time>
      </trkpt>
      <trkpt lat="43.164598" lon="-5.689128">
        <ele>438.0</ele>
        <time>2012-05-29T08:25:29Z</time>
      </trkpt>
      <trkpt lat="43.164383" lon="-5.68893">
        <ele>438.0</ele>
        <time>2012-05-29T08:25:37Z</time>
      </trkpt>
      <trkpt lat="43.164241" lon="-5.688924">
        <ele>438.0</ele>
        <time>2012-05-29T08:25:41Z</time>
      </trkpt>
      <trkpt lat="43.16409" lon="-5.688901">
        <ele>438.0</ele>
        <time>2012-05-29T08:25:45Z</time>
      </trkpt>
      <trkpt lat="43.16393" lon="-5.688876">
        <ele>438.0</ele>
        <time>2012-05-29T08:25:49Z</time>
      </trkpt>
      <trkpt lat="43.163779" lon="-5.688854">
        <ele>438.0</ele>
        <time>2012-05-29T08:25:53Z</time>
      </trkpt>
      <trkpt lat="43.163634" lon="-5.688822">
        <ele>439.0</ele>
        <time>2012-05-29T08:25:57Z</time>
      </trkpt>
      <trkpt lat="43.163498" lon="-5.68878">
        <ele>439.0</ele>
        <time>2012-05-29T08:26:01Z</time>
      </trkpt>
      <trkpt lat="43.163355" lon="-5.688717">
        <ele>439.0</ele>
        <time>2012-05-29T08:26:05Z</time>
      </trkpt>
      <trkpt lat="43.16322" lon="-5.688659">
        <ele>440.0</ele>
        <time>2012-05-29T08:26:09Z</time>
      </trkpt>
      <trkpt lat="43.163085" lon="-5.688589">
        <ele>440.0</ele>
        <time>2012-05-29T08:26:13Z</time>
      </trkpt>
      <trkpt lat="43.162959" lon="-5.688503">
        <ele>440.0</ele>
        <time>2012-05-29T08:26:17Z</time>
      </trkpt>
      <trkpt lat="43.162831" lon="-5.688409">
        <ele>440.0</ele>
        <time>2012-05-29T08:26:21Z</time>
      </trkpt>
      <trkpt lat="43.162713" lon="-5.688312">
        <ele>441.0</ele>
        <time>2012-05-29T08:26:25Z</time>
      </trkpt>
      <trkpt lat="43.162603" lon="-5.688224">
        <ele>441.0</ele>
        <time>2012-05-29T08:26:29Z</time>
      </trkpt>
      <trkpt lat="43.162439" lon="-5.688101">
        <ele>441.0</ele>
        <time>2012-05-29T08:26:35Z</time>
      </trkpt>
      <trkpt lat="43.162278" lon="-5.687973">
        <ele>441.0</ele>
        <time>2012-05-29T08:26:41Z</time>
      </trkpt>
      <trkpt lat="43.162214" lon="-5.687867">
        <ele>441.0</ele>
        <time>2012-05-29T08:26:44Z</time>
      </trkpt>
      <trkpt lat="43.162166" lon="-5.687739">
        <ele>441.0</ele>
        <time>2012-05-29T08:26:46Z</time>
      </trkpt>
      <trkpt lat="43.162054" lon="-5.687581">
        <ele>442.0</ele>
        <time>2012-05-29T08:26:51Z</time>
      </trkpt>
      <trkpt lat="43.161991" lon="-5.687498">
        <ele>442.0</ele>
        <time>2012-05-29T08:26:54Z</time>
      </trkpt>
      <trkpt lat="43.161861" lon="-5.687393">
        <ele>441.0</ele>
        <time>2012-05-29T08:27:00Z</time>
      </trkpt>
      <trkpt lat="43.161778" lon="-5.687357">
        <ele>440.0</ele>
        <time>2012-05-29T08:27:04Z</time>
      </trkpt>
      <trkpt lat="43.161623" lon="-5.687326">
        <ele>440.0</ele>
        <time>2012-05-29T08:27:09Z</time>
      </trkpt>
      <trkpt lat="43.161557" lon="-5.687313">
        <ele>440.0</ele>
        <time>2012-05-29T08:27:11Z</time>
      </trkpt>
      <trkpt lat="43.161347" lon="-5.687289">
        <ele>440.0</ele>
        <time>2012-05-29T08:27:17Z</time>
      </trkpt>
      <trkpt lat="43.161199" lon="-5.687249">
        <ele>440.0</ele>
        <time>2012-05-29T08:27:21Z</time>
      </trkpt>
      <trkpt lat="43.161098" lon="-5.687094">
        <ele>441.0</ele>
        <time>2012-05-29T08:27:25Z</time>
      </trkpt>
      <trkpt lat="43.161099" lon="-5.687007">
        <ele>441.0</ele>
        <time>2012-05-29T08:27:27Z</time>
      </trkpt>
      <trkpt lat="43.161201" lon="-5.686634">
        <ele>442.0</ele>
        <time>2012-05-29T08:27:36Z</time>
      </trkpt>
      <trkpt lat="43.161279" lon="-5.686459">
        <ele>443.0</ele>
        <time>2012-05-29T08:27:40Z</time>
      </trkpt>
      <trkpt lat="43.161388" lon="-5.686306">
        <ele>444.0</ele>
        <time>2012-05-29T08:27:44Z</time>
      </trkpt>
      <trkpt lat="43.161507" lon="-5.686124">
        <ele>446.0</ele>
        <time>2012-05-29T08:27:48Z</time>
      </trkpt>
      <trkpt lat="43.161638" lon="-5.685926">
        <ele>448.0</ele>
        <time>2012-05-29T08:27:52Z</time>
      </trkpt>
      <trkpt lat="43.161691" lon="-5.685822">
        <ele>449.0</ele>
        <time>2012-05-29T08:27:54Z</time>
      </trkpt>
      <trkpt lat="43.161814" lon="-5.685534">
        <ele>453.0</ele>
        <time>2012-05-29T08:28:00Z</time>
      </trkpt>
      <trkpt lat="43.161882" lon="-5.68536">
        <ele>455.0</ele>
        <time>2012-05-29T08:28:04Z</time>
      </trkpt>
      <trkpt lat="43.161999" lon="-5.685012">
        <ele>460.0</ele>
        <time>2012-05-29T08:28:12Z</time>
      </trkpt>
      <trkpt lat="43.161999" lon="-5.684922">
        <ele>460.0</ele>
        <time>2012-05-29T08:28:14Z</time>
      </trkpt>
      <trkpt lat="43.161944" lon="-5.684759">
        <ele>462.0</ele>
        <time>2012-05-29T08:28:18Z</time>
      </trkpt>
      <trkpt lat="43.161734" lon="-5.684661">
        <ele>465.0</ele>
        <time>2012-05-29T08:28:24Z</time>
      </trkpt>
      <trkpt lat="43.161571" lon="-5.684724">
        <ele>466.0</ele>
        <time>2012-05-29T08:28:28Z</time>
      </trkpt>
      <trkpt lat="43.161415" lon="-5.684802">
        <ele>468.0</ele>
        <time>2012-05-29T08:28:32Z</time>
      </trkpt>
      <trkpt lat="43.161243" lon="-5.684863">
        <ele>469.0</ele>
        <time>2012-05-29T08:28:36Z</time>
      </trkpt>
      <trkpt lat="43.161066" lon="-5.684884">
        <ele>470.0</ele>
        <time>2012-05-29T08:28:40Z</time>
      </trkpt>
      <trkpt lat="43.160896" lon="-5.684871">
        <ele>471.0</ele>
        <time>2012-05-29T08:28:44Z</time>
      </trkpt>
      <trkpt lat="43.160745" lon="-5.68483">
        <ele>472.0</ele>
        <time>2012-05-29T08:28:48Z</time>
      </trkpt>
      <trkpt lat="43.160602" lon="-5.684776">
        <ele>472.0</ele>
        <time>2012-05-29T08:28:52Z</time>
      </trkpt>
      <trkpt lat="43.160474" lon="-5.684703">
        <ele>473.0</ele>
        <time>2012-05-29T08:28:56Z</time>
      </trkpt>
      <trkpt lat="43.160352" lon="-5.684623">
        <ele>473.0</ele>
        <time>2012-05-29T08:29:00Z</time>
      </trkpt>
      <trkpt lat="43.160228" lon="-5.684536">
        <ele>474.0</ele>
        <time>2012-05-29T08:29:04Z</time>
      </trkpt>
      <trkpt lat="43.160099" lon="-5.684469">
        <ele>474.0</ele>
        <time>2012-05-29T08:29:08Z</time>
      </trkpt>
      <trkpt lat="43.15997" lon="-5.684407">
        <ele>474.0</ele>
        <time>2012-05-29T08:29:12Z</time>
      </trkpt>
      <trkpt lat="43.159835" lon="-5.684366">
        <ele>474.0</ele>
        <time>2012-05-29T08:29:16Z</time>
      </trkpt>
      <trkpt lat="43.159693" lon="-5.684331">
        <ele>474.0</ele>
        <time>2012-05-29T08:29:20Z</time>
      </trkpt>
      <trkpt lat="43.159548" lon="-5.684321">
        <ele>474.0</ele>
        <time>2012-05-29T08:29:24Z</time>
      </trkpt>
      <trkpt lat="43.159399" lon="-5.684317">
        <ele>474.0</ele>
        <time>2012-05-29T08:29:28Z</time>
      </trkpt>
      <trkpt lat="43.15925" lon="-5.684281">
        <ele>475.0</ele>
        <time>2012-05-29T08:29:32Z</time>
      </trkpt>
      <trkpt lat="43.159114" lon="-5.684177">
        <ele>475.0</ele>
        <time>2012-05-29T08:29:36Z</time>
      </trkpt>
      <trkpt lat="43.159086" lon="-5.683811">
        <ele>475.0</ele>
        <time>2012-05-29T08:29:45Z</time>
      </trkpt>
      <trkpt lat="43.159159" lon="-5.683621">
        <ele>475.0</ele>
        <time>2012-05-29T08:29:49Z</time>
      </trkpt>
      <trkpt lat="43.159289" lon="-5.683396">
        <ele>476.0</ele>
        <time>2012-05-29T08:29:53Z</time>
      </trkpt>
      <trkpt lat="43.159418" lon="-5.683201">
        <ele>478.0</ele>
        <time>2012-05-29T08:29:57Z</time>
      </trkpt>
      <trkpt lat="43.159517" lon="-5.683031">
        <ele>479.0</ele>
        <time>2012-05-29T08:30:01Z</time>
      </trkpt>
      <trkpt lat="43.159611" lon="-5.682853">
        <ele>480.0</ele>
        <time>2012-05-29T08:30:05Z</time>
      </trkpt>
      <trkpt lat="43.159708" lon="-5.682667">
        <ele>481.0</ele>
        <time>2012-05-29T08:30:09Z</time>
      </trkpt>
      <trkpt lat="43.159767" lon="-5.682563">
        <ele>482.0</ele>
        <time>2012-05-29T08:30:11Z</time>
      </trkpt>
      <trkpt lat="43.159878" lon="-5.68237">
        <ele>483.0</ele>
        <time>2012-05-29T08:30:15Z</time>
      </trkpt>
      <trkpt lat="43.160042" lon="-5.682015">
        <ele>486.0</ele>
        <time>2012-05-29T08:30:21Z</time>
      </trkpt>
      <trkpt lat="43.160098" lon="-5.681905">
        <ele>486.0</ele>
        <time>2012-05-29T08:30:23Z</time>
      </trkpt>
      <trkpt lat="43.160245" lon="-5.6816">
        <ele>488.0</ele>
        <time>2012-05-29T08:30:29Z</time>
      </trkpt>
      <trkpt lat="43.160323" lon="-5.681418">
        <ele>488.0</ele>
        <time>2012-05-29T08:30:33Z</time>
      </trkpt>
      <trkpt lat="43.160354" lon="-5.681331">
        <ele>489.0</ele>
        <time>2012-05-29T08:30:35Z</time>
      </trkpt>
      <trkpt lat="43.160429" lon="-5.681074">
        <ele>490.0</ele>
        <time>2012-05-29T08:30:41Z</time>
      </trkpt>
      <trkpt lat="43.16045" lon="-5.680992">
        <ele>490.0</ele>
        <time>2012-05-29T08:30:43Z</time>
      </trkpt>
      <trkpt lat="43.160494" lon="-5.680788">
        <ele>491.0</ele>
        <time>2012-05-29T08:30:48Z</time>
      </trkpt>
      <trkpt lat="43.160507" lon="-5.680672">
        <ele>492.0</ele>
        <time>2012-05-29T08:30:51Z</time>
      </trkpt>
      <trkpt lat="43.160464" lon="-5.680467">
        <ele>493.0</ele>
        <time>2012-05-29T08:30:57Z</time>
      </trkpt>
      <trkpt lat="43.160429" lon="-5.680359">
        <ele>494.0</ele>
        <time>2012-05-29T08:31:00Z</time>
      </trkpt>
      <trkpt lat="43.160399" lon="-5.680247">
        <ele>494.0</ele>
        <time>2012-05-29T08:31:03Z</time>
      </trkpt>
      <trkpt lat="43.160347" lon="-5.680043">
        <ele>495.0</ele>
        <time>2012-05-29T08:31:08Z</time>
      </trkpt>
      <trkpt lat="43.160275" lon="-5.679879">
        <ele>496.0</ele>
        <time>2012-05-29T08:31:12Z</time>
      </trkpt>
      <trkpt lat="43.160223" lon="-5.679701">
        <ele>497.0</ele>
        <time>2012-05-29T08:31:17Z</time>
      </trkpt>
      <trkpt lat="43.16018" lon="-5.679589">
        <ele>497.0</ele>
        <time>2012-05-29T08:31:20Z</time>
      </trkpt>
      <trkpt lat="43.160113" lon="-5.679503">
        <ele>498.0</ele>
        <time>2012-05-29T08:31:23Z</time>
      </trkpt>
      <trkpt lat="43.159924" lon="-5.679423">
        <ele>499.0</ele>
        <time>2012-05-29T08:31:29Z</time>
      </trkpt>
      <trkpt lat="43.159775" lon="-5.679415">
        <ele>500.0</ele>
        <time>2012-05-29T08:31:33Z</time>
      </trkpt>
      <trkpt lat="43.159696" lon="-5.679418">
        <ele>500.0</ele>
        <time>2012-05-29T08:31:35Z</time>
      </trkpt>
      <trkpt lat="43.159446" lon="-5.679455">
        <ele>501.0</ele>
        <time>2012-05-29T08:31:41Z</time>
      </trkpt>
      <trkpt lat="43.159254" lon="-5.679525">
        <ele>502.0</ele>
        <time>2012-05-29T08:31:45Z</time>
      </trkpt>
      <trkpt lat="43.15906" lon="-5.679588">
        <ele>504.0</ele>
        <time>2012-05-29T08:31:49Z</time>
      </trkpt>
      <trkpt lat="43.15883" lon="-5.679637">
        <ele>504.0</ele>
        <time>2012-05-29T08:31:53Z</time>
      </trkpt>
      <trkpt lat="43.158655" lon="-5.679668">
        <ele>504.0</ele>
        <time>2012-05-29T08:31:57Z</time>
      </trkpt>
      <trkpt lat="43.158479" lon="-5.679695">
        <ele>505.0</ele>
        <time>2012-05-29T08:32:01Z</time>
      </trkpt>
      <trkpt lat="43.158288" lon="-5.679764">
        <ele>507.0</ele>
        <time>2012-05-29T08:32:05Z</time>
      </trkpt>
      <trkpt lat="43.158098" lon="-5.679835">
        <ele>510.0</ele>
        <time>2012-05-29T08:32:09Z</time>
      </trkpt>
      <trkpt lat="43.157929" lon="-5.679833">
        <ele>512.0</ele>
        <time>2012-05-29T08:32:13Z</time>
      </trkpt>
      <trkpt lat="43.157773" lon="-5.679751">
        <ele>512.0</ele>
        <time>2012-05-29T08:32:17Z</time>
      </trkpt>
      <trkpt lat="43.157633" lon="-5.679665">
        <ele>513.0</ele>
        <time>2012-05-29T08:32:21Z</time>
      </trkpt>
      <trkpt lat="43.157509" lon="-5.67957">
        <ele>514.0</ele>
        <time>2012-05-29T08:32:25Z</time>
      </trkpt>
      <trkpt lat="43.157389" lon="-5.679497">
        <ele>514.0</ele>
        <time>2012-05-29T08:32:29Z</time>
      </trkpt>
      <trkpt lat="43.157303" lon="-5.67945">
        <ele>514.0</ele>
        <time>2012-05-29T08:32:32Z</time>
      </trkpt>
      <trkpt lat="43.157184" lon="-5.679379">
        <ele>514.0</ele>
        <time>2012-05-29T08:32:36Z</time>
      </trkpt>
      <trkpt lat="43.157058" lon="-5.679319">
        <ele>514.0</ele>
        <time>2012-05-29T08:32:40Z</time>
      </trkpt>
      <trkpt lat="43.156919" lon="-5.67927">
        <ele>514.0</ele>
        <time>2012-05-29T08:32:44Z</time>
      </trkpt>
      <trkpt lat="43.156779" lon="-5.679233">
        <ele>514.0</ele>
        <time>2012-05-29T08:32:49Z</time>
      </trkpt>
      <trkpt lat="43.156697" lon="-5.679214">
        <ele>514.0</ele>
        <time>2012-05-29T08:32:52Z</time>
      </trkpt>
      <trkpt lat="43.156565" lon="-5.679184">
        <ele>514.0</ele>
        <time>2012-05-29T08:32:56Z</time>
      </trkpt>
      <trkpt lat="43.156422" lon="-5.679158">
        <ele>514.0</ele>
        <time>2012-05-29T08:33:00Z</time>
      </trkpt>
      <trkpt lat="43.15628" lon="-5.679121">
        <ele>514.0</ele>
        <time>2012-05-29T08:33:04Z</time>
      </trkpt>
      <trkpt lat="43.156211" lon="-5.679092">
        <ele>514.0</ele>
        <time>2012-05-29T08:33:06Z</time>
      </trkpt>
      <trkpt lat="43.156064" lon="-5.678783">
        <ele>514.0</ele>
        <time>2012-05-29T08:33:15Z</time>
      </trkpt>
      <trkpt lat="43.156073" lon="-5.678567">
        <ele>514.0</ele>
        <time>2012-05-29T08:33:20Z</time>
      </trkpt>
      <trkpt lat="43.156119" lon="-5.678373">
        <ele>515.0</ele>
        <time>2012-05-29T08:33:24Z</time>
      </trkpt>
      <trkpt lat="43.156204" lon="-5.678152">
        <ele>516.0</ele>
        <time>2012-05-29T08:33:28Z</time>
      </trkpt>
      <trkpt lat="43.156261" lon="-5.678051">
        <ele>517.0</ele>
        <time>2012-05-29T08:33:30Z</time>
      </trkpt>
      <trkpt lat="43.156615" lon="-5.67766">
        <ele>538.0</ele>
        <time>2012-05-29T08:33:37Z</time>
      </trkpt>
      <trkpt lat="43.156879" lon="-5.677435">
        <ele>548.0</ele>
        <time>2012-05-29T08:33:41Z</time>
      </trkpt>
      <trkpt lat="43.157117" lon="-5.677225">
        <ele>552.0</ele>
        <time>2012-05-29T08:33:45Z</time>
      </trkpt>
      <trkpt lat="43.157268" lon="-5.677083">
        <ele>553.0</ele>
        <time>2012-05-29T08:33:48Z</time>
      </trkpt>
      <trkpt lat="43.157453" lon="-5.676916">
        <ele>551.0</ele>
        <time>2012-05-29T08:33:52Z</time>
      </trkpt>
      <trkpt lat="43.157538" lon="-5.676833">
        <ele>549.0</ele>
        <time>2012-05-29T08:33:54Z</time>
      </trkpt>
      <trkpt lat="43.157746" lon="-5.676623">
        <ele>547.0</ele>
        <time>2012-05-29T08:34:00Z</time>
      </trkpt>
      <trkpt lat="43.157869" lon="-5.676454">
        <ele>547.0</ele>
        <time>2012-05-29T08:34:04Z</time>
      </trkpt>
      <trkpt lat="43.157934" lon="-5.676227">
        <ele>546.0</ele>
        <time>2012-05-29T08:34:08Z</time>
      </trkpt>
      <trkpt lat="43.157971" lon="-5.675998">
        <ele>546.0</ele>
        <time>2012-05-29T08:34:12Z</time>
      </trkpt>
      <trkpt lat="43.157989" lon="-5.675888">
        <ele>546.0</ele>
        <time>2012-05-29T08:34:14Z</time>
      </trkpt>
      <trkpt lat="43.158041" lon="-5.675568">
        <ele>545.0</ele>
        <time>2012-05-29T08:34:20Z</time>
      </trkpt>
      <trkpt lat="43.158095" lon="-5.675343">
        <ele>545.0</ele>
        <time>2012-05-29T08:34:24Z</time>
      </trkpt>
      <trkpt lat="43.158161" lon="-5.675093">
        <ele>545.0</ele>
        <time>2012-05-29T08:34:28Z</time>
      </trkpt>
      <trkpt lat="43.158219" lon="-5.674836">
        <ele>546.0</ele>
        <time>2012-05-29T08:34:32Z</time>
      </trkpt>
      <trkpt lat="43.158284" lon="-5.674591">
        <ele>546.0</ele>
        <time>2012-05-29T08:34:36Z</time>
      </trkpt>
      <trkpt lat="43.158338" lon="-5.674379">
        <ele>546.0</ele>
        <time>2012-05-29T08:34:40Z</time>
      </trkpt>
      <trkpt lat="43.158399" lon="-5.67419">
        <ele>546.0</ele>
        <time>2012-05-29T08:34:44Z</time>
      </trkpt>
      <trkpt lat="43.158458" lon="-5.673985">
        <ele>546.0</ele>
        <time>2012-05-29T08:34:48Z</time>
      </trkpt>
      <trkpt lat="43.158496" lon="-5.673765">
        <ele>546.0</ele>
        <time>2012-05-29T08:34:52Z</time>
      </trkpt>
      <trkpt lat="43.158486" lon="-5.673651">
        <ele>546.0</ele>
        <time>2012-05-29T08:34:54Z</time>
      </trkpt>
      <trkpt lat="43.158408" lon="-5.673284">
        <ele>546.0</ele>
        <time>2012-05-29T08:35:00Z</time>
      </trkpt>
      <trkpt lat="43.158363" lon="-5.673198">
        <ele>546.0</ele>
        <time>2012-05-29T08:35:02Z</time>
      </trkpt>
      <trkpt lat="43.15824" lon="-5.672963">
        <ele>548.0</ele>
        <time>2012-05-29T08:35:08Z</time>
      </trkpt>
      <trkpt lat="43.158191" lon="-5.672794">
        <ele>549.0</ele>
        <time>2012-05-29T08:35:12Z</time>
      </trkpt>
      <trkpt lat="43.158129" lon="-5.672625">
        <ele>550.0</ele>
        <time>2012-05-29T08:35:16Z</time>
      </trkpt>
      <trkpt lat="43.158068" lon="-5.672461">
        <ele>552.0</ele>
        <time>2012-05-29T08:35:20Z</time>
      </trkpt>
      <trkpt lat="43.158005" lon="-5.672305">
        <ele>554.0</ele>
        <time>2012-05-29T08:35:24Z</time>
      </trkpt>
      <trkpt lat="43.157918" lon="-5.672151">
        <ele>565.0</ele>
        <time>2012-05-29T08:35:28Z</time>
      </trkpt>
      <trkpt lat="43.157768" lon="-5.671946">
        <ele>574.0</ele>
        <time>2012-05-29T08:35:34Z</time>
      </trkpt>
      <trkpt lat="43.157608" lon="-5.671556">
        <ele>576.0</ele>
        <time>2012-05-29T08:35:45Z</time>
      </trkpt>
      <trkpt lat="43.157505" lon="-5.671372">
        <ele>577.0</ele>
        <time>2012-05-29T08:35:49Z</time>
      </trkpt>
      <trkpt lat="43.157392" lon="-5.671202">
        <ele>577.0</ele>
        <time>2012-05-29T08:35:53Z</time>
      </trkpt>
      <trkpt lat="43.157175" lon="-5.671178">
        <ele>581.0</ele>
        <time>2012-05-29T08:35:57Z</time>
      </trkpt>
      <trkpt lat="43.156752" lon="-5.671195">
        <ele>585.0</ele>
        <time>2012-05-29T08:36:04Z</time>
      </trkpt>
      <trkpt lat="43.156529" lon="-5.671239">
        <ele>586.0</ele>
        <time>2012-05-29T08:36:08Z</time>
      </trkpt>
      <trkpt lat="43.156339" lon="-5.671292">
        <ele>587.0</ele>
        <time>2012-05-29T08:36:12Z</time>
      </trkpt>
      <trkpt lat="43.156196" lon="-5.671413">
        <ele>596.0</ele>
        <time>2012-05-29T08:36:16Z</time>
      </trkpt>
      <trkpt lat="43.156068" lon="-5.671599">
        <ele>619.0</ele>
        <time>2012-05-29T08:36:20Z</time>
      </trkpt>
      <trkpt lat="43.155958" lon="-5.671819">
        <ele>630.0</ele>
        <time>2012-05-29T08:36:24Z</time>
      </trkpt>
      <trkpt lat="43.155845" lon="-5.672025">
        <ele>635.0</ele>
        <time>2012-05-29T08:36:28Z</time>
      </trkpt>
      <trkpt lat="43.155743" lon="-5.67221">
        <ele>643.0</ele>
        <time>2012-05-29T08:36:32Z</time>
      </trkpt>
      <trkpt lat="43.155645" lon="-5.672374">
        <ele>652.0</ele>
        <time>2012-05-29T08:36:36Z</time>
      </trkpt>
      <trkpt lat="43.155559" lon="-5.672529">
        <ele>660.0</ele>
        <time>2012-05-29T08:36:40Z</time>
      </trkpt>
      <trkpt lat="43.155471" lon="-5.672675">
        <ele>667.0</ele>
        <time>2012-05-29T08:36:44Z</time>
      </trkpt>
      <trkpt lat="43.155383" lon="-5.672812">
        <ele>673.0</ele>
        <time>2012-05-29T08:36:48Z</time>
      </trkpt>
      <trkpt lat="43.155269" lon="-5.672943">
        <ele>675.0</ele>
        <time>2012-05-29T08:36:52Z</time>
      </trkpt>
      <trkpt lat="43.155143" lon="-5.673074">
        <ele>676.0</ele>
        <time>2012-05-29T08:36:56Z</time>
      </trkpt>
      <trkpt lat="43.15501" lon="-5.673204">
        <ele>676.0</ele>
        <time>2012-05-29T08:37:00Z</time>
      </trkpt>
      <trkpt lat="43.15488" lon="-5.673337">
        <ele>676.0</ele>
        <time>2012-05-29T08:37:04Z</time>
      </trkpt>
      <trkpt lat="43.154758" lon="-5.673456">
        <ele>677.0</ele>
        <time>2012-05-29T08:37:08Z</time>
      </trkpt>
      <trkpt lat="43.154635" lon="-5.673583">
        <ele>677.0</ele>
        <time>2012-05-29T08:37:12Z</time>
      </trkpt>
      <trkpt lat="43.154506" lon="-5.673703">
        <ele>677.0</ele>
        <time>2012-05-29T08:37:16Z</time>
      </trkpt>
      <trkpt lat="43.15437" lon="-5.67381">
        <ele>676.0</ele>
        <time>2012-05-29T08:37:20Z</time>
      </trkpt>
      <trkpt lat="43.1543" lon="-5.673855">
        <ele>676.0</ele>
        <time>2012-05-29T08:37:22Z</time>
      </trkpt>
      <trkpt lat="43.154077" lon="-5.67395">
        <ele>675.0</ele>
        <time>2012-05-29T08:37:28Z</time>
      </trkpt>
      <trkpt lat="43.153939" lon="-5.674007">
        <ele>675.0</ele>
        <time>2012-05-29T08:37:32Z</time>
      </trkpt>
      <trkpt lat="43.153798" lon="-5.674048">
        <ele>675.0</ele>
        <time>2012-05-29T08:37:36Z</time>
      </trkpt>
      <trkpt lat="43.153659" lon="-5.674092">
        <ele>675.0</ele>
        <time>2012-05-29T08:37:40Z</time>
      </trkpt>
      <trkpt lat="43.153592" lon="-5.674113">
        <ele>675.0</ele>
        <time>2012-05-29T08:37:42Z</time>
      </trkpt>
      <trkpt lat="43.153389" lon="-5.67418">
        <ele>675.0</ele>
        <time>2012-05-29T08:37:48Z</time>
      </trkpt>
      <trkpt lat="43.15325" lon="-5.674223">
        <ele>674.0</ele>
        <time>2012-05-29T08:37:52Z</time>
      </trkpt>
      <trkpt lat="43.153179" lon="-5.674245">
        <ele>674.0</ele>
        <time>2012-05-29T08:37:54Z</time>
      </trkpt>
      <trkpt lat="43.15298" lon="-5.674346">
        <ele>674.0</ele>
        <time>2012-05-29T08:38:00Z</time>
      </trkpt>
      <trkpt lat="43.152861" lon="-5.674436">
        <ele>673.0</ele>
        <time>2012-05-29T08:38:04Z</time>
      </trkpt>
      <trkpt lat="43.152747" lon="-5.674529">
        <ele>674.0</ele>
        <time>2012-05-29T08:38:08Z</time>
      </trkpt>
      <trkpt lat="43.152635" lon="-5.674638">
        <ele>674.0</ele>
        <time>2012-05-29T08:38:12Z</time>
      </trkpt>
      <trkpt lat="43.152538" lon="-5.674755">
        <ele>675.0</ele>
        <time>2012-05-29T08:38:16Z</time>
      </trkpt>
      <trkpt lat="43.152446" lon="-5.674891">
        <ele>676.0</ele>
        <time>2012-05-29T08:38:20Z</time>
      </trkpt>
      <trkpt lat="43.152359" lon="-5.67504">
        <ele>678.0</ele>
        <time>2012-05-29T08:38:24Z</time>
      </trkpt>
      <trkpt lat="43.152275" lon="-5.675188">
        <ele>679.0</ele>
        <time>2012-05-29T08:38:28Z</time>
      </trkpt>
      <trkpt lat="43.152184" lon="-5.675345">
        <ele>686.0</ele>
        <time>2012-05-29T08:38:32Z</time>
      </trkpt>
      <trkpt lat="43.152086" lon="-5.675502">
        <ele>690.0</ele>
        <time>2012-05-29T08:38:36Z</time>
      </trkpt>
      <trkpt lat="43.15198" lon="-5.675655">
        <ele>691.0</ele>
        <time>2012-05-29T08:38:40Z</time>
      </trkpt>
      <trkpt lat="43.151864" lon="-5.675795">
        <ele>692.0</ele>
        <time>2012-05-29T08:38:44Z</time>
      </trkpt>
      <trkpt lat="43.15174" lon="-5.675916">
        <ele>694.0</ele>
        <time>2012-05-29T08:38:48Z</time>
      </trkpt>
      <trkpt lat="43.151607" lon="-5.676023">
        <ele>695.0</ele>
        <time>2012-05-29T08:38:52Z</time>
      </trkpt>
      <trkpt lat="43.151475" lon="-5.676104">
        <ele>698.0</ele>
        <time>2012-05-29T08:38:56Z</time>
      </trkpt>
      <trkpt lat="43.15134" lon="-5.676181">
        <ele>700.0</ele>
        <time>2012-05-29T08:39:00Z</time>
      </trkpt>
      <trkpt lat="43.151125" lon="-5.676251">
        <ele>706.0</ele>
        <time>2012-05-29T08:39:06Z</time>
      </trkpt>
      <trkpt lat="43.15076" lon="-5.675996">
        <ele>703.0</ele>
        <time>2012-05-29T08:39:16Z</time>
      </trkpt>
      <trkpt lat="43.150683" lon="-5.675761">
        <ele>699.0</ele>
        <time>2012-05-29T08:39:20Z</time>
      </trkpt>
      <trkpt lat="43.150583" lon="-5.675556">
        <ele>696.0</ele>
        <time>2012-05-29T08:39:24Z</time>
      </trkpt>
      <trkpt lat="43.150439" lon="-5.675404">
        <ele>695.0</ele>
        <time>2012-05-29T08:39:28Z</time>
      </trkpt>
      <trkpt lat="43.150276" lon="-5.675304">
        <ele>695.0</ele>
        <time>2012-05-29T08:39:32Z</time>
      </trkpt>
      <trkpt lat="43.150125" lon="-5.675199">
        <ele>695.0</ele>
        <time>2012-05-29T08:39:36Z</time>
      </trkpt>
      <trkpt lat="43.149995" lon="-5.675119">
        <ele>695.0</ele>
        <time>2012-05-29T08:39:40Z</time>
      </trkpt>
      <trkpt lat="43.149924" lon="-5.675103">
        <ele>695.0</ele>
        <time>2012-05-29T08:39:42Z</time>
      </trkpt>
      <trkpt lat="43.149729" lon="-5.675096">
        <ele>694.0</ele>
        <time>2012-05-29T08:39:48Z</time>
      </trkpt>
      <trkpt lat="43.149596" lon="-5.675108">
        <ele>694.0</ele>
        <time>2012-05-29T08:39:52Z</time>
      </trkpt>
      <trkpt lat="43.149461" lon="-5.675096">
        <ele>694.0</ele>
        <time>2012-05-29T08:39:56Z</time>
      </trkpt>
      <trkpt lat="43.149335" lon="-5.675043">
        <ele>693.0</ele>
        <time>2012-05-29T08:40:00Z</time>
      </trkpt>
      <trkpt lat="43.14922" lon="-5.674757">
        <ele>693.0</ele>
        <time>2012-05-29T08:40:09Z</time>
      </trkpt>
      <trkpt lat="43.149199" lon="-5.674582">
        <ele>694.0</ele>
        <time>2012-05-29T08:40:13Z</time>
      </trkpt>
      <trkpt lat="43.14918" lon="-5.67446">
        <ele>695.0</ele>
        <time>2012-05-29T08:40:16Z</time>
      </trkpt>
      <trkpt lat="43.149125" lon="-5.674117">
        <ele>697.0</ele>
        <time>2012-05-29T08:40:25Z</time>
      </trkpt>
      <trkpt lat="43.149151" lon="-5.673988">
        <ele>697.0</ele>
        <time>2012-05-29T08:40:28Z</time>
      </trkpt>
      <trkpt lat="43.149232" lon="-5.673785">
        <ele>698.0</ele>
        <time>2012-05-29T08:40:32Z</time>
      </trkpt>
      <trkpt lat="43.149326" lon="-5.673569">
        <ele>699.0</ele>
        <time>2012-05-29T08:40:36Z</time>
      </trkpt>
      <trkpt lat="43.149462" lon="-5.673386">
        <ele>700.0</ele>
        <time>2012-05-29T08:40:40Z</time>
      </trkpt>
      <trkpt lat="43.149538" lon="-5.673298">
        <ele>700.0</ele>
        <time>2012-05-29T08:40:42Z</time>
      </trkpt>
      <trkpt lat="43.149761" lon="-5.673024">
        <ele>701.0</ele>
        <time>2012-05-29T08:40:48Z</time>
      </trkpt>
      <trkpt lat="43.149903" lon="-5.672813">
        <ele>701.0</ele>
        <time>2012-05-29T08:40:52Z</time>
      </trkpt>
      <trkpt lat="43.149919" lon="-5.672588">
        <ele>702.0</ele>
        <time>2012-05-29T08:40:56Z</time>
      </trkpt>
      <trkpt lat="43.149893" lon="-5.672388">
        <ele>702.0</ele>
        <time>2012-05-29T08:41:00Z</time>
      </trkpt>
      <trkpt lat="43.149829" lon="-5.672223">
        <ele>702.0</ele>
        <time>2012-05-29T08:41:04Z</time>
      </trkpt>
      <trkpt lat="43.149796" lon="-5.672149">
        <ele>703.0</ele>
        <time>2012-05-29T08:41:06Z</time>
      </trkpt>
      <trkpt lat="43.149516" lon="-5.67191">
        <ele>704.0</ele>
        <time>2012-05-29T08:41:17Z</time>
      </trkpt>
      <trkpt lat="43.149366" lon="-5.671893">
        <ele>705.0</ele>
        <time>2012-05-29T08:41:21Z</time>
      </trkpt>
      <trkpt lat="43.149198" lon="-5.671898">
        <ele>707.0</ele>
        <time>2012-05-29T08:41:25Z</time>
      </trkpt>
      <trkpt lat="43.149013" lon="-5.671986">
        <ele>718.0</ele>
        <time>2012-05-29T08:41:29Z</time>
      </trkpt>
      <trkpt lat="43.148813" lon="-5.672112">
        <ele>727.0</ele>
        <time>2012-05-29T08:41:33Z</time>
      </trkpt>
      <trkpt lat="43.148621" lon="-5.672205">
        <ele>731.0</ele>
        <time>2012-05-29T08:41:37Z</time>
      </trkpt>
      <trkpt lat="43.148445" lon="-5.672289">
        <ele>732.0</ele>
        <time>2012-05-29T08:41:41Z</time>
      </trkpt>
      <trkpt lat="43.148287" lon="-5.67238">
        <ele>732.0</ele>
        <time>2012-05-29T08:41:45Z</time>
      </trkpt>
      <trkpt lat="43.148146" lon="-5.672442">
        <ele>732.0</ele>
        <time>2012-05-29T08:41:49Z</time>
      </trkpt>
      <trkpt lat="43.148084" lon="-5.672468">
        <ele>733.0</ele>
        <time>2012-05-29T08:41:51Z</time>
      </trkpt>
      <trkpt lat="43.147928" lon="-5.672538">
        <ele>733.0</ele>
        <time>2012-05-29T08:41:57Z</time>
      </trkpt>
      <trkpt lat="43.147855" lon="-5.672578">
        <ele>734.0</ele>
        <time>2012-05-29T08:42:00Z</time>
      </trkpt>
      <trkpt lat="43.147781" lon="-5.672603">
        <ele>734.0</ele>
        <time>2012-05-29T08:42:03Z</time>
      </trkpt>
      <trkpt lat="43.147631" lon="-5.672669">
        <ele>735.0</ele>
        <time>2012-05-29T08:42:09Z</time>
      </trkpt>
      <trkpt lat="43.14756" lon="-5.672709">
        <ele>735.0</ele>
        <time>2012-05-29T08:42:12Z</time>
      </trkpt>
      <trkpt lat="43.147496" lon="-5.672749">
        <ele>736.0</ele>
        <time>2012-05-29T08:42:15Z</time>
      </trkpt>
      <trkpt lat="43.147349" lon="-5.672862">
        <ele>737.0</ele>
        <time>2012-05-29T08:42:21Z</time>
      </trkpt>
      <trkpt lat="43.147237" lon="-5.672966">
        <ele>738.0</ele>
        <time>2012-05-29T08:42:25Z</time>
      </trkpt>
      <trkpt lat="43.147184" lon="-5.673018">
        <ele>739.0</ele>
        <time>2012-05-29T08:42:27Z</time>
      </trkpt>
      <trkpt lat="43.147039" lon="-5.673148">
        <ele>741.0</ele>
        <time>2012-05-29T08:42:33Z</time>
      </trkpt>
      <trkpt lat="43.146957" lon="-5.673196">
        <ele>742.0</ele>
        <time>2012-05-29T08:42:36Z</time>
      </trkpt>
      <trkpt lat="43.146893" lon="-5.673214">
        <ele>742.0</ele>
        <time>2012-05-29T08:42:38Z</time>
      </trkpt>
      <trkpt lat="43.1467" lon="-5.673263">
        <ele>744.0</ele>
        <time>2012-05-29T08:42:44Z</time>
      </trkpt>
      <trkpt lat="43.14663" lon="-5.67327">
        <ele>744.0</ele>
        <time>2012-05-29T08:42:46Z</time>
      </trkpt>
      <trkpt lat="43.146428" lon="-5.673276">
        <ele>746.0</ele>
        <time>2012-05-29T08:42:52Z</time>
      </trkpt>
      <trkpt lat="43.146339" lon="-5.67327">
        <ele>746.0</ele>
        <time>2012-05-29T08:42:55Z</time>
      </trkpt>
      <trkpt lat="43.146175" lon="-5.673256">
        <ele>747.0</ele>
        <time>2012-05-29T08:43:01Z</time>
      </trkpt>
      <trkpt lat="43.14609" lon="-5.673237">
        <ele>747.0</ele>
        <time>2012-05-29T08:43:04Z</time>
      </trkpt>
      <trkpt lat="43.145922" lon="-5.673017">
        <ele>748.0</ele>
        <time>2012-05-29T08:43:12Z</time>
      </trkpt>
      <trkpt lat="43.145895" lon="-5.672811">
        <ele>749.0</ele>
        <time>2012-05-29T08:43:16Z</time>
      </trkpt>
      <trkpt lat="43.145901" lon="-5.672623">
        <ele>750.0</ele>
        <time>2012-05-29T08:43:20Z</time>
      </trkpt>
      <trkpt lat="43.145912" lon="-5.672433">
        <ele>752.0</ele>
        <time>2012-05-29T08:43:24Z</time>
      </trkpt>
      <trkpt lat="43.145931" lon="-5.672249">
        <ele>753.0</ele>
        <time>2012-05-29T08:43:28Z</time>
      </trkpt>
      <trkpt lat="43.145935" lon="-5.672061">
        <ele>753.0</ele>
        <time>2012-05-29T08:43:32Z</time>
      </trkpt>
      <trkpt lat="43.145852" lon="-5.671913">
        <ele>754.0</ele>
        <time>2012-05-29T08:43:36Z</time>
      </trkpt>
      <trkpt lat="43.145808" lon="-5.671843">
        <ele>754.0</ele>
        <time>2012-05-29T08:43:38Z</time>
      </trkpt>
      <trkpt lat="43.145657" lon="-5.671617">
        <ele>755.0</ele>
        <time>2012-05-29T08:43:45Z</time>
      </trkpt>
      <trkpt lat="43.145585" lon="-5.671536">
        <ele>755.0</ele>
        <time>2012-05-29T08:43:48Z</time>
      </trkpt>
      <trkpt lat="43.145476" lon="-5.671434">
        <ele>756.0</ele>
        <time>2012-05-29T08:43:52Z</time>
      </trkpt>
      <trkpt lat="43.145367" lon="-5.67133">
        <ele>756.0</ele>
        <time>2012-05-29T08:43:56Z</time>
      </trkpt>
      <trkpt lat="43.145272" lon="-5.671207">
        <ele>756.0</ele>
        <time>2012-05-29T08:44:00Z</time>
      </trkpt>
      <trkpt lat="43.145214" lon="-5.671105">
        <ele>756.0</ele>
        <time>2012-05-29T08:44:03Z</time>
      </trkpt>
      <trkpt lat="43.145142" lon="-5.670792">
        <ele>756.0</ele>
        <time>2012-05-29T08:44:11Z</time>
      </trkpt>
      <trkpt lat="43.145204" lon="-5.670501">
        <ele>758.0</ele>
        <time>2012-05-29T08:44:17Z</time>
      </trkpt>
      <trkpt lat="43.145286" lon="-5.670334">
        <ele>759.0</ele>
        <time>2012-05-29T08:44:21Z</time>
      </trkpt>
      <trkpt lat="43.145381" lon="-5.670169">
        <ele>760.0</ele>
        <time>2012-05-29T08:44:25Z</time>
      </trkpt>
      <trkpt lat="43.145438" lon="-5.670086">
        <ele>761.0</ele>
        <time>2012-05-29T08:44:27Z</time>
      </trkpt>
      <trkpt lat="43.145609" lon="-5.669797">
        <ele>762.0</ele>
        <time>2012-05-29T08:44:33Z</time>
      </trkpt>
      <trkpt lat="43.145743" lon="-5.669572">
        <ele>762.0</ele>
        <time>2012-05-29T08:44:37Z</time>
      </trkpt>
      <trkpt lat="43.145888" lon="-5.669331">
        <ele>763.0</ele>
        <time>2012-05-29T08:44:41Z</time>
      </trkpt>
      <trkpt lat="43.146041" lon="-5.669091">
        <ele>763.0</ele>
        <time>2012-05-29T08:44:45Z</time>
      </trkpt>
      <trkpt lat="43.146185" lon="-5.668845">
        <ele>764.0</ele>
        <time>2012-05-29T08:44:49Z</time>
      </trkpt>
      <trkpt lat="43.146251" lon="-5.668734">
        <ele>764.0</ele>
        <time>2012-05-29T08:44:51Z</time>
      </trkpt>
      <trkpt lat="43.14639" lon="-5.668387">
        <ele>765.0</ele>
        <time>2012-05-29T08:44:57Z</time>
      </trkpt>
      <trkpt lat="43.146466" lon="-5.668188">
        <ele>765.0</ele>
        <time>2012-05-29T08:45:01Z</time>
      </trkpt>
      <trkpt lat="43.146529" lon="-5.668006">
        <ele>766.0</ele>
        <time>2012-05-29T08:45:05Z</time>
      </trkpt>
      <trkpt lat="43.146537" lon="-5.667794">
        <ele>766.0</ele>
        <time>2012-05-29T08:45:09Z</time>
      </trkpt>
      <trkpt lat="43.146543" lon="-5.667578">
        <ele>767.0</ele>
        <time>2012-05-29T08:45:13Z</time>
      </trkpt>
      <trkpt lat="43.146564" lon="-5.667382">
        <ele>768.0</ele>
        <time>2012-05-29T08:45:17Z</time>
      </trkpt>
      <trkpt lat="43.146569" lon="-5.667186">
        <ele>769.0</ele>
        <time>2012-05-29T08:45:21Z</time>
      </trkpt>
      <trkpt lat="43.146558" lon="-5.666989">
        <ele>770.0</ele>
        <time>2012-05-29T08:45:25Z</time>
      </trkpt>
      <trkpt lat="43.146542" lon="-5.666791">
        <ele>771.0</ele>
        <time>2012-05-29T08:45:29Z</time>
      </trkpt>
      <trkpt lat="43.146541" lon="-5.666597">
        <ele>772.0</ele>
        <time>2012-05-29T08:45:33Z</time>
      </trkpt>
      <trkpt lat="43.14654" lon="-5.6665">
        <ele>773.0</ele>
        <time>2012-05-29T08:45:35Z</time>
      </trkpt>
      <trkpt lat="43.146514" lon="-5.666218">
        <ele>774.0</ele>
        <time>2012-05-29T08:45:41Z</time>
      </trkpt>
      <trkpt lat="43.146444" lon="-5.666068">
        <ele>775.0</ele>
        <time>2012-05-29T08:45:45Z</time>
      </trkpt>
      <trkpt lat="43.146394" lon="-5.666015">
        <ele>776.0</ele>
        <time>2012-05-29T08:45:47Z</time>
      </trkpt>
      <trkpt lat="43.146304" lon="-5.665968">
        <ele>777.0</ele>
        <time>2012-05-29T08:45:50Z</time>
      </trkpt>
      <trkpt lat="43.145905" lon="-5.666106">
        <ele>783.0</ele>
        <time>2012-05-29T08:45:57Z</time>
      </trkpt>
      <trkpt lat="43.145723" lon="-5.666122">
        <ele>786.0</ele>
        <time>2012-05-29T08:46:01Z</time>
      </trkpt>
      <trkpt lat="43.145538" lon="-5.666148">
        <ele>788.0</ele>
        <time>2012-05-29T08:46:05Z</time>
      </trkpt>
      <trkpt lat="43.145366" lon="-5.666152">
        <ele>790.0</ele>
        <time>2012-05-29T08:46:09Z</time>
      </trkpt>
      <trkpt lat="43.145197" lon="-5.666137">
        <ele>791.0</ele>
        <time>2012-05-29T08:46:13Z</time>
      </trkpt>
      <trkpt lat="43.14511" lon="-5.666139">
        <ele>792.0</ele>
        <time>2012-05-29T08:46:15Z</time>
      </trkpt>
      <trkpt lat="43.144892" lon="-5.666115">
        <ele>793.0</ele>
        <time>2012-05-29T08:46:21Z</time>
      </trkpt>
      <trkpt lat="43.144743" lon="-5.666091">
        <ele>793.0</ele>
        <time>2012-05-29T08:46:25Z</time>
      </trkpt>
      <trkpt lat="43.144594" lon="-5.666061">
        <ele>794.0</ele>
        <time>2012-05-29T08:46:29Z</time>
      </trkpt>
      <trkpt lat="43.144453" lon="-5.666022">
        <ele>794.0</ele>
        <time>2012-05-29T08:46:33Z</time>
      </trkpt>
      <trkpt lat="43.144315" lon="-5.665989">
        <ele>794.0</ele>
        <time>2012-05-29T08:46:37Z</time>
      </trkpt>
      <trkpt lat="43.144181" lon="-5.665957">
        <ele>795.0</ele>
        <time>2012-05-29T08:46:41Z</time>
      </trkpt>
      <trkpt lat="43.144054" lon="-5.665916">
        <ele>795.0</ele>
        <time>2012-05-29T08:46:45Z</time>
      </trkpt>
      <trkpt lat="43.143917" lon="-5.665886">
        <ele>795.0</ele>
        <time>2012-05-29T08:46:49Z</time>
      </trkpt>
      <trkpt lat="43.143772" lon="-5.665885">
        <ele>796.0</ele>
        <time>2012-05-29T08:46:53Z</time>
      </trkpt>
      <trkpt lat="43.143632" lon="-5.665873">
        <ele>796.0</ele>
        <time>2012-05-29T08:46:57Z</time>
      </trkpt>
      <trkpt lat="43.143495" lon="-5.665856">
        <ele>797.0</ele>
        <time>2012-05-29T08:47:01Z</time>
      </trkpt>
      <trkpt lat="43.143427" lon="-5.66584">
        <ele>797.0</ele>
        <time>2012-05-29T08:47:03Z</time>
      </trkpt>
      <trkpt lat="43.143079" lon="-5.665759">
        <ele>797.0</ele>
        <time>2012-05-29T08:47:13Z</time>
      </trkpt>
      <trkpt lat="43.142936" lon="-5.665721">
        <ele>797.0</ele>
        <time>2012-05-29T08:47:17Z</time>
      </trkpt>
      <trkpt lat="43.142866" lon="-5.665697">
        <ele>797.0</ele>
        <time>2012-05-29T08:47:19Z</time>
      </trkpt>
      <trkpt lat="43.142657" lon="-5.665625">
        <ele>797.0</ele>
        <time>2012-05-29T08:47:25Z</time>
      </trkpt>
      <trkpt lat="43.142531" lon="-5.665549">
        <ele>797.0</ele>
        <time>2012-05-29T08:47:29Z</time>
      </trkpt>
      <trkpt lat="43.142414" lon="-5.665447">
        <ele>798.0</ele>
        <time>2012-05-29T08:47:33Z</time>
      </trkpt>
      <trkpt lat="43.142303" lon="-5.665322">
        <ele>798.0</ele>
        <time>2012-05-29T08:47:37Z</time>
      </trkpt>
      <trkpt lat="43.142111" lon="-5.665064">
        <ele>799.0</ele>
        <time>2012-05-29T08:47:45Z</time>
      </trkpt>
      <trkpt lat="43.142035" lon="-5.664917">
        <ele>800.0</ele>
        <time>2012-05-29T08:47:49Z</time>
      </trkpt>
      <trkpt lat="43.141973" lon="-5.664754">
        <ele>801.0</ele>
        <time>2012-05-29T08:47:53Z</time>
      </trkpt>
      <trkpt lat="43.141964" lon="-5.664554">
        <ele>803.0</ele>
        <time>2012-05-29T08:47:57Z</time>
      </trkpt>
      <trkpt lat="43.142061" lon="-5.664262">
        <ele>807.0</ele>
        <time>2012-05-29T08:48:01Z</time>
      </trkpt>
      <trkpt lat="43.142128" lon="-5.66405">
        <ele>810.0</ele>
        <time>2012-05-29T08:48:04Z</time>
      </trkpt>
      <trkpt lat="43.142214" lon="-5.663774">
        <ele>815.0</ele>
        <time>2012-05-29T08:48:08Z</time>
      </trkpt>
      <trkpt lat="43.142299" lon="-5.663504">
        <ele>819.0</ele>
        <time>2012-05-29T08:48:12Z</time>
      </trkpt>
      <trkpt lat="43.14237" lon="-5.663253">
        <ele>822.0</ele>
        <time>2012-05-29T08:48:16Z</time>
      </trkpt>
      <trkpt lat="43.142398" lon="-5.663137">
        <ele>824.0</ele>
        <time>2012-05-29T08:48:18Z</time>
      </trkpt>
      <trkpt lat="43.142462" lon="-5.662812">
        <ele>828.0</ele>
        <time>2012-05-29T08:48:24Z</time>
      </trkpt>
      <trkpt lat="43.141055" lon="-5.658364">
        <ele>890.0</ele>
        <time>2012-05-29T08:50:26Z</time>
      </trkpt>
      <trkpt lat="43.14121" lon="-5.658063">
        <ele>889.0</ele>
        <time>2012-05-29T08:50:32Z</time>
      </trkpt>
      <trkpt lat="43.14126" lon="-5.657958">
        <ele>888.0</ele>
        <time>2012-05-29T08:50:34Z</time>
      </trkpt>
      <trkpt lat="43.141416" lon="-5.657642">
        <ele>886.0</ele>
        <time>2012-05-29T08:50:40Z</time>
      </trkpt>
      <trkpt lat="43.141538" lon="-5.657435">
        <ele>886.0</ele>
        <time>2012-05-29T08:50:44Z</time>
      </trkpt>
      <trkpt lat="43.141661" lon="-5.65723">
        <ele>885.0</ele>
        <time>2012-05-29T08:50:48Z</time>
      </trkpt>
      <trkpt lat="43.141781" lon="-5.657018">
        <ele>885.0</ele>
        <time>2012-05-29T08:50:52Z</time>
      </trkpt>
      <trkpt lat="43.141935" lon="-5.656642">
        <ele>888.0</ele>
        <time>2012-05-29T08:50:58Z</time>
      </trkpt>
      <trkpt lat="43.14194" lon="-5.656505">
        <ele>889.0</ele>
        <time>2012-05-29T08:51:00Z</time>
      </trkpt>
      <trkpt lat="43.141866" lon="-5.656284">
        <ele>893.0</ele>
        <time>2012-05-29T08:51:04Z</time>
      </trkpt>
      <trkpt lat="43.141719" lon="-5.656155">
        <ele>898.0</ele>
        <time>2012-05-29T08:51:08Z</time>
      </trkpt>
      <trkpt lat="43.141533" lon="-5.656104">
        <ele>903.0</ele>
        <time>2012-05-29T08:51:12Z</time>
      </trkpt>
      <trkpt lat="43.141375" lon="-5.656026">
        <ele>907.0</ele>
        <time>2012-05-29T08:51:16Z</time>
      </trkpt>
      <trkpt lat="43.141211" lon="-5.655965">
        <ele>909.0</ele>
        <time>2012-05-29T08:51:20Z</time>
      </trkpt>
      <trkpt lat="43.141042" lon="-5.655899">
        <ele>910.0</ele>
        <time>2012-05-29T08:51:24Z</time>
      </trkpt>
      <trkpt lat="43.140878" lon="-5.655803">
        <ele>909.0</ele>
        <time>2012-05-29T08:51:28Z</time>
      </trkpt>
      <trkpt lat="43.140803" lon="-5.655744">
        <ele>909.0</ele>
        <time>2012-05-29T08:51:30Z</time>
      </trkpt>
      <trkpt lat="43.140591" lon="-5.655554">
        <ele>908.0</ele>
        <time>2012-05-29T08:51:36Z</time>
      </trkpt>
      <trkpt lat="43.140516" lon="-5.655369">
        <ele>909.0</ele>
        <time>2012-05-29T08:51:40Z</time>
      </trkpt>
      <trkpt lat="43.140575" lon="-5.655018">
        <ele>912.0</ele>
        <time>2012-05-29T08:51:46Z</time>
      </trkpt>
      <trkpt lat="43.140608" lon="-5.654804">
        <ele>913.0</ele>
        <time>2012-05-29T08:51:51Z</time>
      </trkpt>
      <trkpt lat="43.140718" lon="-5.654616">
        <ele>913.0</ele>
        <time>2012-05-29T08:51:56Z</time>
      </trkpt>
      <trkpt lat="43.140868" lon="-5.654372">
        <ele>914.0</ele>
        <time>2012-05-29T08:52:00Z</time>
      </trkpt>
      <trkpt lat="43.141039" lon="-5.654137">
        <ele>917.0</ele>
        <time>2012-05-29T08:52:04Z</time>
      </trkpt>
      <trkpt lat="43.141213" lon="-5.653882">
        <ele>918.0</ele>
        <time>2012-05-29T08:52:08Z</time>
      </trkpt>
      <trkpt lat="43.141304" lon="-5.653782">
        <ele>918.0</ele>
        <time>2012-05-29T08:52:10Z</time>
      </trkpt>
      <trkpt lat="43.141501" lon="-5.653485">
        <ele>921.0</ele>
        <time>2012-05-29T08:52:16Z</time>
      </trkpt>
      <trkpt lat="43.141585" lon="-5.653261">
        <ele>921.0</ele>
        <time>2012-05-29T08:52:20Z</time>
      </trkpt>
      <trkpt lat="43.141636" lon="-5.653028">
        <ele>921.0</ele>
        <time>2012-05-29T08:52:24Z</time>
      </trkpt>
      <trkpt lat="43.141651" lon="-5.652829">
        <ele>921.0</ele>
        <time>2012-05-29T08:52:28Z</time>
      </trkpt>
      <trkpt lat="43.141715" lon="-5.65263">
        <ele>921.0</ele>
        <time>2012-05-29T08:52:33Z</time>
      </trkpt>
      <trkpt lat="43.141834" lon="-5.652499">
        <ele>921.0</ele>
        <time>2012-05-29T08:52:38Z</time>
      </trkpt>
      <trkpt lat="43.142037" lon="-5.652347">
        <ele>922.0</ele>
        <time>2012-05-29T08:52:44Z</time>
      </trkpt>
      <trkpt lat="43.142161" lon="-5.652229">
        <ele>922.0</ele>
        <time>2012-05-29T08:52:48Z</time>
      </trkpt>
      <trkpt lat="43.14229" lon="-5.652096">
        <ele>923.0</ele>
        <time>2012-05-29T08:52:52Z</time>
      </trkpt>
      <trkpt lat="43.142414" lon="-5.651952">
        <ele>923.0</ele>
        <time>2012-05-29T08:52:56Z</time>
      </trkpt>
      <trkpt lat="43.142534" lon="-5.651809">
        <ele>924.0</ele>
        <time>2012-05-29T08:53:00Z</time>
      </trkpt>
      <trkpt lat="43.142659" lon="-5.651704">
        <ele>924.0</ele>
        <time>2012-05-29T08:53:04Z</time>
      </trkpt>
      <trkpt lat="43.142805" lon="-5.651636">
        <ele>925.0</ele>
        <time>2012-05-29T08:53:08Z</time>
      </trkpt>
      <trkpt lat="43.142947" lon="-5.651594">
        <ele>926.0</ele>
        <time>2012-05-29T08:53:12Z</time>
      </trkpt>
      <trkpt lat="43.143085" lon="-5.651553">
        <ele>927.0</ele>
        <time>2012-05-29T08:53:16Z</time>
      </trkpt>
      <trkpt lat="43.143225" lon="-5.651531">
        <ele>929.0</ele>
        <time>2012-05-29T08:53:20Z</time>
      </trkpt>
      <trkpt lat="43.143447" lon="-5.651522">
        <ele>932.0</ele>
        <time>2012-05-29T08:53:27Z</time>
      </trkpt>
      <trkpt lat="43.143623" lon="-5.651512">
        <ele>936.0</ele>
        <time>2012-05-29T08:53:33Z</time>
      </trkpt>
      <trkpt lat="43.143752" lon="-5.651502">
        <ele>939.0</ele>
        <time>2012-05-29T08:53:37Z</time>
      </trkpt>
      <trkpt lat="43.143952" lon="-5.65149">
        <ele>943.0</ele>
        <time>2012-05-29T08:53:43Z</time>
      </trkpt>
      <trkpt lat="43.144151" lon="-5.651463">
        <ele>946.0</ele>
        <time>2012-05-29T08:53:49Z</time>
      </trkpt>
      <trkpt lat="43.144291" lon="-5.651449">
        <ele>948.0</ele>
        <time>2012-05-29T08:53:53Z</time>
      </trkpt>
      <trkpt lat="43.144574" lon="-5.651403">
        <ele>952.0</ele>
        <time>2012-05-29T08:54:01Z</time>
      </trkpt>
      <trkpt lat="43.144712" lon="-5.651371">
        <ele>954.0</ele>
        <time>2012-05-29T08:54:05Z</time>
      </trkpt>
      <trkpt lat="43.144854" lon="-5.651322">
        <ele>960.0</ele>
        <time>2012-05-29T08:54:09Z</time>
      </trkpt>
      <trkpt lat="43.145009" lon="-5.651258">
        <ele>972.0</ele>
        <time>2012-05-29T08:54:13Z</time>
      </trkpt>
      <trkpt lat="43.145157" lon="-5.651185">
        <ele>977.0</ele>
        <time>2012-05-29T08:54:17Z</time>
      </trkpt>
      <trkpt lat="43.145297" lon="-5.651089">
        <ele>979.0</ele>
        <time>2012-05-29T08:54:21Z</time>
      </trkpt>
      <trkpt lat="43.145547" lon="-5.65084">
        <ele>982.0</ele>
        <time>2012-05-29T08:54:29Z</time>
      </trkpt>
      <trkpt lat="43.145648" lon="-5.650676">
        <ele>983.0</ele>
        <time>2012-05-29T08:54:33Z</time>
      </trkpt>
      <trkpt lat="43.145687" lon="-5.650584">
        <ele>983.0</ele>
        <time>2012-05-29T08:54:35Z</time>
      </trkpt>
      <trkpt lat="43.145798" lon="-5.650305">
        <ele>985.0</ele>
        <time>2012-05-29T08:54:41Z</time>
      </trkpt>
      <trkpt lat="43.145858" lon="-5.65">
        <ele>985.0</ele>
        <time>2012-05-29T08:54:47Z</time>
      </trkpt>
      <trkpt lat="43.145876" lon="-5.649801">
        <ele>986.0</ele>
        <time>2012-05-29T08:54:51Z</time>
      </trkpt>
      <trkpt lat="43.145812" lon="-5.649391">
        <ele>989.0</ele>
        <time>2012-05-29T08:55:01Z</time>
      </trkpt>
      <trkpt lat="43.145763" lon="-5.649287">
        <ele>991.0</ele>
        <time>2012-05-29T08:55:04Z</time>
      </trkpt>
      <trkpt lat="43.145639" lon="-5.649166">
        <ele>1002.0</ele>
        <time>2012-05-29T08:55:08Z</time>
      </trkpt>
      <trkpt lat="43.145372" lon="-5.649092">
        <ele>1014.0</ele>
        <time>2012-05-29T08:55:13Z</time>
      </trkpt>
      <trkpt lat="43.145131" lon="-5.649038">
        <ele>1018.0</ele>
        <time>2012-05-29T08:55:17Z</time>
      </trkpt>
      <trkpt lat="43.144755" lon="-5.648878">
        <ele>1021.0</ele>
        <time>2012-05-29T08:55:25Z</time>
      </trkpt>
      <trkpt lat="43.144668" lon="-5.64885">
        <ele>1021.0</ele>
        <time>2012-05-29T08:55:27Z</time>
      </trkpt>
      <trkpt lat="43.144412" lon="-5.648815">
        <ele>1021.0</ele>
        <time>2012-05-29T08:55:33Z</time>
      </trkpt>
      <trkpt lat="43.144078" lon="-5.648869">
        <ele>1021.0</ele>
        <time>2012-05-29T08:55:41Z</time>
      </trkpt>
      <trkpt lat="43.143929" lon="-5.6489">
        <ele>1021.0</ele>
        <time>2012-05-29T08:55:45Z</time>
      </trkpt>
      <trkpt lat="43.143864" lon="-5.648912">
        <ele>1021.0</ele>
        <time>2012-05-29T08:55:47Z</time>
      </trkpt>
      <trkpt lat="43.143699" lon="-5.648948">
        <ele>1022.0</ele>
        <time>2012-05-29T08:55:53Z</time>
      </trkpt>
      <trkpt lat="43.143618" lon="-5.648962">
        <ele>1023.0</ele>
        <time>2012-05-29T08:55:56Z</time>
      </trkpt>
      <trkpt lat="43.143534" lon="-5.64896">
        <ele>1024.0</ele>
        <time>2012-05-29T08:55:59Z</time>
      </trkpt>
      <trkpt lat="43.143356" lon="-5.648922">
        <ele>1026.0</ele>
        <time>2012-05-29T08:56:05Z</time>
      </trkpt>
      <trkpt lat="43.143265" lon="-5.648883">
        <ele>1028.0</ele>
        <time>2012-05-29T08:56:08Z</time>
      </trkpt>
      <trkpt lat="43.14314" lon="-5.648812">
        <ele>1029.0</ele>
        <time>2012-05-29T08:56:12Z</time>
      </trkpt>
      <trkpt lat="43.143016" lon="-5.648732">
        <ele>1030.0</ele>
        <time>2012-05-29T08:56:16Z</time>
      </trkpt>
      <trkpt lat="43.142955" lon="-5.648693">
        <ele>1031.0</ele>
        <time>2012-05-29T08:56:18Z</time>
      </trkpt>
      <trkpt lat="43.142809" lon="-5.648607">
        <ele>1032.0</ele>
        <time>2012-05-29T08:56:23Z</time>
      </trkpt>
      <trkpt lat="43.142549" lon="-5.648472">
        <ele>1035.0</ele>
        <time>2012-05-29T08:56:32Z</time>
      </trkpt>
      <trkpt lat="43.142426" lon="-5.648412">
        <ele>1036.0</ele>
        <time>2012-05-29T08:56:36Z</time>
      </trkpt>
      <trkpt lat="43.142065" lon="-5.648251">
        <ele>1037.0</ele>
        <time>2012-05-29T08:56:48Z</time>
      </trkpt>
      <trkpt lat="43.14194" lon="-5.648202">
        <ele>1037.0</ele>
        <time>2012-05-29T08:56:52Z</time>
      </trkpt>
      <trkpt lat="43.141876" lon="-5.648178">
        <ele>1037.0</ele>
        <time>2012-05-29T08:56:54Z</time>
      </trkpt>
      <trkpt lat="43.141669" lon="-5.648097">
        <ele>1037.0</ele>
        <time>2012-05-29T08:57:00Z</time>
      </trkpt>
      <trkpt lat="43.141541" lon="-5.648039">
        <ele>1037.0</ele>
        <time>2012-05-29T08:57:04Z</time>
      </trkpt>
      <trkpt lat="43.141416" lon="-5.647994">
        <ele>1036.0</ele>
        <time>2012-05-29T08:57:08Z</time>
      </trkpt>
      <trkpt lat="43.141283" lon="-5.647938">
        <ele>1036.0</ele>
        <time>2012-05-29T08:57:12Z</time>
      </trkpt>
      <trkpt lat="43.141147" lon="-5.647873">
        <ele>1036.0</ele>
        <time>2012-05-29T08:57:16Z</time>
      </trkpt>
      <trkpt lat="43.141004" lon="-5.647797">
        <ele>1036.0</ele>
        <time>2012-05-29T08:57:20Z</time>
      </trkpt>
      <trkpt lat="43.140862" lon="-5.647704">
        <ele>1036.0</ele>
        <time>2012-05-29T08:57:24Z</time>
      </trkpt>
      <trkpt lat="43.140794" lon="-5.647655">
        <ele>1036.0</ele>
        <time>2012-05-29T08:57:26Z</time>
      </trkpt>
      <trkpt lat="43.1406" lon="-5.647495">
        <ele>1036.0</ele>
        <time>2012-05-29T08:57:32Z</time>
      </trkpt>
      <trkpt lat="43.140471" lon="-5.647375">
        <ele>1036.0</ele>
        <time>2012-05-29T08:57:36Z</time>
      </trkpt>
      <trkpt lat="43.140353" lon="-5.647239">
        <ele>1036.0</ele>
        <time>2012-05-29T08:57:40Z</time>
      </trkpt>
      <trkpt lat="43.140293" lon="-5.647169">
        <ele>1036.0</ele>
        <time>2012-05-29T08:57:42Z</time>
      </trkpt>
      <trkpt lat="43.140161" lon="-5.64692">
        <ele>1036.0</ele>
        <time>2012-05-29T08:57:48Z</time>
      </trkpt>
      <trkpt lat="43.140123" lon="-5.646833">
        <ele>1036.0</ele>
        <time>2012-05-29T08:57:50Z</time>
      </trkpt>
      <trkpt lat="43.140035" lon="-5.646577">
        <ele>1037.0</ele>
        <time>2012-05-29T08:57:56Z</time>
      </trkpt>
      <trkpt lat="43.140004" lon="-5.646397">
        <ele>1037.0</ele>
        <time>2012-05-29T08:58:00Z</time>
      </trkpt>
      <trkpt lat="43.139978" lon="-5.646207">
        <ele>1038.0</ele>
        <time>2012-05-29T08:58:04Z</time>
      </trkpt>
      <trkpt lat="43.139948" lon="-5.646013">
        <ele>1038.0</ele>
        <time>2012-05-29T08:58:08Z</time>
      </trkpt>
      <trkpt lat="43.139914" lon="-5.645796">
        <ele>1039.0</ele>
        <time>2012-05-29T08:58:12Z</time>
      </trkpt>
      <trkpt lat="43.139919" lon="-5.645552">
        <ele>1041.0</ele>
        <time>2012-05-29T08:58:16Z</time>
      </trkpt>
      <trkpt lat="43.139921" lon="-5.645294">
        <ele>1043.0</ele>
        <time>2012-05-29T08:58:20Z</time>
      </trkpt>
      <trkpt lat="43.139903" lon="-5.645053">
        <ele>1045.0</ele>
        <time>2012-05-29T08:58:24Z</time>
      </trkpt>
      <trkpt lat="43.139879" lon="-5.644842">
        <ele>1047.0</ele>
        <time>2012-05-29T08:58:28Z</time>
      </trkpt>
      <trkpt lat="43.139865" lon="-5.644756">
        <ele>1048.0</ele>
        <time>2012-05-29T08:58:30Z</time>
      </trkpt>
      <trkpt lat="43.139683" lon="-5.644397">
        <ele>1053.0</ele>
        <time>2012-05-29T08:58:40Z</time>
      </trkpt>
      <trkpt lat="43.139627" lon="-5.644206">
        <ele>1055.0</ele>
        <time>2012-05-29T08:58:44Z</time>
      </trkpt>
      <trkpt lat="43.139587" lon="-5.644005">
        <ele>1057.0</ele>
        <time>2012-05-29T08:58:48Z</time>
      </trkpt>
      <trkpt lat="43.139564" lon="-5.643803">
        <ele>1058.0</ele>
        <time>2012-05-29T08:58:52Z</time>
      </trkpt>
      <trkpt lat="43.139521" lon="-5.643624">
        <ele>1060.0</ele>
        <time>2012-05-29T08:58:56Z</time>
      </trkpt>
      <trkpt lat="43.139477" lon="-5.643445">
        <ele>1062.0</ele>
        <time>2012-05-29T08:59:00Z</time>
      </trkpt>
      <trkpt lat="43.139427" lon="-5.643267">
        <ele>1064.0</ele>
        <time>2012-05-29T08:59:04Z</time>
      </trkpt>
      <trkpt lat="43.139362" lon="-5.643103">
        <ele>1066.0</ele>
        <time>2012-05-29T08:59:08Z</time>
      </trkpt>
      <trkpt lat="43.139279" lon="-5.642955">
        <ele>1067.0</ele>
        <time>2012-05-29T08:59:12Z</time>
      </trkpt>
      <trkpt lat="43.139187" lon="-5.642816">
        <ele>1069.0</ele>
        <time>2012-05-29T08:59:16Z</time>
      </trkpt>
      <trkpt lat="43.139066" lon="-5.642726">
        <ele>1070.0</ele>
        <time>2012-05-29T08:59:20Z</time>
      </trkpt>
      <trkpt lat="43.138977" lon="-5.642696">
        <ele>1071.0</ele>
        <time>2012-05-29T08:59:23Z</time>
      </trkpt>
      <trkpt lat="43.138802" lon="-5.642707">
        <ele>1078.0</ele>
        <time>2012-05-29T08:59:28Z</time>
      </trkpt>
      <trkpt lat="43.138643" lon="-5.642705">
        <ele>1083.0</ele>
        <time>2012-05-29T08:59:33Z</time>
      </trkpt>
      <trkpt lat="43.138568" lon="-5.642688">
        <ele>1084.0</ele>
        <time>2012-05-29T08:59:36Z</time>
      </trkpt>
      <trkpt lat="43.138437" lon="-5.642662">
        <ele>1086.0</ele>
        <time>2012-05-29T08:59:40Z</time>
      </trkpt>
      <trkpt lat="43.138296" lon="-5.642639">
        <ele>1087.0</ele>
        <time>2012-05-29T08:59:44Z</time>
      </trkpt>
      <trkpt lat="43.138164" lon="-5.642614">
        <ele>1088.0</ele>
        <time>2012-05-29T08:59:48Z</time>
      </trkpt>
      <trkpt lat="43.138034" lon="-5.642599">
        <ele>1089.0</ele>
        <time>2012-05-29T08:59:52Z</time>
      </trkpt>
      <trkpt lat="43.137896" lon="-5.6426">
        <ele>1090.0</ele>
        <time>2012-05-29T08:59:56Z</time>
      </trkpt>
      <trkpt lat="43.137756" lon="-5.642564">
        <ele>1091.0</ele>
        <time>2012-05-29T09:00:00Z</time>
      </trkpt>
      <trkpt lat="43.137631" lon="-5.642466">
        <ele>1093.0</ele>
        <time>2012-05-29T09:00:04Z</time>
      </trkpt>
      <trkpt lat="43.137516" lon="-5.642335">
        <ele>1093.0</ele>
        <time>2012-05-29T09:00:08Z</time>
      </trkpt>
      <trkpt lat="43.137459" lon="-5.64225">
        <ele>1094.0</ele>
        <time>2012-05-29T09:00:10Z</time>
      </trkpt>
      <trkpt lat="43.137415" lon="-5.641956">
        <ele>1095.0</ele>
        <time>2012-05-29T09:00:16Z</time>
      </trkpt>
      <trkpt lat="43.137416" lon="-5.641746">
        <ele>1097.0</ele>
        <time>2012-05-29T09:00:20Z</time>
      </trkpt>
      <trkpt lat="43.137425" lon="-5.641536">
        <ele>1098.0</ele>
        <time>2012-05-29T09:00:24Z</time>
      </trkpt>
      <trkpt lat="43.137461" lon="-5.641342">
        <ele>1099.0</ele>
        <time>2012-05-29T09:00:28Z</time>
      </trkpt>
      <trkpt lat="43.137491" lon="-5.641162">
        <ele>1100.0</ele>
        <time>2012-05-29T09:00:32Z</time>
      </trkpt>
      <trkpt lat="43.137536" lon="-5.640976">
        <ele>1101.0</ele>
        <time>2012-05-29T09:00:36Z</time>
      </trkpt>
      <trkpt lat="43.13757" lon="-5.640786">
        <ele>1101.0</ele>
        <time>2012-05-29T09:00:40Z</time>
      </trkpt>
      <trkpt lat="43.137645" lon="-5.6406">
        <ele>1102.0</ele>
        <time>2012-05-29T09:00:44Z</time>
      </trkpt>
      <trkpt lat="43.137692" lon="-5.640424">
        <ele>1103.0</ele>
        <time>2012-05-29T09:00:48Z</time>
      </trkpt>
      <trkpt lat="43.137731" lon="-5.640206">
        <ele>1103.0</ele>
        <time>2012-05-29T09:00:53Z</time>
      </trkpt>
      <trkpt lat="43.137763" lon="-5.64002">
        <ele>1104.0</ele>
        <time>2012-05-29T09:00:57Z</time>
      </trkpt>
      <trkpt lat="43.137791" lon="-5.639829">
        <ele>1104.0</ele>
        <time>2012-05-29T09:01:01Z</time>
      </trkpt>
      <trkpt lat="43.137816" lon="-5.639638">
        <ele>1104.0</ele>
        <time>2012-05-29T09:01:05Z</time>
      </trkpt>
      <trkpt lat="43.137846" lon="-5.63954">
        <ele>1104.0</ele>
        <time>2012-05-29T09:01:07Z</time>
      </trkpt>
      <trkpt lat="43.137895" lon="-5.639329">
        <ele>1104.0</ele>
        <time>2012-05-29T09:01:11Z</time>
      </trkpt>
      <trkpt lat="43.137967" lon="-5.639033">
        <ele>1105.0</ele>
        <time>2012-05-29T09:01:17Z</time>
      </trkpt>
      <trkpt lat="43.13802" lon="-5.63883">
        <ele>1105.0</ele>
        <time>2012-05-29T09:01:21Z</time>
      </trkpt>
      <trkpt lat="43.13808" lon="-5.638643">
        <ele>1105.0</ele>
        <time>2012-05-29T09:01:25Z</time>
      </trkpt>
      <trkpt lat="43.138186" lon="-5.638493">
        <ele>1106.0</ele>
        <time>2012-05-29T09:01:29Z</time>
      </trkpt>
      <trkpt lat="43.13836" lon="-5.638319">
        <ele>1109.0</ele>
        <time>2012-05-29T09:01:33Z</time>
      </trkpt>
      <trkpt lat="43.138513" lon="-5.638128">
        <ele>1110.0</ele>
        <time>2012-05-29T09:01:37Z</time>
      </trkpt>
      <trkpt lat="43.138563" lon="-5.638034">
        <ele>1110.0</ele>
        <time>2012-05-29T09:01:39Z</time>
      </trkpt>
      <trkpt lat="43.138691" lon="-5.637779">
        <ele>1111.0</ele>
        <time>2012-05-29T09:01:45Z</time>
      </trkpt>
      <trkpt lat="43.138753" lon="-5.637596">
        <ele>1112.0</ele>
        <time>2012-05-29T09:01:49Z</time>
      </trkpt>
      <trkpt lat="43.138761" lon="-5.637507">
        <ele>1113.0</ele>
        <time>2012-05-29T09:01:51Z</time>
      </trkpt>
      <trkpt lat="43.138749" lon="-5.637419">
        <ele>1114.0</ele>
        <time>2012-05-29T09:01:54Z</time>
      </trkpt>
      <trkpt lat="43.138705" lon="-5.637328">
        <ele>1118.0</ele>
        <time>2012-05-29T09:01:59Z</time>
      </trkpt>
      <trkpt lat="43.138577" lon="-5.63728">
        <ele>1123.0</ele>
        <time>2012-05-29T09:02:05Z</time>
      </trkpt>
      <trkpt lat="43.138408" lon="-5.637278">
        <ele>1126.0</ele>
        <time>2012-05-29T09:02:09Z</time>
      </trkpt>
      <trkpt lat="43.13822" lon="-5.637296">
        <ele>1129.0</ele>
        <time>2012-05-29T09:02:13Z</time>
      </trkpt>
      <trkpt lat="43.137902" lon="-5.637332">
        <ele>1134.0</ele>
        <time>2012-05-29T09:02:21Z</time>
      </trkpt>
      <trkpt lat="43.137763" lon="-5.637323">
        <ele>1136.0</ele>
        <time>2012-05-29T09:02:25Z</time>
      </trkpt>
      <trkpt lat="43.137623" lon="-5.637291">
        <ele>1139.0</ele>
        <time>2012-05-29T09:02:29Z</time>
      </trkpt>
      <trkpt lat="43.137488" lon="-5.637239">
        <ele>1141.0</ele>
        <time>2012-05-29T09:02:33Z</time>
      </trkpt>
      <trkpt lat="43.137365" lon="-5.637164">
        <ele>1143.0</ele>
        <time>2012-05-29T09:02:37Z</time>
      </trkpt>
      <trkpt lat="43.137287" lon="-5.637098">
        <ele>1144.0</ele>
        <time>2012-05-29T09:02:40Z</time>
      </trkpt>
      <trkpt lat="43.137215" lon="-5.637024">
        <ele>1145.0</ele>
        <time>2012-05-29T09:02:43Z</time>
      </trkpt>
      <trkpt lat="43.137097" lon="-5.636874">
        <ele>1147.0</ele>
        <time>2012-05-29T09:02:49Z</time>
      </trkpt>
      <trkpt lat="43.13704" lon="-5.63679">
        <ele>1149.0</ele>
        <time>2012-05-29T09:02:52Z</time>
      </trkpt>
      <trkpt lat="43.137002" lon="-5.636686">
        <ele>1150.0</ele>
        <time>2012-05-29T09:02:55Z</time>
      </trkpt>
      <trkpt lat="43.136921" lon="-5.636496">
        <ele>1151.0</ele>
        <time>2012-05-29T09:03:01Z</time>
      </trkpt>
      <trkpt lat="43.136889" lon="-5.636415">
        <ele>1152.0</ele>
        <time>2012-05-29T09:03:04Z</time>
      </trkpt>
      <trkpt lat="43.136858" lon="-5.636324">
        <ele>1153.0</ele>
        <time>2012-05-29T09:03:07Z</time>
      </trkpt>
      <trkpt lat="43.136831" lon="-5.636124">
        <ele>1155.0</ele>
        <time>2012-05-29T09:03:13Z</time>
      </trkpt>
      <trkpt lat="43.136809" lon="-5.636026">
        <ele>1155.0</ele>
        <time>2012-05-29T09:03:16Z</time>
      </trkpt>
      <trkpt lat="43.13678" lon="-5.635916">
        <ele>1155.0</ele>
        <time>2012-05-29T09:03:19Z</time>
      </trkpt>
      <trkpt lat="43.136718" lon="-5.63571">
        <ele>1156.0</ele>
        <time>2012-05-29T09:03:25Z</time>
      </trkpt>
      <trkpt lat="43.136693" lon="-5.635603">
        <ele>1156.0</ele>
        <time>2012-05-29T09:03:28Z</time>
      </trkpt>
      <trkpt lat="43.136641" lon="-5.635406">
        <ele>1157.0</ele>
        <time>2012-05-29T09:03:33Z</time>
      </trkpt>
      <trkpt lat="43.136582" lon="-5.635248">
        <ele>1157.0</ele>
        <time>2012-05-29T09:03:37Z</time>
      </trkpt>
      <trkpt lat="43.136573" lon="-5.635159">
        <ele>1158.0</ele>
        <time>2012-05-29T09:03:39Z</time>
      </trkpt>
      <trkpt lat="43.136557" lon="-5.634929">
        <ele>1158.0</ele>
        <time>2012-05-29T09:03:45Z</time>
      </trkpt>
      <trkpt lat="43.136647" lon="-5.634632">
        <ele>1159.0</ele>
        <time>2012-05-29T09:03:53Z</time>
      </trkpt>
      <trkpt lat="43.136661" lon="-5.634514">
        <ele>1159.0</ele>
        <time>2012-05-29T09:03:56Z</time>
      </trkpt>
      <trkpt lat="43.13667" lon="-5.63439">
        <ele>1159.0</ele>
        <time>2012-05-29T09:03:59Z</time>
      </trkpt>
      <trkpt lat="43.136643" lon="-5.634044">
        <ele>1159.0</ele>
        <time>2012-05-29T09:04:08Z</time>
      </trkpt>
      <trkpt lat="43.136593" lon="-5.633973">
        <ele>1159.0</ele>
        <time>2012-05-29T09:04:12Z</time>
      </trkpt>
      <trkpt lat="43.136445" lon="-5.634186">
        <ele>1161.0</ele>
        <time>2012-05-29T09:04:21Z</time>
      </trkpt>
      <trkpt lat="43.136361" lon="-5.634392">
        <ele>1162.0</ele>
        <time>2012-05-29T09:04:25Z</time>
      </trkpt>
      <trkpt lat="43.136297" lon="-5.634612">
        <ele>1164.0</ele>
        <time>2012-05-29T09:04:29Z</time>
      </trkpt>
      <trkpt lat="43.13625" lon="-5.63484">
        <ele>1165.0</ele>
        <time>2012-05-29T09:04:33Z</time>
      </trkpt>
      <trkpt lat="43.136225" lon="-5.635064">
        <ele>1166.0</ele>
        <time>2012-05-29T09:04:37Z</time>
      </trkpt>
      <trkpt lat="43.136223" lon="-5.635168">
        <ele>1167.0</ele>
        <time>2012-05-29T09:04:39Z</time>
      </trkpt>
      <trkpt lat="43.136202" lon="-5.635455">
        <ele>1168.0</ele>
        <time>2012-05-29T09:04:45Z</time>
      </trkpt>
      <trkpt lat="43.1362" lon="-5.635644">
        <ele>1168.0</ele>
        <time>2012-05-29T09:04:49Z</time>
      </trkpt>
      <trkpt lat="43.136184" lon="-5.635835">
        <ele>1169.0</ele>
        <time>2012-05-29T09:04:53Z</time>
      </trkpt>
      <trkpt lat="43.136154" lon="-5.636027">
        <ele>1169.0</ele>
        <time>2012-05-29T09:04:57Z</time>
      </trkpt>
      <trkpt lat="43.136131" lon="-5.636126">
        <ele>1170.0</ele>
        <time>2012-05-29T09:04:59Z</time>
      </trkpt>
      <trkpt lat="43.13609" lon="-5.636409">
        <ele>1171.0</ele>
        <time>2012-05-29T09:05:05Z</time>
      </trkpt>
      <trkpt lat="43.1361" lon="-5.636596">
        <ele>1171.0</ele>
        <time>2012-05-29T09:05:09Z</time>
      </trkpt>
      <trkpt lat="43.136079" lon="-5.636803">
        <ele>1172.0</ele>
        <time>2012-05-29T09:05:17Z</time>
      </trkpt>
      <trkpt lat="43.136055" lon="-5.636893">
        <ele>1172.0</ele>
        <time>2012-05-29T09:05:21Z</time>
      </trkpt>
      <trkpt lat="43.136031" lon="-5.636983">
        <ele>1172.0</ele>
        <time>2012-05-29T09:05:25Z</time>
      </trkpt>
      <trkpt lat="43.135545" lon="-5.635796">
        <ele>1171.0</ele>
        <time>2012-05-29T09:05:33Z</time>
      </trkpt>
      <trkpt lat="43.135324" lon="-5.635623">
        <ele>1171.0</ele>
        <time>2012-05-29T09:05:37Z</time>
      </trkpt>
      <trkpt lat="43.135174" lon="-5.635522">
        <ele>1171.0</ele>
        <time>2012-05-29T09:05:41Z</time>
      </trkpt>
      <trkpt lat="43.135102" lon="-5.635466">
        <ele>1172.0</ele>
        <time>2012-05-29T09:05:44Z</time>
      </trkpt>
      <trkpt lat="43.135035" lon="-5.635416">
        <ele>1172.0</ele>
        <time>2012-05-29T09:05:49Z</time>
      </trkpt>
      <trkpt lat="43.134974" lon="-5.635387">
        <ele>1172.0</ele>
        <time>2012-05-29T09:05:54Z</time>
      </trkpt>
      <trkpt lat="43.13508" lon="-5.635271">
        <ele>1173.0</ele>
        <time>2012-05-29T09:06:04Z</time>
      </trkpt>
      <trkpt lat="43.135263" lon="-5.635284">
        <ele>1174.0</ele>
        <time>2012-05-29T09:06:08Z</time>
      </trkpt>
      <trkpt lat="43.13547" lon="-5.635392">
        <ele>1175.0</ele>
        <time>2012-05-29T09:06:12Z</time>
      </trkpt>
      <trkpt lat="43.135786" lon="-5.635739">
        <ele>1191.0</ele>
        <time>2012-05-29T09:06:17Z</time>
      </trkpt>
      <trkpt lat="43.135976" lon="-5.636039">
        <ele>1197.0</ele>
        <time>2012-05-29T09:06:21Z</time>
      </trkpt>
      <trkpt lat="43.136135" lon="-5.636328">
        <ele>1198.0</ele>
        <time>2012-05-29T09:06:25Z</time>
      </trkpt>
      <trkpt lat="43.136249" lon="-5.636515">
        <ele>1199.0</ele>
        <time>2012-05-29T09:06:28Z</time>
      </trkpt>
      <trkpt lat="43.136466" lon="-5.636299">
        <ele>1202.0</ele>
        <time>2012-05-29T09:06:33Z</time>
      </trkpt>
      <trkpt lat="43.136459" lon="-5.63582">
        <ele>1204.0</ele>
        <time>2012-05-29T09:06:37Z</time>
      </trkpt>
      <trkpt lat="43.136463" lon="-5.635394">
        <ele>1204.0</ele>
        <time>2012-05-29T09:06:41Z</time>
      </trkpt>
      <trkpt lat="43.136474" lon="-5.634979">
        <ele>1204.0</ele>
        <time>2012-05-29T09:06:45Z</time>
      </trkpt>
      <trkpt lat="43.136476" lon="-5.634586">
        <ele>1204.0</ele>
        <time>2012-05-29T09:06:49Z</time>
      </trkpt>
      <trkpt lat="43.136484" lon="-5.634333">
        <ele>1205.0</ele>
        <time>2012-05-29T09:06:52Z</time>
      </trkpt>
      <trkpt lat="43.13659" lon="-5.634123">
        <ele>1206.0</ele>
        <time>2012-05-29T09:06:56Z</time>
      </trkpt>
      <trkpt lat="43.136877" lon="-5.634289">
        <ele>1206.0</ele>
        <time>2012-05-29T09:07:01Z</time>
      </trkpt>
      <trkpt lat="43.136958" lon="-5.63463">
        <ele>1207.0</ele>
        <time>2012-05-29T09:07:05Z</time>
      </trkpt>
      <trkpt lat="43.136915" lon="-5.634864">
        <ele>1208.0</ele>
        <time>2012-05-29T09:07:08Z</time>
      </trkpt>
      <trkpt lat="43.136909" lon="-5.635121">
        <ele>1209.0</ele>
        <time>2012-05-29T09:07:12Z</time>
      </trkpt>
      <trkpt lat="43.13691" lon="-5.635349">
        <ele>1210.0</ele>
        <time>2012-05-29T09:07:16Z</time>
      </trkpt>
      <trkpt lat="43.136773" lon="-5.635218">
        <ele>1210.0</ele>
        <time>2012-05-29T09:07:28Z</time>
      </trkpt>
      <trkpt lat="43.136749" lon="-5.634984">
        <ele>1210.0</ele>
        <time>2012-05-29T09:07:32Z</time>
      </trkpt>
      <trkpt lat="43.136726" lon="-5.634783">
        <ele>1210.0</ele>
        <time>2012-05-29T09:07:36Z</time>
      </trkpt>
      <trkpt lat="43.136721" lon="-5.634596">
        <ele>1210.0</ele>
        <time>2012-05-29T09:07:40Z</time>
      </trkpt>
      <trkpt lat="43.136726" lon="-5.63447">
        <ele>1210.0</ele>
        <time>2012-05-29T09:07:43Z</time>
      </trkpt>
      <trkpt lat="43.136736" lon="-5.634225">
        <ele>1210.0</ele>
        <time>2012-05-29T09:07:49Z</time>
      </trkpt>
      <trkpt lat="43.136746" lon="-5.634102">
        <ele>1210.0</ele>
        <time>2012-05-29T09:07:52Z</time>
      </trkpt>
      <trkpt lat="43.136735" lon="-5.634008">
        <ele>1210.0</ele>
        <time>2012-05-29T09:07:55Z</time>
      </trkpt>
      <trkpt lat="43.13659" lon="-5.634042">
        <ele>1210.0</ele>
        <time>2012-05-29T09:08:01Z</time>
      </trkpt>
      <trkpt lat="43.13652" lon="-5.634107">
        <ele>1211.0</ele>
        <time>2012-05-29T09:08:04Z</time>
      </trkpt>
      <trkpt lat="43.136415" lon="-5.634233">
        <ele>1211.0</ele>
        <time>2012-05-29T09:08:08Z</time>
      </trkpt>
      <trkpt lat="43.136343" lon="-5.634405">
        <ele>1211.0</ele>
        <time>2012-05-29T09:08:12Z</time>
      </trkpt>
      <trkpt lat="43.136287" lon="-5.634578">
        <ele>1211.0</ele>
        <time>2012-05-29T09:08:16Z</time>
      </trkpt>
      <trkpt lat="43.136238" lon="-5.634752">
        <ele>1212.0</ele>
        <time>2012-05-29T09:08:20Z</time>
      </trkpt>
      <trkpt lat="43.136199" lon="-5.634925">
        <ele>1212.0</ele>
        <time>2012-05-29T09:08:24Z</time>
      </trkpt>
      <trkpt lat="43.136158" lon="-5.635127">
        <ele>1212.0</ele>
        <time>2012-05-29T09:08:29Z</time>
      </trkpt>
      <trkpt lat="43.136134" lon="-5.635243">
        <ele>1212.0</ele>
        <time>2012-05-29T09:08:32Z</time>
      </trkpt>
      <trkpt lat="43.136111" lon="-5.635359">
        <ele>1212.0</ele>
        <time>2012-05-29T09:08:35Z</time>
      </trkpt>
      <trkpt lat="43.136062" lon="-5.635583">
        <ele>1213.0</ele>
        <time>2012-05-29T09:08:41Z</time>
      </trkpt>
      <trkpt lat="43.136034" lon="-5.635696">
        <ele>1213.0</ele>
        <time>2012-05-29T09:08:44Z</time>
      </trkpt>
      <trkpt lat="43.136009" lon="-5.635808">
        <ele>1213.0</ele>
        <time>2012-05-29T09:08:47Z</time>
      </trkpt>
      <trkpt lat="43.135978" lon="-5.636043">
        <ele>1213.0</ele>
        <time>2012-05-29T09:08:53Z</time>
      </trkpt>
      <trkpt lat="43.135977" lon="-5.63616">
        <ele>1214.0</ele>
        <time>2012-05-29T09:08:56Z</time>
      </trkpt>
      <trkpt lat="43.135978" lon="-5.636281">
        <ele>1214.0</ele>
        <time>2012-05-29T09:08:59Z</time>
      </trkpt>
      <trkpt lat="43.135956" lon="-5.636495">
        <ele>1214.0</ele>
        <time>2012-05-29T09:09:05Z</time>
      </trkpt>
      <trkpt lat="43.135898" lon="-5.636534">
        <ele>1215.0</ele>
        <time>2012-05-29T09:09:09Z</time>
      </trkpt>
      <trkpt lat="43.135835" lon="-5.636468">
        <ele>1215.0</ele>
        <time>2012-05-29T09:09:13Z</time>
      </trkpt>
      <trkpt lat="43.135771" lon="-5.636411">
        <ele>1216.0</ele>
        <time>2012-05-29T09:09:16Z</time>
      </trkpt>
      <trkpt lat="43.135683" lon="-5.636241">
        <ele>1216.0</ele>
        <time>2012-05-29T09:09:21Z</time>
      </trkpt>
      <trkpt lat="43.135627" lon="-5.636076">
        <ele>1217.0</ele>
        <time>2012-05-29T09:09:25Z</time>
      </trkpt>
      <trkpt lat="43.135561" lon="-5.635913">
        <ele>1217.0</ele>
        <time>2012-05-29T09:09:29Z</time>
      </trkpt>
      <trkpt lat="43.135485" lon="-5.635733">
        <ele>1218.0</ele>
        <time>2012-05-29T09:09:33Z</time>
      </trkpt>
      <trkpt lat="43.135393" lon="-5.635586">
        <ele>1218.0</ele>
        <time>2012-05-29T09:09:37Z</time>
      </trkpt>
      <trkpt lat="43.135338" lon="-5.635514">
        <ele>1218.0</ele>
        <time>2012-05-29T09:09:40Z</time>
      </trkpt>
      <trkpt lat="43.135232" lon="-5.635379">
        <ele>1219.0</ele>
        <time>2012-05-29T09:09:48Z</time>
      </trkpt>
      <trkpt lat="43.135147" lon="-5.635284">
        <ele>1219.0</ele>
        <time>2012-05-29T09:09:53Z</time>
      </trkpt>
      <trkpt lat="43.135098" lon="-5.635221">
        <ele>1219.0</ele>
        <time>2012-05-29T09:09:56Z</time>
      </trkpt>
      <trkpt lat="43.135038" lon="-5.635146">
        <ele>1219.0</ele>
        <time>2012-05-29T09:09:59Z</time>
      </trkpt>
      <trkpt lat="43.134933" lon="-5.634999">
        <ele>1219.0</ele>
        <time>2012-05-29T09:10:05Z</time>
      </trkpt>
      <trkpt lat="43.134933" lon="-5.634999">
        <time>2012-05-29T09:10:16Z</time>
      </trkpt>
    </trkseg>
    <trkseg>
      <trkpt lat="43.134933" lon="-5.634999">
        <time>2012-05-29T09:10:21Z</time>
      </trkpt>
      <trkpt lat="43.135051" lon="-5.634941">
        <ele>1219.0</ele>
        <time>2012-05-29T09:10:26Z</time>
      </trkpt>
      <trkpt lat="43.135051" lon="-5.634941">
        <time>2012-05-29T09:10:37Z</time>
      </trkpt>
    </trkseg>
    <trkseg>
      <trkpt lat="43.135051" lon="-5.634941">
        <time>2012-05-29T09:11:03Z</time>
      </trkpt>
      <trkpt lat="43.135051" lon="-5.634941">
        <time>2012-05-29T09:11:14Z</time>
      </trkpt>
    </trkseg>
    <trkseg>
      <trkpt lat="43.135051" lon="-5.634941">
        <time>2012-05-29T09:11:56Z</time>
      </trkpt>
      <trkpt lat="43.135051" lon="-5.634941">
        <time>2012-05-29T09:12:07Z</time>
      </trkpt>
    </trkseg>
    <trkseg>
      <trkpt lat="43.135051" lon="-5.634941">
        <time>2012-05-29T09:13:19Z</time>
      </trkpt>
      <trkpt lat="43.135051" lon="-5.634941">
        <time>2012-05-29T09:13:30Z</time>
      </trkpt>
    </trkseg>
    <trkseg>
      <trkpt lat="43.135051" lon="-5.634941">
        <time>2012-05-29T09:15:04Z</time>
      </trkpt>
      <trkpt lat="43.135305" lon="-5.634982">
        <ele>1226.0</ele>
        <time>2012-05-29T09:15:07Z</time>
      </trkpt>
      <trkpt lat="43.135402" lon="-5.635164">
        <ele>1226.0</ele>
        <time>2012-05-29T09:15:12Z</time>
      </trkpt>
      <trkpt lat="43.135429" lon="-5.635245">
        <ele>1226.0</ele>
        <time>2012-05-29T09:15:14Z</time>
      </trkpt>
      <trkpt lat="43.135397" lon="-5.635467">
        <ele>1227.0</ele>
        <time>2012-05-29T09:15:20Z</time>
      </trkpt>
      <trkpt lat="43.135353" lon="-5.635549">
        <ele>1227.0</ele>
        <time>2012-05-29T09:15:22Z</time>
      </trkpt>
      <trkpt lat="43.135275" lon="-5.635735">
        <ele>1227.0</ele>
        <time>2012-05-29T09:15:28Z</time>
      </trkpt>
      <trkpt lat="43.135215" lon="-5.635706">
        <ele>1228.0</ele>
        <time>2012-05-29T09:15:35Z</time>
      </trkpt>
      <trkpt lat="43.135215" lon="-5.635706">
        <time>2012-05-29T09:15:46Z</time>
      </trkpt>
    </trkseg>
    <trkseg>
      <trkpt lat="43.135215" lon="-5.635706">
        <time>2012-05-29T09:15:53Z</time>
      </trkpt>
      <trkpt lat="43.135215" lon="-5.635706">
        <time>2012-05-29T09:16:04Z</time>
      </trkpt>
    </trkseg>
    <trkseg>
      <trkpt lat="43.135215" lon="-5.635706">
        <time>2012-05-29T09:16:24Z</time>
      </trkpt>
      <trkpt lat="43.135167" lon="-5.63542">
        <ele>1230.0</ele>
        <time>2012-05-29T09:16:27Z</time>
      </trkpt>
      <trkpt lat="43.135184" lon="-5.635305">
        <ele>1231.0</ele>
        <time>2012-05-29T09:16:30Z</time>
      </trkpt>
      <trkpt lat="43.135216" lon="-5.635227">
        <ele>1232.0</ele>
        <time>2012-05-29T09:16:33Z</time>
      </trkpt>
      <trkpt lat="43.135313" lon="-5.635108">
        <ele>1233.0</ele>
        <time>2012-05-29T09:16:39Z</time>
      </trkpt>
      <trkpt lat="43.135385" lon="-5.635127">
        <ele>1234.0</ele>
        <time>2012-05-29T09:16:43Z</time>
      </trkpt>
      <trkpt lat="43.135445" lon="-5.635205">
        <ele>1234.0</ele>
        <time>2012-05-29T09:16:47Z</time>
      </trkpt>
      <trkpt lat="43.135481" lon="-5.635306">
        <ele>1235.0</ele>
        <time>2012-05-29T09:16:51Z</time>
      </trkpt>
      <trkpt lat="43.135481" lon="-5.635306">
        <time>2012-05-29T09:17:03Z</time>
      </trkpt>
    </trkseg>
    <trkseg>
      <trkpt lat="43.135481" lon="-5.635306">
        <time>2012-05-29T09:17:07Z</time>
      </trkpt>
      <trkpt lat="43.135481" lon="-5.635306">
        <time>2012-05-29T09:17:18Z</time>
      </trkpt>
    </trkseg>
    <trkseg>
      <trkpt lat="43.135481" lon="-5.635306">
        <time>2012-05-29T09:19:04Z</time>
      </trkpt>
      <trkpt lat="43.135556" lon="-5.635567">
        <ele>1238.0</ele>
        <time>2012-05-29T09:19:08Z</time>
      </trkpt>
      <trkpt lat="43.135771" lon="-5.63587">
        <ele>1239.0</ele>
        <time>2012-05-29T09:19:13Z</time>
      </trkpt>
      <trkpt lat="43.13587" lon="-5.636126">
        <ele>1239.0</ele>
        <time>2012-05-29T09:19:16Z</time>
      </trkpt>
      <trkpt lat="43.13602" lon="-5.636444">
        <ele>1239.0</ele>
        <time>2012-05-29T09:19:21Z</time>
      </trkpt>
      <trkpt lat="43.136091" lon="-5.63652">
        <ele>1239.0</ele>
        <time>2012-05-29T09:19:23Z</time>
      </trkpt>
      <trkpt lat="43.13642" lon="-5.63608">
        <ele>1240.0</ele>
        <time>2012-05-29T09:19:28Z</time>
      </trkpt>
      <trkpt lat="43.136514" lon="-5.635227">
        <ele>1241.0</ele>
        <time>2012-05-29T09:19:32Z</time>
      </trkpt>
      <trkpt lat="43.136609" lon="-5.634399">
        <ele>1240.0</ele>
        <time>2012-05-29T09:19:37Z</time>
      </trkpt>
      <trkpt lat="43.136669" lon="-5.633862">
        <ele>1239.0</ele>
        <time>2012-05-29T09:19:41Z</time>
      </trkpt>
      <trkpt lat="43.137056" lon="-5.633793">
        <ele>1240.0</ele>
        <time>2012-05-29T09:19:45Z</time>
      </trkpt>
      <trkpt lat="43.137189" lon="-5.634394">
        <ele>1241.0</ele>
        <time>2012-05-29T09:19:49Z</time>
      </trkpt>
      <trkpt lat="43.137014" lon="-5.635195">
        <ele>1242.0</ele>
        <time>2012-05-29T09:19:53Z</time>
      </trkpt>
      <trkpt lat="43.136946" lon="-5.63584">
        <ele>1243.0</ele>
        <time>2012-05-29T09:19:57Z</time>
      </trkpt>
      <trkpt lat="43.136955" lon="-5.636384">
        <ele>1244.0</ele>
        <time>2012-05-29T09:20:01Z</time>
      </trkpt>
      <trkpt lat="43.137019" lon="-5.636874">
        <ele>1245.0</ele>
        <time>2012-05-29T09:20:05Z</time>
      </trkpt>
      <trkpt lat="43.137121" lon="-5.637346">
        <ele>1245.0</ele>
        <time>2012-05-29T09:20:09Z</time>
      </trkpt>
      <trkpt lat="43.137349" lon="-5.637685">
        <ele>1244.0</ele>
        <time>2012-05-29T09:20:13Z</time>
      </trkpt>
      <trkpt lat="43.137644" lon="-5.637952">
        <ele>1244.0</ele>
        <time>2012-05-29T09:20:17Z</time>
      </trkpt>
      <trkpt lat="43.137931" lon="-5.63822">
        <ele>1244.0</ele>
        <time>2012-05-29T09:20:21Z</time>
      </trkpt>
      <trkpt lat="43.138068" lon="-5.63818">
        <ele>1241.0</ele>
        <time>2012-05-29T09:20:24Z</time>
      </trkpt>
      <trkpt lat="43.138049" lon="-5.638075">
        <ele>1240.0</ele>
        <time>2012-05-29T09:20:26Z</time>
      </trkpt>
      <trkpt lat="43.138049" lon="-5.638075">
        <time>2012-05-29T09:20:37Z</time>
      </trkpt>
    </trkseg>
    <trkseg>
      <trkpt lat="43.138049" lon="-5.638075">
        <time>2012-05-29T09:20:40Z</time>
      </trkpt>
      <trkpt lat="43.138084" lon="-5.63842">
        <ele>1233.0</ele>
        <time>2012-05-29T09:20:48Z</time>
      </trkpt>
      <trkpt lat="43.137959" lon="-5.638951">
        <ele>1234.0</ele>
        <time>2012-05-29T09:20:52Z</time>
      </trkpt>
      <trkpt lat="43.137954" lon="-5.639603">
        <ele>1234.0</ele>
        <time>2012-05-29T09:20:56Z</time>
      </trkpt>
      <trkpt lat="43.137982" lon="-5.640088">
        <ele>1234.0</ele>
        <time>2012-05-29T09:20:59Z</time>
      </trkpt>
      <trkpt lat="43.13799" lon="-5.64092">
        <ele>1234.0</ele>
        <time>2012-05-29T09:21:04Z</time>
      </trkpt>
      <trkpt lat="43.137955" lon="-5.641404">
        <ele>1234.0</ele>
        <time>2012-05-29T09:21:07Z</time>
      </trkpt>
      <trkpt lat="43.137943" lon="-5.642099">
        <ele>1233.0</ele>
        <time>2012-05-29T09:21:12Z</time>
      </trkpt>
      <trkpt lat="43.138078" lon="-5.642551">
        <ele>1237.0</ele>
        <time>2012-05-29T09:21:16Z</time>
      </trkpt>
      <trkpt lat="43.138143" lon="-5.642853">
        <ele>1239.0</ele>
        <time>2012-05-29T09:21:19Z</time>
      </trkpt>
      <trkpt lat="43.138473" lon="-5.643085">
        <ele>1237.0</ele>
        <time>2012-05-29T09:21:24Z</time>
      </trkpt>
      <trkpt lat="43.139052" lon="-5.643065">
        <ele>1237.0</ele>
        <time>2012-05-29T09:21:28Z</time>
      </trkpt>
      <trkpt lat="43.139522" lon="-5.642885">
        <ele>1237.0</ele>
        <time>2012-05-29T09:21:32Z</time>
      </trkpt>
      <trkpt lat="43.13985" lon="-5.643059">
        <ele>1237.0</ele>
        <time>2012-05-29T09:21:36Z</time>
      </trkpt>
      <trkpt lat="43.139995" lon="-5.643869">
        <ele>1237.0</ele>
        <time>2012-05-29T09:21:40Z</time>
      </trkpt>
      <trkpt lat="43.140004" lon="-5.644725">
        <ele>1237.0</ele>
        <time>2012-05-29T09:21:44Z</time>
      </trkpt>
      <trkpt lat="43.139985" lon="-5.645348">
        <ele>1236.0</ele>
        <time>2012-05-29T09:21:48Z</time>
      </trkpt>
      <trkpt lat="43.140081" lon="-5.645895">
        <ele>1236.0</ele>
        <time>2012-05-29T09:21:52Z</time>
      </trkpt>
      <trkpt lat="43.14024" lon="-5.646404">
        <ele>1236.0</ele>
        <time>2012-05-29T09:21:56Z</time>
      </trkpt>
      <trkpt lat="43.140394" lon="-5.646937">
        <ele>1236.0</ele>
        <time>2012-05-29T09:22:00Z</time>
      </trkpt>
      <trkpt lat="43.140638" lon="-5.647344">
        <ele>1236.0</ele>
        <time>2012-05-29T09:22:04Z</time>
      </trkpt>
      <trkpt lat="43.140805" lon="-5.647603">
        <ele>1231.0</ele>
        <time>2012-05-29T09:22:07Z</time>
      </trkpt>
      <trkpt lat="43.14118" lon="-5.648068">
        <ele>1216.0</ele>
        <time>2012-05-29T09:22:12Z</time>
      </trkpt>
      <trkpt lat="43.141606" lon="-5.648339">
        <ele>1210.0</ele>
        <time>2012-05-29T09:22:16Z</time>
      </trkpt>
      <trkpt lat="43.142135" lon="-5.648471">
        <ele>1206.0</ele>
        <time>2012-05-29T09:22:20Z</time>
      </trkpt>
      <trkpt lat="43.142638" lon="-5.648671">
        <ele>1203.0</ele>
        <time>2012-05-29T09:22:24Z</time>
      </trkpt>
      <trkpt lat="43.142893" lon="-5.648782">
        <ele>1202.0</ele>
        <time>2012-05-29T09:22:26Z</time>
      </trkpt>
      <trkpt lat="43.143706" lon="-5.648932">
        <ele>1207.0</ele>
        <time>2012-05-29T09:22:32Z</time>
      </trkpt>
      <trkpt lat="43.144278" lon="-5.649028">
        <ele>1208.0</ele>
        <time>2012-05-29T09:22:36Z</time>
      </trkpt>
      <trkpt lat="43.144868" lon="-5.649218">
        <ele>1206.0</ele>
        <time>2012-05-29T09:22:40Z</time>
      </trkpt>
      <trkpt lat="43.145138" lon="-5.649287">
        <ele>1202.0</ele>
        <time>2012-05-29T09:22:42Z</time>
      </trkpt>
      <trkpt lat="43.145536" lon="-5.649913">
        <ele>1199.0</ele>
        <time>2012-05-29T09:22:48Z</time>
      </trkpt>
      <trkpt lat="43.145306" lon="-5.650413">
        <ele>1198.0</ele>
        <time>2012-05-29T09:22:52Z</time>
      </trkpt>
      <trkpt lat="43.145024" lon="-5.650786">
        <ele>1198.0</ele>
        <time>2012-05-29T09:22:56Z</time>
      </trkpt>
      <trkpt lat="43.144667" lon="-5.650985">
        <ele>1198.0</ele>
        <time>2012-05-29T09:23:00Z</time>
      </trkpt>
      <trkpt lat="43.144286" lon="-5.651117">
        <ele>1197.0</ele>
        <time>2012-05-29T09:23:04Z</time>
      </trkpt>
      <trkpt lat="43.14386" lon="-5.651239">
        <ele>1196.0</ele>
        <time>2012-05-29T09:23:08Z</time>
      </trkpt>
      <trkpt lat="43.143395" lon="-5.651327">
        <ele>1195.0</ele>
        <time>2012-05-29T09:23:12Z</time>
      </trkpt>
      <trkpt lat="43.142844" lon="-5.651434">
        <ele>1194.0</ele>
        <time>2012-05-29T09:23:16Z</time>
      </trkpt>
      <trkpt lat="43.142296" lon="-5.651671">
        <ele>1195.0</ele>
        <time>2012-05-29T09:23:20Z</time>
      </trkpt>
      <trkpt lat="43.141829" lon="-5.652002">
        <ele>1195.0</ele>
        <time>2012-05-29T09:23:24Z</time>
      </trkpt>
      <trkpt lat="43.141462" lon="-5.652384">
        <ele>1193.0</ele>
        <time>2012-05-29T09:23:28Z</time>
      </trkpt>
      <trkpt lat="43.141202" lon="-5.652866">
        <ele>1193.0</ele>
        <time>2012-05-29T09:23:32Z</time>
      </trkpt>
      <trkpt lat="43.141002" lon="-5.653438">
        <ele>1194.0</ele>
        <time>2012-05-29T09:23:36Z</time>
      </trkpt>
      <trkpt lat="43.140856" lon="-5.654094">
        <ele>1195.0</ele>
        <time>2012-05-29T09:23:40Z</time>
      </trkpt>
      <trkpt lat="43.140844" lon="-5.65471">
        <ele>1194.0</ele>
        <time>2012-05-29T09:23:44Z</time>
      </trkpt>
      <trkpt lat="43.140905" lon="-5.655282">
        <ele>1192.0</ele>
        <time>2012-05-29T09:23:48Z</time>
      </trkpt>
      <trkpt lat="43.141103" lon="-5.656045">
        <ele>1191.0</ele>
        <time>2012-05-29T09:23:52Z</time>
      </trkpt>
      <trkpt lat="43.141858" lon="-5.657542">
        <ele>1165.0</ele>
        <time>2012-05-29T09:24:04Z</time>
      </trkpt>
      <trkpt lat="43.141972" lon="-5.658114">
        <ele>1148.0</ele>
        <time>2012-05-29T09:24:08Z</time>
      </trkpt>
      <trkpt lat="43.142052" lon="-5.658737">
        <ele>1144.0</ele>
        <time>2012-05-29T09:24:12Z</time>
      </trkpt>
      <trkpt lat="43.142247" lon="-5.659306">
        <ele>1145.0</ele>
        <time>2012-05-29T09:24:16Z</time>
      </trkpt>
      <trkpt lat="43.142165" lon="-5.659705">
        <ele>1147.0</ele>
        <time>2012-05-29T09:24:20Z</time>
      </trkpt>
      <trkpt lat="43.142436" lon="-5.659694">
        <ele>1141.0</ele>
        <time>2012-05-29T09:24:28Z</time>
      </trkpt>
      <trkpt lat="43.142765" lon="-5.659887">
        <ele>1114.0</ele>
        <time>2012-05-29T09:24:32Z</time>
      </trkpt>
      <trkpt lat="43.142932" lon="-5.660049">
        <ele>1095.0</ele>
        <time>2012-05-29T09:24:34Z</time>
      </trkpt>
      <trkpt lat="43.143096" lon="-5.661087">
        <ele>1077.0</ele>
        <time>2012-05-29T09:24:40Z</time>
      </trkpt>
      <trkpt lat="43.143077" lon="-5.661844">
        <ele>1078.0</ele>
        <time>2012-05-29T09:24:44Z</time>
      </trkpt>
      <trkpt lat="43.142962" lon="-5.662576">
        <ele>1078.0</ele>
        <time>2012-05-29T09:24:48Z</time>
      </trkpt>
      <trkpt lat="43.142936" lon="-5.663301">
        <ele>1077.0</ele>
        <time>2012-05-29T09:24:52Z</time>
      </trkpt>
      <trkpt lat="43.14297" lon="-5.664015">
        <ele>1077.0</ele>
        <time>2012-05-29T09:24:56Z</time>
      </trkpt>
      <trkpt lat="43.142953" lon="-5.66463">
        <ele>1076.0</ele>
        <time>2012-05-29T09:25:00Z</time>
      </trkpt>
      <trkpt lat="43.143051" lon="-5.66517">
        <ele>1076.0</ele>
        <time>2012-05-29T09:25:04Z</time>
      </trkpt>
      <trkpt lat="43.143281" lon="-5.665435">
        <ele>1075.0</ele>
        <time>2012-05-29T09:25:08Z</time>
      </trkpt>
      <trkpt lat="43.143578" lon="-5.665474">
        <ele>1070.0</ele>
        <time>2012-05-29T09:25:12Z</time>
      </trkpt>
      <trkpt lat="43.143993" lon="-5.665452">
        <ele>1060.0</ele>
        <time>2012-05-29T09:25:16Z</time>
      </trkpt>
      <trkpt lat="43.144488" lon="-5.665663">
        <ele>1053.0</ele>
        <time>2012-05-29T09:25:20Z</time>
      </trkpt>
      <trkpt lat="43.145037" lon="-5.665729">
        <ele>1046.0</ele>
        <time>2012-05-29T09:25:24Z</time>
      </trkpt>
      <trkpt lat="43.145557" lon="-5.665638">
        <ele>1040.0</ele>
        <time>2012-05-29T09:25:28Z</time>
      </trkpt>
      <trkpt lat="43.145999" lon="-5.665604">
        <ele>1041.0</ele>
        <time>2012-05-29T09:25:32Z</time>
      </trkpt>
      <trkpt lat="43.146296" lon="-5.665718">
        <ele>1038.0</ele>
        <time>2012-05-29T09:25:35Z</time>
      </trkpt>
      <trkpt lat="43.146354" lon="-5.666459">
        <ele>1036.0</ele>
        <time>2012-05-29T09:25:40Z</time>
      </trkpt>
      <trkpt lat="43.14619" lon="-5.667227">
        <ele>1037.0</ele>
        <time>2012-05-29T09:25:44Z</time>
      </trkpt>
      <trkpt lat="43.146085" lon="-5.667988">
        <ele>1038.0</ele>
        <time>2012-05-29T09:25:48Z</time>
      </trkpt>
      <trkpt lat="43.145989" lon="-5.668853">
        <ele>1038.0</ele>
        <time>2012-05-29T09:25:52Z</time>
      </trkpt>
      <trkpt lat="43.145957" lon="-5.669678">
        <ele>1037.0</ele>
        <time>2012-05-29T09:25:56Z</time>
      </trkpt>
      <trkpt lat="43.145979" lon="-5.670335">
        <ele>1037.0</ele>
        <time>2012-05-29T09:26:00Z</time>
      </trkpt>
      <trkpt lat="43.145933" lon="-5.670653">
        <ele>1039.0</ele>
        <time>2012-05-29T09:26:03Z</time>
      </trkpt>
      <trkpt lat="43.146109" lon="-5.671119">
        <ele>1023.0</ele>
        <time>2012-05-29T09:26:08Z</time>
      </trkpt>
      <trkpt lat="43.146318" lon="-5.671579">
        <ele>1014.0</ele>
        <time>2012-05-29T09:26:12Z</time>
      </trkpt>
      <trkpt lat="43.146459" lon="-5.672091">
        <ele>1009.0</ele>
        <time>2012-05-29T09:26:16Z</time>
      </trkpt>
      <trkpt lat="43.146463" lon="-5.672447">
        <ele>1003.0</ele>
        <time>2012-05-29T09:26:19Z</time>
      </trkpt>
      <trkpt lat="43.146571" lon="-5.672624">
        <ele>988.0</ele>
        <time>2012-05-29T09:26:24Z</time>
      </trkpt>
      <trkpt lat="43.146784" lon="-5.672828">
        <ele>981.0</ele>
        <time>2012-05-29T09:26:28Z</time>
      </trkpt>
      <trkpt lat="43.147213" lon="-5.672641">
        <ele>974.0</ele>
        <time>2012-05-29T09:26:32Z</time>
      </trkpt>
      <trkpt lat="43.147824" lon="-5.672188">
        <ele>966.0</ele>
        <time>2012-05-29T09:26:36Z</time>
      </trkpt>
      <trkpt lat="43.148365" lon="-5.671841">
        <ele>966.0</ele>
        <time>2012-05-29T09:26:40Z</time>
      </trkpt>
      <trkpt lat="43.148932" lon="-5.671591">
        <ele>965.0</ele>
        <time>2012-05-29T09:26:44Z</time>
      </trkpt>
      <trkpt lat="43.149468" lon="-5.671355">
        <ele>965.0</ele>
        <time>2012-05-29T09:26:48Z</time>
      </trkpt>
      <trkpt lat="43.149877" lon="-5.671447">
        <ele>961.0</ele>
        <time>2012-05-29T09:26:52Z</time>
      </trkpt>
      <trkpt lat="43.15013" lon="-5.671667">
        <ele>956.0</ele>
        <time>2012-05-29T09:26:55Z</time>
      </trkpt>
      <trkpt lat="43.150253" lon="-5.672602">
        <ele>956.0</ele>
        <time>2012-05-29T09:27:00Z</time>
      </trkpt>
      <trkpt lat="43.150194" lon="-5.673492">
        <ele>955.0</ele>
        <time>2012-05-29T09:27:04Z</time>
      </trkpt>
      <trkpt lat="43.1502" lon="-5.674223">
        <ele>955.0</ele>
        <time>2012-05-29T09:27:08Z</time>
      </trkpt>
      <trkpt lat="43.150246" lon="-5.674622">
        <ele>954.0</ele>
        <time>2012-05-29T09:27:11Z</time>
      </trkpt>
      <trkpt lat="43.150414" lon="-5.674964">
        <ele>949.0</ele>
        <time>2012-05-29T09:27:16Z</time>
      </trkpt>
      <trkpt lat="43.150263" lon="-5.674977">
        <ele>946.0</ele>
        <time>2012-05-29T09:27:19Z</time>
      </trkpt>
      <trkpt lat="43.150407" lon="-5.67523">
        <ele>945.0</ele>
        <time>2012-05-29T09:27:24Z</time>
      </trkpt>
      <trkpt lat="43.150791" lon="-5.675484">
        <ele>947.0</ele>
        <time>2012-05-29T09:27:28Z</time>
      </trkpt>
      <trkpt lat="43.151176" lon="-5.675695">
        <ele>950.0</ele>
        <time>2012-05-29T09:27:32Z</time>
      </trkpt>
      <trkpt lat="43.151426" lon="-5.675618">
        <ele>946.0</ele>
        <time>2012-05-29T09:27:36Z</time>
      </trkpt>
      <trkpt lat="43.151782" lon="-5.675434">
        <ele>930.0</ele>
        <time>2012-05-29T09:27:40Z</time>
      </trkpt>
      <trkpt lat="43.152123" lon="-5.675126">
        <ele>926.0</ele>
        <time>2012-05-29T09:27:44Z</time>
      </trkpt>
      <trkpt lat="43.15243" lon="-5.67469">
        <ele>927.0</ele>
        <time>2012-05-29T09:27:48Z</time>
      </trkpt>
      <trkpt lat="43.152652" lon="-5.674369">
        <ele>930.0</ele>
        <time>2012-05-29T09:27:51Z</time>
      </trkpt>
      <trkpt lat="43.153088" lon="-5.67404">
        <ele>934.0</ele>
        <time>2012-05-29T09:27:56Z</time>
      </trkpt>
      <trkpt lat="43.160064" lon="-5.679974">
        <ele>857.0</ele>
        <time>2012-05-29T09:30:11Z</time>
      </trkpt>
      <trkpt lat="43.160167" lon="-5.680971">
        <ele>855.0</ele>
        <time>2012-05-29T09:30:17Z</time>
      </trkpt>
      <trkpt lat="43.16013" lon="-5.681795">
        <ele>853.0</ele>
        <time>2012-05-29T09:30:21Z</time>
      </trkpt>
      <trkpt lat="43.160151" lon="-5.682791">
        <ele>844.0</ele>
        <time>2012-05-29T09:30:25Z</time>
      </trkpt>
      <trkpt lat="43.160256" lon="-5.683577">
        <ele>838.0</ele>
        <time>2012-05-29T09:30:29Z</time>
      </trkpt>
      <trkpt lat="43.160358" lon="-5.68428">
        <ele>836.0</ele>
        <time>2012-05-29T09:30:33Z</time>
      </trkpt>
      <trkpt lat="43.160179" lon="-5.684388">
        <ele>834.0</ele>
        <time>2012-05-29T09:30:37Z</time>
      </trkpt>
      <trkpt lat="43.160462" lon="-5.684142">
        <ele>813.0</ele>
        <time>2012-05-29T09:30:45Z</time>
      </trkpt>
      <trkpt lat="43.160934" lon="-5.684132">
        <ele>804.0</ele>
        <time>2012-05-29T09:30:49Z</time>
      </trkpt>
      <trkpt lat="43.161368" lon="-5.684196">
        <ele>803.0</ele>
        <time>2012-05-29T09:30:53Z</time>
      </trkpt>
      <trkpt lat="43.161762" lon="-5.68436">
        <ele>804.0</ele>
        <time>2012-05-29T09:30:57Z</time>
      </trkpt>
      <trkpt lat="43.161961" lon="-5.684466">
        <ele>804.0</ele>
        <time>2012-05-29T09:30:59Z</time>
      </trkpt>
      <trkpt lat="43.161961" lon="-5.684466">
        <time>2012-05-29T09:31:10Z</time>
      </trkpt>
    </trkseg>
    <trkseg>
      <trkpt lat="43.161961" lon="-5.684466">
        <time>2012-05-29T09:31:11Z</time>
      </trkpt>
      <trkpt lat="43.16176" lon="-5.686274">
        <ele>793.0</ele>
        <time>2012-05-29T09:31:12Z</time>
      </trkpt>
      <trkpt lat="43.161514" lon="-5.686397">
        <ele>779.0</ele>
        <time>2012-05-29T09:31:17Z</time>
      </trkpt>
      <trkpt lat="43.161376" lon="-5.686543">
        <ele>768.0</ele>
        <time>2012-05-29T09:31:21Z</time>
      </trkpt>
      <trkpt lat="43.161633" lon="-5.687044">
        <ele>761.0</ele>
        <time>2012-05-29T09:31:26Z</time>
      </trkpt>
      <trkpt lat="43.161965" lon="-5.687275">
        <ele>758.0</ele>
        <time>2012-05-29T09:31:29Z</time>
      </trkpt>
      <trkpt lat="43.162572" lon="-5.687599">
        <ele>752.0</ele>
        <time>2012-05-29T09:31:34Z</time>
      </trkpt>
      <trkpt lat="43.163001" lon="-5.68773">
        <ele>750.0</ele>
        <time>2012-05-29T09:31:37Z</time>
      </trkpt>
      <trkpt lat="43.163488" lon="-5.687886">
        <ele>751.0</ele>
        <time>2012-05-29T09:31:41Z</time>
      </trkpt>
      <trkpt lat="43.163936" lon="-5.68795">
        <ele>753.0</ele>
        <time>2012-05-29T09:31:45Z</time>
      </trkpt>
      <trkpt lat="43.16444" lon="-5.688156">
        <ele>753.0</ele>
        <time>2012-05-29T09:31:50Z</time>
      </trkpt>
      <trkpt lat="43.164651" lon="-5.68834">
        <ele>753.0</ele>
        <time>2012-05-29T09:31:52Z</time>
      </trkpt>
      <trkpt lat="43.164709" lon="-5.690143">
        <ele>748.0</ele>
        <time>2012-05-29T09:32:02Z</time>
      </trkpt>
      <trkpt lat="43.164856" lon="-5.690247">
        <ele>739.0</ele>
        <time>2012-05-29T09:32:10Z</time>
      </trkpt>
      <trkpt lat="43.165036" lon="-5.690235">
        <ele>736.0</ele>
        <time>2012-05-29T09:32:14Z</time>
      </trkpt>
      <trkpt lat="43.165159" lon="-5.690131">
        <ele>735.0</ele>
        <time>2012-05-29T09:32:17Z</time>
      </trkpt>
      <trkpt lat="43.165229" lon="-5.68945">
        <ele>718.0</ele>
        <time>2012-05-29T09:32:28Z</time>
      </trkpt>
      <trkpt lat="43.164259" lon="-5.688394">
        <ele>722.0</ele>
        <time>2012-05-29T09:32:38Z</time>
      </trkpt>
      <trkpt lat="43.164214" lon="-5.688118">
        <ele>721.0</ele>
        <time>2012-05-29T09:32:42Z</time>
      </trkpt>
      <trkpt lat="43.164075" lon="-5.687811">
        <ele>721.0</ele>
        <time>2012-05-29T09:32:46Z</time>
      </trkpt>
      <trkpt lat="43.164041" lon="-5.687734">
        <ele>721.0</ele>
        <time>2012-05-29T09:32:47Z</time>
      </trkpt>
      <trkpt lat="43.164041" lon="-5.687734">
        <time>2012-05-29T09:32:58Z</time>
      </trkpt>
    </trkseg>
    <trkseg>
      <trkpt lat="43.164041" lon="-5.687734">
        <time>2012-05-29T09:33:10Z</time>
      </trkpt>
      <trkpt lat="43.165335" lon="-5.684421">
        <ele>689.0</ele>
        <time>2012-05-29T09:33:14Z</time>
      </trkpt>
      <trkpt lat="43.164607" lon="-5.683666">
        <ele>674.0</ele>
        <time>2012-05-29T09:33:17Z</time>
      </trkpt>
      <trkpt lat="43.164116" lon="-5.682923">
        <ele>639.0</ele>
        <time>2012-05-29T09:33:20Z</time>
      </trkpt>
      <trkpt lat="43.163991" lon="-5.681756">
        <ele>620.0</ele>
        <time>2012-05-29T09:33:26Z</time>
      </trkpt>
      <trkpt lat="43.164035" lon="-5.681262">
        <ele>612.0</ele>
        <time>2012-05-29T09:33:30Z</time>
      </trkpt>
      <trkpt lat="43.164095" lon="-5.681019">
        <ele>611.0</ele>
        <time>2012-05-29T09:33:33Z</time>
      </trkpt>
      <trkpt lat="43.164199" lon="-5.68075">
        <ele>602.0</ele>
        <time>2012-05-29T09:33:37Z</time>
      </trkpt>
      <trkpt lat="43.164377" lon="-5.680462">
        <ele>566.0</ele>
        <time>2012-05-29T09:33:42Z</time>
      </trkpt>
      <trkpt lat="43.16447" lon="-5.680653">
        <ele>540.0</ele>
        <time>2012-05-29T09:33:46Z</time>
      </trkpt>
      <trkpt lat="43.164377" lon="-5.680937">
        <ele>512.0</ele>
        <time>2012-05-29T09:33:50Z</time>
      </trkpt>
      <trkpt lat="43.164194" lon="-5.681101">
        <ele>481.0</ele>
        <time>2012-05-29T09:33:54Z</time>
      </trkpt>
      <trkpt lat="43.164121" lon="-5.681103">
        <ele>469.0</ele>
        <time>2012-05-29T09:33:56Z</time>
      </trkpt>
      <trkpt lat="43.164399" lon="-5.680795">
        <ele>451.0</ele>
        <time>2012-05-29T09:34:02Z</time>
      </trkpt>
      <trkpt lat="43.164615" lon="-5.680938">
        <ele>447.0</ele>
        <time>2012-05-29T09:34:06Z</time>
      </trkpt>
      <trkpt lat="43.164583" lon="-5.681263">
        <ele>444.0</ele>
        <time>2012-05-29T09:34:10Z</time>
      </trkpt>
      <trkpt lat="43.164499" lon="-5.681374">
        <ele>444.0</ele>
        <time>2012-05-29T09:34:12Z</time>
      </trkpt>
      <trkpt lat="43.16425" lon="-5.681488">
        <ele>443.0</ele>
        <time>2012-05-29T09:34:18Z</time>
      </trkpt>
      <trkpt lat="43.16418" lon="-5.681535">
        <ele>443.0</ele>
        <time>2012-05-29T09:34:20Z</time>
      </trkpt>
      <trkpt lat="43.164043" lon="-5.681831">
        <ele>443.0</ele>
        <time>2012-05-29T09:34:29Z</time>
      </trkpt>
      <trkpt lat="43.163983" lon="-5.681908">
        <ele>443.0</ele>
        <time>2012-05-29T09:34:32Z</time>
      </trkpt>
      <trkpt lat="43.163983" lon="-5.681908">
        <time>2012-05-29T09:34:43Z</time>
      </trkpt>
    </trkseg>
    <trkseg>
      <trkpt lat="43.163983" lon="-5.681908">
        <time>2012-05-29T09:34:56Z</time>
      </trkpt>
      <trkpt lat="43.163983" lon="-5.681908">
        <time>2012-05-29T09:35:07Z</time>
      </trkpt>
    </trkseg>
    <trkseg>
      <trkpt lat="43.163983" lon="-5.681908">
        <time>2012-05-29T09:35:09Z</time>
      </trkpt>
      <trkpt lat="43.164077" lon="-5.681976">
        <ele>440.0</ele>
        <time>2012-05-29T09:35:14Z</time>
      </trkpt>
      <trkpt lat="43.164077" lon="-5.681976">
        <time>2012-05-29T09:35:25Z</time>
      </trkpt>
    </trkseg>
    <trkseg>
      <trkpt lat="43.164077" lon="-5.681976">
        <time>2012-05-29T09:35:28Z</time>
      </trkpt>
      <trkpt lat="43.164211" lon="-5.681456">
        <ele>440.0</ele>
        <time>2012-05-29T09:35:30Z</time>
      </trkpt>
      <trkpt lat="43.164207" lon="-5.681505">
        <ele>440.0</ele>
        <time>2012-05-29T09:35:34Z</time>
      </trkpt>
      <trkpt lat="43.164529" lon="-5.681072">
        <ele>436.0</ele>
        <time>2012-05-29T09:35:39Z</time>
      </trkpt>
      <trkpt lat="43.16465" lon="-5.680772">
        <ele>437.0</ele>
        <time>2012-05-29T09:35:43Z</time>
      </trkpt>
      <trkpt lat="43.164835" lon="-5.680507">
        <ele>435.0</ele>
        <time>2012-05-29T09:35:47Z</time>
      </trkpt>
      <trkpt lat="43.165034" lon="-5.680247">
        <ele>432.0</ele>
        <time>2012-05-29T09:35:51Z</time>
      </trkpt>
      <trkpt lat="43.165175" lon="-5.680062">
        <ele>431.0</ele>
        <time>2012-05-29T09:35:54Z</time>
      </trkpt>
      <trkpt lat="43.165341" lon="-5.679884">
        <ele>430.0</ele>
        <time>2012-05-29T09:35:57Z</time>
      </trkpt>
      <trkpt lat="43.16575" lon="-5.679729">
        <ele>430.0</ele>
        <time>2012-05-29T09:36:03Z</time>
      </trkpt>
      <trkpt lat="43.166039" lon="-5.679772">
        <ele>431.0</ele>
        <time>2012-05-29T09:36:07Z</time>
      </trkpt>
      <trkpt lat="43.166138" lon="-5.679947">
        <ele>431.0</ele>
        <time>2012-05-29T09:36:10Z</time>
      </trkpt>
      <trkpt lat="43.166138" lon="-5.679947">
        <time>2012-05-29T09:36:22Z</time>
      </trkpt>
    </trkseg>
    <trkseg>
      <trkpt lat="43.166138" lon="-5.679947">
        <time>2012-05-29T09:36:24Z</time>
      </trkpt>
      <trkpt lat="43.166138" lon="-5.679947">
        <time>2012-05-29T09:36:35Z</time>
      </trkpt>
    </trkseg>
    <trkseg>
      <trkpt lat="43.166138" lon="-5.679947">
        <time>2012-05-29T09:37:09Z</time>
      </trkpt>
      <trkpt lat="43.166063" lon="-5.680277">
        <ele>429.0</ele>
        <time>2012-05-29T09:37:12Z</time>
      </trkpt>
      <trkpt lat="43.166028" lon="-5.680359">
        <ele>429.0</ele>
        <time>2012-05-29T09:37:14Z</time>
      </trkpt>
      <trkpt lat="43.165986" lon="-5.680459">
        <ele>429.0</ele>
        <time>2012-05-29T09:37:17Z</time>
      </trkpt>
      <trkpt lat="43.165947" lon="-5.680687">
        <ele>429.0</ele>
        <time>2012-05-29T09:37:24Z</time>
      </trkpt>
      <trkpt lat="43.165893" lon="-5.680909">
        <ele>427.0</ele>
        <time>2012-05-29T09:37:28Z</time>
      </trkpt>
      <trkpt lat="43.165867" lon="-5.681045">
        <ele>427.0</ele>
        <time>2012-05-29T09:37:30Z</time>
      </trkpt>
      <trkpt lat="43.165792" lon="-5.681511">
        <ele>426.0</ele>
        <time>2012-05-29T09:37:36Z</time>
      </trkpt>
      <trkpt lat="43.16575" lon="-5.681866">
        <ele>427.0</ele>
        <time>2012-05-29T09:37:40Z</time>
      </trkpt>
      <trkpt lat="43.165746" lon="-5.682242">
        <ele>427.0</ele>
        <time>2012-05-29T09:37:44Z</time>
      </trkpt>
      <trkpt lat="43.165734" lon="-5.682614">
        <ele>426.0</ele>
        <time>2012-05-29T09:37:48Z</time>
      </trkpt>
      <trkpt lat="43.165774" lon="-5.682894">
        <ele>426.0</ele>
        <time>2012-05-29T09:37:51Z</time>
      </trkpt>
      <trkpt lat="43.165945" lon="-5.683311">
        <ele>426.0</ele>
        <time>2012-05-29T09:37:56Z</time>
      </trkpt>
      <trkpt lat="43.166093" lon="-5.683635">
        <ele>426.0</ele>
        <time>2012-05-29T09:38:00Z</time>
      </trkpt>
      <trkpt lat="43.166172" lon="-5.683792">
        <ele>426.0</ele>
        <time>2012-05-29T09:38:02Z</time>
      </trkpt>
      <trkpt lat="43.166413" lon="-5.684254">
        <ele>426.0</ele>
        <time>2012-05-29T09:38:08Z</time>
      </trkpt>
      <trkpt lat="43.166573" lon="-5.684554">
        <ele>427.0</ele>
        <time>2012-05-29T09:38:12Z</time>
      </trkpt>
      <trkpt lat="43.166735" lon="-5.684847">
        <ele>427.0</ele>
        <time>2012-05-29T09:38:16Z</time>
      </trkpt>
      <trkpt lat="43.166897" lon="-5.685145">
        <ele>427.0</ele>
        <time>2012-05-29T09:38:20Z</time>
      </trkpt>
      <trkpt lat="43.166879" lon="-5.685272">
        <ele>427.0</ele>
        <time>2012-05-29T09:38:21Z</time>
      </trkpt>
      <trkpt lat="43.167116" lon="-5.685734">
        <ele>426.0</ele>
        <time>2012-05-29T09:38:27Z</time>
      </trkpt>
      <trkpt lat="43.167246" lon="-5.685986">
        <ele>420.0</ele>
        <time>2012-05-29T09:38:31Z</time>
      </trkpt>
      <trkpt lat="43.167343" lon="-5.686264">
        <ele>418.0</ele>
        <time>2012-05-29T09:38:35Z</time>
      </trkpt>
      <trkpt lat="43.167382" lon="-5.686698">
        <ele>418.0</ele>
        <time>2012-05-29T09:38:40Z</time>
      </trkpt>
      <trkpt lat="43.167303" lon="-5.687097">
        <ele>418.0</ele>
        <time>2012-05-29T09:38:44Z</time>
      </trkpt>
      <trkpt lat="43.167204" lon="-5.687485">
        <ele>419.0</ele>
        <time>2012-05-29T09:38:48Z</time>
      </trkpt>
      <trkpt lat="43.167108" lon="-5.687847">
        <ele>421.0</ele>
        <time>2012-05-29T09:38:52Z</time>
      </trkpt>
      <trkpt lat="43.167068" lon="-5.688219">
        <ele>420.0</ele>
        <time>2012-05-29T09:38:56Z</time>
      </trkpt>
      <trkpt lat="43.167235" lon="-5.688523">
        <ele>419.0</ele>
        <time>2012-05-29T09:39:00Z</time>
      </trkpt>
      <trkpt lat="43.167446" lon="-5.688777">
        <ele>419.0</ele>
        <time>2012-05-29T09:39:04Z</time>
      </trkpt>
      <trkpt lat="43.167658" lon="-5.689031">
        <ele>419.0</ele>
        <time>2012-05-29T09:39:08Z</time>
      </trkpt>
      <trkpt lat="43.167878" lon="-5.689266">
        <ele>420.0</ele>
        <time>2012-05-29T09:39:12Z</time>
      </trkpt>
      <trkpt lat="43.168042" lon="-5.689445">
        <ele>420.0</ele>
        <time>2012-05-29T09:39:15Z</time>
      </trkpt>
      <trkpt lat="43.168254" lon="-5.689693">
        <ele>421.0</ele>
        <time>2012-05-29T09:39:19Z</time>
      </trkpt>
      <trkpt lat="43.168517" lon="-5.690012">
        <ele>420.0</ele>
        <time>2012-05-29T09:39:24Z</time>
      </trkpt>
      <trkpt lat="43.168732" lon="-5.69026">
        <ele>420.0</ele>
        <time>2012-05-29T09:39:28Z</time>
      </trkpt>
      <trkpt lat="43.168949" lon="-5.69051">
        <ele>420.0</ele>
        <time>2012-05-29T09:39:32Z</time>
      </trkpt>
      <trkpt lat="43.169012" lon="-5.690923">
        <ele>419.0</ele>
        <time>2012-05-29T09:39:36Z</time>
      </trkpt>
      <trkpt lat="43.168954" lon="-5.691431">
        <ele>419.0</ele>
        <time>2012-05-29T09:39:40Z</time>
      </trkpt>
      <trkpt lat="43.168774" lon="-5.691983">
        <ele>420.0</ele>
        <time>2012-05-29T09:39:44Z</time>
      </trkpt>
      <trkpt lat="43.168506" lon="-5.692497">
        <ele>420.0</ele>
        <time>2012-05-29T09:39:48Z</time>
      </trkpt>
      <trkpt lat="43.16823" lon="-5.693023">
        <ele>420.0</ele>
        <time>2012-05-29T09:39:52Z</time>
      </trkpt>
      <trkpt lat="43.168028" lon="-5.693533">
        <ele>420.0</ele>
        <time>2012-05-29T09:39:56Z</time>
      </trkpt>
      <trkpt lat="43.167965" lon="-5.694014">
        <ele>420.0</ele>
        <time>2012-05-29T09:40:00Z</time>
      </trkpt>
      <trkpt lat="43.167983" lon="-5.694425">
        <ele>421.0</ele>
        <time>2012-05-29T09:40:04Z</time>
      </trkpt>
      <trkpt lat="43.16807" lon="-5.694787">
        <ele>422.0</ele>
        <time>2012-05-29T09:40:08Z</time>
      </trkpt>
      <trkpt lat="43.168231" lon="-5.695114">
        <ele>422.0</ele>
        <time>2012-05-29T09:40:12Z</time>
      </trkpt>
      <trkpt lat="43.168432" lon="-5.695424">
        <ele>421.0</ele>
        <time>2012-05-29T09:40:16Z</time>
      </trkpt>
      <trkpt lat="43.168653" lon="-5.695723">
        <ele>421.0</ele>
        <time>2012-05-29T09:40:20Z</time>
      </trkpt>
      <trkpt lat="43.168871" lon="-5.696028">
        <ele>420.0</ele>
        <time>2012-05-29T09:40:24Z</time>
      </trkpt>
      <trkpt lat="43.169089" lon="-5.696338">
        <ele>418.0</ele>
        <time>2012-05-29T09:40:28Z</time>
      </trkpt>
      <trkpt lat="43.169316" lon="-5.696631">
        <ele>420.0</ele>
        <time>2012-05-29T09:40:32Z</time>
      </trkpt>
      <trkpt lat="43.169547" lon="-5.696943">
        <ele>421.0</ele>
        <time>2012-05-29T09:40:36Z</time>
      </trkpt>
      <trkpt lat="43.169715" lon="-5.697346">
        <ele>422.0</ele>
        <time>2012-05-29T09:40:40Z</time>
      </trkpt>
      <trkpt lat="43.169795" lon="-5.697731">
        <ele>422.0</ele>
        <time>2012-05-29T09:40:44Z</time>
      </trkpt>
      <trkpt lat="43.169888" lon="-5.69802">
        <ele>422.0</ele>
        <time>2012-05-29T09:40:47Z</time>
      </trkpt>
      <trkpt lat="43.170062" lon="-5.698504">
        <ele>422.0</ele>
        <time>2012-05-29T09:40:52Z</time>
      </trkpt>
      <trkpt lat="43.170118" lon="-5.698934">
        <ele>422.0</ele>
        <time>2012-05-29T09:40:56Z</time>
      </trkpt>
      <trkpt lat="43.170147" lon="-5.699142">
        <ele>422.0</ele>
        <time>2012-05-29T09:40:58Z</time>
      </trkpt>
      <trkpt lat="43.170111" lon="-5.69977">
        <ele>423.0</ele>
        <time>2012-05-29T09:41:04Z</time>
      </trkpt>
      <trkpt lat="43.170136" lon="-5.700205">
        <ele>424.0</ele>
        <time>2012-05-29T09:41:08Z</time>
      </trkpt>
      <trkpt lat="43.170265" lon="-5.700603">
        <ele>425.0</ele>
        <time>2012-05-29T09:41:12Z</time>
      </trkpt>
      <trkpt lat="43.170409" lon="-5.700967">
        <ele>425.0</ele>
        <time>2012-05-29T09:41:16Z</time>
      </trkpt>
      <trkpt lat="43.170492" lon="-5.701367">
        <ele>425.0</ele>
        <time>2012-05-29T09:41:20Z</time>
      </trkpt>
      <trkpt lat="43.170486" lon="-5.701818">
        <ele>425.0</ele>
        <time>2012-05-29T09:41:24Z</time>
      </trkpt>
      <trkpt lat="43.170394" lon="-5.702296">
        <ele>424.0</ele>
        <time>2012-05-29T09:41:28Z</time>
      </trkpt>
      <trkpt lat="43.17031" lon="-5.702748">
        <ele>424.0</ele>
        <time>2012-05-29T09:41:32Z</time>
      </trkpt>
      <trkpt lat="43.170242" lon="-5.703078">
        <ele>423.0</ele>
        <time>2012-05-29T09:41:35Z</time>
      </trkpt>
      <trkpt lat="43.170151" lon="-5.703624">
        <ele>424.0</ele>
        <time>2012-05-29T09:41:40Z</time>
      </trkpt>
      <trkpt lat="43.170117" lon="-5.704058">
        <ele>425.0</ele>
        <time>2012-05-29T09:41:44Z</time>
      </trkpt>
      <trkpt lat="43.170084" lon="-5.704499">
        <ele>425.0</ele>
        <time>2012-05-29T09:41:48Z</time>
      </trkpt>
      <trkpt lat="43.170061" lon="-5.704845">
        <ele>425.0</ele>
        <time>2012-05-29T09:41:51Z</time>
      </trkpt>
      <trkpt lat="43.17" lon="-5.705426">
        <ele>425.0</ele>
        <time>2012-05-29T09:41:56Z</time>
      </trkpt>
      <trkpt lat="43.169904" lon="-5.705844">
        <ele>426.0</ele>
        <time>2012-05-29T09:42:00Z</time>
      </trkpt>
      <trkpt lat="43.169709" lon="-5.706229">
        <ele>426.0</ele>
        <time>2012-05-29T09:42:04Z</time>
      </trkpt>
      <trkpt lat="43.169511" lon="-5.706639">
        <ele>426.0</ele>
        <time>2012-05-29T09:42:08Z</time>
      </trkpt>
      <trkpt lat="43.169315" lon="-5.707052">
        <ele>426.0</ele>
        <time>2012-05-29T09:42:12Z</time>
      </trkpt>
      <trkpt lat="43.169126" lon="-5.707454">
        <ele>427.0</ele>
        <time>2012-05-29T09:42:16Z</time>
      </trkpt>
      <trkpt lat="43.168943" lon="-5.707851">
        <ele>428.0</ele>
        <time>2012-05-29T09:42:20Z</time>
      </trkpt>
      <trkpt lat="43.168755" lon="-5.708233">
        <ele>428.0</ele>
        <time>2012-05-29T09:42:24Z</time>
      </trkpt>
      <trkpt lat="43.168563" lon="-5.708602">
        <ele>428.0</ele>
        <time>2012-05-29T09:42:28Z</time>
      </trkpt>
      <trkpt lat="43.168368" lon="-5.708963">
        <ele>426.0</ele>
        <time>2012-05-29T09:42:32Z</time>
      </trkpt>
      <trkpt lat="43.168188" lon="-5.709322">
        <ele>424.0</ele>
        <time>2012-05-29T09:42:36Z</time>
      </trkpt>
      <trkpt lat="43.168019" lon="-5.709672">
        <ele>423.0</ele>
        <time>2012-05-29T09:42:40Z</time>
      </trkpt>
      <trkpt lat="43.167894" lon="-5.710051">
        <ele>423.0</ele>
        <time>2012-05-29T09:42:44Z</time>
      </trkpt>
      <trkpt lat="43.167811" lon="-5.71044">
        <ele>423.0</ele>
        <time>2012-05-29T09:42:48Z</time>
      </trkpt>
      <trkpt lat="43.167727" lon="-5.710829">
        <ele>422.0</ele>
        <time>2012-05-29T09:42:52Z</time>
      </trkpt>
      <trkpt lat="43.167568" lon="-5.711181">
        <ele>422.0</ele>
        <time>2012-05-29T09:42:56Z</time>
      </trkpt>
      <trkpt lat="43.167345" lon="-5.711477">
        <ele>423.0</ele>
        <time>2012-05-29T09:43:00Z</time>
      </trkpt>
      <trkpt lat="43.16712" lon="-5.711772">
        <ele>425.0</ele>
        <time>2012-05-29T09:43:04Z</time>
      </trkpt>
      <trkpt lat="43.167004" lon="-5.71217">
        <ele>426.0</ele>
        <time>2012-05-29T09:43:08Z</time>
      </trkpt>
      <trkpt lat="43.166978" lon="-5.712582">
        <ele>426.0</ele>
        <time>2012-05-29T09:43:12Z</time>
      </trkpt>
      <trkpt lat="43.167027" lon="-5.71299">
        <ele>426.0</ele>
        <time>2012-05-29T09:43:16Z</time>
      </trkpt>
      <trkpt lat="43.167132" lon="-5.713384">
        <ele>427.0</ele>
        <time>2012-05-29T09:43:20Z</time>
      </trkpt>
      <trkpt lat="43.167281" lon="-5.713741">
        <ele>427.0</ele>
        <time>2012-05-29T09:43:24Z</time>
      </trkpt>
      <trkpt lat="43.167369" lon="-5.71413">
        <ele>426.0</ele>
        <time>2012-05-29T09:43:28Z</time>
      </trkpt>
      <trkpt lat="43.167337" lon="-5.714555">
        <ele>426.0</ele>
        <time>2012-05-29T09:43:32Z</time>
      </trkpt>
      <trkpt lat="43.167268" lon="-5.714984">
        <ele>425.0</ele>
        <time>2012-05-29T09:43:36Z</time>
      </trkpt>
      <trkpt lat="43.167206" lon="-5.715303">
        <ele>425.0</ele>
        <time>2012-05-29T09:43:39Z</time>
      </trkpt>
      <trkpt lat="43.166997" lon="-5.715775">
        <ele>425.0</ele>
        <time>2012-05-29T09:43:44Z</time>
      </trkpt>
      <trkpt lat="43.166876" lon="-5.716154">
        <ele>425.0</ele>
        <time>2012-05-29T09:43:48Z</time>
      </trkpt>
      <trkpt lat="43.166919" lon="-5.716575">
        <ele>425.0</ele>
        <time>2012-05-29T09:43:52Z</time>
      </trkpt>
      <trkpt lat="43.166837" lon="-5.717014">
        <ele>424.0</ele>
        <time>2012-05-29T09:43:56Z</time>
      </trkpt>
      <trkpt lat="43.16674" lon="-5.717453">
        <ele>425.0</ele>
        <time>2012-05-29T09:44:00Z</time>
      </trkpt>
      <trkpt lat="43.166723" lon="-5.717911">
        <ele>426.0</ele>
        <time>2012-05-29T09:44:04Z</time>
      </trkpt>
      <trkpt lat="43.166916" lon="-5.718277">
        <ele>427.0</ele>
        <time>2012-05-29T09:44:08Z</time>
      </trkpt>
      <trkpt lat="43.167032" lon="-5.71856">
        <ele>428.0</ele>
        <time>2012-05-29T09:44:11Z</time>
      </trkpt>
      <trkpt lat="43.166999" lon="-5.719043">
        <ele>426.0</ele>
        <time>2012-05-29T09:44:16Z</time>
      </trkpt>
      <trkpt lat="43.166892" lon="-5.719438">
        <ele>424.0</ele>
        <time>2012-05-29T09:44:20Z</time>
      </trkpt>
      <trkpt lat="43.166821" lon="-5.719874">
        <ele>424.0</ele>
        <time>2012-05-29T09:44:24Z</time>
      </trkpt>
      <trkpt lat="43.166917" lon="-5.720343">
        <ele>423.0</ele>
        <time>2012-05-29T09:44:28Z</time>
      </trkpt>
      <trkpt lat="43.167045" lon="-5.720795">
        <ele>420.0</ele>
        <time>2012-05-29T09:44:32Z</time>
      </trkpt>
      <trkpt lat="43.167141" lon="-5.721238">
        <ele>419.0</ele>
        <time>2012-05-29T09:44:36Z</time>
      </trkpt>
      <trkpt lat="43.167213" lon="-5.721677">
        <ele>418.0</ele>
        <time>2012-05-29T09:44:40Z</time>
      </trkpt>
      <trkpt lat="43.167268" lon="-5.722122">
        <ele>417.0</ele>
        <time>2012-05-29T09:44:44Z</time>
      </trkpt>
      <trkpt lat="43.16734" lon="-5.722547">
        <ele>417.0</ele>
        <time>2012-05-29T09:44:48Z</time>
      </trkpt>
      <trkpt lat="43.167413" lon="-5.722963">
        <ele>417.0</ele>
        <time>2012-05-29T09:44:52Z</time>
      </trkpt>
      <trkpt lat="43.167424" lon="-5.723441">
        <ele>417.0</ele>
        <time>2012-05-29T09:44:56Z</time>
      </trkpt>
      <trkpt lat="43.167339" lon="-5.723906">
        <ele>417.0</ele>
        <time>2012-05-29T09:45:00Z</time>
      </trkpt>
      <trkpt lat="43.167245" lon="-5.724348">
        <ele>417.0</ele>
        <time>2012-05-29T09:45:04Z</time>
      </trkpt>
      <trkpt lat="43.167205" lon="-5.724772">
        <ele>418.0</ele>
        <time>2012-05-29T09:45:08Z</time>
      </trkpt>
      <trkpt lat="43.167153" lon="-5.725192">
        <ele>418.0</ele>
        <time>2012-05-29T09:45:12Z</time>
      </trkpt>
      <trkpt lat="43.167098" lon="-5.725518">
        <ele>418.0</ele>
        <time>2012-05-29T09:45:15Z</time>
      </trkpt>
      <trkpt lat="43.166949" lon="-5.726033">
        <ele>419.0</ele>
        <time>2012-05-29T09:45:20Z</time>
      </trkpt>
      <trkpt lat="43.166745" lon="-5.726381">
        <ele>420.0</ele>
        <time>2012-05-29T09:45:24Z</time>
      </trkpt>
      <trkpt lat="43.16662" lon="-5.726758">
        <ele>420.0</ele>
        <time>2012-05-29T09:45:28Z</time>
      </trkpt>
      <trkpt lat="43.166559" lon="-5.727192">
        <ele>419.0</ele>
        <time>2012-05-29T09:45:32Z</time>
      </trkpt>
      <trkpt lat="43.166535" lon="-5.727646">
        <ele>419.0</ele>
        <time>2012-05-29T09:45:36Z</time>
      </trkpt>
      <trkpt lat="43.166561" lon="-5.728098">
        <ele>418.0</ele>
        <time>2012-05-29T09:45:40Z</time>
      </trkpt>
      <trkpt lat="43.166612" lon="-5.728553">
        <ele>417.0</ele>
        <time>2012-05-29T09:45:44Z</time>
      </trkpt>
      <trkpt lat="43.166661" lon="-5.728896">
        <ele>416.0</ele>
        <time>2012-05-29T09:45:47Z</time>
      </trkpt>
      <trkpt lat="43.166712" lon="-5.729237">
        <ele>415.0</ele>
        <time>2012-05-29T09:45:50Z</time>
      </trkpt>
      <trkpt lat="43.166866" lon="-5.729849">
        <ele>414.0</ele>
        <time>2012-05-29T09:45:56Z</time>
      </trkpt>
      <trkpt lat="43.167086" lon="-5.730152">
        <ele>413.0</ele>
        <time>2012-05-29T09:46:00Z</time>
      </trkpt>
      <trkpt lat="43.16738" lon="-5.73036">
        <ele>412.0</ele>
        <time>2012-05-29T09:46:04Z</time>
      </trkpt>
      <trkpt lat="43.167672" lon="-5.730589">
        <ele>411.0</ele>
        <time>2012-05-29T09:46:08Z</time>
      </trkpt>
      <trkpt lat="43.167902" lon="-5.73092">
        <ele>411.0</ele>
        <time>2012-05-29T09:46:12Z</time>
      </trkpt>
      <trkpt lat="43.168104" lon="-5.731283">
        <ele>410.0</ele>
        <time>2012-05-29T09:46:16Z</time>
      </trkpt>
      <trkpt lat="43.168272" lon="-5.731671">
        <ele>410.0</ele>
        <time>2012-05-29T09:46:20Z</time>
      </trkpt>
      <trkpt lat="43.168363" lon="-5.731996">
        <ele>410.0</ele>
        <time>2012-05-29T09:46:23Z</time>
      </trkpt>
      <trkpt lat="43.16841" lon="-5.732581">
        <ele>411.0</ele>
        <time>2012-05-29T09:46:28Z</time>
      </trkpt>
      <trkpt lat="43.168366" lon="-5.733057">
        <ele>411.0</ele>
        <time>2012-05-29T09:46:32Z</time>
      </trkpt>
      <trkpt lat="43.168265" lon="-5.733499">
        <ele>410.0</ele>
        <time>2012-05-29T09:46:36Z</time>
      </trkpt>
      <trkpt lat="43.168107" lon="-5.733908">
        <ele>410.0</ele>
        <time>2012-05-29T09:46:40Z</time>
      </trkpt>
      <trkpt lat="43.167894" lon="-5.734192">
        <ele>409.0</ele>
        <time>2012-05-29T09:46:44Z</time>
      </trkpt>
      <trkpt lat="43.167694" lon="-5.734463">
        <ele>406.0</ele>
        <time>2012-05-29T09:46:48Z</time>
      </trkpt>
      <trkpt lat="43.167469" lon="-5.734731">
        <ele>403.0</ele>
        <time>2012-05-29T09:46:52Z</time>
      </trkpt>
      <trkpt lat="43.16731" lon="-5.734929">
        <ele>400.0</ele>
        <time>2012-05-29T09:46:55Z</time>
      </trkpt>
      <trkpt lat="43.167037" lon="-5.735295">
        <ele>393.0</ele>
        <time>2012-05-29T09:47:00Z</time>
      </trkpt>
      <trkpt lat="43.166821" lon="-5.735626">
        <ele>389.0</ele>
        <time>2012-05-29T09:47:04Z</time>
      </trkpt>
      <trkpt lat="43.166644" lon="-5.735937">
        <ele>388.0</ele>
        <time>2012-05-29T09:47:08Z</time>
      </trkpt>
      <trkpt lat="43.166553" lon="-5.736288">
        <ele>388.0</ele>
        <time>2012-05-29T09:47:12Z</time>
      </trkpt>
      <trkpt lat="43.166644" lon="-5.736506">
        <ele>388.0</ele>
        <time>2012-05-29T09:47:15Z</time>
      </trkpt>
      <trkpt lat="43.166837" lon="-5.736858">
        <ele>389.0</ele>
        <time>2012-05-29T09:47:20Z</time>
      </trkpt>
      <trkpt lat="43.166985" lon="-5.737165">
        <ele>390.0</ele>
        <time>2012-05-29T09:47:24Z</time>
      </trkpt>
      <trkpt lat="43.167022" lon="-5.737242">
        <ele>390.0</ele>
        <time>2012-05-29T09:47:25Z</time>
      </trkpt>
      <trkpt lat="43.167306" lon="-5.737734">
        <ele>389.0</ele>
        <time>2012-05-29T09:47:32Z</time>
      </trkpt>
      <trkpt lat="43.167637" lon="-5.737784">
        <ele>390.0</ele>
        <time>2012-05-29T09:47:36Z</time>
      </trkpt>
      <trkpt lat="43.167935" lon="-5.737867">
        <ele>390.0</ele>
        <time>2012-05-29T09:47:40Z</time>
      </trkpt>
      <trkpt lat="43.168283" lon="-5.737921">
        <ele>390.0</ele>
        <time>2012-05-29T09:47:44Z</time>
      </trkpt>
      <trkpt lat="43.16866" lon="-5.737998">
        <ele>390.0</ele>
        <time>2012-05-29T09:47:48Z</time>
      </trkpt>
      <trkpt lat="43.169007" lon="-5.738127">
        <ele>390.0</ele>
        <time>2012-05-29T09:47:52Z</time>
      </trkpt>
      <trkpt lat="43.169351" lon="-5.738267">
        <ele>389.0</ele>
        <time>2012-05-29T09:47:56Z</time>
      </trkpt>
      <trkpt lat="43.16968" lon="-5.738427">
        <ele>389.0</ele>
        <time>2012-05-29T09:48:00Z</time>
      </trkpt>
      <trkpt lat="43.169817" lon="-5.738814">
        <ele>390.0</ele>
        <time>2012-05-29T09:48:04Z</time>
      </trkpt>
      <trkpt lat="43.169973" lon="-5.739165">
        <ele>390.0</ele>
        <time>2012-05-29T09:48:08Z</time>
      </trkpt>
      <trkpt lat="43.170157" lon="-5.739504">
        <ele>390.0</ele>
        <time>2012-05-29T09:48:12Z</time>
      </trkpt>
      <trkpt lat="43.170292" lon="-5.739862">
        <ele>390.0</ele>
        <time>2012-05-29T09:48:16Z</time>
      </trkpt>
      <trkpt lat="43.170418" lon="-5.740235">
        <ele>391.0</ele>
        <time>2012-05-29T09:48:20Z</time>
      </trkpt>
      <trkpt lat="43.170546" lon="-5.74062">
        <ele>391.0</ele>
        <time>2012-05-29T09:48:24Z</time>
      </trkpt>
      <trkpt lat="43.170685" lon="-5.740998">
        <ele>391.0</ele>
        <time>2012-05-29T09:48:28Z</time>
      </trkpt>
      <trkpt lat="43.170831" lon="-5.741373">
        <ele>391.0</ele>
        <time>2012-05-29T09:48:32Z</time>
      </trkpt>
      <trkpt lat="43.170868" lon="-5.741466">
        <ele>391.0</ele>
        <time>2012-05-29T09:48:33Z</time>
      </trkpt>
      <trkpt lat="43.171272" lon="-5.74161">
        <ele>393.0</ele>
        <time>2012-05-29T09:48:40Z</time>
      </trkpt>
      <trkpt lat="43.1715" lon="-5.741851">
        <ele>395.0</ele>
        <time>2012-05-29T09:48:44Z</time>
      </trkpt>
      <trkpt lat="43.171816" lon="-5.742026">
        <ele>396.0</ele>
        <time>2012-05-29T09:48:48Z</time>
      </trkpt>
      <trkpt lat="43.172114" lon="-5.742223">
        <ele>396.0</ele>
        <time>2012-05-29T09:48:52Z</time>
      </trkpt>
      <trkpt lat="43.172334" lon="-5.74251">
        <ele>395.0</ele>
        <time>2012-05-29T09:48:56Z</time>
      </trkpt>
      <trkpt lat="43.172499" lon="-5.742892">
        <ele>395.0</ele>
        <time>2012-05-29T09:49:00Z</time>
      </trkpt>
      <trkpt lat="43.172652" lon="-5.743292">
        <ele>394.0</ele>
        <time>2012-05-29T09:49:04Z</time>
      </trkpt>
      <trkpt lat="43.172816" lon="-5.743662">
        <ele>394.0</ele>
        <time>2012-05-29T09:49:08Z</time>
      </trkpt>
      <trkpt lat="43.173023" lon="-5.743995">
        <ele>393.0</ele>
        <time>2012-05-29T09:49:12Z</time>
      </trkpt>
      <trkpt lat="43.173236" lon="-5.744328">
        <ele>393.0</ele>
        <time>2012-05-29T09:49:16Z</time>
      </trkpt>
      <trkpt lat="43.173422" lon="-5.744705">
        <ele>392.0</ele>
        <time>2012-05-29T09:49:20Z</time>
      </trkpt>
      <trkpt lat="43.173542" lon="-5.745133">
        <ele>392.0</ele>
        <time>2012-05-29T09:49:24Z</time>
      </trkpt>
      <trkpt lat="43.173641" lon="-5.745571">
        <ele>391.0</ele>
        <time>2012-05-29T09:49:28Z</time>
      </trkpt>
      <trkpt lat="43.173727" lon="-5.746011">
        <ele>392.0</ele>
        <time>2012-05-29T09:49:32Z</time>
      </trkpt>
      <trkpt lat="43.173786" lon="-5.746435">
        <ele>392.0</ele>
        <time>2012-05-29T09:49:36Z</time>
      </trkpt>
      <trkpt lat="43.173825" lon="-5.746846">
        <ele>392.0</ele>
        <time>2012-05-29T09:49:40Z</time>
      </trkpt>
      <trkpt lat="43.173825" lon="-5.747161">
        <ele>392.0</ele>
        <time>2012-05-29T09:49:43Z</time>
      </trkpt>
      <trkpt lat="43.17378" lon="-5.747698">
        <ele>391.0</ele>
        <time>2012-05-29T09:49:48Z</time>
      </trkpt>
      <trkpt lat="43.173732" lon="-5.748131">
        <ele>391.0</ele>
        <time>2012-05-29T09:49:52Z</time>
      </trkpt>
      <trkpt lat="43.173678" lon="-5.748562">
        <ele>390.0</ele>
        <time>2012-05-29T09:49:56Z</time>
      </trkpt>
      <trkpt lat="43.173621" lon="-5.748963">
        <ele>391.0</ele>
        <time>2012-05-29T09:50:00Z</time>
      </trkpt>
      <trkpt lat="43.173596" lon="-5.749157">
        <ele>391.0</ele>
        <time>2012-05-29T09:50:02Z</time>
      </trkpt>
      <trkpt lat="43.173572" lon="-5.749768">
        <ele>391.0</ele>
        <time>2012-05-29T09:50:08Z</time>
      </trkpt>
      <trkpt lat="43.173631" lon="-5.750209">
        <ele>391.0</ele>
        <time>2012-05-29T09:50:12Z</time>
      </trkpt>
      <trkpt lat="43.173762" lon="-5.750682">
        <ele>391.0</ele>
        <time>2012-05-29T09:50:16Z</time>
      </trkpt>
      <trkpt lat="43.173927" lon="-5.751124">
        <ele>391.0</ele>
        <time>2012-05-29T09:50:20Z</time>
      </trkpt>
      <trkpt lat="43.174104" lon="-5.751557">
        <ele>390.0</ele>
        <time>2012-05-29T09:50:24Z</time>
      </trkpt>
      <trkpt lat="43.174267" lon="-5.751969">
        <ele>389.0</ele>
        <time>2012-05-29T09:50:28Z</time>
      </trkpt>
      <trkpt lat="43.174409" lon="-5.752362">
        <ele>389.0</ele>
        <time>2012-05-29T09:50:32Z</time>
      </trkpt>
      <trkpt lat="43.174505" lon="-5.752644">
        <ele>389.0</ele>
        <time>2012-05-29T09:50:35Z</time>
      </trkpt>
      <trkpt lat="43.174709" lon="-5.752969">
        <ele>389.0</ele>
        <time>2012-05-29T09:50:39Z</time>
      </trkpt>
      <trkpt lat="43.174938" lon="-5.753258">
        <ele>389.0</ele>
        <time>2012-05-29T09:50:43Z</time>
      </trkpt>
      <trkpt lat="43.175181" lon="-5.75353">
        <ele>389.0</ele>
        <time>2012-05-29T09:50:47Z</time>
      </trkpt>
      <trkpt lat="43.175521" lon="-5.75378">
        <ele>387.0</ele>
        <time>2012-05-29T09:50:52Z</time>
      </trkpt>
      <trkpt lat="43.175796" lon="-5.753959">
        <ele>386.0</ele>
        <time>2012-05-29T09:50:56Z</time>
      </trkpt>
      <trkpt lat="43.176095" lon="-5.754085">
        <ele>386.0</ele>
        <time>2012-05-29T09:51:00Z</time>
      </trkpt>
      <trkpt lat="43.176387" lon="-5.754236">
        <ele>386.0</ele>
        <time>2012-05-29T09:51:04Z</time>
      </trkpt>
      <trkpt lat="43.17667" lon="-5.754411">
        <ele>386.0</ele>
        <time>2012-05-29T09:51:08Z</time>
      </trkpt>
      <trkpt lat="43.176973" lon="-5.754524">
        <ele>386.0</ele>
        <time>2012-05-29T09:51:12Z</time>
      </trkpt>
      <trkpt lat="43.177266" lon="-5.754673">
        <ele>386.0</ele>
        <time>2012-05-29T09:51:16Z</time>
      </trkpt>
      <trkpt lat="43.17758" lon="-5.754852">
        <ele>386.0</ele>
        <time>2012-05-29T09:51:20Z</time>
      </trkpt>
      <trkpt lat="43.177835" lon="-5.755161">
        <ele>386.0</ele>
        <time>2012-05-29T09:51:24Z</time>
      </trkpt>
      <trkpt lat="43.177929" lon="-5.755634">
        <ele>386.0</ele>
        <time>2012-05-29T09:51:28Z</time>
      </trkpt>
      <trkpt lat="43.178022" lon="-5.755933">
        <ele>386.0</ele>
        <time>2012-05-29T09:51:31Z</time>
      </trkpt>
      <trkpt lat="43.178253" lon="-5.75636">
        <ele>385.0</ele>
        <time>2012-05-29T09:51:36Z</time>
      </trkpt>
      <trkpt lat="43.178481" lon="-5.756653">
        <ele>384.0</ele>
        <time>2012-05-29T09:51:40Z</time>
      </trkpt>
      <trkpt lat="43.178714" lon="-5.756956">
        <ele>383.0</ele>
        <time>2012-05-29T09:51:44Z</time>
      </trkpt>
      <trkpt lat="43.178935" lon="-5.757276">
        <ele>383.0</ele>
        <time>2012-05-29T09:51:48Z</time>
      </trkpt>
      <trkpt lat="43.179165" lon="-5.757593">
        <ele>383.0</ele>
        <time>2012-05-29T09:51:52Z</time>
      </trkpt>
      <trkpt lat="43.179423" lon="-5.757892">
        <ele>382.0</ele>
        <time>2012-05-29T09:51:56Z</time>
      </trkpt>
      <trkpt lat="43.179699" lon="-5.758159">
        <ele>382.0</ele>
        <time>2012-05-29T09:52:00Z</time>
      </trkpt>
      <trkpt lat="43.179896" lon="-5.758519">
        <ele>381.0</ele>
        <time>2012-05-29T09:52:04Z</time>
      </trkpt>
      <trkpt lat="43.180045" lon="-5.758933">
        <ele>381.0</ele>
        <time>2012-05-29T09:52:08Z</time>
      </trkpt>
      <trkpt lat="43.180086" lon="-5.759275">
        <ele>380.0</ele>
        <time>2012-05-29T09:52:11Z</time>
      </trkpt>
      <trkpt lat="43.180122" lon="-5.759828">
        <ele>377.0</ele>
        <time>2012-05-29T09:52:16Z</time>
      </trkpt>
      <trkpt lat="43.180306" lon="-5.76021">
        <ele>377.0</ele>
        <time>2012-05-29T09:52:20Z</time>
      </trkpt>
      <trkpt lat="43.180593" lon="-5.760452">
        <ele>377.0</ele>
        <time>2012-05-29T09:52:24Z</time>
      </trkpt>
      <trkpt lat="43.180858" lon="-5.7607">
        <ele>378.0</ele>
        <time>2012-05-29T09:52:28Z</time>
      </trkpt>
      <trkpt lat="43.18111" lon="-5.760955">
        <ele>377.0</ele>
        <time>2012-05-29T09:52:32Z</time>
      </trkpt>
      <trkpt lat="43.181369" lon="-5.761189">
        <ele>376.0</ele>
        <time>2012-05-29T09:52:36Z</time>
      </trkpt>
      <trkpt lat="43.181635" lon="-5.761407">
        <ele>374.0</ele>
        <time>2012-05-29T09:52:40Z</time>
      </trkpt>
      <trkpt lat="43.181768" lon="-5.761508">
        <ele>374.0</ele>
        <time>2012-05-29T09:52:42Z</time>
      </trkpt>
      <trkpt lat="43.182065" lon="-5.761602">
        <ele>373.0</ele>
        <time>2012-05-29T09:52:46Z</time>
      </trkpt>
      <trkpt lat="43.182524" lon="-5.761731">
        <ele>373.0</ele>
        <time>2012-05-29T09:52:52Z</time>
      </trkpt>
      <trkpt lat="43.18283" lon="-5.761847">
        <ele>371.0</ele>
        <time>2012-05-29T09:52:56Z</time>
      </trkpt>
      <trkpt lat="43.183176" lon="-5.761737">
        <ele>367.0</ele>
        <time>2012-05-29T09:53:00Z</time>
      </trkpt>
      <trkpt lat="43.183517" lon="-5.761721">
        <ele>365.0</ele>
        <time>2012-05-29T09:53:04Z</time>
      </trkpt>
      <trkpt lat="43.183855" lon="-5.761745">
        <ele>363.0</ele>
        <time>2012-05-29T09:53:08Z</time>
      </trkpt>
      <trkpt lat="43.184192" lon="-5.761792">
        <ele>362.0</ele>
        <time>2012-05-29T09:53:12Z</time>
      </trkpt>
      <trkpt lat="43.184527" lon="-5.761834">
        <ele>362.0</ele>
        <time>2012-05-29T09:53:16Z</time>
      </trkpt>
      <trkpt lat="43.184855" lon="-5.761868">
        <ele>362.0</ele>
        <time>2012-05-29T09:53:20Z</time>
      </trkpt>
      <trkpt lat="43.1851" lon="-5.76189">
        <ele>362.0</ele>
        <time>2012-05-29T09:53:23Z</time>
      </trkpt>
      <trkpt lat="43.185515" lon="-5.76207">
        <ele>361.0</ele>
        <time>2012-05-29T09:53:28Z</time>
      </trkpt>
      <trkpt lat="43.18587" lon="-5.762241">
        <ele>361.0</ele>
        <time>2012-05-29T09:53:32Z</time>
      </trkpt>
      <trkpt lat="43.186189" lon="-5.762703">
        <ele>360.0</ele>
        <time>2012-05-29T09:53:36Z</time>
      </trkpt>
      <trkpt lat="43.186439" lon="-5.763122">
        <ele>359.0</ele>
        <time>2012-05-29T09:53:40Z</time>
      </trkpt>
      <trkpt lat="43.18661" lon="-5.763569">
        <ele>357.0</ele>
        <time>2012-05-29T09:53:44Z</time>
      </trkpt>
      <trkpt lat="43.186703" lon="-5.76378">
        <ele>357.0</ele>
        <time>2012-05-29T09:53:46Z</time>
      </trkpt>
      <trkpt lat="43.186952" lon="-5.764435">
        <ele>355.0</ele>
        <time>2012-05-29T09:53:52Z</time>
      </trkpt>
      <trkpt lat="43.187103" lon="-5.764852">
        <ele>355.0</ele>
        <time>2012-05-29T09:53:56Z</time>
      </trkpt>
      <trkpt lat="43.187229" lon="-5.76528">
        <ele>355.0</ele>
        <time>2012-05-29T09:54:00Z</time>
      </trkpt>
      <trkpt lat="43.187365" lon="-5.765689">
        <ele>354.0</ele>
        <time>2012-05-29T09:54:04Z</time>
      </trkpt>
      <trkpt lat="43.187548" lon="-5.766047">
        <ele>354.0</ele>
        <time>2012-05-29T09:54:08Z</time>
      </trkpt>
      <trkpt lat="43.187739" lon="-5.766383">
        <ele>355.0</ele>
        <time>2012-05-29T09:54:12Z</time>
      </trkpt>
      <trkpt lat="43.187946" lon="-5.766681">
        <ele>355.0</ele>
        <time>2012-05-29T09:54:16Z</time>
      </trkpt>
      <trkpt lat="43.188265" lon="-5.766806">
        <ele>355.0</ele>
        <time>2012-05-29T09:54:20Z</time>
      </trkpt>
      <trkpt lat="43.188431" lon="-5.766856">
        <ele>354.0</ele>
        <time>2012-05-29T09:54:22Z</time>
      </trkpt>
      <trkpt lat="43.188819" lon="-5.766986">
        <ele>354.0</ele>
        <time>2012-05-29T09:54:27Z</time>
      </trkpt>
      <trkpt lat="43.189187" lon="-5.767161">
        <ele>352.0</ele>
        <time>2012-05-29T09:54:32Z</time>
      </trkpt>
      <trkpt lat="43.189466" lon="-5.767341">
        <ele>352.0</ele>
        <time>2012-05-29T09:54:36Z</time>
      </trkpt>
      <trkpt lat="43.18963" lon="-5.767714">
        <ele>352.0</ele>
        <time>2012-05-29T09:54:40Z</time>
      </trkpt>
      <trkpt lat="43.189778" lon="-5.768102">
        <ele>352.0</ele>
        <time>2012-05-29T09:54:44Z</time>
      </trkpt>
      <trkpt lat="43.189881" lon="-5.768525">
        <ele>352.0</ele>
        <time>2012-05-29T09:54:48Z</time>
      </trkpt>
      <trkpt lat="43.18996" lon="-5.768953">
        <ele>352.0</ele>
        <time>2012-05-29T09:54:52Z</time>
      </trkpt>
      <trkpt lat="43.190036" lon="-5.769365">
        <ele>353.0</ele>
        <time>2012-05-29T09:54:56Z</time>
      </trkpt>
      <trkpt lat="43.190124" lon="-5.769758">
        <ele>353.0</ele>
        <time>2012-05-29T09:55:00Z</time>
      </trkpt>
      <trkpt lat="43.190239" lon="-5.770136">
        <ele>353.0</ele>
        <time>2012-05-29T09:55:04Z</time>
      </trkpt>
      <trkpt lat="43.190358" lon="-5.770274">
        <ele>353.0</ele>
        <time>2012-05-29T09:55:06Z</time>
      </trkpt>
      <trkpt lat="43.190685" lon="-5.770718">
        <ele>352.0</ele>
        <time>2012-05-29T09:55:12Z</time>
      </trkpt>
      <trkpt lat="43.190934" lon="-5.770934">
        <ele>352.0</ele>
        <time>2012-05-29T09:55:16Z</time>
      </trkpt>
      <trkpt lat="43.191198" lon="-5.771108">
        <ele>351.0</ele>
        <time>2012-05-29T09:55:20Z</time>
      </trkpt>
      <trkpt lat="43.191383" lon="-5.771262">
        <ele>350.0</ele>
        <time>2012-05-29T09:55:23Z</time>
      </trkpt>
      <trkpt lat="43.191715" lon="-5.771497">
        <ele>350.0</ele>
        <time>2012-05-29T09:55:28Z</time>
      </trkpt>
      <trkpt lat="43.191948" lon="-5.771741">
        <ele>349.0</ele>
        <time>2012-05-29T09:55:32Z</time>
      </trkpt>
      <trkpt lat="43.192168" lon="-5.771991">
        <ele>349.0</ele>
        <time>2012-05-29T09:55:36Z</time>
      </trkpt>
      <trkpt lat="43.192367" lon="-5.772259">
        <ele>349.0</ele>
        <time>2012-05-29T09:55:40Z</time>
      </trkpt>
      <trkpt lat="43.192575" lon="-5.772527">
        <ele>350.0</ele>
        <time>2012-05-29T09:55:44Z</time>
      </trkpt>
      <trkpt lat="43.192766" lon="-5.772812">
        <ele>350.0</ele>
        <time>2012-05-29T09:55:48Z</time>
      </trkpt>
      <trkpt lat="43.192852" lon="-5.772964">
        <ele>350.0</ele>
        <time>2012-05-29T09:55:50Z</time>
      </trkpt>
      <trkpt lat="43.193083" lon="-5.773464">
        <ele>349.0</ele>
        <time>2012-05-29T09:55:56Z</time>
      </trkpt>
      <trkpt lat="43.19323" lon="-5.773813">
        <ele>350.0</ele>
        <time>2012-05-29T09:56:00Z</time>
      </trkpt>
      <trkpt lat="43.193377" lon="-5.774164">
        <ele>350.0</ele>
        <time>2012-05-29T09:56:04Z</time>
      </trkpt>
      <trkpt lat="43.193475" lon="-5.774316">
        <ele>350.0</ele>
        <time>2012-05-29T09:56:06Z</time>
      </trkpt>
      <trkpt lat="43.193802" lon="-5.774734">
        <ele>350.0</ele>
        <time>2012-05-29T09:56:12Z</time>
      </trkpt>
      <trkpt lat="43.19403" lon="-5.774874">
        <ele>350.0</ele>
        <time>2012-05-29T09:56:15Z</time>
      </trkpt>
      <trkpt lat="43.194403" lon="-5.775078">
        <ele>349.0</ele>
        <time>2012-05-29T09:56:20Z</time>
      </trkpt>
      <trkpt lat="43.19462" lon="-5.775197">
        <ele>347.0</ele>
        <time>2012-05-29T09:56:23Z</time>
      </trkpt>
      <trkpt lat="43.194963" lon="-5.775436">
        <ele>346.0</ele>
        <time>2012-05-29T09:56:28Z</time>
      </trkpt>
      <trkpt lat="43.195223" lon="-5.775664">
        <ele>345.0</ele>
        <time>2012-05-29T09:56:32Z</time>
      </trkpt>
      <trkpt lat="43.195348" lon="-5.775791">
        <ele>345.0</ele>
        <time>2012-05-29T09:56:34Z</time>
      </trkpt>
      <trkpt lat="43.195724" lon="-5.776191">
        <ele>345.0</ele>
        <time>2012-05-29T09:56:40Z</time>
      </trkpt>
      <trkpt lat="43.195973" lon="-5.776479">
        <ele>345.0</ele>
        <time>2012-05-29T09:56:44Z</time>
      </trkpt>
      <trkpt lat="43.196215" lon="-5.776802">
        <ele>344.0</ele>
        <time>2012-05-29T09:56:48Z</time>
      </trkpt>
      <trkpt lat="43.19644" lon="-5.777147">
        <ele>345.0</ele>
        <time>2012-05-29T09:56:52Z</time>
      </trkpt>
      <trkpt lat="43.196663" lon="-5.777496">
        <ele>345.0</ele>
        <time>2012-05-29T09:56:56Z</time>
      </trkpt>
      <trkpt lat="43.196788" lon="-5.777905">
        <ele>345.0</ele>
        <time>2012-05-29T09:57:00Z</time>
      </trkpt>
      <trkpt lat="43.196852" lon="-5.778334">
        <ele>345.0</ele>
        <time>2012-05-29T09:57:04Z</time>
      </trkpt>
      <trkpt lat="43.196922" lon="-5.778757">
        <ele>345.0</ele>
        <time>2012-05-29T09:57:08Z</time>
      </trkpt>
      <trkpt lat="43.197083" lon="-5.779263">
        <ele>346.0</ele>
        <time>2012-05-29T09:57:13Z</time>
      </trkpt>
      <trkpt lat="43.19718" lon="-5.779574">
        <ele>346.0</ele>
        <time>2012-05-29T09:57:16Z</time>
      </trkpt>
      <trkpt lat="43.197327" lon="-5.779974">
        <ele>346.0</ele>
        <time>2012-05-29T09:57:20Z</time>
      </trkpt>
      <trkpt lat="43.197478" lon="-5.780371">
        <ele>346.0</ele>
        <time>2012-05-29T09:57:24Z</time>
      </trkpt>
      <trkpt lat="43.197555" lon="-5.780565">
        <ele>347.0</ele>
        <time>2012-05-29T09:57:26Z</time>
      </trkpt>
      <trkpt lat="43.197757" lon="-5.781192">
        <ele>345.0</ele>
        <time>2012-05-29T09:57:32Z</time>
      </trkpt>
      <trkpt lat="43.197881" lon="-5.781732">
        <ele>344.0</ele>
        <time>2012-05-29T09:57:37Z</time>
      </trkpt>
      <trkpt lat="43.197944" lon="-5.782054">
        <ele>343.0</ele>
        <time>2012-05-29T09:57:40Z</time>
      </trkpt>
      <trkpt lat="43.198057" lon="-5.78259">
        <ele>343.0</ele>
        <time>2012-05-29T09:57:45Z</time>
      </trkpt>
      <trkpt lat="43.198146" lon="-5.783025">
        <ele>343.0</ele>
        <time>2012-05-29T09:57:49Z</time>
      </trkpt>
      <trkpt lat="43.198203" lon="-5.783355">
        <ele>342.0</ele>
        <time>2012-05-29T09:57:52Z</time>
      </trkpt>
      <trkpt lat="43.198229" lon="-5.783701">
        <ele>342.0</ele>
        <time>2012-05-29T09:57:55Z</time>
      </trkpt>
      <trkpt lat="43.198204" lon="-5.784204">
        <ele>342.0</ele>
        <time>2012-05-29T09:57:59Z</time>
      </trkpt>
      <trkpt lat="43.198157" lon="-5.784809">
        <ele>342.0</ele>
        <time>2012-05-29T09:58:04Z</time>
      </trkpt>
      <trkpt lat="43.19811" lon="-5.785278">
        <ele>342.0</ele>
        <time>2012-05-29T09:58:08Z</time>
      </trkpt>
      <trkpt lat="43.198087" lon="-5.785514">
        <ele>342.0</ele>
        <time>2012-05-29T09:58:10Z</time>
      </trkpt>
      <trkpt lat="43.198058" lon="-5.786108">
        <ele>341.0</ele>
        <time>2012-05-29T09:58:15Z</time>
      </trkpt>
      <trkpt lat="43.198025" lon="-5.786689">
        <ele>341.0</ele>
        <time>2012-05-29T09:58:20Z</time>
      </trkpt>
      <trkpt lat="43.198006" lon="-5.787149">
        <ele>341.0</ele>
        <time>2012-05-29T09:58:24Z</time>
      </trkpt>
      <trkpt lat="43.19814" lon="-5.787556">
        <ele>341.0</ele>
        <time>2012-05-29T09:58:28Z</time>
      </trkpt>
      <trkpt lat="43.198416" lon="-5.78777">
        <ele>340.0</ele>
        <time>2012-05-29T09:58:32Z</time>
      </trkpt>
      <trkpt lat="43.198712" lon="-5.787793">
        <ele>337.0</ele>
        <time>2012-05-29T09:58:36Z</time>
      </trkpt>
      <trkpt lat="43.198947" lon="-5.787797">
        <ele>332.0</ele>
        <time>2012-05-29T09:58:40Z</time>
      </trkpt>
      <trkpt lat="43.199202" lon="-5.787818">
        <ele>327.0</ele>
        <time>2012-05-29T09:58:44Z</time>
      </trkpt>
      <trkpt lat="43.199503" lon="-5.787804">
        <ele>324.0</ele>
        <time>2012-05-29T09:58:48Z</time>
      </trkpt>
      <trkpt lat="43.199835" lon="-5.787746">
        <ele>322.0</ele>
        <time>2012-05-29T09:58:52Z</time>
      </trkpt>
      <trkpt lat="43.20008" lon="-5.787684">
        <ele>321.0</ele>
        <time>2012-05-29T09:58:55Z</time>
      </trkpt>
      <trkpt lat="43.200462" lon="-5.787563">
        <ele>320.0</ele>
        <time>2012-05-29T09:59:00Z</time>
      </trkpt>
      <trkpt lat="43.200746" lon="-5.787458">
        <ele>320.0</ele>
        <time>2012-05-29T09:59:04Z</time>
      </trkpt>
      <trkpt lat="43.201013" lon="-5.787357">
        <ele>319.0</ele>
        <time>2012-05-29T09:59:08Z</time>
      </trkpt>
      <trkpt lat="43.201268" lon="-5.787281">
        <ele>319.0</ele>
        <time>2012-05-29T09:59:12Z</time>
      </trkpt>
      <trkpt lat="43.201392" lon="-5.787244">
        <ele>319.0</ele>
        <time>2012-05-29T09:59:14Z</time>
      </trkpt>
      <trkpt lat="43.201774" lon="-5.787131">
        <ele>319.0</ele>
        <time>2012-05-29T09:59:20Z</time>
      </trkpt>
      <trkpt lat="43.202036" lon="-5.787045">
        <ele>320.0</ele>
        <time>2012-05-29T09:59:24Z</time>
      </trkpt>
      <trkpt lat="43.202332" lon="-5.786954">
        <ele>321.0</ele>
        <time>2012-05-29T09:59:28Z</time>
      </trkpt>
      <trkpt lat="43.202563" lon="-5.786895">
        <ele>321.0</ele>
        <time>2012-05-29T09:59:31Z</time>
      </trkpt>
      <trkpt lat="43.202989" lon="-5.786815">
        <ele>320.0</ele>
        <time>2012-05-29T09:59:36Z</time>
      </trkpt>
      <trkpt lat="43.203242" lon="-5.786799">
        <ele>320.0</ele>
        <time>2012-05-29T09:59:39Z</time>
      </trkpt>
      <trkpt lat="43.203646" lon="-5.786829">
        <ele>319.0</ele>
        <time>2012-05-29T09:59:44Z</time>
      </trkpt>
      <trkpt lat="43.203883" lon="-5.786858">
        <ele>319.0</ele>
        <time>2012-05-29T09:59:47Z</time>
      </trkpt>
      <trkpt lat="43.204279" lon="-5.786919">
        <ele>318.0</ele>
        <time>2012-05-29T09:59:52Z</time>
      </trkpt>
      <trkpt lat="43.204603" lon="-5.786984">
        <ele>318.0</ele>
        <time>2012-05-29T09:59:56Z</time>
      </trkpt>
      <trkpt lat="43.204765" lon="-5.78702">
        <ele>318.0</ele>
        <time>2012-05-29T09:59:58Z</time>
      </trkpt>
      <trkpt lat="43.205251" lon="-5.787118">
        <ele>317.0</ele>
        <time>2012-05-29T10:00:04Z</time>
      </trkpt>
      <trkpt lat="43.205575" lon="-5.787195">
        <ele>318.0</ele>
        <time>2012-05-29T10:00:08Z</time>
      </trkpt>
      <trkpt lat="43.205896" lon="-5.787243">
        <ele>318.0</ele>
        <time>2012-05-29T10:00:12Z</time>
      </trkpt>
      <trkpt lat="43.206222" lon="-5.787252">
        <ele>318.0</ele>
        <time>2012-05-29T10:00:16Z</time>
      </trkpt>
      <trkpt lat="43.206536" lon="-5.787162">
        <ele>317.0</ele>
        <time>2012-05-29T10:00:20Z</time>
      </trkpt>
      <trkpt lat="43.206836" lon="-5.787009">
        <ele>317.0</ele>
        <time>2012-05-29T10:00:24Z</time>
      </trkpt>
      <trkpt lat="43.207095" lon="-5.786762">
        <ele>317.0</ele>
        <time>2012-05-29T10:00:28Z</time>
      </trkpt>
      <trkpt lat="43.207335" lon="-5.786472">
        <ele>317.0</ele>
        <time>2012-05-29T10:00:32Z</time>
      </trkpt>
      <trkpt lat="43.207569" lon="-5.786175">
        <ele>317.0</ele>
        <time>2012-05-29T10:00:36Z</time>
      </trkpt>
      <trkpt lat="43.207808" lon="-5.785881">
        <ele>317.0</ele>
        <time>2012-05-29T10:00:40Z</time>
      </trkpt>
      <trkpt lat="43.208039" lon="-5.785588">
        <ele>317.0</ele>
        <time>2012-05-29T10:00:44Z</time>
      </trkpt>
      <trkpt lat="43.20827" lon="-5.785297">
        <ele>317.0</ele>
        <time>2012-05-29T10:00:48Z</time>
      </trkpt>
      <trkpt lat="43.208439" lon="-5.785072">
        <ele>317.0</ele>
        <time>2012-05-29T10:00:51Z</time>
      </trkpt>
      <trkpt lat="43.20871" lon="-5.784686">
        <ele>317.0</ele>
        <time>2012-05-29T10:00:56Z</time>
      </trkpt>
      <trkpt lat="43.208877" lon="-5.784452">
        <ele>316.0</ele>
        <time>2012-05-29T10:00:59Z</time>
      </trkpt>
      <trkpt lat="43.209169" lon="-5.78408">
        <ele>315.0</ele>
        <time>2012-05-29T10:01:04Z</time>
      </trkpt>
      <trkpt lat="43.209411" lon="-5.783799">
        <ele>314.0</ele>
        <time>2012-05-29T10:01:08Z</time>
      </trkpt>
      <trkpt lat="43.209652" lon="-5.783514">
        <ele>313.0</ele>
        <time>2012-05-29T10:01:12Z</time>
      </trkpt>
      <trkpt lat="43.209827" lon="-5.783302">
        <ele>313.0</ele>
        <time>2012-05-29T10:01:15Z</time>
      </trkpt>
      <trkpt lat="43.210086" lon="-5.782918">
        <ele>312.0</ele>
        <time>2012-05-29T10:01:20Z</time>
      </trkpt>
      <trkpt lat="43.210286" lon="-5.782626">
        <ele>311.0</ele>
        <time>2012-05-29T10:01:24Z</time>
      </trkpt>
      <trkpt lat="43.210402" lon="-5.782506">
        <ele>311.0</ele>
        <time>2012-05-29T10:01:26Z</time>
      </trkpt>
      <trkpt lat="43.210809" lon="-5.782362">
        <ele>312.0</ele>
        <time>2012-05-29T10:01:32Z</time>
      </trkpt>
      <trkpt lat="43.211101" lon="-5.782397">
        <ele>310.0</ele>
        <time>2012-05-29T10:01:36Z</time>
      </trkpt>
      <trkpt lat="43.211409" lon="-5.782407">
        <ele>307.0</ele>
        <time>2012-05-29T10:01:40Z</time>
      </trkpt>
      <trkpt lat="43.211727" lon="-5.782444">
        <ele>306.0</ele>
        <time>2012-05-29T10:01:44Z</time>
      </trkpt>
      <trkpt lat="43.212042" lon="-5.782526">
        <ele>306.0</ele>
        <time>2012-05-29T10:01:48Z</time>
      </trkpt>
      <trkpt lat="43.212204" lon="-5.782587">
        <ele>305.0</ele>
        <time>2012-05-29T10:01:50Z</time>
      </trkpt>
      <trkpt lat="43.212617" lon="-5.782977">
        <ele>304.0</ele>
        <time>2012-05-29T10:01:56Z</time>
      </trkpt>
      <trkpt lat="43.212878" lon="-5.783252">
        <ele>304.0</ele>
        <time>2012-05-29T10:02:00Z</time>
      </trkpt>
      <trkpt lat="43.213068" lon="-5.78344">
        <ele>304.0</ele>
        <time>2012-05-29T10:02:03Z</time>
      </trkpt>
      <trkpt lat="43.213367" lon="-5.783734">
        <ele>304.0</ele>
        <time>2012-05-29T10:02:08Z</time>
      </trkpt>
      <trkpt lat="43.213681" lon="-5.783766">
        <ele>304.0</ele>
        <time>2012-05-29T10:02:12Z</time>
      </trkpt>
      <trkpt lat="43.214012" lon="-5.783706">
        <ele>304.0</ele>
        <time>2012-05-29T10:02:16Z</time>
      </trkpt>
      <trkpt lat="43.214328" lon="-5.783674">
        <ele>305.0</ele>
        <time>2012-05-29T10:02:20Z</time>
      </trkpt>
      <trkpt lat="43.214638" lon="-5.783655">
        <ele>306.0</ele>
        <time>2012-05-29T10:02:24Z</time>
      </trkpt>
      <trkpt lat="43.214942" lon="-5.783616">
        <ele>306.0</ele>
        <time>2012-05-29T10:02:28Z</time>
      </trkpt>
      <trkpt lat="43.215241" lon="-5.783584">
        <ele>306.0</ele>
        <time>2012-05-29T10:02:32Z</time>
      </trkpt>
      <trkpt lat="43.215468" lon="-5.783536">
        <ele>306.0</ele>
        <time>2012-05-29T10:02:35Z</time>
      </trkpt>
      <trkpt lat="43.215836" lon="-5.783423">
        <ele>305.0</ele>
        <time>2012-05-29T10:02:40Z</time>
      </trkpt>
      <trkpt lat="43.216121" lon="-5.783347">
        <ele>306.0</ele>
        <time>2012-05-29T10:02:44Z</time>
      </trkpt>
      <trkpt lat="43.216402" lon="-5.78324">
        <ele>306.0</ele>
        <time>2012-05-29T10:02:48Z</time>
      </trkpt>
      <trkpt lat="43.216684" lon="-5.78312">
        <ele>306.0</ele>
        <time>2012-05-29T10:02:52Z</time>
      </trkpt>
      <trkpt lat="43.216966" lon="-5.78304">
        <ele>306.0</ele>
        <time>2012-05-29T10:02:56Z</time>
      </trkpt>
      <trkpt lat="43.21725" lon="-5.783099">
        <ele>305.0</ele>
        <time>2012-05-29T10:03:00Z</time>
      </trkpt>
      <trkpt lat="43.217395" lon="-5.78313">
        <ele>305.0</ele>
        <time>2012-05-29T10:03:02Z</time>
      </trkpt>
      <trkpt lat="43.217841" lon="-5.783094">
        <ele>305.0</ele>
        <time>2012-05-29T10:03:08Z</time>
      </trkpt>
      <trkpt lat="43.218134" lon="-5.783033">
        <ele>306.0</ele>
        <time>2012-05-29T10:03:12Z</time>
      </trkpt>
      <trkpt lat="43.218429" lon="-5.78299">
        <ele>307.0</ele>
        <time>2012-05-29T10:03:16Z</time>
      </trkpt>
      <trkpt lat="43.218722" lon="-5.782928">
        <ele>307.0</ele>
        <time>2012-05-29T10:03:20Z</time>
      </trkpt>
      <trkpt lat="43.21901" lon="-5.782957">
        <ele>307.0</ele>
        <time>2012-05-29T10:03:24Z</time>
      </trkpt>
      <trkpt lat="43.219284" lon="-5.783009">
        <ele>308.0</ele>
        <time>2012-05-29T10:03:28Z</time>
      </trkpt>
      <trkpt lat="43.219558" lon="-5.783056">
        <ele>308.0</ele>
        <time>2012-05-29T10:03:32Z</time>
      </trkpt>
      <trkpt lat="43.219839" lon="-5.783095">
        <ele>307.0</ele>
        <time>2012-05-29T10:03:36Z</time>
      </trkpt>
      <trkpt lat="43.220058" lon="-5.783111">
        <ele>307.0</ele>
        <time>2012-05-29T10:03:39Z</time>
      </trkpt>
      <trkpt lat="43.22042" lon="-5.78318">
        <ele>306.0</ele>
        <time>2012-05-29T10:03:44Z</time>
      </trkpt>
      <trkpt lat="43.220686" lon="-5.783321">
        <ele>304.0</ele>
        <time>2012-05-29T10:03:48Z</time>
      </trkpt>
      <trkpt lat="43.220935" lon="-5.78348">
        <ele>303.0</ele>
        <time>2012-05-29T10:03:52Z</time>
      </trkpt>
      <trkpt lat="43.221193" lon="-5.783608">
        <ele>303.0</ele>
        <time>2012-05-29T10:03:56Z</time>
      </trkpt>
      <trkpt lat="43.22146" lon="-5.783687">
        <ele>302.0</ele>
        <time>2012-05-29T10:04:00Z</time>
      </trkpt>
      <trkpt lat="43.221698" lon="-5.783661">
        <ele>303.0</ele>
        <time>2012-05-29T10:04:04Z</time>
      </trkpt>
      <trkpt lat="43.221872" lon="-5.783592">
        <ele>303.0</ele>
        <time>2012-05-29T10:04:08Z</time>
      </trkpt>
      <trkpt lat="43.221976" lon="-5.783529">
        <ele>303.0</ele>
        <time>2012-05-29T10:04:14Z</time>
      </trkpt>
      <trkpt lat="43.222169" lon="-5.783558">
        <ele>303.0</ele>
        <time>2012-05-29T10:04:28Z</time>
      </trkpt>
      <trkpt lat="43.222208" lon="-5.783882">
        <ele>302.0</ele>
        <time>2012-05-29T10:04:32Z</time>
      </trkpt>
      <trkpt lat="43.222263" lon="-5.784191">
        <ele>302.0</ele>
        <time>2012-05-29T10:04:36Z</time>
      </trkpt>
      <trkpt lat="43.222319" lon="-5.784526">
        <ele>302.0</ele>
        <time>2012-05-29T10:04:40Z</time>
      </trkpt>
      <trkpt lat="43.222384" lon="-5.78487">
        <ele>302.0</ele>
        <time>2012-05-29T10:04:44Z</time>
      </trkpt>
      <trkpt lat="43.22245" lon="-5.78522">
        <ele>302.0</ele>
        <time>2012-05-29T10:04:48Z</time>
      </trkpt>
      <trkpt lat="43.222515" lon="-5.785564">
        <ele>302.0</ele>
        <time>2012-05-29T10:04:52Z</time>
      </trkpt>
      <trkpt lat="43.222608" lon="-5.785775">
        <ele>302.0</ele>
        <time>2012-05-29T10:04:55Z</time>
      </trkpt>
      <trkpt lat="43.222812" lon="-5.785845">
        <ele>303.0</ele>
        <time>2012-05-29T10:04:59Z</time>
      </trkpt>
      <trkpt lat="43.223148" lon="-5.785808">
        <ele>303.0</ele>
        <time>2012-05-29T10:05:04Z</time>
      </trkpt>
      <trkpt lat="43.223435" lon="-5.785807">
        <ele>301.0</ele>
        <time>2012-05-29T10:05:08Z</time>
      </trkpt>
      <trkpt lat="43.223658" lon="-5.78585">
        <ele>300.0</ele>
        <time>2012-05-29T10:05:12Z</time>
      </trkpt>
      <trkpt lat="43.223753" lon="-5.785896">
        <ele>299.0</ele>
        <time>2012-05-29T10:05:14Z</time>
      </trkpt>
      <trkpt lat="43.224077" lon="-5.785935">
        <ele>300.0</ele>
        <time>2012-05-29T10:05:20Z</time>
      </trkpt>
      <trkpt lat="43.224343" lon="-5.785933">
        <ele>301.0</ele>
        <time>2012-05-29T10:05:24Z</time>
      </trkpt>
      <trkpt lat="43.224685" lon="-5.785908">
        <ele>301.0</ele>
        <time>2012-05-29T10:05:28Z</time>
      </trkpt>
      <trkpt lat="43.225084" lon="-5.785852">
        <ele>300.0</ele>
        <time>2012-05-29T10:05:32Z</time>
      </trkpt>
      <trkpt lat="43.225512" lon="-5.785765">
        <ele>300.0</ele>
        <time>2012-05-29T10:05:36Z</time>
      </trkpt>
      <trkpt lat="43.225935" lon="-5.785605">
        <ele>300.0</ele>
        <time>2012-05-29T10:05:40Z</time>
      </trkpt>
      <trkpt lat="43.226258" lon="-5.785368">
        <ele>299.0</ele>
        <time>2012-05-29T10:05:44Z</time>
      </trkpt>
      <trkpt lat="43.226536" lon="-5.785148">
        <ele>299.0</ele>
        <time>2012-05-29T10:05:48Z</time>
      </trkpt>
      <trkpt lat="43.226866" lon="-5.784975">
        <ele>298.0</ele>
        <time>2012-05-29T10:05:52Z</time>
      </trkpt>
      <trkpt lat="43.227226" lon="-5.784871">
        <ele>297.0</ele>
        <time>2012-05-29T10:05:56Z</time>
      </trkpt>
      <trkpt lat="43.227578" lon="-5.784778">
        <ele>297.0</ele>
        <time>2012-05-29T10:06:00Z</time>
      </trkpt>
      <trkpt lat="43.227909" lon="-5.784642">
        <ele>296.0</ele>
        <time>2012-05-29T10:06:04Z</time>
      </trkpt>
      <trkpt lat="43.228155" lon="-5.78453">
        <ele>295.0</ele>
        <time>2012-05-29T10:06:07Z</time>
      </trkpt>
      <trkpt lat="43.228553" lon="-5.784323">
        <ele>294.0</ele>
        <time>2012-05-29T10:06:12Z</time>
      </trkpt>
      <trkpt lat="43.228859" lon="-5.784134">
        <ele>294.0</ele>
        <time>2012-05-29T10:06:16Z</time>
      </trkpt>
      <trkpt lat="43.229163" lon="-5.783932">
        <ele>293.0</ele>
        <time>2012-05-29T10:06:20Z</time>
      </trkpt>
      <trkpt lat="43.229474" lon="-5.783742">
        <ele>293.0</ele>
        <time>2012-05-29T10:06:24Z</time>
      </trkpt>
      <trkpt lat="43.229791" lon="-5.783558">
        <ele>292.0</ele>
        <time>2012-05-29T10:06:28Z</time>
      </trkpt>
      <trkpt lat="43.230115" lon="-5.78338">
        <ele>292.0</ele>
        <time>2012-05-29T10:06:32Z</time>
      </trkpt>
      <trkpt lat="43.230437" lon="-5.783185">
        <ele>291.0</ele>
        <time>2012-05-29T10:06:36Z</time>
      </trkpt>
      <trkpt lat="43.230763" lon="-5.78299">
        <ele>291.0</ele>
        <time>2012-05-29T10:06:40Z</time>
      </trkpt>
      <trkpt lat="43.231085" lon="-5.782801">
        <ele>290.0</ele>
        <time>2012-05-29T10:06:44Z</time>
      </trkpt>
      <trkpt lat="43.231401" lon="-5.78261">
        <ele>290.0</ele>
        <time>2012-05-29T10:06:48Z</time>
      </trkpt>
      <trkpt lat="43.231708" lon="-5.782434">
        <ele>289.0</ele>
        <time>2012-05-29T10:06:52Z</time>
      </trkpt>
      <trkpt lat="43.232021" lon="-5.782275">
        <ele>289.0</ele>
        <time>2012-05-29T10:06:56Z</time>
      </trkpt>
      <trkpt lat="43.232342" lon="-5.782139">
        <ele>288.0</ele>
        <time>2012-05-29T10:07:00Z</time>
      </trkpt>
      <trkpt lat="43.232661" lon="-5.782012">
        <ele>288.0</ele>
        <time>2012-05-29T10:07:04Z</time>
      </trkpt>
      <trkpt lat="43.232981" lon="-5.781911">
        <ele>288.0</ele>
        <time>2012-05-29T10:07:08Z</time>
      </trkpt>
      <trkpt lat="43.2333" lon="-5.781848">
        <ele>288.0</ele>
        <time>2012-05-29T10:07:12Z</time>
      </trkpt>
      <trkpt lat="43.233456" lon="-5.781827">
        <ele>287.0</ele>
        <time>2012-05-29T10:07:14Z</time>
      </trkpt>
      <trkpt lat="43.23392" lon="-5.781764">
        <ele>287.0</ele>
        <time>2012-05-29T10:07:20Z</time>
      </trkpt>
      <trkpt lat="43.234156" lon="-5.781733">
        <ele>287.0</ele>
        <time>2012-05-29T10:07:23Z</time>
      </trkpt>
      <trkpt lat="43.234559" lon="-5.781673">
        <ele>286.0</ele>
        <time>2012-05-29T10:07:28Z</time>
      </trkpt>
      <trkpt lat="43.234885" lon="-5.781633">
        <ele>285.0</ele>
        <time>2012-05-29T10:07:32Z</time>
      </trkpt>
      <trkpt lat="43.235048" lon="-5.781618">
        <ele>285.0</ele>
        <time>2012-05-29T10:07:34Z</time>
      </trkpt>
      <trkpt lat="43.235533" lon="-5.781568">
        <ele>284.0</ele>
        <time>2012-05-29T10:07:40Z</time>
      </trkpt>
      <trkpt lat="43.235694" lon="-5.781558">
        <ele>284.0</ele>
        <time>2012-05-29T10:07:42Z</time>
      </trkpt>
      <trkpt lat="43.236174" lon="-5.781518">
        <ele>285.0</ele>
        <time>2012-05-29T10:07:48Z</time>
      </trkpt>
      <trkpt lat="43.236484" lon="-5.78149">
        <ele>284.0</ele>
        <time>2012-05-29T10:07:52Z</time>
      </trkpt>
      <trkpt lat="43.236801" lon="-5.781452">
        <ele>284.0</ele>
        <time>2012-05-29T10:07:56Z</time>
      </trkpt>
      <trkpt lat="43.236964" lon="-5.781436">
        <ele>283.0</ele>
        <time>2012-05-29T10:07:58Z</time>
      </trkpt>
      <trkpt lat="43.237449" lon="-5.781372">
        <ele>282.0</ele>
        <time>2012-05-29T10:08:04Z</time>
      </trkpt>
      <trkpt lat="43.237752" lon="-5.78131">
        <ele>282.0</ele>
        <time>2012-05-29T10:08:08Z</time>
      </trkpt>
      <trkpt lat="43.238028" lon="-5.781255">
        <ele>282.0</ele>
        <time>2012-05-29T10:08:12Z</time>
      </trkpt>
      <trkpt lat="43.238287" lon="-5.781196">
        <ele>283.0</ele>
        <time>2012-05-29T10:08:16Z</time>
      </trkpt>
      <trkpt lat="43.238549" lon="-5.781164">
        <ele>283.0</ele>
        <time>2012-05-29T10:08:20Z</time>
      </trkpt>
      <trkpt lat="43.23875" lon="-5.78113">
        <ele>284.0</ele>
        <time>2012-05-29T10:08:23Z</time>
      </trkpt>
      <trkpt lat="43.23912" lon="-5.781001">
        <ele>283.0</ele>
        <time>2012-05-29T10:08:28Z</time>
      </trkpt>
      <trkpt lat="43.239473" lon="-5.780848">
        <ele>283.0</ele>
        <time>2012-05-29T10:08:32Z</time>
      </trkpt>
      <trkpt lat="43.239652" lon="-5.780804">
        <ele>283.0</ele>
        <time>2012-05-29T10:08:34Z</time>
      </trkpt>
      <trkpt lat="43.240174" lon="-5.780729">
        <ele>282.0</ele>
        <time>2012-05-29T10:08:40Z</time>
      </trkpt>
      <trkpt lat="43.240509" lon="-5.78069">
        <ele>281.0</ele>
        <time>2012-05-29T10:08:44Z</time>
      </trkpt>
      <trkpt lat="43.24083" lon="-5.780667">
        <ele>281.0</ele>
        <time>2012-05-29T10:08:48Z</time>
      </trkpt>
      <trkpt lat="43.241064" lon="-5.780656">
        <ele>281.0</ele>
        <time>2012-05-29T10:08:51Z</time>
      </trkpt>
      <trkpt lat="43.241448" lon="-5.780676">
        <ele>281.0</ele>
        <time>2012-05-29T10:08:56Z</time>
      </trkpt>
      <trkpt lat="43.241727" lon="-5.780708">
        <ele>281.0</ele>
        <time>2012-05-29T10:09:00Z</time>
      </trkpt>
      <trkpt lat="43.241995" lon="-5.780752">
        <ele>282.0</ele>
        <time>2012-05-29T10:09:04Z</time>
      </trkpt>
      <trkpt lat="43.242238" lon="-5.7808">
        <ele>283.0</ele>
        <time>2012-05-29T10:09:08Z</time>
      </trkpt>
      <trkpt lat="43.242516" lon="-5.780877">
        <ele>283.0</ele>
        <time>2012-05-29T10:09:12Z</time>
      </trkpt>
      <trkpt lat="43.242802" lon="-5.78097">
        <ele>283.0</ele>
        <time>2012-05-29T10:09:16Z</time>
      </trkpt>
      <trkpt lat="43.243097" lon="-5.781057">
        <ele>284.0</ele>
        <time>2012-05-29T10:09:20Z</time>
      </trkpt>
      <trkpt lat="43.243409" lon="-5.781102">
        <ele>285.0</ele>
        <time>2012-05-29T10:09:24Z</time>
      </trkpt>
      <trkpt lat="43.243723" lon="-5.781125">
        <ele>285.0</ele>
        <time>2012-05-29T10:09:28Z</time>
      </trkpt>
      <trkpt lat="43.244031" lon="-5.781147">
        <ele>286.0</ele>
        <time>2012-05-29T10:09:32Z</time>
      </trkpt>
      <trkpt lat="43.244328" lon="-5.781181">
        <ele>285.0</ele>
        <time>2012-05-29T10:09:36Z</time>
      </trkpt>
      <trkpt lat="43.244474" lon="-5.781206">
        <ele>285.0</ele>
        <time>2012-05-29T10:09:38Z</time>
      </trkpt>
      <trkpt lat="43.24491" lon="-5.781296">
        <ele>284.0</ele>
        <time>2012-05-29T10:09:44Z</time>
      </trkpt>
      <trkpt lat="43.245204" lon="-5.781331">
        <ele>283.0</ele>
        <time>2012-05-29T10:09:48Z</time>
      </trkpt>
      <trkpt lat="43.245505" lon="-5.781376">
        <ele>283.0</ele>
        <time>2012-05-29T10:09:52Z</time>
      </trkpt>
      <trkpt lat="43.245812" lon="-5.781415">
        <ele>283.0</ele>
        <time>2012-05-29T10:09:56Z</time>
      </trkpt>
      <trkpt lat="43.246137" lon="-5.781463">
        <ele>284.0</ele>
        <time>2012-05-29T10:10:00Z</time>
      </trkpt>
      <trkpt lat="43.24647" lon="-5.781527">
        <ele>284.0</ele>
        <time>2012-05-29T10:10:04Z</time>
      </trkpt>
      <trkpt lat="43.246791" lon="-5.781579">
        <ele>283.0</ele>
        <time>2012-05-29T10:10:08Z</time>
      </trkpt>
      <trkpt lat="43.247101" lon="-5.781635">
        <ele>281.0</ele>
        <time>2012-05-29T10:10:12Z</time>
      </trkpt>
      <trkpt lat="43.247403" lon="-5.781692">
        <ele>281.0</ele>
        <time>2012-05-29T10:10:16Z</time>
      </trkpt>
      <trkpt lat="43.247702" lon="-5.78177">
        <ele>281.0</ele>
        <time>2012-05-29T10:10:20Z</time>
      </trkpt>
      <trkpt lat="43.248002" lon="-5.781836">
        <ele>281.0</ele>
        <time>2012-05-29T10:10:24Z</time>
      </trkpt>
      <trkpt lat="43.248306" lon="-5.781892">
        <ele>281.0</ele>
        <time>2012-05-29T10:10:28Z</time>
      </trkpt>
      <trkpt lat="43.248461" lon="-5.781916">
        <ele>281.0</ele>
        <time>2012-05-29T10:10:30Z</time>
      </trkpt>
      <trkpt lat="43.248916" lon="-5.782004">
        <ele>280.0</ele>
        <time>2012-05-29T10:10:36Z</time>
      </trkpt>
      <trkpt lat="43.249224" lon="-5.782073">
        <ele>280.0</ele>
        <time>2012-05-29T10:10:40Z</time>
      </trkpt>
      <trkpt lat="43.249526" lon="-5.782135">
        <ele>279.0</ele>
        <time>2012-05-29T10:10:44Z</time>
      </trkpt>
      <trkpt lat="43.249669" lon="-5.782171">
        <ele>279.0</ele>
        <time>2012-05-29T10:10:46Z</time>
      </trkpt>
      <trkpt lat="43.25009" lon="-5.782247">
        <ele>280.0</ele>
        <time>2012-05-29T10:10:52Z</time>
      </trkpt>
      <trkpt lat="43.250353" lon="-5.7823">
        <ele>279.0</ele>
        <time>2012-05-29T10:10:56Z</time>
      </trkpt>
      <trkpt lat="43.250624" lon="-5.782348">
        <ele>279.0</ele>
        <time>2012-05-29T10:11:00Z</time>
      </trkpt>
      <trkpt lat="43.250918" lon="-5.782341">
        <ele>279.0</ele>
        <time>2012-05-29T10:11:04Z</time>
      </trkpt>
      <trkpt lat="43.251282" lon="-5.782297">
        <ele>279.0</ele>
        <time>2012-05-29T10:11:08Z</time>
      </trkpt>
      <trkpt lat="43.251685" lon="-5.782267">
        <ele>279.0</ele>
        <time>2012-05-29T10:11:12Z</time>
      </trkpt>
      <trkpt lat="43.251958" lon="-5.782414">
        <ele>279.0</ele>
        <time>2012-05-29T10:11:15Z</time>
      </trkpt>
      <trkpt lat="43.252374" lon="-5.782808">
        <ele>279.0</ele>
        <time>2012-05-29T10:11:20Z</time>
      </trkpt>
      <trkpt lat="43.252602" lon="-5.783044">
        <ele>281.0</ele>
        <time>2012-05-29T10:11:24Z</time>
      </trkpt>
      <trkpt lat="43.252784" lon="-5.783233">
        <ele>281.0</ele>
        <time>2012-05-29T10:11:28Z</time>
      </trkpt>
      <trkpt lat="43.252963" lon="-5.783426">
        <ele>280.0</ele>
        <time>2012-05-29T10:11:32Z</time>
      </trkpt>
      <trkpt lat="43.253233" lon="-5.783546">
        <ele>279.0</ele>
        <time>2012-05-29T10:11:36Z</time>
      </trkpt>
      <trkpt lat="43.253519" lon="-5.78369">
        <ele>278.0</ele>
        <time>2012-05-29T10:11:40Z</time>
      </trkpt>
      <trkpt lat="43.253796" lon="-5.783872">
        <ele>278.0</ele>
        <time>2012-05-29T10:11:44Z</time>
      </trkpt>
      <trkpt lat="43.25408" lon="-5.78408">
        <ele>277.0</ele>
        <time>2012-05-29T10:11:48Z</time>
      </trkpt>
      <trkpt lat="43.254302" lon="-5.784379">
        <ele>277.0</ele>
        <time>2012-05-29T10:11:52Z</time>
      </trkpt>
      <trkpt lat="43.254516" lon="-5.784668">
        <ele>277.0</ele>
        <time>2012-05-29T10:11:56Z</time>
      </trkpt>
      <trkpt lat="43.254701" lon="-5.784823">
        <ele>277.0</ele>
        <time>2012-05-29T10:11:59Z</time>
      </trkpt>
      <trkpt lat="43.255027" lon="-5.78505">
        <ele>276.0</ele>
        <time>2012-05-29T10:12:04Z</time>
      </trkpt>
      <trkpt lat="43.255159" lon="-5.785143">
        <ele>276.0</ele>
        <time>2012-05-29T10:12:06Z</time>
      </trkpt>
      <trkpt lat="43.255598" lon="-5.785267">
        <ele>275.0</ele>
        <time>2012-05-29T10:12:12Z</time>
      </trkpt>
      <trkpt lat="43.255732" lon="-5.785349">
        <ele>275.0</ele>
        <time>2012-05-29T10:12:14Z</time>
      </trkpt>
      <trkpt lat="43.25614" lon="-5.785591">
        <ele>275.0</ele>
        <time>2012-05-29T10:12:20Z</time>
      </trkpt>
      <trkpt lat="43.256353" lon="-5.785735">
        <ele>275.0</ele>
        <time>2012-05-29T10:12:23Z</time>
      </trkpt>
      <trkpt lat="43.25668" lon="-5.786012">
        <ele>275.0</ele>
        <time>2012-05-29T10:12:28Z</time>
      </trkpt>
      <trkpt lat="43.256908" lon="-5.786306">
        <ele>274.0</ele>
        <time>2012-05-29T10:12:32Z</time>
      </trkpt>
      <trkpt lat="43.257136" lon="-5.786634">
        <ele>273.0</ele>
        <time>2012-05-29T10:12:36Z</time>
      </trkpt>
      <trkpt lat="43.257368" lon="-5.786946">
        <ele>273.0</ele>
        <time>2012-05-29T10:12:40Z</time>
      </trkpt>
      <trkpt lat="43.257616" lon="-5.78722">
        <ele>273.0</ele>
        <time>2012-05-29T10:12:44Z</time>
      </trkpt>
      <trkpt lat="43.257819" lon="-5.787398">
        <ele>273.0</ele>
        <time>2012-05-29T10:12:47Z</time>
      </trkpt>
      <trkpt lat="43.258176" lon="-5.787664">
        <ele>272.0</ele>
        <time>2012-05-29T10:12:52Z</time>
      </trkpt>
      <trkpt lat="43.258479" lon="-5.787824">
        <ele>272.0</ele>
        <time>2012-05-29T10:12:56Z</time>
      </trkpt>
      <trkpt lat="43.258801" lon="-5.787917">
        <ele>272.0</ele>
        <time>2012-05-29T10:13:00Z</time>
      </trkpt>
      <trkpt lat="43.259121" lon="-5.788023">
        <ele>272.0</ele>
        <time>2012-05-29T10:13:04Z</time>
      </trkpt>
      <trkpt lat="43.259432" lon="-5.788144">
        <ele>271.0</ele>
        <time>2012-05-29T10:13:08Z</time>
      </trkpt>
      <trkpt lat="43.259739" lon="-5.788264">
        <ele>272.0</ele>
        <time>2012-05-29T10:13:12Z</time>
      </trkpt>
      <trkpt lat="43.260043" lon="-5.788388">
        <ele>272.0</ele>
        <time>2012-05-29T10:13:16Z</time>
      </trkpt>
      <trkpt lat="43.260193" lon="-5.788457">
        <ele>272.0</ele>
        <time>2012-05-29T10:13:18Z</time>
      </trkpt>
      <trkpt lat="43.260637" lon="-5.788701">
        <ele>272.0</ele>
        <time>2012-05-29T10:13:24Z</time>
      </trkpt>
      <trkpt lat="43.260843" lon="-5.788872">
        <ele>272.0</ele>
        <time>2012-05-29T10:13:27Z</time>
      </trkpt>
      <trkpt lat="43.261119" lon="-5.789262">
        <ele>271.0</ele>
        <time>2012-05-29T10:13:32Z</time>
      </trkpt>
      <trkpt lat="43.261334" lon="-5.789575">
        <ele>272.0</ele>
        <time>2012-05-29T10:13:36Z</time>
      </trkpt>
      <trkpt lat="43.261476" lon="-5.789811">
        <ele>272.0</ele>
        <time>2012-05-29T10:13:39Z</time>
      </trkpt>
      <trkpt lat="43.261671" lon="-5.79025">
        <ele>272.0</ele>
        <time>2012-05-29T10:13:44Z</time>
      </trkpt>
      <trkpt lat="43.261775" lon="-5.790624">
        <ele>272.0</ele>
        <time>2012-05-29T10:13:48Z</time>
      </trkpt>
      <trkpt lat="43.261899" lon="-5.790893">
        <ele>271.0</ele>
        <time>2012-05-29T10:13:52Z</time>
      </trkpt>
      <trkpt lat="43.262112" lon="-5.790792">
        <ele>271.0</ele>
        <time>2012-05-29T10:13:56Z</time>
      </trkpt>
      <trkpt lat="43.262341" lon="-5.790861">
        <ele>271.0</ele>
        <time>2012-05-29T10:14:00Z</time>
      </trkpt>
      <trkpt lat="43.262536" lon="-5.791211">
        <ele>272.0</ele>
        <time>2012-05-29T10:14:04Z</time>
      </trkpt>
      <trkpt lat="43.262742" lon="-5.791621">
        <ele>272.0</ele>
        <time>2012-05-29T10:14:08Z</time>
      </trkpt>
      <trkpt lat="43.262844" lon="-5.791825">
        <ele>272.0</ele>
        <time>2012-05-29T10:14:10Z</time>
      </trkpt>
      <trkpt lat="43.263087" lon="-5.792312">
        <ele>272.0</ele>
        <time>2012-05-29T10:14:15Z</time>
      </trkpt>
      <trkpt lat="43.263266" lon="-5.792682">
        <ele>272.0</ele>
        <time>2012-05-29T10:14:19Z</time>
      </trkpt>
      <trkpt lat="43.263336" lon="-5.792813">
        <ele>272.0</ele>
        <time>2012-05-29T10:14:21Z</time>
      </trkpt>
      <trkpt lat="43.263584" lon="-5.792984">
        <ele>271.0</ele>
        <time>2012-05-29T10:14:28Z</time>
      </trkpt>
      <trkpt lat="43.263837" lon="-5.792781">
        <ele>267.0</ele>
        <time>2012-05-29T10:14:32Z</time>
      </trkpt>
      <trkpt lat="43.263984" lon="-5.792732">
        <ele>265.0</ele>
        <time>2012-05-29T10:14:34Z</time>
      </trkpt>
      <trkpt lat="43.264425" lon="-5.792736">
        <ele>262.0</ele>
        <time>2012-05-29T10:14:40Z</time>
      </trkpt>
      <trkpt lat="43.264699" lon="-5.792784">
        <ele>262.0</ele>
        <time>2012-05-29T10:14:44Z</time>
      </trkpt>
      <trkpt lat="43.264887" lon="-5.792582">
        <ele>264.0</ele>
        <time>2012-05-29T10:14:48Z</time>
      </trkpt>
      <trkpt lat="43.265123" lon="-5.7924">
        <ele>264.0</ele>
        <time>2012-05-29T10:14:52Z</time>
      </trkpt>
      <trkpt lat="43.265371" lon="-5.792217">
        <ele>264.0</ele>
        <time>2012-05-29T10:14:56Z</time>
      </trkpt>
      <trkpt lat="43.265614" lon="-5.792006">
        <ele>263.0</ele>
        <time>2012-05-29T10:15:00Z</time>
      </trkpt>
      <trkpt lat="43.265787" lon="-5.791942">
        <ele>263.0</ele>
        <time>2012-05-29T10:15:04Z</time>
      </trkpt>
      <trkpt lat="43.265961" lon="-5.792038">
        <ele>263.0</ele>
        <time>2012-05-29T10:15:08Z</time>
      </trkpt>
      <trkpt lat="43.2661" lon="-5.792241">
        <ele>263.0</ele>
        <time>2012-05-29T10:15:12Z</time>
      </trkpt>
      <trkpt lat="43.266221" lon="-5.792458">
        <ele>262.0</ele>
        <time>2012-05-29T10:15:16Z</time>
      </trkpt>
      <trkpt lat="43.266338" lon="-5.792659">
        <ele>262.0</ele>
        <time>2012-05-29T10:15:20Z</time>
      </trkpt>
      <trkpt lat="43.26645" lon="-5.792849">
        <ele>262.0</ele>
        <time>2012-05-29T10:15:24Z</time>
      </trkpt>
      <trkpt lat="43.266563" lon="-5.793041">
        <ele>262.0</ele>
        <time>2012-05-29T10:15:28Z</time>
      </trkpt>
      <trkpt lat="43.266688" lon="-5.793237">
        <ele>262.0</ele>
        <time>2012-05-29T10:15:32Z</time>
      </trkpt>
      <trkpt lat="43.266751" lon="-5.793338">
        <ele>261.0</ele>
        <time>2012-05-29T10:15:34Z</time>
      </trkpt>
      <trkpt lat="43.26695" lon="-5.793655">
        <ele>261.0</ele>
        <time>2012-05-29T10:15:40Z</time>
      </trkpt>
      <trkpt lat="43.267088" lon="-5.793895">
        <ele>261.0</ele>
        <time>2012-05-29T10:15:44Z</time>
      </trkpt>
      <trkpt lat="43.267233" lon="-5.794156">
        <ele>260.0</ele>
        <time>2012-05-29T10:15:48Z</time>
      </trkpt>
      <trkpt lat="43.267378" lon="-5.794432">
        <ele>259.0</ele>
        <time>2012-05-29T10:15:52Z</time>
      </trkpt>
      <trkpt lat="43.26754" lon="-5.794733">
        <ele>259.0</ele>
        <time>2012-05-29T10:15:56Z</time>
      </trkpt>
      <trkpt lat="43.267672" lon="-5.794972">
        <ele>259.0</ele>
        <time>2012-05-29T10:15:59Z</time>
      </trkpt>
      <trkpt lat="43.267915" lon="-5.795357">
        <ele>259.0</ele>
        <time>2012-05-29T10:16:04Z</time>
      </trkpt>
      <trkpt lat="43.26814" lon="-5.79569">
        <ele>260.0</ele>
        <time>2012-05-29T10:16:08Z</time>
      </trkpt>
      <trkpt lat="43.26838" lon="-5.796051">
        <ele>260.0</ele>
        <time>2012-05-29T10:16:12Z</time>
      </trkpt>
      <trkpt lat="43.268624" lon="-5.796423">
        <ele>261.0</ele>
        <time>2012-05-29T10:16:16Z</time>
      </trkpt>
      <trkpt lat="43.268887" lon="-5.796803">
        <ele>260.0</ele>
        <time>2012-05-29T10:16:20Z</time>
      </trkpt>
      <trkpt lat="43.269137" lon="-5.797178">
        <ele>261.0</ele>
        <time>2012-05-29T10:16:24Z</time>
      </trkpt>
      <trkpt lat="43.269378" lon="-5.797524">
        <ele>261.0</ele>
        <time>2012-05-29T10:16:28Z</time>
      </trkpt>
      <trkpt lat="43.269606" lon="-5.797885">
        <ele>260.0</ele>
        <time>2012-05-29T10:16:32Z</time>
      </trkpt>
      <trkpt lat="43.26982" lon="-5.798264">
        <ele>259.0</ele>
        <time>2012-05-29T10:16:36Z</time>
      </trkpt>
      <trkpt lat="43.269997" lon="-5.798677">
        <ele>259.0</ele>
        <time>2012-05-29T10:16:40Z</time>
      </trkpt>
      <trkpt lat="43.270112" lon="-5.799123">
        <ele>259.0</ele>
        <time>2012-05-29T10:16:44Z</time>
      </trkpt>
      <trkpt lat="43.270149" lon="-5.799595">
        <ele>259.0</ele>
        <time>2012-05-29T10:16:48Z</time>
      </trkpt>
      <trkpt lat="43.270147" lon="-5.800066">
        <ele>259.0</ele>
        <time>2012-05-29T10:16:52Z</time>
      </trkpt>
      <trkpt lat="43.270106" lon="-5.80052">
        <ele>259.0</ele>
        <time>2012-05-29T10:16:56Z</time>
      </trkpt>
      <trkpt lat="43.270062" lon="-5.80086">
        <ele>258.0</ele>
        <time>2012-05-29T10:16:59Z</time>
      </trkpt>
      <trkpt lat="43.269987" lon="-5.801444">
        <ele>258.0</ele>
        <time>2012-05-29T10:17:04Z</time>
      </trkpt>
      <trkpt lat="43.269958" lon="-5.801674">
        <ele>258.0</ele>
        <time>2012-05-29T10:17:06Z</time>
      </trkpt>
      <trkpt lat="43.269917" lon="-5.802347">
        <ele>258.0</ele>
        <time>2012-05-29T10:17:12Z</time>
      </trkpt>
      <trkpt lat="43.269938" lon="-5.802778">
        <ele>258.0</ele>
        <time>2012-05-29T10:17:16Z</time>
      </trkpt>
      <trkpt lat="43.270002" lon="-5.803192">
        <ele>259.0</ele>
        <time>2012-05-29T10:17:20Z</time>
      </trkpt>
      <trkpt lat="43.270105" lon="-5.80355">
        <ele>259.0</ele>
        <time>2012-05-29T10:17:24Z</time>
      </trkpt>
      <trkpt lat="43.270257" lon="-5.803836">
        <ele>259.0</ele>
        <time>2012-05-29T10:17:28Z</time>
      </trkpt>
      <trkpt lat="43.270459" lon="-5.804081">
        <ele>259.0</ele>
        <time>2012-05-29T10:17:32Z</time>
      </trkpt>
      <trkpt lat="43.270687" lon="-5.804302">
        <ele>258.0</ele>
        <time>2012-05-29T10:17:36Z</time>
      </trkpt>
      <trkpt lat="43.270874" lon="-5.804443">
        <ele>259.0</ele>
        <time>2012-05-29T10:17:39Z</time>
      </trkpt>
      <trkpt lat="43.271131" lon="-5.804629">
        <ele>259.0</ele>
        <time>2012-05-29T10:17:43Z</time>
      </trkpt>
      <trkpt lat="43.271453" lon="-5.804866">
        <ele>259.0</ele>
        <time>2012-05-29T10:17:48Z</time>
      </trkpt>
      <trkpt lat="43.271716" lon="-5.805067">
        <ele>259.0</ele>
        <time>2012-05-29T10:17:52Z</time>
      </trkpt>
      <trkpt lat="43.271995" lon="-5.805277">
        <ele>259.0</ele>
        <time>2012-05-29T10:17:56Z</time>
      </trkpt>
      <trkpt lat="43.272277" lon="-5.805501">
        <ele>259.0</ele>
        <time>2012-05-29T10:18:00Z</time>
      </trkpt>
      <trkpt lat="43.272497" lon="-5.805691">
        <ele>259.0</ele>
        <time>2012-05-29T10:18:03Z</time>
      </trkpt>
      <trkpt lat="43.272895" lon="-5.806023">
        <ele>259.0</ele>
        <time>2012-05-29T10:18:08Z</time>
      </trkpt>
      <trkpt lat="43.27307" lon="-5.806166">
        <ele>259.0</ele>
        <time>2012-05-29T10:18:10Z</time>
      </trkpt>
      <trkpt lat="43.273602" lon="-5.806609">
        <ele>259.0</ele>
        <time>2012-05-29T10:18:16Z</time>
      </trkpt>
      <trkpt lat="43.273948" lon="-5.806944">
        <ele>259.0</ele>
        <time>2012-05-29T10:18:20Z</time>
      </trkpt>
      <trkpt lat="43.274272" lon="-5.80731">
        <ele>258.0</ele>
        <time>2012-05-29T10:18:24Z</time>
      </trkpt>
      <trkpt lat="43.274525" lon="-5.807562">
        <ele>257.0</ele>
        <time>2012-05-29T10:18:27Z</time>
      </trkpt>
      <trkpt lat="43.274941" lon="-5.807933">
        <ele>257.0</ele>
        <time>2012-05-29T10:18:32Z</time>
      </trkpt>
      <trkpt lat="43.27527" lon="-5.808221">
        <ele>257.0</ele>
        <time>2012-05-29T10:18:36Z</time>
      </trkpt>
      <trkpt lat="43.27557" lon="-5.808505">
        <ele>256.0</ele>
        <time>2012-05-29T10:18:40Z</time>
      </trkpt>
      <trkpt lat="43.275843" lon="-5.808824">
        <ele>257.0</ele>
        <time>2012-05-29T10:18:44Z</time>
      </trkpt>
      <trkpt lat="43.276065" lon="-5.809211">
        <ele>257.0</ele>
        <time>2012-05-29T10:18:48Z</time>
      </trkpt>
      <trkpt lat="43.276224" lon="-5.809638">
        <ele>257.0</ele>
        <time>2012-05-29T10:18:52Z</time>
      </trkpt>
      <trkpt lat="43.276338" lon="-5.810092">
        <ele>257.0</ele>
        <time>2012-05-29T10:18:56Z</time>
      </trkpt>
      <trkpt lat="43.276447" lon="-5.810545">
        <ele>257.0</ele>
        <time>2012-05-29T10:19:00Z</time>
      </trkpt>
      <trkpt lat="43.276545" lon="-5.811009">
        <ele>256.0</ele>
        <time>2012-05-29T10:19:04Z</time>
      </trkpt>
      <trkpt lat="43.276612" lon="-5.8115">
        <ele>256.0</ele>
        <time>2012-05-29T10:19:08Z</time>
      </trkpt>
      <trkpt lat="43.276619" lon="-5.812011">
        <ele>255.0</ele>
        <time>2012-05-29T10:19:12Z</time>
      </trkpt>
      <trkpt lat="43.276576" lon="-5.812541">
        <ele>255.0</ele>
        <time>2012-05-29T10:19:16Z</time>
      </trkpt>
      <trkpt lat="43.276533" lon="-5.813073">
        <ele>255.0</ele>
        <time>2012-05-29T10:19:20Z</time>
      </trkpt>
      <trkpt lat="43.2765" lon="-5.81359">
        <ele>255.0</ele>
        <time>2012-05-29T10:19:24Z</time>
      </trkpt>
      <trkpt lat="43.276455" lon="-5.814107">
        <ele>255.0</ele>
        <time>2012-05-29T10:19:28Z</time>
      </trkpt>
      <trkpt lat="43.276373" lon="-5.814633">
        <ele>254.0</ele>
        <time>2012-05-29T10:19:32Z</time>
      </trkpt>
      <trkpt lat="43.276275" lon="-5.815019">
        <ele>254.0</ele>
        <time>2012-05-29T10:19:35Z</time>
      </trkpt>
      <trkpt lat="43.276032" lon="-5.815607">
        <ele>254.0</ele>
        <time>2012-05-29T10:19:40Z</time>
      </trkpt>
      <trkpt lat="43.275774" lon="-5.816023">
        <ele>254.0</ele>
        <time>2012-05-29T10:19:44Z</time>
      </trkpt>
      <trkpt lat="43.275632" lon="-5.816213">
        <ele>254.0</ele>
        <time>2012-05-29T10:19:46Z</time>
      </trkpt>
      <trkpt lat="43.275186" lon="-5.816738">
        <ele>254.0</ele>
        <time>2012-05-29T10:19:52Z</time>
      </trkpt>
      <trkpt lat="43.275041" lon="-5.816906">
        <ele>254.0</ele>
        <time>2012-05-29T10:19:54Z</time>
      </trkpt>
      <trkpt lat="43.274745" lon="-5.817237">
        <ele>254.0</ele>
        <time>2012-05-29T10:19:58Z</time>
      </trkpt>
      <trkpt lat="43.274402" lon="-5.817637">
        <ele>253.0</ele>
        <time>2012-05-29T10:20:03Z</time>
      </trkpt>
      <trkpt lat="43.274055" lon="-5.81804">
        <ele>254.0</ele>
        <time>2012-05-29T10:20:08Z</time>
      </trkpt>
      <trkpt lat="43.273767" lon="-5.818363">
        <ele>254.0</ele>
        <time>2012-05-29T10:20:12Z</time>
      </trkpt>
      <trkpt lat="43.273484" lon="-5.818678">
        <ele>255.0</ele>
        <time>2012-05-29T10:20:16Z</time>
      </trkpt>
      <trkpt lat="43.273207" lon="-5.818996">
        <ele>255.0</ele>
        <time>2012-05-29T10:20:20Z</time>
      </trkpt>
      <trkpt lat="43.272936" lon="-5.819317">
        <ele>256.0</ele>
        <time>2012-05-29T10:20:24Z</time>
      </trkpt>
      <trkpt lat="43.272665" lon="-5.819647">
        <ele>256.0</ele>
        <time>2012-05-29T10:20:28Z</time>
      </trkpt>
      <trkpt lat="43.272405" lon="-5.820018">
        <ele>256.0</ele>
        <time>2012-05-29T10:20:32Z</time>
      </trkpt>
      <trkpt lat="43.272177" lon="-5.820459">
        <ele>255.0</ele>
        <time>2012-05-29T10:20:36Z</time>
      </trkpt>
      <trkpt lat="43.272002" lon="-5.820912">
        <ele>255.0</ele>
        <time>2012-05-29T10:20:40Z</time>
      </trkpt>
      <trkpt lat="43.271856" lon="-5.82138">
        <ele>255.0</ele>
        <time>2012-05-29T10:20:44Z</time>
      </trkpt>
      <trkpt lat="43.27175" lon="-5.821873">
        <ele>255.0</ele>
        <time>2012-05-29T10:20:48Z</time>
      </trkpt>
      <trkpt lat="43.271706" lon="-5.822123">
        <ele>255.0</ele>
        <time>2012-05-29T10:20:50Z</time>
      </trkpt>
      <trkpt lat="43.271579" lon="-5.822886">
        <ele>255.0</ele>
        <time>2012-05-29T10:20:56Z</time>
      </trkpt>
      <trkpt lat="43.271508" lon="-5.823377">
        <ele>255.0</ele>
        <time>2012-05-29T10:21:00Z</time>
      </trkpt>
      <trkpt lat="43.27143" lon="-5.823869">
        <ele>256.0</ele>
        <time>2012-05-29T10:21:04Z</time>
      </trkpt>
      <trkpt lat="43.271335" lon="-5.824358">
        <ele>256.0</ele>
        <time>2012-05-29T10:21:08Z</time>
      </trkpt>
      <trkpt lat="43.271251" lon="-5.824851">
        <ele>256.0</ele>
        <time>2012-05-29T10:21:12Z</time>
      </trkpt>
      <trkpt lat="43.271174" lon="-5.825343">
        <ele>257.0</ele>
        <time>2012-05-29T10:21:16Z</time>
      </trkpt>
      <trkpt lat="43.271075" lon="-5.825837">
        <ele>257.0</ele>
        <time>2012-05-29T10:21:20Z</time>
      </trkpt>
      <trkpt lat="43.270944" lon="-5.826322">
        <ele>257.0</ele>
        <time>2012-05-29T10:21:24Z</time>
      </trkpt>
      <trkpt lat="43.270744" lon="-5.827312">
        <ele>256.0</ele>
        <time>2012-05-29T10:21:32Z</time>
      </trkpt>
      <trkpt lat="43.270639" lon="-5.827813">
        <ele>257.0</ele>
        <time>2012-05-29T10:21:36Z</time>
      </trkpt>
      <trkpt lat="43.270523" lon="-5.828315">
        <ele>256.0</ele>
        <time>2012-05-29T10:21:40Z</time>
      </trkpt>
      <trkpt lat="43.270418" lon="-5.828825">
        <ele>256.0</ele>
        <time>2012-05-29T10:21:44Z</time>
      </trkpt>
      <trkpt lat="43.270304" lon="-5.829322">
        <ele>255.0</ele>
        <time>2012-05-29T10:21:48Z</time>
      </trkpt>
      <trkpt lat="43.270207" lon="-5.829811">
        <ele>255.0</ele>
        <time>2012-05-29T10:21:52Z</time>
      </trkpt>
      <trkpt lat="43.270173" lon="-5.830186">
        <ele>255.0</ele>
        <time>2012-05-29T10:21:55Z</time>
      </trkpt>
      <trkpt lat="43.270189" lon="-5.830844">
        <ele>255.0</ele>
        <time>2012-05-29T10:22:00Z</time>
      </trkpt>
      <trkpt lat="43.270254" lon="-5.831359">
        <ele>255.0</ele>
        <time>2012-05-29T10:22:04Z</time>
      </trkpt>
      <trkpt lat="43.270328" lon="-5.831874">
        <ele>255.0</ele>
        <time>2012-05-29T10:22:08Z</time>
      </trkpt>
      <trkpt lat="43.270404" lon="-5.832393">
        <ele>254.0</ele>
        <time>2012-05-29T10:22:12Z</time>
      </trkpt>
      <trkpt lat="43.270473" lon="-5.832901">
        <ele>254.0</ele>
        <time>2012-05-29T10:22:16Z</time>
      </trkpt>
      <trkpt lat="43.27057" lon="-5.833377">
        <ele>254.0</ele>
        <time>2012-05-29T10:22:20Z</time>
      </trkpt>
      <trkpt lat="43.270801" lon="-5.834316">
        <ele>254.0</ele>
        <time>2012-05-29T10:22:28Z</time>
      </trkpt>
      <trkpt lat="43.270894" lon="-5.834694">
        <ele>254.0</ele>
        <time>2012-05-29T10:22:31Z</time>
      </trkpt>
      <trkpt lat="43.270982" lon="-5.835074">
        <ele>255.0</ele>
        <time>2012-05-29T10:22:34Z</time>
      </trkpt>
      <trkpt lat="43.271137" lon="-5.835773">
        <ele>255.0</ele>
        <time>2012-05-29T10:22:40Z</time>
      </trkpt>
      <trkpt lat="43.271213" lon="-5.836267">
        <ele>256.0</ele>
        <time>2012-05-29T10:22:44Z</time>
      </trkpt>
      <trkpt lat="43.271235" lon="-5.836645">
        <ele>255.0</ele>
        <time>2012-05-29T10:22:47Z</time>
      </trkpt>
      <trkpt lat="43.271163" lon="-5.837258">
        <ele>255.0</ele>
        <time>2012-05-29T10:22:52Z</time>
      </trkpt>
      <trkpt lat="43.271075" lon="-5.837748">
        <ele>256.0</ele>
        <time>2012-05-29T10:22:56Z</time>
      </trkpt>
      <trkpt lat="43.271038" lon="-5.838124">
        <ele>256.0</ele>
        <time>2012-05-29T10:22:59Z</time>
      </trkpt>
      <trkpt lat="43.271086" lon="-5.838714">
        <ele>255.0</ele>
        <time>2012-05-29T10:23:04Z</time>
      </trkpt>
      <trkpt lat="43.271191" lon="-5.839045">
        <ele>255.0</ele>
        <time>2012-05-29T10:23:07Z</time>
      </trkpt>
      <trkpt lat="43.271403" lon="-5.839566">
        <ele>256.0</ele>
        <time>2012-05-29T10:23:12Z</time>
      </trkpt>
      <trkpt lat="43.271574" lon="-5.83998">
        <ele>257.0</ele>
        <time>2012-05-29T10:23:16Z</time>
      </trkpt>
      <trkpt lat="43.27175" lon="-5.840399">
        <ele>257.0</ele>
        <time>2012-05-29T10:23:20Z</time>
      </trkpt>
      <trkpt lat="43.271946" lon="-5.840826">
        <ele>258.0</ele>
        <time>2012-05-29T10:23:24Z</time>
      </trkpt>
      <trkpt lat="43.272063" lon="-5.841043">
        <ele>258.0</ele>
        <time>2012-05-29T10:23:26Z</time>
      </trkpt>
      <trkpt lat="43.272318" lon="-5.841454">
        <ele>258.0</ele>
        <time>2012-05-29T10:23:30Z</time>
      </trkpt>
      <trkpt lat="43.27272" lon="-5.842062">
        <ele>258.0</ele>
        <time>2012-05-29T10:23:36Z</time>
      </trkpt>
      <trkpt lat="43.272975" lon="-5.842468">
        <ele>258.0</ele>
        <time>2012-05-29T10:23:40Z</time>
      </trkpt>
      <trkpt lat="43.273229" lon="-5.842878">
        <ele>255.0</ele>
        <time>2012-05-29T10:23:44Z</time>
      </trkpt>
      <trkpt lat="43.273407" lon="-5.843203">
        <ele>254.0</ele>
        <time>2012-05-29T10:23:47Z</time>
      </trkpt>
      <trkpt lat="43.273668" lon="-5.843761">
        <ele>255.0</ele>
        <time>2012-05-29T10:23:52Z</time>
      </trkpt>
      <trkpt lat="43.273835" lon="-5.844151">
        <ele>256.0</ele>
        <time>2012-05-29T10:23:56Z</time>
      </trkpt>
      <trkpt lat="43.273981" lon="-5.844528">
        <ele>256.0</ele>
        <time>2012-05-29T10:24:00Z</time>
      </trkpt>
      <trkpt lat="43.274136" lon="-5.844913">
        <ele>256.0</ele>
        <time>2012-05-29T10:24:04Z</time>
      </trkpt>
      <trkpt lat="43.27431" lon="-5.84533">
        <ele>257.0</ele>
        <time>2012-05-29T10:24:08Z</time>
      </trkpt>
      <trkpt lat="43.274503" lon="-5.845775">
        <ele>257.0</ele>
        <time>2012-05-29T10:24:12Z</time>
      </trkpt>
      <trkpt lat="43.274685" lon="-5.846253">
        <ele>257.0</ele>
        <time>2012-05-29T10:24:16Z</time>
      </trkpt>
      <trkpt lat="43.274816" lon="-5.8466">
        <ele>257.0</ele>
        <time>2012-05-29T10:24:19Z</time>
      </trkpt>
      <trkpt lat="43.27501" lon="-5.847203">
        <ele>257.0</ele>
        <time>2012-05-29T10:24:24Z</time>
      </trkpt>
      <trkpt lat="43.275126" lon="-5.847708">
        <ele>257.0</ele>
        <time>2012-05-29T10:24:28Z</time>
      </trkpt>
      <trkpt lat="43.275271" lon="-5.848056">
        <ele>257.0</ele>
        <time>2012-05-29T10:24:31Z</time>
      </trkpt>
      <trkpt lat="43.275367" lon="-5.848289">
        <ele>257.0</ele>
        <time>2012-05-29T10:24:33Z</time>
      </trkpt>
      <trkpt lat="43.274966" lon="-5.849418">
        <ele>254.0</ele>
        <time>2012-05-29T10:24:44Z</time>
      </trkpt>
      <trkpt lat="43.274939" lon="-5.849834">
        <ele>255.0</ele>
        <time>2012-05-29T10:24:48Z</time>
      </trkpt>
      <trkpt lat="43.275005" lon="-5.850263">
        <ele>255.0</ele>
        <time>2012-05-29T10:24:52Z</time>
      </trkpt>
      <trkpt lat="43.275115" lon="-5.850662">
        <ele>255.0</ele>
        <time>2012-05-29T10:24:56Z</time>
      </trkpt>
      <trkpt lat="43.275247" lon="-5.851052">
        <ele>256.0</ele>
        <time>2012-05-29T10:25:00Z</time>
      </trkpt>
      <trkpt lat="43.275405" lon="-5.851395">
        <ele>257.0</ele>
        <time>2012-05-29T10:25:04Z</time>
      </trkpt>
      <trkpt lat="43.275521" lon="-5.85166">
        <ele>257.0</ele>
        <time>2012-05-29T10:25:07Z</time>
      </trkpt>
      <trkpt lat="43.275698" lon="-5.852116">
        <ele>257.0</ele>
        <time>2012-05-29T10:25:12Z</time>
      </trkpt>
      <trkpt lat="43.275698" lon="-5.852116">
        <time>2012-05-29T10:25:23Z</time>
      </trkpt>
    </trkseg>
    <trkseg>
      <trkpt lat="43.275698" lon="-5.852116">
        <time>2012-05-29T10:25:25Z</time>
      </trkpt>
      <trkpt lat="43.276139" lon="-5.853486">
        <ele>257.0</ele>
        <time>2012-05-29T10:25:26Z</time>
      </trkpt>
      <trkpt lat="43.276289" lon="-5.853985">
        <ele>258.0</ele>
        <time>2012-05-29T10:25:30Z</time>
      </trkpt>
      <trkpt lat="43.276485" lon="-5.854381">
        <ele>258.0</ele>
        <time>2012-05-29T10:25:34Z</time>
      </trkpt>
      <trkpt lat="43.276611" lon="-5.854654">
        <ele>258.0</ele>
        <time>2012-05-29T10:25:37Z</time>
      </trkpt>
      <trkpt lat="43.276611" lon="-5.854654">
        <time>2012-05-29T10:25:48Z</time>
      </trkpt>
    </trkseg>
    <trkseg>
      <trkpt lat="43.276611" lon="-5.854654">
        <time>2012-05-29T10:25:49Z</time>
      </trkpt>
      <trkpt lat="43.27767" lon="-5.856018">
        <ele>264.0</ele>
        <time>2012-05-29T10:25:55Z</time>
      </trkpt>
      <trkpt lat="43.277805" lon="-5.856436">
        <ele>263.0</ele>
        <time>2012-05-29T10:25:59Z</time>
      </trkpt>
      <trkpt lat="43.277942" lon="-5.856857">
        <ele>262.0</ele>
        <time>2012-05-29T10:26:03Z</time>
      </trkpt>
      <trkpt lat="43.2781" lon="-5.857285">
        <ele>262.0</ele>
        <time>2012-05-29T10:26:07Z</time>
      </trkpt>
      <trkpt lat="43.278314" lon="-5.8577">
        <ele>261.0</ele>
        <time>2012-05-29T10:26:11Z</time>
      </trkpt>
      <trkpt lat="43.278531" lon="-5.85812">
        <ele>261.0</ele>
        <time>2012-05-29T10:26:15Z</time>
      </trkpt>
      <trkpt lat="43.278741" lon="-5.85851">
        <ele>261.0</ele>
        <time>2012-05-29T10:26:19Z</time>
      </trkpt>
      <trkpt lat="43.278957" lon="-5.858889">
        <ele>261.0</ele>
        <time>2012-05-29T10:26:23Z</time>
      </trkpt>
      <trkpt lat="43.279173" lon="-5.859273">
        <ele>261.0</ele>
        <time>2012-05-29T10:26:27Z</time>
      </trkpt>
      <trkpt lat="43.280148" lon="-5.859657">
        <ele>258.0</ele>
        <time>2012-05-29T10:26:39Z</time>
      </trkpt>
      <trkpt lat="43.28048" lon="-5.859661">
        <ele>253.0</ele>
        <time>2012-05-29T10:26:43Z</time>
      </trkpt>
      <trkpt lat="43.2808" lon="-5.859656">
        <ele>251.0</ele>
        <time>2012-05-29T10:26:47Z</time>
      </trkpt>
      <trkpt lat="43.281104" lon="-5.859738">
        <ele>251.0</ele>
        <time>2012-05-29T10:26:51Z</time>
      </trkpt>
      <trkpt lat="43.281376" lon="-5.859912">
        <ele>249.0</ele>
        <time>2012-05-29T10:26:55Z</time>
      </trkpt>
      <trkpt lat="43.281594" lon="-5.860171">
        <ele>247.0</ele>
        <time>2012-05-29T10:26:59Z</time>
      </trkpt>
      <trkpt lat="43.281737" lon="-5.860527">
        <ele>246.0</ele>
        <time>2012-05-29T10:27:03Z</time>
      </trkpt>
      <trkpt lat="43.28179" lon="-5.860946">
        <ele>246.0</ele>
        <time>2012-05-29T10:27:07Z</time>
      </trkpt>
      <trkpt lat="43.281843" lon="-5.861379">
        <ele>247.0</ele>
        <time>2012-05-29T10:27:11Z</time>
      </trkpt>
      <trkpt lat="43.281914" lon="-5.861839">
        <ele>248.0</ele>
        <time>2012-05-29T10:27:15Z</time>
      </trkpt>
      <trkpt lat="43.281992" lon="-5.862295">
        <ele>249.0</ele>
        <time>2012-05-29T10:27:19Z</time>
      </trkpt>
      <trkpt lat="43.282049" lon="-5.862634">
        <ele>249.0</ele>
        <time>2012-05-29T10:27:22Z</time>
      </trkpt>
      <trkpt lat="43.28215" lon="-5.863084">
        <ele>248.0</ele>
        <time>2012-05-29T10:27:26Z</time>
      </trkpt>
      <trkpt lat="43.282505" lon="-5.863524">
        <ele>244.0</ele>
        <time>2012-05-29T10:27:31Z</time>
      </trkpt>
      <trkpt lat="43.282885" lon="-5.863782">
        <ele>245.0</ele>
        <time>2012-05-29T10:27:35Z</time>
      </trkpt>
      <trkpt lat="43.283218" lon="-5.864066">
        <ele>247.0</ele>
        <time>2012-05-29T10:27:39Z</time>
      </trkpt>
      <trkpt lat="43.283478" lon="-5.86443">
        <ele>248.0</ele>
        <time>2012-05-29T10:27:43Z</time>
      </trkpt>
      <trkpt lat="43.283665" lon="-5.864878">
        <ele>250.0</ele>
        <time>2012-05-29T10:27:47Z</time>
      </trkpt>
      <trkpt lat="43.283795" lon="-5.865363">
        <ele>251.0</ele>
        <time>2012-05-29T10:27:51Z</time>
      </trkpt>
      <trkpt lat="43.283875" lon="-5.865863">
        <ele>251.0</ele>
        <time>2012-05-29T10:27:55Z</time>
      </trkpt>
      <trkpt lat="43.28397" lon="-5.866347">
        <ele>251.0</ele>
        <time>2012-05-29T10:27:59Z</time>
      </trkpt>
      <trkpt lat="43.284042" lon="-5.866863">
        <ele>250.0</ele>
        <time>2012-05-29T10:28:03Z</time>
      </trkpt>
      <trkpt lat="43.284098" lon="-5.867402">
        <ele>250.0</ele>
        <time>2012-05-29T10:28:07Z</time>
      </trkpt>
      <trkpt lat="43.284061" lon="-5.867912">
        <ele>251.0</ele>
        <time>2012-05-29T10:28:11Z</time>
      </trkpt>
      <trkpt lat="43.283983" lon="-5.868416">
        <ele>252.0</ele>
        <time>2012-05-29T10:28:15Z</time>
      </trkpt>
      <trkpt lat="43.283898" lon="-5.868933">
        <ele>254.0</ele>
        <time>2012-05-29T10:28:19Z</time>
      </trkpt>
      <trkpt lat="43.283768" lon="-5.869444">
        <ele>255.0</ele>
        <time>2012-05-29T10:28:23Z</time>
      </trkpt>
      <trkpt lat="43.283551" lon="-5.86998">
        <ele>256.0</ele>
        <time>2012-05-29T10:28:27Z</time>
      </trkpt>
      <trkpt lat="43.283251" lon="-5.870586">
        <ele>255.0</ele>
        <time>2012-05-29T10:28:31Z</time>
      </trkpt>
      <trkpt lat="43.282951" lon="-5.871137">
        <ele>255.0</ele>
        <time>2012-05-29T10:28:35Z</time>
      </trkpt>
      <trkpt lat="43.282593" lon="-5.871536">
        <ele>255.0</ele>
        <time>2012-05-29T10:28:39Z</time>
      </trkpt>
      <trkpt lat="43.282265" lon="-5.871925">
        <ele>255.0</ele>
        <time>2012-05-29T10:28:43Z</time>
      </trkpt>
      <trkpt lat="43.282004" lon="-5.87239">
        <ele>255.0</ele>
        <time>2012-05-29T10:28:47Z</time>
      </trkpt>
      <trkpt lat="43.281847" lon="-5.872938">
        <ele>256.0</ele>
        <time>2012-05-29T10:28:51Z</time>
      </trkpt>
      <trkpt lat="43.281817" lon="-5.87347">
        <ele>256.0</ele>
        <time>2012-05-29T10:28:55Z</time>
      </trkpt>
      <trkpt lat="43.281867" lon="-5.873988">
        <ele>256.0</ele>
        <time>2012-05-29T10:28:59Z</time>
      </trkpt>
      <trkpt lat="43.281989" lon="-5.874498">
        <ele>256.0</ele>
        <time>2012-05-29T10:29:03Z</time>
      </trkpt>
      <trkpt lat="43.282226" lon="-5.874947">
        <ele>256.0</ele>
        <time>2012-05-29T10:29:07Z</time>
      </trkpt>
      <trkpt lat="43.282452" lon="-5.875374">
        <ele>256.0</ele>
        <time>2012-05-29T10:29:11Z</time>
      </trkpt>
      <trkpt lat="43.282684" lon="-5.875793">
        <ele>255.0</ele>
        <time>2012-05-29T10:29:15Z</time>
      </trkpt>
      <trkpt lat="43.282921" lon="-5.876232">
        <ele>255.0</ele>
        <time>2012-05-29T10:29:19Z</time>
      </trkpt>
      <trkpt lat="43.283157" lon="-5.876678">
        <ele>255.0</ele>
        <time>2012-05-29T10:29:23Z</time>
      </trkpt>
      <trkpt lat="43.283393" lon="-5.877135">
        <ele>255.0</ele>
        <time>2012-05-29T10:29:27Z</time>
      </trkpt>
      <trkpt lat="43.283627" lon="-5.877611">
        <ele>254.0</ele>
        <time>2012-05-29T10:29:31Z</time>
      </trkpt>
      <trkpt lat="43.283866" lon="-5.878065">
        <ele>254.0</ele>
        <time>2012-05-29T10:29:35Z</time>
      </trkpt>
      <trkpt lat="43.284108" lon="-5.878517">
        <ele>253.0</ele>
        <time>2012-05-29T10:29:39Z</time>
      </trkpt>
      <trkpt lat="43.28434" lon="-5.878964">
        <ele>254.0</ele>
        <time>2012-05-29T10:29:43Z</time>
      </trkpt>
      <trkpt lat="43.284558" lon="-5.879381">
        <ele>253.0</ele>
        <time>2012-05-29T10:29:47Z</time>
      </trkpt>
      <trkpt lat="43.28478" lon="-5.879812">
        <ele>253.0</ele>
        <time>2012-05-29T10:29:51Z</time>
      </trkpt>
      <trkpt lat="43.284994" lon="-5.880235">
        <ele>254.0</ele>
        <time>2012-05-29T10:29:55Z</time>
      </trkpt>
      <trkpt lat="43.285242" lon="-5.880633">
        <ele>254.0</ele>
        <time>2012-05-29T10:29:59Z</time>
      </trkpt>
      <trkpt lat="43.285552" lon="-5.880935">
        <ele>254.0</ele>
        <time>2012-05-29T10:30:03Z</time>
      </trkpt>
      <trkpt lat="43.285903" lon="-5.881083">
        <ele>254.0</ele>
        <time>2012-05-29T10:30:07Z</time>
      </trkpt>
      <trkpt lat="43.286237" lon="-5.881122">
        <ele>254.0</ele>
        <time>2012-05-29T10:30:11Z</time>
      </trkpt>
      <trkpt lat="43.286565" lon="-5.881047">
        <ele>254.0</ele>
        <time>2012-05-29T10:30:15Z</time>
      </trkpt>
      <trkpt lat="43.286885" lon="-5.880878">
        <ele>255.0</ele>
        <time>2012-05-29T10:30:19Z</time>
      </trkpt>
      <trkpt lat="43.287197" lon="-5.880716">
        <ele>256.0</ele>
        <time>2012-05-29T10:30:23Z</time>
      </trkpt>
      <trkpt lat="43.287501" lon="-5.880529">
        <ele>256.0</ele>
        <time>2012-05-29T10:30:27Z</time>
      </trkpt>
      <trkpt lat="43.287828" lon="-5.880416">
        <ele>256.0</ele>
        <time>2012-05-29T10:30:31Z</time>
      </trkpt>
      <trkpt lat="43.288196" lon="-5.880445">
        <ele>255.0</ele>
        <time>2012-05-29T10:30:35Z</time>
      </trkpt>
      <trkpt lat="43.28856" lon="-5.880586">
        <ele>254.0</ele>
        <time>2012-05-29T10:30:39Z</time>
      </trkpt>
      <trkpt lat="43.288926" lon="-5.880761">
        <ele>254.0</ele>
        <time>2012-05-29T10:30:43Z</time>
      </trkpt>
      <trkpt lat="43.289296" lon="-5.880964">
        <ele>254.0</ele>
        <time>2012-05-29T10:30:47Z</time>
      </trkpt>
      <trkpt lat="43.28969" lon="-5.881153">
        <ele>253.0</ele>
        <time>2012-05-29T10:30:51Z</time>
      </trkpt>
      <trkpt lat="43.290121" lon="-5.881264">
        <ele>252.0</ele>
        <time>2012-05-29T10:30:55Z</time>
      </trkpt>
      <trkpt lat="43.290562" lon="-5.881273">
        <ele>251.0</ele>
        <time>2012-05-29T10:30:59Z</time>
      </trkpt>
      <trkpt lat="43.290964" lon="-5.881219">
        <ele>252.0</ele>
        <time>2012-05-29T10:31:03Z</time>
      </trkpt>
      <trkpt lat="43.291379" lon="-5.881148">
        <ele>253.0</ele>
        <time>2012-05-29T10:31:07Z</time>
      </trkpt>
      <trkpt lat="43.291806" lon="-5.881119">
        <ele>253.0</ele>
        <time>2012-05-29T10:31:11Z</time>
      </trkpt>
      <trkpt lat="43.292245" lon="-5.881097">
        <ele>254.0</ele>
        <time>2012-05-29T10:31:15Z</time>
      </trkpt>
      <trkpt lat="43.292574" lon="-5.881106">
        <ele>254.0</ele>
        <time>2012-05-29T10:31:18Z</time>
      </trkpt>
      <trkpt lat="43.29314" lon="-5.881156">
        <ele>255.0</ele>
        <time>2012-05-29T10:31:23Z</time>
      </trkpt>
      <trkpt lat="43.293496" lon="-5.881273">
        <ele>254.0</ele>
        <time>2012-05-29T10:31:27Z</time>
      </trkpt>
      <trkpt lat="43.293897" lon="-5.881429">
        <ele>251.0</ele>
        <time>2012-05-29T10:31:31Z</time>
      </trkpt>
      <trkpt lat="43.294326" lon="-5.88156">
        <ele>250.0</ele>
        <time>2012-05-29T10:31:35Z</time>
      </trkpt>
      <trkpt lat="43.294753" lon="-5.881659">
        <ele>249.0</ele>
        <time>2012-05-29T10:31:39Z</time>
      </trkpt>
      <trkpt lat="43.295155" lon="-5.881758">
        <ele>247.0</ele>
        <time>2012-05-29T10:31:43Z</time>
      </trkpt>
      <trkpt lat="43.295542" lon="-5.881882">
        <ele>245.0</ele>
        <time>2012-05-29T10:31:47Z</time>
      </trkpt>
      <trkpt lat="43.295892" lon="-5.88201">
        <ele>245.0</ele>
        <time>2012-05-29T10:31:51Z</time>
      </trkpt>
      <trkpt lat="43.29623" lon="-5.882114">
        <ele>243.0</ele>
        <time>2012-05-29T10:31:55Z</time>
      </trkpt>
      <trkpt lat="43.296585" lon="-5.882225">
        <ele>243.0</ele>
        <time>2012-05-29T10:31:59Z</time>
      </trkpt>
      <trkpt lat="43.296951" lon="-5.882337">
        <ele>243.0</ele>
        <time>2012-05-29T10:32:03Z</time>
      </trkpt>
      <trkpt lat="43.297322" lon="-5.882434">
        <ele>243.0</ele>
        <time>2012-05-29T10:32:07Z</time>
      </trkpt>
      <trkpt lat="43.297599" lon="-5.882508">
        <ele>243.0</ele>
        <time>2012-05-29T10:32:10Z</time>
      </trkpt>
      <trkpt lat="43.298073" lon="-5.882606">
        <ele>243.0</ele>
        <time>2012-05-29T10:32:15Z</time>
      </trkpt>
      <trkpt lat="43.298469" lon="-5.882607">
        <ele>244.0</ele>
        <time>2012-05-29T10:32:19Z</time>
      </trkpt>
      <trkpt lat="43.298948" lon="-5.88264">
        <ele>244.0</ele>
        <time>2012-05-29T10:32:23Z</time>
      </trkpt>
      <trkpt lat="43.299355" lon="-5.882651">
        <ele>244.0</ele>
        <time>2012-05-29T10:32:26Z</time>
      </trkpt>
      <trkpt lat="43.300011" lon="-5.882719">
        <ele>242.0</ele>
        <time>2012-05-29T10:32:31Z</time>
      </trkpt>
      <trkpt lat="43.300326" lon="-5.882813">
        <ele>241.0</ele>
        <time>2012-05-29T10:32:34Z</time>
      </trkpt>
      <trkpt lat="43.300523" lon="-5.882887">
        <ele>239.0</ele>
        <time>2012-05-29T10:32:38Z</time>
      </trkpt>
      <trkpt lat="43.300817" lon="-5.882801">
        <ele>237.0</ele>
        <time>2012-05-29T10:32:43Z</time>
      </trkpt>
      <trkpt lat="43.300973" lon="-5.882642">
        <ele>235.0</ele>
        <time>2012-05-29T10:32:47Z</time>
      </trkpt>
      <trkpt lat="43.301211" lon="-5.882457">
        <ele>233.0</ele>
        <time>2012-05-29T10:32:51Z</time>
      </trkpt>
      <trkpt lat="43.301503" lon="-5.882279">
        <ele>232.0</ele>
        <time>2012-05-29T10:32:55Z</time>
      </trkpt>
      <trkpt lat="43.30182" lon="-5.882071">
        <ele>230.0</ele>
        <time>2012-05-29T10:32:59Z</time>
      </trkpt>
      <trkpt lat="43.302145" lon="-5.881864">
        <ele>229.0</ele>
        <time>2012-05-29T10:33:03Z</time>
      </trkpt>
      <trkpt lat="43.302467" lon="-5.881662">
        <ele>228.0</ele>
        <time>2012-05-29T10:33:07Z</time>
      </trkpt>
      <trkpt lat="43.302792" lon="-5.881463">
        <ele>226.0</ele>
        <time>2012-05-29T10:33:11Z</time>
      </trkpt>
      <trkpt lat="43.303108" lon="-5.881257">
        <ele>226.0</ele>
        <time>2012-05-29T10:33:15Z</time>
      </trkpt>
      <trkpt lat="43.303275" lon="-5.881139">
        <ele>226.0</ele>
        <time>2012-05-29T10:33:17Z</time>
      </trkpt>
      <trkpt lat="43.303643" lon="-5.880754">
        <ele>220.0</ele>
        <time>2012-05-29T10:33:23Z</time>
      </trkpt>
      <trkpt lat="43.303883" lon="-5.880421">
        <ele>219.0</ele>
        <time>2012-05-29T10:33:27Z</time>
      </trkpt>
      <trkpt lat="43.304123" lon="-5.880071">
        <ele>219.0</ele>
        <time>2012-05-29T10:33:31Z</time>
      </trkpt>
      <trkpt lat="43.304335" lon="-5.879712">
        <ele>219.0</ele>
        <time>2012-05-29T10:33:35Z</time>
      </trkpt>
      <trkpt lat="43.304532" lon="-5.87935">
        <ele>218.0</ele>
        <time>2012-05-29T10:33:39Z</time>
      </trkpt>
      <trkpt lat="43.304718" lon="-5.878982">
        <ele>218.0</ele>
        <time>2012-05-29T10:33:43Z</time>
      </trkpt>
      <trkpt lat="43.304927" lon="-5.878632">
        <ele>218.0</ele>
        <time>2012-05-29T10:33:47Z</time>
      </trkpt>
      <trkpt lat="43.305132" lon="-5.878271">
        <ele>217.0</ele>
        <time>2012-05-29T10:33:51Z</time>
      </trkpt>
      <trkpt lat="43.305334" lon="-5.8779">
        <ele>218.0</ele>
        <time>2012-05-29T10:33:55Z</time>
      </trkpt>
      <trkpt lat="43.305382" lon="-5.877804">
        <ele>218.0</ele>
        <time>2012-05-29T10:33:56Z</time>
      </trkpt>
      <trkpt lat="43.305657" lon="-5.877221">
        <ele>217.0</ele>
        <time>2012-05-29T10:34:02Z</time>
      </trkpt>
      <trkpt lat="43.3059" lon="-5.876731">
        <ele>216.0</ele>
        <time>2012-05-29T10:34:07Z</time>
      </trkpt>
      <trkpt lat="43.3061" lon="-5.876341">
        <ele>216.0</ele>
        <time>2012-05-29T10:34:11Z</time>
      </trkpt>
      <trkpt lat="43.306294" lon="-5.875946">
        <ele>216.0</ele>
        <time>2012-05-29T10:34:15Z</time>
      </trkpt>
      <trkpt lat="43.306496" lon="-5.875555">
        <ele>215.0</ele>
        <time>2012-05-29T10:34:19Z</time>
      </trkpt>
      <trkpt lat="43.306733" lon="-5.875203">
        <ele>215.0</ele>
        <time>2012-05-29T10:34:23Z</time>
      </trkpt>
      <trkpt lat="43.306978" lon="-5.874869">
        <ele>215.0</ele>
        <time>2012-05-29T10:34:27Z</time>
      </trkpt>
      <trkpt lat="43.307208" lon="-5.874531">
        <ele>215.0</ele>
        <time>2012-05-29T10:34:31Z</time>
      </trkpt>
      <trkpt lat="43.307503" lon="-5.874307">
        <ele>215.0</ele>
        <time>2012-05-29T10:34:35Z</time>
      </trkpt>
      <trkpt lat="43.307804" lon="-5.874102">
        <ele>215.0</ele>
        <time>2012-05-29T10:34:39Z</time>
      </trkpt>
      <trkpt lat="43.308128" lon="-5.873936">
        <ele>214.0</ele>
        <time>2012-05-29T10:34:43Z</time>
      </trkpt>
      <trkpt lat="43.308453" lon="-5.873744">
        <ele>215.0</ele>
        <time>2012-05-29T10:34:47Z</time>
      </trkpt>
      <trkpt lat="43.308707" lon="-5.873442">
        <ele>214.0</ele>
        <time>2012-05-29T10:34:51Z</time>
      </trkpt>
      <trkpt lat="43.308894" lon="-5.873067">
        <ele>214.0</ele>
        <time>2012-05-29T10:34:55Z</time>
      </trkpt>
      <trkpt lat="43.309072" lon="-5.872711">
        <ele>214.0</ele>
        <time>2012-05-29T10:34:59Z</time>
      </trkpt>
      <trkpt lat="43.309231" lon="-5.872365">
        <ele>213.0</ele>
        <time>2012-05-29T10:35:03Z</time>
      </trkpt>
      <trkpt lat="43.309252" lon="-5.872277">
        <ele>213.0</ele>
        <time>2012-05-29T10:35:04Z</time>
      </trkpt>
      <trkpt lat="43.309441" lon="-5.871788">
        <ele>214.0</ele>
        <time>2012-05-29T10:35:11Z</time>
      </trkpt>
      <trkpt lat="43.309637" lon="-5.871567">
        <ele>214.0</ele>
        <time>2012-05-29T10:35:15Z</time>
      </trkpt>
      <trkpt lat="43.309672" lon="-5.871495">
        <ele>213.0</ele>
        <time>2012-05-29T10:35:16Z</time>
      </trkpt>
      <trkpt lat="43.309863" lon="-5.871075">
        <ele>214.0</ele>
        <time>2012-05-29T10:35:22Z</time>
      </trkpt>
      <trkpt lat="43.309975" lon="-5.870812">
        <ele>214.0</ele>
        <time>2012-05-29T10:35:26Z</time>
      </trkpt>
      <trkpt lat="43.310031" lon="-5.870691">
        <ele>214.0</ele>
        <time>2012-05-29T10:35:28Z</time>
      </trkpt>
      <trkpt lat="43.310212" lon="-5.870349">
        <ele>214.0</ele>
        <time>2012-05-29T10:35:34Z</time>
      </trkpt>
      <trkpt lat="43.310345" lon="-5.870121">
        <ele>214.0</ele>
        <time>2012-05-29T10:35:38Z</time>
      </trkpt>
      <trkpt lat="43.310499" lon="-5.869901">
        <ele>214.0</ele>
        <time>2012-05-29T10:35:42Z</time>
      </trkpt>
      <trkpt lat="43.310678" lon="-5.869692">
        <ele>214.0</ele>
        <time>2012-05-29T10:35:46Z</time>
      </trkpt>
      <trkpt lat="43.310776" lon="-5.869598">
        <ele>214.0</ele>
        <time>2012-05-29T10:35:48Z</time>
      </trkpt>
      <trkpt lat="43.31108" lon="-5.869366">
        <ele>214.0</ele>
        <time>2012-05-29T10:35:54Z</time>
      </trkpt>
      <trkpt lat="43.311493" lon="-5.869113">
        <ele>215.0</ele>
        <time>2012-05-29T10:36:02Z</time>
      </trkpt>
      <trkpt lat="43.311602" lon="-5.869058">
        <ele>216.0</ele>
        <time>2012-05-29T10:36:04Z</time>
      </trkpt>
      <trkpt lat="43.311952" lon="-5.869124">
        <ele>217.0</ele>
        <time>2012-05-29T10:36:10Z</time>
      </trkpt>
      <trkpt lat="43.312186" lon="-5.869083">
        <ele>217.0</ele>
        <time>2012-05-29T10:36:14Z</time>
      </trkpt>
      <trkpt lat="43.312399" lon="-5.869026">
        <ele>218.0</ele>
        <time>2012-05-29T10:36:18Z</time>
      </trkpt>
      <trkpt lat="43.312604" lon="-5.868975">
        <ele>218.0</ele>
        <time>2012-05-29T10:36:22Z</time>
      </trkpt>
      <trkpt lat="43.312813" lon="-5.868915">
        <ele>219.0</ele>
        <time>2012-05-29T10:36:26Z</time>
      </trkpt>
      <trkpt lat="43.313026" lon="-5.868849">
        <ele>219.0</ele>
        <time>2012-05-29T10:36:30Z</time>
      </trkpt>
      <trkpt lat="43.31323" lon="-5.868791">
        <ele>218.0</ele>
        <time>2012-05-29T10:36:34Z</time>
      </trkpt>
      <trkpt lat="43.313437" lon="-5.868736">
        <ele>218.0</ele>
        <time>2012-05-29T10:36:38Z</time>
      </trkpt>
      <trkpt lat="43.313645" lon="-5.868683">
        <ele>218.0</ele>
        <time>2012-05-29T10:36:42Z</time>
      </trkpt>
      <trkpt lat="43.313862" lon="-5.868625">
        <ele>218.0</ele>
        <time>2012-05-29T10:36:46Z</time>
      </trkpt>
      <trkpt lat="43.314083" lon="-5.868577">
        <ele>218.0</ele>
        <time>2012-05-29T10:36:50Z</time>
      </trkpt>
      <trkpt lat="43.314302" lon="-5.868511">
        <ele>219.0</ele>
        <time>2012-05-29T10:36:54Z</time>
      </trkpt>
      <trkpt lat="43.314522" lon="-5.868446">
        <ele>219.0</ele>
        <time>2012-05-29T10:36:58Z</time>
      </trkpt>
      <trkpt lat="43.314748" lon="-5.868387">
        <ele>219.0</ele>
        <time>2012-05-29T10:37:02Z</time>
      </trkpt>
      <trkpt lat="43.314975" lon="-5.868341">
        <ele>219.0</ele>
        <time>2012-05-29T10:37:06Z</time>
      </trkpt>
      <trkpt lat="43.315196" lon="-5.868289">
        <ele>219.0</ele>
        <time>2012-05-29T10:37:10Z</time>
      </trkpt>
      <trkpt lat="43.315418" lon="-5.868239">
        <ele>219.0</ele>
        <time>2012-05-29T10:37:14Z</time>
      </trkpt>
      <trkpt lat="43.315637" lon="-5.868178">
        <ele>219.0</ele>
        <time>2012-05-29T10:37:18Z</time>
      </trkpt>
      <trkpt lat="43.315876" lon="-5.86813">
        <ele>219.0</ele>
        <time>2012-05-29T10:37:22Z</time>
      </trkpt>
      <trkpt lat="43.316122" lon="-5.868129">
        <ele>219.0</ele>
        <time>2012-05-29T10:37:26Z</time>
      </trkpt>
      <trkpt lat="43.316366" lon="-5.868166">
        <ele>219.0</ele>
        <time>2012-05-29T10:37:30Z</time>
      </trkpt>
      <trkpt lat="43.316601" lon="-5.86824">
        <ele>219.0</ele>
        <time>2012-05-29T10:37:34Z</time>
      </trkpt>
      <trkpt lat="43.317092" lon="-5.868559">
        <ele>221.0</ele>
        <time>2012-05-29T10:37:43Z</time>
      </trkpt>
      <trkpt lat="43.317313" lon="-5.868746">
        <ele>221.0</ele>
        <time>2012-05-29T10:37:47Z</time>
      </trkpt>
      <trkpt lat="43.317533" lon="-5.868933">
        <ele>222.0</ele>
        <time>2012-05-29T10:37:51Z</time>
      </trkpt>
      <trkpt lat="43.317751" lon="-5.869124">
        <ele>222.0</ele>
        <time>2012-05-29T10:37:55Z</time>
      </trkpt>
      <trkpt lat="43.317972" lon="-5.869314">
        <ele>223.0</ele>
        <time>2012-05-29T10:37:59Z</time>
      </trkpt>
      <trkpt lat="43.31817" lon="-5.86949">
        <ele>223.0</ele>
        <time>2012-05-29T10:38:03Z</time>
      </trkpt>
      <trkpt lat="43.318349" lon="-5.869655">
        <ele>223.0</ele>
        <time>2012-05-29T10:38:07Z</time>
      </trkpt>
      <trkpt lat="43.318526" lon="-5.869807">
        <ele>224.0</ele>
        <time>2012-05-29T10:38:11Z</time>
      </trkpt>
      <trkpt lat="43.318714" lon="-5.869967">
        <ele>224.0</ele>
        <time>2012-05-29T10:38:15Z</time>
      </trkpt>
      <trkpt lat="43.318914" lon="-5.870139">
        <ele>224.0</ele>
        <time>2012-05-29T10:38:19Z</time>
      </trkpt>
      <trkpt lat="43.319123" lon="-5.8703">
        <ele>224.0</ele>
        <time>2012-05-29T10:38:23Z</time>
      </trkpt>
      <trkpt lat="43.319567" lon="-5.870543">
        <ele>225.0</ele>
        <time>2012-05-29T10:38:31Z</time>
      </trkpt>
      <trkpt lat="43.319806" lon="-5.870588">
        <ele>225.0</ele>
        <time>2012-05-29T10:38:35Z</time>
      </trkpt>
      <trkpt lat="43.320045" lon="-5.870606">
        <ele>226.0</ele>
        <time>2012-05-29T10:38:39Z</time>
      </trkpt>
      <trkpt lat="43.320288" lon="-5.870618">
        <ele>227.0</ele>
        <time>2012-05-29T10:38:43Z</time>
      </trkpt>
      <trkpt lat="43.320534" lon="-5.870631">
        <ele>228.0</ele>
        <time>2012-05-29T10:38:47Z</time>
      </trkpt>
      <trkpt lat="43.321016" lon="-5.870715">
        <ele>229.0</ele>
        <time>2012-05-29T10:38:55Z</time>
      </trkpt>
      <trkpt lat="43.321253" lon="-5.870814">
        <ele>230.0</ele>
        <time>2012-05-29T10:38:59Z</time>
      </trkpt>
      <trkpt lat="43.321429" lon="-5.870924">
        <ele>231.0</ele>
        <time>2012-05-29T10:39:02Z</time>
      </trkpt>
      <trkpt lat="43.321665" lon="-5.871044">
        <ele>231.0</ele>
        <time>2012-05-29T10:39:06Z</time>
      </trkpt>
      <trkpt lat="43.321926" lon="-5.871294">
        <ele>232.0</ele>
        <time>2012-05-29T10:39:11Z</time>
      </trkpt>
      <trkpt lat="43.322127" lon="-5.871528">
        <ele>232.0</ele>
        <time>2012-05-29T10:39:15Z</time>
      </trkpt>
      <trkpt lat="43.322261" lon="-5.871853">
        <ele>233.0</ele>
        <time>2012-05-29T10:39:19Z</time>
      </trkpt>
      <trkpt lat="43.322407" lon="-5.872167">
        <ele>234.0</ele>
        <time>2012-05-29T10:39:23Z</time>
      </trkpt>
      <trkpt lat="43.32254" lon="-5.872504">
        <ele>235.0</ele>
        <time>2012-05-29T10:39:27Z</time>
      </trkpt>
      <trkpt lat="43.322678" lon="-5.872839">
        <ele>235.0</ele>
        <time>2012-05-29T10:39:31Z</time>
      </trkpt>
      <trkpt lat="43.322813" lon="-5.873182">
        <ele>236.0</ele>
        <time>2012-05-29T10:39:35Z</time>
      </trkpt>
      <trkpt lat="43.322939" lon="-5.873551">
        <ele>237.0</ele>
        <time>2012-05-29T10:39:39Z</time>
      </trkpt>
      <trkpt lat="43.32308" lon="-5.873906">
        <ele>237.0</ele>
        <time>2012-05-29T10:39:43Z</time>
      </trkpt>
      <trkpt lat="43.323229" lon="-5.874235">
        <ele>238.0</ele>
        <time>2012-05-29T10:39:47Z</time>
      </trkpt>
      <trkpt lat="43.323387" lon="-5.874561">
        <ele>239.0</ele>
        <time>2012-05-29T10:39:51Z</time>
      </trkpt>
      <trkpt lat="43.323553" lon="-5.874885">
        <ele>240.0</ele>
        <time>2012-05-29T10:39:55Z</time>
      </trkpt>
      <trkpt lat="43.32371" lon="-5.875203">
        <ele>241.0</ele>
        <time>2012-05-29T10:39:59Z</time>
      </trkpt>
      <trkpt lat="43.32387" lon="-5.875487">
        <ele>242.0</ele>
        <time>2012-05-29T10:40:03Z</time>
      </trkpt>
      <trkpt lat="43.324102" lon="-5.875612">
        <ele>243.0</ele>
        <time>2012-05-29T10:40:07Z</time>
      </trkpt>
      <trkpt lat="43.324351" lon="-5.875683">
        <ele>245.0</ele>
        <time>2012-05-29T10:40:11Z</time>
      </trkpt>
      <trkpt lat="43.324419" lon="-5.875998">
        <ele>247.0</ele>
        <time>2012-05-29T10:40:15Z</time>
      </trkpt>
      <trkpt lat="43.324518" lon="-5.876224">
        <ele>248.0</ele>
        <time>2012-05-29T10:40:18Z</time>
      </trkpt>
      <trkpt lat="43.324715" lon="-5.876411">
        <ele>251.0</ele>
        <time>2012-05-29T10:40:22Z</time>
      </trkpt>
      <trkpt lat="43.324995" lon="-5.876603">
        <ele>252.0</ele>
        <time>2012-05-29T10:40:27Z</time>
      </trkpt>
      <trkpt lat="43.325116" lon="-5.876682">
        <ele>252.0</ele>
        <time>2012-05-29T10:40:29Z</time>
      </trkpt>
      <trkpt lat="43.325464" lon="-5.876878">
        <ele>252.0</ele>
        <time>2012-05-29T10:40:34Z</time>
      </trkpt>
      <trkpt lat="43.325865" lon="-5.876983">
        <ele>252.0</ele>
        <time>2012-05-29T10:40:39Z</time>
      </trkpt>
      <trkpt lat="43.326236" lon="-5.87704">
        <ele>253.0</ele>
        <time>2012-05-29T10:40:43Z</time>
      </trkpt>
      <trkpt lat="43.326669" lon="-5.877053">
        <ele>254.0</ele>
        <time>2012-05-29T10:40:47Z</time>
      </trkpt>
      <trkpt lat="43.327115" lon="-5.877007">
        <ele>254.0</ele>
        <time>2012-05-29T10:40:51Z</time>
      </trkpt>
      <trkpt lat="43.327557" lon="-5.876883">
        <ele>255.0</ele>
        <time>2012-05-29T10:40:55Z</time>
      </trkpt>
      <trkpt lat="43.327907" lon="-5.876744">
        <ele>255.0</ele>
        <time>2012-05-29T10:40:58Z</time>
      </trkpt>
      <trkpt lat="43.328489" lon="-5.876481">
        <ele>255.0</ele>
        <time>2012-05-29T10:41:03Z</time>
      </trkpt>
      <trkpt lat="43.328958" lon="-5.87627">
        <ele>255.0</ele>
        <time>2012-05-29T10:41:07Z</time>
      </trkpt>
      <trkpt lat="43.329392" lon="-5.876038">
        <ele>256.0</ele>
        <time>2012-05-29T10:41:11Z</time>
      </trkpt>
      <trkpt lat="43.329774" lon="-5.875782">
        <ele>255.0</ele>
        <time>2012-05-29T10:41:15Z</time>
      </trkpt>
      <trkpt lat="43.330171" lon="-5.875553">
        <ele>256.0</ele>
        <time>2012-05-29T10:41:19Z</time>
      </trkpt>
      <trkpt lat="43.330527" lon="-5.875291">
        <ele>258.0</ele>
        <time>2012-05-29T10:41:23Z</time>
      </trkpt>
      <trkpt lat="43.330648" lon="-5.874975">
        <ele>260.0</ele>
        <time>2012-05-29T10:41:27Z</time>
      </trkpt>
      <trkpt lat="43.330774" lon="-5.874661">
        <ele>260.0</ele>
        <time>2012-05-29T10:41:31Z</time>
      </trkpt>
      <trkpt lat="43.330894" lon="-5.874346">
        <ele>260.0</ele>
        <time>2012-05-29T10:41:35Z</time>
      </trkpt>
      <trkpt lat="43.330926" lon="-5.873971">
        <ele>260.0</ele>
        <time>2012-05-29T10:41:39Z</time>
      </trkpt>
      <trkpt lat="43.330989" lon="-5.87363">
        <ele>261.0</ele>
        <time>2012-05-29T10:41:43Z</time>
      </trkpt>
      <trkpt lat="43.331076" lon="-5.873302">
        <ele>261.0</ele>
        <time>2012-05-29T10:41:47Z</time>
      </trkpt>
      <trkpt lat="43.331152" lon="-5.873059">
        <ele>261.0</ele>
        <time>2012-05-29T10:41:50Z</time>
      </trkpt>
      <trkpt lat="43.331236" lon="-5.87264">
        <ele>256.0</ele>
        <time>2012-05-29T10:41:55Z</time>
      </trkpt>
      <trkpt lat="43.331312" lon="-5.872275">
        <ele>257.0</ele>
        <time>2012-05-29T10:41:59Z</time>
      </trkpt>
      <trkpt lat="43.331433" lon="-5.871931">
        <ele>259.0</ele>
        <time>2012-05-29T10:42:03Z</time>
      </trkpt>
      <trkpt lat="43.331592" lon="-5.871598">
        <ele>260.0</ele>
        <time>2012-05-29T10:42:07Z</time>
      </trkpt>
      <trkpt lat="43.331714" lon="-5.871245">
        <ele>260.0</ele>
        <time>2012-05-29T10:42:11Z</time>
      </trkpt>
      <trkpt lat="43.331973" lon="-5.871086">
        <ele>261.0</ele>
        <time>2012-05-29T10:42:15Z</time>
      </trkpt>
      <trkpt lat="43.332127" lon="-5.87104">
        <ele>261.0</ele>
        <time>2012-05-29T10:42:17Z</time>
      </trkpt>
      <trkpt lat="43.332582" lon="-5.870817">
        <ele>260.0</ele>
        <time>2012-05-29T10:42:23Z</time>
      </trkpt>
      <trkpt lat="43.332808" lon="-5.870704">
        <ele>260.0</ele>
        <time>2012-05-29T10:42:26Z</time>
      </trkpt>
      <trkpt lat="43.333182" lon="-5.870508">
        <ele>259.0</ele>
        <time>2012-05-29T10:42:31Z</time>
      </trkpt>
      <trkpt lat="43.333556" lon="-5.870516">
        <ele>259.0</ele>
        <time>2012-05-29T10:42:35Z</time>
      </trkpt>
      <trkpt lat="43.333864" lon="-5.870545">
        <ele>259.0</ele>
        <time>2012-05-29T10:42:38Z</time>
      </trkpt>
      <trkpt lat="43.334274" lon="-5.870564">
        <ele>259.0</ele>
        <time>2012-05-29T10:42:42Z</time>
      </trkpt>
      <trkpt lat="43.334792" lon="-5.870613">
        <ele>258.0</ele>
        <time>2012-05-29T10:42:47Z</time>
      </trkpt>
      <trkpt lat="43.335233" lon="-5.870661">
        <ele>257.0</ele>
        <time>2012-05-29T10:42:51Z</time>
      </trkpt>
      <trkpt lat="43.335667" lon="-5.870634">
        <ele>257.0</ele>
        <time>2012-05-29T10:42:55Z</time>
      </trkpt>
      <trkpt lat="43.335956" lon="-5.87056">
        <ele>257.0</ele>
        <time>2012-05-29T10:42:59Z</time>
      </trkpt>
      <trkpt lat="43.336225" lon="-5.870459">
        <ele>257.0</ele>
        <time>2012-05-29T10:43:03Z</time>
      </trkpt>
      <trkpt lat="43.336518" lon="-5.870388">
        <ele>257.0</ele>
        <time>2012-05-29T10:43:07Z</time>
      </trkpt>
      <trkpt lat="43.33683" lon="-5.870377">
        <ele>257.0</ele>
        <time>2012-05-29T10:43:11Z</time>
      </trkpt>
      <trkpt lat="43.337132" lon="-5.870378">
        <ele>257.0</ele>
        <time>2012-05-29T10:43:15Z</time>
      </trkpt>
      <trkpt lat="43.337341" lon="-5.870375">
        <ele>257.0</ele>
        <time>2012-05-29T10:43:18Z</time>
      </trkpt>
      <trkpt lat="43.337601" lon="-5.870356">
        <ele>257.0</ele>
        <time>2012-05-29T10:43:22Z</time>
      </trkpt>
      <trkpt lat="43.337902" lon="-5.870307">
        <ele>258.0</ele>
        <time>2012-05-29T10:43:27Z</time>
      </trkpt>
      <trkpt lat="43.338152" lon="-5.870238">
        <ele>258.0</ele>
        <time>2012-05-29T10:43:31Z</time>
      </trkpt>
      <trkpt lat="43.338414" lon="-5.870151">
        <ele>258.0</ele>
        <time>2012-05-29T10:43:35Z</time>
      </trkpt>
      <trkpt lat="43.338616" lon="-5.870083">
        <ele>258.0</ele>
        <time>2012-05-29T10:43:38Z</time>
      </trkpt>
      <trkpt lat="43.338956" lon="-5.869945">
        <ele>257.0</ele>
        <time>2012-05-29T10:43:43Z</time>
      </trkpt>
      <trkpt lat="43.339234" lon="-5.869828">
        <ele>257.0</ele>
        <time>2012-05-29T10:43:47Z</time>
      </trkpt>
      <trkpt lat="43.339506" lon="-5.869695">
        <ele>257.0</ele>
        <time>2012-05-29T10:43:51Z</time>
      </trkpt>
      <trkpt lat="43.339785" lon="-5.869541">
        <ele>257.0</ele>
        <time>2012-05-29T10:43:55Z</time>
      </trkpt>
      <trkpt lat="43.340065" lon="-5.869376">
        <ele>257.0</ele>
        <time>2012-05-29T10:43:59Z</time>
      </trkpt>
      <trkpt lat="43.340333" lon="-5.869194">
        <ele>257.0</ele>
        <time>2012-05-29T10:44:03Z</time>
      </trkpt>
      <trkpt lat="43.340596" lon="-5.869001">
        <ele>257.0</ele>
        <time>2012-05-29T10:44:07Z</time>
      </trkpt>
      <trkpt lat="43.340856" lon="-5.868794">
        <ele>258.0</ele>
        <time>2012-05-29T10:44:11Z</time>
      </trkpt>
      <trkpt lat="43.341105" lon="-5.868573">
        <ele>259.0</ele>
        <time>2012-05-29T10:44:15Z</time>
      </trkpt>
      <trkpt lat="43.341355" lon="-5.86834">
        <ele>259.0</ele>
        <time>2012-05-29T10:44:19Z</time>
      </trkpt>
      <trkpt lat="43.3416" lon="-5.8681">
        <ele>260.0</ele>
        <time>2012-05-29T10:44:23Z</time>
      </trkpt>
      <trkpt lat="43.341841" lon="-5.867858">
        <ele>260.0</ele>
        <time>2012-05-29T10:44:27Z</time>
      </trkpt>
      <trkpt lat="43.34207" lon="-5.867601">
        <ele>261.0</ele>
        <time>2012-05-29T10:44:31Z</time>
      </trkpt>
      <trkpt lat="43.342292" lon="-5.867342">
        <ele>261.0</ele>
        <time>2012-05-29T10:44:35Z</time>
      </trkpt>
      <trkpt lat="43.342513" lon="-5.867077">
        <ele>261.0</ele>
        <time>2012-05-29T10:44:39Z</time>
      </trkpt>
      <trkpt lat="43.342782" lon="-5.866739">
        <ele>261.0</ele>
        <time>2012-05-29T10:44:44Z</time>
      </trkpt>
      <trkpt lat="43.342836" lon="-5.866671">
        <ele>261.0</ele>
        <time>2012-05-29T10:44:45Z</time>
      </trkpt>
      <trkpt lat="43.343142" lon="-5.866273">
        <ele>261.0</ele>
        <time>2012-05-29T10:44:51Z</time>
      </trkpt>
      <trkpt lat="43.343335" lon="-5.866031">
        <ele>261.0</ele>
        <time>2012-05-29T10:44:55Z</time>
      </trkpt>
      <trkpt lat="43.34347" lon="-5.865841">
        <ele>261.0</ele>
        <time>2012-05-29T10:44:58Z</time>
      </trkpt>
      <trkpt lat="43.343663" lon="-5.86547">
        <ele>261.0</ele>
        <time>2012-05-29T10:45:03Z</time>
      </trkpt>
      <trkpt lat="43.343714" lon="-5.865306">
        <ele>261.0</ele>
        <time>2012-05-29T10:45:05Z</time>
      </trkpt>
      <trkpt lat="43.34378" lon="-5.864783">
        <ele>261.0</ele>
        <time>2012-05-29T10:45:11Z</time>
      </trkpt>
      <trkpt lat="43.34379" lon="-5.864416">
        <ele>262.0</ele>
        <time>2012-05-29T10:45:15Z</time>
      </trkpt>
      <trkpt lat="43.343817" lon="-5.864036">
        <ele>262.0</ele>
        <time>2012-05-29T10:45:19Z</time>
      </trkpt>
      <trkpt lat="43.343866" lon="-5.863647">
        <ele>263.0</ele>
        <time>2012-05-29T10:45:23Z</time>
      </trkpt>
      <trkpt lat="43.343954" lon="-5.863246">
        <ele>264.0</ele>
        <time>2012-05-29T10:45:27Z</time>
      </trkpt>
      <trkpt lat="43.344092" lon="-5.862835">
        <ele>264.0</ele>
        <time>2012-05-29T10:45:31Z</time>
      </trkpt>
      <trkpt lat="43.344291" lon="-5.862432">
        <ele>264.0</ele>
        <time>2012-05-29T10:45:35Z</time>
      </trkpt>
      <trkpt lat="43.344545" lon="-5.862058">
        <ele>264.0</ele>
        <time>2012-05-29T10:45:39Z</time>
      </trkpt>
      <trkpt lat="43.344824" lon="-5.861716">
        <ele>263.0</ele>
        <time>2012-05-29T10:45:43Z</time>
      </trkpt>
      <trkpt lat="43.345103" lon="-5.861393">
        <ele>263.0</ele>
        <time>2012-05-29T10:45:47Z</time>
      </trkpt>
      <trkpt lat="43.34538" lon="-5.861076">
        <ele>263.0</ele>
        <time>2012-05-29T10:45:51Z</time>
      </trkpt>
      <trkpt lat="43.345637" lon="-5.860762">
        <ele>263.0</ele>
        <time>2012-05-29T10:45:55Z</time>
      </trkpt>
      <trkpt lat="43.345876" lon="-5.860474">
        <ele>264.0</ele>
        <time>2012-05-29T10:45:59Z</time>
      </trkpt>
      <trkpt lat="43.346048" lon="-5.860273">
        <ele>265.0</ele>
        <time>2012-05-29T10:46:02Z</time>
      </trkpt>
      <trkpt lat="43.346336" lon="-5.859943">
        <ele>265.0</ele>
        <time>2012-05-29T10:46:07Z</time>
      </trkpt>
      <trkpt lat="43.346568" lon="-5.859669">
        <ele>265.0</ele>
        <time>2012-05-29T10:46:11Z</time>
      </trkpt>
      <trkpt lat="43.346744" lon="-5.859461">
        <ele>265.0</ele>
        <time>2012-05-29T10:46:14Z</time>
      </trkpt>
      <trkpt lat="43.347026" lon="-5.859125">
        <ele>266.0</ele>
        <time>2012-05-29T10:46:19Z</time>
      </trkpt>
      <trkpt lat="43.347239" lon="-5.858853">
        <ele>267.0</ele>
        <time>2012-05-29T10:46:23Z</time>
      </trkpt>
      <trkpt lat="43.347448" lon="-5.858584">
        <ele>267.0</ele>
        <time>2012-05-29T10:46:27Z</time>
      </trkpt>
      <trkpt lat="43.347665" lon="-5.858331">
        <ele>267.0</ele>
        <time>2012-05-29T10:46:31Z</time>
      </trkpt>
      <trkpt lat="43.347879" lon="-5.858083">
        <ele>267.0</ele>
        <time>2012-05-29T10:46:35Z</time>
      </trkpt>
      <trkpt lat="43.348095" lon="-5.857853">
        <ele>267.0</ele>
        <time>2012-05-29T10:46:39Z</time>
      </trkpt>
      <trkpt lat="43.348325" lon="-5.857656">
        <ele>267.0</ele>
        <time>2012-05-29T10:46:43Z</time>
      </trkpt>
      <trkpt lat="43.348556" lon="-5.857455">
        <ele>266.0</ele>
        <time>2012-05-29T10:46:47Z</time>
      </trkpt>
      <trkpt lat="43.348781" lon="-5.857243">
        <ele>266.0</ele>
        <time>2012-05-29T10:46:51Z</time>
      </trkpt>
      <trkpt lat="43.349022" lon="-5.857054">
        <ele>266.0</ele>
        <time>2012-05-29T10:46:55Z</time>
      </trkpt>
      <trkpt lat="43.349266" lon="-5.856876">
        <ele>266.0</ele>
        <time>2012-05-29T10:46:59Z</time>
      </trkpt>
      <trkpt lat="43.349505" lon="-5.856707">
        <ele>266.0</ele>
        <time>2012-05-29T10:47:03Z</time>
      </trkpt>
      <trkpt lat="43.349747" lon="-5.856552">
        <ele>266.0</ele>
        <time>2012-05-29T10:47:07Z</time>
      </trkpt>
      <trkpt lat="43.35" lon="-5.856403">
        <ele>267.0</ele>
        <time>2012-05-29T10:47:11Z</time>
      </trkpt>
      <trkpt lat="43.350129" lon="-5.856324">
        <ele>267.0</ele>
        <time>2012-05-29T10:47:13Z</time>
      </trkpt>
      <trkpt lat="43.350519" lon="-5.856107">
        <ele>267.0</ele>
        <time>2012-05-29T10:47:19Z</time>
      </trkpt>
      <trkpt lat="43.350782" lon="-5.855973">
        <ele>268.0</ele>
        <time>2012-05-29T10:47:23Z</time>
      </trkpt>
      <trkpt lat="43.351049" lon="-5.855856">
        <ele>268.0</ele>
        <time>2012-05-29T10:47:27Z</time>
      </trkpt>
      <trkpt lat="43.351307" lon="-5.855763">
        <ele>268.0</ele>
        <time>2012-05-29T10:47:31Z</time>
      </trkpt>
      <trkpt lat="43.351558" lon="-5.855678">
        <ele>268.0</ele>
        <time>2012-05-29T10:47:35Z</time>
      </trkpt>
      <trkpt lat="43.351806" lon="-5.855601">
        <ele>268.0</ele>
        <time>2012-05-29T10:47:39Z</time>
      </trkpt>
      <trkpt lat="43.351992" lon="-5.85555">
        <ele>268.0</ele>
        <time>2012-05-29T10:47:42Z</time>
      </trkpt>
      <trkpt lat="43.352234" lon="-5.855502">
        <ele>268.0</ele>
        <time>2012-05-29T10:47:46Z</time>
      </trkpt>
      <trkpt lat="43.352469" lon="-5.855467">
        <ele>268.0</ele>
        <time>2012-05-29T10:47:50Z</time>
      </trkpt>
      <trkpt lat="43.352684" lon="-5.855427">
        <ele>268.0</ele>
        <time>2012-05-29T10:47:54Z</time>
      </trkpt>
      <trkpt lat="43.352895" lon="-5.855399">
        <ele>268.0</ele>
        <time>2012-05-29T10:47:58Z</time>
      </trkpt>
      <trkpt lat="43.353106" lon="-5.855372">
        <ele>268.0</ele>
        <time>2012-05-29T10:48:02Z</time>
      </trkpt>
      <trkpt lat="43.353211" lon="-5.855361">
        <ele>268.0</ele>
        <time>2012-05-29T10:48:04Z</time>
      </trkpt>
      <trkpt lat="43.353528" lon="-5.85534">
        <ele>270.0</ele>
        <time>2012-05-29T10:48:10Z</time>
      </trkpt>
      <trkpt lat="43.353741" lon="-5.855342">
        <ele>270.0</ele>
        <time>2012-05-29T10:48:14Z</time>
      </trkpt>
      <trkpt lat="43.354149" lon="-5.855473">
        <ele>273.0</ele>
        <time>2012-05-29T10:48:22Z</time>
      </trkpt>
      <trkpt lat="43.354339" lon="-5.855618">
        <ele>274.0</ele>
        <time>2012-05-29T10:48:26Z</time>
      </trkpt>
      <trkpt lat="43.354526" lon="-5.855794">
        <ele>275.0</ele>
        <time>2012-05-29T10:48:30Z</time>
      </trkpt>
      <trkpt lat="43.354709" lon="-5.855921">
        <ele>275.0</ele>
        <time>2012-05-29T10:48:34Z</time>
      </trkpt>
      <trkpt lat="43.355091" lon="-5.855955">
        <ele>277.0</ele>
        <time>2012-05-29T10:48:42Z</time>
      </trkpt>
      <trkpt lat="43.355189" lon="-5.855921">
        <ele>277.0</ele>
        <time>2012-05-29T10:48:44Z</time>
      </trkpt>
      <trkpt lat="43.355467" lon="-5.855745">
        <ele>279.0</ele>
        <time>2012-05-29T10:48:50Z</time>
      </trkpt>
      <trkpt lat="43.355631" lon="-5.8556">
        <ele>281.0</ele>
        <time>2012-05-29T10:48:54Z</time>
      </trkpt>
      <trkpt lat="43.355777" lon="-5.855452">
        <ele>283.0</ele>
        <time>2012-05-29T10:48:58Z</time>
      </trkpt>
      <trkpt lat="43.355897" lon="-5.85532">
        <ele>284.0</ele>
        <time>2012-05-29T10:49:03Z</time>
      </trkpt>
      <trkpt lat="43.355956" lon="-5.855254">
        <ele>284.0</ele>
        <time>2012-05-29T10:49:08Z</time>
      </trkpt>
      <trkpt lat="43.356039" lon="-5.855165">
        <ele>285.0</ele>
        <time>2012-05-29T10:49:14Z</time>
      </trkpt>
      <trkpt lat="43.35609" lon="-5.855105">
        <ele>285.0</ele>
        <time>2012-05-29T10:49:17Z</time>
      </trkpt>
      <trkpt lat="43.356156" lon="-5.855022">
        <ele>285.0</ele>
        <time>2012-05-29T10:49:24Z</time>
      </trkpt>
      <trkpt lat="43.356156" lon="-5.855022">
        <time>2012-05-29T10:49:35Z</time>
      </trkpt>
    </trkseg>
    <trkseg>
      <trkpt lat="43.356156" lon="-5.855022">
        <time>2012-05-29T10:49:49Z</time>
      </trkpt>
      <trkpt lat="43.356302" lon="-5.854682">
        <ele>286.0</ele>
        <time>2012-05-29T10:49:51Z</time>
      </trkpt>
      <trkpt lat="43.356334" lon="-5.854447">
        <ele>288.0</ele>
        <time>2012-05-29T10:49:55Z</time>
      </trkpt>
      <trkpt lat="43.356349" lon="-5.854192">
        <ele>289.0</ele>
        <time>2012-05-29T10:49:59Z</time>
      </trkpt>
      <trkpt lat="43.35632" lon="-5.853904">
        <ele>291.0</ele>
        <time>2012-05-29T10:50:03Z</time>
      </trkpt>
      <trkpt lat="43.356283" lon="-5.85348">
        <ele>292.0</ele>
        <time>2012-05-29T10:50:09Z</time>
      </trkpt>
      <trkpt lat="43.35626" lon="-5.853193">
        <ele>293.0</ele>
        <time>2012-05-29T10:50:13Z</time>
      </trkpt>
      <trkpt lat="43.356241" lon="-5.852907">
        <ele>293.0</ele>
        <time>2012-05-29T10:50:17Z</time>
      </trkpt>
      <trkpt lat="43.356223" lon="-5.852611">
        <ele>293.0</ele>
        <time>2012-05-29T10:50:21Z</time>
      </trkpt>
      <trkpt lat="43.356208" lon="-5.852272">
        <ele>293.0</ele>
        <time>2012-05-29T10:50:25Z</time>
      </trkpt>
      <trkpt lat="43.356197" lon="-5.85192">
        <ele>293.0</ele>
        <time>2012-05-29T10:50:29Z</time>
      </trkpt>
      <trkpt lat="43.356196" lon="-5.851568">
        <ele>292.0</ele>
        <time>2012-05-29T10:50:33Z</time>
      </trkpt>
      <trkpt lat="43.356208" lon="-5.851215">
        <ele>292.0</ele>
        <time>2012-05-29T10:50:37Z</time>
      </trkpt>
      <trkpt lat="43.356192" lon="-5.850957">
        <ele>293.0</ele>
        <time>2012-05-29T10:50:40Z</time>
      </trkpt>
      <trkpt lat="43.356148" lon="-5.850623">
        <ele>293.0</ele>
        <time>2012-05-29T10:50:44Z</time>
      </trkpt>
      <trkpt lat="43.356097" lon="-5.850193">
        <ele>293.0</ele>
        <time>2012-05-29T10:50:49Z</time>
      </trkpt>
      <trkpt lat="43.356042" lon="-5.849775">
        <ele>294.0</ele>
        <time>2012-05-29T10:50:53Z</time>
      </trkpt>
      <trkpt lat="43.355981" lon="-5.849346">
        <ele>295.0</ele>
        <time>2012-05-29T10:50:57Z</time>
      </trkpt>
      <trkpt lat="43.355916" lon="-5.848942">
        <ele>296.0</ele>
        <time>2012-05-29T10:51:01Z</time>
      </trkpt>
      <trkpt lat="43.355862" lon="-5.848558">
        <ele>296.0</ele>
        <time>2012-05-29T10:51:05Z</time>
      </trkpt>
      <trkpt lat="43.355824" lon="-5.848288">
        <ele>296.0</ele>
        <time>2012-05-29T10:51:08Z</time>
      </trkpt>
      <trkpt lat="43.355715" lon="-5.847877">
        <ele>297.0</ele>
        <time>2012-05-29T10:51:13Z</time>
      </trkpt>
      <trkpt lat="43.355386" lon="-5.84753">
        <ele>298.0</ele>
        <time>2012-05-29T10:51:17Z</time>
      </trkpt>
      <trkpt lat="43.355158" lon="-5.847059">
        <ele>298.0</ele>
        <time>2012-05-29T10:51:21Z</time>
      </trkpt>
      <trkpt lat="43.35499" lon="-5.846649">
        <ele>299.0</ele>
        <time>2012-05-29T10:51:24Z</time>
      </trkpt>
      <trkpt lat="43.354787" lon="-5.846031">
        <ele>299.0</ele>
        <time>2012-05-29T10:51:29Z</time>
      </trkpt>
      <trkpt lat="43.354646" lon="-5.845586">
        <ele>300.0</ele>
        <time>2012-05-29T10:51:33Z</time>
      </trkpt>
      <trkpt lat="43.354547" lon="-5.845149">
        <ele>299.0</ele>
        <time>2012-05-29T10:51:37Z</time>
      </trkpt>
      <trkpt lat="43.354505" lon="-5.844917">
        <ele>299.0</ele>
        <time>2012-05-29T10:51:40Z</time>
      </trkpt>
      <trkpt lat="43.354501" lon="-5.844719">
        <ele>299.0</ele>
        <time>2012-05-29T10:51:45Z</time>
      </trkpt>
      <trkpt lat="43.354501" lon="-5.844719">
        <time>2012-05-29T10:51:56Z</time>
      </trkpt>
    </trkseg>
    <trkseg>
      <trkpt lat="43.354501" lon="-5.844719">
        <time>2012-05-29T10:52:31Z</time>
      </trkpt>
      <trkpt lat="43.354463" lon="-5.844061">
        <ele>300.0</ele>
        <time>2012-05-29T10:52:35Z</time>
      </trkpt>
      <trkpt lat="43.354428" lon="-5.843776">
        <ele>301.0</ele>
        <time>2012-05-29T10:52:39Z</time>
      </trkpt>
      <trkpt lat="43.354476" lon="-5.843467">
        <ele>302.0</ele>
        <time>2012-05-29T10:52:43Z</time>
      </trkpt>
      <trkpt lat="43.354514" lon="-5.843142">
        <ele>303.0</ele>
        <time>2012-05-29T10:52:47Z</time>
      </trkpt>
      <trkpt lat="43.354558" lon="-5.842724">
        <ele>303.0</ele>
        <time>2012-05-29T10:52:52Z</time>
      </trkpt>
      <trkpt lat="43.354601" lon="-5.842349">
        <ele>303.0</ele>
        <time>2012-05-29T10:52:56Z</time>
      </trkpt>
      <trkpt lat="43.354668" lon="-5.841932">
        <ele>304.0</ele>
        <time>2012-05-29T10:53:00Z</time>
      </trkpt>
      <trkpt lat="43.354777" lon="-5.841443">
        <ele>304.0</ele>
        <time>2012-05-29T10:53:04Z</time>
      </trkpt>
      <trkpt lat="43.354893" lon="-5.84109">
        <ele>304.0</ele>
        <time>2012-05-29T10:53:07Z</time>
      </trkpt>
      <trkpt lat="43.355182" lon="-5.840553">
        <ele>303.0</ele>
        <time>2012-05-29T10:53:12Z</time>
      </trkpt>
      <trkpt lat="43.355522" lon="-5.84022">
        <ele>304.0</ele>
        <time>2012-05-29T10:53:16Z</time>
      </trkpt>
      <trkpt lat="43.355857" lon="-5.83989">
        <ele>303.0</ele>
        <time>2012-05-29T10:53:20Z</time>
      </trkpt>
      <trkpt lat="43.356198" lon="-5.839544">
        <ele>303.0</ele>
        <time>2012-05-29T10:53:24Z</time>
      </trkpt>
      <trkpt lat="43.356477" lon="-5.839273">
        <ele>303.0</ele>
        <time>2012-05-29T10:53:27Z</time>
      </trkpt>
      <trkpt lat="43.356944" lon="-5.838836">
        <ele>303.0</ele>
        <time>2012-05-29T10:53:32Z</time>
      </trkpt>
      <trkpt lat="43.357319" lon="-5.838531">
        <ele>303.0</ele>
        <time>2012-05-29T10:53:36Z</time>
      </trkpt>
      <trkpt lat="43.357687" lon="-5.838261">
        <ele>303.0</ele>
        <time>2012-05-29T10:53:40Z</time>
      </trkpt>
      <trkpt lat="43.358088" lon="-5.838135">
        <ele>302.0</ele>
        <time>2012-05-29T10:53:44Z</time>
      </trkpt>
      <trkpt lat="43.358505" lon="-5.838119">
        <ele>299.0</ele>
        <time>2012-05-29T10:53:48Z</time>
      </trkpt>
      <trkpt lat="43.358911" lon="-5.838129">
        <ele>298.0</ele>
        <time>2012-05-29T10:53:52Z</time>
      </trkpt>
      <trkpt lat="43.359297" lon="-5.838056">
        <ele>297.0</ele>
        <time>2012-05-29T10:53:56Z</time>
      </trkpt>
      <trkpt lat="43.35966" lon="-5.837939">
        <ele>296.0</ele>
        <time>2012-05-29T10:54:00Z</time>
      </trkpt>
      <trkpt lat="43.360031" lon="-5.838045">
        <ele>295.0</ele>
        <time>2012-05-29T10:54:04Z</time>
      </trkpt>
      <trkpt lat="43.360377" lon="-5.838258">
        <ele>294.0</ele>
        <time>2012-05-29T10:54:08Z</time>
      </trkpt>
      <trkpt lat="43.360741" lon="-5.838453">
        <ele>294.0</ele>
        <time>2012-05-29T10:54:12Z</time>
      </trkpt>
      <trkpt lat="43.361121" lon="-5.838563">
        <ele>295.0</ele>
        <time>2012-05-29T10:54:16Z</time>
      </trkpt>
      <trkpt lat="43.361478" lon="-5.838597">
        <ele>296.0</ele>
        <time>2012-05-29T10:54:20Z</time>
      </trkpt>
      <trkpt lat="43.361775" lon="-5.838581">
        <ele>296.0</ele>
        <time>2012-05-29T10:54:24Z</time>
      </trkpt>
      <trkpt lat="43.361976" lon="-5.838572">
        <ele>295.0</ele>
        <time>2012-05-29T10:54:27Z</time>
      </trkpt>
      <trkpt lat="43.362196" lon="-5.838577">
        <ele>295.0</ele>
        <time>2012-05-29T10:54:31Z</time>
      </trkpt>
      <trkpt lat="43.362365" lon="-5.838572">
        <ele>295.0</ele>
        <time>2012-05-29T10:54:35Z</time>
      </trkpt>
      <trkpt lat="43.362539" lon="-5.838579">
        <ele>294.0</ele>
        <time>2012-05-29T10:54:39Z</time>
      </trkpt>
      <trkpt lat="43.362946" lon="-5.838616">
        <ele>293.0</ele>
        <time>2012-05-29T10:54:47Z</time>
      </trkpt>
      <trkpt lat="43.363341" lon="-5.838483">
        <ele>292.0</ele>
        <time>2012-05-29T10:54:55Z</time>
      </trkpt>
      <trkpt lat="43.363449" lon="-5.838215">
        <ele>290.0</ele>
        <time>2012-05-29T10:54:59Z</time>
      </trkpt>
      <trkpt lat="43.363594" lon="-5.837454">
        <ele>287.0</ele>
        <time>2012-05-29T10:55:08Z</time>
      </trkpt>
      <trkpt lat="43.363681" lon="-5.837026">
        <ele>286.0</ele>
        <time>2012-05-29T10:55:12Z</time>
      </trkpt>
      <trkpt lat="43.363768" lon="-5.836555">
        <ele>285.0</ele>
        <time>2012-05-29T10:55:16Z</time>
      </trkpt>
      <trkpt lat="43.363839" lon="-5.836196">
        <ele>284.0</ele>
        <time>2012-05-29T10:55:19Z</time>
      </trkpt>
      <trkpt lat="43.363933" lon="-5.835725">
        <ele>285.0</ele>
        <time>2012-05-29T10:55:23Z</time>
      </trkpt>
      <trkpt lat="43.364057" lon="-5.835188">
        <ele>285.0</ele>
        <time>2012-05-29T10:55:28Z</time>
      </trkpt>
      <trkpt lat="43.364217" lon="-5.834815">
        <ele>283.0</ele>
        <time>2012-05-29T10:55:32Z</time>
      </trkpt>
      <trkpt lat="43.364348" lon="-5.83447">
        <ele>281.0</ele>
        <time>2012-05-29T10:55:36Z</time>
      </trkpt>
      <trkpt lat="43.364465" lon="-5.834154">
        <ele>280.0</ele>
        <time>2012-05-29T10:55:40Z</time>
      </trkpt>
      <trkpt lat="43.364537" lon="-5.833794">
        <ele>279.0</ele>
        <time>2012-05-29T10:55:44Z</time>
      </trkpt>
      <trkpt lat="43.364611" lon="-5.833443">
        <ele>278.0</ele>
        <time>2012-05-29T10:55:48Z</time>
      </trkpt>
      <trkpt lat="43.364689" lon="-5.833098">
        <ele>278.0</ele>
        <time>2012-05-29T10:55:52Z</time>
      </trkpt>
      <trkpt lat="43.364723" lon="-5.832929">
        <ele>278.0</ele>
        <time>2012-05-29T10:55:54Z</time>
      </trkpt>
      <trkpt lat="43.364807" lon="-5.832522">
        <ele>278.0</ele>
        <time>2012-05-29T10:55:59Z</time>
      </trkpt>
      <trkpt lat="43.364925" lon="-5.832096">
        <ele>278.0</ele>
        <time>2012-05-29T10:56:04Z</time>
      </trkpt>
      <trkpt lat="43.365029" lon="-5.831752">
        <ele>279.0</ele>
        <time>2012-05-29T10:56:08Z</time>
      </trkpt>
      <trkpt lat="43.36513" lon="-5.831404">
        <ele>278.0</ele>
        <time>2012-05-29T10:56:12Z</time>
      </trkpt>
      <trkpt lat="43.365238" lon="-5.831054">
        <ele>278.0</ele>
        <time>2012-05-29T10:56:16Z</time>
      </trkpt>
      <trkpt lat="43.365318" lon="-5.830795">
        <ele>278.0</ele>
        <time>2012-05-29T10:56:19Z</time>
      </trkpt>
      <trkpt lat="43.36555" lon="-5.830828">
        <ele>279.0</ele>
        <time>2012-05-29T10:56:23Z</time>
      </trkpt>
      <trkpt lat="43.365736" lon="-5.830958">
        <ele>279.0</ele>
        <time>2012-05-29T10:56:28Z</time>
      </trkpt>
      <trkpt lat="43.365916" lon="-5.830805">
        <ele>279.0</ele>
        <time>2012-05-29T10:56:35Z</time>
      </trkpt>
      <trkpt lat="43.366032" lon="-5.830419">
        <ele>280.0</ele>
        <time>2012-05-29T10:56:40Z</time>
      </trkpt>
      <trkpt lat="43.366135" lon="-5.830073">
        <ele>280.0</ele>
        <time>2012-05-29T10:56:44Z</time>
      </trkpt>
      <trkpt lat="43.366246" lon="-5.829707">
        <ele>280.0</ele>
        <time>2012-05-29T10:56:48Z</time>
      </trkpt>
      <trkpt lat="43.366349" lon="-5.829428">
        <ele>279.0</ele>
        <time>2012-05-29T10:56:51Z</time>
      </trkpt>
      <trkpt lat="43.366519" lon="-5.828958">
        <ele>279.0</ele>
        <time>2012-05-29T10:56:56Z</time>
      </trkpt>
      <trkpt lat="43.36664" lon="-5.828578">
        <ele>278.0</ele>
        <time>2012-05-29T10:57:00Z</time>
      </trkpt>
      <trkpt lat="43.366761" lon="-5.828199">
        <ele>278.0</ele>
        <time>2012-05-29T10:57:04Z</time>
      </trkpt>
      <trkpt lat="43.366885" lon="-5.827814">
        <ele>277.0</ele>
        <time>2012-05-29T10:57:08Z</time>
      </trkpt>
      <trkpt lat="43.367017" lon="-5.827428">
        <ele>276.0</ele>
        <time>2012-05-29T10:57:12Z</time>
      </trkpt>
      <trkpt lat="43.367148" lon="-5.827043">
        <ele>275.0</ele>
        <time>2012-05-29T10:57:16Z</time>
      </trkpt>
      <trkpt lat="43.367271" lon="-5.826652">
        <ele>274.0</ele>
        <time>2012-05-29T10:57:20Z</time>
      </trkpt>
      <trkpt lat="43.367392" lon="-5.826256">
        <ele>272.0</ele>
        <time>2012-05-29T10:57:24Z</time>
      </trkpt>
      <trkpt lat="43.367525" lon="-5.825863">
        <ele>269.0</ele>
        <time>2012-05-29T10:57:28Z</time>
      </trkpt>
      <trkpt lat="43.367655" lon="-5.825461">
        <ele>267.0</ele>
        <time>2012-05-29T10:57:32Z</time>
      </trkpt>
      <trkpt lat="43.367793" lon="-5.825055">
        <ele>265.0</ele>
        <time>2012-05-29T10:57:36Z</time>
      </trkpt>
      <trkpt lat="43.36793" lon="-5.824652">
        <ele>264.0</ele>
        <time>2012-05-29T10:57:40Z</time>
      </trkpt>
      <trkpt lat="43.368067" lon="-5.824261">
        <ele>263.0</ele>
        <time>2012-05-29T10:57:44Z</time>
      </trkpt>
      <trkpt lat="43.368198" lon="-5.823874">
        <ele>263.0</ele>
        <time>2012-05-29T10:57:48Z</time>
      </trkpt>
      <trkpt lat="43.368305" lon="-5.823495">
        <ele>262.0</ele>
        <time>2012-05-29T10:57:52Z</time>
      </trkpt>
      <trkpt lat="43.368414" lon="-5.823127">
        <ele>262.0</ele>
        <time>2012-05-29T10:57:56Z</time>
      </trkpt>
      <trkpt lat="43.368505" lon="-5.822742">
        <ele>262.0</ele>
        <time>2012-05-29T10:58:00Z</time>
      </trkpt>
      <trkpt lat="43.368582" lon="-5.822348">
        <ele>261.0</ele>
        <time>2012-05-29T10:58:04Z</time>
      </trkpt>
      <trkpt lat="43.368655" lon="-5.821961">
        <ele>261.0</ele>
        <time>2012-05-29T10:58:08Z</time>
      </trkpt>
      <trkpt lat="43.368723" lon="-5.821576">
        <ele>260.0</ele>
        <time>2012-05-29T10:58:12Z</time>
      </trkpt>
      <trkpt lat="43.368798" lon="-5.821186">
        <ele>260.0</ele>
        <time>2012-05-29T10:58:16Z</time>
      </trkpt>
      <trkpt lat="43.368869" lon="-5.820771">
        <ele>260.0</ele>
        <time>2012-05-29T10:58:20Z</time>
      </trkpt>
      <trkpt lat="43.368935" lon="-5.820454">
        <ele>260.0</ele>
        <time>2012-05-29T10:58:23Z</time>
      </trkpt>
      <trkpt lat="43.369039" lon="-5.819941">
        <ele>260.0</ele>
        <time>2012-05-29T10:58:28Z</time>
      </trkpt>
      <trkpt lat="43.369081" lon="-5.819577">
        <ele>260.0</ele>
        <time>2012-05-29T10:58:32Z</time>
      </trkpt>
      <trkpt lat="43.369073" lon="-5.819332">
        <ele>259.0</ele>
        <time>2012-05-29T10:58:35Z</time>
      </trkpt>
      <trkpt lat="43.369132" lon="-5.819189">
        <ele>259.0</ele>
        <time>2012-05-29T10:58:37Z</time>
      </trkpt>
      <trkpt lat="43.369351" lon="-5.818887">
        <ele>258.0</ele>
        <time>2012-05-29T10:58:43Z</time>
      </trkpt>
      <trkpt lat="43.369436" lon="-5.818694">
        <ele>258.0</ele>
        <time>2012-05-29T10:58:47Z</time>
      </trkpt>
      <trkpt lat="43.369505" lon="-5.818601">
        <ele>258.0</ele>
        <time>2012-05-29T10:58:49Z</time>
      </trkpt>
      <trkpt lat="43.369757" lon="-5.818282">
        <ele>258.0</ele>
        <time>2012-05-29T10:58:55Z</time>
      </trkpt>
      <trkpt lat="43.369942" lon="-5.818073">
        <ele>258.0</ele>
        <time>2012-05-29T10:58:59Z</time>
      </trkpt>
      <trkpt lat="43.370181" lon="-5.817785">
        <ele>259.0</ele>
        <time>2012-05-29T10:59:04Z</time>
      </trkpt>
      <trkpt lat="43.370326" lon="-5.817611">
        <ele>258.0</ele>
        <time>2012-05-29T10:59:07Z</time>
      </trkpt>
      <trkpt lat="43.370558" lon="-5.817326">
        <ele>258.0</ele>
        <time>2012-05-29T10:59:12Z</time>
      </trkpt>
      <trkpt lat="43.370642" lon="-5.817205">
        <ele>258.0</ele>
        <time>2012-05-29T10:59:14Z</time>
      </trkpt>
      <trkpt lat="43.370872" lon="-5.816844">
        <ele>258.0</ele>
        <time>2012-05-29T10:59:20Z</time>
      </trkpt>
      <trkpt lat="43.371008" lon="-5.8166">
        <ele>258.0</ele>
        <time>2012-05-29T10:59:24Z</time>
      </trkpt>
      <trkpt lat="43.371139" lon="-5.816346">
        <ele>259.0</ele>
        <time>2012-05-29T10:59:28Z</time>
      </trkpt>
      <trkpt lat="43.3714" lon="-5.815824">
        <ele>258.0</ele>
        <time>2012-05-29T10:59:36Z</time>
      </trkpt>
      <trkpt lat="43.371532" lon="-5.815555">
        <ele>258.0</ele>
        <time>2012-05-29T10:59:40Z</time>
      </trkpt>
      <trkpt lat="43.37168" lon="-5.815278">
        <ele>257.0</ele>
        <time>2012-05-29T10:59:44Z</time>
      </trkpt>
      <trkpt lat="43.371823" lon="-5.814986">
        <ele>257.0</ele>
        <time>2012-05-29T10:59:48Z</time>
      </trkpt>
      <trkpt lat="43.371955" lon="-5.814677">
        <ele>257.0</ele>
        <time>2012-05-29T10:59:52Z</time>
      </trkpt>
      <trkpt lat="43.372073" lon="-5.814339">
        <ele>257.0</ele>
        <time>2012-05-29T10:59:56Z</time>
      </trkpt>
      <trkpt lat="43.372179" lon="-5.813983">
        <ele>257.0</ele>
        <time>2012-05-29T11:00:00Z</time>
      </trkpt>
      <trkpt lat="43.37225" lon="-5.813704">
        <ele>258.0</ele>
        <time>2012-05-29T11:00:03Z</time>
      </trkpt>
      <trkpt lat="43.372424" lon="-5.813292">
        <ele>258.0</ele>
        <time>2012-05-29T11:00:08Z</time>
      </trkpt>
      <trkpt lat="43.372524" lon="-5.813083">
        <ele>259.0</ele>
        <time>2012-05-29T11:00:11Z</time>
      </trkpt>
      <trkpt lat="43.372466" lon="-5.81268">
        <ele>259.0</ele>
        <time>2012-05-29T11:00:16Z</time>
      </trkpt>
      <trkpt lat="43.372433" lon="-5.81249">
        <ele>259.0</ele>
        <time>2012-05-29T11:00:18Z</time>
      </trkpt>
      <trkpt lat="43.372414" lon="-5.811903">
        <ele>259.0</ele>
        <time>2012-05-29T11:00:24Z</time>
      </trkpt>
      <trkpt lat="43.372677" lon="-5.811742">
        <ele>259.0</ele>
        <time>2012-05-29T11:00:28Z</time>
      </trkpt>
      <trkpt lat="43.37295" lon="-5.811506">
        <ele>259.0</ele>
        <time>2012-05-29T11:00:32Z</time>
      </trkpt>
      <trkpt lat="43.37318" lon="-5.811243">
        <ele>259.0</ele>
        <time>2012-05-29T11:00:36Z</time>
      </trkpt>
      <trkpt lat="43.373401" lon="-5.810984">
        <ele>259.0</ele>
        <time>2012-05-29T11:00:40Z</time>
      </trkpt>
      <trkpt lat="43.373618" lon="-5.810711">
        <ele>259.0</ele>
        <time>2012-05-29T11:00:44Z</time>
      </trkpt>
      <trkpt lat="43.373822" lon="-5.810421">
        <ele>259.0</ele>
        <time>2012-05-29T11:00:48Z</time>
      </trkpt>
      <trkpt lat="43.374019" lon="-5.810108">
        <ele>257.0</ele>
        <time>2012-05-29T11:00:52Z</time>
      </trkpt>
      <trkpt lat="43.374195" lon="-5.80978">
        <ele>257.0</ele>
        <time>2012-05-29T11:00:56Z</time>
      </trkpt>
      <trkpt lat="43.374351" lon="-5.809434">
        <ele>255.0</ele>
        <time>2012-05-29T11:01:00Z</time>
      </trkpt>
      <trkpt lat="43.374486" lon="-5.809068">
        <ele>255.0</ele>
        <time>2012-05-29T11:01:04Z</time>
      </trkpt>
      <trkpt lat="43.374609" lon="-5.808693">
        <ele>255.0</ele>
        <time>2012-05-29T11:01:08Z</time>
      </trkpt>
      <trkpt lat="43.37474" lon="-5.80834">
        <ele>255.0</ele>
        <time>2012-05-29T11:01:12Z</time>
      </trkpt>
      <trkpt lat="43.374891" lon="-5.808014">
        <ele>256.0</ele>
        <time>2012-05-29T11:01:16Z</time>
      </trkpt>
      <trkpt lat="43.375065" lon="-5.807684">
        <ele>256.0</ele>
        <time>2012-05-29T11:01:20Z</time>
      </trkpt>
      <trkpt lat="43.375205" lon="-5.807447">
        <ele>257.0</ele>
        <time>2012-05-29T11:01:23Z</time>
      </trkpt>
      <trkpt lat="43.375451" lon="-5.807062">
        <ele>257.0</ele>
        <time>2012-05-29T11:01:28Z</time>
      </trkpt>
      <trkpt lat="43.375667" lon="-5.806772">
        <ele>256.0</ele>
        <time>2012-05-29T11:01:32Z</time>
      </trkpt>
      <trkpt lat="43.375886" lon="-5.80648">
        <ele>255.0</ele>
        <time>2012-05-29T11:01:36Z</time>
      </trkpt>
      <trkpt lat="43.376041" lon="-5.806269">
        <ele>255.0</ele>
        <time>2012-05-29T11:01:39Z</time>
      </trkpt>
      <trkpt lat="43.376294" lon="-5.805909">
        <ele>255.0</ele>
        <time>2012-05-29T11:01:44Z</time>
      </trkpt>
      <trkpt lat="43.376485" lon="-5.805612">
        <ele>256.0</ele>
        <time>2012-05-29T11:01:48Z</time>
      </trkpt>
      <trkpt lat="43.376655" lon="-5.805306">
        <ele>256.0</ele>
        <time>2012-05-29T11:01:52Z</time>
      </trkpt>
      <trkpt lat="43.376728" lon="-5.805164">
        <ele>256.0</ele>
        <time>2012-05-29T11:01:54Z</time>
      </trkpt>
      <trkpt lat="43.376914" lon="-5.804745">
        <ele>256.0</ele>
        <time>2012-05-29T11:02:00Z</time>
      </trkpt>
      <trkpt lat="43.377009" lon="-5.804492">
        <ele>256.0</ele>
        <time>2012-05-29T11:02:04Z</time>
      </trkpt>
      <trkpt lat="43.377094" lon="-5.804239">
        <ele>257.0</ele>
        <time>2012-05-29T11:02:08Z</time>
      </trkpt>
      <trkpt lat="43.37722" lon="-5.803831">
        <ele>258.0</ele>
        <time>2012-05-29T11:02:14Z</time>
      </trkpt>
      <trkpt lat="43.377344" lon="-5.803446">
        <ele>258.0</ele>
        <time>2012-05-29T11:02:20Z</time>
      </trkpt>
      <trkpt lat="43.377344" lon="-5.803446">
        <time>2012-05-29T11:02:31Z</time>
      </trkpt>
    </trkseg>
    <trkseg>
      <trkpt lat="43.377344" lon="-5.803446">
        <time>2012-05-29T11:03:03Z</time>
      </trkpt>
      <trkpt lat="43.377489" lon="-5.803156">
        <ele>257.0</ele>
        <time>2012-05-29T11:03:08Z</time>
      </trkpt>
      <trkpt lat="43.377549" lon="-5.802924">
        <ele>253.0</ele>
        <time>2012-05-29T11:03:12Z</time>
      </trkpt>
      <trkpt lat="43.377604" lon="-5.802675">
        <ele>252.0</ele>
        <time>2012-05-29T11:03:16Z</time>
      </trkpt>
      <trkpt lat="43.377635" lon="-5.802546">
        <ele>252.0</ele>
        <time>2012-05-29T11:03:18Z</time>
      </trkpt>
      <trkpt lat="43.377747" lon="-5.802129">
        <ele>251.0</ele>
        <time>2012-05-29T11:03:24Z</time>
      </trkpt>
      <trkpt lat="43.377818" lon="-5.80183">
        <ele>250.0</ele>
        <time>2012-05-29T11:03:28Z</time>
      </trkpt>
      <trkpt lat="43.377874" lon="-5.801518">
        <ele>249.0</ele>
        <time>2012-05-29T11:03:32Z</time>
      </trkpt>
      <trkpt lat="43.377914" lon="-5.801213">
        <ele>248.0</ele>
        <time>2012-05-29T11:03:36Z</time>
      </trkpt>
      <trkpt lat="43.377944" lon="-5.800895">
        <ele>248.0</ele>
        <time>2012-05-29T11:03:40Z</time>
      </trkpt>
      <trkpt lat="43.377958" lon="-5.800554">
        <ele>248.0</ele>
        <time>2012-05-29T11:03:44Z</time>
      </trkpt>
      <trkpt lat="43.377958" lon="-5.80019">
        <ele>248.0</ele>
        <time>2012-05-29T11:03:48Z</time>
      </trkpt>
      <trkpt lat="43.377965" lon="-5.799812">
        <ele>248.0</ele>
        <time>2012-05-29T11:03:52Z</time>
      </trkpt>
      <trkpt lat="43.37797" lon="-5.799623">
        <ele>248.0</ele>
        <time>2012-05-29T11:03:54Z</time>
      </trkpt>
      <trkpt lat="43.377983" lon="-5.799239">
        <ele>248.0</ele>
        <time>2012-05-29T11:03:58Z</time>
      </trkpt>
      <trkpt lat="43.378018" lon="-5.798652">
        <ele>248.0</ele>
        <time>2012-05-29T11:04:04Z</time>
      </trkpt>
      <trkpt lat="43.378065" lon="-5.798235">
        <ele>248.0</ele>
        <time>2012-05-29T11:04:08Z</time>
      </trkpt>
      <trkpt lat="43.378134" lon="-5.797817">
        <ele>248.0</ele>
        <time>2012-05-29T11:04:12Z</time>
      </trkpt>
      <trkpt lat="43.378214" lon="-5.797392">
        <ele>248.0</ele>
        <time>2012-05-29T11:04:16Z</time>
      </trkpt>
      <trkpt lat="43.378312" lon="-5.796942">
        <ele>249.0</ele>
        <time>2012-05-29T11:04:20Z</time>
      </trkpt>
      <trkpt lat="43.378422" lon="-5.79648">
        <ele>250.0</ele>
        <time>2012-05-29T11:04:24Z</time>
      </trkpt>
      <trkpt lat="43.37854" lon="-5.796003">
        <ele>250.0</ele>
        <time>2012-05-29T11:04:28Z</time>
      </trkpt>
      <trkpt lat="43.378664" lon="-5.795513">
        <ele>249.0</ele>
        <time>2012-05-29T11:04:32Z</time>
      </trkpt>
      <trkpt lat="43.378774" lon="-5.795023">
        <ele>248.0</ele>
        <time>2012-05-29T11:04:36Z</time>
      </trkpt>
      <trkpt lat="43.378826" lon="-5.794777">
        <ele>247.0</ele>
        <time>2012-05-29T11:04:38Z</time>
      </trkpt>
      <trkpt lat="43.378884" lon="-5.793971">
        <ele>247.0</ele>
        <time>2012-05-29T11:04:44Z</time>
      </trkpt>
      <trkpt lat="43.378873" lon="-5.793445">
        <ele>248.0</ele>
        <time>2012-05-29T11:04:48Z</time>
      </trkpt>
      <trkpt lat="43.378838" lon="-5.792937">
        <ele>248.0</ele>
        <time>2012-05-29T11:04:52Z</time>
      </trkpt>
      <trkpt lat="43.378813" lon="-5.792449">
        <ele>248.0</ele>
        <time>2012-05-29T11:04:56Z</time>
      </trkpt>
      <trkpt lat="43.378819" lon="-5.792028">
        <ele>248.0</ele>
        <time>2012-05-29T11:05:00Z</time>
      </trkpt>
      <trkpt lat="43.378861" lon="-5.791638">
        <ele>248.0</ele>
        <time>2012-05-29T11:05:04Z</time>
      </trkpt>
      <trkpt lat="43.378926" lon="-5.791265">
        <ele>248.0</ele>
        <time>2012-05-29T11:05:08Z</time>
      </trkpt>
      <trkpt lat="43.378993" lon="-5.79089">
        <ele>249.0</ele>
        <time>2012-05-29T11:05:12Z</time>
      </trkpt>
      <trkpt lat="43.379082" lon="-5.790477">
        <ele>249.0</ele>
        <time>2012-05-29T11:05:16Z</time>
      </trkpt>
      <trkpt lat="43.37918" lon="-5.790015">
        <ele>248.0</ele>
        <time>2012-05-29T11:05:20Z</time>
      </trkpt>
      <trkpt lat="43.379257" lon="-5.789667">
        <ele>248.0</ele>
        <time>2012-05-29T11:05:23Z</time>
      </trkpt>
      <trkpt lat="43.379415" lon="-5.789096">
        <ele>248.0</ele>
        <time>2012-05-29T11:05:28Z</time>
      </trkpt>
      <trkpt lat="43.37954" lon="-5.788687">
        <ele>248.0</ele>
        <time>2012-05-29T11:05:32Z</time>
      </trkpt>
      <trkpt lat="43.379622" lon="-5.788391">
        <ele>248.0</ele>
        <time>2012-05-29T11:05:35Z</time>
      </trkpt>
      <trkpt lat="43.37976" lon="-5.787914">
        <ele>248.0</ele>
        <time>2012-05-29T11:05:40Z</time>
      </trkpt>
      <trkpt lat="43.379878" lon="-5.787509">
        <ele>249.0</ele>
        <time>2012-05-29T11:05:44Z</time>
      </trkpt>
      <trkpt lat="43.37997" lon="-5.7872">
        <ele>249.0</ele>
        <time>2012-05-29T11:05:47Z</time>
      </trkpt>
      <trkpt lat="43.380124" lon="-5.78669">
        <ele>248.0</ele>
        <time>2012-05-29T11:05:52Z</time>
      </trkpt>
      <trkpt lat="43.380251" lon="-5.786293">
        <ele>249.0</ele>
        <time>2012-05-29T11:05:56Z</time>
      </trkpt>
      <trkpt lat="43.380367" lon="-5.785894">
        <ele>249.0</ele>
        <time>2012-05-29T11:06:00Z</time>
      </trkpt>
      <trkpt lat="43.380486" lon="-5.785509">
        <ele>249.0</ele>
        <time>2012-05-29T11:06:04Z</time>
      </trkpt>
      <trkpt lat="43.380605" lon="-5.785133">
        <ele>250.0</ele>
        <time>2012-05-29T11:06:08Z</time>
      </trkpt>
      <trkpt lat="43.380719" lon="-5.784762">
        <ele>250.0</ele>
        <time>2012-05-29T11:06:12Z</time>
      </trkpt>
      <trkpt lat="43.380804" lon="-5.784503">
        <ele>250.0</ele>
        <time>2012-05-29T11:06:15Z</time>
      </trkpt>
      <trkpt lat="43.380934" lon="-5.784091">
        <ele>250.0</ele>
        <time>2012-05-29T11:06:20Z</time>
      </trkpt>
      <trkpt lat="43.38102" lon="-5.783864">
        <ele>251.0</ele>
        <time>2012-05-29T11:06:23Z</time>
      </trkpt>
      <trkpt lat="43.381125" lon="-5.783575">
        <ele>252.0</ele>
        <time>2012-05-29T11:06:27Z</time>
      </trkpt>
      <trkpt lat="43.381229" lon="-5.783296">
        <ele>251.0</ele>
        <time>2012-05-29T11:06:31Z</time>
      </trkpt>
      <trkpt lat="43.381333" lon="-5.783012">
        <ele>250.0</ele>
        <time>2012-05-29T11:06:35Z</time>
      </trkpt>
      <trkpt lat="43.381436" lon="-5.782744">
        <ele>250.0</ele>
        <time>2012-05-29T11:06:39Z</time>
      </trkpt>
      <trkpt lat="43.381542" lon="-5.782478">
        <ele>250.0</ele>
        <time>2012-05-29T11:06:43Z</time>
      </trkpt>
      <trkpt lat="43.381648" lon="-5.782214">
        <ele>250.0</ele>
        <time>2012-05-29T11:06:47Z</time>
      </trkpt>
      <trkpt lat="43.381746" lon="-5.78194">
        <ele>250.0</ele>
        <time>2012-05-29T11:06:51Z</time>
      </trkpt>
      <trkpt lat="43.381836" lon="-5.78166">
        <ele>250.0</ele>
        <time>2012-05-29T11:06:55Z</time>
      </trkpt>
      <trkpt lat="43.381929" lon="-5.781368">
        <ele>249.0</ele>
        <time>2012-05-29T11:06:59Z</time>
      </trkpt>
      <trkpt lat="43.38204" lon="-5.780965">
        <ele>249.0</ele>
        <time>2012-05-29T11:07:04Z</time>
      </trkpt>
      <trkpt lat="43.382101" lon="-5.780721">
        <ele>249.0</ele>
        <time>2012-05-29T11:07:07Z</time>
      </trkpt>
      <trkpt lat="43.382175" lon="-5.780401">
        <ele>249.0</ele>
        <time>2012-05-29T11:07:11Z</time>
      </trkpt>
      <trkpt lat="43.382245" lon="-5.780073">
        <ele>250.0</ele>
        <time>2012-05-29T11:07:15Z</time>
      </trkpt>
      <trkpt lat="43.382329" lon="-5.779646">
        <ele>250.0</ele>
        <time>2012-05-29T11:07:20Z</time>
      </trkpt>
      <trkpt lat="43.382386" lon="-5.779382">
        <ele>251.0</ele>
        <time>2012-05-29T11:07:23Z</time>
      </trkpt>
      <trkpt lat="43.382486" lon="-5.778945">
        <ele>251.0</ele>
        <time>2012-05-29T11:07:28Z</time>
      </trkpt>
      <trkpt lat="43.38257" lon="-5.778594">
        <ele>251.0</ele>
        <time>2012-05-29T11:07:32Z</time>
      </trkpt>
      <trkpt lat="43.382655" lon="-5.778248">
        <ele>251.0</ele>
        <time>2012-05-29T11:07:36Z</time>
      </trkpt>
      <trkpt lat="43.382739" lon="-5.777902">
        <ele>251.0</ele>
        <time>2012-05-29T11:07:40Z</time>
      </trkpt>
      <trkpt lat="43.382823" lon="-5.777557">
        <ele>250.0</ele>
        <time>2012-05-29T11:07:44Z</time>
      </trkpt>
      <trkpt lat="43.382903" lon="-5.777207">
        <ele>250.0</ele>
        <time>2012-05-29T11:07:48Z</time>
      </trkpt>
      <trkpt lat="43.382979" lon="-5.776844">
        <ele>250.0</ele>
        <time>2012-05-29T11:07:52Z</time>
      </trkpt>
      <trkpt lat="43.383066" lon="-5.776488">
        <ele>251.0</ele>
        <time>2012-05-29T11:07:56Z</time>
      </trkpt>
      <trkpt lat="43.383141" lon="-5.776134">
        <ele>251.0</ele>
        <time>2012-05-29T11:08:00Z</time>
      </trkpt>
      <trkpt lat="43.383219" lon="-5.775781">
        <ele>252.0</ele>
        <time>2012-05-29T11:08:04Z</time>
      </trkpt>
      <trkpt lat="43.383302" lon="-5.77542">
        <ele>252.0</ele>
        <time>2012-05-29T11:08:08Z</time>
      </trkpt>
      <trkpt lat="43.383381" lon="-5.775047">
        <ele>253.0</ele>
        <time>2012-05-29T11:08:12Z</time>
      </trkpt>
      <trkpt lat="43.383455" lon="-5.774641">
        <ele>253.0</ele>
        <time>2012-05-29T11:08:16Z</time>
      </trkpt>
      <trkpt lat="43.383524" lon="-5.774227">
        <ele>254.0</ele>
        <time>2012-05-29T11:08:20Z</time>
      </trkpt>
      <trkpt lat="43.383597" lon="-5.773804">
        <ele>254.0</ele>
        <time>2012-05-29T11:08:24Z</time>
      </trkpt>
      <trkpt lat="43.38366" lon="-5.773384">
        <ele>255.0</ele>
        <time>2012-05-29T11:08:28Z</time>
      </trkpt>
      <trkpt lat="43.383705" lon="-5.772963">
        <ele>255.0</ele>
        <time>2012-05-29T11:08:32Z</time>
      </trkpt>
      <trkpt lat="43.383743" lon="-5.77255">
        <ele>255.0</ele>
        <time>2012-05-29T11:08:36Z</time>
      </trkpt>
      <trkpt lat="43.383779" lon="-5.77213">
        <ele>254.0</ele>
        <time>2012-05-29T11:08:40Z</time>
      </trkpt>
      <trkpt lat="43.383803" lon="-5.771682">
        <ele>254.0</ele>
        <time>2012-05-29T11:08:44Z</time>
      </trkpt>
      <trkpt lat="43.383826" lon="-5.771177">
        <ele>253.0</ele>
        <time>2012-05-29T11:08:48Z</time>
      </trkpt>
      <trkpt lat="43.383846" lon="-5.77067">
        <ele>252.0</ele>
        <time>2012-05-29T11:08:52Z</time>
      </trkpt>
      <trkpt lat="43.383848" lon="-5.77018">
        <ele>252.0</ele>
        <time>2012-05-29T11:08:56Z</time>
      </trkpt>
      <trkpt lat="43.383853" lon="-5.769716">
        <ele>251.0</ele>
        <time>2012-05-29T11:09:00Z</time>
      </trkpt>
      <trkpt lat="43.383849" lon="-5.769314">
        <ele>252.0</ele>
        <time>2012-05-29T11:09:04Z</time>
      </trkpt>
      <trkpt lat="43.383845" lon="-5.769025">
        <ele>253.0</ele>
        <time>2012-05-29T11:09:07Z</time>
      </trkpt>
      <trkpt lat="43.383822" lon="-5.768546">
        <ele>253.0</ele>
        <time>2012-05-29T11:09:12Z</time>
      </trkpt>
      <trkpt lat="43.383802" lon="-5.768142">
        <ele>253.0</ele>
        <time>2012-05-29T11:09:16Z</time>
      </trkpt>
      <trkpt lat="43.383777" lon="-5.767719">
        <ele>254.0</ele>
        <time>2012-05-29T11:09:20Z</time>
      </trkpt>
      <trkpt lat="43.383753" lon="-5.767294">
        <ele>254.0</ele>
        <time>2012-05-29T11:09:24Z</time>
      </trkpt>
      <trkpt lat="43.38374" lon="-5.76685">
        <ele>255.0</ele>
        <time>2012-05-29T11:09:28Z</time>
      </trkpt>
      <trkpt lat="43.383728" lon="-5.766392">
        <ele>255.0</ele>
        <time>2012-05-29T11:09:32Z</time>
      </trkpt>
      <trkpt lat="43.383721" lon="-5.765923">
        <ele>255.0</ele>
        <time>2012-05-29T11:09:36Z</time>
      </trkpt>
      <trkpt lat="43.383701" lon="-5.765445">
        <ele>256.0</ele>
        <time>2012-05-29T11:09:40Z</time>
      </trkpt>
      <trkpt lat="43.383682" lon="-5.764942">
        <ele>255.0</ele>
        <time>2012-05-29T11:09:44Z</time>
      </trkpt>
      <trkpt lat="43.383664" lon="-5.764458">
        <ele>255.0</ele>
        <time>2012-05-29T11:09:48Z</time>
      </trkpt>
      <trkpt lat="43.383651" lon="-5.763991">
        <ele>255.0</ele>
        <time>2012-05-29T11:09:52Z</time>
      </trkpt>
      <trkpt lat="43.383629" lon="-5.763542">
        <ele>256.0</ele>
        <time>2012-05-29T11:09:56Z</time>
      </trkpt>
      <trkpt lat="43.383604" lon="-5.763094">
        <ele>255.0</ele>
        <time>2012-05-29T11:10:00Z</time>
      </trkpt>
      <trkpt lat="43.38358" lon="-5.76263">
        <ele>255.0</ele>
        <time>2012-05-29T11:10:04Z</time>
      </trkpt>
      <trkpt lat="43.38356" lon="-5.762157">
        <ele>255.0</ele>
        <time>2012-05-29T11:10:08Z</time>
      </trkpt>
      <trkpt lat="43.383539" lon="-5.761675">
        <ele>255.0</ele>
        <time>2012-05-29T11:10:12Z</time>
      </trkpt>
      <trkpt lat="43.383519" lon="-5.761191">
        <ele>254.0</ele>
        <time>2012-05-29T11:10:16Z</time>
      </trkpt>
      <trkpt lat="43.3835" lon="-5.760703">
        <ele>254.0</ele>
        <time>2012-05-29T11:10:20Z</time>
      </trkpt>
      <trkpt lat="43.383485" lon="-5.76021">
        <ele>254.0</ele>
        <time>2012-05-29T11:10:24Z</time>
      </trkpt>
      <trkpt lat="43.383467" lon="-5.759733">
        <ele>254.0</ele>
        <time>2012-05-29T11:10:28Z</time>
      </trkpt>
      <trkpt lat="43.383443" lon="-5.759268">
        <ele>254.0</ele>
        <time>2012-05-29T11:10:32Z</time>
      </trkpt>
      <trkpt lat="43.383424" lon="-5.75881">
        <ele>253.0</ele>
        <time>2012-05-29T11:10:36Z</time>
      </trkpt>
      <trkpt lat="43.383391" lon="-5.75836">
        <ele>253.0</ele>
        <time>2012-05-29T11:10:40Z</time>
      </trkpt>
      <trkpt lat="43.383255" lon="-5.757988">
        <ele>253.0</ele>
        <time>2012-05-29T11:10:44Z</time>
      </trkpt>
      <trkpt lat="43.383158" lon="-5.75762">
        <ele>253.0</ele>
        <time>2012-05-29T11:10:48Z</time>
      </trkpt>
      <trkpt lat="43.383257" lon="-5.757239">
        <ele>254.0</ele>
        <time>2012-05-29T11:10:52Z</time>
      </trkpt>
      <trkpt lat="43.383326" lon="-5.756821">
        <ele>255.0</ele>
        <time>2012-05-29T11:10:56Z</time>
      </trkpt>
      <trkpt lat="43.38333" lon="-5.756378">
        <ele>254.0</ele>
        <time>2012-05-29T11:11:00Z</time>
      </trkpt>
      <trkpt lat="43.383311" lon="-5.755943">
        <ele>254.0</ele>
        <time>2012-05-29T11:11:04Z</time>
      </trkpt>
      <trkpt lat="43.383287" lon="-5.755517">
        <ele>255.0</ele>
        <time>2012-05-29T11:11:08Z</time>
      </trkpt>
      <trkpt lat="43.383266" lon="-5.755092">
        <ele>255.0</ele>
        <time>2012-05-29T11:11:12Z</time>
      </trkpt>
      <trkpt lat="43.383245" lon="-5.754671">
        <ele>254.0</ele>
        <time>2012-05-29T11:11:16Z</time>
      </trkpt>
      <trkpt lat="43.383224" lon="-5.754247">
        <ele>254.0</ele>
        <time>2012-05-29T11:11:20Z</time>
      </trkpt>
      <trkpt lat="43.383209" lon="-5.75382">
        <ele>254.0</ele>
        <time>2012-05-29T11:11:24Z</time>
      </trkpt>
      <trkpt lat="43.383197" lon="-5.753398">
        <ele>254.0</ele>
        <time>2012-05-29T11:11:28Z</time>
      </trkpt>
      <trkpt lat="43.383192" lon="-5.752982">
        <ele>253.0</ele>
        <time>2012-05-29T11:11:32Z</time>
      </trkpt>
      <trkpt lat="43.383182" lon="-5.752596">
        <ele>253.0</ele>
        <time>2012-05-29T11:11:36Z</time>
      </trkpt>
      <trkpt lat="43.383175" lon="-5.752219">
        <ele>252.0</ele>
        <time>2012-05-29T11:11:40Z</time>
      </trkpt>
      <trkpt lat="43.383158" lon="-5.75194">
        <ele>252.0</ele>
        <time>2012-05-29T11:11:43Z</time>
      </trkpt>
      <trkpt lat="43.383126" lon="-5.751578">
        <ele>251.0</ele>
        <time>2012-05-29T11:11:47Z</time>
      </trkpt>
      <trkpt lat="43.383102" lon="-5.751109">
        <ele>250.0</ele>
        <time>2012-05-29T11:11:52Z</time>
      </trkpt>
      <trkpt lat="43.383085" lon="-5.750718">
        <ele>250.0</ele>
        <time>2012-05-29T11:11:56Z</time>
      </trkpt>
      <trkpt lat="43.383058" lon="-5.75033">
        <ele>251.0</ele>
        <time>2012-05-29T11:12:00Z</time>
      </trkpt>
      <trkpt lat="43.383028" lon="-5.749941">
        <ele>251.0</ele>
        <time>2012-05-29T11:12:04Z</time>
      </trkpt>
      <trkpt lat="43.382989" lon="-5.749551">
        <ele>251.0</ele>
        <time>2012-05-29T11:12:08Z</time>
      </trkpt>
      <trkpt lat="43.382948" lon="-5.749162">
        <ele>251.0</ele>
        <time>2012-05-29T11:12:12Z</time>
      </trkpt>
      <trkpt lat="43.382914" lon="-5.748783">
        <ele>251.0</ele>
        <time>2012-05-29T11:12:16Z</time>
      </trkpt>
      <trkpt lat="43.382886" lon="-5.748387">
        <ele>252.0</ele>
        <time>2012-05-29T11:12:20Z</time>
      </trkpt>
      <trkpt lat="43.382871" lon="-5.748087">
        <ele>252.0</ele>
        <time>2012-05-29T11:12:23Z</time>
      </trkpt>
      <trkpt lat="43.382832" lon="-5.747587">
        <ele>253.0</ele>
        <time>2012-05-29T11:12:28Z</time>
      </trkpt>
      <trkpt lat="43.382806" lon="-5.747185">
        <ele>252.0</ele>
        <time>2012-05-29T11:12:32Z</time>
      </trkpt>
      <trkpt lat="43.382793" lon="-5.746772">
        <ele>252.0</ele>
        <time>2012-05-29T11:12:36Z</time>
      </trkpt>
      <trkpt lat="43.382769" lon="-5.746362">
        <ele>252.0</ele>
        <time>2012-05-29T11:12:40Z</time>
      </trkpt>
      <trkpt lat="43.38263" lon="-5.745986">
        <ele>253.0</ele>
        <time>2012-05-29T11:12:44Z</time>
      </trkpt>
      <trkpt lat="43.382467" lon="-5.745611">
        <ele>253.0</ele>
        <time>2012-05-29T11:12:48Z</time>
      </trkpt>
      <trkpt lat="43.382326" lon="-5.745203">
        <ele>254.0</ele>
        <time>2012-05-29T11:12:52Z</time>
      </trkpt>
      <trkpt lat="43.382121" lon="-5.744838">
        <ele>254.0</ele>
        <time>2012-05-29T11:12:56Z</time>
      </trkpt>
      <trkpt lat="43.381846" lon="-5.74449">
        <ele>254.0</ele>
        <time>2012-05-29T11:13:00Z</time>
      </trkpt>
      <trkpt lat="43.381602" lon="-5.744108">
        <ele>253.0</ele>
        <time>2012-05-29T11:13:04Z</time>
      </trkpt>
      <trkpt lat="43.381466" lon="-5.74364">
        <ele>253.0</ele>
        <time>2012-05-29T11:13:08Z</time>
      </trkpt>
      <trkpt lat="43.381433" lon="-5.743145">
        <ele>253.0</ele>
        <time>2012-05-29T11:13:12Z</time>
      </trkpt>
      <trkpt lat="43.381445" lon="-5.742656">
        <ele>254.0</ele>
        <time>2012-05-29T11:13:16Z</time>
      </trkpt>
      <trkpt lat="43.381475" lon="-5.742184">
        <ele>255.0</ele>
        <time>2012-05-29T11:13:20Z</time>
      </trkpt>
      <trkpt lat="43.381507" lon="-5.741738">
        <ele>255.0</ele>
        <time>2012-05-29T11:13:24Z</time>
      </trkpt>
      <trkpt lat="43.381534" lon="-5.741323">
        <ele>255.0</ele>
        <time>2012-05-29T11:13:28Z</time>
      </trkpt>
      <trkpt lat="43.381553" lon="-5.74092">
        <ele>255.0</ele>
        <time>2012-05-29T11:13:32Z</time>
      </trkpt>
      <trkpt lat="43.381576" lon="-5.740508">
        <ele>255.0</ele>
        <time>2012-05-29T11:13:36Z</time>
      </trkpt>
      <trkpt lat="43.381596" lon="-5.740095">
        <ele>254.0</ele>
        <time>2012-05-29T11:13:40Z</time>
      </trkpt>
      <trkpt lat="43.381614" lon="-5.739686">
        <ele>254.0</ele>
        <time>2012-05-29T11:13:44Z</time>
      </trkpt>
      <trkpt lat="43.381634" lon="-5.739273">
        <ele>254.0</ele>
        <time>2012-05-29T11:13:48Z</time>
      </trkpt>
      <trkpt lat="43.381638" lon="-5.738851">
        <ele>254.0</ele>
        <time>2012-05-29T11:13:52Z</time>
      </trkpt>
      <trkpt lat="43.381651" lon="-5.738433">
        <ele>254.0</ele>
        <time>2012-05-29T11:13:56Z</time>
      </trkpt>
      <trkpt lat="43.38167" lon="-5.738022">
        <ele>254.0</ele>
        <time>2012-05-29T11:14:00Z</time>
      </trkpt>
      <trkpt lat="43.381692" lon="-5.737616">
        <ele>254.0</ele>
        <time>2012-05-29T11:14:04Z</time>
      </trkpt>
      <trkpt lat="43.381716" lon="-5.737198">
        <ele>254.0</ele>
        <time>2012-05-29T11:14:08Z</time>
      </trkpt>
      <trkpt lat="43.381734" lon="-5.736787">
        <ele>254.0</ele>
        <time>2012-05-29T11:14:12Z</time>
      </trkpt>
      <trkpt lat="43.381758" lon="-5.736373">
        <ele>254.0</ele>
        <time>2012-05-29T11:14:16Z</time>
      </trkpt>
      <trkpt lat="43.381782" lon="-5.73596">
        <ele>254.0</ele>
        <time>2012-05-29T11:14:20Z</time>
      </trkpt>
      <trkpt lat="43.381797" lon="-5.735551">
        <ele>254.0</ele>
        <time>2012-05-29T11:14:24Z</time>
      </trkpt>
      <trkpt lat="43.381814" lon="-5.735148">
        <ele>254.0</ele>
        <time>2012-05-29T11:14:28Z</time>
      </trkpt>
      <trkpt lat="43.381826" lon="-5.73474">
        <ele>253.0</ele>
        <time>2012-05-29T11:14:32Z</time>
      </trkpt>
      <trkpt lat="43.381839" lon="-5.734342">
        <ele>254.0</ele>
        <time>2012-05-29T11:14:36Z</time>
      </trkpt>
      <trkpt lat="43.381857" lon="-5.73394">
        <ele>254.0</ele>
        <time>2012-05-29T11:14:40Z</time>
      </trkpt>
      <trkpt lat="43.381879" lon="-5.733533">
        <ele>254.0</ele>
        <time>2012-05-29T11:14:44Z</time>
      </trkpt>
      <trkpt lat="43.381903" lon="-5.733127">
        <ele>254.0</ele>
        <time>2012-05-29T11:14:48Z</time>
      </trkpt>
      <trkpt lat="43.381927" lon="-5.73272">
        <ele>254.0</ele>
        <time>2012-05-29T11:14:52Z</time>
      </trkpt>
      <trkpt lat="43.381953" lon="-5.732312">
        <ele>254.0</ele>
        <time>2012-05-29T11:14:56Z</time>
      </trkpt>
      <trkpt lat="43.381981" lon="-5.731907">
        <ele>254.0</ele>
        <time>2012-05-29T11:15:00Z</time>
      </trkpt>
      <trkpt lat="43.381981" lon="-5.731519">
        <ele>253.0</ele>
        <time>2012-05-29T11:15:04Z</time>
      </trkpt>
      <trkpt lat="43.381947" lon="-5.731142">
        <ele>254.0</ele>
        <time>2012-05-29T11:15:08Z</time>
      </trkpt>
      <trkpt lat="43.381929" lon="-5.730743">
        <ele>254.0</ele>
        <time>2012-05-29T11:15:12Z</time>
      </trkpt>
      <trkpt lat="43.381913" lon="-5.730337">
        <ele>254.0</ele>
        <time>2012-05-29T11:15:16Z</time>
      </trkpt>
      <trkpt lat="43.381903" lon="-5.729932">
        <ele>255.0</ele>
        <time>2012-05-29T11:15:20Z</time>
      </trkpt>
      <trkpt lat="43.381911" lon="-5.729545">
        <ele>255.0</ele>
        <time>2012-05-29T11:15:24Z</time>
      </trkpt>
      <trkpt lat="43.381962" lon="-5.729184">
        <ele>255.0</ele>
        <time>2012-05-29T11:15:28Z</time>
      </trkpt>
      <trkpt lat="43.382054" lon="-5.728848">
        <ele>255.0</ele>
        <time>2012-05-29T11:15:32Z</time>
      </trkpt>
      <trkpt lat="43.382151" lon="-5.72862">
        <ele>255.0</ele>
        <time>2012-05-29T11:15:35Z</time>
      </trkpt>
      <trkpt lat="43.382365" lon="-5.728308">
        <ele>256.0</ele>
        <time>2012-05-29T11:15:40Z</time>
      </trkpt>
      <trkpt lat="43.382571" lon="-5.7281">
        <ele>257.0</ele>
        <time>2012-05-29T11:15:44Z</time>
      </trkpt>
      <trkpt lat="43.38279" lon="-5.727913">
        <ele>257.0</ele>
        <time>2012-05-29T11:15:48Z</time>
      </trkpt>
      <trkpt lat="43.383012" lon="-5.727723">
        <ele>258.0</ele>
        <time>2012-05-29T11:15:52Z</time>
      </trkpt>
      <trkpt lat="43.383239" lon="-5.727535">
        <ele>258.0</ele>
        <time>2012-05-29T11:15:56Z</time>
      </trkpt>
      <trkpt lat="43.383471" lon="-5.727351">
        <ele>258.0</ele>
        <time>2012-05-29T11:16:00Z</time>
      </trkpt>
      <trkpt lat="43.383697" lon="-5.727164">
        <ele>259.0</ele>
        <time>2012-05-29T11:16:04Z</time>
      </trkpt>
      <trkpt lat="43.383947" lon="-5.726972">
        <ele>259.0</ele>
        <time>2012-05-29T11:16:08Z</time>
      </trkpt>
      <trkpt lat="43.384188" lon="-5.726773">
        <ele>259.0</ele>
        <time>2012-05-29T11:16:12Z</time>
      </trkpt>
      <trkpt lat="43.384429" lon="-5.726573">
        <ele>259.0</ele>
        <time>2012-05-29T11:16:16Z</time>
      </trkpt>
      <trkpt lat="43.38466" lon="-5.726371">
        <ele>259.0</ele>
        <time>2012-05-29T11:16:20Z</time>
      </trkpt>
      <trkpt lat="43.384871" lon="-5.726179">
        <ele>258.0</ele>
        <time>2012-05-29T11:16:24Z</time>
      </trkpt>
      <trkpt lat="43.385091" lon="-5.725994">
        <ele>259.0</ele>
        <time>2012-05-29T11:16:28Z</time>
      </trkpt>
      <trkpt lat="43.385318" lon="-5.725797">
        <ele>259.0</ele>
        <time>2012-05-29T11:16:32Z</time>
      </trkpt>
      <trkpt lat="43.385575" lon="-5.725561">
        <ele>258.0</ele>
        <time>2012-05-29T11:16:36Z</time>
      </trkpt>
      <trkpt lat="43.385796" lon="-5.725288">
        <ele>258.0</ele>
        <time>2012-05-29T11:16:40Z</time>
      </trkpt>
      <trkpt lat="43.385987" lon="-5.72497">
        <ele>258.0</ele>
        <time>2012-05-29T11:16:44Z</time>
      </trkpt>
      <trkpt lat="43.386097" lon="-5.724707">
        <ele>258.0</ele>
        <time>2012-05-29T11:16:47Z</time>
      </trkpt>
      <trkpt lat="43.386201" lon="-5.724246">
        <ele>258.0</ele>
        <time>2012-05-29T11:16:52Z</time>
      </trkpt>
      <trkpt lat="43.386235" lon="-5.723844">
        <ele>259.0</ele>
        <time>2012-05-29T11:16:56Z</time>
      </trkpt>
      <trkpt lat="43.386242" lon="-5.723443">
        <ele>260.0</ele>
        <time>2012-05-29T11:17:00Z</time>
      </trkpt>
      <trkpt lat="43.386242" lon="-5.723031">
        <ele>261.0</ele>
        <time>2012-05-29T11:17:04Z</time>
      </trkpt>
      <trkpt lat="43.386241" lon="-5.722617">
        <ele>262.0</ele>
        <time>2012-05-29T11:17:08Z</time>
      </trkpt>
      <trkpt lat="43.38623" lon="-5.722187">
        <ele>262.0</ele>
        <time>2012-05-29T11:17:12Z</time>
      </trkpt>
      <trkpt lat="43.386209" lon="-5.721755">
        <ele>262.0</ele>
        <time>2012-05-29T11:17:16Z</time>
      </trkpt>
      <trkpt lat="43.386175" lon="-5.721315">
        <ele>262.0</ele>
        <time>2012-05-29T11:17:20Z</time>
      </trkpt>
      <trkpt lat="43.386136" lon="-5.72089">
        <ele>262.0</ele>
        <time>2012-05-29T11:17:24Z</time>
      </trkpt>
      <trkpt lat="43.386098" lon="-5.720458">
        <ele>262.0</ele>
        <time>2012-05-29T11:17:28Z</time>
      </trkpt>
      <trkpt lat="43.386064" lon="-5.720021">
        <ele>262.0</ele>
        <time>2012-05-29T11:17:32Z</time>
      </trkpt>
      <trkpt lat="43.386033" lon="-5.719577">
        <ele>262.0</ele>
        <time>2012-05-29T11:17:36Z</time>
      </trkpt>
      <trkpt lat="43.385997" lon="-5.719133">
        <ele>262.0</ele>
        <time>2012-05-29T11:17:40Z</time>
      </trkpt>
      <trkpt lat="43.38597" lon="-5.718702">
        <ele>262.0</ele>
        <time>2012-05-29T11:17:44Z</time>
      </trkpt>
      <trkpt lat="43.385942" lon="-5.718289">
        <ele>262.0</ele>
        <time>2012-05-29T11:17:48Z</time>
      </trkpt>
      <trkpt lat="43.385909" lon="-5.717878">
        <ele>262.0</ele>
        <time>2012-05-29T11:17:52Z</time>
      </trkpt>
      <trkpt lat="43.385878" lon="-5.717474">
        <ele>262.0</ele>
        <time>2012-05-29T11:17:56Z</time>
      </trkpt>
      <trkpt lat="43.385853" lon="-5.717073">
        <ele>263.0</ele>
        <time>2012-05-29T11:18:00Z</time>
      </trkpt>
      <trkpt lat="43.385826" lon="-5.716681">
        <ele>264.0</ele>
        <time>2012-05-29T11:18:04Z</time>
      </trkpt>
      <trkpt lat="43.385798" lon="-5.716293">
        <ele>264.0</ele>
        <time>2012-05-29T11:18:08Z</time>
      </trkpt>
      <trkpt lat="43.385773" lon="-5.715895">
        <ele>265.0</ele>
        <time>2012-05-29T11:18:12Z</time>
      </trkpt>
      <trkpt lat="43.38574" lon="-5.71549">
        <ele>265.0</ele>
        <time>2012-05-29T11:18:16Z</time>
      </trkpt>
      <trkpt lat="43.385709" lon="-5.715084">
        <ele>267.0</ele>
        <time>2012-05-29T11:18:20Z</time>
      </trkpt>
      <trkpt lat="43.385688" lon="-5.714682">
        <ele>268.0</ele>
        <time>2012-05-29T11:18:24Z</time>
      </trkpt>
      <trkpt lat="43.385673" lon="-5.714288">
        <ele>268.0</ele>
        <time>2012-05-29T11:18:28Z</time>
      </trkpt>
      <trkpt lat="43.385655" lon="-5.713902">
        <ele>268.0</ele>
        <time>2012-05-29T11:18:32Z</time>
      </trkpt>
      <trkpt lat="43.385631" lon="-5.713507">
        <ele>268.0</ele>
        <time>2012-05-29T11:18:36Z</time>
      </trkpt>
      <trkpt lat="43.385611" lon="-5.713109">
        <ele>267.0</ele>
        <time>2012-05-29T11:18:40Z</time>
      </trkpt>
      <trkpt lat="43.385592" lon="-5.712718">
        <ele>267.0</ele>
        <time>2012-05-29T11:18:44Z</time>
      </trkpt>
      <trkpt lat="43.385553" lon="-5.712305">
        <ele>268.0</ele>
        <time>2012-05-29T11:18:48Z</time>
      </trkpt>
      <trkpt lat="43.385502" lon="-5.711867">
        <ele>269.0</ele>
        <time>2012-05-29T11:18:52Z</time>
      </trkpt>
      <trkpt lat="43.38543" lon="-5.711417">
        <ele>269.0</ele>
        <time>2012-05-29T11:18:56Z</time>
      </trkpt>
      <trkpt lat="43.385353" lon="-5.710967">
        <ele>270.0</ele>
        <time>2012-05-29T11:19:00Z</time>
      </trkpt>
      <trkpt lat="43.385272" lon="-5.710507">
        <ele>270.0</ele>
        <time>2012-05-29T11:19:04Z</time>
      </trkpt>
      <trkpt lat="43.385185" lon="-5.710054">
        <ele>271.0</ele>
        <time>2012-05-29T11:19:08Z</time>
      </trkpt>
      <trkpt lat="43.385102" lon="-5.709593">
        <ele>271.0</ele>
        <time>2012-05-29T11:19:12Z</time>
      </trkpt>
      <trkpt lat="43.385022" lon="-5.709138">
        <ele>271.0</ele>
        <time>2012-05-29T11:19:16Z</time>
      </trkpt>
      <trkpt lat="43.384949" lon="-5.708693">
        <ele>272.0</ele>
        <time>2012-05-29T11:19:20Z</time>
      </trkpt>
      <trkpt lat="43.384875" lon="-5.708251">
        <ele>272.0</ele>
        <time>2012-05-29T11:19:24Z</time>
      </trkpt>
      <trkpt lat="43.384801" lon="-5.707798">
        <ele>272.0</ele>
        <time>2012-05-29T11:19:28Z</time>
      </trkpt>
      <trkpt lat="43.38473" lon="-5.707358">
        <ele>271.0</ele>
        <time>2012-05-29T11:19:32Z</time>
      </trkpt>
      <trkpt lat="43.384647" lon="-5.706937">
        <ele>271.0</ele>
        <time>2012-05-29T11:19:36Z</time>
      </trkpt>
      <trkpt lat="43.384572" lon="-5.706547">
        <ele>271.0</ele>
        <time>2012-05-29T11:19:40Z</time>
      </trkpt>
      <trkpt lat="43.384505" lon="-5.706202">
        <ele>272.0</ele>
        <time>2012-05-29T11:19:44Z</time>
      </trkpt>
      <trkpt lat="43.384472" lon="-5.705897">
        <ele>272.0</ele>
        <time>2012-05-29T11:19:48Z</time>
      </trkpt>
      <trkpt lat="43.384478" lon="-5.705738">
        <ele>272.0</ele>
        <time>2012-05-29T11:19:50Z</time>
      </trkpt>
      <trkpt lat="43.384554" lon="-5.705187">
        <ele>272.0</ele>
        <time>2012-05-29T11:19:56Z</time>
      </trkpt>
      <trkpt lat="43.384606" lon="-5.704808">
        <ele>273.0</ele>
        <time>2012-05-29T11:20:00Z</time>
      </trkpt>
      <trkpt lat="43.384677" lon="-5.704436">
        <ele>273.0</ele>
        <time>2012-05-29T11:20:04Z</time>
      </trkpt>
      <trkpt lat="43.384721" lon="-5.704152">
        <ele>273.0</ele>
        <time>2012-05-29T11:20:07Z</time>
      </trkpt>
      <trkpt lat="43.384785" lon="-5.703759">
        <ele>274.0</ele>
        <time>2012-05-29T11:20:12Z</time>
      </trkpt>
      <trkpt lat="43.384823" lon="-5.703454">
        <ele>274.0</ele>
        <time>2012-05-29T11:20:16Z</time>
      </trkpt>
      <trkpt lat="43.384855" lon="-5.703161">
        <ele>275.0</ele>
        <time>2012-05-29T11:20:20Z</time>
      </trkpt>
      <trkpt lat="43.384874" lon="-5.703031">
        <ele>275.0</ele>
        <time>2012-05-29T11:20:22Z</time>
      </trkpt>
      <trkpt lat="43.384931" lon="-5.702718">
        <ele>276.0</ele>
        <time>2012-05-29T11:20:28Z</time>
      </trkpt>
      <trkpt lat="43.384966" lon="-5.702505">
        <ele>276.0</ele>
        <time>2012-05-29T11:20:32Z</time>
      </trkpt>
      <trkpt lat="43.385009" lon="-5.70226">
        <ele>275.0</ele>
        <time>2012-05-29T11:20:36Z</time>
      </trkpt>
      <trkpt lat="43.385072" lon="-5.70185">
        <ele>275.0</ele>
        <time>2012-05-29T11:20:44Z</time>
      </trkpt>
      <trkpt lat="43.385085" lon="-5.701759">
        <ele>275.0</ele>
        <time>2012-05-29T11:20:47Z</time>
      </trkpt>
      <trkpt lat="43.385085" lon="-5.701759">
        <time>2012-05-29T11:20:58Z</time>
      </trkpt>
    </trkseg>
    <trkseg>
      <trkpt lat="43.385085" lon="-5.701759">
        <time>2012-05-29T11:21:10Z</time>
      </trkpt>
      <trkpt lat="43.385085" lon="-5.701759">
        <time>2012-05-29T11:21:21Z</time>
      </trkpt>
    </trkseg>
    <trkseg>
      <trkpt lat="43.385085" lon="-5.701759">
        <time>2012-05-29T11:21:29Z</time>
      </trkpt>
      <trkpt lat="43.385085" lon="-5.701759">
        <time>2012-05-29T11:21:40Z</time>
      </trkpt>
    </trkseg>
    <trkseg>
      <trkpt lat="43.385085" lon="-5.701759">
        <time>2012-05-29T11:21:48Z</time>
      </trkpt>
      <trkpt lat="43.385085" lon="-5.701759">
        <time>2012-05-29T11:22:06Z</time>
      </trkpt>
    </trkseg>
    <trkseg>
      <trkpt lat="43.385085" lon="-5.701759">
        <time>2012-05-29T11:22:38Z</time>
      </trkpt>
      <trkpt lat="43.385085" lon="-5.701759">
        <time>2012-05-29T11:22:50Z</time>
      </trkpt>
    </trkseg>
    <trkseg>
      <trkpt lat="43.385085" lon="-5.701759">
        <time>2012-05-29T11:22:51Z</time>
      </trkpt>
      <trkpt lat="43.385085" lon="-5.701759">
        <time>2012-05-29T11:23:06Z</time>
      </trkpt>
    </trkseg>
    <trkseg>
      <trkpt lat="43.385085" lon="-5.701759">
        <time>2012-05-29T11:23:06Z</time>
      </trkpt>
      <trkpt lat="43.385085" lon="-5.701759">
        <time>2012-05-29T11:23:18Z</time>
      </trkpt>
    </trkseg>
    <trkseg>
      <trkpt lat="43.385085" lon="-5.701759">
        <time>2012-05-29T11:23:45Z</time>
      </trkpt>
      <trkpt lat="43.385085" lon="-5.701759">
        <time>2012-05-29T11:24:06Z</time>
      </trkpt>
    </trkseg>
    <trkseg>
      <trkpt lat="43.385085" lon="-5.701759">
        <time>2012-05-29T11:24:34Z</time>
      </trkpt>
      <trkpt lat="43.385085" lon="-5.701759">
        <time>2012-05-29T11:24:57Z</time>
      </trkpt>
    </trkseg>
    <trkseg>
      <trkpt lat="43.385085" lon="-5.701759">
        <time>2012-05-29T11:24:58Z</time>
      </trkpt>
      <trkpt lat="43.385085" lon="-5.701759">
        <time>2012-05-29T11:25:10Z</time>
      </trkpt>
    </trkseg>
    <trkseg>
      <trkpt lat="43.385085" lon="-5.701759">
        <time>2012-05-29T11:25:25Z</time>
      </trkpt>
      <trkpt lat="43.385085" lon="-5.701759">
        <time>2012-05-29T11:25:49Z</time>
      </trkpt>
    </trkseg>
    <trkseg>
      <trkpt lat="43.385085" lon="-5.701759">
        <time>2012-05-29T11:25:50Z</time>
      </trkpt>
      <trkpt lat="43.385085" lon="-5.701759">
        <time>2012-05-29T11:26:03Z</time>
      </trkpt>
    </trkseg>
    <trkseg>
      <trkpt lat="43.385085" lon="-5.701759">
        <time>2012-05-29T11:26:19Z</time>
      </trkpt>
      <trkpt lat="43.385085" lon="-5.701759">
        <time>2012-05-29T11:26:45Z</time>
      </trkpt>
    </trkseg>
    <trkseg>
      <trkpt lat="43.385085" lon="-5.701759">
        <time>2012-05-29T11:27:17Z</time>
      </trkpt>
      <trkpt lat="43.385085" lon="-5.701759">
        <time>2012-05-29T11:27:46Z</time>
      </trkpt>
    </trkseg>
    <trkseg>
      <trkpt lat="43.385085" lon="-5.701759">
        <time>2012-05-29T11:28:11Z</time>
      </trkpt>
      <trkpt lat="43.385085" lon="-5.701759">
        <time>2012-05-29T11:28:31Z</time>
      </trkpt>
    </trkseg>
    <trkseg>
      <trkpt lat="43.385085" lon="-5.701759">
        <time>2012-05-29T11:28:56Z</time>
      </trkpt>
      <trkpt lat="43.385085" lon="-5.701759">
        <time>2012-05-29T11:29:08Z</time>
      </trkpt>
    </trkseg>
    <trkseg>
      <trkpt lat="43.385085" lon="-5.701759">
        <time>2012-05-29T11:29:48Z</time>
      </trkpt>
      <trkpt lat="43.385085" lon="-5.701759">
        <time>2012-05-29T11:30:00Z</time>
      </trkpt>
    </trkseg>
    <trkseg>
      <trkpt lat="43.385085" lon="-5.701759">
        <time>2012-05-29T11:30:02Z</time>
      </trkpt>
      <trkpt lat="43.385085" lon="-5.701759">
        <time>2012-05-29T11:30:27Z</time>
      </trkpt>
    </trkseg>
    <trkseg>
      <trkpt lat="43.385085" lon="-5.701759">
        <time>2012-05-29T11:30:34Z</time>
      </trkpt>
      <trkpt lat="43.385085" lon="-5.701759">
        <time>2012-05-29T11:30:48Z</time>
      </trkpt>
    </trkseg>
    <trkseg>
      <trkpt lat="43.385085" lon="-5.701759">
        <time>2012-05-29T11:31:03Z</time>
      </trkpt>
      <trkpt lat="43.385085" lon="-5.701759">
        <time>2012-05-29T11:31:16Z</time>
      </trkpt>
    </trkseg>
    <trkseg>
      <trkpt lat="43.385085" lon="-5.701759">
        <time>2012-05-29T11:31:22Z</time>
      </trkpt>
      <trkpt lat="43.385085" lon="-5.701759">
        <time>2012-05-29T11:31:45Z</time>
      </trkpt>
    </trkseg>
    <trkseg>
      <trkpt lat="43.385085" lon="-5.701759">
        <time>2012-05-29T11:31:53Z</time>
      </trkpt>
      <trkpt lat="43.385085" lon="-5.701759">
        <time>2012-05-29T11:32:08Z</time>
      </trkpt>
    </trkseg>
    <trkseg>
      <trkpt lat="43.385085" lon="-5.701759">
        <time>2012-05-29T11:32:12Z</time>
      </trkpt>
      <trkpt lat="43.385085" lon="-5.701759">
        <time>2012-05-29T11:32:25Z</time>
      </trkpt>
    </trkseg>
    <trkseg>
      <trkpt lat="43.385085" lon="-5.701759">
        <time>2012-05-29T11:32:34Z</time>
      </trkpt>
      <trkpt lat="43.385085" lon="-5.701759">
        <time>2012-05-29T11:32:50Z</time>
      </trkpt>
    </trkseg>
    <trkseg>
      <trkpt lat="43.385085" lon="-5.701759">
        <time>2012-05-29T11:33:05Z</time>
      </trkpt>
      <trkpt lat="43.385085" lon="-5.701759">
        <time>2012-05-29T11:33:18Z</time>
      </trkpt>
    </trkseg>
    <trkseg>
      <trkpt lat="43.385085" lon="-5.701759">
        <time>2012-05-29T11:33:40Z</time>
      </trkpt>
      <trkpt lat="43.385085" lon="-5.701759">
        <time>2012-05-29T11:34:10Z</time>
      </trkpt>
    </trkseg>
    <trkseg>
      <trkpt lat="43.385085" lon="-5.701759">
        <time>2012-05-29T11:34:22Z</time>
      </trkpt>
      <trkpt lat="43.385085" lon="-5.701759">
        <time>2012-05-29T11:34:35Z</time>
      </trkpt>
    </trkseg>
    <trkseg>
      <trkpt lat="43.385085" lon="-5.701759">
        <time>2012-05-29T11:34:58Z</time>
      </trkpt>
      <trkpt lat="43.385085" lon="-5.701759">
        <time>2012-05-29T11:35:24Z</time>
      </trkpt>
    </trkseg>
    <trkseg>
      <trkpt lat="43.385085" lon="-5.701759">
        <time>2012-05-29T11:35:30Z</time>
      </trkpt>
      <trkpt lat="43.385085" lon="-5.701759">
        <time>2012-05-29T11:36:19Z</time>
      </trkpt>
    </trkseg>
    <trkseg>
      <trkpt lat="43.385085" lon="-5.701759">
        <time>2012-05-29T11:36:27Z</time>
      </trkpt>
      <trkpt lat="43.385085" lon="-5.701759">
        <time>2012-05-29T11:36:50Z</time>
      </trkpt>
    </trkseg>
    <trkseg>
      <trkpt lat="43.385085" lon="-5.701759">
        <time>2012-05-29T11:37:19Z</time>
      </trkpt>
      <trkpt lat="43.385085" lon="-5.701759">
        <time>2012-05-29T11:37:31Z</time>
      </trkpt>
    </trkseg>
    <trkseg>
      <trkpt lat="43.385085" lon="-5.701759">
        <time>2012-05-29T11:37:41Z</time>
      </trkpt>
      <trkpt lat="43.385085" lon="-5.701759">
        <time>2012-05-29T11:38:01Z</time>
      </trkpt>
    </trkseg>
    <trkseg>
      <trkpt lat="43.385085" lon="-5.701759">
        <time>2012-05-29T11:38:04Z</time>
      </trkpt>
      <trkpt lat="43.385085" lon="-5.701759">
        <time>2012-05-29T11:38:42Z</time>
      </trkpt>
    </trkseg>
    <trkseg>
      <trkpt lat="43.385085" lon="-5.701759">
        <time>2012-05-29T11:39:35Z</time>
      </trkpt>
      <trkpt lat="43.385085" lon="-5.701759">
        <time>2012-05-29T11:39:51Z</time>
      </trkpt>
    </trkseg>
    <trkseg>
      <trkpt lat="43.385085" lon="-5.701759">
        <time>2012-05-29T11:39:56Z</time>
      </trkpt>
      <trkpt lat="43.385085" lon="-5.701759">
        <time>2012-05-29T11:40:10Z</time>
      </trkpt>
    </trkseg>
    <trkseg>
      <trkpt lat="43.385085" lon="-5.701759">
        <time>2012-05-29T11:40:12Z</time>
      </trkpt>
      <trkpt lat="43.385085" lon="-5.701759">
        <time>2012-05-29T11:40:24Z</time>
      </trkpt>
    </trkseg>
    <trkseg>
      <trkpt lat="43.385085" lon="-5.701759">
        <time>2012-05-29T11:40:48Z</time>
      </trkpt>
      <trkpt lat="43.385122" lon="-5.701838">
        <ele>277.0</ele>
        <time>2012-05-29T11:41:01Z</time>
      </trkpt>
      <trkpt lat="43.384979" lon="-5.701606">
        <ele>277.0</ele>
        <time>2012-05-29T11:41:05Z</time>
      </trkpt>
      <trkpt lat="43.384979" lon="-5.701606">
        <time>2012-05-29T11:41:16Z</time>
      </trkpt>
    </trkseg>
    <trkseg>
      <trkpt lat="43.384979" lon="-5.701606">
        <time>2012-05-29T11:41:17Z</time>
      </trkpt>
      <trkpt lat="43.384979" lon="-5.701606">
        <time>2012-05-29T11:41:28Z</time>
      </trkpt>
    </trkseg>
    <trkseg>
      <trkpt lat="43.384979" lon="-5.701606">
        <time>2012-05-29T11:41:38Z</time>
      </trkpt>
      <trkpt lat="43.384979" lon="-5.701606">
        <time>2012-05-29T11:41:49Z</time>
      </trkpt>
    </trkseg>
    <trkseg>
      <trkpt lat="43.384979" lon="-5.701606">
        <time>2012-05-29T11:41:50Z</time>
      </trkpt>
      <trkpt lat="43.385154" lon="-5.701502">
        <ele>278.0</ele>
        <time>2012-05-29T11:41:53Z</time>
      </trkpt>
      <trkpt lat="43.38519" lon="-5.701215">
        <ele>281.0</ele>
        <time>2012-05-29T11:41:57Z</time>
      </trkpt>
      <trkpt lat="43.385224" lon="-5.700891">
        <ele>282.0</ele>
        <time>2012-05-29T11:42:01Z</time>
      </trkpt>
      <trkpt lat="43.385242" lon="-5.700725">
        <ele>283.0</ele>
        <time>2012-05-29T11:42:03Z</time>
      </trkpt>
      <trkpt lat="43.385288" lon="-5.700245">
        <ele>283.0</ele>
        <time>2012-05-29T11:42:09Z</time>
      </trkpt>
      <trkpt lat="43.385319" lon="-5.699935">
        <ele>284.0</ele>
        <time>2012-05-29T11:42:13Z</time>
      </trkpt>
      <trkpt lat="43.385354" lon="-5.699651">
        <ele>284.0</ele>
        <time>2012-05-29T11:42:17Z</time>
      </trkpt>
      <trkpt lat="43.385365" lon="-5.699397">
        <ele>284.0</ele>
        <time>2012-05-29T11:42:21Z</time>
      </trkpt>
      <trkpt lat="43.385388" lon="-5.698947">
        <ele>284.0</ele>
        <time>2012-05-29T11:42:29Z</time>
      </trkpt>
      <trkpt lat="43.385399" lon="-5.698735">
        <ele>284.0</ele>
        <time>2012-05-29T11:42:33Z</time>
      </trkpt>
      <trkpt lat="43.385409" lon="-5.698539">
        <ele>284.0</ele>
        <time>2012-05-29T11:42:37Z</time>
      </trkpt>
      <trkpt lat="43.385437" lon="-5.69834">
        <ele>284.0</ele>
        <time>2012-05-29T11:42:41Z</time>
      </trkpt>
      <trkpt lat="43.385461" lon="-5.698133">
        <ele>285.0</ele>
        <time>2012-05-29T11:42:45Z</time>
      </trkpt>
      <trkpt lat="43.385429" lon="-5.697927">
        <ele>285.0</ele>
        <time>2012-05-29T11:42:50Z</time>
      </trkpt>
      <trkpt lat="43.385428" lon="-5.697682">
        <ele>288.0</ele>
        <time>2012-05-29T11:42:54Z</time>
      </trkpt>
      <trkpt lat="43.385416" lon="-5.697442">
        <ele>290.0</ele>
        <time>2012-05-29T11:42:58Z</time>
      </trkpt>
      <trkpt lat="43.385392" lon="-5.697211">
        <ele>290.0</ele>
        <time>2012-05-29T11:43:02Z</time>
      </trkpt>
      <trkpt lat="43.385371" lon="-5.696982">
        <ele>291.0</ele>
        <time>2012-05-29T11:43:06Z</time>
      </trkpt>
      <trkpt lat="43.385356" lon="-5.696735">
        <ele>291.0</ele>
        <time>2012-05-29T11:43:10Z</time>
      </trkpt>
      <trkpt lat="43.385348" lon="-5.696472">
        <ele>291.0</ele>
        <time>2012-05-29T11:43:14Z</time>
      </trkpt>
      <trkpt lat="43.385336" lon="-5.696177">
        <ele>291.0</ele>
        <time>2012-05-29T11:43:18Z</time>
      </trkpt>
      <trkpt lat="43.385329" lon="-5.695889">
        <ele>290.0</ele>
        <time>2012-05-29T11:43:22Z</time>
      </trkpt>
      <trkpt lat="43.385324" lon="-5.695608">
        <ele>290.0</ele>
        <time>2012-05-29T11:43:26Z</time>
      </trkpt>
      <trkpt lat="43.38533" lon="-5.69533">
        <ele>289.0</ele>
        <time>2012-05-29T11:43:30Z</time>
      </trkpt>
      <trkpt lat="43.385338" lon="-5.695049">
        <ele>289.0</ele>
        <time>2012-05-29T11:43:34Z</time>
      </trkpt>
      <trkpt lat="43.385341" lon="-5.694773">
        <ele>289.0</ele>
        <time>2012-05-29T11:43:38Z</time>
      </trkpt>
      <trkpt lat="43.385342" lon="-5.69464">
        <ele>289.0</ele>
        <time>2012-05-29T11:43:40Z</time>
      </trkpt>
      <trkpt lat="43.385342" lon="-5.694235">
        <ele>290.0</ele>
        <time>2012-05-29T11:43:46Z</time>
      </trkpt>
      <trkpt lat="43.385351" lon="-5.693982">
        <ele>290.0</ele>
        <time>2012-05-29T11:43:50Z</time>
      </trkpt>
      <trkpt lat="43.385363" lon="-5.693722">
        <ele>291.0</ele>
        <time>2012-05-29T11:43:54Z</time>
      </trkpt>
      <trkpt lat="43.385368" lon="-5.693588">
        <ele>291.0</ele>
        <time>2012-05-29T11:43:56Z</time>
      </trkpt>
      <trkpt lat="43.385411" lon="-5.693176">
        <ele>291.0</ele>
        <time>2012-05-29T11:44:02Z</time>
      </trkpt>
      <trkpt lat="43.38547" lon="-5.692868">
        <ele>291.0</ele>
        <time>2012-05-29T11:44:06Z</time>
      </trkpt>
      <trkpt lat="43.385542" lon="-5.692571">
        <ele>291.0</ele>
        <time>2012-05-29T11:44:10Z</time>
      </trkpt>
      <trkpt lat="43.38563" lon="-5.69227">
        <ele>290.0</ele>
        <time>2012-05-29T11:44:14Z</time>
      </trkpt>
      <trkpt lat="43.385715" lon="-5.691966">
        <ele>290.0</ele>
        <time>2012-05-29T11:44:18Z</time>
      </trkpt>
      <trkpt lat="43.385816" lon="-5.691648">
        <ele>289.0</ele>
        <time>2012-05-29T11:44:22Z</time>
      </trkpt>
      <trkpt lat="43.385913" lon="-5.691312">
        <ele>288.0</ele>
        <time>2012-05-29T11:44:26Z</time>
      </trkpt>
      <trkpt lat="43.386006" lon="-5.690985">
        <ele>288.0</ele>
        <time>2012-05-29T11:44:30Z</time>
      </trkpt>
      <trkpt lat="43.3861" lon="-5.690651">
        <ele>287.0</ele>
        <time>2012-05-29T11:44:34Z</time>
      </trkpt>
      <trkpt lat="43.386199" lon="-5.690313">
        <ele>287.0</ele>
        <time>2012-05-29T11:44:38Z</time>
      </trkpt>
      <trkpt lat="43.38625" lon="-5.690146">
        <ele>287.0</ele>
        <time>2012-05-29T11:44:40Z</time>
      </trkpt>
      <trkpt lat="43.386406" lon="-5.689629">
        <ele>287.0</ele>
        <time>2012-05-29T11:44:46Z</time>
      </trkpt>
      <trkpt lat="43.3865" lon="-5.689264">
        <ele>286.0</ele>
        <time>2012-05-29T11:44:50Z</time>
      </trkpt>
      <trkpt lat="43.386588" lon="-5.688883">
        <ele>286.0</ele>
        <time>2012-05-29T11:44:54Z</time>
      </trkpt>
      <trkpt lat="43.386672" lon="-5.688506">
        <ele>286.0</ele>
        <time>2012-05-29T11:44:58Z</time>
      </trkpt>
      <trkpt lat="43.386759" lon="-5.68814">
        <ele>286.0</ele>
        <time>2012-05-29T11:45:02Z</time>
      </trkpt>
      <trkpt lat="43.386856" lon="-5.687791">
        <ele>286.0</ele>
        <time>2012-05-29T11:45:06Z</time>
      </trkpt>
      <trkpt lat="43.386935" lon="-5.687429">
        <ele>285.0</ele>
        <time>2012-05-29T11:45:10Z</time>
      </trkpt>
      <trkpt lat="43.386991" lon="-5.687055">
        <ele>284.0</ele>
        <time>2012-05-29T11:45:14Z</time>
      </trkpt>
      <trkpt lat="43.387023" lon="-5.686679">
        <ele>284.0</ele>
        <time>2012-05-29T11:45:18Z</time>
      </trkpt>
      <trkpt lat="43.387038" lon="-5.686307">
        <ele>284.0</ele>
        <time>2012-05-29T11:45:22Z</time>
      </trkpt>
      <trkpt lat="43.387053" lon="-5.685933">
        <ele>284.0</ele>
        <time>2012-05-29T11:45:26Z</time>
      </trkpt>
      <trkpt lat="43.387067" lon="-5.685548">
        <ele>284.0</ele>
        <time>2012-05-29T11:45:30Z</time>
      </trkpt>
      <trkpt lat="43.38708" lon="-5.685143">
        <ele>283.0</ele>
        <time>2012-05-29T11:45:34Z</time>
      </trkpt>
      <trkpt lat="43.387101" lon="-5.684738">
        <ele>283.0</ele>
        <time>2012-05-29T11:45:38Z</time>
      </trkpt>
      <trkpt lat="43.387125" lon="-5.68431">
        <ele>283.0</ele>
        <time>2012-05-29T11:45:42Z</time>
      </trkpt>
      <trkpt lat="43.387156" lon="-5.683857">
        <ele>283.0</ele>
        <time>2012-05-29T11:45:46Z</time>
      </trkpt>
      <trkpt lat="43.387173" lon="-5.6834">
        <ele>282.0</ele>
        <time>2012-05-29T11:45:50Z</time>
      </trkpt>
      <trkpt lat="43.387193" lon="-5.682949">
        <ele>282.0</ele>
        <time>2012-05-29T11:45:54Z</time>
      </trkpt>
      <trkpt lat="43.38721" lon="-5.682507">
        <ele>282.0</ele>
        <time>2012-05-29T11:45:58Z</time>
      </trkpt>
      <trkpt lat="43.38723" lon="-5.682071">
        <ele>281.0</ele>
        <time>2012-05-29T11:46:02Z</time>
      </trkpt>
      <trkpt lat="43.387255" lon="-5.681656">
        <ele>282.0</ele>
        <time>2012-05-29T11:46:06Z</time>
      </trkpt>
      <trkpt lat="43.387283" lon="-5.681262">
        <ele>282.0</ele>
        <time>2012-05-29T11:46:10Z</time>
      </trkpt>
      <trkpt lat="43.387306" lon="-5.680873">
        <ele>282.0</ele>
        <time>2012-05-29T11:46:14Z</time>
      </trkpt>
      <trkpt lat="43.387315" lon="-5.680483">
        <ele>282.0</ele>
        <time>2012-05-29T11:46:18Z</time>
      </trkpt>
      <trkpt lat="43.387337" lon="-5.680112">
        <ele>282.0</ele>
        <time>2012-05-29T11:46:22Z</time>
      </trkpt>
      <trkpt lat="43.387354" lon="-5.679849">
        <ele>282.0</ele>
        <time>2012-05-29T11:46:25Z</time>
      </trkpt>
      <trkpt lat="43.387382" lon="-5.679418">
        <ele>283.0</ele>
        <time>2012-05-29T11:46:30Z</time>
      </trkpt>
      <trkpt lat="43.387413" lon="-5.679071">
        <ele>283.0</ele>
        <time>2012-05-29T11:46:34Z</time>
      </trkpt>
      <trkpt lat="43.387427" lon="-5.678897">
        <ele>283.0</ele>
        <time>2012-05-29T11:46:36Z</time>
      </trkpt>
      <trkpt lat="43.387458" lon="-5.678384">
        <ele>283.0</ele>
        <time>2012-05-29T11:46:42Z</time>
      </trkpt>
      <trkpt lat="43.387485" lon="-5.678071">
        <ele>283.0</ele>
        <time>2012-05-29T11:46:46Z</time>
      </trkpt>
      <trkpt lat="43.387499" lon="-5.67792">
        <ele>283.0</ele>
        <time>2012-05-29T11:46:48Z</time>
      </trkpt>
      <trkpt lat="43.387553" lon="-5.677469">
        <ele>283.0</ele>
        <time>2012-05-29T11:46:54Z</time>
      </trkpt>
      <trkpt lat="43.387578" lon="-5.677324">
        <ele>283.0</ele>
        <time>2012-05-29T11:46:56Z</time>
      </trkpt>
      <trkpt lat="43.38768" lon="-5.676886">
        <ele>282.0</ele>
        <time>2012-05-29T11:47:02Z</time>
      </trkpt>
      <trkpt lat="43.387761" lon="-5.676594">
        <ele>282.0</ele>
        <time>2012-05-29T11:47:06Z</time>
      </trkpt>
      <trkpt lat="43.387843" lon="-5.676312">
        <ele>282.0</ele>
        <time>2012-05-29T11:47:10Z</time>
      </trkpt>
      <trkpt lat="43.387929" lon="-5.676022">
        <ele>282.0</ele>
        <time>2012-05-29T11:47:14Z</time>
      </trkpt>
      <trkpt lat="43.388032" lon="-5.675731">
        <ele>283.0</ele>
        <time>2012-05-29T11:47:18Z</time>
      </trkpt>
      <trkpt lat="43.38814" lon="-5.67544">
        <ele>283.0</ele>
        <time>2012-05-29T11:47:22Z</time>
      </trkpt>
      <trkpt lat="43.388198" lon="-5.675296">
        <ele>284.0</ele>
        <time>2012-05-29T11:47:24Z</time>
      </trkpt>
      <trkpt lat="43.388386" lon="-5.674837">
        <ele>284.0</ele>
        <time>2012-05-29T11:47:30Z</time>
      </trkpt>
      <trkpt lat="43.388519" lon="-5.674511">
        <ele>285.0</ele>
        <time>2012-05-29T11:47:34Z</time>
      </trkpt>
      <trkpt lat="43.388655" lon="-5.674176">
        <ele>284.0</ele>
        <time>2012-05-29T11:47:38Z</time>
      </trkpt>
      <trkpt lat="43.388729" lon="-5.673999">
        <ele>284.0</ele>
        <time>2012-05-29T11:47:40Z</time>
      </trkpt>
      <trkpt lat="43.388952" lon="-5.673456">
        <ele>283.0</ele>
        <time>2012-05-29T11:47:46Z</time>
      </trkpt>
      <trkpt lat="43.389104" lon="-5.673084">
        <ele>283.0</ele>
        <time>2012-05-29T11:47:50Z</time>
      </trkpt>
      <trkpt lat="43.389259" lon="-5.672728">
        <ele>282.0</ele>
        <time>2012-05-29T11:47:54Z</time>
      </trkpt>
      <trkpt lat="43.389406" lon="-5.672373">
        <ele>282.0</ele>
        <time>2012-05-29T11:47:58Z</time>
      </trkpt>
      <trkpt lat="43.389548" lon="-5.672023">
        <ele>282.0</ele>
        <time>2012-05-29T11:48:02Z</time>
      </trkpt>
      <trkpt lat="43.389675" lon="-5.671663">
        <ele>281.0</ele>
        <time>2012-05-29T11:48:06Z</time>
      </trkpt>
      <trkpt lat="43.389787" lon="-5.671298">
        <ele>281.0</ele>
        <time>2012-05-29T11:48:10Z</time>
      </trkpt>
      <trkpt lat="43.389852" lon="-5.671019">
        <ele>282.0</ele>
        <time>2012-05-29T11:48:13Z</time>
      </trkpt>
      <trkpt lat="43.389919" lon="-5.67053">
        <ele>281.0</ele>
        <time>2012-05-29T11:48:18Z</time>
      </trkpt>
      <trkpt lat="43.389933" lon="-5.670124">
        <ele>281.0</ele>
        <time>2012-05-29T11:48:22Z</time>
      </trkpt>
      <trkpt lat="43.389925" lon="-5.669713">
        <ele>281.0</ele>
        <time>2012-05-29T11:48:26Z</time>
      </trkpt>
      <trkpt lat="43.389905" lon="-5.669299">
        <ele>280.0</ele>
        <time>2012-05-29T11:48:30Z</time>
      </trkpt>
      <trkpt lat="43.389896" lon="-5.668892">
        <ele>280.0</ele>
        <time>2012-05-29T11:48:34Z</time>
      </trkpt>
      <trkpt lat="43.389866" lon="-5.668492">
        <ele>280.0</ele>
        <time>2012-05-29T11:48:38Z</time>
      </trkpt>
      <trkpt lat="43.38975" lon="-5.668114">
        <ele>281.0</ele>
        <time>2012-05-29T11:48:42Z</time>
      </trkpt>
      <trkpt lat="43.389599" lon="-5.667919">
        <ele>282.0</ele>
        <time>2012-05-29T11:48:45Z</time>
      </trkpt>
      <trkpt lat="43.389323" lon="-5.667631">
        <ele>281.0</ele>
        <time>2012-05-29T11:48:50Z</time>
      </trkpt>
      <trkpt lat="43.389325" lon="-5.667348">
        <ele>281.0</ele>
        <time>2012-05-29T11:48:53Z</time>
      </trkpt>
      <trkpt lat="43.389568" lon="-5.667094">
        <ele>281.0</ele>
        <time>2012-05-29T11:48:58Z</time>
      </trkpt>
      <trkpt lat="43.389742" lon="-5.667385">
        <ele>282.0</ele>
        <time>2012-05-29T11:49:02Z</time>
      </trkpt>
      <trkpt lat="43.389788" lon="-5.667772">
        <ele>282.0</ele>
        <time>2012-05-29T11:49:06Z</time>
      </trkpt>
      <trkpt lat="43.389846" lon="-5.668154">
        <ele>281.0</ele>
        <time>2012-05-29T11:49:10Z</time>
      </trkpt>
      <trkpt lat="43.389875" lon="-5.668438">
        <ele>281.0</ele>
        <time>2012-05-29T11:49:13Z</time>
      </trkpt>
      <trkpt lat="43.389908" lon="-5.668917">
        <ele>279.0</ele>
        <time>2012-05-29T11:49:18Z</time>
      </trkpt>
      <trkpt lat="43.389923" lon="-5.66931">
        <ele>279.0</ele>
        <time>2012-05-29T11:49:22Z</time>
      </trkpt>
      <trkpt lat="43.389944" lon="-5.669712">
        <ele>279.0</ele>
        <time>2012-05-29T11:49:26Z</time>
      </trkpt>
      <trkpt lat="43.389952" lon="-5.670116">
        <ele>279.0</ele>
        <time>2012-05-29T11:49:30Z</time>
      </trkpt>
      <trkpt lat="43.389947" lon="-5.670517">
        <ele>279.0</ele>
        <time>2012-05-29T11:49:34Z</time>
      </trkpt>
      <trkpt lat="43.389924" lon="-5.67092">
        <ele>279.0</ele>
        <time>2012-05-29T11:49:38Z</time>
      </trkpt>
      <trkpt lat="43.389858" lon="-5.671291">
        <ele>279.0</ele>
        <time>2012-05-29T11:49:42Z</time>
      </trkpt>
      <trkpt lat="43.38977" lon="-5.671644">
        <ele>280.0</ele>
        <time>2012-05-29T11:49:46Z</time>
      </trkpt>
      <trkpt lat="43.389658" lon="-5.671977">
        <ele>280.0</ele>
        <time>2012-05-29T11:49:50Z</time>
      </trkpt>
      <trkpt lat="43.38953" lon="-5.672312">
        <ele>280.0</ele>
        <time>2012-05-29T11:49:54Z</time>
      </trkpt>
      <trkpt lat="43.389393" lon="-5.672641">
        <ele>280.0</ele>
        <time>2012-05-29T11:49:58Z</time>
      </trkpt>
      <trkpt lat="43.389255" lon="-5.672965">
        <ele>280.0</ele>
        <time>2012-05-29T11:50:02Z</time>
      </trkpt>
      <trkpt lat="43.389125" lon="-5.673299">
        <ele>279.0</ele>
        <time>2012-05-29T11:50:06Z</time>
      </trkpt>
      <trkpt lat="43.388989" lon="-5.673616">
        <ele>279.0</ele>
        <time>2012-05-29T11:50:10Z</time>
      </trkpt>
      <trkpt lat="43.388858" lon="-5.673934">
        <ele>279.0</ele>
        <time>2012-05-29T11:50:14Z</time>
      </trkpt>
      <trkpt lat="43.388724" lon="-5.674242">
        <ele>280.0</ele>
        <time>2012-05-29T11:50:18Z</time>
      </trkpt>
      <trkpt lat="43.388626" lon="-5.674469">
        <ele>280.0</ele>
        <time>2012-05-29T11:50:21Z</time>
      </trkpt>
      <trkpt lat="43.388467" lon="-5.674848">
        <ele>280.0</ele>
        <time>2012-05-29T11:50:26Z</time>
      </trkpt>
      <trkpt lat="43.388343" lon="-5.675161">
        <ele>280.0</ele>
        <time>2012-05-29T11:50:30Z</time>
      </trkpt>
      <trkpt lat="43.388223" lon="-5.675484">
        <ele>280.0</ele>
        <time>2012-05-29T11:50:34Z</time>
      </trkpt>
      <trkpt lat="43.388097" lon="-5.675822">
        <ele>279.0</ele>
        <time>2012-05-29T11:50:38Z</time>
      </trkpt>
      <trkpt lat="43.387966" lon="-5.676172">
        <ele>279.0</ele>
        <time>2012-05-29T11:50:42Z</time>
      </trkpt>
      <trkpt lat="43.387854" lon="-5.676546">
        <ele>279.0</ele>
        <time>2012-05-29T11:50:46Z</time>
      </trkpt>
      <trkpt lat="43.387764" lon="-5.676928">
        <ele>278.0</ele>
        <time>2012-05-29T11:50:50Z</time>
      </trkpt>
      <trkpt lat="43.387688" lon="-5.677325">
        <ele>278.0</ele>
        <time>2012-05-29T11:50:54Z</time>
      </trkpt>
      <trkpt lat="43.387636" lon="-5.677748">
        <ele>278.0</ele>
        <time>2012-05-29T11:50:58Z</time>
      </trkpt>
      <trkpt lat="43.3876" lon="-5.678184">
        <ele>278.0</ele>
        <time>2012-05-29T11:51:02Z</time>
      </trkpt>
      <trkpt lat="43.387567" lon="-5.678622">
        <ele>277.0</ele>
        <time>2012-05-29T11:51:06Z</time>
      </trkpt>
      <trkpt lat="43.387538" lon="-5.679062">
        <ele>277.0</ele>
        <time>2012-05-29T11:51:10Z</time>
      </trkpt>
      <trkpt lat="43.387504" lon="-5.679495">
        <ele>276.0</ele>
        <time>2012-05-29T11:51:14Z</time>
      </trkpt>
      <trkpt lat="43.387478" lon="-5.679926">
        <ele>276.0</ele>
        <time>2012-05-29T11:51:18Z</time>
      </trkpt>
      <trkpt lat="43.387451" lon="-5.680357">
        <ele>276.0</ele>
        <time>2012-05-29T11:51:22Z</time>
      </trkpt>
      <trkpt lat="43.387418" lon="-5.680784">
        <ele>276.0</ele>
        <time>2012-05-29T11:51:26Z</time>
      </trkpt>
      <trkpt lat="43.387384" lon="-5.681207">
        <ele>276.0</ele>
        <time>2012-05-29T11:51:30Z</time>
      </trkpt>
      <trkpt lat="43.387368" lon="-5.681415">
        <ele>276.0</ele>
        <time>2012-05-29T11:51:32Z</time>
      </trkpt>
      <trkpt lat="43.387329" lon="-5.682036">
        <ele>276.0</ele>
        <time>2012-05-29T11:51:38Z</time>
      </trkpt>
      <trkpt lat="43.387315" lon="-5.682236">
        <ele>276.0</ele>
        <time>2012-05-29T11:51:40Z</time>
      </trkpt>
      <trkpt lat="43.387275" lon="-5.682825">
        <ele>276.0</ele>
        <time>2012-05-29T11:51:46Z</time>
      </trkpt>
      <trkpt lat="43.387252" lon="-5.68323">
        <ele>276.0</ele>
        <time>2012-05-29T11:51:50Z</time>
      </trkpt>
      <trkpt lat="43.387236" lon="-5.683619">
        <ele>276.0</ele>
        <time>2012-05-29T11:51:54Z</time>
      </trkpt>
      <trkpt lat="43.38722" lon="-5.683989">
        <ele>276.0</ele>
        <time>2012-05-29T11:51:58Z</time>
      </trkpt>
      <trkpt lat="43.387205" lon="-5.684353">
        <ele>275.0</ele>
        <time>2012-05-29T11:52:02Z</time>
      </trkpt>
      <trkpt lat="43.38719" lon="-5.684702">
        <ele>275.0</ele>
        <time>2012-05-29T11:52:06Z</time>
      </trkpt>
      <trkpt lat="43.387168" lon="-5.685047">
        <ele>275.0</ele>
        <time>2012-05-29T11:52:10Z</time>
      </trkpt>
      <trkpt lat="43.387149" lon="-5.685391">
        <ele>275.0</ele>
        <time>2012-05-29T11:52:14Z</time>
      </trkpt>
      <trkpt lat="43.387137" lon="-5.685745">
        <ele>275.0</ele>
        <time>2012-05-29T11:52:18Z</time>
      </trkpt>
      <trkpt lat="43.387119" lon="-5.686107">
        <ele>275.0</ele>
        <time>2012-05-29T11:52:22Z</time>
      </trkpt>
      <trkpt lat="43.387102" lon="-5.686478">
        <ele>275.0</ele>
        <time>2012-05-29T11:52:26Z</time>
      </trkpt>
      <trkpt lat="43.387081" lon="-5.686863">
        <ele>275.0</ele>
        <time>2012-05-29T11:52:30Z</time>
      </trkpt>
      <trkpt lat="43.387057" lon="-5.687249">
        <ele>274.0</ele>
        <time>2012-05-29T11:52:34Z</time>
      </trkpt>
      <trkpt lat="43.387015" lon="-5.687638">
        <ele>275.0</ele>
        <time>2012-05-29T11:52:38Z</time>
      </trkpt>
      <trkpt lat="43.386936" lon="-5.688022">
        <ele>275.0</ele>
        <time>2012-05-29T11:52:42Z</time>
      </trkpt>
      <trkpt lat="43.386844" lon="-5.688398">
        <ele>275.0</ele>
        <time>2012-05-29T11:52:46Z</time>
      </trkpt>
      <trkpt lat="43.386777" lon="-5.688679">
        <ele>275.0</ele>
        <time>2012-05-29T11:52:49Z</time>
      </trkpt>
      <trkpt lat="43.386711" lon="-5.688962">
        <ele>275.0</ele>
        <time>2012-05-29T11:52:52Z</time>
      </trkpt>
      <trkpt lat="43.386554" lon="-5.689488">
        <ele>275.0</ele>
        <time>2012-05-29T11:52:58Z</time>
      </trkpt>
      <trkpt lat="43.386452" lon="-5.689832">
        <ele>274.0</ele>
        <time>2012-05-29T11:53:02Z</time>
      </trkpt>
      <trkpt lat="43.386358" lon="-5.690176">
        <ele>274.0</ele>
        <time>2012-05-29T11:53:06Z</time>
      </trkpt>
      <trkpt lat="43.386266" lon="-5.690522">
        <ele>274.0</ele>
        <time>2012-05-29T11:53:10Z</time>
      </trkpt>
      <trkpt lat="43.386173" lon="-5.690864">
        <ele>274.0</ele>
        <time>2012-05-29T11:53:14Z</time>
      </trkpt>
      <trkpt lat="43.38608" lon="-5.691201">
        <ele>275.0</ele>
        <time>2012-05-29T11:53:18Z</time>
      </trkpt>
      <trkpt lat="43.38601" lon="-5.691448">
        <ele>275.0</ele>
        <time>2012-05-29T11:53:21Z</time>
      </trkpt>
      <trkpt lat="43.385926" lon="-5.691769">
        <ele>276.0</ele>
        <time>2012-05-29T11:53:25Z</time>
      </trkpt>
      <trkpt lat="43.385839" lon="-5.69208">
        <ele>276.0</ele>
        <time>2012-05-29T11:53:29Z</time>
      </trkpt>
      <trkpt lat="43.385748" lon="-5.69239">
        <ele>276.0</ele>
        <time>2012-05-29T11:53:33Z</time>
      </trkpt>
      <trkpt lat="43.385631" lon="-5.692806">
        <ele>277.0</ele>
        <time>2012-05-29T11:53:38Z</time>
      </trkpt>
      <trkpt lat="43.385543" lon="-5.693175">
        <ele>277.0</ele>
        <time>2012-05-29T11:53:42Z</time>
      </trkpt>
      <trkpt lat="43.385478" lon="-5.693572">
        <ele>277.0</ele>
        <time>2012-05-29T11:53:46Z</time>
      </trkpt>
      <trkpt lat="43.385445" lon="-5.693988">
        <ele>277.0</ele>
        <time>2012-05-29T11:53:50Z</time>
      </trkpt>
      <trkpt lat="43.385429" lon="-5.694409">
        <ele>277.0</ele>
        <time>2012-05-29T11:53:54Z</time>
      </trkpt>
      <trkpt lat="43.385421" lon="-5.694852">
        <ele>276.0</ele>
        <time>2012-05-29T11:53:58Z</time>
      </trkpt>
      <trkpt lat="43.38541" lon="-5.695312">
        <ele>276.0</ele>
        <time>2012-05-29T11:54:02Z</time>
      </trkpt>
      <trkpt lat="43.385419" lon="-5.6958">
        <ele>276.0</ele>
        <time>2012-05-29T11:54:06Z</time>
      </trkpt>
      <trkpt lat="43.385477" lon="-5.696287">
        <ele>275.0</ele>
        <time>2012-05-29T11:54:10Z</time>
      </trkpt>
      <trkpt lat="43.385561" lon="-5.696765">
        <ele>275.0</ele>
        <time>2012-05-29T11:54:14Z</time>
      </trkpt>
      <trkpt lat="43.385656" lon="-5.697228">
        <ele>275.0</ele>
        <time>2012-05-29T11:54:18Z</time>
      </trkpt>
      <trkpt lat="43.385745" lon="-5.69768">
        <ele>275.0</ele>
        <time>2012-05-29T11:54:22Z</time>
      </trkpt>
      <trkpt lat="43.385832" lon="-5.698133">
        <ele>275.0</ele>
        <time>2012-05-29T11:54:26Z</time>
      </trkpt>
      <trkpt lat="43.385914" lon="-5.698588">
        <ele>275.0</ele>
        <time>2012-05-29T11:54:30Z</time>
      </trkpt>
      <trkpt lat="43.38598" lon="-5.699043">
        <ele>275.0</ele>
        <time>2012-05-29T11:54:34Z</time>
      </trkpt>
      <trkpt lat="43.386042" lon="-5.699488">
        <ele>275.0</ele>
        <time>2012-05-29T11:54:38Z</time>
      </trkpt>
      <trkpt lat="43.386089" lon="-5.699903">
        <ele>276.0</ele>
        <time>2012-05-29T11:54:42Z</time>
      </trkpt>
      <trkpt lat="43.386077" lon="-5.700321">
        <ele>275.0</ele>
        <time>2012-05-29T11:54:46Z</time>
      </trkpt>
      <trkpt lat="43.386061" lon="-5.700732">
        <ele>275.0</ele>
        <time>2012-05-29T11:54:50Z</time>
      </trkpt>
      <trkpt lat="43.386033" lon="-5.701022">
        <ele>275.0</ele>
        <time>2012-05-29T11:54:53Z</time>
      </trkpt>
      <trkpt lat="43.386013" lon="-5.701294">
        <ele>275.0</ele>
        <time>2012-05-29T11:54:57Z</time>
      </trkpt>
      <trkpt lat="43.385989" lon="-5.701511">
        <ele>274.0</ele>
        <time>2012-05-29T11:55:04Z</time>
      </trkpt>
      <trkpt lat="43.385956" lon="-5.701781">
        <ele>275.0</ele>
        <time>2012-05-29T11:55:09Z</time>
      </trkpt>
      <trkpt lat="43.385905" lon="-5.702187">
        <ele>274.0</ele>
        <time>2012-05-29T11:55:14Z</time>
      </trkpt>
      <trkpt lat="43.38586" lon="-5.70257">
        <ele>274.0</ele>
        <time>2012-05-29T11:55:18Z</time>
      </trkpt>
      <trkpt lat="43.385819" lon="-5.702945">
        <ele>274.0</ele>
        <time>2012-05-29T11:55:22Z</time>
      </trkpt>
      <trkpt lat="43.385768" lon="-5.703304">
        <ele>274.0</ele>
        <time>2012-05-29T11:55:26Z</time>
      </trkpt>
      <trkpt lat="43.385688" lon="-5.703649">
        <ele>275.0</ele>
        <time>2012-05-29T11:55:30Z</time>
      </trkpt>
      <trkpt lat="43.385591" lon="-5.703977">
        <ele>275.0</ele>
        <time>2012-05-29T11:55:34Z</time>
      </trkpt>
      <trkpt lat="43.385491" lon="-5.704302">
        <ele>275.0</ele>
        <time>2012-05-29T11:55:38Z</time>
      </trkpt>
      <trkpt lat="43.38538" lon="-5.704618">
        <ele>275.0</ele>
        <time>2012-05-29T11:55:42Z</time>
      </trkpt>
      <trkpt lat="43.385271" lon="-5.704935">
        <ele>275.0</ele>
        <time>2012-05-29T11:55:46Z</time>
      </trkpt>
      <trkpt lat="43.385173" lon="-5.705257">
        <ele>275.0</ele>
        <time>2012-05-29T11:55:50Z</time>
      </trkpt>
      <trkpt lat="43.38507" lon="-5.705592">
        <ele>274.0</ele>
        <time>2012-05-29T11:55:54Z</time>
      </trkpt>
      <trkpt lat="43.384992" lon="-5.705856">
        <ele>274.0</ele>
        <time>2012-05-29T11:55:57Z</time>
      </trkpt>
      <trkpt lat="43.384868" lon="-5.706351">
        <ele>275.0</ele>
        <time>2012-05-29T11:56:02Z</time>
      </trkpt>
      <trkpt lat="43.384806" lon="-5.706796">
        <ele>275.0</ele>
        <time>2012-05-29T11:56:06Z</time>
      </trkpt>
      <trkpt lat="43.384797" lon="-5.707258">
        <ele>276.0</ele>
        <time>2012-05-29T11:56:10Z</time>
      </trkpt>
      <trkpt lat="43.384844" lon="-5.707727">
        <ele>276.0</ele>
        <time>2012-05-29T11:56:14Z</time>
      </trkpt>
      <trkpt lat="43.384919" lon="-5.708181">
        <ele>275.0</ele>
        <time>2012-05-29T11:56:18Z</time>
      </trkpt>
      <trkpt lat="43.384989" lon="-5.70861">
        <ele>275.0</ele>
        <time>2012-05-29T11:56:22Z</time>
      </trkpt>
      <trkpt lat="43.385066" lon="-5.709026">
        <ele>275.0</ele>
        <time>2012-05-29T11:56:26Z</time>
      </trkpt>
      <trkpt lat="43.385143" lon="-5.70943">
        <ele>275.0</ele>
        <time>2012-05-29T11:56:30Z</time>
      </trkpt>
      <trkpt lat="43.385221" lon="-5.709829">
        <ele>275.0</ele>
        <time>2012-05-29T11:56:34Z</time>
      </trkpt>
      <trkpt lat="43.385292" lon="-5.710237">
        <ele>275.0</ele>
        <time>2012-05-29T11:56:38Z</time>
      </trkpt>
      <trkpt lat="43.385362" lon="-5.710641">
        <ele>276.0</ele>
        <time>2012-05-29T11:56:42Z</time>
      </trkpt>
      <trkpt lat="43.385427" lon="-5.711031">
        <ele>276.0</ele>
        <time>2012-05-29T11:56:46Z</time>
      </trkpt>
      <trkpt lat="43.385488" lon="-5.71142">
        <ele>276.0</ele>
        <time>2012-05-29T11:56:50Z</time>
      </trkpt>
      <trkpt lat="43.385548" lon="-5.711807">
        <ele>276.0</ele>
        <time>2012-05-29T11:56:54Z</time>
      </trkpt>
      <trkpt lat="43.385603" lon="-5.712187">
        <ele>275.0</ele>
        <time>2012-05-29T11:56:58Z</time>
      </trkpt>
      <trkpt lat="43.385646" lon="-5.712559">
        <ele>275.0</ele>
        <time>2012-05-29T11:57:02Z</time>
      </trkpt>
      <trkpt lat="43.385671" lon="-5.712942">
        <ele>275.0</ele>
        <time>2012-05-29T11:57:06Z</time>
      </trkpt>
      <trkpt lat="43.385688" lon="-5.713345">
        <ele>275.0</ele>
        <time>2012-05-29T11:57:10Z</time>
      </trkpt>
      <trkpt lat="43.385705" lon="-5.713768">
        <ele>275.0</ele>
        <time>2012-05-29T11:57:14Z</time>
      </trkpt>
      <trkpt lat="43.38573" lon="-5.71421">
        <ele>275.0</ele>
        <time>2012-05-29T11:57:18Z</time>
      </trkpt>
      <trkpt lat="43.385757" lon="-5.714668">
        <ele>274.0</ele>
        <time>2012-05-29T11:57:22Z</time>
      </trkpt>
      <trkpt lat="43.38578" lon="-5.71515">
        <ele>274.0</ele>
        <time>2012-05-29T11:57:26Z</time>
      </trkpt>
      <trkpt lat="43.385813" lon="-5.715638">
        <ele>274.0</ele>
        <time>2012-05-29T11:57:30Z</time>
      </trkpt>
      <trkpt lat="43.385851" lon="-5.716108">
        <ele>274.0</ele>
        <time>2012-05-29T11:57:34Z</time>
      </trkpt>
      <trkpt lat="43.385883" lon="-5.716549">
        <ele>274.0</ele>
        <time>2012-05-29T11:57:38Z</time>
      </trkpt>
      <trkpt lat="43.385912" lon="-5.716982">
        <ele>275.0</ele>
        <time>2012-05-29T11:57:42Z</time>
      </trkpt>
      <trkpt lat="43.385948" lon="-5.717422">
        <ele>274.0</ele>
        <time>2012-05-29T11:57:46Z</time>
      </trkpt>
      <trkpt lat="43.385989" lon="-5.71786">
        <ele>274.0</ele>
        <time>2012-05-29T11:57:50Z</time>
      </trkpt>
      <trkpt lat="43.386027" lon="-5.718305">
        <ele>273.0</ele>
        <time>2012-05-29T11:57:54Z</time>
      </trkpt>
      <trkpt lat="43.386064" lon="-5.718762">
        <ele>273.0</ele>
        <time>2012-05-29T11:57:58Z</time>
      </trkpt>
      <trkpt lat="43.386094" lon="-5.719238">
        <ele>272.0</ele>
        <time>2012-05-29T11:58:02Z</time>
      </trkpt>
      <trkpt lat="43.386127" lon="-5.719721">
        <ele>272.0</ele>
        <time>2012-05-29T11:58:06Z</time>
      </trkpt>
      <trkpt lat="43.386165" lon="-5.720199">
        <ele>272.0</ele>
        <time>2012-05-29T11:58:10Z</time>
      </trkpt>
      <trkpt lat="43.386189" lon="-5.720556">
        <ele>272.0</ele>
        <time>2012-05-29T11:58:13Z</time>
      </trkpt>
      <trkpt lat="43.386231" lon="-5.72112">
        <ele>271.0</ele>
        <time>2012-05-29T11:58:18Z</time>
      </trkpt>
      <trkpt lat="43.386254" lon="-5.721535">
        <ele>271.0</ele>
        <time>2012-05-29T11:58:22Z</time>
      </trkpt>
      <trkpt lat="43.386287" lon="-5.72195">
        <ele>271.0</ele>
        <time>2012-05-29T11:58:26Z</time>
      </trkpt>
      <trkpt lat="43.38632" lon="-5.72236">
        <ele>270.0</ele>
        <time>2012-05-29T11:58:30Z</time>
      </trkpt>
      <trkpt lat="43.38634" lon="-5.722766">
        <ele>270.0</ele>
        <time>2012-05-29T11:58:34Z</time>
      </trkpt>
      <trkpt lat="43.386341" lon="-5.723166">
        <ele>270.0</ele>
        <time>2012-05-29T11:58:38Z</time>
      </trkpt>
      <trkpt lat="43.386319" lon="-5.723559">
        <ele>269.0</ele>
        <time>2012-05-29T11:58:42Z</time>
      </trkpt>
      <trkpt lat="43.386291" lon="-5.723956">
        <ele>269.0</ele>
        <time>2012-05-29T11:58:46Z</time>
      </trkpt>
      <trkpt lat="43.386252" lon="-5.724365">
        <ele>269.0</ele>
        <time>2012-05-29T11:58:50Z</time>
      </trkpt>
      <trkpt lat="43.386292" lon="-5.724668">
        <ele>269.0</ele>
        <time>2012-05-29T11:58:53Z</time>
      </trkpt>
      <trkpt lat="43.386432" lon="-5.725117">
        <ele>269.0</ele>
        <time>2012-05-29T11:58:58Z</time>
      </trkpt>
      <trkpt lat="43.386266" lon="-5.725465">
        <ele>268.0</ele>
        <time>2012-05-29T11:59:02Z</time>
      </trkpt>
      <trkpt lat="43.385968" lon="-5.725454">
        <ele>269.0</ele>
        <time>2012-05-29T11:59:06Z</time>
      </trkpt>
      <trkpt lat="43.385824" lon="-5.725475">
        <ele>270.0</ele>
        <time>2012-05-29T11:59:08Z</time>
      </trkpt>
      <trkpt lat="43.385435" lon="-5.725784">
        <ele>271.0</ele>
        <time>2012-05-29T11:59:14Z</time>
      </trkpt>
      <trkpt lat="43.385312" lon="-5.725914">
        <ele>271.0</ele>
        <time>2012-05-29T11:59:16Z</time>
      </trkpt>
      <trkpt lat="43.384911" lon="-5.726289">
        <ele>271.0</ele>
        <time>2012-05-29T11:59:22Z</time>
      </trkpt>
      <trkpt lat="43.384628" lon="-5.726527">
        <ele>270.0</ele>
        <time>2012-05-29T11:59:26Z</time>
      </trkpt>
      <trkpt lat="43.38435" lon="-5.726769">
        <ele>269.0</ele>
        <time>2012-05-29T11:59:30Z</time>
      </trkpt>
      <trkpt lat="43.384077" lon="-5.727007">
        <ele>269.0</ele>
        <time>2012-05-29T11:59:34Z</time>
      </trkpt>
      <trkpt lat="43.383868" lon="-5.727186">
        <ele>269.0</ele>
        <time>2012-05-29T11:59:37Z</time>
      </trkpt>
      <trkpt lat="43.383513" lon="-5.727469">
        <ele>269.0</ele>
        <time>2012-05-29T11:59:42Z</time>
      </trkpt>
      <trkpt lat="43.3833" lon="-5.727644">
        <ele>269.0</ele>
        <time>2012-05-29T11:59:45Z</time>
      </trkpt>
      <trkpt lat="43.382931" lon="-5.727939">
        <ele>268.0</ele>
        <time>2012-05-29T11:59:50Z</time>
      </trkpt>
      <trkpt lat="43.382783" lon="-5.728066">
        <ele>268.0</ele>
        <time>2012-05-29T11:59:52Z</time>
      </trkpt>
      <trkpt lat="43.382357" lon="-5.728487">
        <ele>267.0</ele>
        <time>2012-05-29T11:59:58Z</time>
      </trkpt>
      <trkpt lat="43.382125" lon="-5.728875">
        <ele>267.0</ele>
        <time>2012-05-29T12:00:02Z</time>
      </trkpt>
      <trkpt lat="43.381996" lon="-5.729353">
        <ele>267.0</ele>
        <time>2012-05-29T12:00:06Z</time>
      </trkpt>
      <trkpt lat="43.381947" lon="-5.729867">
        <ele>267.0</ele>
        <time>2012-05-29T12:00:10Z</time>
      </trkpt>
      <trkpt lat="43.381962" lon="-5.730366">
        <ele>267.0</ele>
        <time>2012-05-29T12:00:14Z</time>
      </trkpt>
      <trkpt lat="43.381989" lon="-5.730844">
        <ele>266.0</ele>
        <time>2012-05-29T12:00:18Z</time>
      </trkpt>
      <trkpt lat="43.382004" lon="-5.731312">
        <ele>266.0</ele>
        <time>2012-05-29T12:00:22Z</time>
      </trkpt>
      <trkpt lat="43.382005" lon="-5.731766">
        <ele>265.0</ele>
        <time>2012-05-29T12:00:26Z</time>
      </trkpt>
      <trkpt lat="43.381998" lon="-5.7322">
        <ele>264.0</ele>
        <time>2012-05-29T12:00:30Z</time>
      </trkpt>
      <trkpt lat="43.38199" lon="-5.732618">
        <ele>264.0</ele>
        <time>2012-05-29T12:00:34Z</time>
      </trkpt>
      <trkpt lat="43.38198" lon="-5.733031">
        <ele>264.0</ele>
        <time>2012-05-29T12:00:38Z</time>
      </trkpt>
      <trkpt lat="43.381971" lon="-5.733455">
        <ele>264.0</ele>
        <time>2012-05-29T12:00:42Z</time>
      </trkpt>
      <trkpt lat="43.381946" lon="-5.733879">
        <ele>264.0</ele>
        <time>2012-05-29T12:00:46Z</time>
      </trkpt>
      <trkpt lat="43.38191" lon="-5.734362">
        <ele>263.0</ele>
        <time>2012-05-29T12:00:50Z</time>
      </trkpt>
      <trkpt lat="43.381884" lon="-5.734841">
        <ele>263.0</ele>
        <time>2012-05-29T12:00:54Z</time>
      </trkpt>
      <trkpt lat="43.381868" lon="-5.735309">
        <ele>262.0</ele>
        <time>2012-05-29T12:00:58Z</time>
      </trkpt>
      <trkpt lat="43.381858" lon="-5.735651">
        <ele>262.0</ele>
        <time>2012-05-29T12:01:01Z</time>
      </trkpt>
      <trkpt lat="43.38183" lon="-5.73619">
        <ele>261.0</ele>
        <time>2012-05-29T12:01:06Z</time>
      </trkpt>
      <trkpt lat="43.381806" lon="-5.736598">
        <ele>260.0</ele>
        <time>2012-05-29T12:01:10Z</time>
      </trkpt>
      <trkpt lat="43.381796" lon="-5.737014">
        <ele>259.0</ele>
        <time>2012-05-29T12:01:14Z</time>
      </trkpt>
      <trkpt lat="43.38177" lon="-5.737431">
        <ele>258.0</ele>
        <time>2012-05-29T12:01:18Z</time>
      </trkpt>
      <trkpt lat="43.381753" lon="-5.737848">
        <ele>257.0</ele>
        <time>2012-05-29T12:01:22Z</time>
      </trkpt>
      <trkpt lat="43.381742" lon="-5.738182">
        <ele>257.0</ele>
        <time>2012-05-29T12:01:25Z</time>
      </trkpt>
      <trkpt lat="43.381707" lon="-5.73877">
        <ele>256.0</ele>
        <time>2012-05-29T12:01:30Z</time>
      </trkpt>
      <trkpt lat="43.381693" lon="-5.739002">
        <ele>256.0</ele>
        <time>2012-05-29T12:01:32Z</time>
      </trkpt>
      <trkpt lat="43.381656" lon="-5.73968">
        <ele>255.0</ele>
        <time>2012-05-29T12:01:38Z</time>
      </trkpt>
      <trkpt lat="43.381631" lon="-5.740124">
        <ele>255.0</ele>
        <time>2012-05-29T12:01:42Z</time>
      </trkpt>
      <trkpt lat="43.381598" lon="-5.740574">
        <ele>255.0</ele>
        <time>2012-05-29T12:01:46Z</time>
      </trkpt>
      <trkpt lat="43.381568" lon="-5.741037">
        <ele>255.0</ele>
        <time>2012-05-29T12:01:50Z</time>
      </trkpt>
      <trkpt lat="43.381541" lon="-5.741503">
        <ele>254.0</ele>
        <time>2012-05-29T12:01:54Z</time>
      </trkpt>
      <trkpt lat="43.381516" lon="-5.741928">
        <ele>253.0</ele>
        <time>2012-05-29T12:01:58Z</time>
      </trkpt>
      <trkpt lat="43.381512" lon="-5.742096">
        <ele>253.0</ele>
        <time>2012-05-29T12:02:00Z</time>
      </trkpt>
      <trkpt lat="43.381505" lon="-5.742323">
        <ele>253.0</ele>
        <time>2012-05-29T12:02:04Z</time>
      </trkpt>
      <trkpt lat="43.381505" lon="-5.742323">
        <time>2012-05-29T12:02:16Z</time>
      </trkpt>
    </trkseg>
    <trkseg>
      <trkpt lat="43.381505" lon="-5.742323">
        <time>2012-05-29T12:03:14Z</time>
      </trkpt>
      <trkpt lat="43.381488" lon="-5.742757">
        <ele>249.0</ele>
        <time>2012-05-29T12:03:16Z</time>
      </trkpt>
      <trkpt lat="43.381456" lon="-5.743041">
        <ele>246.0</ele>
        <time>2012-05-29T12:03:20Z</time>
      </trkpt>
      <trkpt lat="43.381438" lon="-5.743371">
        <ele>245.0</ele>
        <time>2012-05-29T12:03:24Z</time>
      </trkpt>
      <trkpt lat="43.381446" lon="-5.743836">
        <ele>244.0</ele>
        <time>2012-05-29T12:03:29Z</time>
      </trkpt>
      <trkpt lat="43.381525" lon="-5.744109">
        <ele>244.0</ele>
        <time>2012-05-29T12:03:32Z</time>
      </trkpt>
      <trkpt lat="43.381741" lon="-5.7445">
        <ele>244.0</ele>
        <time>2012-05-29T12:03:37Z</time>
      </trkpt>
      <trkpt lat="43.381963" lon="-5.744745">
        <ele>244.0</ele>
        <time>2012-05-29T12:03:41Z</time>
      </trkpt>
      <trkpt lat="43.382073" lon="-5.744858">
        <ele>245.0</ele>
        <time>2012-05-29T12:03:43Z</time>
      </trkpt>
      <trkpt lat="43.382328" lon="-5.745149">
        <ele>244.0</ele>
        <time>2012-05-29T12:03:48Z</time>
      </trkpt>
      <trkpt lat="43.38258" lon="-5.745398">
        <ele>243.0</ele>
        <time>2012-05-29T12:03:53Z</time>
      </trkpt>
      <trkpt lat="43.382806" lon="-5.74555">
        <ele>243.0</ele>
        <time>2012-05-29T12:03:57Z</time>
      </trkpt>
      <trkpt lat="43.3829" lon="-5.745785">
        <ele>244.0</ele>
        <time>2012-05-29T12:04:00Z</time>
      </trkpt>
      <trkpt lat="43.382922" lon="-5.746243">
        <ele>244.0</ele>
        <time>2012-05-29T12:04:05Z</time>
      </trkpt>
      <trkpt lat="43.382923" lon="-5.746626">
        <ele>244.0</ele>
        <time>2012-05-29T12:04:09Z</time>
      </trkpt>
      <trkpt lat="43.382919" lon="-5.74702">
        <ele>243.0</ele>
        <time>2012-05-29T12:04:13Z</time>
      </trkpt>
      <trkpt lat="43.382941" lon="-5.747426">
        <ele>243.0</ele>
        <time>2012-05-29T12:04:17Z</time>
      </trkpt>
      <trkpt lat="43.382982" lon="-5.747835">
        <ele>244.0</ele>
        <time>2012-05-29T12:04:21Z</time>
      </trkpt>
      <trkpt lat="43.383007" lon="-5.748249">
        <ele>245.0</ele>
        <time>2012-05-29T12:04:25Z</time>
      </trkpt>
      <trkpt lat="43.383038" lon="-5.748664">
        <ele>245.0</ele>
        <time>2012-05-29T12:04:29Z</time>
      </trkpt>
      <trkpt lat="43.383073" lon="-5.749098">
        <ele>246.0</ele>
        <time>2012-05-29T12:04:33Z</time>
      </trkpt>
      <trkpt lat="43.383108" lon="-5.749548">
        <ele>246.0</ele>
        <time>2012-05-29T12:04:37Z</time>
      </trkpt>
      <trkpt lat="43.383144" lon="-5.749992">
        <ele>246.0</ele>
        <time>2012-05-29T12:04:41Z</time>
      </trkpt>
      <trkpt lat="43.383171" lon="-5.750439">
        <ele>246.0</ele>
        <time>2012-05-29T12:04:45Z</time>
      </trkpt>
      <trkpt lat="43.383195" lon="-5.750878">
        <ele>245.0</ele>
        <time>2012-05-29T12:04:49Z</time>
      </trkpt>
      <trkpt lat="43.383221" lon="-5.751324">
        <ele>245.0</ele>
        <time>2012-05-29T12:04:53Z</time>
      </trkpt>
      <trkpt lat="43.383245" lon="-5.751764">
        <ele>246.0</ele>
        <time>2012-05-29T12:04:57Z</time>
      </trkpt>
      <trkpt lat="43.383258" lon="-5.752093">
        <ele>246.0</ele>
        <time>2012-05-29T12:05:00Z</time>
      </trkpt>
      <trkpt lat="43.383282" lon="-5.752654">
        <ele>246.0</ele>
        <time>2012-05-29T12:05:05Z</time>
      </trkpt>
      <trkpt lat="43.383301" lon="-5.753119">
        <ele>246.0</ele>
        <time>2012-05-29T12:05:09Z</time>
      </trkpt>
      <trkpt lat="43.383315" lon="-5.753586">
        <ele>245.0</ele>
        <time>2012-05-29T12:05:13Z</time>
      </trkpt>
      <trkpt lat="43.383339" lon="-5.754053">
        <ele>245.0</ele>
        <time>2012-05-29T12:05:17Z</time>
      </trkpt>
      <trkpt lat="43.383356" lon="-5.754501">
        <ele>245.0</ele>
        <time>2012-05-29T12:05:21Z</time>
      </trkpt>
      <trkpt lat="43.383367" lon="-5.754932">
        <ele>245.0</ele>
        <time>2012-05-29T12:05:25Z</time>
      </trkpt>
      <trkpt lat="43.383383" lon="-5.755341">
        <ele>244.0</ele>
        <time>2012-05-29T12:05:29Z</time>
      </trkpt>
      <trkpt lat="43.383394" lon="-5.75574">
        <ele>244.0</ele>
        <time>2012-05-29T12:05:33Z</time>
      </trkpt>
      <trkpt lat="43.383402" lon="-5.756143">
        <ele>245.0</ele>
        <time>2012-05-29T12:05:37Z</time>
      </trkpt>
      <trkpt lat="43.383411" lon="-5.756539">
        <ele>245.0</ele>
        <time>2012-05-29T12:05:41Z</time>
      </trkpt>
      <trkpt lat="43.383434" lon="-5.756942">
        <ele>245.0</ele>
        <time>2012-05-29T12:05:45Z</time>
      </trkpt>
      <trkpt lat="43.383522" lon="-5.757212">
        <ele>245.0</ele>
        <time>2012-05-29T12:05:48Z</time>
      </trkpt>
      <trkpt lat="43.383699" lon="-5.757603">
        <ele>245.0</ele>
        <time>2012-05-29T12:05:53Z</time>
      </trkpt>
      <trkpt lat="43.383649" lon="-5.75794">
        <ele>244.0</ele>
        <time>2012-05-29T12:05:57Z</time>
      </trkpt>
      <trkpt lat="43.383553" lon="-5.758317">
        <ele>244.0</ele>
        <time>2012-05-29T12:06:01Z</time>
      </trkpt>
      <trkpt lat="43.383525" lon="-5.758737">
        <ele>244.0</ele>
        <time>2012-05-29T12:06:05Z</time>
      </trkpt>
      <trkpt lat="43.383547" lon="-5.759147">
        <ele>244.0</ele>
        <time>2012-05-29T12:06:09Z</time>
      </trkpt>
      <trkpt lat="43.383568" lon="-5.759554">
        <ele>245.0</ele>
        <time>2012-05-29T12:06:13Z</time>
      </trkpt>
      <trkpt lat="43.383586" lon="-5.759953">
        <ele>244.0</ele>
        <time>2012-05-29T12:06:17Z</time>
      </trkpt>
      <trkpt lat="43.383605" lon="-5.760353">
        <ele>244.0</ele>
        <time>2012-05-29T12:06:21Z</time>
      </trkpt>
      <trkpt lat="43.383622" lon="-5.760651">
        <ele>244.0</ele>
        <time>2012-05-29T12:06:24Z</time>
      </trkpt>
      <trkpt lat="43.383648" lon="-5.761137">
        <ele>244.0</ele>
        <time>2012-05-29T12:06:29Z</time>
      </trkpt>
      <trkpt lat="43.383655" lon="-5.761516">
        <ele>244.0</ele>
        <time>2012-05-29T12:06:33Z</time>
      </trkpt>
      <trkpt lat="43.383666" lon="-5.761894">
        <ele>244.0</ele>
        <time>2012-05-29T12:06:37Z</time>
      </trkpt>
      <trkpt lat="43.383678" lon="-5.762272">
        <ele>245.0</ele>
        <time>2012-05-29T12:06:41Z</time>
      </trkpt>
      <trkpt lat="43.383691" lon="-5.762639">
        <ele>245.0</ele>
        <time>2012-05-29T12:06:45Z</time>
      </trkpt>
      <trkpt lat="43.383701" lon="-5.763003">
        <ele>245.0</ele>
        <time>2012-05-29T12:06:49Z</time>
      </trkpt>
      <trkpt lat="43.38371" lon="-5.76337">
        <ele>244.0</ele>
        <time>2012-05-29T12:06:53Z</time>
      </trkpt>
      <trkpt lat="43.383723" lon="-5.763658">
        <ele>244.0</ele>
        <time>2012-05-29T12:06:56Z</time>
      </trkpt>
      <trkpt lat="43.38375" lon="-5.764156">
        <ele>245.0</ele>
        <time>2012-05-29T12:07:01Z</time>
      </trkpt>
      <trkpt lat="43.383765" lon="-5.764558">
        <ele>245.0</ele>
        <time>2012-05-29T12:07:05Z</time>
      </trkpt>
      <trkpt lat="43.383781" lon="-5.764958">
        <ele>246.0</ele>
        <time>2012-05-29T12:07:09Z</time>
      </trkpt>
      <trkpt lat="43.383799" lon="-5.765352">
        <ele>246.0</ele>
        <time>2012-05-29T12:07:13Z</time>
      </trkpt>
      <trkpt lat="43.383812" lon="-5.765545">
        <ele>246.0</ele>
        <time>2012-05-29T12:07:15Z</time>
      </trkpt>
      <trkpt lat="43.383832" lon="-5.766116">
        <ele>246.0</ele>
        <time>2012-05-29T12:07:21Z</time>
      </trkpt>
      <trkpt lat="43.383842" lon="-5.766462">
        <ele>246.0</ele>
        <time>2012-05-29T12:07:25Z</time>
      </trkpt>
      <trkpt lat="43.383864" lon="-5.767151">
        <ele>246.0</ele>
        <time>2012-05-29T12:07:33Z</time>
      </trkpt>
      <trkpt lat="43.383868" lon="-5.767515">
        <ele>246.0</ele>
        <time>2012-05-29T12:07:37Z</time>
      </trkpt>
      <trkpt lat="43.383879" lon="-5.7679">
        <ele>247.0</ele>
        <time>2012-05-29T12:07:41Z</time>
      </trkpt>
      <trkpt lat="43.383901" lon="-5.768305">
        <ele>247.0</ele>
        <time>2012-05-29T12:07:45Z</time>
      </trkpt>
      <trkpt lat="43.383922" lon="-5.768707">
        <ele>247.0</ele>
        <time>2012-05-29T12:07:49Z</time>
      </trkpt>
      <trkpt lat="43.383951" lon="-5.769114">
        <ele>247.0</ele>
        <time>2012-05-29T12:07:53Z</time>
      </trkpt>
      <trkpt lat="43.383969" lon="-5.769563">
        <ele>247.0</ele>
        <time>2012-05-29T12:07:57Z</time>
      </trkpt>
      <trkpt lat="43.383972" lon="-5.770048">
        <ele>247.0</ele>
        <time>2012-05-29T12:08:01Z</time>
      </trkpt>
      <trkpt lat="43.383966" lon="-5.770546">
        <ele>247.0</ele>
        <time>2012-05-29T12:08:05Z</time>
      </trkpt>
      <trkpt lat="43.383953" lon="-5.771042">
        <ele>246.0</ele>
        <time>2012-05-29T12:08:09Z</time>
      </trkpt>
      <trkpt lat="43.383939" lon="-5.771276">
        <ele>246.0</ele>
        <time>2012-05-29T12:08:11Z</time>
      </trkpt>
      <trkpt lat="43.383901" lon="-5.771916">
        <ele>246.0</ele>
        <time>2012-05-29T12:08:17Z</time>
      </trkpt>
      <trkpt lat="43.383875" lon="-5.772298">
        <ele>246.0</ele>
        <time>2012-05-29T12:08:21Z</time>
      </trkpt>
      <trkpt lat="43.383858" lon="-5.772665">
        <ele>246.0</ele>
        <time>2012-05-29T12:08:25Z</time>
      </trkpt>
      <trkpt lat="43.383834" lon="-5.772948">
        <ele>246.0</ele>
        <time>2012-05-29T12:08:28Z</time>
      </trkpt>
      <trkpt lat="43.383781" lon="-5.773434">
        <ele>248.0</ele>
        <time>2012-05-29T12:08:33Z</time>
      </trkpt>
      <trkpt lat="43.383718" lon="-5.773857">
        <ele>249.0</ele>
        <time>2012-05-29T12:08:37Z</time>
      </trkpt>
      <trkpt lat="43.383644" lon="-5.774296">
        <ele>249.0</ele>
        <time>2012-05-29T12:08:41Z</time>
      </trkpt>
      <trkpt lat="43.383556" lon="-5.774727">
        <ele>249.0</ele>
        <time>2012-05-29T12:08:45Z</time>
      </trkpt>
      <trkpt lat="43.383455" lon="-5.775145">
        <ele>249.0</ele>
        <time>2012-05-29T12:08:49Z</time>
      </trkpt>
      <trkpt lat="43.383366" lon="-5.775547">
        <ele>248.0</ele>
        <time>2012-05-29T12:08:53Z</time>
      </trkpt>
      <trkpt lat="43.383284" lon="-5.775946">
        <ele>248.0</ele>
        <time>2012-05-29T12:08:57Z</time>
      </trkpt>
      <trkpt lat="43.383205" lon="-5.776358">
        <ele>248.0</ele>
        <time>2012-05-29T12:09:01Z</time>
      </trkpt>
      <trkpt lat="43.383131" lon="-5.776777">
        <ele>248.0</ele>
        <time>2012-05-29T12:09:05Z</time>
      </trkpt>
      <trkpt lat="43.383054" lon="-5.777212">
        <ele>249.0</ele>
        <time>2012-05-29T12:09:09Z</time>
      </trkpt>
      <trkpt lat="43.382964" lon="-5.777661">
        <ele>249.0</ele>
        <time>2012-05-29T12:09:13Z</time>
      </trkpt>
      <trkpt lat="43.382867" lon="-5.778126">
        <ele>250.0</ele>
        <time>2012-05-29T12:09:17Z</time>
      </trkpt>
      <trkpt lat="43.382796" lon="-5.778474">
        <ele>250.0</ele>
        <time>2012-05-29T12:09:20Z</time>
      </trkpt>
      <trkpt lat="43.382683" lon="-5.779056">
        <ele>250.0</ele>
        <time>2012-05-29T12:09:25Z</time>
      </trkpt>
      <trkpt lat="43.382587" lon="-5.779528">
        <ele>250.0</ele>
        <time>2012-05-29T12:09:29Z</time>
      </trkpt>
      <trkpt lat="43.382479" lon="-5.779999">
        <ele>250.0</ele>
        <time>2012-05-29T12:09:33Z</time>
      </trkpt>
      <trkpt lat="43.382367" lon="-5.780457">
        <ele>250.0</ele>
        <time>2012-05-29T12:09:37Z</time>
      </trkpt>
      <trkpt lat="43.382251" lon="-5.780905">
        <ele>250.0</ele>
        <time>2012-05-29T12:09:41Z</time>
      </trkpt>
      <trkpt lat="43.382118" lon="-5.781338">
        <ele>250.0</ele>
        <time>2012-05-29T12:09:45Z</time>
      </trkpt>
      <trkpt lat="43.381975" lon="-5.78176">
        <ele>251.0</ele>
        <time>2012-05-29T12:09:49Z</time>
      </trkpt>
      <trkpt lat="43.381813" lon="-5.78218">
        <ele>251.0</ele>
        <time>2012-05-29T12:09:53Z</time>
      </trkpt>
      <trkpt lat="43.381725" lon="-5.782389">
        <ele>251.0</ele>
        <time>2012-05-29T12:09:55Z</time>
      </trkpt>
      <trkpt lat="43.38145" lon="-5.782999">
        <ele>251.0</ele>
        <time>2012-05-29T12:10:01Z</time>
      </trkpt>
      <trkpt lat="43.38133" lon="-5.783296">
        <ele>251.0</ele>
        <time>2012-05-29T12:10:04Z</time>
      </trkpt>
      <trkpt lat="43.381157" lon="-5.783831">
        <ele>250.0</ele>
        <time>2012-05-29T12:10:09Z</time>
      </trkpt>
      <trkpt lat="43.381014" lon="-5.784291">
        <ele>249.0</ele>
        <time>2012-05-29T12:10:13Z</time>
      </trkpt>
      <trkpt lat="43.380857" lon="-5.784744">
        <ele>249.0</ele>
        <time>2012-05-29T12:10:17Z</time>
      </trkpt>
      <trkpt lat="43.380705" lon="-5.78519">
        <ele>247.0</ele>
        <time>2012-05-29T12:10:21Z</time>
      </trkpt>
      <trkpt lat="43.380561" lon="-5.785621">
        <ele>246.0</ele>
        <time>2012-05-29T12:10:25Z</time>
      </trkpt>
      <trkpt lat="43.380434" lon="-5.786035">
        <ele>245.0</ele>
        <time>2012-05-29T12:10:29Z</time>
      </trkpt>
      <trkpt lat="43.380305" lon="-5.786415">
        <ele>245.0</ele>
        <time>2012-05-29T12:10:33Z</time>
      </trkpt>
      <trkpt lat="43.380178" lon="-5.786755">
        <ele>244.0</ele>
        <time>2012-05-29T12:10:37Z</time>
      </trkpt>
      <trkpt lat="43.380065" lon="-5.787096">
        <ele>244.0</ele>
        <time>2012-05-29T12:10:41Z</time>
      </trkpt>
      <trkpt lat="43.379987" lon="-5.787343">
        <ele>244.0</ele>
        <time>2012-05-29T12:10:44Z</time>
      </trkpt>
      <trkpt lat="43.379887" lon="-5.787645">
        <ele>244.0</ele>
        <time>2012-05-29T12:10:48Z</time>
      </trkpt>
      <trkpt lat="43.379846" lon="-5.787798">
        <ele>244.0</ele>
        <time>2012-05-29T12:10:50Z</time>
      </trkpt>
      <trkpt lat="43.379736" lon="-5.788278">
        <ele>244.0</ele>
        <time>2012-05-29T12:10:56Z</time>
      </trkpt>
      <trkpt lat="43.379654" lon="-5.788698">
        <ele>244.0</ele>
        <time>2012-05-29T12:11:01Z</time>
      </trkpt>
      <trkpt lat="43.379597" lon="-5.789058">
        <ele>243.0</ele>
        <time>2012-05-29T12:11:05Z</time>
      </trkpt>
      <trkpt lat="43.379549" lon="-5.789329">
        <ele>243.0</ele>
        <time>2012-05-29T12:11:08Z</time>
      </trkpt>
      <trkpt lat="43.379478" lon="-5.789582">
        <ele>243.0</ele>
        <time>2012-05-29T12:11:12Z</time>
      </trkpt>
      <trkpt lat="43.379478" lon="-5.789582">
        <time>2012-05-29T12:11:23Z</time>
      </trkpt>
    </trkseg>
    <trkseg>
      <trkpt lat="43.379478" lon="-5.789582">
        <time>2012-05-29T12:11:45Z</time>
      </trkpt>
      <trkpt lat="43.379348" lon="-5.790015">
        <ele>242.0</ele>
        <time>2012-05-29T12:11:49Z</time>
      </trkpt>
      <trkpt lat="43.379231" lon="-5.79044">
        <ele>241.0</ele>
        <time>2012-05-29T12:11:55Z</time>
      </trkpt>
      <trkpt lat="43.379149" lon="-5.790708">
        <ele>240.0</ele>
        <time>2012-05-29T12:11:59Z</time>
      </trkpt>
      <trkpt lat="43.379095" lon="-5.790987">
        <ele>239.0</ele>
        <time>2012-05-29T12:12:03Z</time>
      </trkpt>
      <trkpt lat="43.37907" lon="-5.791129">
        <ele>239.0</ele>
        <time>2012-05-29T12:12:05Z</time>
      </trkpt>
      <trkpt lat="43.379029" lon="-5.791421">
        <ele>238.0</ele>
        <time>2012-05-29T12:12:09Z</time>
      </trkpt>
      <trkpt lat="43.37901" lon="-5.791569">
        <ele>238.0</ele>
        <time>2012-05-29T12:12:11Z</time>
      </trkpt>
      <trkpt lat="43.378974" lon="-5.792227">
        <ele>238.0</ele>
        <time>2012-05-29T12:12:18Z</time>
      </trkpt>
      <trkpt lat="43.378947" lon="-5.792688">
        <ele>238.0</ele>
        <time>2012-05-29T12:12:22Z</time>
      </trkpt>
      <trkpt lat="43.378979" lon="-5.793248">
        <ele>239.0</ele>
        <time>2012-05-29T12:12:27Z</time>
      </trkpt>
      <trkpt lat="43.378992" lon="-5.793682">
        <ele>239.0</ele>
        <time>2012-05-29T12:12:31Z</time>
      </trkpt>
      <trkpt lat="43.378972" lon="-5.794097">
        <ele>240.0</ele>
        <time>2012-05-29T12:12:35Z</time>
      </trkpt>
      <trkpt lat="43.378977" lon="-5.794439">
        <ele>240.0</ele>
        <time>2012-05-29T12:12:39Z</time>
      </trkpt>
      <trkpt lat="43.378972" lon="-5.794761">
        <ele>241.0</ele>
        <time>2012-05-29T12:12:43Z</time>
      </trkpt>
      <trkpt lat="43.378931" lon="-5.79508">
        <ele>240.0</ele>
        <time>2012-05-29T12:12:47Z</time>
      </trkpt>
      <trkpt lat="43.378837" lon="-5.795386">
        <ele>239.0</ele>
        <time>2012-05-29T12:12:51Z</time>
      </trkpt>
      <trkpt lat="43.378736" lon="-5.7957">
        <ele>239.0</ele>
        <time>2012-05-29T12:12:55Z</time>
      </trkpt>
      <trkpt lat="43.378659" lon="-5.795938">
        <ele>239.0</ele>
        <time>2012-05-29T12:12:58Z</time>
      </trkpt>
      <trkpt lat="43.378571" lon="-5.79625">
        <ele>238.0</ele>
        <time>2012-05-29T12:13:02Z</time>
      </trkpt>
      <trkpt lat="43.378498" lon="-5.79655">
        <ele>238.0</ele>
        <time>2012-05-29T12:13:06Z</time>
      </trkpt>
      <trkpt lat="43.378428" lon="-5.796853">
        <ele>238.0</ele>
        <time>2012-05-29T12:13:10Z</time>
      </trkpt>
      <trkpt lat="43.378354" lon="-5.797155">
        <ele>238.0</ele>
        <time>2012-05-29T12:13:14Z</time>
      </trkpt>
      <trkpt lat="43.378285" lon="-5.797458">
        <ele>238.0</ele>
        <time>2012-05-29T12:13:18Z</time>
      </trkpt>
      <trkpt lat="43.378224" lon="-5.797763">
        <ele>238.0</ele>
        <time>2012-05-29T12:13:22Z</time>
      </trkpt>
      <trkpt lat="43.378193" lon="-5.797915">
        <ele>238.0</ele>
        <time>2012-05-29T12:13:24Z</time>
      </trkpt>
      <trkpt lat="43.378108" lon="-5.798368">
        <ele>239.0</ele>
        <time>2012-05-29T12:13:30Z</time>
      </trkpt>
      <trkpt lat="43.378087" lon="-5.798521">
        <ele>239.0</ele>
        <time>2012-05-29T12:13:32Z</time>
      </trkpt>
      <trkpt lat="43.37804" lon="-5.799007">
        <ele>240.0</ele>
        <time>2012-05-29T12:13:38Z</time>
      </trkpt>
      <trkpt lat="43.378032" lon="-5.799174">
        <ele>240.0</ele>
        <time>2012-05-29T12:13:40Z</time>
      </trkpt>
      <trkpt lat="43.378031" lon="-5.799764">
        <ele>241.0</ele>
        <time>2012-05-29T12:13:47Z</time>
      </trkpt>
      <trkpt lat="43.378032" lon="-5.800119">
        <ele>241.0</ele>
        <time>2012-05-29T12:13:51Z</time>
      </trkpt>
      <trkpt lat="43.378027" lon="-5.800496">
        <ele>241.0</ele>
        <time>2012-05-29T12:13:55Z</time>
      </trkpt>
      <trkpt lat="43.378027" lon="-5.80087">
        <ele>241.0</ele>
        <time>2012-05-29T12:13:59Z</time>
      </trkpt>
      <trkpt lat="43.378011" lon="-5.801239">
        <ele>241.0</ele>
        <time>2012-05-29T12:14:03Z</time>
      </trkpt>
      <trkpt lat="43.377986" lon="-5.801608">
        <ele>241.0</ele>
        <time>2012-05-29T12:14:07Z</time>
      </trkpt>
      <trkpt lat="43.37795" lon="-5.801897">
        <ele>241.0</ele>
        <time>2012-05-29T12:14:10Z</time>
      </trkpt>
      <trkpt lat="43.377853" lon="-5.802396">
        <ele>241.0</ele>
        <time>2012-05-29T12:14:15Z</time>
      </trkpt>
      <trkpt lat="43.377719" lon="-5.802824">
        <ele>241.0</ele>
        <time>2012-05-29T12:14:19Z</time>
      </trkpt>
      <trkpt lat="43.377553" lon="-5.80325">
        <ele>241.0</ele>
        <time>2012-05-29T12:14:23Z</time>
      </trkpt>
      <trkpt lat="43.377407" lon="-5.803672">
        <ele>241.0</ele>
        <time>2012-05-29T12:14:27Z</time>
      </trkpt>
      <trkpt lat="43.377267" lon="-5.804093">
        <ele>241.0</ele>
        <time>2012-05-29T12:14:31Z</time>
      </trkpt>
      <trkpt lat="43.377138" lon="-5.804521">
        <ele>240.0</ele>
        <time>2012-05-29T12:14:35Z</time>
      </trkpt>
      <trkpt lat="43.376992" lon="-5.80495">
        <ele>241.0</ele>
        <time>2012-05-29T12:14:39Z</time>
      </trkpt>
      <trkpt lat="43.376784" lon="-5.80536">
        <ele>241.0</ele>
        <time>2012-05-29T12:14:43Z</time>
      </trkpt>
      <trkpt lat="43.376535" lon="-5.805741">
        <ele>241.0</ele>
        <time>2012-05-29T12:14:47Z</time>
      </trkpt>
      <trkpt lat="43.376399" lon="-5.805917">
        <ele>241.0</ele>
        <time>2012-05-29T12:14:49Z</time>
      </trkpt>
      <trkpt lat="43.375995" lon="-5.806444">
        <ele>241.0</ele>
        <time>2012-05-29T12:14:55Z</time>
      </trkpt>
      <trkpt lat="43.37574" lon="-5.806795">
        <ele>241.0</ele>
        <time>2012-05-29T12:14:59Z</time>
      </trkpt>
      <trkpt lat="43.375488" lon="-5.807144">
        <ele>240.0</ele>
        <time>2012-05-29T12:15:03Z</time>
      </trkpt>
      <trkpt lat="43.375246" lon="-5.807501">
        <ele>240.0</ele>
        <time>2012-05-29T12:15:07Z</time>
      </trkpt>
      <trkpt lat="43.375025" lon="-5.807887">
        <ele>240.0</ele>
        <time>2012-05-29T12:15:11Z</time>
      </trkpt>
      <trkpt lat="43.374828" lon="-5.808305">
        <ele>240.0</ele>
        <time>2012-05-29T12:15:15Z</time>
      </trkpt>
      <trkpt lat="43.374656" lon="-5.808733">
        <ele>240.0</ele>
        <time>2012-05-29T12:15:19Z</time>
      </trkpt>
      <trkpt lat="43.374509" lon="-5.809159">
        <ele>240.0</ele>
        <time>2012-05-29T12:15:23Z</time>
      </trkpt>
      <trkpt lat="43.374347" lon="-5.809578">
        <ele>241.0</ele>
        <time>2012-05-29T12:15:27Z</time>
      </trkpt>
      <trkpt lat="43.374177" lon="-5.809969">
        <ele>241.0</ele>
        <time>2012-05-29T12:15:31Z</time>
      </trkpt>
      <trkpt lat="43.373949" lon="-5.810545">
        <ele>242.0</ele>
        <time>2012-05-29T12:15:39Z</time>
      </trkpt>
      <trkpt lat="43.373732" lon="-5.810829">
        <ele>243.0</ele>
        <time>2012-05-29T12:15:43Z</time>
      </trkpt>
      <trkpt lat="43.373488" lon="-5.811106">
        <ele>243.0</ele>
        <time>2012-05-29T12:15:47Z</time>
      </trkpt>
      <trkpt lat="43.373229" lon="-5.811381">
        <ele>243.0</ele>
        <time>2012-05-29T12:15:51Z</time>
      </trkpt>
      <trkpt lat="43.373015" lon="-5.811718">
        <ele>243.0</ele>
        <time>2012-05-29T12:15:55Z</time>
      </trkpt>
      <trkpt lat="43.372921" lon="-5.812053">
        <ele>243.0</ele>
        <time>2012-05-29T12:15:58Z</time>
      </trkpt>
      <trkpt lat="43.372911" lon="-5.81259">
        <ele>243.0</ele>
        <time>2012-05-29T12:16:03Z</time>
      </trkpt>
      <trkpt lat="43.372761" lon="-5.812906">
        <ele>245.0</ele>
        <time>2012-05-29T12:16:07Z</time>
      </trkpt>
      <trkpt lat="43.372622" lon="-5.812973">
        <ele>246.0</ele>
        <time>2012-05-29T12:16:09Z</time>
      </trkpt>
      <trkpt lat="43.372289" lon="-5.813383">
        <ele>246.0</ele>
        <time>2012-05-29T12:16:15Z</time>
      </trkpt>
      <trkpt lat="43.372176" lon="-5.813823">
        <ele>246.0</ele>
        <time>2012-05-29T12:16:19Z</time>
      </trkpt>
      <trkpt lat="43.372067" lon="-5.814274">
        <ele>245.0</ele>
        <time>2012-05-29T12:16:23Z</time>
      </trkpt>
      <trkpt lat="43.371937" lon="-5.814692">
        <ele>245.0</ele>
        <time>2012-05-29T12:16:27Z</time>
      </trkpt>
      <trkpt lat="43.37178" lon="-5.81507">
        <ele>245.0</ele>
        <time>2012-05-29T12:16:31Z</time>
      </trkpt>
      <trkpt lat="43.37161" lon="-5.815426">
        <ele>245.0</ele>
        <time>2012-05-29T12:16:35Z</time>
      </trkpt>
      <trkpt lat="43.371426" lon="-5.81578">
        <ele>245.0</ele>
        <time>2012-05-29T12:16:39Z</time>
      </trkpt>
      <trkpt lat="43.371227" lon="-5.81613">
        <ele>245.0</ele>
        <time>2012-05-29T12:16:43Z</time>
      </trkpt>
      <trkpt lat="43.371021" lon="-5.816485">
        <ele>245.0</ele>
        <time>2012-05-29T12:16:47Z</time>
      </trkpt>
      <trkpt lat="43.370803" lon="-5.816854">
        <ele>245.0</ele>
        <time>2012-05-29T12:16:51Z</time>
      </trkpt>
      <trkpt lat="43.370575" lon="-5.817225">
        <ele>245.0</ele>
        <time>2012-05-29T12:16:55Z</time>
      </trkpt>
      <trkpt lat="43.370331" lon="-5.817569">
        <ele>244.0</ele>
        <time>2012-05-29T12:16:59Z</time>
      </trkpt>
      <trkpt lat="43.370073" lon="-5.817884">
        <ele>243.0</ele>
        <time>2012-05-29T12:17:03Z</time>
      </trkpt>
      <trkpt lat="43.369816" lon="-5.818179">
        <ele>243.0</ele>
        <time>2012-05-29T12:17:07Z</time>
      </trkpt>
      <trkpt lat="43.369584" lon="-5.818487">
        <ele>243.0</ele>
        <time>2012-05-29T12:17:11Z</time>
      </trkpt>
      <trkpt lat="43.369442" lon="-5.818734">
        <ele>243.0</ele>
        <time>2012-05-29T12:17:14Z</time>
      </trkpt>
      <trkpt lat="43.369376" lon="-5.81917">
        <ele>243.0</ele>
        <time>2012-05-29T12:17:19Z</time>
      </trkpt>
      <trkpt lat="43.369234" lon="-5.819429">
        <ele>244.0</ele>
        <time>2012-05-29T12:17:23Z</time>
      </trkpt>
      <trkpt lat="43.368966" lon="-5.819792">
        <ele>243.0</ele>
        <time>2012-05-29T12:17:31Z</time>
      </trkpt>
      <trkpt lat="43.368943" lon="-5.820014">
        <ele>243.0</ele>
        <time>2012-05-29T12:17:35Z</time>
      </trkpt>
      <trkpt lat="43.368975" lon="-5.820306">
        <ele>244.0</ele>
        <time>2012-05-29T12:17:39Z</time>
      </trkpt>
      <trkpt lat="43.368974" lon="-5.820635">
        <ele>244.0</ele>
        <time>2012-05-29T12:17:43Z</time>
      </trkpt>
      <trkpt lat="43.368943" lon="-5.820963">
        <ele>244.0</ele>
        <time>2012-05-29T12:17:47Z</time>
      </trkpt>
      <trkpt lat="43.368903" lon="-5.821286">
        <ele>244.0</ele>
        <time>2012-05-29T12:17:51Z</time>
      </trkpt>
      <trkpt lat="43.368935" lon="-5.821582">
        <ele>243.0</ele>
        <time>2012-05-29T12:17:55Z</time>
      </trkpt>
      <trkpt lat="43.369154" lon="-5.821691">
        <ele>242.0</ele>
        <time>2012-05-29T12:17:59Z</time>
      </trkpt>
      <trkpt lat="43.369339" lon="-5.821719">
        <ele>242.0</ele>
        <time>2012-05-29T12:18:03Z</time>
      </trkpt>
      <trkpt lat="43.369516" lon="-5.821815">
        <ele>242.0</ele>
        <time>2012-05-29T12:18:07Z</time>
      </trkpt>
      <trkpt lat="43.369668" lon="-5.821995">
        <ele>242.0</ele>
        <time>2012-05-29T12:18:11Z</time>
      </trkpt>
      <trkpt lat="43.369716" lon="-5.822197">
        <ele>241.0</ele>
        <time>2012-05-29T12:18:15Z</time>
      </trkpt>
      <trkpt lat="43.36971" lon="-5.822404">
        <ele>240.0</ele>
        <time>2012-05-29T12:18:19Z</time>
      </trkpt>
      <trkpt lat="43.369695" lon="-5.822624">
        <ele>240.0</ele>
        <time>2012-05-29T12:18:23Z</time>
      </trkpt>
      <trkpt lat="43.369669" lon="-5.822881">
        <ele>240.0</ele>
        <time>2012-05-29T12:18:27Z</time>
      </trkpt>
      <trkpt lat="43.369637" lon="-5.82316">
        <ele>240.0</ele>
        <time>2012-05-29T12:18:31Z</time>
      </trkpt>
      <trkpt lat="43.369688" lon="-5.823362">
        <ele>241.0</ele>
        <time>2012-05-29T12:18:35Z</time>
      </trkpt>
      <trkpt lat="43.36991" lon="-5.82345">
        <ele>242.0</ele>
        <time>2012-05-29T12:18:39Z</time>
      </trkpt>
      <trkpt lat="43.370084" lon="-5.823514">
        <ele>243.0</ele>
        <time>2012-05-29T12:18:43Z</time>
      </trkpt>
      <trkpt lat="43.370193" lon="-5.823252">
        <ele>242.0</ele>
        <time>2012-05-29T12:18:47Z</time>
      </trkpt>
      <trkpt lat="43.37034" lon="-5.823015">
        <ele>241.0</ele>
        <time>2012-05-29T12:18:51Z</time>
      </trkpt>
      <trkpt lat="43.370506" lon="-5.822912">
        <ele>239.0</ele>
        <time>2012-05-29T12:18:55Z</time>
      </trkpt>
      <trkpt lat="43.370624" lon="-5.823159">
        <ele>238.0</ele>
        <time>2012-05-29T12:18:59Z</time>
      </trkpt>
      <trkpt lat="43.370534" lon="-5.823765">
        <ele>238.0</ele>
        <time>2012-05-29T12:19:03Z</time>
      </trkpt>
      <trkpt lat="43.370462" lon="-5.824247">
        <ele>239.0</ele>
        <time>2012-05-29T12:19:07Z</time>
      </trkpt>
      <trkpt lat="43.370423" lon="-5.824662">
        <ele>240.0</ele>
        <time>2012-05-29T12:19:11Z</time>
      </trkpt>
      <trkpt lat="43.37041" lon="-5.824964">
        <ele>240.0</ele>
        <time>2012-05-29T12:19:14Z</time>
      </trkpt>
      <trkpt lat="43.370438" lon="-5.825457">
        <ele>240.0</ele>
        <time>2012-05-29T12:19:19Z</time>
      </trkpt>
      <trkpt lat="43.370471" lon="-5.825646">
        <ele>239.0</ele>
        <time>2012-05-29T12:19:21Z</time>
      </trkpt>
      <trkpt lat="43.370584" lon="-5.826196">
        <ele>239.0</ele>
        <time>2012-05-29T12:19:27Z</time>
      </trkpt>
      <trkpt lat="43.370662" lon="-5.826542">
        <ele>239.0</ele>
        <time>2012-05-29T12:19:31Z</time>
      </trkpt>
      <trkpt lat="43.370701" lon="-5.82671">
        <ele>239.0</ele>
        <time>2012-05-29T12:19:33Z</time>
      </trkpt>
      <trkpt lat="43.370815" lon="-5.827161">
        <ele>239.0</ele>
        <time>2012-05-29T12:19:39Z</time>
      </trkpt>
      <trkpt lat="43.370844" lon="-5.827304">
        <ele>239.0</ele>
        <time>2012-05-29T12:19:41Z</time>
      </trkpt>
      <trkpt lat="43.370913" lon="-5.827572">
        <ele>240.0</ele>
        <time>2012-05-29T12:19:45Z</time>
      </trkpt>
      <trkpt lat="43.37102" lon="-5.827973">
        <ele>240.0</ele>
        <time>2012-05-29T12:19:51Z</time>
      </trkpt>
      <trkpt lat="43.371108" lon="-5.828255">
        <ele>240.0</ele>
        <time>2012-05-29T12:19:55Z</time>
      </trkpt>
      <trkpt lat="43.371196" lon="-5.828566">
        <ele>240.0</ele>
        <time>2012-05-29T12:19:59Z</time>
      </trkpt>
      <trkpt lat="43.371267" lon="-5.828811">
        <ele>241.0</ele>
        <time>2012-05-29T12:20:02Z</time>
      </trkpt>
      <trkpt lat="43.371362" lon="-5.829151">
        <ele>241.0</ele>
        <time>2012-05-29T12:20:06Z</time>
      </trkpt>
      <trkpt lat="43.371465" lon="-5.829496">
        <ele>241.0</ele>
        <time>2012-05-29T12:20:10Z</time>
      </trkpt>
      <trkpt lat="43.371599" lon="-5.829946">
        <ele>241.0</ele>
        <time>2012-05-29T12:20:15Z</time>
      </trkpt>
      <trkpt lat="43.371709" lon="-5.830327">
        <ele>241.0</ele>
        <time>2012-05-29T12:20:19Z</time>
      </trkpt>
      <trkpt lat="43.371813" lon="-5.830685">
        <ele>241.0</ele>
        <time>2012-05-29T12:20:23Z</time>
      </trkpt>
      <trkpt lat="43.371863" lon="-5.830857">
        <ele>241.0</ele>
        <time>2012-05-29T12:20:25Z</time>
      </trkpt>
      <trkpt lat="43.372021" lon="-5.831351">
        <ele>241.0</ele>
        <time>2012-05-29T12:20:31Z</time>
      </trkpt>
      <trkpt lat="43.372104" lon="-5.831595">
        <ele>241.0</ele>
        <time>2012-05-29T12:20:34Z</time>
      </trkpt>
      <trkpt lat="43.372307" lon="-5.831952">
        <ele>242.0</ele>
        <time>2012-05-29T12:20:39Z</time>
      </trkpt>
      <trkpt lat="43.372583" lon="-5.832193">
        <ele>243.0</ele>
        <time>2012-05-29T12:20:43Z</time>
      </trkpt>
      <trkpt lat="43.372896" lon="-5.832405">
        <ele>243.0</ele>
        <time>2012-05-29T12:20:47Z</time>
      </trkpt>
      <trkpt lat="43.373193" lon="-5.832641">
        <ele>244.0</ele>
        <time>2012-05-29T12:20:51Z</time>
      </trkpt>
      <trkpt lat="43.373474" lon="-5.832892">
        <ele>245.0</ele>
        <time>2012-05-29T12:20:55Z</time>
      </trkpt>
      <trkpt lat="43.373598" lon="-5.833193">
        <ele>245.0</ele>
        <time>2012-05-29T12:20:58Z</time>
      </trkpt>
      <trkpt lat="43.373575" lon="-5.833812">
        <ele>245.0</ele>
        <time>2012-05-29T12:21:03Z</time>
      </trkpt>
      <trkpt lat="43.373566" lon="-5.834237">
        <ele>245.0</ele>
        <time>2012-05-29T12:21:07Z</time>
      </trkpt>
      <trkpt lat="43.373575" lon="-5.83464">
        <ele>246.0</ele>
        <time>2012-05-29T12:21:11Z</time>
      </trkpt>
      <trkpt lat="43.373595" lon="-5.835039">
        <ele>246.0</ele>
        <time>2012-05-29T12:21:15Z</time>
      </trkpt>
      <trkpt lat="43.373612" lon="-5.835417">
        <ele>246.0</ele>
        <time>2012-05-29T12:21:19Z</time>
      </trkpt>
      <trkpt lat="43.373579" lon="-5.835813">
        <ele>245.0</ele>
        <time>2012-05-29T12:21:23Z</time>
      </trkpt>
      <trkpt lat="43.373472" lon="-5.836251">
        <ele>246.0</ele>
        <time>2012-05-29T12:21:27Z</time>
      </trkpt>
      <trkpt lat="43.373277" lon="-5.836716">
        <ele>246.0</ele>
        <time>2012-05-29T12:21:31Z</time>
      </trkpt>
      <trkpt lat="43.373188" lon="-5.8371">
        <ele>247.0</ele>
        <time>2012-05-29T12:21:35Z</time>
      </trkpt>
      <trkpt lat="43.373178" lon="-5.837451">
        <ele>247.0</ele>
        <time>2012-05-29T12:21:39Z</time>
      </trkpt>
      <trkpt lat="43.373054" lon="-5.837794">
        <ele>247.0</ele>
        <time>2012-05-29T12:21:43Z</time>
      </trkpt>
      <trkpt lat="43.37283" lon="-5.837999">
        <ele>250.0</ele>
        <time>2012-05-29T12:21:47Z</time>
      </trkpt>
      <trkpt lat="43.372601" lon="-5.838188">
        <ele>251.0</ele>
        <time>2012-05-29T12:21:51Z</time>
      </trkpt>
      <trkpt lat="43.372369" lon="-5.838385">
        <ele>250.0</ele>
        <time>2012-05-29T12:21:55Z</time>
      </trkpt>
      <trkpt lat="43.372182" lon="-5.838614">
        <ele>250.0</ele>
        <time>2012-05-29T12:21:59Z</time>
      </trkpt>
      <trkpt lat="43.372051" lon="-5.838797">
        <ele>251.0</ele>
        <time>2012-05-29T12:22:02Z</time>
      </trkpt>
      <trkpt lat="43.37188" lon="-5.839036">
        <ele>252.0</ele>
        <time>2012-05-29T12:22:06Z</time>
      </trkpt>
      <trkpt lat="43.371703" lon="-5.839289">
        <ele>252.0</ele>
        <time>2012-05-29T12:22:10Z</time>
      </trkpt>
      <trkpt lat="43.371536" lon="-5.839686">
        <ele>253.0</ele>
        <time>2012-05-29T12:22:15Z</time>
      </trkpt>
      <trkpt lat="43.371421" lon="-5.840017">
        <ele>254.0</ele>
        <time>2012-05-29T12:22:19Z</time>
      </trkpt>
      <trkpt lat="43.371333" lon="-5.840353">
        <ele>254.0</ele>
        <time>2012-05-29T12:22:23Z</time>
      </trkpt>
      <trkpt lat="43.371343" lon="-5.840701">
        <ele>255.0</ele>
        <time>2012-05-29T12:22:27Z</time>
      </trkpt>
      <trkpt lat="43.37136" lon="-5.841056">
        <ele>255.0</ele>
        <time>2012-05-29T12:22:31Z</time>
      </trkpt>
      <trkpt lat="43.371423" lon="-5.841405">
        <ele>255.0</ele>
        <time>2012-05-29T12:22:35Z</time>
      </trkpt>
      <trkpt lat="43.371462" lon="-5.841763">
        <ele>256.0</ele>
        <time>2012-05-29T12:22:39Z</time>
      </trkpt>
      <trkpt lat="43.371569" lon="-5.842091">
        <ele>256.0</ele>
        <time>2012-05-29T12:22:43Z</time>
      </trkpt>
      <trkpt lat="43.371714" lon="-5.842396">
        <ele>256.0</ele>
        <time>2012-05-29T12:22:47Z</time>
      </trkpt>
      <trkpt lat="43.371942" lon="-5.842654">
        <ele>256.0</ele>
        <time>2012-05-29T12:22:51Z</time>
      </trkpt>
      <trkpt lat="43.372116" lon="-5.842927">
        <ele>256.0</ele>
        <time>2012-05-29T12:22:55Z</time>
      </trkpt>
      <trkpt lat="43.372273" lon="-5.843215">
        <ele>257.0</ele>
        <time>2012-05-29T12:22:59Z</time>
      </trkpt>
      <trkpt lat="43.372379" lon="-5.843429">
        <ele>257.0</ele>
        <time>2012-05-29T12:23:02Z</time>
      </trkpt>
      <trkpt lat="43.372509" lon="-5.843711">
        <ele>257.0</ele>
        <time>2012-05-29T12:23:06Z</time>
      </trkpt>
      <trkpt lat="43.372613" lon="-5.844007">
        <ele>257.0</ele>
        <time>2012-05-29T12:23:10Z</time>
      </trkpt>
      <trkpt lat="43.372699" lon="-5.844308">
        <ele>257.0</ele>
        <time>2012-05-29T12:23:14Z</time>
      </trkpt>
      <trkpt lat="43.372794" lon="-5.844715">
        <ele>257.0</ele>
        <time>2012-05-29T12:23:19Z</time>
      </trkpt>
      <trkpt lat="43.372855" lon="-5.844963">
        <ele>258.0</ele>
        <time>2012-05-29T12:23:22Z</time>
      </trkpt>
      <trkpt lat="43.373008" lon="-5.84524">
        <ele>258.0</ele>
        <time>2012-05-29T12:23:27Z</time>
      </trkpt>
      <trkpt lat="43.37314" lon="-5.845324">
        <ele>258.0</ele>
        <time>2012-05-29T12:23:31Z</time>
      </trkpt>
      <trkpt lat="43.373318" lon="-5.845447">
        <ele>259.0</ele>
        <time>2012-05-29T12:23:35Z</time>
      </trkpt>
      <trkpt lat="43.373421" lon="-5.845739">
        <ele>260.0</ele>
        <time>2012-05-29T12:23:39Z</time>
      </trkpt>
      <trkpt lat="43.373417" lon="-5.846003">
        <ele>261.0</ele>
        <time>2012-05-29T12:23:42Z</time>
      </trkpt>
      <trkpt lat="43.373257" lon="-5.846274">
        <ele>261.0</ele>
        <time>2012-05-29T12:23:46Z</time>
      </trkpt>
      <trkpt lat="43.372921" lon="-5.846495">
        <ele>261.0</ele>
        <time>2012-05-29T12:23:51Z</time>
      </trkpt>
      <trkpt lat="43.372669" lon="-5.846794">
        <ele>262.0</ele>
        <time>2012-05-29T12:23:55Z</time>
      </trkpt>
      <trkpt lat="43.37245" lon="-5.847132">
        <ele>263.0</ele>
        <time>2012-05-29T12:23:59Z</time>
      </trkpt>
      <trkpt lat="43.37222" lon="-5.847464">
        <ele>263.0</ele>
        <time>2012-05-29T12:24:03Z</time>
      </trkpt>
      <trkpt lat="43.371994" lon="-5.847771">
        <ele>264.0</ele>
        <time>2012-05-29T12:24:07Z</time>
      </trkpt>
      <trkpt lat="43.371776" lon="-5.848044">
        <ele>264.0</ele>
        <time>2012-05-29T12:24:11Z</time>
      </trkpt>
      <trkpt lat="43.371547" lon="-5.848282">
        <ele>264.0</ele>
        <time>2012-05-29T12:24:15Z</time>
      </trkpt>
      <trkpt lat="43.371317" lon="-5.848493">
        <ele>264.0</ele>
        <time>2012-05-29T12:24:19Z</time>
      </trkpt>
      <trkpt lat="43.37108" lon="-5.848685">
        <ele>265.0</ele>
        <time>2012-05-29T12:24:23Z</time>
      </trkpt>
      <trkpt lat="43.370846" lon="-5.848869">
        <ele>265.0</ele>
        <time>2012-05-29T12:24:27Z</time>
      </trkpt>
      <trkpt lat="43.370615" lon="-5.849057">
        <ele>266.0</ele>
        <time>2012-05-29T12:24:31Z</time>
      </trkpt>
      <trkpt lat="43.370412" lon="-5.849305">
        <ele>267.0</ele>
        <time>2012-05-29T12:24:35Z</time>
      </trkpt>
      <trkpt lat="43.370216" lon="-5.849556">
        <ele>268.0</ele>
        <time>2012-05-29T12:24:39Z</time>
      </trkpt>
      <trkpt lat="43.370097" lon="-5.849563">
        <ele>268.0</ele>
        <time>2012-05-29T12:24:41Z</time>
      </trkpt>
      <trkpt lat="43.369919" lon="-5.849684">
        <ele>268.0</ele>
        <time>2012-05-29T12:24:46Z</time>
      </trkpt>
      <trkpt lat="43.369797" lon="-5.849826">
        <ele>268.0</ele>
        <time>2012-05-29T12:24:50Z</time>
      </trkpt>
      <trkpt lat="43.36956" lon="-5.850123">
        <ele>268.0</ele>
        <time>2012-05-29T12:24:55Z</time>
      </trkpt>
      <trkpt lat="43.369337" lon="-5.850414">
        <ele>268.0</ele>
        <time>2012-05-29T12:24:59Z</time>
      </trkpt>
      <trkpt lat="43.369113" lon="-5.850724">
        <ele>268.0</ele>
        <time>2012-05-29T12:25:03Z</time>
      </trkpt>
      <trkpt lat="43.368886" lon="-5.851033">
        <ele>269.0</ele>
        <time>2012-05-29T12:25:07Z</time>
      </trkpt>
      <trkpt lat="43.368651" lon="-5.851341">
        <ele>269.0</ele>
        <time>2012-05-29T12:25:11Z</time>
      </trkpt>
      <trkpt lat="43.368434" lon="-5.851618">
        <ele>270.0</ele>
        <time>2012-05-29T12:25:15Z</time>
      </trkpt>
      <trkpt lat="43.368297" lon="-5.851781">
        <ele>270.0</ele>
        <time>2012-05-29T12:25:18Z</time>
      </trkpt>
      <trkpt lat="43.367931" lon="-5.852217">
        <ele>271.0</ele>
        <time>2012-05-29T12:25:26Z</time>
      </trkpt>
      <trkpt lat="43.36766" lon="-5.852679">
        <ele>271.0</ele>
        <time>2012-05-29T12:25:33Z</time>
      </trkpt>
      <trkpt lat="43.367694" lon="-5.85305">
        <ele>272.0</ele>
        <time>2012-05-29T12:25:38Z</time>
      </trkpt>
      <trkpt lat="43.36788" lon="-5.853549">
        <ele>270.0</ele>
        <time>2012-05-29T12:25:46Z</time>
      </trkpt>
      <trkpt lat="43.368114" lon="-5.853662">
        <ele>268.0</ele>
        <time>2012-05-29T12:25:51Z</time>
      </trkpt>
      <trkpt lat="43.368337" lon="-5.853766">
        <ele>268.0</ele>
        <time>2012-05-29T12:25:55Z</time>
      </trkpt>
      <trkpt lat="43.368497" lon="-5.853854">
        <ele>269.0</ele>
        <time>2012-05-29T12:25:59Z</time>
      </trkpt>
      <trkpt lat="43.368574" lon="-5.853877">
        <ele>269.0</ele>
        <time>2012-05-29T12:26:02Z</time>
      </trkpt>
      <trkpt lat="43.368732" lon="-5.853783">
        <ele>269.0</ele>
        <time>2012-05-29T12:26:06Z</time>
      </trkpt>
      <trkpt lat="43.368926" lon="-5.853677">
        <ele>272.0</ele>
        <time>2012-05-29T12:26:10Z</time>
      </trkpt>
      <trkpt lat="43.369098" lon="-5.853539">
        <ele>273.0</ele>
        <time>2012-05-29T12:26:14Z</time>
      </trkpt>
      <trkpt lat="43.369435" lon="-5.853297">
        <ele>274.0</ele>
        <time>2012-05-29T12:26:22Z</time>
      </trkpt>
      <trkpt lat="43.369599" lon="-5.853172">
        <ele>274.0</ele>
        <time>2012-05-29T12:26:26Z</time>
      </trkpt>
      <trkpt lat="43.369845" lon="-5.853126">
        <ele>275.0</ele>
        <time>2012-05-29T12:26:31Z</time>
      </trkpt>
      <trkpt lat="43.370004" lon="-5.853312">
        <ele>275.0</ele>
        <time>2012-05-29T12:26:34Z</time>
      </trkpt>
      <trkpt lat="43.370174" lon="-5.853476">
        <ele>275.0</ele>
        <time>2012-05-29T12:26:38Z</time>
      </trkpt>
      <trkpt lat="43.370312" lon="-5.853605">
        <ele>275.0</ele>
        <time>2012-05-29T12:26:42Z</time>
      </trkpt>
      <trkpt lat="43.370398" lon="-5.853773">
        <ele>276.0</ele>
        <time>2012-05-29T12:26:46Z</time>
      </trkpt>
      <trkpt lat="43.37049" lon="-5.853918">
        <ele>277.0</ele>
        <time>2012-05-29T12:26:50Z</time>
      </trkpt>
      <trkpt lat="43.37057" lon="-5.854088">
        <ele>278.0</ele>
        <time>2012-05-29T12:26:54Z</time>
      </trkpt>
      <trkpt lat="43.37065" lon="-5.854274">
        <ele>279.0</ele>
        <time>2012-05-29T12:26:58Z</time>
      </trkpt>
      <trkpt lat="43.370727" lon="-5.854468">
        <ele>279.0</ele>
        <time>2012-05-29T12:27:02Z</time>
      </trkpt>
      <trkpt lat="43.370774" lon="-5.854648">
        <ele>279.0</ele>
        <time>2012-05-29T12:27:06Z</time>
      </trkpt>
      <trkpt lat="43.37083" lon="-5.854824">
        <ele>279.0</ele>
        <time>2012-05-29T12:27:10Z</time>
      </trkpt>
      <trkpt lat="43.370911" lon="-5.855001">
        <ele>279.0</ele>
        <time>2012-05-29T12:27:14Z</time>
      </trkpt>
      <trkpt lat="43.370974" lon="-5.855199">
        <ele>279.0</ele>
        <time>2012-05-29T12:27:18Z</time>
      </trkpt>
      <trkpt lat="43.371026" lon="-5.8554">
        <ele>279.0</ele>
        <time>2012-05-29T12:27:22Z</time>
      </trkpt>
      <trkpt lat="43.371071" lon="-5.855596">
        <ele>280.0</ele>
        <time>2012-05-29T12:27:26Z</time>
      </trkpt>
      <trkpt lat="43.371071" lon="-5.855827">
        <ele>280.0</ele>
        <time>2012-05-29T12:27:31Z</time>
      </trkpt>
      <trkpt lat="43.371067" lon="-5.855943">
        <ele>280.0</ele>
        <time>2012-05-29T12:27:34Z</time>
      </trkpt>
      <trkpt lat="43.371084" lon="-5.856044">
        <ele>280.0</ele>
        <time>2012-05-29T12:27:37Z</time>
      </trkpt>
      <trkpt lat="43.370973" lon="-5.856153">
        <ele>280.0</ele>
        <time>2012-05-29T12:27:43Z</time>
      </trkpt>
      <trkpt lat="43.370815" lon="-5.856264">
        <ele>281.0</ele>
        <time>2012-05-29T12:27:47Z</time>
      </trkpt>
      <trkpt lat="43.370524" lon="-5.856405">
        <ele>284.0</ele>
        <time>2012-05-29T12:27:51Z</time>
      </trkpt>
      <trkpt lat="43.370369" lon="-5.856532">
        <ele>286.0</ele>
        <time>2012-05-29T12:27:54Z</time>
      </trkpt>
      <trkpt lat="43.370265" lon="-5.856772">
        <ele>288.0</ele>
        <time>2012-05-29T12:27:58Z</time>
      </trkpt>
      <trkpt lat="43.370274" lon="-5.856995">
        <ele>289.0</ele>
        <time>2012-05-29T12:28:02Z</time>
      </trkpt>
      <trkpt lat="43.370339" lon="-5.857187">
        <ele>289.0</ele>
        <time>2012-05-29T12:28:07Z</time>
      </trkpt>
      <trkpt lat="43.370374" lon="-5.857288">
        <ele>289.0</ele>
        <time>2012-05-29T12:28:10Z</time>
      </trkpt>
      <trkpt lat="43.370407" lon="-5.857396">
        <ele>289.0</ele>
        <time>2012-05-29T12:28:13Z</time>
      </trkpt>
      <trkpt lat="43.370599" lon="-5.857732">
        <ele>290.0</ele>
        <time>2012-05-29T12:28:23Z</time>
      </trkpt>
      <trkpt lat="43.370659" lon="-5.857762">
        <ele>290.0</ele>
        <time>2012-05-29T12:28:25Z</time>
      </trkpt>
      <trkpt lat="43.370801" lon="-5.857849">
        <ele>291.0</ele>
        <time>2012-05-29T12:28:30Z</time>
      </trkpt>
      <trkpt lat="43.370942" lon="-5.857854">
        <ele>291.0</ele>
        <time>2012-05-29T12:28:34Z</time>
      </trkpt>
      <trkpt lat="43.371089" lon="-5.857865">
        <ele>291.0</ele>
        <time>2012-05-29T12:28:38Z</time>
      </trkpt>
      <trkpt lat="43.371241" lon="-5.857865">
        <ele>292.0</ele>
        <time>2012-05-29T12:28:42Z</time>
      </trkpt>
      <trkpt lat="43.371387" lon="-5.857866">
        <ele>292.0</ele>
        <time>2012-05-29T12:28:46Z</time>
      </trkpt>
      <trkpt lat="43.371535" lon="-5.857949">
        <ele>292.0</ele>
        <time>2012-05-29T12:28:51Z</time>
      </trkpt>
      <trkpt lat="43.371593" lon="-5.858024">
        <ele>293.0</ele>
        <time>2012-05-29T12:28:54Z</time>
      </trkpt>
      <trkpt lat="43.371608" lon="-5.858117">
        <ele>293.0</ele>
        <time>2012-05-29T12:28:57Z</time>
      </trkpt>
      <trkpt lat="43.371605" lon="-5.858258">
        <ele>294.0</ele>
        <time>2012-05-29T12:29:04Z</time>
      </trkpt>
      <trkpt lat="43.371598" lon="-5.858406">
        <ele>295.0</ele>
        <time>2012-05-29T12:29:09Z</time>
      </trkpt>
      <trkpt lat="43.371605" lon="-5.858658">
        <ele>298.0</ele>
        <time>2012-05-29T12:29:14Z</time>
      </trkpt>
      <trkpt lat="43.371687" lon="-5.859182">
        <ele>301.0</ele>
        <time>2012-05-29T12:29:22Z</time>
      </trkpt>
      <trkpt lat="43.371722" lon="-5.859319">
        <ele>301.0</ele>
        <time>2012-05-29T12:29:24Z</time>
      </trkpt>
      <trkpt lat="43.371788" lon="-5.859588">
        <ele>302.0</ele>
        <time>2012-05-29T12:29:28Z</time>
      </trkpt>
      <trkpt lat="43.371974" lon="-5.859936">
        <ele>302.0</ele>
        <time>2012-05-29T12:29:34Z</time>
      </trkpt>
      <trkpt lat="43.372326" lon="-5.860335">
        <ele>303.0</ele>
        <time>2012-05-29T12:29:42Z</time>
      </trkpt>
      <trkpt lat="43.372496" lon="-5.86055">
        <ele>303.0</ele>
        <time>2012-05-29T12:29:46Z</time>
      </trkpt>
      <trkpt lat="43.372674" lon="-5.860735">
        <ele>304.0</ele>
        <time>2012-05-29T12:29:50Z</time>
      </trkpt>
      <trkpt lat="43.372847" lon="-5.86091">
        <ele>304.0</ele>
        <time>2012-05-29T12:29:54Z</time>
      </trkpt>
      <trkpt lat="43.372984" lon="-5.861101">
        <ele>304.0</ele>
        <time>2012-05-29T12:29:58Z</time>
      </trkpt>
      <trkpt lat="43.373056" lon="-5.861286">
        <ele>305.0</ele>
        <time>2012-05-29T12:30:02Z</time>
      </trkpt>
      <trkpt lat="43.373115" lon="-5.861497">
        <ele>306.0</ele>
        <time>2012-05-29T12:30:07Z</time>
      </trkpt>
      <trkpt lat="43.373143" lon="-5.861623">
        <ele>306.0</ele>
        <time>2012-05-29T12:30:10Z</time>
      </trkpt>
      <trkpt lat="43.373221" lon="-5.861785">
        <ele>307.0</ele>
        <time>2012-05-29T12:30:14Z</time>
      </trkpt>
      <trkpt lat="43.373333" lon="-5.861938">
        <ele>307.0</ele>
        <time>2012-05-29T12:30:18Z</time>
      </trkpt>
      <trkpt lat="43.373466" lon="-5.862063">
        <ele>307.0</ele>
        <time>2012-05-29T12:30:22Z</time>
      </trkpt>
      <trkpt lat="43.373624" lon="-5.862145">
        <ele>308.0</ele>
        <time>2012-05-29T12:30:26Z</time>
      </trkpt>
      <trkpt lat="43.373786" lon="-5.862194">
        <ele>309.0</ele>
        <time>2012-05-29T12:30:30Z</time>
      </trkpt>
      <trkpt lat="43.373944" lon="-5.862217">
        <ele>309.0</ele>
        <time>2012-05-29T12:30:34Z</time>
      </trkpt>
      <trkpt lat="43.374095" lon="-5.862233">
        <ele>310.0</ele>
        <time>2012-05-29T12:30:38Z</time>
      </trkpt>
      <trkpt lat="43.374236" lon="-5.86229">
        <ele>311.0</ele>
        <time>2012-05-29T12:30:42Z</time>
      </trkpt>
      <trkpt lat="43.374367" lon="-5.862369">
        <ele>311.0</ele>
        <time>2012-05-29T12:30:46Z</time>
      </trkpt>
      <trkpt lat="43.374528" lon="-5.862743">
        <ele>313.0</ele>
        <time>2012-05-29T12:30:54Z</time>
      </trkpt>
      <trkpt lat="43.37458" lon="-5.862988">
        <ele>314.0</ele>
        <time>2012-05-29T12:30:58Z</time>
      </trkpt>
      <trkpt lat="43.374642" lon="-5.863238">
        <ele>315.0</ele>
        <time>2012-05-29T12:31:02Z</time>
      </trkpt>
      <trkpt lat="43.374722" lon="-5.863483">
        <ele>316.0</ele>
        <time>2012-05-29T12:31:06Z</time>
      </trkpt>
      <trkpt lat="43.374806" lon="-5.863731">
        <ele>317.0</ele>
        <time>2012-05-29T12:31:10Z</time>
      </trkpt>
      <trkpt lat="43.374904" lon="-5.86396">
        <ele>318.0</ele>
        <time>2012-05-29T12:31:14Z</time>
      </trkpt>
      <trkpt lat="43.375039" lon="-5.864133">
        <ele>319.0</ele>
        <time>2012-05-29T12:31:18Z</time>
      </trkpt>
      <trkpt lat="43.37521" lon="-5.864193">
        <ele>319.0</ele>
        <time>2012-05-29T12:31:22Z</time>
      </trkpt>
      <trkpt lat="43.375366" lon="-5.864183">
        <ele>320.0</ele>
        <time>2012-05-29T12:31:26Z</time>
      </trkpt>
      <trkpt lat="43.375535" lon="-5.86418">
        <ele>321.0</ele>
        <time>2012-05-29T12:31:30Z</time>
      </trkpt>
      <trkpt lat="43.375709" lon="-5.864182">
        <ele>321.0</ele>
        <time>2012-05-29T12:31:34Z</time>
      </trkpt>
      <trkpt lat="43.375891" lon="-5.864187">
        <ele>322.0</ele>
        <time>2012-05-29T12:31:38Z</time>
      </trkpt>
      <trkpt lat="43.376074" lon="-5.864211">
        <ele>322.0</ele>
        <time>2012-05-29T12:31:42Z</time>
      </trkpt>
      <trkpt lat="43.376223" lon="-5.864339">
        <ele>323.0</ele>
        <time>2012-05-29T12:31:46Z</time>
      </trkpt>
      <trkpt lat="43.376405" lon="-5.864733">
        <ele>324.0</ele>
        <time>2012-05-29T12:31:54Z</time>
      </trkpt>
      <trkpt lat="43.37649" lon="-5.864926">
        <ele>324.0</ele>
        <time>2012-05-29T12:31:58Z</time>
      </trkpt>
      <trkpt lat="43.37658" lon="-5.865115">
        <ele>324.0</ele>
        <time>2012-05-29T12:32:02Z</time>
      </trkpt>
      <trkpt lat="43.376693" lon="-5.865297">
        <ele>324.0</ele>
        <time>2012-05-29T12:32:06Z</time>
      </trkpt>
      <trkpt lat="43.376756" lon="-5.865385">
        <ele>324.0</ele>
        <time>2012-05-29T12:32:08Z</time>
      </trkpt>
      <trkpt lat="43.376937" lon="-5.865655">
        <ele>326.0</ele>
        <time>2012-05-29T12:32:14Z</time>
      </trkpt>
      <trkpt lat="43.377059" lon="-5.865834">
        <ele>327.0</ele>
        <time>2012-05-29T12:32:18Z</time>
      </trkpt>
      <trkpt lat="43.37718" lon="-5.865998">
        <ele>327.0</ele>
        <time>2012-05-29T12:32:22Z</time>
      </trkpt>
      <trkpt lat="43.3773" lon="-5.866157">
        <ele>328.0</ele>
        <time>2012-05-29T12:32:26Z</time>
      </trkpt>
      <trkpt lat="43.377424" lon="-5.866317">
        <ele>328.0</ele>
        <time>2012-05-29T12:32:30Z</time>
      </trkpt>
      <trkpt lat="43.377488" lon="-5.866391">
        <ele>328.0</ele>
        <time>2012-05-29T12:32:32Z</time>
      </trkpt>
      <trkpt lat="43.377699" lon="-5.866309">
        <ele>330.0</ele>
        <time>2012-05-29T12:32:38Z</time>
      </trkpt>
      <trkpt lat="43.377784" lon="-5.866059">
        <ele>331.0</ele>
        <time>2012-05-29T12:32:42Z</time>
      </trkpt>
      <trkpt lat="43.377824" lon="-5.8658">
        <ele>332.0</ele>
        <time>2012-05-29T12:32:46Z</time>
      </trkpt>
      <trkpt lat="43.377852" lon="-5.865577">
        <ele>334.0</ele>
        <time>2012-05-29T12:32:50Z</time>
      </trkpt>
      <trkpt lat="43.377872" lon="-5.865363">
        <ele>335.0</ele>
        <time>2012-05-29T12:32:54Z</time>
      </trkpt>
      <trkpt lat="43.377933" lon="-5.865193">
        <ele>335.0</ele>
        <time>2012-05-29T12:32:58Z</time>
      </trkpt>
      <trkpt lat="43.378058" lon="-5.865048">
        <ele>336.0</ele>
        <time>2012-05-29T12:33:03Z</time>
      </trkpt>
      <trkpt lat="43.378114" lon="-5.864993">
        <ele>337.0</ele>
        <time>2012-05-29T12:33:05Z</time>
      </trkpt>
      <trkpt lat="43.378245" lon="-5.864869">
        <ele>339.0</ele>
        <time>2012-05-29T12:33:10Z</time>
      </trkpt>
      <trkpt lat="43.378369" lon="-5.864769">
        <ele>340.0</ele>
        <time>2012-05-29T12:33:14Z</time>
      </trkpt>
      <trkpt lat="43.378497" lon="-5.864657">
        <ele>341.0</ele>
        <time>2012-05-29T12:33:18Z</time>
      </trkpt>
      <trkpt lat="43.378554" lon="-5.864583">
        <ele>341.0</ele>
        <time>2012-05-29T12:33:20Z</time>
      </trkpt>
      <trkpt lat="43.378658" lon="-5.864297">
        <ele>342.0</ele>
        <time>2012-05-29T12:33:26Z</time>
      </trkpt>
      <trkpt lat="43.378605" lon="-5.864066">
        <ele>343.0</ele>
        <time>2012-05-29T12:33:30Z</time>
      </trkpt>
      <trkpt lat="43.378548" lon="-5.863856">
        <ele>344.0</ele>
        <time>2012-05-29T12:33:34Z</time>
      </trkpt>
      <trkpt lat="43.378494" lon="-5.863643">
        <ele>346.0</ele>
        <time>2012-05-29T12:33:38Z</time>
      </trkpt>
      <trkpt lat="43.378456" lon="-5.863439">
        <ele>348.0</ele>
        <time>2012-05-29T12:33:42Z</time>
      </trkpt>
      <trkpt lat="43.378442" lon="-5.86324">
        <ele>350.0</ele>
        <time>2012-05-29T12:33:46Z</time>
      </trkpt>
      <trkpt lat="43.378447" lon="-5.863051">
        <ele>351.0</ele>
        <time>2012-05-29T12:33:50Z</time>
      </trkpt>
      <trkpt lat="43.378481" lon="-5.862873">
        <ele>351.0</ele>
        <time>2012-05-29T12:33:54Z</time>
      </trkpt>
      <trkpt lat="43.378628" lon="-5.862846">
        <ele>354.0</ele>
        <time>2012-05-29T12:33:58Z</time>
      </trkpt>
      <trkpt lat="43.378754" lon="-5.863116">
        <ele>358.0</ele>
        <time>2012-05-29T12:34:02Z</time>
      </trkpt>
      <trkpt lat="43.378828" lon="-5.863505">
        <ele>369.0</ele>
        <time>2012-05-29T12:34:07Z</time>
      </trkpt>
      <trkpt lat="43.378871" lon="-5.863816">
        <ele>375.0</ele>
        <time>2012-05-29T12:34:11Z</time>
      </trkpt>
      <trkpt lat="43.378919" lon="-5.86409">
        <ele>379.0</ele>
        <time>2012-05-29T12:34:15Z</time>
      </trkpt>
      <trkpt lat="43.378991" lon="-5.86433">
        <ele>381.0</ele>
        <time>2012-05-29T12:34:19Z</time>
      </trkpt>
      <trkpt lat="43.379102" lon="-5.864515">
        <ele>384.0</ele>
        <time>2012-05-29T12:34:23Z</time>
      </trkpt>
      <trkpt lat="43.379211" lon="-5.864691">
        <ele>385.0</ele>
        <time>2012-05-29T12:34:27Z</time>
      </trkpt>
      <trkpt lat="43.379318" lon="-5.864866">
        <ele>386.0</ele>
        <time>2012-05-29T12:34:31Z</time>
      </trkpt>
      <trkpt lat="43.37937" lon="-5.865086">
        <ele>386.0</ele>
        <time>2012-05-29T12:34:35Z</time>
      </trkpt>
      <trkpt lat="43.379437" lon="-5.865571">
        <ele>388.0</ele>
        <time>2012-05-29T12:34:43Z</time>
      </trkpt>
      <trkpt lat="43.379462" lon="-5.865812">
        <ele>389.0</ele>
        <time>2012-05-29T12:34:47Z</time>
      </trkpt>
      <trkpt lat="43.379526" lon="-5.866253">
        <ele>391.0</ele>
        <time>2012-05-29T12:34:55Z</time>
      </trkpt>
      <trkpt lat="43.379695" lon="-5.866633">
        <ele>392.0</ele>
        <time>2012-05-29T12:35:03Z</time>
      </trkpt>
      <trkpt lat="43.379838" lon="-5.866769">
        <ele>392.0</ele>
        <time>2012-05-29T12:35:07Z</time>
      </trkpt>
      <trkpt lat="43.380029" lon="-5.866991">
        <ele>393.0</ele>
        <time>2012-05-29T12:35:13Z</time>
      </trkpt>
      <trkpt lat="43.380204" lon="-5.867211">
        <ele>394.0</ele>
        <time>2012-05-29T12:35:19Z</time>
      </trkpt>
      <trkpt lat="43.380318" lon="-5.867349">
        <ele>394.0</ele>
        <time>2012-05-29T12:35:23Z</time>
      </trkpt>
      <trkpt lat="43.380374" lon="-5.867417">
        <ele>394.0</ele>
        <time>2012-05-29T12:35:25Z</time>
      </trkpt>
      <trkpt lat="43.380522" lon="-5.867636">
        <ele>394.0</ele>
        <time>2012-05-29T12:35:31Z</time>
      </trkpt>
      <trkpt lat="43.38057" lon="-5.867708">
        <ele>394.0</ele>
        <time>2012-05-29T12:35:33Z</time>
      </trkpt>
      <trkpt lat="43.380638" lon="-5.867681">
        <ele>394.0</ele>
        <time>2012-05-29T12:35:37Z</time>
      </trkpt>
      <trkpt lat="43.380601" lon="-5.867447">
        <ele>394.0</ele>
        <time>2012-05-29T12:35:42Z</time>
      </trkpt>
      <trkpt lat="43.38054" lon="-5.867242">
        <ele>395.0</ele>
        <time>2012-05-29T12:35:46Z</time>
      </trkpt>
      <trkpt lat="43.380439" lon="-5.867057">
        <ele>395.0</ele>
        <time>2012-05-29T12:35:50Z</time>
      </trkpt>
      <trkpt lat="43.380391" lon="-5.866966">
        <ele>395.0</ele>
        <time>2012-05-29T12:35:52Z</time>
      </trkpt>
      <trkpt lat="43.38028" lon="-5.866705">
        <ele>396.0</ele>
        <time>2012-05-29T12:35:58Z</time>
      </trkpt>
      <trkpt lat="43.380251" lon="-5.866618">
        <ele>396.0</ele>
        <time>2012-05-29T12:36:00Z</time>
      </trkpt>
      <trkpt lat="43.380195" lon="-5.866454">
        <ele>396.0</ele>
        <time>2012-05-29T12:36:04Z</time>
      </trkpt>
      <trkpt lat="43.380113" lon="-5.866209">
        <ele>397.0</ele>
        <time>2012-05-29T12:36:10Z</time>
      </trkpt>
      <trkpt lat="43.380103" lon="-5.86603">
        <ele>397.0</ele>
        <time>2012-05-29T12:36:14Z</time>
      </trkpt>
      <trkpt lat="43.380122" lon="-5.865848">
        <ele>398.0</ele>
        <time>2012-05-29T12:36:18Z</time>
      </trkpt>
      <trkpt lat="43.380145" lon="-5.865674">
        <ele>398.0</ele>
        <time>2012-05-29T12:36:22Z</time>
      </trkpt>
      <trkpt lat="43.380168" lon="-5.86549">
        <ele>398.0</ele>
        <time>2012-05-29T12:36:26Z</time>
      </trkpt>
      <trkpt lat="43.380193" lon="-5.865308">
        <ele>399.0</ele>
        <time>2012-05-29T12:36:30Z</time>
      </trkpt>
      <trkpt lat="43.380205" lon="-5.865217">
        <ele>399.0</ele>
        <time>2012-05-29T12:36:32Z</time>
      </trkpt>
      <trkpt lat="43.380234" lon="-5.865002">
        <ele>400.0</ele>
        <time>2012-05-29T12:36:37Z</time>
      </trkpt>
      <trkpt lat="43.380273" lon="-5.864791">
        <ele>401.0</ele>
        <time>2012-05-29T12:36:42Z</time>
      </trkpt>
      <trkpt lat="43.380296" lon="-5.864669">
        <ele>401.0</ele>
        <time>2012-05-29T12:36:45Z</time>
      </trkpt>
      <trkpt lat="43.380328" lon="-5.864465">
        <ele>402.0</ele>
        <time>2012-05-29T12:36:50Z</time>
      </trkpt>
      <trkpt lat="43.380361" lon="-5.864257">
        <ele>403.0</ele>
        <time>2012-05-29T12:36:55Z</time>
      </trkpt>
      <trkpt lat="43.380407" lon="-5.86409">
        <ele>403.0</ele>
        <time>2012-05-29T12:36:59Z</time>
      </trkpt>
      <trkpt lat="43.380429" lon="-5.864007">
        <ele>403.0</ele>
        <time>2012-05-29T12:37:01Z</time>
      </trkpt>
      <trkpt lat="43.380476" lon="-5.863802">
        <ele>404.0</ele>
        <time>2012-05-29T12:37:06Z</time>
      </trkpt>
      <trkpt lat="43.380514" lon="-5.863584">
        <ele>405.0</ele>
        <time>2012-05-29T12:37:11Z</time>
      </trkpt>
      <trkpt lat="43.380546" lon="-5.863394">
        <ele>405.0</ele>
        <time>2012-05-29T12:37:15Z</time>
      </trkpt>
      <trkpt lat="43.380546" lon="-5.863207">
        <ele>406.0</ele>
        <time>2012-05-29T12:37:19Z</time>
      </trkpt>
      <trkpt lat="43.380551" lon="-5.863032">
        <ele>406.0</ele>
        <time>2012-05-29T12:37:23Z</time>
      </trkpt>
      <trkpt lat="43.380554" lon="-5.862945">
        <ele>406.0</ele>
        <time>2012-05-29T12:37:25Z</time>
      </trkpt>
      <trkpt lat="43.380579" lon="-5.862682">
        <ele>407.0</ele>
        <time>2012-05-29T12:37:31Z</time>
      </trkpt>
      <trkpt lat="43.380605" lon="-5.86251">
        <ele>407.0</ele>
        <time>2012-05-29T12:37:35Z</time>
      </trkpt>
      <trkpt lat="43.380626" lon="-5.862426">
        <ele>408.0</ele>
        <time>2012-05-29T12:37:37Z</time>
      </trkpt>
      <trkpt lat="43.380691" lon="-5.862188">
        <ele>408.0</ele>
        <time>2012-05-29T12:37:43Z</time>
      </trkpt>
      <trkpt lat="43.380724" lon="-5.862075">
        <ele>409.0</ele>
        <time>2012-05-29T12:37:46Z</time>
      </trkpt>
      <trkpt lat="43.380759" lon="-5.861965">
        <ele>409.0</ele>
        <time>2012-05-29T12:37:49Z</time>
      </trkpt>
      <trkpt lat="43.380817" lon="-5.861734">
        <ele>410.0</ele>
        <time>2012-05-29T12:37:55Z</time>
      </trkpt>
      <trkpt lat="43.380829" lon="-5.861612">
        <ele>410.0</ele>
        <time>2012-05-29T12:37:58Z</time>
      </trkpt>
      <trkpt lat="43.38083" lon="-5.861265">
        <ele>411.0</ele>
        <time>2012-05-29T12:38:07Z</time>
      </trkpt>
      <trkpt lat="43.380829" lon="-5.861155">
        <ele>412.0</ele>
        <time>2012-05-29T12:38:10Z</time>
      </trkpt>
      <trkpt lat="43.380843" lon="-5.860941">
        <ele>413.0</ele>
        <time>2012-05-29T12:38:16Z</time>
      </trkpt>
      <trkpt lat="43.380911" lon="-5.860731">
        <ele>414.0</ele>
        <time>2012-05-29T12:38:22Z</time>
      </trkpt>
      <trkpt lat="43.380957" lon="-5.860618">
        <ele>415.0</ele>
        <time>2012-05-29T12:38:25Z</time>
      </trkpt>
      <trkpt lat="43.381048" lon="-5.860374">
        <ele>416.0</ele>
        <time>2012-05-29T12:38:31Z</time>
      </trkpt>
      <trkpt lat="43.381075" lon="-5.860283">
        <ele>417.0</ele>
        <time>2012-05-29T12:38:34Z</time>
      </trkpt>
      <trkpt lat="43.381104" lon="-5.860173">
        <ele>417.0</ele>
        <time>2012-05-29T12:38:37Z</time>
      </trkpt>
      <trkpt lat="43.381173" lon="-5.859939">
        <ele>419.0</ele>
        <time>2012-05-29T12:38:43Z</time>
      </trkpt>
      <trkpt lat="43.381208" lon="-5.859827">
        <ele>419.0</ele>
        <time>2012-05-29T12:38:46Z</time>
      </trkpt>
      <trkpt lat="43.381243" lon="-5.859714">
        <ele>420.0</ele>
        <time>2012-05-29T12:38:49Z</time>
      </trkpt>
      <trkpt lat="43.381301" lon="-5.859477">
        <ele>420.0</ele>
        <time>2012-05-29T12:38:55Z</time>
      </trkpt>
      <trkpt lat="43.381323" lon="-5.859355">
        <ele>421.0</ele>
        <time>2012-05-29T12:38:58Z</time>
      </trkpt>
      <trkpt lat="43.381349" lon="-5.85923">
        <ele>421.0</ele>
        <time>2012-05-29T12:39:01Z</time>
      </trkpt>
      <trkpt lat="43.38139" lon="-5.858976">
        <ele>422.0</ele>
        <time>2012-05-29T12:39:07Z</time>
      </trkpt>
      <trkpt lat="43.381395" lon="-5.858801">
        <ele>423.0</ele>
        <time>2012-05-29T12:39:11Z</time>
      </trkpt>
      <trkpt lat="43.381396" lon="-5.858673">
        <ele>423.0</ele>
        <time>2012-05-29T12:39:14Z</time>
      </trkpt>
      <trkpt lat="43.381383" lon="-5.858547">
        <ele>424.0</ele>
        <time>2012-05-29T12:39:17Z</time>
      </trkpt>
      <trkpt lat="43.381312" lon="-5.858317">
        <ele>425.0</ele>
        <time>2012-05-29T12:39:23Z</time>
      </trkpt>
      <trkpt lat="43.381231" lon="-5.858096">
        <ele>426.0</ele>
        <time>2012-05-29T12:39:29Z</time>
      </trkpt>
      <trkpt lat="43.38121" lon="-5.857979">
        <ele>427.0</ele>
        <time>2012-05-29T12:39:32Z</time>
      </trkpt>
      <trkpt lat="43.381212" lon="-5.857751">
        <ele>428.0</ele>
        <time>2012-05-29T12:39:38Z</time>
      </trkpt>
      <trkpt lat="43.381232" lon="-5.85764">
        <ele>428.0</ele>
        <time>2012-05-29T12:39:41Z</time>
      </trkpt>
      <trkpt lat="43.381258" lon="-5.857524">
        <ele>429.0</ele>
        <time>2012-05-29T12:39:44Z</time>
      </trkpt>
      <trkpt lat="43.381286" lon="-5.857405">
        <ele>429.0</ele>
        <time>2012-05-29T12:39:47Z</time>
      </trkpt>
      <trkpt lat="43.381367" lon="-5.857118">
        <ele>431.0</ele>
        <time>2012-05-29T12:39:54Z</time>
      </trkpt>
      <trkpt lat="43.38143" lon="-5.85696">
        <ele>432.0</ele>
        <time>2012-05-29T12:39:58Z</time>
      </trkpt>
      <trkpt lat="43.381496" lon="-5.856805">
        <ele>433.0</ele>
        <time>2012-05-29T12:40:02Z</time>
      </trkpt>
      <trkpt lat="43.381566" lon="-5.856657">
        <ele>434.0</ele>
        <time>2012-05-29T12:40:06Z</time>
      </trkpt>
      <trkpt lat="43.381633" lon="-5.856505">
        <ele>435.0</ele>
        <time>2012-05-29T12:40:10Z</time>
      </trkpt>
      <trkpt lat="43.381699" lon="-5.856353">
        <ele>436.0</ele>
        <time>2012-05-29T12:40:14Z</time>
      </trkpt>
      <trkpt lat="43.381774" lon="-5.856207">
        <ele>437.0</ele>
        <time>2012-05-29T12:40:18Z</time>
      </trkpt>
      <trkpt lat="43.38185" lon="-5.856066">
        <ele>438.0</ele>
        <time>2012-05-29T12:40:22Z</time>
      </trkpt>
      <trkpt lat="43.382031" lon="-5.855831">
        <ele>441.0</ele>
        <time>2012-05-29T12:40:30Z</time>
      </trkpt>
      <trkpt lat="43.38215" lon="-5.855752">
        <ele>441.0</ele>
        <time>2012-05-29T12:40:34Z</time>
      </trkpt>
      <trkpt lat="43.38229" lon="-5.855653">
        <ele>442.0</ele>
        <time>2012-05-29T12:40:39Z</time>
      </trkpt>
      <trkpt lat="43.38236" lon="-5.855574">
        <ele>443.0</ele>
        <time>2012-05-29T12:40:42Z</time>
      </trkpt>
      <trkpt lat="43.382423" lon="-5.855483">
        <ele>443.0</ele>
        <time>2012-05-29T12:40:45Z</time>
      </trkpt>
      <trkpt lat="43.382503" lon="-5.855292">
        <ele>444.0</ele>
        <time>2012-05-29T12:40:50Z</time>
      </trkpt>
      <trkpt lat="43.382547" lon="-5.855107">
        <ele>445.0</ele>
        <time>2012-05-29T12:40:54Z</time>
      </trkpt>
      <trkpt lat="43.382576" lon="-5.854899">
        <ele>446.0</ele>
        <time>2012-05-29T12:40:58Z</time>
      </trkpt>
      <trkpt lat="43.382592" lon="-5.854706">
        <ele>446.0</ele>
        <time>2012-05-29T12:41:02Z</time>
      </trkpt>
      <trkpt lat="43.382603" lon="-5.854525">
        <ele>447.0</ele>
        <time>2012-05-29T12:41:06Z</time>
      </trkpt>
      <trkpt lat="43.382612" lon="-5.854277">
        <ele>448.0</ele>
        <time>2012-05-29T12:41:11Z</time>
      </trkpt>
      <trkpt lat="43.382606" lon="-5.854166">
        <ele>449.0</ele>
        <time>2012-05-29T12:41:14Z</time>
      </trkpt>
      <trkpt lat="43.382583" lon="-5.854073">
        <ele>450.0</ele>
        <time>2012-05-29T12:41:17Z</time>
      </trkpt>
      <trkpt lat="43.382543" lon="-5.853893">
        <ele>452.0</ele>
        <time>2012-05-29T12:41:23Z</time>
      </trkpt>
      <trkpt lat="43.382546" lon="-5.853789">
        <ele>453.0</ele>
        <time>2012-05-29T12:41:26Z</time>
      </trkpt>
      <trkpt lat="43.382553" lon="-5.853679">
        <ele>454.0</ele>
        <time>2012-05-29T12:41:29Z</time>
      </trkpt>
      <trkpt lat="43.38258" lon="-5.853456">
        <ele>456.0</ele>
        <time>2012-05-29T12:41:35Z</time>
      </trkpt>
      <trkpt lat="43.382589" lon="-5.853347">
        <ele>457.0</ele>
        <time>2012-05-29T12:41:38Z</time>
      </trkpt>
      <trkpt lat="43.382604" lon="-5.85323">
        <ele>458.0</ele>
        <time>2012-05-29T12:41:41Z</time>
      </trkpt>
      <trkpt lat="43.382659" lon="-5.852994">
        <ele>461.0</ele>
        <time>2012-05-29T12:41:47Z</time>
      </trkpt>
      <trkpt lat="43.382712" lon="-5.85283">
        <ele>462.0</ele>
        <time>2012-05-29T12:41:51Z</time>
      </trkpt>
      <trkpt lat="43.382768" lon="-5.85267">
        <ele>465.0</ele>
        <time>2012-05-29T12:41:55Z</time>
      </trkpt>
      <trkpt lat="43.382826" lon="-5.852506">
        <ele>467.0</ele>
        <time>2012-05-29T12:41:59Z</time>
      </trkpt>
      <trkpt lat="43.382875" lon="-5.852336">
        <ele>469.0</ele>
        <time>2012-05-29T12:42:03Z</time>
      </trkpt>
      <trkpt lat="43.382918" lon="-5.85217">
        <ele>471.0</ele>
        <time>2012-05-29T12:42:07Z</time>
      </trkpt>
      <trkpt lat="43.382963" lon="-5.852008">
        <ele>473.0</ele>
        <time>2012-05-29T12:42:11Z</time>
      </trkpt>
      <trkpt lat="43.382999" lon="-5.851895">
        <ele>474.0</ele>
        <time>2012-05-29T12:42:14Z</time>
      </trkpt>
      <trkpt lat="43.383034" lon="-5.851781">
        <ele>476.0</ele>
        <time>2012-05-29T12:42:17Z</time>
      </trkpt>
      <trkpt lat="43.383128" lon="-5.851586">
        <ele>478.0</ele>
        <time>2012-05-29T12:42:23Z</time>
      </trkpt>
      <trkpt lat="43.383179" lon="-5.851501">
        <ele>480.0</ele>
        <time>2012-05-29T12:42:26Z</time>
      </trkpt>
      <trkpt lat="43.383227" lon="-5.851416">
        <ele>481.0</ele>
        <time>2012-05-29T12:42:29Z</time>
      </trkpt>
      <trkpt lat="43.383332" lon="-5.851254">
        <ele>483.0</ele>
        <time>2012-05-29T12:42:35Z</time>
      </trkpt>
      <trkpt lat="43.383476" lon="-5.8512">
        <ele>485.0</ele>
        <time>2012-05-29T12:42:39Z</time>
      </trkpt>
      <trkpt lat="43.383708" lon="-5.85118">
        <ele>486.0</ele>
        <time>2012-05-29T12:42:43Z</time>
      </trkpt>
      <trkpt lat="43.38412" lon="-5.851193">
        <ele>489.0</ele>
        <time>2012-05-29T12:42:54Z</time>
      </trkpt>
      <trkpt lat="43.384187" lon="-5.851188">
        <ele>489.0</ele>
        <time>2012-05-29T12:42:56Z</time>
      </trkpt>
      <trkpt lat="43.384508" lon="-5.851158">
        <ele>491.0</ele>
        <time>2012-05-29T12:43:06Z</time>
      </trkpt>
      <trkpt lat="43.384598" lon="-5.851128">
        <ele>492.0</ele>
        <time>2012-05-29T12:43:09Z</time>
      </trkpt>
      <trkpt lat="43.384683" lon="-5.851071">
        <ele>492.0</ele>
        <time>2012-05-29T12:43:12Z</time>
      </trkpt>
      <trkpt lat="43.384854" lon="-5.850873">
        <ele>493.0</ele>
        <time>2012-05-29T12:43:19Z</time>
      </trkpt>
      <trkpt lat="43.385011" lon="-5.85074">
        <ele>493.0</ele>
        <time>2012-05-29T12:43:25Z</time>
      </trkpt>
      <trkpt lat="43.385165" lon="-5.850616">
        <ele>494.0</ele>
        <time>2012-05-29T12:43:31Z</time>
      </trkpt>
      <trkpt lat="43.385233" lon="-5.85054">
        <ele>494.0</ele>
        <time>2012-05-29T12:43:34Z</time>
      </trkpt>
      <trkpt lat="43.385292" lon="-5.850444">
        <ele>494.0</ele>
        <time>2012-05-29T12:43:37Z</time>
      </trkpt>
      <trkpt lat="43.385381" lon="-5.85026">
        <ele>495.0</ele>
        <time>2012-05-29T12:43:42Z</time>
      </trkpt>
      <trkpt lat="43.385448" lon="-5.850101">
        <ele>495.0</ele>
        <time>2012-05-29T12:43:46Z</time>
      </trkpt>
      <trkpt lat="43.385472" lon="-5.850004">
        <ele>495.0</ele>
        <time>2012-05-29T12:43:48Z</time>
      </trkpt>
      <trkpt lat="43.385529" lon="-5.849735">
        <ele>496.0</ele>
        <time>2012-05-29T12:43:54Z</time>
      </trkpt>
      <trkpt lat="43.385556" lon="-5.84956">
        <ele>496.0</ele>
        <time>2012-05-29T12:43:58Z</time>
      </trkpt>
      <trkpt lat="43.38558" lon="-5.84944">
        <ele>497.0</ele>
        <time>2012-05-29T12:44:01Z</time>
      </trkpt>
      <trkpt lat="43.385672" lon="-5.849257">
        <ele>497.0</ele>
        <time>2012-05-29T12:44:07Z</time>
      </trkpt>
      <trkpt lat="43.38573" lon="-5.849192">
        <ele>498.0</ele>
        <time>2012-05-29T12:44:10Z</time>
      </trkpt>
      <trkpt lat="43.385794" lon="-5.849127">
        <ele>498.0</ele>
        <time>2012-05-29T12:44:14Z</time>
      </trkpt>
      <trkpt lat="43.386069" lon="-5.848993">
        <ele>500.0</ele>
        <time>2012-05-29T12:44:27Z</time>
      </trkpt>
      <trkpt lat="43.386143" lon="-5.848966">
        <ele>500.0</ele>
        <time>2012-05-29T12:44:30Z</time>
      </trkpt>
      <trkpt lat="43.386222" lon="-5.848944">
        <ele>500.0</ele>
        <time>2012-05-29T12:44:33Z</time>
      </trkpt>
      <trkpt lat="43.386387" lon="-5.848912">
        <ele>501.0</ele>
        <time>2012-05-29T12:44:39Z</time>
      </trkpt>
      <trkpt lat="43.386557" lon="-5.848888">
        <ele>501.0</ele>
        <time>2012-05-29T12:44:45Z</time>
      </trkpt>
      <trkpt lat="43.386725" lon="-5.848845">
        <ele>501.0</ele>
        <time>2012-05-29T12:44:51Z</time>
      </trkpt>
      <trkpt lat="43.386809" lon="-5.848828">
        <ele>501.0</ele>
        <time>2012-05-29T12:44:54Z</time>
      </trkpt>
      <trkpt lat="43.386897" lon="-5.848821">
        <ele>501.0</ele>
        <time>2012-05-29T12:44:57Z</time>
      </trkpt>
      <trkpt lat="43.387075" lon="-5.848834">
        <ele>501.0</ele>
        <time>2012-05-29T12:45:03Z</time>
      </trkpt>
      <trkpt lat="43.387166" lon="-5.848848">
        <ele>501.0</ele>
        <time>2012-05-29T12:45:06Z</time>
      </trkpt>
      <trkpt lat="43.387256" lon="-5.848874">
        <ele>501.0</ele>
        <time>2012-05-29T12:45:09Z</time>
      </trkpt>
      <trkpt lat="43.387425" lon="-5.848943">
        <ele>501.0</ele>
        <time>2012-05-29T12:45:15Z</time>
      </trkpt>
      <trkpt lat="43.387609" lon="-5.8492">
        <ele>502.0</ele>
        <time>2012-05-29T12:45:22Z</time>
      </trkpt>
      <trkpt lat="43.387657" lon="-5.849596">
        <ele>504.0</ele>
        <time>2012-05-29T12:45:27Z</time>
      </trkpt>
      <trkpt lat="43.387604" lon="-5.850004">
        <ele>506.0</ele>
        <time>2012-05-29T12:45:31Z</time>
      </trkpt>
      <trkpt lat="43.387559" lon="-5.85029">
        <ele>508.0</ele>
        <time>2012-05-29T12:45:35Z</time>
      </trkpt>
      <trkpt lat="43.387529" lon="-5.850496">
        <ele>509.0</ele>
        <time>2012-05-29T12:45:39Z</time>
      </trkpt>
      <trkpt lat="43.387515" lon="-5.850581">
        <ele>510.0</ele>
        <time>2012-05-29T12:45:41Z</time>
      </trkpt>
      <trkpt lat="43.387501" lon="-5.850806">
        <ele>512.0</ele>
        <time>2012-05-29T12:45:47Z</time>
      </trkpt>
      <trkpt lat="43.387488" lon="-5.850912">
        <ele>512.0</ele>
        <time>2012-05-29T12:45:50Z</time>
      </trkpt>
      <trkpt lat="43.387453" lon="-5.851117">
        <ele>514.0</ele>
        <time>2012-05-29T12:45:55Z</time>
      </trkpt>
      <trkpt lat="43.38744" lon="-5.851204">
        <ele>514.0</ele>
        <time>2012-05-29T12:45:57Z</time>
      </trkpt>
      <trkpt lat="43.387394" lon="-5.851407">
        <ele>515.0</ele>
        <time>2012-05-29T12:46:02Z</time>
      </trkpt>
      <trkpt lat="43.387368" lon="-5.851511">
        <ele>516.0</ele>
        <time>2012-05-29T12:46:05Z</time>
      </trkpt>
      <trkpt lat="43.387329" lon="-5.851704">
        <ele>517.0</ele>
        <time>2012-05-29T12:46:11Z</time>
      </trkpt>
      <trkpt lat="43.387342" lon="-5.851809">
        <ele>518.0</ele>
        <time>2012-05-29T12:46:15Z</time>
      </trkpt>
      <trkpt lat="43.387401" lon="-5.851842">
        <ele>519.0</ele>
        <time>2012-05-29T12:46:18Z</time>
      </trkpt>
      <trkpt lat="43.387595" lon="-5.85174">
        <ele>519.0</ele>
        <time>2012-05-29T12:46:21Z</time>
      </trkpt>
      <trkpt lat="43.387908" lon="-5.851563">
        <ele>520.0</ele>
        <time>2012-05-29T12:46:27Z</time>
      </trkpt>
      <trkpt lat="43.38805" lon="-5.851462">
        <ele>521.0</ele>
        <time>2012-05-29T12:46:31Z</time>
      </trkpt>
      <trkpt lat="43.388176" lon="-5.851378">
        <ele>521.0</ele>
        <time>2012-05-29T12:46:35Z</time>
      </trkpt>
      <trkpt lat="43.388237" lon="-5.851344">
        <ele>521.0</ele>
        <time>2012-05-29T12:46:37Z</time>
      </trkpt>
      <trkpt lat="43.388392" lon="-5.851336">
        <ele>520.0</ele>
        <time>2012-05-29T12:46:43Z</time>
      </trkpt>
      <trkpt lat="43.388456" lon="-5.85141">
        <ele>520.0</ele>
        <time>2012-05-29T12:46:47Z</time>
      </trkpt>
      <trkpt lat="43.38849" lon="-5.851484">
        <ele>520.0</ele>
        <time>2012-05-29T12:46:50Z</time>
      </trkpt>
      <trkpt lat="43.388517" lon="-5.85157">
        <ele>520.0</ele>
        <time>2012-05-29T12:46:53Z</time>
      </trkpt>
      <trkpt lat="43.388549" lon="-5.851765">
        <ele>520.0</ele>
        <time>2012-05-29T12:46:59Z</time>
      </trkpt>
      <trkpt lat="43.388557" lon="-5.851895">
        <ele>520.0</ele>
        <time>2012-05-29T12:47:02Z</time>
      </trkpt>
      <trkpt lat="43.388577" lon="-5.852112">
        <ele>520.0</ele>
        <time>2012-05-29T12:47:06Z</time>
      </trkpt>
      <trkpt lat="43.388586" lon="-5.852214">
        <ele>520.0</ele>
        <time>2012-05-29T12:47:08Z</time>
      </trkpt>
      <trkpt lat="43.388597" lon="-5.852431">
        <ele>520.0</ele>
        <time>2012-05-29T12:47:13Z</time>
      </trkpt>
      <trkpt lat="43.388603" lon="-5.852554">
        <ele>521.0</ele>
        <time>2012-05-29T12:47:16Z</time>
      </trkpt>
      <trkpt lat="43.388612" lon="-5.852799">
        <ele>521.0</ele>
        <time>2012-05-29T12:47:22Z</time>
      </trkpt>
      <trkpt lat="43.388566" lon="-5.853031">
        <ele>523.0</ele>
        <time>2012-05-29T12:47:26Z</time>
      </trkpt>
      <trkpt lat="43.388499" lon="-5.853286">
        <ele>524.0</ele>
        <time>2012-05-29T12:47:30Z</time>
      </trkpt>
      <trkpt lat="43.388449" lon="-5.853525">
        <ele>526.0</ele>
        <time>2012-05-29T12:47:34Z</time>
      </trkpt>
      <trkpt lat="43.388419" lon="-5.853744">
        <ele>527.0</ele>
        <time>2012-05-29T12:47:38Z</time>
      </trkpt>
      <trkpt lat="43.388394" lon="-5.853986">
        <ele>527.0</ele>
        <time>2012-05-29T12:47:43Z</time>
      </trkpt>
      <trkpt lat="43.388322" lon="-5.854214">
        <ele>528.0</ele>
        <time>2012-05-29T12:47:47Z</time>
      </trkpt>
      <trkpt lat="43.388112" lon="-5.854471">
        <ele>529.0</ele>
        <time>2012-05-29T12:47:51Z</time>
      </trkpt>
      <trkpt lat="43.387821" lon="-5.854695">
        <ele>530.0</ele>
        <time>2012-05-29T12:47:55Z</time>
      </trkpt>
      <trkpt lat="43.3875" lon="-5.854841">
        <ele>530.0</ele>
        <time>2012-05-29T12:47:59Z</time>
      </trkpt>
      <trkpt lat="43.387299" lon="-5.8549">
        <ele>531.0</ele>
        <time>2012-05-29T12:48:02Z</time>
      </trkpt>
      <trkpt lat="43.387069" lon="-5.854951">
        <ele>535.0</ele>
        <time>2012-05-29T12:48:06Z</time>
      </trkpt>
      <trkpt lat="43.38696" lon="-5.854975">
        <ele>536.0</ele>
        <time>2012-05-29T12:48:08Z</time>
      </trkpt>
      <trkpt lat="43.386602" lon="-5.854973">
        <ele>537.0</ele>
        <time>2012-05-29T12:48:14Z</time>
      </trkpt>
      <trkpt lat="43.3864" lon="-5.854921">
        <ele>537.0</ele>
        <time>2012-05-29T12:48:18Z</time>
      </trkpt>
      <trkpt lat="43.386216" lon="-5.854832">
        <ele>537.0</ele>
        <time>2012-05-29T12:48:22Z</time>
      </trkpt>
      <trkpt lat="43.386045" lon="-5.854737">
        <ele>537.0</ele>
        <time>2012-05-29T12:48:26Z</time>
      </trkpt>
      <trkpt lat="43.385878" lon="-5.854688">
        <ele>541.0</ele>
        <time>2012-05-29T12:48:30Z</time>
      </trkpt>
      <trkpt lat="43.385789" lon="-5.854687">
        <ele>542.0</ele>
        <time>2012-05-29T12:48:32Z</time>
      </trkpt>
      <trkpt lat="43.385605" lon="-5.854677">
        <ele>543.0</ele>
        <time>2012-05-29T12:48:36Z</time>
      </trkpt>
      <trkpt lat="43.385153" lon="-5.854665">
        <ele>544.0</ele>
        <time>2012-05-29T12:48:46Z</time>
      </trkpt>
      <trkpt lat="43.384976" lon="-5.854664">
        <ele>544.0</ele>
        <time>2012-05-29T12:48:50Z</time>
      </trkpt>
      <trkpt lat="43.384807" lon="-5.854744">
        <ele>545.0</ele>
        <time>2012-05-29T12:48:54Z</time>
      </trkpt>
      <trkpt lat="43.384646" lon="-5.854843">
        <ele>547.0</ele>
        <time>2012-05-29T12:48:58Z</time>
      </trkpt>
      <trkpt lat="43.384374" lon="-5.85505">
        <ele>551.0</ele>
        <time>2012-05-29T12:49:03Z</time>
      </trkpt>
      <trkpt lat="43.384273" lon="-5.85525">
        <ele>554.0</ele>
        <time>2012-05-29T12:49:06Z</time>
      </trkpt>
      <trkpt lat="43.38425" lon="-5.855361">
        <ele>557.0</ele>
        <time>2012-05-29T12:49:08Z</time>
      </trkpt>
      <trkpt lat="43.384561" lon="-5.854917">
        <ele>572.0</ele>
        <time>2012-05-29T12:49:15Z</time>
      </trkpt>
      <trkpt lat="43.38476" lon="-5.854821">
        <ele>574.0</ele>
        <time>2012-05-29T12:49:18Z</time>
      </trkpt>
      <trkpt lat="43.384832" lon="-5.855259">
        <ele>581.0</ele>
        <time>2012-05-29T12:49:23Z</time>
      </trkpt>
      <trkpt lat="43.384547" lon="-5.855774">
        <ele>582.0</ele>
        <time>2012-05-29T12:49:27Z</time>
      </trkpt>
      <trkpt lat="43.38448" lon="-5.8563">
        <ele>577.0</ele>
        <time>2012-05-29T12:49:31Z</time>
      </trkpt>
      <trkpt lat="43.384443" lon="-5.856861">
        <ele>573.0</ele>
        <time>2012-05-29T12:49:35Z</time>
      </trkpt>
      <trkpt lat="43.384413" lon="-5.857411">
        <ele>572.0</ele>
        <time>2012-05-29T12:49:39Z</time>
      </trkpt>
      <trkpt lat="43.384396" lon="-5.857966">
        <ele>569.0</ele>
        <time>2012-05-29T12:49:43Z</time>
      </trkpt>
      <trkpt lat="43.384392" lon="-5.858516">
        <ele>568.0</ele>
        <time>2012-05-29T12:49:47Z</time>
      </trkpt>
      <trkpt lat="43.384387" lon="-5.858927">
        <ele>568.0</ele>
        <time>2012-05-29T12:49:50Z</time>
      </trkpt>
      <trkpt lat="43.384417" lon="-5.859315">
        <ele>564.0</ele>
        <time>2012-05-29T12:49:55Z</time>
      </trkpt>
      <trkpt lat="43.384324" lon="-5.859114">
        <ele>560.0</ele>
        <time>2012-05-29T12:49:59Z</time>
      </trkpt>
      <trkpt lat="43.384284" lon="-5.859199">
        <ele>562.0</ele>
        <time>2012-05-29T12:50:02Z</time>
      </trkpt>
      <trkpt lat="43.384276" lon="-5.859392">
        <ele>562.0</ele>
        <time>2012-05-29T12:50:06Z</time>
      </trkpt>
      <trkpt lat="43.384277" lon="-5.859495">
        <ele>562.0</ele>
        <time>2012-05-29T12:50:08Z</time>
      </trkpt>
      <trkpt lat="43.384281" lon="-5.859818">
        <ele>563.0</ele>
        <time>2012-05-29T12:50:15Z</time>
      </trkpt>
      <trkpt lat="43.384299" lon="-5.859918">
        <ele>564.0</ele>
        <time>2012-05-29T12:50:18Z</time>
      </trkpt>
      <trkpt lat="43.38434" lon="-5.860008">
        <ele>565.0</ele>
        <time>2012-05-29T12:50:22Z</time>
      </trkpt>
      <trkpt lat="43.384372" lon="-5.860092">
        <ele>566.0</ele>
        <time>2012-05-29T12:50:26Z</time>
      </trkpt>
      <trkpt lat="43.384451" lon="-5.860258">
        <ele>567.0</ele>
        <time>2012-05-29T12:50:33Z</time>
      </trkpt>
      <trkpt lat="43.384573" lon="-5.860387">
        <ele>568.0</ele>
        <time>2012-05-29T12:50:38Z</time>
      </trkpt>
      <trkpt lat="43.384687" lon="-5.860509">
        <ele>569.0</ele>
        <time>2012-05-29T12:50:42Z</time>
      </trkpt>
      <trkpt lat="43.384825" lon="-5.860725">
        <ele>570.0</ele>
        <time>2012-05-29T12:50:51Z</time>
      </trkpt>
      <trkpt lat="43.384845" lon="-5.860818">
        <ele>571.0</ele>
        <time>2012-05-29T12:51:01Z</time>
      </trkpt>
      <trkpt lat="43.384837" lon="-5.86091">
        <ele>572.0</ele>
        <time>2012-05-29T12:51:05Z</time>
      </trkpt>
      <trkpt lat="43.38481" lon="-5.861019">
        <ele>572.0</ele>
        <time>2012-05-29T12:51:09Z</time>
      </trkpt>
      <trkpt lat="43.384737" lon="-5.861224">
        <ele>573.0</ele>
        <time>2012-05-29T12:51:15Z</time>
      </trkpt>
      <trkpt lat="43.384628" lon="-5.861547">
        <ele>575.0</ele>
        <time>2012-05-29T12:51:23Z</time>
      </trkpt>
      <trkpt lat="43.384616" lon="-5.861646">
        <ele>576.0</ele>
        <time>2012-05-29T12:51:25Z</time>
      </trkpt>
      <trkpt lat="43.384724" lon="-5.861718">
        <ele>578.0</ele>
        <time>2012-05-29T12:51:31Z</time>
      </trkpt>
      <trkpt lat="43.384857" lon="-5.861674">
        <ele>579.0</ele>
        <time>2012-05-29T12:51:35Z</time>
      </trkpt>
      <trkpt lat="43.384925" lon="-5.861648">
        <ele>580.0</ele>
        <time>2012-05-29T12:51:37Z</time>
      </trkpt>
      <trkpt lat="43.385" lon="-5.861632">
        <ele>582.0</ele>
        <time>2012-05-29T12:51:40Z</time>
      </trkpt>
      <trkpt lat="43.385074" lon="-5.861604">
        <ele>584.0</ele>
        <time>2012-05-29T12:51:44Z</time>
      </trkpt>
      <trkpt lat="43.385149" lon="-5.861572">
        <ele>585.0</ele>
        <time>2012-05-29T12:51:48Z</time>
      </trkpt>
      <trkpt lat="43.385229" lon="-5.86155">
        <ele>587.0</ele>
        <time>2012-05-29T12:51:52Z</time>
      </trkpt>
      <trkpt lat="43.385452" lon="-5.861534">
        <ele>590.0</ele>
        <time>2012-05-29T12:52:01Z</time>
      </trkpt>
      <trkpt lat="43.385508" lon="-5.86161">
        <ele>591.0</ele>
        <time>2012-05-29T12:52:05Z</time>
      </trkpt>
      <trkpt lat="43.385533" lon="-5.861691">
        <ele>591.0</ele>
        <time>2012-05-29T12:52:08Z</time>
      </trkpt>
      <trkpt lat="43.385599" lon="-5.861885">
        <ele>593.0</ele>
        <time>2012-05-29T12:52:14Z</time>
      </trkpt>
      <trkpt lat="43.385616" lon="-5.862137">
        <ele>594.0</ele>
        <time>2012-05-29T12:52:19Z</time>
      </trkpt>
      <trkpt lat="43.385641" lon="-5.862481">
        <ele>600.0</ele>
        <time>2012-05-29T12:52:23Z</time>
      </trkpt>
      <trkpt lat="43.385689" lon="-5.862922">
        <ele>602.0</ele>
        <time>2012-05-29T12:52:27Z</time>
      </trkpt>
      <trkpt lat="43.385778" lon="-5.863347">
        <ele>602.0</ele>
        <time>2012-05-29T12:52:31Z</time>
      </trkpt>
      <trkpt lat="43.385925" lon="-5.863694">
        <ele>604.0</ele>
        <time>2012-05-29T12:52:35Z</time>
      </trkpt>
      <trkpt lat="43.386102" lon="-5.863964">
        <ele>606.0</ele>
        <time>2012-05-29T12:52:39Z</time>
      </trkpt>
      <trkpt lat="43.386232" lon="-5.864178">
        <ele>608.0</ele>
        <time>2012-05-29T12:52:43Z</time>
      </trkpt>
      <trkpt lat="43.386283" lon="-5.86438">
        <ele>610.0</ele>
        <time>2012-05-29T12:52:47Z</time>
      </trkpt>
      <trkpt lat="43.386307" lon="-5.864608">
        <ele>612.0</ele>
        <time>2012-05-29T12:52:51Z</time>
      </trkpt>
      <trkpt lat="43.38628" lon="-5.864879">
        <ele>617.0</ele>
        <time>2012-05-29T12:52:55Z</time>
      </trkpt>
      <trkpt lat="43.386192" lon="-5.865174">
        <ele>623.0</ele>
        <time>2012-05-29T12:52:59Z</time>
      </trkpt>
      <trkpt lat="43.386001" lon="-5.865224">
        <ele>627.0</ele>
        <time>2012-05-29T12:53:02Z</time>
      </trkpt>
      <trkpt lat="43.385793" lon="-5.865114">
        <ele>630.0</ele>
        <time>2012-05-29T12:53:06Z</time>
      </trkpt>
      <trkpt lat="43.385651" lon="-5.864985">
        <ele>631.0</ele>
        <time>2012-05-29T12:53:10Z</time>
      </trkpt>
      <trkpt lat="43.38552" lon="-5.864842">
        <ele>631.0</ele>
        <time>2012-05-29T12:53:17Z</time>
      </trkpt>
      <trkpt lat="43.38546" lon="-5.86477">
        <ele>632.0</ele>
        <time>2012-05-29T12:53:20Z</time>
      </trkpt>
      <trkpt lat="43.385394" lon="-5.864679">
        <ele>632.0</ele>
        <time>2012-05-29T12:53:24Z</time>
      </trkpt>
      <trkpt lat="43.385394" lon="-5.864679">
        <time>2012-05-29T12:53:35Z</time>
      </trkpt>
    </trkseg>
    <trkseg>
      <trkpt lat="43.385394" lon="-5.864679">
        <time>2012-05-29T12:53:37Z</time>
      </trkpt>
      <trkpt lat="43.385181" lon="-5.864206">
        <ele>635.0</ele>
        <time>2012-05-29T12:53:42Z</time>
      </trkpt>
      <trkpt lat="43.385082" lon="-5.864205">
        <ele>636.0</ele>
        <time>2012-05-29T12:53:48Z</time>
      </trkpt>
      <trkpt lat="43.384999" lon="-5.864283">
        <ele>636.0</ele>
        <time>2012-05-29T12:53:52Z</time>
      </trkpt>
      <trkpt lat="43.384846" lon="-5.864447">
        <ele>637.0</ele>
        <time>2012-05-29T12:54:00Z</time>
      </trkpt>
      <trkpt lat="43.384755" lon="-5.86448">
        <ele>638.0</ele>
        <time>2012-05-29T12:54:04Z</time>
      </trkpt>
      <trkpt lat="43.384659" lon="-5.864512">
        <ele>638.0</ele>
        <time>2012-05-29T12:54:08Z</time>
      </trkpt>
      <trkpt lat="43.384659" lon="-5.864512">
        <time>2012-05-29T12:54:19Z</time>
      </trkpt>
    </trkseg>
    <trkseg>
      <trkpt lat="43.384659" lon="-5.864512">
        <time>2012-05-29T12:54:21Z</time>
      </trkpt>
      <trkpt lat="43.384304" lon="-5.864362">
        <ele>641.0</ele>
        <time>2012-05-29T12:54:24Z</time>
      </trkpt>
      <trkpt lat="43.384239" lon="-5.864254">
        <ele>641.0</ele>
        <time>2012-05-29T12:54:28Z</time>
      </trkpt>
      <trkpt lat="43.384239" lon="-5.864254">
        <time>2012-05-29T12:54:39Z</time>
      </trkpt>
    </trkseg>
    <trkseg>
      <trkpt lat="43.384239" lon="-5.864254">
        <time>2012-05-29T12:54:44Z</time>
      </trkpt>
      <trkpt lat="43.384152" lon="-5.863845">
        <ele>647.0</ele>
        <time>2012-05-29T12:54:51Z</time>
      </trkpt>
      <trkpt lat="43.384152" lon="-5.863845">
        <time>2012-05-29T12:55:03Z</time>
      </trkpt>
    </trkseg>
    <trkseg>
      <trkpt lat="43.384152" lon="-5.863845">
        <time>2012-05-29T12:55:10Z</time>
      </trkpt>
      <trkpt lat="43.384152" lon="-5.863845">
        <time>2012-05-29T12:55:21Z</time>
      </trkpt>
    </trkseg>
    <trkseg>
      <trkpt lat="43.384152" lon="-5.863845">
        <time>2012-05-29T12:56:27Z</time>
      </trkpt>
      <trkpt lat="43.384567" lon="-5.863766">
        <ele>654.0</ele>
        <time>2012-05-29T12:56:34Z</time>
      </trkpt>
      <trkpt lat="43.384567" lon="-5.863766">
        <time>2012-05-29T12:56:45Z</time>
      </trkpt>
    </trkseg>
    <trkseg>
      <trkpt lat="43.384567" lon="-5.863766">
        <time>2012-05-29T12:58:39Z</time>
      </trkpt>
      <trkpt lat="43.384567" lon="-5.863766">
        <time>2012-05-29T12:58:50Z</time>
      </trkpt>
    </trkseg>
    <trkseg>
      <trkpt lat="43.384567" lon="-5.863766">
        <time>2012-05-29T12:58:55Z</time>
      </trkpt>
      <trkpt lat="43.384724" lon="-5.86432">
        <ele>663.0</ele>
        <time>2012-05-29T12:58:58Z</time>
      </trkpt>
      <trkpt lat="43.384901" lon="-5.864582">
        <ele>663.0</ele>
        <time>2012-05-29T12:59:07Z</time>
      </trkpt>
      <trkpt lat="43.385079" lon="-5.864639">
        <ele>663.0</ele>
        <time>2012-05-29T12:59:12Z</time>
      </trkpt>
      <trkpt lat="43.385183" lon="-5.864803">
        <ele>662.0</ele>
        <time>2012-05-29T12:59:16Z</time>
      </trkpt>
      <trkpt lat="43.385291" lon="-5.865025">
        <ele>660.0</ele>
        <time>2012-05-29T12:59:20Z</time>
      </trkpt>
      <trkpt lat="43.385414" lon="-5.865267">
        <ele>659.0</ele>
        <time>2012-05-29T12:59:24Z</time>
      </trkpt>
      <trkpt lat="43.385508" lon="-5.865473">
        <ele>659.0</ele>
        <time>2012-05-29T12:59:28Z</time>
      </trkpt>
      <trkpt lat="43.385859" lon="-5.865179">
        <ele>656.0</ele>
        <time>2012-05-29T12:59:36Z</time>
      </trkpt>
      <trkpt lat="43.385697" lon="-5.864283">
        <ele>656.0</ele>
        <time>2012-05-29T12:59:40Z</time>
      </trkpt>
      <trkpt lat="43.385428" lon="-5.863634">
        <ele>657.0</ele>
        <time>2012-05-29T12:59:44Z</time>
      </trkpt>
      <trkpt lat="43.38528" lon="-5.863098">
        <ele>657.0</ele>
        <time>2012-05-29T12:59:48Z</time>
      </trkpt>
      <trkpt lat="43.385226" lon="-5.862584">
        <ele>658.0</ele>
        <time>2012-05-29T12:59:52Z</time>
      </trkpt>
      <trkpt lat="43.385198" lon="-5.862161">
        <ele>658.0</ele>
        <time>2012-05-29T12:59:56Z</time>
      </trkpt>
      <trkpt lat="43.385177" lon="-5.86183">
        <ele>659.0</ele>
        <time>2012-05-29T13:00:00Z</time>
      </trkpt>
      <trkpt lat="43.385102" lon="-5.861497">
        <ele>659.0</ele>
        <time>2012-05-29T13:00:04Z</time>
      </trkpt>
      <trkpt lat="43.384923" lon="-5.861211">
        <ele>660.0</ele>
        <time>2012-05-29T13:00:08Z</time>
      </trkpt>
      <trkpt lat="43.384701" lon="-5.860971">
        <ele>660.0</ele>
        <time>2012-05-29T13:00:12Z</time>
      </trkpt>
      <trkpt lat="43.384607" lon="-5.860694">
        <ele>659.0</ele>
        <time>2012-05-29T13:00:15Z</time>
      </trkpt>
      <trkpt lat="43.384547" lon="-5.860454">
        <ele>658.0</ele>
        <time>2012-05-29T13:00:19Z</time>
      </trkpt>
      <trkpt lat="43.384686" lon="-5.860329">
        <ele>655.0</ele>
        <time>2012-05-29T13:00:23Z</time>
      </trkpt>
      <trkpt lat="43.384714" lon="-5.859999">
        <ele>653.0</ele>
        <time>2012-05-29T13:00:28Z</time>
      </trkpt>
      <trkpt lat="43.384501" lon="-5.859539">
        <ele>652.0</ele>
        <time>2012-05-29T13:00:32Z</time>
      </trkpt>
      <trkpt lat="43.384385" lon="-5.859005">
        <ele>652.0</ele>
        <time>2012-05-29T13:00:36Z</time>
      </trkpt>
      <trkpt lat="43.384391" lon="-5.858459">
        <ele>652.0</ele>
        <time>2012-05-29T13:00:40Z</time>
      </trkpt>
      <trkpt lat="43.384449" lon="-5.857979">
        <ele>652.0</ele>
        <time>2012-05-29T13:00:44Z</time>
      </trkpt>
      <trkpt lat="43.384494" lon="-5.857598">
        <ele>651.0</ele>
        <time>2012-05-29T13:00:48Z</time>
      </trkpt>
      <trkpt lat="43.384505" lon="-5.857223">
        <ele>650.0</ele>
        <time>2012-05-29T13:00:52Z</time>
      </trkpt>
      <trkpt lat="43.384497" lon="-5.856851">
        <ele>649.0</ele>
        <time>2012-05-29T13:00:56Z</time>
      </trkpt>
      <trkpt lat="43.38449" lon="-5.856575">
        <ele>648.0</ele>
        <time>2012-05-29T13:00:59Z</time>
      </trkpt>
      <trkpt lat="43.384424" lon="-5.856149">
        <ele>649.0</ele>
        <time>2012-05-29T13:01:04Z</time>
      </trkpt>
      <trkpt lat="43.384404" lon="-5.856066">
        <ele>649.0</ele>
        <time>2012-05-29T13:01:05Z</time>
      </trkpt>
      <trkpt lat="43.384323" lon="-5.855608">
        <ele>650.0</ele>
        <time>2012-05-29T13:01:11Z</time>
      </trkpt>
      <trkpt lat="43.38432" lon="-5.855504">
        <ele>650.0</ele>
        <time>2012-05-29T13:01:14Z</time>
      </trkpt>
      <trkpt lat="43.384403" lon="-5.855328">
        <ele>650.0</ele>
        <time>2012-05-29T13:01:20Z</time>
      </trkpt>
      <trkpt lat="43.384437" lon="-5.855247">
        <ele>650.0</ele>
        <time>2012-05-29T13:01:23Z</time>
      </trkpt>
      <trkpt lat="43.384472" lon="-5.855174">
        <ele>650.0</ele>
        <time>2012-05-29T13:01:26Z</time>
      </trkpt>
      <trkpt lat="43.384592" lon="-5.854931">
        <ele>650.0</ele>
        <time>2012-05-29T13:01:35Z</time>
      </trkpt>
      <trkpt lat="43.384631" lon="-5.854853">
        <ele>650.0</ele>
        <time>2012-05-29T13:01:38Z</time>
      </trkpt>
      <trkpt lat="43.384701" lon="-5.854699">
        <ele>650.0</ele>
        <time>2012-05-29T13:01:44Z</time>
      </trkpt>
      <trkpt lat="43.384742" lon="-5.854616">
        <ele>650.0</ele>
        <time>2012-05-29T13:01:47Z</time>
      </trkpt>
      <trkpt lat="43.384783" lon="-5.854527">
        <ele>650.0</ele>
        <time>2012-05-29T13:01:50Z</time>
      </trkpt>
      <trkpt lat="43.384838" lon="-5.854453">
        <ele>650.0</ele>
        <time>2012-05-29T13:01:53Z</time>
      </trkpt>
      <trkpt lat="43.384675" lon="-5.85448">
        <ele>650.0</ele>
        <time>2012-05-29T13:02:04Z</time>
      </trkpt>
      <trkpt lat="43.384642" lon="-5.854401">
        <ele>651.0</ele>
        <time>2012-05-29T13:02:16Z</time>
      </trkpt>
      <trkpt lat="43.384793" lon="-5.854318">
        <ele>653.0</ele>
        <time>2012-05-29T13:02:20Z</time>
      </trkpt>
      <trkpt lat="43.38495" lon="-5.854266">
        <ele>656.0</ele>
        <time>2012-05-29T13:02:24Z</time>
      </trkpt>
      <trkpt lat="43.385022" lon="-5.854236">
        <ele>657.0</ele>
        <time>2012-05-29T13:02:26Z</time>
      </trkpt>
      <trkpt lat="43.385255" lon="-5.854132">
        <ele>658.0</ele>
        <time>2012-05-29T13:02:32Z</time>
      </trkpt>
      <trkpt lat="43.385337" lon="-5.854083">
        <ele>658.0</ele>
        <time>2012-05-29T13:02:34Z</time>
      </trkpt>
      <trkpt lat="43.385549" lon="-5.853868">
        <ele>658.0</ele>
        <time>2012-05-29T13:02:40Z</time>
      </trkpt>
      <trkpt lat="43.385715" lon="-5.853919">
        <ele>659.0</ele>
        <time>2012-05-29T13:02:43Z</time>
      </trkpt>
      <trkpt lat="43.385877" lon="-5.853882">
        <ele>656.0</ele>
        <time>2012-05-29T13:02:47Z</time>
      </trkpt>
      <trkpt lat="43.38617" lon="-5.853958">
        <ele>655.0</ele>
        <time>2012-05-29T13:02:52Z</time>
      </trkpt>
      <trkpt lat="43.386509" lon="-5.854233">
        <ele>654.0</ele>
        <time>2012-05-29T13:02:56Z</time>
      </trkpt>
      <trkpt lat="43.386818" lon="-5.8544">
        <ele>654.0</ele>
        <time>2012-05-29T13:03:00Z</time>
      </trkpt>
      <trkpt lat="43.387121" lon="-5.854542">
        <ele>656.0</ele>
        <time>2012-05-29T13:03:04Z</time>
      </trkpt>
      <trkpt lat="43.387453" lon="-5.854501">
        <ele>661.0</ele>
        <time>2012-05-29T13:03:08Z</time>
      </trkpt>
      <trkpt lat="43.387761" lon="-5.854432">
        <ele>662.0</ele>
        <time>2012-05-29T13:03:12Z</time>
      </trkpt>
      <trkpt lat="43.388" lon="-5.854193">
        <ele>661.0</ele>
        <time>2012-05-29T13:03:16Z</time>
      </trkpt>
      <trkpt lat="43.388217" lon="-5.85396">
        <ele>660.0</ele>
        <time>2012-05-29T13:03:20Z</time>
      </trkpt>
      <trkpt lat="43.38833" lon="-5.853866">
        <ele>660.0</ele>
        <time>2012-05-29T13:03:22Z</time>
      </trkpt>
      <trkpt lat="43.388418" lon="-5.853367">
        <ele>660.0</ele>
        <time>2012-05-29T13:03:26Z</time>
      </trkpt>
      <trkpt lat="43.388496" lon="-5.852371">
        <ele>657.0</ele>
        <time>2012-05-29T13:03:32Z</time>
      </trkpt>
      <trkpt lat="43.388175" lon="-5.851668">
        <ele>656.0</ele>
        <time>2012-05-29T13:03:36Z</time>
      </trkpt>
      <trkpt lat="43.388028" lon="-5.85127">
        <ele>656.0</ele>
        <time>2012-05-29T13:03:39Z</time>
      </trkpt>
      <trkpt lat="43.387827" lon="-5.850706">
        <ele>655.0</ele>
        <time>2012-05-29T13:03:44Z</time>
      </trkpt>
      <trkpt lat="43.387715" lon="-5.850236">
        <ele>654.0</ele>
        <time>2012-05-29T13:03:48Z</time>
      </trkpt>
      <trkpt lat="43.387655" lon="-5.84982">
        <ele>654.0</ele>
        <time>2012-05-29T13:03:51Z</time>
      </trkpt>
      <trkpt lat="43.387509" lon="-5.849341">
        <ele>654.0</ele>
        <time>2012-05-29T13:03:56Z</time>
      </trkpt>
      <trkpt lat="43.387285" lon="-5.849041">
        <ele>654.0</ele>
        <time>2012-05-29T13:04:00Z</time>
      </trkpt>
      <trkpt lat="43.386906" lon="-5.848992">
        <ele>653.0</ele>
        <time>2012-05-29T13:04:04Z</time>
      </trkpt>
      <trkpt lat="43.386312" lon="-5.849149">
        <ele>652.0</ele>
        <time>2012-05-29T13:04:08Z</time>
      </trkpt>
      <trkpt lat="43.385751" lon="-5.849327">
        <ele>652.0</ele>
        <time>2012-05-29T13:04:12Z</time>
      </trkpt>
      <trkpt lat="43.385419" lon="-5.849908">
        <ele>653.0</ele>
        <time>2012-05-29T13:04:16Z</time>
      </trkpt>
      <trkpt lat="43.385118" lon="-5.850481">
        <ele>653.0</ele>
        <time>2012-05-29T13:04:20Z</time>
      </trkpt>
      <trkpt lat="43.384843" lon="-5.850888">
        <ele>652.0</ele>
        <time>2012-05-29T13:04:24Z</time>
      </trkpt>
      <trkpt lat="43.384611" lon="-5.851235">
        <ele>650.0</ele>
        <time>2012-05-29T13:04:28Z</time>
      </trkpt>
      <trkpt lat="43.384443" lon="-5.85148">
        <ele>648.0</ele>
        <time>2012-05-29T13:04:31Z</time>
      </trkpt>
      <trkpt lat="43.384155" lon="-5.851897">
        <ele>648.0</ele>
        <time>2012-05-29T13:04:36Z</time>
      </trkpt>
      <trkpt lat="43.383704" lon="-5.852011">
        <ele>648.0</ele>
        <time>2012-05-29T13:04:40Z</time>
      </trkpt>
      <trkpt lat="43.383198" lon="-5.852064">
        <ele>648.0</ele>
        <time>2012-05-29T13:04:44Z</time>
      </trkpt>
      <trkpt lat="43.382854" lon="-5.852398">
        <ele>647.0</ele>
        <time>2012-05-29T13:04:48Z</time>
      </trkpt>
      <trkpt lat="43.382704" lon="-5.85301">
        <ele>647.0</ele>
        <time>2012-05-29T13:04:52Z</time>
      </trkpt>
      <trkpt lat="43.382489" lon="-5.853608">
        <ele>647.0</ele>
        <time>2012-05-29T13:04:56Z</time>
      </trkpt>
      <trkpt lat="43.382303" lon="-5.854222">
        <ele>646.0</ele>
        <time>2012-05-29T13:05:00Z</time>
      </trkpt>
      <trkpt lat="43.38222" lon="-5.855056">
        <ele>646.0</ele>
        <time>2012-05-29T13:05:04Z</time>
      </trkpt>
      <trkpt lat="43.382108" lon="-5.85588">
        <ele>645.0</ele>
        <time>2012-05-29T13:05:08Z</time>
      </trkpt>
      <trkpt lat="43.381789" lon="-5.856443">
        <ele>645.0</ele>
        <time>2012-05-29T13:05:12Z</time>
      </trkpt>
      <trkpt lat="43.381525" lon="-5.856886">
        <ele>644.0</ele>
        <time>2012-05-29T13:05:16Z</time>
      </trkpt>
      <trkpt lat="43.381267" lon="-5.857431">
        <ele>642.0</ele>
        <time>2012-05-29T13:05:20Z</time>
      </trkpt>
      <trkpt lat="43.381009" lon="-5.858044">
        <ele>641.0</ele>
        <time>2012-05-29T13:05:24Z</time>
      </trkpt>
      <trkpt lat="43.380933" lon="-5.858738">
        <ele>639.0</ele>
        <time>2012-05-29T13:05:28Z</time>
      </trkpt>
      <trkpt lat="43.380939" lon="-5.859575">
        <ele>637.0</ele>
        <time>2012-05-29T13:05:32Z</time>
      </trkpt>
      <trkpt lat="43.380839" lon="-5.860412">
        <ele>636.0</ele>
        <time>2012-05-29T13:05:36Z</time>
      </trkpt>
      <trkpt lat="43.380774" lon="-5.86078">
        <ele>636.0</ele>
        <time>2012-05-29T13:05:38Z</time>
      </trkpt>
      <trkpt lat="43.38065" lon="-5.861751">
        <ele>627.0</ele>
        <time>2012-05-29T13:05:44Z</time>
      </trkpt>
      <trkpt lat="43.380514" lon="-5.862434">
        <ele>627.0</ele>
        <time>2012-05-29T13:05:48Z</time>
      </trkpt>
      <trkpt lat="43.380361" lon="-5.863098">
        <ele>628.0</ele>
        <time>2012-05-29T13:05:52Z</time>
      </trkpt>
      <trkpt lat="43.380236" lon="-5.863786">
        <ele>628.0</ele>
        <time>2012-05-29T13:05:56Z</time>
      </trkpt>
      <trkpt lat="43.380161" lon="-5.864594">
        <ele>629.0</ele>
        <time>2012-05-29T13:06:00Z</time>
      </trkpt>
      <trkpt lat="43.380113" lon="-5.865007">
        <ele>630.0</ele>
        <time>2012-05-29T13:06:02Z</time>
      </trkpt>
      <trkpt lat="43.380024" lon="-5.866141">
        <ele>630.0</ele>
        <time>2012-05-29T13:06:08Z</time>
      </trkpt>
      <trkpt lat="43.380149" lon="-5.866851">
        <ele>626.0</ele>
        <time>2012-05-29T13:06:12Z</time>
      </trkpt>
      <trkpt lat="43.380249" lon="-5.867442">
        <ele>619.0</ele>
        <time>2012-05-29T13:06:16Z</time>
      </trkpt>
      <trkpt lat="43.380344" lon="-5.867937">
        <ele>616.0</ele>
        <time>2012-05-29T13:06:20Z</time>
      </trkpt>
      <trkpt lat="43.380179" lon="-5.868166">
        <ele>615.0</ele>
        <time>2012-05-29T13:06:24Z</time>
      </trkpt>
      <trkpt lat="43.379817" lon="-5.867925">
        <ele>614.0</ele>
        <time>2012-05-29T13:06:27Z</time>
      </trkpt>
      <trkpt lat="43.379298" lon="-5.86706">
        <ele>613.0</ele>
        <time>2012-05-29T13:06:32Z</time>
      </trkpt>
      <trkpt lat="43.378856" lon="-5.865749">
        <ele>615.0</ele>
        <time>2012-05-29T13:06:40Z</time>
      </trkpt>
      <trkpt lat="43.378716" lon="-5.865187">
        <ele>614.0</ele>
        <time>2012-05-29T13:06:44Z</time>
      </trkpt>
      <trkpt lat="43.378452" lon="-5.864637">
        <ele>612.0</ele>
        <time>2012-05-29T13:06:48Z</time>
      </trkpt>
      <trkpt lat="43.378224" lon="-5.864066">
        <ele>611.0</ele>
        <time>2012-05-29T13:06:52Z</time>
      </trkpt>
      <trkpt lat="43.378128" lon="-5.863538">
        <ele>610.0</ele>
        <time>2012-05-29T13:06:56Z</time>
      </trkpt>
      <trkpt lat="43.378046" lon="-5.863416">
        <ele>609.0</ele>
        <time>2012-05-29T13:06:58Z</time>
      </trkpt>
      <trkpt lat="43.377836" lon="-5.863792">
        <ele>600.0</ele>
        <time>2012-05-29T13:07:04Z</time>
      </trkpt>
      <trkpt lat="43.37777" lon="-5.864103">
        <ele>597.0</ele>
        <time>2012-05-29T13:07:06Z</time>
      </trkpt>
      <trkpt lat="43.377611" lon="-5.864942">
        <ele>599.0</ele>
        <time>2012-05-29T13:07:12Z</time>
      </trkpt>
      <trkpt lat="43.377376" lon="-5.865404">
        <ele>604.0</ele>
        <time>2012-05-29T13:07:16Z</time>
      </trkpt>
      <trkpt lat="43.376975" lon="-5.865813">
        <ele>607.0</ele>
        <time>2012-05-29T13:07:20Z</time>
      </trkpt>
      <trkpt lat="43.376683" lon="-5.866348">
        <ele>609.0</ele>
        <time>2012-05-29T13:07:24Z</time>
      </trkpt>
      <trkpt lat="43.37644" lon="-5.866834">
        <ele>609.0</ele>
        <time>2012-05-29T13:07:28Z</time>
      </trkpt>
      <trkpt lat="43.376213" lon="-5.867313">
        <ele>609.0</ele>
        <time>2012-05-29T13:07:32Z</time>
      </trkpt>
      <trkpt lat="43.376099" lon="-5.867555">
        <ele>609.0</ele>
        <time>2012-05-29T13:07:34Z</time>
      </trkpt>
      <trkpt lat="43.376099" lon="-5.867555">
        <time>2012-05-29T13:07:45Z</time>
      </trkpt>
    </trkseg>
    <trkseg>
      <trkpt lat="43.376099" lon="-5.867555">
        <time>2012-05-29T13:07:48Z</time>
      </trkpt>
      <trkpt lat="43.376212" lon="-5.864535">
        <ele>594.0</ele>
        <time>2012-05-29T13:07:51Z</time>
      </trkpt>
      <trkpt lat="43.37607" lon="-5.864232">
        <ele>594.0</ele>
        <time>2012-05-29T13:07:54Z</time>
      </trkpt>
      <trkpt lat="43.375149" lon="-5.864194">
        <ele>589.0</ele>
        <time>2012-05-29T13:08:02Z</time>
      </trkpt>
      <trkpt lat="43.374716" lon="-5.863801">
        <ele>587.0</ele>
        <time>2012-05-29T13:08:07Z</time>
      </trkpt>
      <trkpt lat="43.374439" lon="-5.863588">
        <ele>587.0</ele>
        <time>2012-05-29T13:08:10Z</time>
      </trkpt>
      <trkpt lat="43.374439" lon="-5.863588">
        <time>2012-05-29T13:08:21Z</time>
      </trkpt>
    </trkseg>
    <trkseg>
      <trkpt lat="43.374439" lon="-5.863588">
        <time>2012-05-29T13:08:32Z</time>
      </trkpt>
      <trkpt lat="43.372651" lon="-5.860129">
        <ele>530.0</ele>
        <time>2012-05-29T13:08:42Z</time>
      </trkpt>
      <trkpt lat="43.372364" lon="-5.859745">
        <ele>530.0</ele>
        <time>2012-05-29T13:08:46Z</time>
      </trkpt>
      <trkpt lat="43.372071" lon="-5.859313">
        <ele>524.0</ele>
        <time>2012-05-29T13:08:50Z</time>
      </trkpt>
      <trkpt lat="43.371973" lon="-5.859061">
        <ele>520.0</ele>
        <time>2012-05-29T13:08:52Z</time>
      </trkpt>
      <trkpt lat="43.371665" lon="-5.858383">
        <ele>514.0</ele>
        <time>2012-05-29T13:08:59Z</time>
      </trkpt>
      <trkpt lat="43.371352" lon="-5.858232">
        <ele>510.0</ele>
        <time>2012-05-29T13:09:03Z</time>
      </trkpt>
      <trkpt lat="43.370725" lon="-5.858449">
        <ele>500.0</ele>
        <time>2012-05-29T13:09:10Z</time>
      </trkpt>
      <trkpt lat="43.370478" lon="-5.858536">
        <ele>488.0</ele>
        <time>2012-05-29T13:09:14Z</time>
      </trkpt>
      <trkpt lat="43.370294" lon="-5.858595">
        <ele>480.0</ele>
        <time>2012-05-29T13:09:18Z</time>
      </trkpt>
      <trkpt lat="43.370199" lon="-5.858685">
        <ele>476.0</ele>
        <time>2012-05-29T13:09:20Z</time>
      </trkpt>
      <trkpt lat="43.369846" lon="-5.859126">
        <ele>465.0</ele>
        <time>2012-05-29T13:09:26Z</time>
      </trkpt>
      <trkpt lat="43.369611" lon="-5.859462">
        <ele>458.0</ele>
        <time>2012-05-29T13:09:30Z</time>
      </trkpt>
      <trkpt lat="43.369505" lon="-5.859662">
        <ele>455.0</ele>
        <time>2012-05-29T13:09:32Z</time>
      </trkpt>
      <trkpt lat="43.369142" lon="-5.860455">
        <ele>444.0</ele>
        <time>2012-05-29T13:09:38Z</time>
      </trkpt>
      <trkpt lat="43.368922" lon="-5.861048">
        <ele>440.0</ele>
        <time>2012-05-29T13:09:42Z</time>
      </trkpt>
      <trkpt lat="43.368619" lon="-5.861463">
        <ele>441.0</ele>
        <time>2012-05-29T13:09:46Z</time>
      </trkpt>
      <trkpt lat="43.368206" lon="-5.861423">
        <ele>439.0</ele>
        <time>2012-05-29T13:09:50Z</time>
      </trkpt>
      <trkpt lat="43.367876" lon="-5.860972">
        <ele>434.0</ele>
        <time>2012-05-29T13:09:54Z</time>
      </trkpt>
      <trkpt lat="43.367688" lon="-5.860732">
        <ele>423.0</ele>
        <time>2012-05-29T13:09:58Z</time>
      </trkpt>
      <trkpt lat="43.367503" lon="-5.86069">
        <ele>410.0</ele>
        <time>2012-05-29T13:10:02Z</time>
      </trkpt>
      <trkpt lat="43.367316" lon="-5.860668">
        <ele>401.0</ele>
        <time>2012-05-29T13:10:06Z</time>
      </trkpt>
      <trkpt lat="43.367126" lon="-5.860685">
        <ele>395.0</ele>
        <time>2012-05-29T13:10:10Z</time>
      </trkpt>
      <trkpt lat="43.366952" lon="-5.860726">
        <ele>390.0</ele>
        <time>2012-05-29T13:10:13Z</time>
      </trkpt>
      <trkpt lat="43.366888" lon="-5.860814">
        <ele>388.0</ele>
        <time>2012-05-29T13:10:15Z</time>
      </trkpt>
      <trkpt lat="43.366888" lon="-5.860814">
        <time>2012-05-29T13:10:26Z</time>
      </trkpt>
    </trkseg>
    <trkseg>
      <trkpt lat="43.366888" lon="-5.860814">
        <time>2012-05-29T13:10:49Z</time>
      </trkpt>
      <trkpt lat="43.366672" lon="-5.860972">
        <ele>381.0</ele>
        <time>2012-05-29T13:10:52Z</time>
      </trkpt>
      <trkpt lat="43.36661" lon="-5.861407">
        <ele>356.0</ele>
        <time>2012-05-29T13:10:57Z</time>
      </trkpt>
      <trkpt lat="43.366582" lon="-5.861831">
        <ele>352.0</ele>
        <time>2012-05-29T13:11:01Z</time>
      </trkpt>
      <trkpt lat="43.366474" lon="-5.862314">
        <ele>348.0</ele>
        <time>2012-05-29T13:11:05Z</time>
      </trkpt>
      <trkpt lat="43.366292" lon="-5.862742">
        <ele>344.0</ele>
        <time>2012-05-29T13:11:09Z</time>
      </trkpt>
      <trkpt lat="43.366005" lon="-5.86313">
        <ele>343.0</ele>
        <time>2012-05-29T13:11:13Z</time>
      </trkpt>
      <trkpt lat="43.36571" lon="-5.863429">
        <ele>341.0</ele>
        <time>2012-05-29T13:11:17Z</time>
      </trkpt>
      <trkpt lat="43.365458" lon="-5.863729">
        <ele>339.0</ele>
        <time>2012-05-29T13:11:21Z</time>
      </trkpt>
      <trkpt lat="43.365335" lon="-5.863942">
        <ele>336.0</ele>
        <time>2012-05-29T13:11:25Z</time>
      </trkpt>
      <trkpt lat="43.365269" lon="-5.864026">
        <ele>335.0</ele>
        <time>2012-05-29T13:11:27Z</time>
      </trkpt>
      <trkpt lat="43.365035" lon="-5.863972">
        <ele>332.0</ele>
        <time>2012-05-29T13:11:33Z</time>
      </trkpt>
      <trkpt lat="43.364956" lon="-5.863991">
        <ele>331.0</ele>
        <time>2012-05-29T13:11:36Z</time>
      </trkpt>
      <trkpt lat="43.364956" lon="-5.863991">
        <time>2012-05-29T13:11:47Z</time>
      </trkpt>
    </trkseg>
    <trkseg>
      <trkpt lat="43.364956" lon="-5.863991">
        <time>2012-05-29T13:12:28Z</time>
      </trkpt>
      <trkpt lat="43.364622" lon="-5.864295">
        <ele>320.0</ele>
        <time>2012-05-29T13:12:34Z</time>
      </trkpt>
      <trkpt lat="43.364452" lon="-5.864437">
        <ele>317.0</ele>
        <time>2012-05-29T13:12:38Z</time>
      </trkpt>
      <trkpt lat="43.364143" lon="-5.864698">
        <ele>316.0</ele>
        <time>2012-05-29T13:12:46Z</time>
      </trkpt>
      <trkpt lat="43.364013" lon="-5.864826">
        <ele>316.0</ele>
        <time>2012-05-29T13:12:50Z</time>
      </trkpt>
      <trkpt lat="43.363895" lon="-5.864958">
        <ele>316.0</ele>
        <time>2012-05-29T13:12:54Z</time>
      </trkpt>
      <trkpt lat="43.363772" lon="-5.865059">
        <ele>316.0</ele>
        <time>2012-05-29T13:12:58Z</time>
      </trkpt>
      <trkpt lat="43.36365" lon="-5.865157">
        <ele>316.0</ele>
        <time>2012-05-29T13:13:02Z</time>
      </trkpt>
      <trkpt lat="43.363527" lon="-5.865258">
        <ele>316.0</ele>
        <time>2012-05-29T13:13:06Z</time>
      </trkpt>
      <trkpt lat="43.363408" lon="-5.86537">
        <ele>316.0</ele>
        <time>2012-05-29T13:13:10Z</time>
      </trkpt>
      <trkpt lat="43.363294" lon="-5.8655">
        <ele>316.0</ele>
        <time>2012-05-29T13:13:14Z</time>
      </trkpt>
      <trkpt lat="43.363178" lon="-5.865611">
        <ele>315.0</ele>
        <time>2012-05-29T13:13:18Z</time>
      </trkpt>
      <trkpt lat="43.363064" lon="-5.865718">
        <ele>315.0</ele>
        <time>2012-05-29T13:13:22Z</time>
      </trkpt>
      <trkpt lat="43.362967" lon="-5.865844">
        <ele>315.0</ele>
        <time>2012-05-29T13:13:26Z</time>
      </trkpt>
      <trkpt lat="43.362857" lon="-5.865947">
        <ele>315.0</ele>
        <time>2012-05-29T13:13:30Z</time>
      </trkpt>
      <trkpt lat="43.362719" lon="-5.866004">
        <ele>315.0</ele>
        <time>2012-05-29T13:13:34Z</time>
      </trkpt>
      <trkpt lat="43.362451" lon="-5.86618">
        <ele>316.0</ele>
        <time>2012-05-29T13:13:42Z</time>
      </trkpt>
      <trkpt lat="43.362385" lon="-5.866228">
        <ele>316.0</ele>
        <time>2012-05-29T13:13:45Z</time>
      </trkpt>
      <trkpt lat="43.362187" lon="-5.866377">
        <ele>316.0</ele>
        <time>2012-05-29T13:13:50Z</time>
      </trkpt>
      <trkpt lat="43.362048" lon="-5.866481">
        <ele>316.0</ele>
        <time>2012-05-29T13:13:54Z</time>
      </trkpt>
      <trkpt lat="43.361901" lon="-5.866573">
        <ele>316.0</ele>
        <time>2012-05-29T13:13:58Z</time>
      </trkpt>
      <trkpt lat="43.36176" lon="-5.866663">
        <ele>316.0</ele>
        <time>2012-05-29T13:14:02Z</time>
      </trkpt>
      <trkpt lat="43.361688" lon="-5.866709">
        <ele>316.0</ele>
        <time>2012-05-29T13:14:04Z</time>
      </trkpt>
      <trkpt lat="43.361467" lon="-5.866861">
        <ele>318.0</ele>
        <time>2012-05-29T13:14:10Z</time>
      </trkpt>
      <trkpt lat="43.361315" lon="-5.866971">
        <ele>319.0</ele>
        <time>2012-05-29T13:14:14Z</time>
      </trkpt>
      <trkpt lat="43.361158" lon="-5.867076">
        <ele>319.0</ele>
        <time>2012-05-29T13:14:18Z</time>
      </trkpt>
      <trkpt lat="43.360994" lon="-5.867154">
        <ele>320.0</ele>
        <time>2012-05-29T13:14:22Z</time>
      </trkpt>
      <trkpt lat="43.360828" lon="-5.867219">
        <ele>320.0</ele>
        <time>2012-05-29T13:14:26Z</time>
      </trkpt>
      <trkpt lat="43.360646" lon="-5.867277">
        <ele>321.0</ele>
        <time>2012-05-29T13:14:30Z</time>
      </trkpt>
      <trkpt lat="43.360455" lon="-5.867323">
        <ele>322.0</ele>
        <time>2012-05-29T13:14:34Z</time>
      </trkpt>
      <trkpt lat="43.360273" lon="-5.867338">
        <ele>322.0</ele>
        <time>2012-05-29T13:14:38Z</time>
      </trkpt>
      <trkpt lat="43.360081" lon="-5.867339">
        <ele>324.0</ele>
        <time>2012-05-29T13:14:42Z</time>
      </trkpt>
      <trkpt lat="43.35988" lon="-5.867317">
        <ele>324.0</ele>
        <time>2012-05-29T13:14:46Z</time>
      </trkpt>
      <trkpt lat="43.359696" lon="-5.867241">
        <ele>325.0</ele>
        <time>2012-05-29T13:14:50Z</time>
      </trkpt>
      <trkpt lat="43.359533" lon="-5.867131">
        <ele>326.0</ele>
        <time>2012-05-29T13:14:54Z</time>
      </trkpt>
      <trkpt lat="43.359226" lon="-5.866956">
        <ele>327.0</ele>
        <time>2012-05-29T13:15:02Z</time>
      </trkpt>
      <trkpt lat="43.359068" lon="-5.866948">
        <ele>328.0</ele>
        <time>2012-05-29T13:15:06Z</time>
      </trkpt>
      <trkpt lat="43.358931" lon="-5.867003">
        <ele>328.0</ele>
        <time>2012-05-29T13:15:10Z</time>
      </trkpt>
      <trkpt lat="43.35884" lon="-5.867203">
        <ele>328.0</ele>
        <time>2012-05-29T13:15:14Z</time>
      </trkpt>
      <trkpt lat="43.358734" lon="-5.867426">
        <ele>328.0</ele>
        <time>2012-05-29T13:15:18Z</time>
      </trkpt>
      <trkpt lat="43.35858" lon="-5.867612">
        <ele>328.0</ele>
        <time>2012-05-29T13:15:22Z</time>
      </trkpt>
      <trkpt lat="43.358448" lon="-5.867803">
        <ele>328.0</ele>
        <time>2012-05-29T13:15:26Z</time>
      </trkpt>
      <trkpt lat="43.358331" lon="-5.868011">
        <ele>328.0</ele>
        <time>2012-05-29T13:15:30Z</time>
      </trkpt>
      <trkpt lat="43.358211" lon="-5.86822">
        <ele>328.0</ele>
        <time>2012-05-29T13:15:34Z</time>
      </trkpt>
      <trkpt lat="43.358094" lon="-5.868425">
        <ele>328.0</ele>
        <time>2012-05-29T13:15:38Z</time>
      </trkpt>
      <trkpt lat="43.357981" lon="-5.868636">
        <ele>329.0</ele>
        <time>2012-05-29T13:15:42Z</time>
      </trkpt>
      <trkpt lat="43.357872" lon="-5.868845">
        <ele>329.0</ele>
        <time>2012-05-29T13:15:46Z</time>
      </trkpt>
      <trkpt lat="43.35777" lon="-5.869054">
        <ele>330.0</ele>
        <time>2012-05-29T13:15:50Z</time>
      </trkpt>
      <trkpt lat="43.357666" lon="-5.86926">
        <ele>330.0</ele>
        <time>2012-05-29T13:15:54Z</time>
      </trkpt>
      <trkpt lat="43.35758" lon="-5.869485">
        <ele>331.0</ele>
        <time>2012-05-29T13:15:58Z</time>
      </trkpt>
      <trkpt lat="43.357516" lon="-5.869737">
        <ele>330.0</ele>
        <time>2012-05-29T13:16:02Z</time>
      </trkpt>
      <trkpt lat="43.357457" lon="-5.869991">
        <ele>330.0</ele>
        <time>2012-05-29T13:16:06Z</time>
      </trkpt>
      <trkpt lat="43.357392" lon="-5.870252">
        <ele>330.0</ele>
        <time>2012-05-29T13:16:10Z</time>
      </trkpt>
      <trkpt lat="43.357324" lon="-5.870521">
        <ele>330.0</ele>
        <time>2012-05-29T13:16:14Z</time>
      </trkpt>
      <trkpt lat="43.357269" lon="-5.87082">
        <ele>329.0</ele>
        <time>2012-05-29T13:16:18Z</time>
      </trkpt>
      <trkpt lat="43.35721" lon="-5.871114">
        <ele>329.0</ele>
        <time>2012-05-29T13:16:22Z</time>
      </trkpt>
      <trkpt lat="43.357155" lon="-5.8714">
        <ele>329.0</ele>
        <time>2012-05-29T13:16:26Z</time>
      </trkpt>
      <trkpt lat="43.357096" lon="-5.871684">
        <ele>330.0</ele>
        <time>2012-05-29T13:16:30Z</time>
      </trkpt>
      <trkpt lat="43.35703" lon="-5.871987">
        <ele>330.0</ele>
        <time>2012-05-29T13:16:34Z</time>
      </trkpt>
      <trkpt lat="43.356966" lon="-5.872287">
        <ele>330.0</ele>
        <time>2012-05-29T13:16:38Z</time>
      </trkpt>
      <trkpt lat="43.3569" lon="-5.872581">
        <ele>330.0</ele>
        <time>2012-05-29T13:16:42Z</time>
      </trkpt>
      <trkpt lat="43.356873" lon="-5.872881">
        <ele>331.0</ele>
        <time>2012-05-29T13:16:46Z</time>
      </trkpt>
      <trkpt lat="43.356864" lon="-5.873028">
        <ele>331.0</ele>
        <time>2012-05-29T13:16:48Z</time>
      </trkpt>
      <trkpt lat="43.356851" lon="-5.873127">
        <ele>332.0</ele>
        <time>2012-05-29T13:16:51Z</time>
      </trkpt>
      <trkpt lat="43.356841" lon="-5.873219">
        <ele>331.0</ele>
        <time>2012-05-29T13:16:57Z</time>
      </trkpt>
      <trkpt lat="43.356829" lon="-5.873334">
        <ele>331.0</ele>
        <time>2012-05-29T13:17:01Z</time>
      </trkpt>
      <trkpt lat="43.356818" lon="-5.873424">
        <ele>331.0</ele>
        <time>2012-05-29T13:17:04Z</time>
      </trkpt>
      <trkpt lat="43.356747" lon="-5.873638">
        <ele>331.0</ele>
        <time>2012-05-29T13:17:09Z</time>
      </trkpt>
      <trkpt lat="43.356584" lon="-5.873958">
        <ele>332.0</ele>
        <time>2012-05-29T13:17:14Z</time>
      </trkpt>
      <trkpt lat="43.356392" lon="-5.874312">
        <ele>332.0</ele>
        <time>2012-05-29T13:17:18Z</time>
      </trkpt>
      <trkpt lat="43.356214" lon="-5.87471">
        <ele>332.0</ele>
        <time>2012-05-29T13:17:22Z</time>
      </trkpt>
      <trkpt lat="43.356157" lon="-5.875182">
        <ele>333.0</ele>
        <time>2012-05-29T13:17:26Z</time>
      </trkpt>
      <trkpt lat="43.356314" lon="-5.875739">
        <ele>334.0</ele>
        <time>2012-05-29T13:17:30Z</time>
      </trkpt>
      <trkpt lat="43.356429" lon="-5.876158">
        <ele>335.0</ele>
        <time>2012-05-29T13:17:34Z</time>
      </trkpt>
      <trkpt lat="43.356495" lon="-5.876531">
        <ele>336.0</ele>
        <time>2012-05-29T13:17:38Z</time>
      </trkpt>
      <trkpt lat="43.356451" lon="-5.876911">
        <ele>338.0</ele>
        <time>2012-05-29T13:17:42Z</time>
      </trkpt>
      <trkpt lat="43.356281" lon="-5.877262">
        <ele>339.0</ele>
        <time>2012-05-29T13:17:46Z</time>
      </trkpt>
      <trkpt lat="43.356109" lon="-5.877459">
        <ele>340.0</ele>
        <time>2012-05-29T13:17:49Z</time>
      </trkpt>
      <trkpt lat="43.355768" lon="-5.877685">
        <ele>341.0</ele>
        <time>2012-05-29T13:17:54Z</time>
      </trkpt>
      <trkpt lat="43.355407" lon="-5.87753">
        <ele>342.0</ele>
        <time>2012-05-29T13:17:58Z</time>
      </trkpt>
      <trkpt lat="43.35501" lon="-5.877414">
        <ele>343.0</ele>
        <time>2012-05-29T13:18:02Z</time>
      </trkpt>
      <trkpt lat="43.354639" lon="-5.877295">
        <ele>344.0</ele>
        <time>2012-05-29T13:18:06Z</time>
      </trkpt>
      <trkpt lat="43.354285" lon="-5.877061">
        <ele>345.0</ele>
        <time>2012-05-29T13:18:10Z</time>
      </trkpt>
      <trkpt lat="43.35397" lon="-5.876816">
        <ele>347.0</ele>
        <time>2012-05-29T13:18:14Z</time>
      </trkpt>
      <trkpt lat="43.353632" lon="-5.876716">
        <ele>349.0</ele>
        <time>2012-05-29T13:18:18Z</time>
      </trkpt>
      <trkpt lat="43.353363" lon="-5.876934">
        <ele>350.0</ele>
        <time>2012-05-29T13:18:22Z</time>
      </trkpt>
      <trkpt lat="43.353187" lon="-5.877334">
        <ele>350.0</ele>
        <time>2012-05-29T13:18:26Z</time>
      </trkpt>
      <trkpt lat="43.353091" lon="-5.877772">
        <ele>350.0</ele>
        <time>2012-05-29T13:18:30Z</time>
      </trkpt>
      <trkpt lat="43.353069" lon="-5.878269">
        <ele>351.0</ele>
        <time>2012-05-29T13:18:34Z</time>
      </trkpt>
      <trkpt lat="43.35306" lon="-5.878707">
        <ele>351.0</ele>
        <time>2012-05-29T13:18:37Z</time>
      </trkpt>
      <trkpt lat="43.353053" lon="-5.879463">
        <ele>353.0</ele>
        <time>2012-05-29T13:18:42Z</time>
      </trkpt>
      <trkpt lat="43.352987" lon="-5.880062">
        <ele>353.0</ele>
        <time>2012-05-29T13:18:46Z</time>
      </trkpt>
      <trkpt lat="43.352754" lon="-5.880538">
        <ele>352.0</ele>
        <time>2012-05-29T13:18:50Z</time>
      </trkpt>
      <trkpt lat="43.352612" lon="-5.880746">
        <ele>352.0</ele>
        <time>2012-05-29T13:18:52Z</time>
      </trkpt>
      <trkpt lat="43.352078" lon="-5.881107">
        <ele>353.0</ele>
        <time>2012-05-29T13:18:58Z</time>
      </trkpt>
      <trkpt lat="43.351727" lon="-5.881329">
        <ele>354.0</ele>
        <time>2012-05-29T13:19:02Z</time>
      </trkpt>
      <trkpt lat="43.351409" lon="-5.881632">
        <ele>354.0</ele>
        <time>2012-05-29T13:19:06Z</time>
      </trkpt>
      <trkpt lat="43.351089" lon="-5.881923">
        <ele>354.0</ele>
        <time>2012-05-29T13:19:10Z</time>
      </trkpt>
      <trkpt lat="43.350942" lon="-5.882245">
        <ele>351.0</ele>
        <time>2012-05-29T13:19:14Z</time>
      </trkpt>
      <trkpt lat="43.350811" lon="-5.882592">
        <ele>347.0</ele>
        <time>2012-05-29T13:19:18Z</time>
      </trkpt>
      <trkpt lat="43.350692" lon="-5.883041">
        <ele>345.0</ele>
        <time>2012-05-29T13:19:22Z</time>
      </trkpt>
      <trkpt lat="43.350608" lon="-5.883493">
        <ele>344.0</ele>
        <time>2012-05-29T13:19:26Z</time>
      </trkpt>
      <trkpt lat="43.350509" lon="-5.883906">
        <ele>344.0</ele>
        <time>2012-05-29T13:19:30Z</time>
      </trkpt>
      <trkpt lat="43.350402" lon="-5.8843">
        <ele>344.0</ele>
        <time>2012-05-29T13:19:34Z</time>
      </trkpt>
      <trkpt lat="43.350285" lon="-5.884686">
        <ele>345.0</ele>
        <time>2012-05-29T13:19:38Z</time>
      </trkpt>
      <trkpt lat="43.350144" lon="-5.885062">
        <ele>345.0</ele>
        <time>2012-05-29T13:19:42Z</time>
      </trkpt>
      <trkpt lat="43.349972" lon="-5.885484">
        <ele>345.0</ele>
        <time>2012-05-29T13:19:46Z</time>
      </trkpt>
      <trkpt lat="43.349819" lon="-5.885945">
        <ele>345.0</ele>
        <time>2012-05-29T13:19:50Z</time>
      </trkpt>
      <trkpt lat="43.349643" lon="-5.88641">
        <ele>345.0</ele>
        <time>2012-05-29T13:19:54Z</time>
      </trkpt>
      <trkpt lat="43.34941" lon="-5.886881">
        <ele>345.0</ele>
        <time>2012-05-29T13:19:58Z</time>
      </trkpt>
      <trkpt lat="43.349048" lon="-5.887226">
        <ele>345.0</ele>
        <time>2012-05-29T13:20:02Z</time>
      </trkpt>
      <trkpt lat="43.348648" lon="-5.887584">
        <ele>345.0</ele>
        <time>2012-05-29T13:20:06Z</time>
      </trkpt>
      <trkpt lat="43.34834" lon="-5.8881">
        <ele>344.0</ele>
        <time>2012-05-29T13:20:10Z</time>
      </trkpt>
      <trkpt lat="43.348024" lon="-5.888579">
        <ele>343.0</ele>
        <time>2012-05-29T13:20:14Z</time>
      </trkpt>
      <trkpt lat="43.347737" lon="-5.889101">
        <ele>343.0</ele>
        <time>2012-05-29T13:20:18Z</time>
      </trkpt>
      <trkpt lat="43.347584" lon="-5.889716">
        <ele>343.0</ele>
        <time>2012-05-29T13:20:22Z</time>
      </trkpt>
      <trkpt lat="43.347508" lon="-5.890364">
        <ele>343.0</ele>
        <time>2012-05-29T13:20:26Z</time>
      </trkpt>
      <trkpt lat="43.347594" lon="-5.891055">
        <ele>343.0</ele>
        <time>2012-05-29T13:20:30Z</time>
      </trkpt>
      <trkpt lat="43.347684" lon="-5.891739">
        <ele>344.0</ele>
        <time>2012-05-29T13:20:34Z</time>
      </trkpt>
      <trkpt lat="43.347759" lon="-5.892297">
        <ele>344.0</ele>
        <time>2012-05-29T13:20:38Z</time>
      </trkpt>
      <trkpt lat="43.34801" lon="-5.892592">
        <ele>344.0</ele>
        <time>2012-05-29T13:20:42Z</time>
      </trkpt>
      <trkpt lat="43.347923" lon="-5.893012">
        <ele>346.0</ele>
        <time>2012-05-29T13:20:46Z</time>
      </trkpt>
      <trkpt lat="43.34785" lon="-5.893552">
        <ele>347.0</ele>
        <time>2012-05-29T13:20:50Z</time>
      </trkpt>
      <trkpt lat="43.347816" lon="-5.894192">
        <ele>348.0</ele>
        <time>2012-05-29T13:20:54Z</time>
      </trkpt>
      <trkpt lat="43.347752" lon="-5.894852">
        <ele>350.0</ele>
        <time>2012-05-29T13:20:58Z</time>
      </trkpt>
      <trkpt lat="43.347616" lon="-5.895615">
        <ele>351.0</ele>
        <time>2012-05-29T13:21:02Z</time>
      </trkpt>
      <trkpt lat="43.34741" lon="-5.896374">
        <ele>351.0</ele>
        <time>2012-05-29T13:21:06Z</time>
      </trkpt>
      <trkpt lat="43.347197" lon="-5.897137">
        <ele>351.0</ele>
        <time>2012-05-29T13:21:10Z</time>
      </trkpt>
      <trkpt lat="43.346875" lon="-5.897885">
        <ele>348.0</ele>
        <time>2012-05-29T13:21:14Z</time>
      </trkpt>
      <trkpt lat="43.346447" lon="-5.89844">
        <ele>347.0</ele>
        <time>2012-05-29T13:21:18Z</time>
      </trkpt>
      <trkpt lat="43.346028" lon="-5.89881">
        <ele>346.0</ele>
        <time>2012-05-29T13:21:22Z</time>
      </trkpt>
      <trkpt lat="43.34563" lon="-5.899065">
        <ele>346.0</ele>
        <time>2012-05-29T13:21:26Z</time>
      </trkpt>
      <trkpt lat="43.345313" lon="-5.899305">
        <ele>346.0</ele>
        <time>2012-05-29T13:21:30Z</time>
      </trkpt>
      <trkpt lat="43.345039" lon="-5.899571">
        <ele>347.0</ele>
        <time>2012-05-29T13:21:34Z</time>
      </trkpt>
      <trkpt lat="43.344812" lon="-5.899893">
        <ele>348.0</ele>
        <time>2012-05-29T13:21:38Z</time>
      </trkpt>
      <trkpt lat="43.344745" lon="-5.900334">
        <ele>347.0</ele>
        <time>2012-05-29T13:21:42Z</time>
      </trkpt>
      <trkpt lat="43.344602" lon="-5.900766">
        <ele>346.0</ele>
        <time>2012-05-29T13:21:46Z</time>
      </trkpt>
      <trkpt lat="43.34449" lon="-5.901203">
        <ele>345.0</ele>
        <time>2012-05-29T13:21:50Z</time>
      </trkpt>
      <trkpt lat="43.344405" lon="-5.901648">
        <ele>345.0</ele>
        <time>2012-05-29T13:21:54Z</time>
      </trkpt>
      <trkpt lat="43.344325" lon="-5.902098">
        <ele>346.0</ele>
        <time>2012-05-29T13:21:58Z</time>
      </trkpt>
      <trkpt lat="43.344229" lon="-5.902558">
        <ele>346.0</ele>
        <time>2012-05-29T13:22:02Z</time>
      </trkpt>
      <trkpt lat="43.344125" lon="-5.903045">
        <ele>347.0</ele>
        <time>2012-05-29T13:22:06Z</time>
      </trkpt>
      <trkpt lat="43.344063" lon="-5.903668">
        <ele>347.0</ele>
        <time>2012-05-29T13:22:10Z</time>
      </trkpt>
      <trkpt lat="43.343933" lon="-5.904237">
        <ele>347.0</ele>
        <time>2012-05-29T13:22:14Z</time>
      </trkpt>
      <trkpt lat="43.34384" lon="-5.904833">
        <ele>346.0</ele>
        <time>2012-05-29T13:22:18Z</time>
      </trkpt>
      <trkpt lat="43.34373" lon="-5.905424">
        <ele>345.0</ele>
        <time>2012-05-29T13:22:22Z</time>
      </trkpt>
      <trkpt lat="43.34361" lon="-5.906004">
        <ele>343.0</ele>
        <time>2012-05-29T13:22:26Z</time>
      </trkpt>
      <trkpt lat="43.343489" lon="-5.906559">
        <ele>343.0</ele>
        <time>2012-05-29T13:22:30Z</time>
      </trkpt>
      <trkpt lat="43.343384" lon="-5.907096">
        <ele>341.0</ele>
        <time>2012-05-29T13:22:34Z</time>
      </trkpt>
      <trkpt lat="43.343337" lon="-5.907638">
        <ele>341.0</ele>
        <time>2012-05-29T13:22:38Z</time>
      </trkpt>
      <trkpt lat="43.343402" lon="-5.90818">
        <ele>341.0</ele>
        <time>2012-05-29T13:22:42Z</time>
      </trkpt>
      <trkpt lat="43.34349" lon="-5.908698">
        <ele>339.0</ele>
        <time>2012-05-29T13:22:46Z</time>
      </trkpt>
      <trkpt lat="43.343689" lon="-5.909136">
        <ele>339.0</ele>
        <time>2012-05-29T13:22:50Z</time>
      </trkpt>
      <trkpt lat="43.343945" lon="-5.909556">
        <ele>340.0</ele>
        <time>2012-05-29T13:22:54Z</time>
      </trkpt>
      <trkpt lat="43.344262" lon="-5.909946">
        <ele>341.0</ele>
        <time>2012-05-29T13:22:58Z</time>
      </trkpt>
      <trkpt lat="43.344679" lon="-5.910273">
        <ele>341.0</ele>
        <time>2012-05-29T13:23:02Z</time>
      </trkpt>
      <trkpt lat="43.345109" lon="-5.910554">
        <ele>342.0</ele>
        <time>2012-05-29T13:23:06Z</time>
      </trkpt>
      <trkpt lat="43.345561" lon="-5.910723">
        <ele>341.0</ele>
        <time>2012-05-29T13:23:10Z</time>
      </trkpt>
      <trkpt lat="43.34593" lon="-5.910938">
        <ele>340.0</ele>
        <time>2012-05-29T13:23:14Z</time>
      </trkpt>
      <trkpt lat="43.346178" lon="-5.911317">
        <ele>339.0</ele>
        <time>2012-05-29T13:23:18Z</time>
      </trkpt>
      <trkpt lat="43.346197" lon="-5.911745">
        <ele>338.0</ele>
        <time>2012-05-29T13:23:22Z</time>
      </trkpt>
      <trkpt lat="43.346243" lon="-5.911967">
        <ele>338.0</ele>
        <time>2012-05-29T13:23:25Z</time>
      </trkpt>
      <trkpt lat="43.346308" lon="-5.912119">
        <ele>337.0</ele>
        <time>2012-05-29T13:23:29Z</time>
      </trkpt>
      <trkpt lat="43.346353" lon="-5.912284">
        <ele>337.0</ele>
        <time>2012-05-29T13:23:33Z</time>
      </trkpt>
      <trkpt lat="43.346353" lon="-5.912284">
        <time>2012-05-29T13:23:44Z</time>
      </trkpt>
    </trkseg>
    <trkseg>
      <trkpt lat="43.346353" lon="-5.912284">
        <time>2012-05-29T13:26:39Z</time>
      </trkpt>
      <trkpt lat="43.34623" lon="-5.912261">
        <ele>333.0</ele>
        <time>2012-05-29T13:26:48Z</time>
      </trkpt>
      <trkpt lat="43.34616" lon="-5.912458">
        <ele>333.0</ele>
        <time>2012-05-29T13:26:52Z</time>
      </trkpt>
      <trkpt lat="43.34611" lon="-5.912694">
        <ele>329.0</ele>
        <time>2012-05-29T13:26:56Z</time>
      </trkpt>
      <trkpt lat="43.346124" lon="-5.913103">
        <ele>326.0</ele>
        <time>2012-05-29T13:27:01Z</time>
      </trkpt>
      <trkpt lat="43.346228" lon="-5.913468">
        <ele>324.0</ele>
        <time>2012-05-29T13:27:05Z</time>
      </trkpt>
      <trkpt lat="43.346333" lon="-5.913759">
        <ele>323.0</ele>
        <time>2012-05-29T13:27:08Z</time>
      </trkpt>
      <trkpt lat="43.346558" lon="-5.914272">
        <ele>322.0</ele>
        <time>2012-05-29T13:27:13Z</time>
      </trkpt>
      <trkpt lat="43.34675" lon="-5.914678">
        <ele>320.0</ele>
        <time>2012-05-29T13:27:17Z</time>
      </trkpt>
      <trkpt lat="43.346856" lon="-5.915231">
        <ele>319.0</ele>
        <time>2012-05-29T13:27:21Z</time>
      </trkpt>
      <trkpt lat="43.346898" lon="-5.915852">
        <ele>317.0</ele>
        <time>2012-05-29T13:27:25Z</time>
      </trkpt>
      <trkpt lat="43.346908" lon="-5.916475">
        <ele>316.0</ele>
        <time>2012-05-29T13:27:29Z</time>
      </trkpt>
      <trkpt lat="43.346892" lon="-5.91703">
        <ele>314.0</ele>
        <time>2012-05-29T13:27:33Z</time>
      </trkpt>
      <trkpt lat="43.346858" lon="-5.91753">
        <ele>312.0</ele>
        <time>2012-05-29T13:27:37Z</time>
      </trkpt>
      <trkpt lat="43.346785" lon="-5.917985">
        <ele>311.0</ele>
        <time>2012-05-29T13:27:41Z</time>
      </trkpt>
      <trkpt lat="43.346606" lon="-5.918347">
        <ele>311.0</ele>
        <time>2012-05-29T13:27:45Z</time>
      </trkpt>
      <trkpt lat="43.346373" lon="-5.918641">
        <ele>310.0</ele>
        <time>2012-05-29T13:27:49Z</time>
      </trkpt>
      <trkpt lat="43.346244" lon="-5.91877">
        <ele>310.0</ele>
        <time>2012-05-29T13:27:51Z</time>
      </trkpt>
      <trkpt lat="43.345969" lon="-5.919">
        <ele>309.0</ele>
        <time>2012-05-29T13:27:55Z</time>
      </trkpt>
      <trkpt lat="43.345561" lon="-5.919312">
        <ele>309.0</ele>
        <time>2012-05-29T13:28:01Z</time>
      </trkpt>
      <trkpt lat="43.345373" lon="-5.919447">
        <ele>308.0</ele>
        <time>2012-05-29T13:28:04Z</time>
      </trkpt>
      <trkpt lat="43.345191" lon="-5.919574">
        <ele>308.0</ele>
        <time>2012-05-29T13:28:07Z</time>
      </trkpt>
      <trkpt lat="43.34485" lon="-5.919893">
        <ele>308.0</ele>
        <time>2012-05-29T13:28:13Z</time>
      </trkpt>
      <trkpt lat="43.344679" lon="-5.920182">
        <ele>307.0</ele>
        <time>2012-05-29T13:28:17Z</time>
      </trkpt>
      <trkpt lat="43.34465" lon="-5.92026">
        <ele>307.0</ele>
        <time>2012-05-29T13:28:18Z</time>
      </trkpt>
      <trkpt lat="43.344516" lon="-5.920734">
        <ele>307.0</ele>
        <time>2012-05-29T13:28:24Z</time>
      </trkpt>
      <trkpt lat="43.344437" lon="-5.921159">
        <ele>309.0</ele>
        <time>2012-05-29T13:28:29Z</time>
      </trkpt>
      <trkpt lat="43.34447" lon="-5.921524">
        <ele>310.0</ele>
        <time>2012-05-29T13:28:33Z</time>
      </trkpt>
      <trkpt lat="43.344522" lon="-5.921894">
        <ele>310.0</ele>
        <time>2012-05-29T13:28:37Z</time>
      </trkpt>
      <trkpt lat="43.34463" lon="-5.922229">
        <ele>310.0</ele>
        <time>2012-05-29T13:28:41Z</time>
      </trkpt>
      <trkpt lat="43.344873" lon="-5.922417">
        <ele>310.0</ele>
        <time>2012-05-29T13:28:45Z</time>
      </trkpt>
      <trkpt lat="43.345097" lon="-5.922609">
        <ele>310.0</ele>
        <time>2012-05-29T13:28:49Z</time>
      </trkpt>
      <trkpt lat="43.345285" lon="-5.922866">
        <ele>309.0</ele>
        <time>2012-05-29T13:28:53Z</time>
      </trkpt>
      <trkpt lat="43.34548" lon="-5.923106">
        <ele>309.0</ele>
        <time>2012-05-29T13:28:57Z</time>
      </trkpt>
      <trkpt lat="43.345668" lon="-5.923364">
        <ele>309.0</ele>
        <time>2012-05-29T13:29:01Z</time>
      </trkpt>
      <trkpt lat="43.345748" lon="-5.923507">
        <ele>310.0</ele>
        <time>2012-05-29T13:29:03Z</time>
      </trkpt>
      <trkpt lat="43.34591" lon="-5.924012">
        <ele>310.0</ele>
        <time>2012-05-29T13:29:09Z</time>
      </trkpt>
      <trkpt lat="43.345984" lon="-5.924274">
        <ele>310.0</ele>
        <time>2012-05-29T13:29:12Z</time>
      </trkpt>
      <trkpt lat="43.346104" lon="-5.924709">
        <ele>310.0</ele>
        <time>2012-05-29T13:29:17Z</time>
      </trkpt>
      <trkpt lat="43.346232" lon="-5.925037">
        <ele>310.0</ele>
        <time>2012-05-29T13:29:21Z</time>
      </trkpt>
      <trkpt lat="43.346443" lon="-5.925282">
        <ele>311.0</ele>
        <time>2012-05-29T13:29:25Z</time>
      </trkpt>
      <trkpt lat="43.346714" lon="-5.925366">
        <ele>312.0</ele>
        <time>2012-05-29T13:29:29Z</time>
      </trkpt>
      <trkpt lat="43.346838" lon="-5.925439">
        <ele>312.0</ele>
        <time>2012-05-29T13:29:31Z</time>
      </trkpt>
      <trkpt lat="43.347076" lon="-5.925913">
        <ele>312.0</ele>
        <time>2012-05-29T13:29:37Z</time>
      </trkpt>
      <trkpt lat="43.347149" lon="-5.926315">
        <ele>312.0</ele>
        <time>2012-05-29T13:29:41Z</time>
      </trkpt>
      <trkpt lat="43.347188" lon="-5.926774">
        <ele>312.0</ele>
        <time>2012-05-29T13:29:45Z</time>
      </trkpt>
      <trkpt lat="43.347135" lon="-5.927269">
        <ele>312.0</ele>
        <time>2012-05-29T13:29:49Z</time>
      </trkpt>
      <trkpt lat="43.347134" lon="-5.927641">
        <ele>312.0</ele>
        <time>2012-05-29T13:29:52Z</time>
      </trkpt>
      <trkpt lat="43.347156" lon="-5.928257">
        <ele>313.0</ele>
        <time>2012-05-29T13:29:57Z</time>
      </trkpt>
      <trkpt lat="43.347363" lon="-5.928681">
        <ele>313.0</ele>
        <time>2012-05-29T13:30:01Z</time>
      </trkpt>
      <trkpt lat="43.347527" lon="-5.929174">
        <ele>314.0</ele>
        <time>2012-05-29T13:30:05Z</time>
      </trkpt>
      <trkpt lat="43.347587" lon="-5.929704">
        <ele>313.0</ele>
        <time>2012-05-29T13:30:09Z</time>
      </trkpt>
      <trkpt lat="43.347622" lon="-5.930267">
        <ele>313.0</ele>
        <time>2012-05-29T13:30:13Z</time>
      </trkpt>
      <trkpt lat="43.34766" lon="-5.930829">
        <ele>313.0</ele>
        <time>2012-05-29T13:30:17Z</time>
      </trkpt>
      <trkpt lat="43.347695" lon="-5.931374">
        <ele>313.0</ele>
        <time>2012-05-29T13:30:21Z</time>
      </trkpt>
      <trkpt lat="43.347768" lon="-5.931902">
        <ele>314.0</ele>
        <time>2012-05-29T13:30:25Z</time>
      </trkpt>
      <trkpt lat="43.347827" lon="-5.932445">
        <ele>313.0</ele>
        <time>2012-05-29T13:30:29Z</time>
      </trkpt>
      <trkpt lat="43.347768" lon="-5.933022">
        <ele>313.0</ele>
        <time>2012-05-29T13:30:33Z</time>
      </trkpt>
      <trkpt lat="43.347677" lon="-5.933435">
        <ele>313.0</ele>
        <time>2012-05-29T13:30:36Z</time>
      </trkpt>
      <trkpt lat="43.347427" lon="-5.934025">
        <ele>312.0</ele>
        <time>2012-05-29T13:30:41Z</time>
      </trkpt>
      <trkpt lat="43.347071" lon="-5.934317">
        <ele>312.0</ele>
        <time>2012-05-29T13:30:45Z</time>
      </trkpt>
      <trkpt lat="43.346709" lon="-5.934612">
        <ele>312.0</ele>
        <time>2012-05-29T13:30:49Z</time>
      </trkpt>
      <trkpt lat="43.346377" lon="-5.934991">
        <ele>311.0</ele>
        <time>2012-05-29T13:30:53Z</time>
      </trkpt>
      <trkpt lat="43.34055" lon="-5.950466">
        <ele>287.0</ele>
        <time>2012-05-29T13:32:57Z</time>
      </trkpt>
      <trkpt lat="43.340595" lon="-5.950986">
        <ele>286.0</ele>
        <time>2012-05-29T13:33:01Z</time>
      </trkpt>
      <trkpt lat="43.341077" lon="-5.951266">
        <ele>286.0</ele>
        <time>2012-05-29T13:33:05Z</time>
      </trkpt>
      <trkpt lat="43.341332" lon="-5.951613">
        <ele>286.0</ele>
        <time>2012-05-29T13:33:08Z</time>
      </trkpt>
      <trkpt lat="43.341495" lon="-5.952497">
        <ele>276.0</ele>
        <time>2012-05-29T13:33:13Z</time>
      </trkpt>
      <trkpt lat="43.341292" lon="-5.953396">
        <ele>263.0</ele>
        <time>2012-05-29T13:33:17Z</time>
      </trkpt>
      <trkpt lat="43.341314" lon="-5.954067">
        <ele>261.0</ele>
        <time>2012-05-29T13:33:21Z</time>
      </trkpt>
      <trkpt lat="43.341578" lon="-5.954594">
        <ele>255.0</ele>
        <time>2012-05-29T13:33:25Z</time>
      </trkpt>
      <trkpt lat="43.342042" lon="-5.954871">
        <ele>251.0</ele>
        <time>2012-05-29T13:33:29Z</time>
      </trkpt>
      <trkpt lat="43.342571" lon="-5.955034">
        <ele>248.0</ele>
        <time>2012-05-29T13:33:33Z</time>
      </trkpt>
      <trkpt lat="43.343094" lon="-5.95516">
        <ele>247.0</ele>
        <time>2012-05-29T13:33:37Z</time>
      </trkpt>
      <trkpt lat="43.343595" lon="-5.9553">
        <ele>247.0</ele>
        <time>2012-05-29T13:33:41Z</time>
      </trkpt>
      <trkpt lat="43.344077" lon="-5.955463">
        <ele>247.0</ele>
        <time>2012-05-29T13:33:45Z</time>
      </trkpt>
      <trkpt lat="43.344549" lon="-5.955646">
        <ele>246.0</ele>
        <time>2012-05-29T13:33:49Z</time>
      </trkpt>
      <trkpt lat="43.345022" lon="-5.955828">
        <ele>246.0</ele>
        <time>2012-05-29T13:33:53Z</time>
      </trkpt>
      <trkpt lat="43.345497" lon="-5.95604">
        <ele>246.0</ele>
        <time>2012-05-29T13:33:57Z</time>
      </trkpt>
      <trkpt lat="43.345971" lon="-5.956266">
        <ele>246.0</ele>
        <time>2012-05-29T13:34:01Z</time>
      </trkpt>
      <trkpt lat="43.346449" lon="-5.956469">
        <ele>245.0</ele>
        <time>2012-05-29T13:34:05Z</time>
      </trkpt>
      <trkpt lat="43.346902" lon="-5.956806">
        <ele>245.0</ele>
        <time>2012-05-29T13:34:09Z</time>
      </trkpt>
      <trkpt lat="43.347353" lon="-5.957156">
        <ele>243.0</ele>
        <time>2012-05-29T13:34:13Z</time>
      </trkpt>
      <trkpt lat="43.347845" lon="-5.957373">
        <ele>241.0</ele>
        <time>2012-05-29T13:34:17Z</time>
      </trkpt>
      <trkpt lat="43.348343" lon="-5.957633">
        <ele>240.0</ele>
        <time>2012-05-29T13:34:21Z</time>
      </trkpt>
      <trkpt lat="43.348806" lon="-5.957935">
        <ele>239.0</ele>
        <time>2012-05-29T13:34:25Z</time>
      </trkpt>
      <trkpt lat="43.349117" lon="-5.958445">
        <ele>239.0</ele>
        <time>2012-05-29T13:34:29Z</time>
      </trkpt>
      <trkpt lat="43.349364" lon="-5.95893">
        <ele>239.0</ele>
        <time>2012-05-29T13:34:33Z</time>
      </trkpt>
      <trkpt lat="43.349514" lon="-5.959408">
        <ele>235.0</ele>
        <time>2012-05-29T13:34:37Z</time>
      </trkpt>
      <trkpt lat="43.349476" lon="-5.959972">
        <ele>232.0</ele>
        <time>2012-05-29T13:34:41Z</time>
      </trkpt>
      <trkpt lat="43.349406" lon="-5.960541">
        <ele>229.0</ele>
        <time>2012-05-29T13:34:45Z</time>
      </trkpt>
      <trkpt lat="43.349348" lon="-5.961149">
        <ele>228.0</ele>
        <time>2012-05-29T13:34:49Z</time>
      </trkpt>
      <trkpt lat="43.3494" lon="-5.961777">
        <ele>224.0</ele>
        <time>2012-05-29T13:34:53Z</time>
      </trkpt>
      <trkpt lat="43.349479" lon="-5.962426">
        <ele>223.0</ele>
        <time>2012-05-29T13:34:57Z</time>
      </trkpt>
      <trkpt lat="43.349493" lon="-5.963082">
        <ele>222.0</ele>
        <time>2012-05-29T13:35:01Z</time>
      </trkpt>
      <trkpt lat="43.349436" lon="-5.963721">
        <ele>222.0</ele>
        <time>2012-05-29T13:35:05Z</time>
      </trkpt>
      <trkpt lat="43.349751" lon="-5.964118">
        <ele>221.0</ele>
        <time>2012-05-29T13:35:09Z</time>
      </trkpt>
      <trkpt lat="43.35022" lon="-5.964257">
        <ele>219.0</ele>
        <time>2012-05-29T13:35:13Z</time>
      </trkpt>
      <trkpt lat="43.350668" lon="-5.964165">
        <ele>216.0</ele>
        <time>2012-05-29T13:35:17Z</time>
      </trkpt>
      <trkpt lat="43.35107" lon="-5.96397">
        <ele>213.0</ele>
        <time>2012-05-29T13:35:21Z</time>
      </trkpt>
      <trkpt lat="43.351451" lon="-5.963703">
        <ele>211.0</ele>
        <time>2012-05-29T13:35:25Z</time>
      </trkpt>
      <trkpt lat="43.351843" lon="-5.963447">
        <ele>209.0</ele>
        <time>2012-05-29T13:35:29Z</time>
      </trkpt>
      <trkpt lat="43.352295" lon="-5.963295">
        <ele>208.0</ele>
        <time>2012-05-29T13:35:33Z</time>
      </trkpt>
      <trkpt lat="43.352737" lon="-5.963136">
        <ele>206.0</ele>
        <time>2012-05-29T13:35:37Z</time>
      </trkpt>
      <trkpt lat="43.353109" lon="-5.962862">
        <ele>206.0</ele>
        <time>2012-05-29T13:35:41Z</time>
      </trkpt>
      <trkpt lat="43.35346" lon="-5.962565">
        <ele>206.0</ele>
        <time>2012-05-29T13:35:45Z</time>
      </trkpt>
      <trkpt lat="43.353786" lon="-5.962273">
        <ele>205.0</ele>
        <time>2012-05-29T13:35:49Z</time>
      </trkpt>
      <trkpt lat="43.354144" lon="-5.962326">
        <ele>203.0</ele>
        <time>2012-05-29T13:35:53Z</time>
      </trkpt>
      <trkpt lat="43.354383" lon="-5.962645">
        <ele>202.0</ele>
        <time>2012-05-29T13:35:57Z</time>
      </trkpt>
      <trkpt lat="43.353975" lon="-5.96301">
        <ele>202.0</ele>
        <time>2012-05-29T13:36:01Z</time>
      </trkpt>
      <trkpt lat="43.353652" lon="-5.963187">
        <ele>198.0</ele>
        <time>2012-05-29T13:36:05Z</time>
      </trkpt>
      <trkpt lat="43.353378" lon="-5.963476">
        <ele>196.0</ele>
        <time>2012-05-29T13:36:09Z</time>
      </trkpt>
      <trkpt lat="43.353186" lon="-5.963767">
        <ele>196.0</ele>
        <time>2012-05-29T13:36:13Z</time>
      </trkpt>
      <trkpt lat="43.353144" lon="-5.964018">
        <ele>194.0</ele>
        <time>2012-05-29T13:36:16Z</time>
      </trkpt>
      <trkpt lat="43.35316" lon="-5.96433">
        <ele>189.0</ele>
        <time>2012-05-29T13:36:20Z</time>
      </trkpt>
      <trkpt lat="43.35331" lon="-5.964798">
        <ele>182.0</ele>
        <time>2012-05-29T13:36:25Z</time>
      </trkpt>
      <trkpt lat="43.353475" lon="-5.965244">
        <ele>176.0</ele>
        <time>2012-05-29T13:36:29Z</time>
      </trkpt>
      <trkpt lat="43.353653" lon="-5.965646">
        <ele>171.0</ele>
        <time>2012-05-29T13:36:33Z</time>
      </trkpt>
      <trkpt lat="43.353825" lon="-5.96604">
        <ele>169.0</ele>
        <time>2012-05-29T13:36:37Z</time>
      </trkpt>
      <trkpt lat="43.354035" lon="-5.96636">
        <ele>167.0</ele>
        <time>2012-05-29T13:36:41Z</time>
      </trkpt>
      <trkpt lat="43.354315" lon="-5.966405">
        <ele>167.0</ele>
        <time>2012-05-29T13:36:45Z</time>
      </trkpt>
      <trkpt lat="43.354482" lon="-5.966387">
        <ele>167.0</ele>
        <time>2012-05-29T13:36:48Z</time>
      </trkpt>
      <trkpt lat="43.354676" lon="-5.966377">
        <ele>167.0</ele>
        <time>2012-05-29T13:36:52Z</time>
      </trkpt>
      <trkpt lat="43.354861" lon="-5.966375">
        <ele>166.0</ele>
        <time>2012-05-29T13:36:56Z</time>
      </trkpt>
      <trkpt lat="43.355051" lon="-5.96636">
        <ele>165.0</ele>
        <time>2012-05-29T13:37:00Z</time>
      </trkpt>
      <trkpt lat="43.355244" lon="-5.966331">
        <ele>165.0</ele>
        <time>2012-05-29T13:37:04Z</time>
      </trkpt>
      <trkpt lat="43.355342" lon="-5.966311">
        <ele>165.0</ele>
        <time>2012-05-29T13:37:06Z</time>
      </trkpt>
      <trkpt lat="43.355631" lon="-5.966263">
        <ele>166.0</ele>
        <time>2012-05-29T13:37:12Z</time>
      </trkpt>
      <trkpt lat="43.355975" lon="-5.966206">
        <ele>166.0</ele>
        <time>2012-05-29T13:37:20Z</time>
      </trkpt>
      <trkpt lat="43.356136" lon="-5.966167">
        <ele>166.0</ele>
        <time>2012-05-29T13:37:24Z</time>
      </trkpt>
      <trkpt lat="43.356294" lon="-5.966115">
        <ele>166.0</ele>
        <time>2012-05-29T13:37:28Z</time>
      </trkpt>
      <trkpt lat="43.356455" lon="-5.966057">
        <ele>167.0</ele>
        <time>2012-05-29T13:37:32Z</time>
      </trkpt>
      <trkpt lat="43.35661" lon="-5.96599">
        <ele>167.0</ele>
        <time>2012-05-29T13:37:36Z</time>
      </trkpt>
      <trkpt lat="43.356758" lon="-5.965916">
        <ele>167.0</ele>
        <time>2012-05-29T13:37:40Z</time>
      </trkpt>
      <trkpt lat="43.35691" lon="-5.965848">
        <ele>167.0</ele>
        <time>2012-05-29T13:37:44Z</time>
      </trkpt>
      <trkpt lat="43.357061" lon="-5.965782">
        <ele>167.0</ele>
        <time>2012-05-29T13:37:48Z</time>
      </trkpt>
      <trkpt lat="43.357135" lon="-5.965747">
        <ele>167.0</ele>
        <time>2012-05-29T13:37:50Z</time>
      </trkpt>
      <trkpt lat="43.357362" lon="-5.965659">
        <ele>167.0</ele>
        <time>2012-05-29T13:37:56Z</time>
      </trkpt>
      <trkpt lat="43.357517" lon="-5.965624">
        <ele>167.0</ele>
        <time>2012-05-29T13:38:00Z</time>
      </trkpt>
      <trkpt lat="43.357671" lon="-5.965608">
        <ele>168.0</ele>
        <time>2012-05-29T13:38:04Z</time>
      </trkpt>
      <trkpt lat="43.357828" lon="-5.965614">
        <ele>168.0</ele>
        <time>2012-05-29T13:38:08Z</time>
      </trkpt>
      <trkpt lat="43.357984" lon="-5.965616">
        <ele>169.0</ele>
        <time>2012-05-29T13:38:12Z</time>
      </trkpt>
      <trkpt lat="43.358275" lon="-5.965578">
        <ele>168.0</ele>
        <time>2012-05-29T13:38:20Z</time>
      </trkpt>
      <trkpt lat="43.358413" lon="-5.965555">
        <ele>168.0</ele>
        <time>2012-05-29T13:38:24Z</time>
      </trkpt>
      <trkpt lat="43.358552" lon="-5.965552">
        <ele>168.0</ele>
        <time>2012-05-29T13:38:28Z</time>
      </trkpt>
      <trkpt lat="43.358694" lon="-5.965555">
        <ele>168.0</ele>
        <time>2012-05-29T13:38:32Z</time>
      </trkpt>
      <trkpt lat="43.358837" lon="-5.965583">
        <ele>168.0</ele>
        <time>2012-05-29T13:38:36Z</time>
      </trkpt>
      <trkpt lat="43.358963" lon="-5.965717">
        <ele>168.0</ele>
        <time>2012-05-29T13:38:40Z</time>
      </trkpt>
      <trkpt lat="43.359152" lon="-5.965954">
        <ele>169.0</ele>
        <time>2012-05-29T13:38:46Z</time>
      </trkpt>
      <trkpt lat="43.359279" lon="-5.966254">
        <ele>171.0</ele>
        <time>2012-05-29T13:38:52Z</time>
      </trkpt>
      <trkpt lat="43.359283" lon="-5.966368">
        <ele>171.0</ele>
        <time>2012-05-29T13:38:54Z</time>
      </trkpt>
      <trkpt lat="43.359306" lon="-5.966716">
        <ele>171.0</ele>
        <time>2012-05-29T13:39:00Z</time>
      </trkpt>
      <trkpt lat="43.359317" lon="-5.966962">
        <ele>171.0</ele>
        <time>2012-05-29T13:39:04Z</time>
      </trkpt>
      <trkpt lat="43.359339" lon="-5.967202">
        <ele>171.0</ele>
        <time>2012-05-29T13:39:08Z</time>
      </trkpt>
      <trkpt lat="43.359368" lon="-5.967438">
        <ele>171.0</ele>
        <time>2012-05-29T13:39:12Z</time>
      </trkpt>
      <trkpt lat="43.359316" lon="-5.967714">
        <ele>167.0</ele>
        <time>2012-05-29T13:39:17Z</time>
      </trkpt>
      <trkpt lat="43.359197" lon="-5.967902">
        <ele>167.0</ele>
        <time>2012-05-29T13:39:21Z</time>
      </trkpt>
      <trkpt lat="43.359121" lon="-5.96809">
        <ele>170.0</ele>
        <time>2012-05-29T13:39:25Z</time>
      </trkpt>
      <trkpt lat="43.359072" lon="-5.968293">
        <ele>173.0</ele>
        <time>2012-05-29T13:39:29Z</time>
      </trkpt>
      <trkpt lat="43.359041" lon="-5.968513">
        <ele>174.0</ele>
        <time>2012-05-29T13:39:33Z</time>
      </trkpt>
      <trkpt lat="43.35902" lon="-5.968645">
        <ele>174.0</ele>
        <time>2012-05-29T13:39:35Z</time>
      </trkpt>
      <trkpt lat="43.358991" lon="-5.969068">
        <ele>176.0</ele>
        <time>2012-05-29T13:39:41Z</time>
      </trkpt>
      <trkpt lat="43.358999" lon="-5.969346">
        <ele>176.0</ele>
        <time>2012-05-29T13:39:45Z</time>
      </trkpt>
      <trkpt lat="43.359088" lon="-5.969617">
        <ele>176.0</ele>
        <time>2012-05-29T13:39:49Z</time>
      </trkpt>
      <trkpt lat="43.359235" lon="-5.970174">
        <ele>177.0</ele>
        <time>2012-05-29T13:39:57Z</time>
      </trkpt>
      <trkpt lat="43.359299" lon="-5.970453">
        <ele>177.0</ele>
        <time>2012-05-29T13:40:01Z</time>
      </trkpt>
      <trkpt lat="43.359331" lon="-5.970591">
        <ele>177.0</ele>
        <time>2012-05-29T13:40:03Z</time>
      </trkpt>
      <trkpt lat="43.359517" lon="-5.971284">
        <ele>179.0</ele>
        <time>2012-05-29T13:40:13Z</time>
      </trkpt>
      <trkpt lat="43.359602" lon="-5.971563">
        <ele>179.0</ele>
        <time>2012-05-29T13:40:17Z</time>
      </trkpt>
      <trkpt lat="43.359675" lon="-5.971849">
        <ele>179.0</ele>
        <time>2012-05-29T13:40:21Z</time>
      </trkpt>
      <trkpt lat="43.359708" lon="-5.971995">
        <ele>179.0</ele>
        <time>2012-05-29T13:40:23Z</time>
      </trkpt>
      <trkpt lat="43.359796" lon="-5.972426">
        <ele>179.0</ele>
        <time>2012-05-29T13:40:29Z</time>
      </trkpt>
      <trkpt lat="43.359849" lon="-5.972729">
        <ele>179.0</ele>
        <time>2012-05-29T13:40:33Z</time>
      </trkpt>
      <trkpt lat="43.359896" lon="-5.973036">
        <ele>179.0</ele>
        <time>2012-05-29T13:40:37Z</time>
      </trkpt>
      <trkpt lat="43.359936" lon="-5.973347">
        <ele>179.0</ele>
        <time>2012-05-29T13:40:41Z</time>
      </trkpt>
      <trkpt lat="43.359929" lon="-5.973729">
        <ele>179.0</ele>
        <time>2012-05-29T13:40:45Z</time>
      </trkpt>
      <trkpt lat="43.359805" lon="-5.974153">
        <ele>180.0</ele>
        <time>2012-05-29T13:40:49Z</time>
      </trkpt>
      <trkpt lat="43.359776" lon="-5.974557">
        <ele>181.0</ele>
        <time>2012-05-29T13:40:53Z</time>
      </trkpt>
      <trkpt lat="43.359854" lon="-5.974921">
        <ele>182.0</ele>
        <time>2012-05-29T13:40:57Z</time>
      </trkpt>
      <trkpt lat="43.359959" lon="-5.97529">
        <ele>183.0</ele>
        <time>2012-05-29T13:41:01Z</time>
      </trkpt>
      <trkpt lat="43.360072" lon="-5.97565">
        <ele>183.0</ele>
        <time>2012-05-29T13:41:05Z</time>
      </trkpt>
      <trkpt lat="43.360153" lon="-5.97591">
        <ele>183.0</ele>
        <time>2012-05-29T13:41:08Z</time>
      </trkpt>
      <trkpt lat="43.360262" lon="-5.976233">
        <ele>184.0</ele>
        <time>2012-05-29T13:41:12Z</time>
      </trkpt>
      <trkpt lat="43.36037" lon="-5.976516">
        <ele>184.0</ele>
        <time>2012-05-29T13:41:16Z</time>
      </trkpt>
      <trkpt lat="43.360477" lon="-5.976785">
        <ele>184.0</ele>
        <time>2012-05-29T13:41:20Z</time>
      </trkpt>
      <trkpt lat="43.360605" lon="-5.977055">
        <ele>185.0</ele>
        <time>2012-05-29T13:41:24Z</time>
      </trkpt>
      <trkpt lat="43.360748" lon="-5.977318">
        <ele>185.0</ele>
        <time>2012-05-29T13:41:28Z</time>
      </trkpt>
      <trkpt lat="43.360854" lon="-5.977533">
        <ele>186.0</ele>
        <time>2012-05-29T13:41:32Z</time>
      </trkpt>
      <trkpt lat="43.360962" lon="-5.977671">
        <ele>187.0</ele>
        <time>2012-05-29T13:41:36Z</time>
      </trkpt>
      <trkpt lat="43.361076" lon="-5.977761">
        <ele>188.0</ele>
        <time>2012-05-29T13:41:40Z</time>
      </trkpt>
      <trkpt lat="43.361214" lon="-5.977862">
        <ele>189.0</ele>
        <time>2012-05-29T13:41:45Z</time>
      </trkpt>
      <trkpt lat="43.361338" lon="-5.977994">
        <ele>190.0</ele>
        <time>2012-05-29T13:41:49Z</time>
      </trkpt>
      <trkpt lat="43.361495" lon="-5.978144">
        <ele>191.0</ele>
        <time>2012-05-29T13:41:53Z</time>
      </trkpt>
      <trkpt lat="43.361804" lon="-5.978537">
        <ele>192.0</ele>
        <time>2012-05-29T13:42:01Z</time>
      </trkpt>
      <trkpt lat="43.361947" lon="-5.97875">
        <ele>193.0</ele>
        <time>2012-05-29T13:42:05Z</time>
      </trkpt>
      <trkpt lat="43.362099" lon="-5.978956">
        <ele>193.0</ele>
        <time>2012-05-29T13:42:09Z</time>
      </trkpt>
      <trkpt lat="43.362177" lon="-5.979058">
        <ele>193.0</ele>
        <time>2012-05-29T13:42:11Z</time>
      </trkpt>
      <trkpt lat="43.362414" lon="-5.979343">
        <ele>194.0</ele>
        <time>2012-05-29T13:42:17Z</time>
      </trkpt>
      <trkpt lat="43.362496" lon="-5.979437">
        <ele>194.0</ele>
        <time>2012-05-29T13:42:19Z</time>
      </trkpt>
      <trkpt lat="43.362739" lon="-5.979689">
        <ele>196.0</ele>
        <time>2012-05-29T13:42:25Z</time>
      </trkpt>
      <trkpt lat="43.362818" lon="-5.979758">
        <ele>197.0</ele>
        <time>2012-05-29T13:42:27Z</time>
      </trkpt>
      <trkpt lat="43.363032" lon="-5.979964">
        <ele>199.0</ele>
        <time>2012-05-29T13:42:33Z</time>
      </trkpt>
      <trkpt lat="43.363167" lon="-5.980093">
        <ele>201.0</ele>
        <time>2012-05-29T13:42:37Z</time>
      </trkpt>
      <trkpt lat="43.363299" lon="-5.98022">
        <ele>203.0</ele>
        <time>2012-05-29T13:42:41Z</time>
      </trkpt>
      <trkpt lat="43.363441" lon="-5.980319">
        <ele>205.0</ele>
        <time>2012-05-29T13:42:45Z</time>
      </trkpt>
      <trkpt lat="43.363591" lon="-5.980393">
        <ele>206.0</ele>
        <time>2012-05-29T13:42:49Z</time>
      </trkpt>
      <trkpt lat="43.363746" lon="-5.980436">
        <ele>206.0</ele>
        <time>2012-05-29T13:42:53Z</time>
      </trkpt>
      <trkpt lat="43.363906" lon="-5.980463">
        <ele>207.0</ele>
        <time>2012-05-29T13:42:57Z</time>
      </trkpt>
      <trkpt lat="43.364227" lon="-5.980496">
        <ele>208.0</ele>
        <time>2012-05-29T13:43:05Z</time>
      </trkpt>
      <trkpt lat="43.364406" lon="-5.980506">
        <ele>209.0</ele>
        <time>2012-05-29T13:43:09Z</time>
      </trkpt>
      <trkpt lat="43.364491" lon="-5.980514">
        <ele>209.0</ele>
        <time>2012-05-29T13:43:11Z</time>
      </trkpt>
      <trkpt lat="43.364661" lon="-5.980542">
        <ele>210.0</ele>
        <time>2012-05-29T13:43:15Z</time>
      </trkpt>
      <trkpt lat="43.364914" lon="-5.980599">
        <ele>211.0</ele>
        <time>2012-05-29T13:43:21Z</time>
      </trkpt>
      <trkpt lat="43.36508" lon="-5.98065">
        <ele>211.0</ele>
        <time>2012-05-29T13:43:25Z</time>
      </trkpt>
      <trkpt lat="43.365189" lon="-5.980841">
        <ele>211.0</ele>
        <time>2012-05-29T13:43:28Z</time>
      </trkpt>
      <trkpt lat="43.365281" lon="-5.981062">
        <ele>212.0</ele>
        <time>2012-05-29T13:43:32Z</time>
      </trkpt>
      <trkpt lat="43.365283" lon="-5.981329">
        <ele>214.0</ele>
        <time>2012-05-29T13:43:36Z</time>
      </trkpt>
      <trkpt lat="43.365293" lon="-5.981596">
        <ele>215.0</ele>
        <time>2012-05-29T13:43:40Z</time>
      </trkpt>
      <trkpt lat="43.365334" lon="-5.98186">
        <ele>215.0</ele>
        <time>2012-05-29T13:43:44Z</time>
      </trkpt>
      <trkpt lat="43.365354" lon="-5.981992">
        <ele>215.0</ele>
        <time>2012-05-29T13:43:46Z</time>
      </trkpt>
      <trkpt lat="43.365518" lon="-5.982583">
        <ele>209.0</ele>
        <time>2012-05-29T13:43:53Z</time>
      </trkpt>
      <trkpt lat="43.365686" lon="-5.982951">
        <ele>210.0</ele>
        <time>2012-05-29T13:43:57Z</time>
      </trkpt>
      <trkpt lat="43.365867" lon="-5.983259">
        <ele>212.0</ele>
        <time>2012-05-29T13:44:01Z</time>
      </trkpt>
      <trkpt lat="43.366019" lon="-5.983554">
        <ele>215.0</ele>
        <time>2012-05-29T13:44:05Z</time>
      </trkpt>
      <trkpt lat="43.366115" lon="-5.983773">
        <ele>217.0</ele>
        <time>2012-05-29T13:44:08Z</time>
      </trkpt>
      <trkpt lat="43.366266" lon="-5.984381">
        <ele>221.0</ele>
        <time>2012-05-29T13:44:16Z</time>
      </trkpt>
      <trkpt lat="43.366296" lon="-5.984709">
        <ele>221.0</ele>
        <time>2012-05-29T13:44:20Z</time>
      </trkpt>
      <trkpt lat="43.366342" lon="-5.985146">
        <ele>222.0</ele>
        <time>2012-05-29T13:44:25Z</time>
      </trkpt>
      <trkpt lat="43.366363" lon="-5.985411">
        <ele>222.0</ele>
        <time>2012-05-29T13:44:28Z</time>
      </trkpt>
      <trkpt lat="43.366403" lon="-5.985838">
        <ele>222.0</ele>
        <time>2012-05-29T13:44:33Z</time>
      </trkpt>
      <trkpt lat="43.366385" lon="-5.986169">
        <ele>225.0</ele>
        <time>2012-05-29T13:44:37Z</time>
      </trkpt>
      <trkpt lat="43.366223" lon="-5.986456">
        <ele>227.0</ele>
        <time>2012-05-29T13:44:41Z</time>
      </trkpt>
      <trkpt lat="43.366078" lon="-5.986728">
        <ele>228.0</ele>
        <time>2012-05-29T13:44:45Z</time>
      </trkpt>
      <trkpt lat="43.365945" lon="-5.987022">
        <ele>228.0</ele>
        <time>2012-05-29T13:44:49Z</time>
      </trkpt>
      <trkpt lat="43.365732" lon="-5.987254">
        <ele>225.0</ele>
        <time>2012-05-29T13:44:53Z</time>
      </trkpt>
      <trkpt lat="43.365334" lon="-5.987314">
        <ele>223.0</ele>
        <time>2012-05-29T13:44:57Z</time>
      </trkpt>
      <trkpt lat="43.365132" lon="-5.987401">
        <ele>223.0</ele>
        <time>2012-05-29T13:45:00Z</time>
      </trkpt>
      <trkpt lat="43.364915" lon="-5.987687">
        <ele>225.0</ele>
        <time>2012-05-29T13:45:05Z</time>
      </trkpt>
      <trkpt lat="43.364913" lon="-5.98807">
        <ele>226.0</ele>
        <time>2012-05-29T13:45:09Z</time>
      </trkpt>
      <trkpt lat="43.364928" lon="-5.988554">
        <ele>227.0</ele>
        <time>2012-05-29T13:45:14Z</time>
      </trkpt>
      <trkpt lat="43.364961" lon="-5.988842">
        <ele>228.0</ele>
        <time>2012-05-29T13:45:17Z</time>
      </trkpt>
      <trkpt lat="43.365015" lon="-5.989227">
        <ele>229.0</ele>
        <time>2012-05-29T13:45:21Z</time>
      </trkpt>
      <trkpt lat="43.365075" lon="-5.989625">
        <ele>229.0</ele>
        <time>2012-05-29T13:45:25Z</time>
      </trkpt>
      <trkpt lat="43.365113" lon="-5.989826">
        <ele>230.0</ele>
        <time>2012-05-29T13:45:27Z</time>
      </trkpt>
      <trkpt lat="43.365237" lon="-5.990409">
        <ele>231.0</ele>
        <time>2012-05-29T13:45:33Z</time>
      </trkpt>
      <trkpt lat="43.365376" lon="-5.990764">
        <ele>231.0</ele>
        <time>2012-05-29T13:45:37Z</time>
      </trkpt>
      <trkpt lat="43.365463" lon="-5.990936">
        <ele>232.0</ele>
        <time>2012-05-29T13:45:39Z</time>
      </trkpt>
      <trkpt lat="43.365714" lon="-5.99146">
        <ele>232.0</ele>
        <time>2012-05-29T13:45:45Z</time>
      </trkpt>
      <trkpt lat="43.365907" lon="-5.991779">
        <ele>233.0</ele>
        <time>2012-05-29T13:45:49Z</time>
      </trkpt>
      <trkpt lat="43.366158" lon="-5.992037">
        <ele>233.0</ele>
        <time>2012-05-29T13:45:53Z</time>
      </trkpt>
      <trkpt lat="43.366486" lon="-5.992187">
        <ele>234.0</ele>
        <time>2012-05-29T13:45:57Z</time>
      </trkpt>
      <trkpt lat="43.366854" lon="-5.992298">
        <ele>235.0</ele>
        <time>2012-05-29T13:46:01Z</time>
      </trkpt>
      <trkpt lat="43.367186" lon="-5.992496">
        <ele>236.0</ele>
        <time>2012-05-29T13:46:05Z</time>
      </trkpt>
      <trkpt lat="43.367319" lon="-5.992675">
        <ele>237.0</ele>
        <time>2012-05-29T13:46:07Z</time>
      </trkpt>
      <trkpt lat="43.367458" lon="-5.993537">
        <ele>239.0</ele>
        <time>2012-05-29T13:46:14Z</time>
      </trkpt>
      <trkpt lat="43.367323" lon="-5.993947">
        <ele>240.0</ele>
        <time>2012-05-29T13:46:17Z</time>
      </trkpt>
      <trkpt lat="43.367148" lon="-5.994505">
        <ele>241.0</ele>
        <time>2012-05-29T13:46:21Z</time>
      </trkpt>
      <trkpt lat="43.367145" lon="-5.994918">
        <ele>241.0</ele>
        <time>2012-05-29T13:46:24Z</time>
      </trkpt>
      <trkpt lat="43.36758" lon="-5.995244">
        <ele>240.0</ele>
        <time>2012-05-29T13:46:29Z</time>
      </trkpt>
      <trkpt lat="43.367913" lon="-5.994897">
        <ele>240.0</ele>
        <time>2012-05-29T13:46:32Z</time>
      </trkpt>
      <trkpt lat="43.368193" lon="-5.994464">
        <ele>239.0</ele>
        <time>2012-05-29T13:46:36Z</time>
      </trkpt>
      <trkpt lat="43.368457" lon="-5.994328">
        <ele>239.0</ele>
        <time>2012-05-29T13:46:39Z</time>
      </trkpt>
      <trkpt lat="43.368756" lon="-5.994921">
        <ele>238.0</ele>
        <time>2012-05-29T13:46:44Z</time>
      </trkpt>
      <trkpt lat="43.36889" lon="-5.995527">
        <ele>239.0</ele>
        <time>2012-05-29T13:46:49Z</time>
      </trkpt>
      <trkpt lat="43.368916" lon="-5.996044">
        <ele>240.0</ele>
        <time>2012-05-29T13:46:53Z</time>
      </trkpt>
      <trkpt lat="43.368824" lon="-5.996629">
        <ele>240.0</ele>
        <time>2012-05-29T13:46:57Z</time>
      </trkpt>
      <trkpt lat="43.369036" lon="-5.997029">
        <ele>241.0</ele>
        <time>2012-05-29T13:47:01Z</time>
      </trkpt>
      <trkpt lat="43.369293" lon="-5.997375">
        <ele>241.0</ele>
        <time>2012-05-29T13:47:05Z</time>
      </trkpt>
      <trkpt lat="43.369577" lon="-5.99767">
        <ele>241.0</ele>
        <time>2012-05-29T13:47:09Z</time>
      </trkpt>
      <trkpt lat="43.369887" lon="-5.997931">
        <ele>240.0</ele>
        <time>2012-05-29T13:47:13Z</time>
      </trkpt>
      <trkpt lat="43.370273" lon="-5.998074">
        <ele>239.0</ele>
        <time>2012-05-29T13:47:17Z</time>
      </trkpt>
      <trkpt lat="43.370685" lon="-5.998075">
        <ele>238.0</ele>
        <time>2012-05-29T13:47:21Z</time>
      </trkpt>
      <trkpt lat="43.371084" lon="-5.998021">
        <ele>237.0</ele>
        <time>2012-05-29T13:47:25Z</time>
      </trkpt>
      <trkpt lat="43.371466" lon="-5.997862">
        <ele>237.0</ele>
        <time>2012-05-29T13:47:29Z</time>
      </trkpt>
      <trkpt lat="43.371797" lon="-5.997568">
        <ele>237.0</ele>
        <time>2012-05-29T13:47:33Z</time>
      </trkpt>
      <trkpt lat="43.372032" lon="-5.997155">
        <ele>237.0</ele>
        <time>2012-05-29T13:47:37Z</time>
      </trkpt>
      <trkpt lat="43.372192" lon="-5.996802">
        <ele>237.0</ele>
        <time>2012-05-29T13:47:40Z</time>
      </trkpt>
      <trkpt lat="43.37264" lon="-5.996532">
        <ele>236.0</ele>
        <time>2012-05-29T13:47:45Z</time>
      </trkpt>
      <trkpt lat="43.373025" lon="-5.996595">
        <ele>235.0</ele>
        <time>2012-05-29T13:47:49Z</time>
      </trkpt>
      <trkpt lat="43.373352" lon="-5.996933">
        <ele>235.0</ele>
        <time>2012-05-29T13:47:53Z</time>
      </trkpt>
      <trkpt lat="43.373571" lon="-5.997418">
        <ele>235.0</ele>
        <time>2012-05-29T13:47:57Z</time>
      </trkpt>
      <trkpt lat="43.373824" lon="-5.997858">
        <ele>235.0</ele>
        <time>2012-05-29T13:48:01Z</time>
      </trkpt>
      <trkpt lat="43.3742" lon="-5.998057">
        <ele>236.0</ele>
        <time>2012-05-29T13:48:05Z</time>
      </trkpt>
      <trkpt lat="43.374615" lon="-5.998043">
        <ele>234.0</ele>
        <time>2012-05-29T13:48:09Z</time>
      </trkpt>
      <trkpt lat="43.374956" lon="-5.997711">
        <ele>234.0</ele>
        <time>2012-05-29T13:48:13Z</time>
      </trkpt>
      <trkpt lat="43.375283" lon="-5.997407">
        <ele>234.0</ele>
        <time>2012-05-29T13:48:17Z</time>
      </trkpt>
      <trkpt lat="43.375615" lon="-5.997231">
        <ele>233.0</ele>
        <time>2012-05-29T13:48:21Z</time>
      </trkpt>
      <trkpt lat="43.375998" lon="-5.997667">
        <ele>232.0</ele>
        <time>2012-05-29T13:48:25Z</time>
      </trkpt>
      <trkpt lat="43.376324" lon="-5.998134">
        <ele>231.0</ele>
        <time>2012-05-29T13:48:29Z</time>
      </trkpt>
      <trkpt lat="43.376634" lon="-5.998597">
        <ele>228.0</ele>
        <time>2012-05-29T13:48:33Z</time>
      </trkpt>
      <trkpt lat="43.376957" lon="-5.999008">
        <ele>227.0</ele>
        <time>2012-05-29T13:48:37Z</time>
      </trkpt>
      <trkpt lat="43.377289" lon="-5.999343">
        <ele>225.0</ele>
        <time>2012-05-29T13:48:41Z</time>
      </trkpt>
      <trkpt lat="43.37767" lon="-5.99951">
        <ele>225.0</ele>
        <time>2012-05-29T13:48:45Z</time>
      </trkpt>
      <trkpt lat="43.378058" lon="-5.99923">
        <ele>225.0</ele>
        <time>2012-05-29T13:48:49Z</time>
      </trkpt>
      <trkpt lat="43.378364" lon="-5.998813">
        <ele>226.0</ele>
        <time>2012-05-29T13:48:53Z</time>
      </trkpt>
      <trkpt lat="43.378582" lon="-5.998326">
        <ele>225.0</ele>
        <time>2012-05-29T13:48:57Z</time>
      </trkpt>
      <trkpt lat="43.378779" lon="-5.997831">
        <ele>224.0</ele>
        <time>2012-05-29T13:49:01Z</time>
      </trkpt>
      <trkpt lat="43.37889" lon="-5.997299">
        <ele>224.0</ele>
        <time>2012-05-29T13:49:05Z</time>
      </trkpt>
      <trkpt lat="43.379065" lon="-5.996912">
        <ele>224.0</ele>
        <time>2012-05-29T13:49:09Z</time>
      </trkpt>
      <trkpt lat="43.379409" lon="-5.99705">
        <ele>224.0</ele>
        <time>2012-05-29T13:49:13Z</time>
      </trkpt>
      <trkpt lat="43.379457" lon="-5.997632">
        <ele>223.0</ele>
        <time>2012-05-29T13:49:17Z</time>
      </trkpt>
      <trkpt lat="43.379471" lon="-5.997722">
        <ele>223.0</ele>
        <time>2012-05-29T13:49:18Z</time>
      </trkpt>
      <trkpt lat="43.379447" lon="-5.997846">
        <ele>223.0</ele>
        <time>2012-05-29T13:49:27Z</time>
      </trkpt>
      <trkpt lat="43.379447" lon="-5.997846">
        <time>2012-05-29T13:49:38Z</time>
      </trkpt>
    </trkseg>
    <trkseg>
      <trkpt lat="43.379447" lon="-5.997846">
        <time>2012-05-29T13:52:27Z</time>
      </trkpt>
      <trkpt lat="43.379447" lon="-5.997846">
        <time>2012-05-29T13:52:38Z</time>
      </trkpt>
    </trkseg>
    <trkseg>
      <trkpt lat="43.379447" lon="-5.997846">
        <time>2012-05-29T13:53:44Z</time>
      </trkpt>
      <trkpt lat="43.379447" lon="-5.997846">
        <time>2012-05-29T13:53:55Z</time>
      </trkpt>
    </trkseg>
    <trkseg>
      <trkpt lat="43.379447" lon="-5.997846">
        <time>2012-05-29T13:54:33Z</time>
      </trkpt>
      <trkpt lat="43.379447" lon="-5.997846">
        <time>2012-05-29T13:54:44Z</time>
      </trkpt>
    </trkseg>
    <trkseg>
      <trkpt lat="43.379447" lon="-5.997846">
        <time>2012-05-29T13:55:48Z</time>
      </trkpt>
      <trkpt lat="43.379597" lon="-5.997971">
        <ele>214.0</ele>
        <time>2012-05-29T13:55:50Z</time>
      </trkpt>
      <trkpt lat="43.379823" lon="-5.998166">
        <ele>210.0</ele>
        <time>2012-05-29T13:55:54Z</time>
      </trkpt>
      <trkpt lat="43.380059" lon="-5.998389">
        <ele>206.0</ele>
        <time>2012-05-29T13:55:58Z</time>
      </trkpt>
      <trkpt lat="43.380317" lon="-5.99858">
        <ele>204.0</ele>
        <time>2012-05-29T13:56:02Z</time>
      </trkpt>
      <trkpt lat="43.380613" lon="-5.998673">
        <ele>203.0</ele>
        <time>2012-05-29T13:56:06Z</time>
      </trkpt>
      <trkpt lat="43.380916" lon="-5.998664">
        <ele>201.0</ele>
        <time>2012-05-29T13:56:10Z</time>
      </trkpt>
      <trkpt lat="43.381222" lon="-5.998501">
        <ele>201.0</ele>
        <time>2012-05-29T13:56:14Z</time>
      </trkpt>
      <trkpt lat="43.381527" lon="-5.998325">
        <ele>201.0</ele>
        <time>2012-05-29T13:56:18Z</time>
      </trkpt>
      <trkpt lat="43.381767" lon="-5.99826">
        <ele>201.0</ele>
        <time>2012-05-29T13:56:21Z</time>
      </trkpt>
      <trkpt lat="43.38203" lon="-5.998679">
        <ele>199.0</ele>
        <time>2012-05-29T13:56:26Z</time>
      </trkpt>
      <trkpt lat="43.382206" lon="-5.999013">
        <ele>198.0</ele>
        <time>2012-05-29T13:56:30Z</time>
      </trkpt>
      <trkpt lat="43.382445" lon="-5.999286">
        <ele>197.0</ele>
        <time>2012-05-29T13:56:34Z</time>
      </trkpt>
      <trkpt lat="43.382748" lon="-5.999465">
        <ele>196.0</ele>
        <time>2012-05-29T13:56:38Z</time>
      </trkpt>
      <trkpt lat="43.383027" lon="-5.999659">
        <ele>195.0</ele>
        <time>2012-05-29T13:56:42Z</time>
      </trkpt>
      <trkpt lat="43.383279" lon="-5.999902">
        <ele>195.0</ele>
        <time>2012-05-29T13:56:46Z</time>
      </trkpt>
      <trkpt lat="43.383537" lon="-6.000152">
        <ele>194.0</ele>
        <time>2012-05-29T13:56:50Z</time>
      </trkpt>
      <trkpt lat="43.383833" lon="-6.000368">
        <ele>193.0</ele>
        <time>2012-05-29T13:56:54Z</time>
      </trkpt>
      <trkpt lat="43.384128" lon="-6.000619">
        <ele>192.0</ele>
        <time>2012-05-29T13:56:58Z</time>
      </trkpt>
      <trkpt lat="43.384388" lon="-6.000937">
        <ele>190.0</ele>
        <time>2012-05-29T13:57:02Z</time>
      </trkpt>
      <trkpt lat="43.384674" lon="-6.001248">
        <ele>189.0</ele>
        <time>2012-05-29T13:57:06Z</time>
      </trkpt>
      <trkpt lat="43.384977" lon="-6.001544">
        <ele>187.0</ele>
        <time>2012-05-29T13:57:10Z</time>
      </trkpt>
      <trkpt lat="43.385335" lon="-6.001701">
        <ele>186.0</ele>
        <time>2012-05-29T13:57:14Z</time>
      </trkpt>
      <trkpt lat="43.385708" lon="-6.001604">
        <ele>184.0</ele>
        <time>2012-05-29T13:57:18Z</time>
      </trkpt>
      <trkpt lat="43.385999" lon="-6.001306">
        <ele>181.0</ele>
        <time>2012-05-29T13:57:22Z</time>
      </trkpt>
      <trkpt lat="43.386132" lon="-6.001145">
        <ele>181.0</ele>
        <time>2012-05-29T13:57:24Z</time>
      </trkpt>
      <trkpt lat="43.386539" lon="-6.00077">
        <ele>179.0</ele>
        <time>2012-05-29T13:57:30Z</time>
      </trkpt>
      <trkpt lat="43.386849" lon="-6.000734">
        <ele>177.0</ele>
        <time>2012-05-29T13:57:34Z</time>
      </trkpt>
      <trkpt lat="43.386988" lon="-6.000815">
        <ele>176.0</ele>
        <time>2012-05-29T13:57:36Z</time>
      </trkpt>
      <trkpt lat="43.387326" lon="-6.001168">
        <ele>172.0</ele>
        <time>2012-05-29T13:57:42Z</time>
      </trkpt>
      <trkpt lat="43.387544" lon="-6.001392">
        <ele>171.0</ele>
        <time>2012-05-29T13:57:46Z</time>
      </trkpt>
      <trkpt lat="43.38768" lon="-6.001602">
        <ele>169.0</ele>
        <time>2012-05-29T13:57:49Z</time>
      </trkpt>
      <trkpt lat="43.387779" lon="-6.001902">
        <ele>167.0</ele>
        <time>2012-05-29T13:57:53Z</time>
      </trkpt>
      <trkpt lat="43.387836" lon="-6.002201">
        <ele>165.0</ele>
        <time>2012-05-29T13:57:57Z</time>
      </trkpt>
      <trkpt lat="43.387861" lon="-6.002344">
        <ele>164.0</ele>
        <time>2012-05-29T13:57:59Z</time>
      </trkpt>
      <trkpt lat="43.387954" lon="-6.002756">
        <ele>163.0</ele>
        <time>2012-05-29T13:58:05Z</time>
      </trkpt>
      <trkpt lat="43.387992" lon="-6.002847">
        <ele>163.0</ele>
        <time>2012-05-29T13:58:07Z</time>
      </trkpt>
      <trkpt lat="43.388069" lon="-6.003047">
        <ele>162.0</ele>
        <time>2012-05-29T13:58:14Z</time>
      </trkpt>
      <trkpt lat="43.388131" lon="-6.003208">
        <ele>162.0</ele>
        <time>2012-05-29T13:58:18Z</time>
      </trkpt>
      <trkpt lat="43.388262" lon="-6.003545">
        <ele>162.0</ele>
        <time>2012-05-29T13:58:26Z</time>
      </trkpt>
      <trkpt lat="43.388318" lon="-6.003717">
        <ele>162.0</ele>
        <time>2012-05-29T13:58:30Z</time>
      </trkpt>
      <trkpt lat="43.388363" lon="-6.003887">
        <ele>162.0</ele>
        <time>2012-05-29T13:58:34Z</time>
      </trkpt>
      <trkpt lat="43.388402" lon="-6.004053">
        <ele>161.0</ele>
        <time>2012-05-29T13:58:38Z</time>
      </trkpt>
      <trkpt lat="43.388452" lon="-6.004396">
        <ele>161.0</ele>
        <time>2012-05-29T13:58:46Z</time>
      </trkpt>
      <trkpt lat="43.388458" lon="-6.004577">
        <ele>161.0</ele>
        <time>2012-05-29T13:58:50Z</time>
      </trkpt>
      <trkpt lat="43.38846" lon="-6.004757">
        <ele>161.0</ele>
        <time>2012-05-29T13:58:54Z</time>
      </trkpt>
      <trkpt lat="43.388446" lon="-6.004933">
        <ele>161.0</ele>
        <time>2012-05-29T13:58:58Z</time>
      </trkpt>
      <trkpt lat="43.388426" lon="-6.005113">
        <ele>161.0</ele>
        <time>2012-05-29T13:59:02Z</time>
      </trkpt>
      <trkpt lat="43.388343" lon="-6.005526">
        <ele>161.0</ele>
        <time>2012-05-29T13:59:10Z</time>
      </trkpt>
      <trkpt lat="43.388245" lon="-6.005754">
        <ele>162.0</ele>
        <time>2012-05-29T13:59:14Z</time>
      </trkpt>
      <trkpt lat="43.388285" lon="-6.006366">
        <ele>163.0</ele>
        <time>2012-05-29T13:59:22Z</time>
      </trkpt>
      <trkpt lat="43.388379" lon="-6.006739">
        <ele>163.0</ele>
        <time>2012-05-29T13:59:26Z</time>
      </trkpt>
      <trkpt lat="43.388478" lon="-6.007133">
        <ele>163.0</ele>
        <time>2012-05-29T13:59:30Z</time>
      </trkpt>
      <trkpt lat="43.388593" lon="-6.007552">
        <ele>163.0</ele>
        <time>2012-05-29T13:59:34Z</time>
      </trkpt>
      <trkpt lat="43.388778" lon="-6.008056">
        <ele>163.0</ele>
        <time>2012-05-29T13:59:38Z</time>
      </trkpt>
      <trkpt lat="43.388937" lon="-6.008436">
        <ele>163.0</ele>
        <time>2012-05-29T13:59:41Z</time>
      </trkpt>
      <trkpt lat="43.389198" lon="-6.009019">
        <ele>162.0</ele>
        <time>2012-05-29T13:59:46Z</time>
      </trkpt>
      <trkpt lat="43.389408" lon="-6.009445">
        <ele>162.0</ele>
        <time>2012-05-29T13:59:50Z</time>
      </trkpt>
      <trkpt lat="43.389604" lon="-6.009867">
        <ele>161.0</ele>
        <time>2012-05-29T13:59:54Z</time>
      </trkpt>
      <trkpt lat="43.389805" lon="-6.010285">
        <ele>160.0</ele>
        <time>2012-05-29T13:59:58Z</time>
      </trkpt>
      <trkpt lat="43.390002" lon="-6.010702">
        <ele>159.0</ele>
        <time>2012-05-29T14:00:02Z</time>
      </trkpt>
      <trkpt lat="43.390203" lon="-6.011097">
        <ele>158.0</ele>
        <time>2012-05-29T14:00:06Z</time>
      </trkpt>
      <trkpt lat="43.390414" lon="-6.011474">
        <ele>158.0</ele>
        <time>2012-05-29T14:00:10Z</time>
      </trkpt>
      <trkpt lat="43.390618" lon="-6.011861">
        <ele>158.0</ele>
        <time>2012-05-29T14:00:14Z</time>
      </trkpt>
      <trkpt lat="43.39085" lon="-6.012206">
        <ele>158.0</ele>
        <time>2012-05-29T14:00:18Z</time>
      </trkpt>
      <trkpt lat="43.39115" lon="-6.012453">
        <ele>159.0</ele>
        <time>2012-05-29T14:00:22Z</time>
      </trkpt>
      <trkpt lat="43.391479" lon="-6.012592">
        <ele>159.0</ele>
        <time>2012-05-29T14:00:26Z</time>
      </trkpt>
      <trkpt lat="43.391744" lon="-6.012806">
        <ele>159.0</ele>
        <time>2012-05-29T14:00:30Z</time>
      </trkpt>
      <trkpt lat="43.391972" lon="-6.013069">
        <ele>159.0</ele>
        <time>2012-05-29T14:00:34Z</time>
      </trkpt>
      <trkpt lat="43.392184" lon="-6.013373">
        <ele>159.0</ele>
        <time>2012-05-29T14:00:38Z</time>
      </trkpt>
      <trkpt lat="43.392379" lon="-6.013704">
        <ele>159.0</ele>
        <time>2012-05-29T14:00:42Z</time>
      </trkpt>
      <trkpt lat="43.39257" lon="-6.014035">
        <ele>159.0</ele>
        <time>2012-05-29T14:00:46Z</time>
      </trkpt>
      <trkpt lat="43.392751" lon="-6.014383">
        <ele>159.0</ele>
        <time>2012-05-29T14:00:50Z</time>
      </trkpt>
      <trkpt lat="43.39292" lon="-6.014748">
        <ele>159.0</ele>
        <time>2012-05-29T14:00:54Z</time>
      </trkpt>
      <trkpt lat="43.393034" lon="-6.01518">
        <ele>160.0</ele>
        <time>2012-05-29T14:00:58Z</time>
      </trkpt>
      <trkpt lat="43.392823" lon="-6.015884">
        <ele>160.0</ele>
        <time>2012-05-29T14:01:02Z</time>
      </trkpt>
      <trkpt lat="43.392695" lon="-6.016488">
        <ele>162.0</ele>
        <time>2012-05-29T14:01:06Z</time>
      </trkpt>
      <trkpt lat="43.392648" lon="-6.017008">
        <ele>162.0</ele>
        <time>2012-05-29T14:01:10Z</time>
      </trkpt>
      <trkpt lat="43.392625" lon="-6.017517">
        <ele>162.0</ele>
        <time>2012-05-29T14:01:14Z</time>
      </trkpt>
      <trkpt lat="43.392604" lon="-6.018005">
        <ele>163.0</ele>
        <time>2012-05-29T14:01:18Z</time>
      </trkpt>
      <trkpt lat="43.392612" lon="-6.01846">
        <ele>162.0</ele>
        <time>2012-05-29T14:01:22Z</time>
      </trkpt>
      <trkpt lat="43.392801" lon="-6.018822">
        <ele>161.0</ele>
        <time>2012-05-29T14:01:26Z</time>
      </trkpt>
      <trkpt lat="43.393073" lon="-6.019091">
        <ele>161.0</ele>
        <time>2012-05-29T14:01:30Z</time>
      </trkpt>
      <trkpt lat="43.393341" lon="-6.019337">
        <ele>160.0</ele>
        <time>2012-05-29T14:01:34Z</time>
      </trkpt>
      <trkpt lat="43.393483" lon="-6.019701">
        <ele>160.0</ele>
        <time>2012-05-29T14:01:38Z</time>
      </trkpt>
      <trkpt lat="43.39358" lon="-6.020092">
        <ele>160.0</ele>
        <time>2012-05-29T14:01:42Z</time>
      </trkpt>
      <trkpt lat="43.393597" lon="-6.020297">
        <ele>160.0</ele>
        <time>2012-05-29T14:01:44Z</time>
      </trkpt>
      <trkpt lat="43.393627" lon="-6.02094">
        <ele>160.0</ele>
        <time>2012-05-29T14:01:50Z</time>
      </trkpt>
      <trkpt lat="43.39348" lon="-6.021232">
        <ele>159.0</ele>
        <time>2012-05-29T14:01:54Z</time>
      </trkpt>
      <trkpt lat="43.393227" lon="-6.021416">
        <ele>156.0</ele>
        <time>2012-05-29T14:01:58Z</time>
      </trkpt>
      <trkpt lat="43.393018" lon="-6.021688">
        <ele>154.0</ele>
        <time>2012-05-29T14:02:02Z</time>
      </trkpt>
      <trkpt lat="43.392941" lon="-6.022063">
        <ele>154.0</ele>
        <time>2012-05-29T14:02:06Z</time>
      </trkpt>
      <trkpt lat="43.393012" lon="-6.022442">
        <ele>154.0</ele>
        <time>2012-05-29T14:02:10Z</time>
      </trkpt>
      <trkpt lat="43.393095" lon="-6.022701">
        <ele>154.0</ele>
        <time>2012-05-29T14:02:13Z</time>
      </trkpt>
      <trkpt lat="43.393246" lon="-6.023139">
        <ele>153.0</ele>
        <time>2012-05-29T14:02:18Z</time>
      </trkpt>
      <trkpt lat="43.393365" lon="-6.023498">
        <ele>153.0</ele>
        <time>2012-05-29T14:02:22Z</time>
      </trkpt>
      <trkpt lat="43.393475" lon="-6.023877">
        <ele>153.0</ele>
        <time>2012-05-29T14:02:26Z</time>
      </trkpt>
      <trkpt lat="43.393568" lon="-6.024276">
        <ele>154.0</ele>
        <time>2012-05-29T14:02:30Z</time>
      </trkpt>
      <trkpt lat="43.393699" lon="-6.024644">
        <ele>155.0</ele>
        <time>2012-05-29T14:02:34Z</time>
      </trkpt>
      <trkpt lat="43.393852" lon="-6.02485">
        <ele>156.0</ele>
        <time>2012-05-29T14:02:37Z</time>
      </trkpt>
      <trkpt lat="43.394023" lon="-6.025087">
        <ele>159.0</ele>
        <time>2012-05-29T14:02:41Z</time>
      </trkpt>
      <trkpt lat="43.394251" lon="-6.025372">
        <ele>160.0</ele>
        <time>2012-05-29T14:02:46Z</time>
      </trkpt>
      <trkpt lat="43.394454" lon="-6.025592">
        <ele>159.0</ele>
        <time>2012-05-29T14:02:50Z</time>
      </trkpt>
      <trkpt lat="43.394692" lon="-6.025775">
        <ele>159.0</ele>
        <time>2012-05-29T14:02:54Z</time>
      </trkpt>
      <trkpt lat="43.394963" lon="-6.02591">
        <ele>159.0</ele>
        <time>2012-05-29T14:02:58Z</time>
      </trkpt>
      <trkpt lat="43.395253" lon="-6.025903">
        <ele>159.0</ele>
        <time>2012-05-29T14:03:02Z</time>
      </trkpt>
      <trkpt lat="43.395524" lon="-6.025861">
        <ele>158.0</ele>
        <time>2012-05-29T14:03:06Z</time>
      </trkpt>
      <trkpt lat="43.395786" lon="-6.02583">
        <ele>158.0</ele>
        <time>2012-05-29T14:03:10Z</time>
      </trkpt>
      <trkpt lat="43.396019" lon="-6.026037">
        <ele>158.0</ele>
        <time>2012-05-29T14:03:14Z</time>
      </trkpt>
      <trkpt lat="43.396144" lon="-6.026344">
        <ele>158.0</ele>
        <time>2012-05-29T14:03:18Z</time>
      </trkpt>
      <trkpt lat="43.396199" lon="-6.026661">
        <ele>158.0</ele>
        <time>2012-05-29T14:03:22Z</time>
      </trkpt>
      <trkpt lat="43.39625" lon="-6.027015">
        <ele>159.0</ele>
        <time>2012-05-29T14:03:26Z</time>
      </trkpt>
      <trkpt lat="43.396308" lon="-6.02737">
        <ele>159.0</ele>
        <time>2012-05-29T14:03:30Z</time>
      </trkpt>
      <trkpt lat="43.396358" lon="-6.027722">
        <ele>158.0</ele>
        <time>2012-05-29T14:03:34Z</time>
      </trkpt>
      <trkpt lat="43.396407" lon="-6.028079">
        <ele>158.0</ele>
        <time>2012-05-29T14:03:38Z</time>
      </trkpt>
      <trkpt lat="43.396458" lon="-6.028445">
        <ele>157.0</ele>
        <time>2012-05-29T14:03:42Z</time>
      </trkpt>
      <trkpt lat="43.396548" lon="-6.028806">
        <ele>157.0</ele>
        <time>2012-05-29T14:03:46Z</time>
      </trkpt>
      <trkpt lat="43.396689" lon="-6.029161">
        <ele>155.0</ele>
        <time>2012-05-29T14:03:50Z</time>
      </trkpt>
      <trkpt lat="43.396865" lon="-6.029479">
        <ele>154.0</ele>
        <time>2012-05-29T14:03:54Z</time>
      </trkpt>
      <trkpt lat="43.397016" lon="-6.029699">
        <ele>153.0</ele>
        <time>2012-05-29T14:03:57Z</time>
      </trkpt>
      <trkpt lat="43.397311" lon="-6.029998">
        <ele>152.0</ele>
        <time>2012-05-29T14:04:02Z</time>
      </trkpt>
      <trkpt lat="43.397562" lon="-6.030185">
        <ele>151.0</ele>
        <time>2012-05-29T14:04:06Z</time>
      </trkpt>
      <trkpt lat="43.397803" lon="-6.030356">
        <ele>149.0</ele>
        <time>2012-05-29T14:04:10Z</time>
      </trkpt>
      <trkpt lat="43.398045" lon="-6.030527">
        <ele>147.0</ele>
        <time>2012-05-29T14:04:14Z</time>
      </trkpt>
      <trkpt lat="43.398281" lon="-6.030683">
        <ele>146.0</ele>
        <time>2012-05-29T14:04:18Z</time>
      </trkpt>
      <trkpt lat="43.398514" lon="-6.03084">
        <ele>145.0</ele>
        <time>2012-05-29T14:04:22Z</time>
      </trkpt>
      <trkpt lat="43.398721" lon="-6.031058">
        <ele>144.0</ele>
        <time>2012-05-29T14:04:26Z</time>
      </trkpt>
      <trkpt lat="43.398908" lon="-6.031318">
        <ele>143.0</ele>
        <time>2012-05-29T14:04:30Z</time>
      </trkpt>
      <trkpt lat="43.399088" lon="-6.031586">
        <ele>142.0</ele>
        <time>2012-05-29T14:04:34Z</time>
      </trkpt>
      <trkpt lat="43.399263" lon="-6.03186">
        <ele>141.0</ele>
        <time>2012-05-29T14:04:38Z</time>
      </trkpt>
      <trkpt lat="43.399446" lon="-6.032128">
        <ele>140.0</ele>
        <time>2012-05-29T14:04:42Z</time>
      </trkpt>
      <trkpt lat="43.399627" lon="-6.032382">
        <ele>139.0</ele>
        <time>2012-05-29T14:04:46Z</time>
      </trkpt>
      <trkpt lat="43.399807" lon="-6.032627">
        <ele>139.0</ele>
        <time>2012-05-29T14:04:50Z</time>
      </trkpt>
      <trkpt lat="43.399991" lon="-6.032885">
        <ele>138.0</ele>
        <time>2012-05-29T14:04:54Z</time>
      </trkpt>
      <trkpt lat="43.400188" lon="-6.033144">
        <ele>138.0</ele>
        <time>2012-05-29T14:04:58Z</time>
      </trkpt>
      <trkpt lat="43.400392" lon="-6.033397">
        <ele>138.0</ele>
        <time>2012-05-29T14:05:02Z</time>
      </trkpt>
      <trkpt lat="43.400596" lon="-6.033646">
        <ele>138.0</ele>
        <time>2012-05-29T14:05:06Z</time>
      </trkpt>
      <trkpt lat="43.400796" lon="-6.033896">
        <ele>138.0</ele>
        <time>2012-05-29T14:05:10Z</time>
      </trkpt>
      <trkpt lat="43.400945" lon="-6.034079">
        <ele>138.0</ele>
        <time>2012-05-29T14:05:13Z</time>
      </trkpt>
      <trkpt lat="43.401168" lon="-6.034424">
        <ele>137.0</ele>
        <time>2012-05-29T14:05:18Z</time>
      </trkpt>
      <trkpt lat="43.401306" lon="-6.034741">
        <ele>137.0</ele>
        <time>2012-05-29T14:05:22Z</time>
      </trkpt>
      <trkpt lat="43.401401" lon="-6.035092">
        <ele>136.0</ele>
        <time>2012-05-29T14:05:26Z</time>
      </trkpt>
      <trkpt lat="43.401479" lon="-6.03545">
        <ele>136.0</ele>
        <time>2012-05-29T14:05:30Z</time>
      </trkpt>
      <trkpt lat="43.401551" lon="-6.03581">
        <ele>136.0</ele>
        <time>2012-05-29T14:05:34Z</time>
      </trkpt>
      <trkpt lat="43.401621" lon="-6.036166">
        <ele>136.0</ele>
        <time>2012-05-29T14:05:38Z</time>
      </trkpt>
      <trkpt lat="43.401706" lon="-6.036513">
        <ele>137.0</ele>
        <time>2012-05-29T14:05:42Z</time>
      </trkpt>
      <trkpt lat="43.401805" lon="-6.036861">
        <ele>137.0</ele>
        <time>2012-05-29T14:05:46Z</time>
      </trkpt>
      <trkpt lat="43.401923" lon="-6.037199">
        <ele>137.0</ele>
        <time>2012-05-29T14:05:50Z</time>
      </trkpt>
      <trkpt lat="43.402046" lon="-6.037534">
        <ele>137.0</ele>
        <time>2012-05-29T14:05:54Z</time>
      </trkpt>
      <trkpt lat="43.402171" lon="-6.037875">
        <ele>137.0</ele>
        <time>2012-05-29T14:05:58Z</time>
      </trkpt>
      <trkpt lat="43.402294" lon="-6.038212">
        <ele>137.0</ele>
        <time>2012-05-29T14:06:02Z</time>
      </trkpt>
      <trkpt lat="43.40242" lon="-6.03855">
        <ele>138.0</ele>
        <time>2012-05-29T14:06:06Z</time>
      </trkpt>
      <trkpt lat="43.402545" lon="-6.0389">
        <ele>138.0</ele>
        <time>2012-05-29T14:06:10Z</time>
      </trkpt>
      <trkpt lat="43.402675" lon="-6.039253">
        <ele>139.0</ele>
        <time>2012-05-29T14:06:14Z</time>
      </trkpt>
      <trkpt lat="43.402796" lon="-6.039615">
        <ele>139.0</ele>
        <time>2012-05-29T14:06:18Z</time>
      </trkpt>
      <trkpt lat="43.402906" lon="-6.039994">
        <ele>139.0</ele>
        <time>2012-05-29T14:06:22Z</time>
      </trkpt>
      <trkpt lat="43.402978" lon="-6.040389">
        <ele>139.0</ele>
        <time>2012-05-29T14:06:26Z</time>
      </trkpt>
      <trkpt lat="43.402995" lon="-6.040691">
        <ele>139.0</ele>
        <time>2012-05-29T14:06:29Z</time>
      </trkpt>
      <trkpt lat="43.40299" lon="-6.041176">
        <ele>140.0</ele>
        <time>2012-05-29T14:06:34Z</time>
      </trkpt>
      <trkpt lat="43.403024" lon="-6.041572">
        <ele>139.0</ele>
        <time>2012-05-29T14:06:38Z</time>
      </trkpt>
      <trkpt lat="43.403066" lon="-6.041999">
        <ele>139.0</ele>
        <time>2012-05-29T14:06:42Z</time>
      </trkpt>
      <trkpt lat="43.403118" lon="-6.042455">
        <ele>138.0</ele>
        <time>2012-05-29T14:06:46Z</time>
      </trkpt>
      <trkpt lat="43.403119" lon="-6.042932">
        <ele>137.0</ele>
        <time>2012-05-29T14:06:50Z</time>
      </trkpt>
      <trkpt lat="43.403078" lon="-6.043416">
        <ele>136.0</ele>
        <time>2012-05-29T14:06:54Z</time>
      </trkpt>
      <trkpt lat="43.402995" lon="-6.043865">
        <ele>135.0</ele>
        <time>2012-05-29T14:06:58Z</time>
      </trkpt>
      <trkpt lat="43.402851" lon="-6.044238">
        <ele>135.0</ele>
        <time>2012-05-29T14:07:02Z</time>
      </trkpt>
      <trkpt lat="43.402655" lon="-6.044492">
        <ele>134.0</ele>
        <time>2012-05-29T14:07:06Z</time>
      </trkpt>
      <trkpt lat="43.402478" lon="-6.044732">
        <ele>134.0</ele>
        <time>2012-05-29T14:07:10Z</time>
      </trkpt>
      <trkpt lat="43.402245" lon="-6.045249">
        <ele>133.0</ele>
        <time>2012-05-29T14:07:18Z</time>
      </trkpt>
      <trkpt lat="43.402133" lon="-6.045497">
        <ele>132.0</ele>
        <time>2012-05-29T14:07:22Z</time>
      </trkpt>
      <trkpt lat="43.402002" lon="-6.045719">
        <ele>129.0</ele>
        <time>2012-05-29T14:07:26Z</time>
      </trkpt>
      <trkpt lat="43.401814" lon="-6.045916">
        <ele>127.0</ele>
        <time>2012-05-29T14:07:30Z</time>
      </trkpt>
      <trkpt lat="43.401714" lon="-6.046012">
        <ele>126.0</ele>
        <time>2012-05-29T14:07:32Z</time>
      </trkpt>
      <trkpt lat="43.401421" lon="-6.046307">
        <ele>124.0</ele>
        <time>2012-05-29T14:07:38Z</time>
      </trkpt>
      <trkpt lat="43.401218" lon="-6.046525">
        <ele>123.0</ele>
        <time>2012-05-29T14:07:42Z</time>
      </trkpt>
      <trkpt lat="43.401115" lon="-6.046629">
        <ele>122.0</ele>
        <time>2012-05-29T14:07:44Z</time>
      </trkpt>
      <trkpt lat="43.400798" lon="-6.046937">
        <ele>120.0</ele>
        <time>2012-05-29T14:07:50Z</time>
      </trkpt>
      <trkpt lat="43.400585" lon="-6.04715">
        <ele>118.0</ele>
        <time>2012-05-29T14:07:54Z</time>
      </trkpt>
      <trkpt lat="43.400366" lon="-6.047376">
        <ele>117.0</ele>
        <time>2012-05-29T14:07:58Z</time>
      </trkpt>
      <trkpt lat="43.400255" lon="-6.047486">
        <ele>117.0</ele>
        <time>2012-05-29T14:08:00Z</time>
      </trkpt>
      <trkpt lat="43.399927" lon="-6.047824">
        <ele>116.0</ele>
        <time>2012-05-29T14:08:06Z</time>
      </trkpt>
      <trkpt lat="43.399736" lon="-6.048098">
        <ele>116.0</ele>
        <time>2012-05-29T14:08:10Z</time>
      </trkpt>
      <trkpt lat="43.399547" lon="-6.048378">
        <ele>116.0</ele>
        <time>2012-05-29T14:08:14Z</time>
      </trkpt>
      <trkpt lat="43.399358" lon="-6.048658">
        <ele>115.0</ele>
        <time>2012-05-29T14:08:18Z</time>
      </trkpt>
      <trkpt lat="43.399261" lon="-6.048792">
        <ele>115.0</ele>
        <time>2012-05-29T14:08:20Z</time>
      </trkpt>
      <trkpt lat="43.399005" lon="-6.049216">
        <ele>114.0</ele>
        <time>2012-05-29T14:08:26Z</time>
      </trkpt>
    </trkseg>
  </trk>
</gpx>